<?xml version="1.0" encoding="UTF-8" standalone="no" ?>
<gpx xmlns="http://www.topografix.com/GPX/1/1" xmlns:xsi="http://www.w3.org/2001/XMLSchema-instance" xsi:schemaLocation="http://www.topografix.com/GPX/1/1 http://www.topografix.com/GPX/1/1/gpx.xsd" version="1.1" creator="VisuGPX - https://www.visugpx.com">
  <metadata>
    <name>CMC Pic de Paloumère</name>
    <desc><![CDATA[Un lundi de Pâques magnifique, ensoleillé en dépit des prévisions pessimistes. Vue sur toute la chaîne, et en prime une omelette préparée avec enthousiasme !]]></desc>
  </metadata>
  <trk>
    <name><![CDATA[Herran Marche à pied]]></name>
    <trkseg>
      <trkpt lat="42.96479" lon="0.87877">
        <ele>1207</ele>
        <time>2018-04-02T07:07:47.000Z</time>
      </trkpt>
      <trkpt lat="42.96482" lon="0.8788">
        <ele>1207</ele>
        <time>2018-04-02T07:07:49.000Z</time>
      </trkpt>
      <trkpt lat="42.96482" lon="0.8788">
        <ele>1207</ele>
        <time>2018-04-02T07:07:51.000Z</time>
      </trkpt>
      <trkpt lat="42.96472" lon="0.87881">
        <ele>1210</ele>
        <time>2018-04-02T07:07:53.000Z</time>
      </trkpt>
      <trkpt lat="42.96466" lon="0.87883">
        <ele>1211</ele>
        <time>2018-04-02T07:07:55.000Z</time>
      </trkpt>
      <trkpt lat="42.96465" lon="0.87885">
        <ele>1212</ele>
        <time>2018-04-02T07:07:57.000Z</time>
      </trkpt>
      <trkpt lat="42.96457" lon="0.87884">
        <ele>1213</ele>
        <time>2018-04-02T07:07:59.000Z</time>
      </trkpt>
      <trkpt lat="42.96453" lon="0.87883">
        <ele>1214</ele>
        <time>2018-04-02T07:08:01.000Z</time>
      </trkpt>
      <trkpt lat="42.96452" lon="0.87889">
        <ele>1215</ele>
        <time>2018-04-02T07:08:03.000Z</time>
      </trkpt>
      <trkpt lat="42.96446" lon="0.87891">
        <ele>1217</ele>
        <time>2018-04-02T07:08:05.000Z</time>
      </trkpt>
      <trkpt lat="42.96436" lon="0.87892">
        <ele>1219</ele>
        <time>2018-04-02T07:08:07.000Z</time>
      </trkpt>
      <trkpt lat="42.96438" lon="0.87892">
        <ele>1219</ele>
        <time>2018-04-02T07:08:09.000Z</time>
      </trkpt>
      <trkpt lat="42.96439" lon="0.87894">
        <ele>1219</ele>
        <time>2018-04-02T07:08:11.000Z</time>
      </trkpt>
      <trkpt lat="42.96436" lon="0.87894">
        <ele>1219</ele>
        <time>2018-04-02T07:08:13.000Z</time>
      </trkpt>
      <trkpt lat="42.96435" lon="0.87893">
        <ele>1220</ele>
        <time>2018-04-02T07:08:15.000Z</time>
      </trkpt>
      <trkpt lat="42.96437" lon="0.87891">
        <ele>1219</ele>
        <time>2018-04-02T07:08:17.000Z</time>
      </trkpt>
      <trkpt lat="42.96437" lon="0.87888">
        <ele>1219</ele>
        <time>2018-04-02T07:08:19.000Z</time>
      </trkpt>
      <trkpt lat="42.96437" lon="0.87885">
        <ele>1219</ele>
        <time>2018-04-02T07:08:21.000Z</time>
      </trkpt>
      <trkpt lat="42.96436" lon="0.87883">
        <ele>1218</ele>
        <time>2018-04-02T07:08:23.000Z</time>
      </trkpt>
      <trkpt lat="42.96436" lon="0.87881">
        <ele>1218</ele>
        <time>2018-04-02T07:08:25.000Z</time>
      </trkpt>
      <trkpt lat="42.96435" lon="0.87879">
        <ele>1218</ele>
        <time>2018-04-02T07:08:27.000Z</time>
      </trkpt>
      <trkpt lat="42.96433" lon="0.87878">
        <ele>1219</ele>
        <time>2018-04-02T07:08:29.000Z</time>
      </trkpt>
      <trkpt lat="42.96433" lon="0.87876">
        <ele>1219</ele>
        <time>2018-04-02T07:08:31.000Z</time>
      </trkpt>
      <trkpt lat="42.96433" lon="0.87874">
        <ele>1218</ele>
        <time>2018-04-02T07:08:33.000Z</time>
      </trkpt>
      <trkpt lat="42.96432" lon="0.87874">
        <ele>1218</ele>
        <time>2018-04-02T07:08:35.000Z</time>
      </trkpt>
      <trkpt lat="42.96431" lon="0.87874">
        <ele>1219</ele>
        <time>2018-04-02T07:08:37.000Z</time>
      </trkpt>
      <trkpt lat="42.96429" lon="0.87875">
        <ele>1219</ele>
        <time>2018-04-02T07:08:39.000Z</time>
      </trkpt>
      <trkpt lat="42.96428" lon="0.87874">
        <ele>1219</ele>
        <time>2018-04-02T07:08:41.000Z</time>
      </trkpt>
      <trkpt lat="42.96429" lon="0.87872">
        <ele>1219</ele>
        <time>2018-04-02T07:08:43.000Z</time>
      </trkpt>
      <trkpt lat="42.9643" lon="0.87869">
        <ele>1218</ele>
        <time>2018-04-02T07:08:45.000Z</time>
      </trkpt>
      <trkpt lat="42.96431" lon="0.87867">
        <ele>1218</ele>
        <time>2018-04-02T07:08:47.000Z</time>
      </trkpt>
      <trkpt lat="42.96432" lon="0.87864">
        <ele>1217</ele>
        <time>2018-04-02T07:08:49.000Z</time>
      </trkpt>
      <trkpt lat="42.96433" lon="0.87861">
        <ele>1217</ele>
        <time>2018-04-02T07:08:51.000Z</time>
      </trkpt>
      <trkpt lat="42.96432" lon="0.87858">
        <ele>1217</ele>
        <time>2018-04-02T07:08:53.000Z</time>
      </trkpt>
      <trkpt lat="42.96432" lon="0.87855">
        <ele>1217</ele>
        <time>2018-04-02T07:08:55.000Z</time>
      </trkpt>
      <trkpt lat="42.96431" lon="0.87853">
        <ele>1217</ele>
        <time>2018-04-02T07:08:57.000Z</time>
      </trkpt>
      <trkpt lat="42.96431" lon="0.87851">
        <ele>1216</ele>
        <time>2018-04-02T07:08:59.000Z</time>
      </trkpt>
      <trkpt lat="42.9643" lon="0.87849">
        <ele>1216</ele>
        <time>2018-04-02T07:09:01.000Z</time>
      </trkpt>
      <trkpt lat="42.9643" lon="0.87848">
        <ele>1216</ele>
        <time>2018-04-02T07:09:03.000Z</time>
      </trkpt>
      <trkpt lat="42.9643" lon="0.87846">
        <ele>1216</ele>
        <time>2018-04-02T07:09:05.000Z</time>
      </trkpt>
      <trkpt lat="42.9643" lon="0.87844">
        <ele>1216</ele>
        <time>2018-04-02T07:09:07.000Z</time>
      </trkpt>
      <trkpt lat="42.96429" lon="0.87842">
        <ele>1216</ele>
        <time>2018-04-02T07:09:09.000Z</time>
      </trkpt>
      <trkpt lat="42.96429" lon="0.8784">
        <ele>1215</ele>
        <time>2018-04-02T07:09:11.000Z</time>
      </trkpt>
      <trkpt lat="42.96429" lon="0.87839">
        <ele>1216</ele>
        <time>2018-04-02T07:09:13.000Z</time>
      </trkpt>
      <trkpt lat="42.96429" lon="0.87838">
        <ele>1215</ele>
        <time>2018-04-02T07:09:15.000Z</time>
      </trkpt>
      <trkpt lat="42.9643" lon="0.87837">
        <ele>1215</ele>
        <time>2018-04-02T07:09:17.000Z</time>
      </trkpt>
      <trkpt lat="42.9643" lon="0.87836">
        <ele>1215</ele>
        <time>2018-04-02T07:09:19.000Z</time>
      </trkpt>
      <trkpt lat="42.9643" lon="0.87835">
        <ele>1215</ele>
        <time>2018-04-02T07:09:21.000Z</time>
      </trkpt>
      <trkpt lat="42.96429" lon="0.87834">
        <ele>1215</ele>
        <time>2018-04-02T07:09:23.000Z</time>
      </trkpt>
      <trkpt lat="42.96429" lon="0.87833">
        <ele>1215</ele>
        <time>2018-04-02T07:09:25.000Z</time>
      </trkpt>
      <trkpt lat="42.96429" lon="0.87831">
        <ele>1215</ele>
        <time>2018-04-02T07:09:27.000Z</time>
      </trkpt>
      <trkpt lat="42.96429" lon="0.8783">
        <ele>1214</ele>
        <time>2018-04-02T07:09:29.000Z</time>
      </trkpt>
      <trkpt lat="42.9643" lon="0.87829">
        <ele>1214</ele>
        <time>2018-04-02T07:09:31.000Z</time>
      </trkpt>
      <trkpt lat="42.96432" lon="0.87828">
        <ele>1214</ele>
        <time>2018-04-02T07:09:33.000Z</time>
      </trkpt>
      <trkpt lat="42.96434" lon="0.87826">
        <ele>1213</ele>
        <time>2018-04-02T07:09:35.000Z</time>
      </trkpt>
      <trkpt lat="42.96435" lon="0.87826">
        <ele>1213</ele>
        <time>2018-04-02T07:09:37.000Z</time>
      </trkpt>
      <trkpt lat="42.96436" lon="0.87826">
        <ele>1212</ele>
        <time>2018-04-02T07:09:39.000Z</time>
      </trkpt>
      <trkpt lat="42.96437" lon="0.87827">
        <ele>1212</ele>
        <time>2018-04-02T07:09:41.000Z</time>
      </trkpt>
      <trkpt lat="42.96436" lon="0.87827">
        <ele>1212</ele>
        <time>2018-04-02T07:09:43.000Z</time>
      </trkpt>
      <trkpt lat="42.96439" lon="0.87828">
        <ele>1212</ele>
        <time>2018-04-02T07:09:45.000Z</time>
      </trkpt>
      <trkpt lat="42.96439" lon="0.87829">
        <ele>1212</ele>
        <time>2018-04-02T07:09:47.000Z</time>
      </trkpt>
      <trkpt lat="42.9644" lon="0.87829">
        <ele>1212</ele>
        <time>2018-04-02T07:09:49.000Z</time>
      </trkpt>
      <trkpt lat="42.9644" lon="0.87828">
        <ele>1212</ele>
        <time>2018-04-02T07:09:51.000Z</time>
      </trkpt>
      <trkpt lat="42.9644" lon="0.87828">
        <ele>1212</ele>
        <time>2018-04-02T07:09:53.000Z</time>
      </trkpt>
      <trkpt lat="42.9644" lon="0.87828">
        <ele>1212</ele>
        <time>2018-04-02T07:09:55.000Z</time>
      </trkpt>
      <trkpt lat="42.9644" lon="0.87827">
        <ele>1211</ele>
        <time>2018-04-02T07:09:57.000Z</time>
      </trkpt>
      <trkpt lat="42.9644" lon="0.87825">
        <ele>1211</ele>
        <time>2018-04-02T07:09:59.000Z</time>
      </trkpt>
      <trkpt lat="42.96439" lon="0.87823">
        <ele>1211</ele>
        <time>2018-04-02T07:10:01.000Z</time>
      </trkpt>
      <trkpt lat="42.96439" lon="0.87823">
        <ele>1211</ele>
        <time>2018-04-02T07:10:03.000Z</time>
      </trkpt>
      <trkpt lat="42.96438" lon="0.87823">
        <ele>1212</ele>
        <time>2018-04-02T07:10:05.000Z</time>
      </trkpt>
      <trkpt lat="42.96436" lon="0.87822">
        <ele>1212</ele>
        <time>2018-04-02T07:10:07.000Z</time>
      </trkpt>
      <trkpt lat="42.96434" lon="0.87822">
        <ele>1212</ele>
        <time>2018-04-02T07:10:09.000Z</time>
      </trkpt>
      <trkpt lat="42.96433" lon="0.87821">
        <ele>1213</ele>
        <time>2018-04-02T07:10:11.000Z</time>
      </trkpt>
      <trkpt lat="42.96431" lon="0.8782">
        <ele>1213</ele>
        <time>2018-04-02T07:10:13.000Z</time>
      </trkpt>
      <trkpt lat="42.9643" lon="0.8782">
        <ele>1213</ele>
        <time>2018-04-02T07:10:15.000Z</time>
      </trkpt>
      <trkpt lat="42.96428" lon="0.87819">
        <ele>1214</ele>
        <time>2018-04-02T07:10:17.000Z</time>
      </trkpt>
      <trkpt lat="42.96425" lon="0.87819">
        <ele>1214</ele>
        <time>2018-04-02T07:10:19.000Z</time>
      </trkpt>
      <trkpt lat="42.96423" lon="0.87819">
        <ele>1215</ele>
        <time>2018-04-02T07:10:21.000Z</time>
      </trkpt>
      <trkpt lat="42.96421" lon="0.87819">
        <ele>1216</ele>
        <time>2018-04-02T07:10:23.000Z</time>
      </trkpt>
      <trkpt lat="42.9642" lon="0.87817">
        <ele>1216</ele>
        <time>2018-04-02T07:10:25.000Z</time>
      </trkpt>
      <trkpt lat="42.9642" lon="0.87813">
        <ele>1216</ele>
        <time>2018-04-02T07:10:27.000Z</time>
      </trkpt>
      <trkpt lat="42.9642" lon="0.87809">
        <ele>1215</ele>
        <time>2018-04-02T07:10:29.000Z</time>
      </trkpt>
      <trkpt lat="42.96421" lon="0.87805">
        <ele>1214</ele>
        <time>2018-04-02T07:10:31.000Z</time>
      </trkpt>
      <trkpt lat="42.96422" lon="0.87802">
        <ele>1214</ele>
        <time>2018-04-02T07:10:33.000Z</time>
      </trkpt>
      <trkpt lat="42.96422" lon="0.87799">
        <ele>1214</ele>
        <time>2018-04-02T07:10:35.000Z</time>
      </trkpt>
      <trkpt lat="42.96424" lon="0.87797">
        <ele>1214</ele>
        <time>2018-04-02T07:10:37.000Z</time>
      </trkpt>
      <trkpt lat="42.96425" lon="0.87794">
        <ele>1214</ele>
        <time>2018-04-02T07:10:39.000Z</time>
      </trkpt>
      <trkpt lat="42.96424" lon="0.87792">
        <ele>1214</ele>
        <time>2018-04-02T07:10:41.000Z</time>
      </trkpt>
      <trkpt lat="42.96425" lon="0.8779">
        <ele>1214</ele>
        <time>2018-04-02T07:10:43.000Z</time>
      </trkpt>
      <trkpt lat="42.96424" lon="0.87787">
        <ele>1214</ele>
        <time>2018-04-02T07:10:45.000Z</time>
      </trkpt>
      <trkpt lat="42.96425" lon="0.87785">
        <ele>1214</ele>
        <time>2018-04-02T07:10:47.000Z</time>
      </trkpt>
      <trkpt lat="42.96425" lon="0.87784">
        <ele>1214</ele>
        <time>2018-04-02T07:10:49.000Z</time>
      </trkpt>
      <trkpt lat="42.96426" lon="0.87781">
        <ele>1214</ele>
        <time>2018-04-02T07:10:51.000Z</time>
      </trkpt>
      <trkpt lat="42.96426" lon="0.87779">
        <ele>1214</ele>
        <time>2018-04-02T07:10:53.000Z</time>
      </trkpt>
      <trkpt lat="42.96425" lon="0.87778">
        <ele>1214</ele>
        <time>2018-04-02T07:10:55.000Z</time>
      </trkpt>
      <trkpt lat="42.96425" lon="0.87775">
        <ele>1214</ele>
        <time>2018-04-02T07:10:57.000Z</time>
      </trkpt>
      <trkpt lat="42.96424" lon="0.87774">
        <ele>1215</ele>
        <time>2018-04-02T07:10:59.000Z</time>
      </trkpt>
      <trkpt lat="42.96423" lon="0.87772">
        <ele>1215</ele>
        <time>2018-04-02T07:11:01.000Z</time>
      </trkpt>
      <trkpt lat="42.96425" lon="0.8777">
        <ele>1215</ele>
        <time>2018-04-02T07:11:03.000Z</time>
      </trkpt>
      <trkpt lat="42.96425" lon="0.87769">
        <ele>1215</ele>
        <time>2018-04-02T07:11:05.000Z</time>
      </trkpt>
      <trkpt lat="42.96425" lon="0.87766">
        <ele>1215</ele>
        <time>2018-04-02T07:11:07.000Z</time>
      </trkpt>
      <trkpt lat="42.96425" lon="0.87763">
        <ele>1215</ele>
        <time>2018-04-02T07:11:09.000Z</time>
      </trkpt>
      <trkpt lat="42.96425" lon="0.87761">
        <ele>1215</ele>
        <time>2018-04-02T07:11:11.000Z</time>
      </trkpt>
      <trkpt lat="42.96424" lon="0.87759">
        <ele>1215</ele>
        <time>2018-04-02T07:11:13.000Z</time>
      </trkpt>
      <trkpt lat="42.96423" lon="0.87758">
        <ele>1216</ele>
        <time>2018-04-02T07:11:15.000Z</time>
      </trkpt>
      <trkpt lat="42.96424" lon="0.87756">
        <ele>1216</ele>
        <time>2018-04-02T07:11:17.000Z</time>
      </trkpt>
      <trkpt lat="42.96426" lon="0.87754">
        <ele>1215</ele>
        <time>2018-04-02T07:11:19.000Z</time>
      </trkpt>
      <trkpt lat="42.96426" lon="0.87753">
        <ele>1215</ele>
        <time>2018-04-02T07:11:21.000Z</time>
      </trkpt>
      <trkpt lat="42.96426" lon="0.87751">
        <ele>1215</ele>
        <time>2018-04-02T07:11:23.000Z</time>
      </trkpt>
      <trkpt lat="42.96427" lon="0.8775">
        <ele>1215</ele>
        <time>2018-04-02T07:11:25.000Z</time>
      </trkpt>
      <trkpt lat="42.96429" lon="0.87748">
        <ele>1215</ele>
        <time>2018-04-02T07:11:27.000Z</time>
      </trkpt>
      <trkpt lat="42.96428" lon="0.87746">
        <ele>1215</ele>
        <time>2018-04-02T07:11:29.000Z</time>
      </trkpt>
      <trkpt lat="42.96429" lon="0.87745">
        <ele>1215</ele>
        <time>2018-04-02T07:11:31.000Z</time>
      </trkpt>
      <trkpt lat="42.9643" lon="0.87745">
        <ele>1215</ele>
        <time>2018-04-02T07:11:33.000Z</time>
      </trkpt>
      <trkpt lat="42.9643" lon="0.87744">
        <ele>1215</ele>
        <time>2018-04-02T07:11:35.000Z</time>
      </trkpt>
      <trkpt lat="42.9643" lon="0.87742">
        <ele>1215</ele>
        <time>2018-04-02T07:11:37.000Z</time>
      </trkpt>
      <trkpt lat="42.96429" lon="0.8774">
        <ele>1215</ele>
        <time>2018-04-02T07:11:39.000Z</time>
      </trkpt>
      <trkpt lat="42.96428" lon="0.87738">
        <ele>1216</ele>
        <time>2018-04-02T07:11:41.000Z</time>
      </trkpt>
      <trkpt lat="42.96427" lon="0.87737">
        <ele>1216</ele>
        <time>2018-04-02T07:11:43.000Z</time>
      </trkpt>
      <trkpt lat="42.96425" lon="0.87735">
        <ele>1216</ele>
        <time>2018-04-02T07:11:45.000Z</time>
      </trkpt>
      <trkpt lat="42.96424" lon="0.87735">
        <ele>1217</ele>
        <time>2018-04-02T07:11:47.000Z</time>
      </trkpt>
      <trkpt lat="42.96423" lon="0.87733">
        <ele>1217</ele>
        <time>2018-04-02T07:11:49.000Z</time>
      </trkpt>
      <trkpt lat="42.96422" lon="0.87731">
        <ele>1217</ele>
        <time>2018-04-02T07:11:51.000Z</time>
      </trkpt>
      <trkpt lat="42.96422" lon="0.87729">
        <ele>1217</ele>
        <time>2018-04-02T07:11:53.000Z</time>
      </trkpt>
      <trkpt lat="42.96422" lon="0.87728">
        <ele>1217</ele>
        <time>2018-04-02T07:11:55.000Z</time>
      </trkpt>
      <trkpt lat="42.96421" lon="0.87726">
        <ele>1218</ele>
        <time>2018-04-02T07:11:57.000Z</time>
      </trkpt>
      <trkpt lat="42.96419" lon="0.87724">
        <ele>1218</ele>
        <time>2018-04-02T07:11:59.000Z</time>
      </trkpt>
      <trkpt lat="42.96419" lon="0.87723">
        <ele>1218</ele>
        <time>2018-04-02T07:12:01.000Z</time>
      </trkpt>
      <trkpt lat="42.96418" lon="0.87722">
        <ele>1219</ele>
        <time>2018-04-02T07:12:03.000Z</time>
      </trkpt>
      <trkpt lat="42.96419" lon="0.8772">
        <ele>1219</ele>
        <time>2018-04-02T07:12:05.000Z</time>
      </trkpt>
      <trkpt lat="42.96422" lon="0.87718">
        <ele>1219</ele>
        <time>2018-04-02T07:12:07.000Z</time>
      </trkpt>
      <trkpt lat="42.96423" lon="0.87716">
        <ele>1220</ele>
        <time>2018-04-02T07:12:09.000Z</time>
      </trkpt>
      <trkpt lat="42.96423" lon="0.87713">
        <ele>1220</ele>
        <time>2018-04-02T07:12:11.000Z</time>
      </trkpt>
      <trkpt lat="42.96423" lon="0.87711">
        <ele>1221</ele>
        <time>2018-04-02T07:12:13.000Z</time>
      </trkpt>
      <trkpt lat="42.96424" lon="0.87708">
        <ele>1222</ele>
        <time>2018-04-02T07:12:15.000Z</time>
      </trkpt>
      <trkpt lat="42.96424" lon="0.87707">
        <ele>1222</ele>
        <time>2018-04-02T07:12:17.000Z</time>
      </trkpt>
      <trkpt lat="42.96423" lon="0.87706">
        <ele>1223</ele>
        <time>2018-04-02T07:12:19.000Z</time>
      </trkpt>
      <trkpt lat="42.96425" lon="0.87705">
        <ele>1223</ele>
        <time>2018-04-02T07:12:21.000Z</time>
      </trkpt>
      <trkpt lat="42.96425" lon="0.87705">
        <ele>1223</ele>
        <time>2018-04-02T07:12:23.000Z</time>
      </trkpt>
      <trkpt lat="42.96426" lon="0.87704">
        <ele>1223</ele>
        <time>2018-04-02T07:12:25.000Z</time>
      </trkpt>
      <trkpt lat="42.96429" lon="0.87703">
        <ele>1223</ele>
        <time>2018-04-02T07:12:27.000Z</time>
      </trkpt>
      <trkpt lat="42.96433" lon="0.87701">
        <ele>1222</ele>
        <time>2018-04-02T07:12:29.000Z</time>
      </trkpt>
      <trkpt lat="42.96436" lon="0.877">
        <ele>1222</ele>
        <time>2018-04-02T07:12:31.000Z</time>
      </trkpt>
      <trkpt lat="42.96436" lon="0.87697">
        <ele>1223</ele>
        <time>2018-04-02T07:12:33.000Z</time>
      </trkpt>
      <trkpt lat="42.96438" lon="0.87695">
        <ele>1223</ele>
        <time>2018-04-02T07:12:35.000Z</time>
      </trkpt>
      <trkpt lat="42.9644" lon="0.87693">
        <ele>1223</ele>
        <time>2018-04-02T07:12:37.000Z</time>
      </trkpt>
      <trkpt lat="42.9644" lon="0.87692">
        <ele>1224</ele>
        <time>2018-04-02T07:12:39.000Z</time>
      </trkpt>
      <trkpt lat="42.9644" lon="0.87691">
        <ele>1224</ele>
        <time>2018-04-02T07:12:41.000Z</time>
      </trkpt>
      <trkpt lat="42.96441" lon="0.87689">
        <ele>1225</ele>
        <time>2018-04-02T07:12:43.000Z</time>
      </trkpt>
      <trkpt lat="42.96441" lon="0.87688">
        <ele>1225</ele>
        <time>2018-04-02T07:12:45.000Z</time>
      </trkpt>
      <trkpt lat="42.96441" lon="0.87686">
        <ele>1226</ele>
        <time>2018-04-02T07:12:47.000Z</time>
      </trkpt>
      <trkpt lat="42.96442" lon="0.87684">
        <ele>1226</ele>
        <time>2018-04-02T07:12:49.000Z</time>
      </trkpt>
      <trkpt lat="42.96443" lon="0.87683">
        <ele>1226</ele>
        <time>2018-04-02T07:12:51.000Z</time>
      </trkpt>
      <trkpt lat="42.96439" lon="0.87682">
        <ele>1227</ele>
        <time>2018-04-02T07:12:53.000Z</time>
      </trkpt>
      <trkpt lat="42.96439" lon="0.8768">
        <ele>1228</ele>
        <time>2018-04-02T07:12:55.000Z</time>
      </trkpt>
      <trkpt lat="42.96438" lon="0.87678">
        <ele>1229</ele>
        <time>2018-04-02T07:12:57.000Z</time>
      </trkpt>
      <trkpt lat="42.96436" lon="0.87676">
        <ele>1230</ele>
        <time>2018-04-02T07:12:59.000Z</time>
      </trkpt>
      <trkpt lat="42.96436" lon="0.87674">
        <ele>1230</ele>
        <time>2018-04-02T07:13:01.000Z</time>
      </trkpt>
      <trkpt lat="42.96438" lon="0.87672">
        <ele>1231</ele>
        <time>2018-04-02T07:13:03.000Z</time>
      </trkpt>
      <trkpt lat="42.96437" lon="0.87671">
        <ele>1231</ele>
        <time>2018-04-02T07:13:05.000Z</time>
      </trkpt>
      <trkpt lat="42.96437" lon="0.87669">
        <ele>1232</ele>
        <time>2018-04-02T07:13:07.000Z</time>
      </trkpt>
      <trkpt lat="42.96437" lon="0.87667">
        <ele>1233</ele>
        <time>2018-04-02T07:13:09.000Z</time>
      </trkpt>
      <trkpt lat="42.96439" lon="0.87665">
        <ele>1233</ele>
        <time>2018-04-02T07:13:11.000Z</time>
      </trkpt>
      <trkpt lat="42.96439" lon="0.87664">
        <ele>1233</ele>
        <time>2018-04-02T07:13:13.000Z</time>
      </trkpt>
      <trkpt lat="42.9644" lon="0.87663">
        <ele>1234</ele>
        <time>2018-04-02T07:13:15.000Z</time>
      </trkpt>
      <trkpt lat="42.96439" lon="0.87661">
        <ele>1234</ele>
        <time>2018-04-02T07:13:17.000Z</time>
      </trkpt>
      <trkpt lat="42.9644" lon="0.8766">
        <ele>1234</ele>
        <time>2018-04-02T07:13:19.000Z</time>
      </trkpt>
      <trkpt lat="42.96441" lon="0.87659">
        <ele>1235</ele>
        <time>2018-04-02T07:13:21.000Z</time>
      </trkpt>
      <trkpt lat="42.96441" lon="0.87657">
        <ele>1235</ele>
        <time>2018-04-02T07:13:23.000Z</time>
      </trkpt>
      <trkpt lat="42.9644" lon="0.87656">
        <ele>1236</ele>
        <time>2018-04-02T07:13:25.000Z</time>
      </trkpt>
      <trkpt lat="42.96442" lon="0.87655">
        <ele>1235</ele>
        <time>2018-04-02T07:13:27.000Z</time>
      </trkpt>
      <trkpt lat="42.96444" lon="0.87655">
        <ele>1235</ele>
        <time>2018-04-02T07:13:29.000Z</time>
      </trkpt>
      <trkpt lat="42.96444" lon="0.87654">
        <ele>1235</ele>
        <time>2018-04-02T07:13:31.000Z</time>
      </trkpt>
      <trkpt lat="42.96444" lon="0.87654">
        <ele>1235</ele>
        <time>2018-04-02T07:13:33.000Z</time>
      </trkpt>
      <trkpt lat="42.96444" lon="0.87654">
        <ele>1235</ele>
        <time>2018-04-02T07:13:35.000Z</time>
      </trkpt>
      <trkpt lat="42.96445" lon="0.87654">
        <ele>1235</ele>
        <time>2018-04-02T07:13:37.000Z</time>
      </trkpt>
      <trkpt lat="42.96447" lon="0.87654">
        <ele>1234</ele>
        <time>2018-04-02T07:13:39.000Z</time>
      </trkpt>
      <trkpt lat="42.96447" lon="0.87653">
        <ele>1234</ele>
        <time>2018-04-02T07:13:41.000Z</time>
      </trkpt>
      <trkpt lat="42.96451" lon="0.87652">
        <ele>1234</ele>
        <time>2018-04-02T07:13:43.000Z</time>
      </trkpt>
      <trkpt lat="42.96453" lon="0.87651">
        <ele>1233</ele>
        <time>2018-04-02T07:13:45.000Z</time>
      </trkpt>
      <trkpt lat="42.96455" lon="0.87649">
        <ele>1233</ele>
        <time>2018-04-02T07:13:47.000Z</time>
      </trkpt>
      <trkpt lat="42.96457" lon="0.87648">
        <ele>1233</ele>
        <time>2018-04-02T07:13:49.000Z</time>
      </trkpt>
      <trkpt lat="42.96459" lon="0.87646">
        <ele>1233</ele>
        <time>2018-04-02T07:13:51.000Z</time>
      </trkpt>
      <trkpt lat="42.96461" lon="0.87645">
        <ele>1233</ele>
        <time>2018-04-02T07:13:53.000Z</time>
      </trkpt>
      <trkpt lat="42.96464" lon="0.87644">
        <ele>1232</ele>
        <time>2018-04-02T07:13:55.000Z</time>
      </trkpt>
      <trkpt lat="42.96466" lon="0.87643">
        <ele>1232</ele>
        <time>2018-04-02T07:13:57.000Z</time>
      </trkpt>
      <trkpt lat="42.96466" lon="0.87642">
        <ele>1232</ele>
        <time>2018-04-02T07:13:59.000Z</time>
      </trkpt>
      <trkpt lat="42.96468" lon="0.87642">
        <ele>1232</ele>
        <time>2018-04-02T07:14:01.000Z</time>
      </trkpt>
      <trkpt lat="42.96468" lon="0.87641">
        <ele>1232</ele>
        <time>2018-04-02T07:14:03.000Z</time>
      </trkpt>
      <trkpt lat="42.96469" lon="0.87641">
        <ele>1231</ele>
        <time>2018-04-02T07:14:05.000Z</time>
      </trkpt>
      <trkpt lat="42.96471" lon="0.8764">
        <ele>1231</ele>
        <time>2018-04-02T07:14:07.000Z</time>
      </trkpt>
      <trkpt lat="42.96472" lon="0.87641">
        <ele>1231</ele>
        <time>2018-04-02T07:14:09.000Z</time>
      </trkpt>
      <trkpt lat="42.96473" lon="0.87639">
        <ele>1231</ele>
        <time>2018-04-02T07:14:11.000Z</time>
      </trkpt>
      <trkpt lat="42.96476" lon="0.87638">
        <ele>1230</ele>
        <time>2018-04-02T07:14:13.000Z</time>
      </trkpt>
      <trkpt lat="42.96478" lon="0.87638">
        <ele>1230</ele>
        <time>2018-04-02T07:14:15.000Z</time>
      </trkpt>
      <trkpt lat="42.9648" lon="0.87638">
        <ele>1229</ele>
        <time>2018-04-02T07:14:17.000Z</time>
      </trkpt>
      <trkpt lat="42.96482" lon="0.87638">
        <ele>1229</ele>
        <time>2018-04-02T07:14:19.000Z</time>
      </trkpt>
      <trkpt lat="42.96482" lon="0.87637">
        <ele>1229</ele>
        <time>2018-04-02T07:14:21.000Z</time>
      </trkpt>
      <trkpt lat="42.96483" lon="0.87636">
        <ele>1229</ele>
        <time>2018-04-02T07:14:23.000Z</time>
      </trkpt>
      <trkpt lat="42.96484" lon="0.87634">
        <ele>1230</ele>
        <time>2018-04-02T07:14:25.000Z</time>
      </trkpt>
      <trkpt lat="42.96483" lon="0.87632">
        <ele>1231</ele>
        <time>2018-04-02T07:14:27.000Z</time>
      </trkpt>
      <trkpt lat="42.96482" lon="0.87631">
        <ele>1232</ele>
        <time>2018-04-02T07:14:29.000Z</time>
      </trkpt>
      <trkpt lat="42.96482" lon="0.87629">
        <ele>1232</ele>
        <time>2018-04-02T07:14:31.000Z</time>
      </trkpt>
      <trkpt lat="42.96483" lon="0.87627">
        <ele>1233</ele>
        <time>2018-04-02T07:14:33.000Z</time>
      </trkpt>
      <trkpt lat="42.96482" lon="0.87625">
        <ele>1234</ele>
        <time>2018-04-02T07:14:35.000Z</time>
      </trkpt>
      <trkpt lat="42.96481" lon="0.87624">
        <ele>1235</ele>
        <time>2018-04-02T07:14:37.000Z</time>
      </trkpt>
      <trkpt lat="42.9648" lon="0.87623">
        <ele>1235</ele>
        <time>2018-04-02T07:14:39.000Z</time>
      </trkpt>
      <trkpt lat="42.9648" lon="0.87622">
        <ele>1236</ele>
        <time>2018-04-02T07:14:41.000Z</time>
      </trkpt>
      <trkpt lat="42.9648" lon="0.87621">
        <ele>1236</ele>
        <time>2018-04-02T07:14:43.000Z</time>
      </trkpt>
      <trkpt lat="42.96481" lon="0.87621">
        <ele>1236</ele>
        <time>2018-04-02T07:14:45.000Z</time>
      </trkpt>
      <trkpt lat="42.96481" lon="0.8762">
        <ele>1236</ele>
        <time>2018-04-02T07:14:47.000Z</time>
      </trkpt>
      <trkpt lat="42.96482" lon="0.87618">
        <ele>1236</ele>
        <time>2018-04-02T07:14:49.000Z</time>
      </trkpt>
      <trkpt lat="42.96483" lon="0.87616">
        <ele>1237</ele>
        <time>2018-04-02T07:14:51.000Z</time>
      </trkpt>
      <trkpt lat="42.96484" lon="0.87615">
        <ele>1238</ele>
        <time>2018-04-02T07:14:53.000Z</time>
      </trkpt>
      <trkpt lat="42.96484" lon="0.87611">
        <ele>1239</ele>
        <time>2018-04-02T07:14:55.000Z</time>
      </trkpt>
      <trkpt lat="42.96485" lon="0.87611">
        <ele>1238</ele>
        <time>2018-04-02T07:14:57.000Z</time>
      </trkpt>
      <trkpt lat="42.96486" lon="0.87611">
        <ele>1238</ele>
        <time>2018-04-02T07:14:59.000Z</time>
      </trkpt>
      <trkpt lat="42.96486" lon="0.8761">
        <ele>1238</ele>
        <time>2018-04-02T07:15:01.000Z</time>
      </trkpt>
      <trkpt lat="42.96485" lon="0.87609">
        <ele>1239</ele>
        <time>2018-04-02T07:15:03.000Z</time>
      </trkpt>
      <trkpt lat="42.96485" lon="0.87608">
        <ele>1239</ele>
        <time>2018-04-02T07:15:05.000Z</time>
      </trkpt>
      <trkpt lat="42.96485" lon="0.87606">
        <ele>1240</ele>
        <time>2018-04-02T07:15:07.000Z</time>
      </trkpt>
      <trkpt lat="42.96484" lon="0.87605">
        <ele>1241</ele>
        <time>2018-04-02T07:15:09.000Z</time>
      </trkpt>
      <trkpt lat="42.96483" lon="0.87603">
        <ele>1242</ele>
        <time>2018-04-02T07:15:11.000Z</time>
      </trkpt>
      <trkpt lat="42.96484" lon="0.87601">
        <ele>1242</ele>
        <time>2018-04-02T07:15:13.000Z</time>
      </trkpt>
      <trkpt lat="42.96485" lon="0.87599">
        <ele>1242</ele>
        <time>2018-04-02T07:15:15.000Z</time>
      </trkpt>
      <trkpt lat="42.96487" lon="0.87598">
        <ele>1242</ele>
        <time>2018-04-02T07:15:17.000Z</time>
      </trkpt>
      <trkpt lat="42.96489" lon="0.87597">
        <ele>1242</ele>
        <time>2018-04-02T07:15:19.000Z</time>
      </trkpt>
      <trkpt lat="42.9649" lon="0.87596">
        <ele>1242</ele>
        <time>2018-04-02T07:15:21.000Z</time>
      </trkpt>
      <trkpt lat="42.9649" lon="0.87594">
        <ele>1242</ele>
        <time>2018-04-02T07:15:23.000Z</time>
      </trkpt>
      <trkpt lat="42.96492" lon="0.87592">
        <ele>1242</ele>
        <time>2018-04-02T07:15:25.000Z</time>
      </trkpt>
      <trkpt lat="42.96493" lon="0.87591">
        <ele>1242</ele>
        <time>2018-04-02T07:15:27.000Z</time>
      </trkpt>
      <trkpt lat="42.96493" lon="0.87589">
        <ele>1243</ele>
        <time>2018-04-02T07:15:29.000Z</time>
      </trkpt>
      <trkpt lat="42.96494" lon="0.87588">
        <ele>1243</ele>
        <time>2018-04-02T07:15:31.000Z</time>
      </trkpt>
      <trkpt lat="42.96495" lon="0.87585">
        <ele>1244</ele>
        <time>2018-04-02T07:15:33.000Z</time>
      </trkpt>
      <trkpt lat="42.96495" lon="0.87583">
        <ele>1244</ele>
        <time>2018-04-02T07:15:35.000Z</time>
      </trkpt>
      <trkpt lat="42.96497" lon="0.87583">
        <ele>1244</ele>
        <time>2018-04-02T07:15:37.000Z</time>
      </trkpt>
      <trkpt lat="42.96498" lon="0.87582">
        <ele>1244</ele>
        <time>2018-04-02T07:15:39.000Z</time>
      </trkpt>
      <trkpt lat="42.96498" lon="0.87581">
        <ele>1244</ele>
        <time>2018-04-02T07:15:41.000Z</time>
      </trkpt>
      <trkpt lat="42.96498" lon="0.87581">
        <ele>1244</ele>
        <time>2018-04-02T07:15:43.000Z</time>
      </trkpt>
      <trkpt lat="42.96499" lon="0.8758">
        <ele>1244</ele>
        <time>2018-04-02T07:15:45.000Z</time>
      </trkpt>
      <trkpt lat="42.96499" lon="0.8758">
        <ele>1244</ele>
        <time>2018-04-02T07:15:47.000Z</time>
      </trkpt>
      <trkpt lat="42.96499" lon="0.87579">
        <ele>1245</ele>
        <time>2018-04-02T07:15:49.000Z</time>
      </trkpt>
      <trkpt lat="42.96499" lon="0.87578">
        <ele>1245</ele>
        <time>2018-04-02T07:15:51.000Z</time>
      </trkpt>
      <trkpt lat="42.96501" lon="0.87577">
        <ele>1245</ele>
        <time>2018-04-02T07:15:53.000Z</time>
      </trkpt>
      <trkpt lat="42.96502" lon="0.87576">
        <ele>1244</ele>
        <time>2018-04-02T07:15:55.000Z</time>
      </trkpt>
      <trkpt lat="42.96503" lon="0.87575">
        <ele>1244</ele>
        <time>2018-04-02T07:15:57.000Z</time>
      </trkpt>
      <trkpt lat="42.96505" lon="0.87574">
        <ele>1244</ele>
        <time>2018-04-02T07:15:59.000Z</time>
      </trkpt>
      <trkpt lat="42.96506" lon="0.87573">
        <ele>1244</ele>
        <time>2018-04-02T07:16:01.000Z</time>
      </trkpt>
      <trkpt lat="42.96506" lon="0.87571">
        <ele>1244</ele>
        <time>2018-04-02T07:16:03.000Z</time>
      </trkpt>
      <trkpt lat="42.96508" lon="0.87571">
        <ele>1244</ele>
        <time>2018-04-02T07:16:05.000Z</time>
      </trkpt>
      <trkpt lat="42.9651" lon="0.8757">
        <ele>1244</ele>
        <time>2018-04-02T07:16:07.000Z</time>
      </trkpt>
      <trkpt lat="42.96508" lon="0.87568">
        <ele>1245</ele>
        <time>2018-04-02T07:16:09.000Z</time>
      </trkpt>
      <trkpt lat="42.96508" lon="0.87567">
        <ele>1245</ele>
        <time>2018-04-02T07:16:11.000Z</time>
      </trkpt>
      <trkpt lat="42.96509" lon="0.87566">
        <ele>1246</ele>
        <time>2018-04-02T07:16:13.000Z</time>
      </trkpt>
      <trkpt lat="42.96509" lon="0.87562">
        <ele>1247</ele>
        <time>2018-04-02T07:16:15.000Z</time>
      </trkpt>
      <trkpt lat="42.96508" lon="0.8756">
        <ele>1248</ele>
        <time>2018-04-02T07:16:17.000Z</time>
      </trkpt>
      <trkpt lat="42.9651" lon="0.87559">
        <ele>1248</ele>
        <time>2018-04-02T07:16:19.000Z</time>
      </trkpt>
      <trkpt lat="42.9651" lon="0.87558">
        <ele>1248</ele>
        <time>2018-04-02T07:16:21.000Z</time>
      </trkpt>
      <trkpt lat="42.9651" lon="0.87557">
        <ele>1249</ele>
        <time>2018-04-02T07:16:23.000Z</time>
      </trkpt>
      <trkpt lat="42.9651" lon="0.87555">
        <ele>1249</ele>
        <time>2018-04-02T07:16:25.000Z</time>
      </trkpt>
      <trkpt lat="42.96509" lon="0.87552">
        <ele>1250</ele>
        <time>2018-04-02T07:16:27.000Z</time>
      </trkpt>
      <trkpt lat="42.96507" lon="0.8755">
        <ele>1251</ele>
        <time>2018-04-02T07:16:29.000Z</time>
      </trkpt>
      <trkpt lat="42.96507" lon="0.87547">
        <ele>1252</ele>
        <time>2018-04-02T07:16:31.000Z</time>
      </trkpt>
      <trkpt lat="42.96507" lon="0.87545">
        <ele>1252</ele>
        <time>2018-04-02T07:16:33.000Z</time>
      </trkpt>
      <trkpt lat="42.96508" lon="0.87543">
        <ele>1253</ele>
        <time>2018-04-02T07:16:35.000Z</time>
      </trkpt>
      <trkpt lat="42.96508" lon="0.87542">
        <ele>1253</ele>
        <time>2018-04-02T07:16:37.000Z</time>
      </trkpt>
      <trkpt lat="42.96509" lon="0.87542">
        <ele>1253</ele>
        <time>2018-04-02T07:16:39.000Z</time>
      </trkpt>
      <trkpt lat="42.96511" lon="0.87541">
        <ele>1253</ele>
        <time>2018-04-02T07:16:41.000Z</time>
      </trkpt>
      <trkpt lat="42.96513" lon="0.8754">
        <ele>1253</ele>
        <time>2018-04-02T07:16:43.000Z</time>
      </trkpt>
      <trkpt lat="42.96516" lon="0.87537">
        <ele>1254</ele>
        <time>2018-04-02T07:16:45.000Z</time>
      </trkpt>
      <trkpt lat="42.96518" lon="0.87534">
        <ele>1254</ele>
        <time>2018-04-02T07:16:47.000Z</time>
      </trkpt>
      <trkpt lat="42.96517" lon="0.87532">
        <ele>1255</ele>
        <time>2018-04-02T07:16:49.000Z</time>
      </trkpt>
      <trkpt lat="42.96517" lon="0.8753">
        <ele>1256</ele>
        <time>2018-04-02T07:16:51.000Z</time>
      </trkpt>
      <trkpt lat="42.9652" lon="0.8753">
        <ele>1256</ele>
        <time>2018-04-02T07:16:53.000Z</time>
      </trkpt>
      <trkpt lat="42.96523" lon="0.87528">
        <ele>1256</ele>
        <time>2018-04-02T07:16:55.000Z</time>
      </trkpt>
      <trkpt lat="42.96523" lon="0.87528">
        <ele>1256</ele>
        <time>2018-04-02T07:16:57.000Z</time>
      </trkpt>
      <trkpt lat="42.96524" lon="0.87525">
        <ele>1257</ele>
        <time>2018-04-02T07:16:59.000Z</time>
      </trkpt>
      <trkpt lat="42.96526" lon="0.87523">
        <ele>1257</ele>
        <time>2018-04-02T07:17:01.000Z</time>
      </trkpt>
      <trkpt lat="42.96526" lon="0.8752">
        <ele>1258</ele>
        <time>2018-04-02T07:17:03.000Z</time>
      </trkpt>
      <trkpt lat="42.96527" lon="0.87517">
        <ele>1259</ele>
        <time>2018-04-02T07:17:05.000Z</time>
      </trkpt>
      <trkpt lat="42.96528" lon="0.87515">
        <ele>1259</ele>
        <time>2018-04-02T07:17:07.000Z</time>
      </trkpt>
      <trkpt lat="42.96528" lon="0.87513">
        <ele>1260</ele>
        <time>2018-04-02T07:17:09.000Z</time>
      </trkpt>
      <trkpt lat="42.96528" lon="0.87511">
        <ele>1260</ele>
        <time>2018-04-02T07:17:11.000Z</time>
      </trkpt>
      <trkpt lat="42.96529" lon="0.87509">
        <ele>1261</ele>
        <time>2018-04-02T07:17:13.000Z</time>
      </trkpt>
      <trkpt lat="42.96531" lon="0.87507">
        <ele>1261</ele>
        <time>2018-04-02T07:17:15.000Z</time>
      </trkpt>
      <trkpt lat="42.96531" lon="0.87505">
        <ele>1262</ele>
        <time>2018-04-02T07:17:17.000Z</time>
      </trkpt>
      <trkpt lat="42.96533" lon="0.87504">
        <ele>1262</ele>
        <time>2018-04-02T07:17:19.000Z</time>
      </trkpt>
      <trkpt lat="42.96536" lon="0.87502">
        <ele>1262</ele>
        <time>2018-04-02T07:17:21.000Z</time>
      </trkpt>
      <trkpt lat="42.96536" lon="0.87501">
        <ele>1263</ele>
        <time>2018-04-02T07:17:23.000Z</time>
      </trkpt>
      <trkpt lat="42.96537" lon="0.87499">
        <ele>1263</ele>
        <time>2018-04-02T07:17:25.000Z</time>
      </trkpt>
      <trkpt lat="42.96539" lon="0.87496">
        <ele>1263</ele>
        <time>2018-04-02T07:17:27.000Z</time>
      </trkpt>
      <trkpt lat="42.9654" lon="0.87494">
        <ele>1264</ele>
        <time>2018-04-02T07:17:29.000Z</time>
      </trkpt>
      <trkpt lat="42.96542" lon="0.87493">
        <ele>1264</ele>
        <time>2018-04-02T07:17:31.000Z</time>
      </trkpt>
      <trkpt lat="42.96542" lon="0.87492">
        <ele>1264</ele>
        <time>2018-04-02T07:17:33.000Z</time>
      </trkpt>
      <trkpt lat="42.96544" lon="0.87492">
        <ele>1263</ele>
        <time>2018-04-02T07:17:35.000Z</time>
      </trkpt>
      <trkpt lat="42.96546" lon="0.87493">
        <ele>1263</ele>
        <time>2018-04-02T07:17:37.000Z</time>
      </trkpt>
      <trkpt lat="42.96546" lon="0.87495">
        <ele>1263</ele>
        <time>2018-04-02T07:17:39.000Z</time>
      </trkpt>
      <trkpt lat="42.96547" lon="0.87496">
        <ele>1262</ele>
        <time>2018-04-02T07:17:41.000Z</time>
      </trkpt>
      <trkpt lat="42.96548" lon="0.87497">
        <ele>1262</ele>
        <time>2018-04-02T07:17:43.000Z</time>
      </trkpt>
      <trkpt lat="42.96549" lon="0.87498">
        <ele>1262</ele>
        <time>2018-04-02T07:17:45.000Z</time>
      </trkpt>
      <trkpt lat="42.9655" lon="0.87499">
        <ele>1261</ele>
        <time>2018-04-02T07:17:47.000Z</time>
      </trkpt>
      <trkpt lat="42.96552" lon="0.875">
        <ele>1261</ele>
        <time>2018-04-02T07:17:49.000Z</time>
      </trkpt>
      <trkpt lat="42.96554" lon="0.87501">
        <ele>1260</ele>
        <time>2018-04-02T07:17:51.000Z</time>
      </trkpt>
      <trkpt lat="42.96554" lon="0.87503">
        <ele>1260</ele>
        <time>2018-04-02T07:17:53.000Z</time>
      </trkpt>
      <trkpt lat="42.96554" lon="0.87505">
        <ele>1259</ele>
        <time>2018-04-02T07:17:55.000Z</time>
      </trkpt>
      <trkpt lat="42.96554" lon="0.87507">
        <ele>1259</ele>
        <time>2018-04-02T07:17:57.000Z</time>
      </trkpt>
      <trkpt lat="42.96555" lon="0.87508">
        <ele>1259</ele>
        <time>2018-04-02T07:17:59.000Z</time>
      </trkpt>
      <trkpt lat="42.96556" lon="0.8751">
        <ele>1258</ele>
        <time>2018-04-02T07:18:01.000Z</time>
      </trkpt>
      <trkpt lat="42.96557" lon="0.87512">
        <ele>1258</ele>
        <time>2018-04-02T07:18:03.000Z</time>
      </trkpt>
      <trkpt lat="42.96558" lon="0.87512">
        <ele>1258</ele>
        <time>2018-04-02T07:18:05.000Z</time>
      </trkpt>
      <trkpt lat="42.96558" lon="0.87514">
        <ele>1257</ele>
        <time>2018-04-02T07:18:07.000Z</time>
      </trkpt>
      <trkpt lat="42.96557" lon="0.87516">
        <ele>1257</ele>
        <time>2018-04-02T07:18:09.000Z</time>
      </trkpt>
      <trkpt lat="42.96556" lon="0.87518">
        <ele>1257</ele>
        <time>2018-04-02T07:18:11.000Z</time>
      </trkpt>
      <trkpt lat="42.96556" lon="0.87519">
        <ele>1256</ele>
        <time>2018-04-02T07:18:13.000Z</time>
      </trkpt>
      <trkpt lat="42.96557" lon="0.87521">
        <ele>1256</ele>
        <time>2018-04-02T07:18:15.000Z</time>
      </trkpt>
      <trkpt lat="42.96558" lon="0.87523">
        <ele>1255</ele>
        <time>2018-04-02T07:18:17.000Z</time>
      </trkpt>
      <trkpt lat="42.96558" lon="0.87525">
        <ele>1255</ele>
        <time>2018-04-02T07:18:19.000Z</time>
      </trkpt>
      <trkpt lat="42.96559" lon="0.87527">
        <ele>1254</ele>
        <time>2018-04-02T07:18:21.000Z</time>
      </trkpt>
      <trkpt lat="42.9656" lon="0.87529">
        <ele>1253</ele>
        <time>2018-04-02T07:18:23.000Z</time>
      </trkpt>
      <trkpt lat="42.9656" lon="0.87531">
        <ele>1253</ele>
        <time>2018-04-02T07:18:25.000Z</time>
      </trkpt>
      <trkpt lat="42.9656" lon="0.87532">
        <ele>1252</ele>
        <time>2018-04-02T07:18:27.000Z</time>
      </trkpt>
      <trkpt lat="42.96561" lon="0.87534">
        <ele>1252</ele>
        <time>2018-04-02T07:18:29.000Z</time>
      </trkpt>
      <trkpt lat="42.96561" lon="0.87535">
        <ele>1252</ele>
        <time>2018-04-02T07:18:31.000Z</time>
      </trkpt>
      <trkpt lat="42.96561" lon="0.87537">
        <ele>1251</ele>
        <time>2018-04-02T07:18:33.000Z</time>
      </trkpt>
      <trkpt lat="42.96562" lon="0.87538">
        <ele>1251</ele>
        <time>2018-04-02T07:18:35.000Z</time>
      </trkpt>
      <trkpt lat="42.96564" lon="0.87538">
        <ele>1251</ele>
        <time>2018-04-02T07:18:37.000Z</time>
      </trkpt>
      <trkpt lat="42.96565" lon="0.87539">
        <ele>1250</ele>
        <time>2018-04-02T07:18:39.000Z</time>
      </trkpt>
      <trkpt lat="42.96567" lon="0.8754">
        <ele>1250</ele>
        <time>2018-04-02T07:18:41.000Z</time>
      </trkpt>
      <trkpt lat="42.96568" lon="0.87541">
        <ele>1249</ele>
        <time>2018-04-02T07:18:43.000Z</time>
      </trkpt>
      <trkpt lat="42.96571" lon="0.87543">
        <ele>1249</ele>
        <time>2018-04-02T07:18:45.000Z</time>
      </trkpt>
      <trkpt lat="42.96573" lon="0.87544">
        <ele>1248</ele>
        <time>2018-04-02T07:18:47.000Z</time>
      </trkpt>
      <trkpt lat="42.96574" lon="0.87546">
        <ele>1248</ele>
        <time>2018-04-02T07:18:49.000Z</time>
      </trkpt>
      <trkpt lat="42.96575" lon="0.87548">
        <ele>1247</ele>
        <time>2018-04-02T07:18:51.000Z</time>
      </trkpt>
      <trkpt lat="42.96576" lon="0.8755">
        <ele>1247</ele>
        <time>2018-04-02T07:18:53.000Z</time>
      </trkpt>
      <trkpt lat="42.96576" lon="0.8755">
        <ele>1247</ele>
        <time>2018-04-02T07:18:55.000Z</time>
      </trkpt>
      <trkpt lat="42.96576" lon="0.87551">
        <ele>1246</ele>
        <time>2018-04-02T07:18:57.000Z</time>
      </trkpt>
      <trkpt lat="42.96577" lon="0.87552">
        <ele>1246</ele>
        <time>2018-04-02T07:18:59.000Z</time>
      </trkpt>
      <trkpt lat="42.96577" lon="0.87552">
        <ele>1246</ele>
        <time>2018-04-02T07:19:01.000Z</time>
      </trkpt>
      <trkpt lat="42.96577" lon="0.87552">
        <ele>1246</ele>
        <time>2018-04-02T07:19:03.000Z</time>
      </trkpt>
      <trkpt lat="42.96577" lon="0.87552">
        <ele>1246</ele>
        <time>2018-04-02T07:19:05.000Z</time>
      </trkpt>
      <trkpt lat="42.96575" lon="0.87552">
        <ele>1246</ele>
        <time>2018-04-02T07:19:07.000Z</time>
      </trkpt>
      <trkpt lat="42.96575" lon="0.87553">
        <ele>1246</ele>
        <time>2018-04-02T07:19:09.000Z</time>
      </trkpt>
      <trkpt lat="42.96575" lon="0.87554">
        <ele>1246</ele>
        <time>2018-04-02T07:19:11.000Z</time>
      </trkpt>
      <trkpt lat="42.96576" lon="0.87553">
        <ele>1246</ele>
        <time>2018-04-02T07:19:13.000Z</time>
      </trkpt>
      <trkpt lat="42.96576" lon="0.87553">
        <ele>1246</ele>
        <time>2018-04-02T07:19:15.000Z</time>
      </trkpt>
      <trkpt lat="42.96576" lon="0.87553">
        <ele>1246</ele>
        <time>2018-04-02T07:19:17.000Z</time>
      </trkpt>
      <trkpt lat="42.96577" lon="0.87553">
        <ele>1246</ele>
        <time>2018-04-02T07:19:19.000Z</time>
      </trkpt>
      <trkpt lat="42.96579" lon="0.87552">
        <ele>1246</ele>
        <time>2018-04-02T07:19:21.000Z</time>
      </trkpt>
      <trkpt lat="42.9658" lon="0.87551">
        <ele>1246</ele>
        <time>2018-04-02T07:19:23.000Z</time>
      </trkpt>
      <trkpt lat="42.96581" lon="0.87552">
        <ele>1246</ele>
        <time>2018-04-02T07:19:25.000Z</time>
      </trkpt>
      <trkpt lat="42.96582" lon="0.87552">
        <ele>1246</ele>
        <time>2018-04-02T07:19:27.000Z</time>
      </trkpt>
      <trkpt lat="42.96582" lon="0.87551">
        <ele>1246</ele>
        <time>2018-04-02T07:19:29.000Z</time>
      </trkpt>
      <trkpt lat="42.96583" lon="0.8755">
        <ele>1246</ele>
        <time>2018-04-02T07:19:31.000Z</time>
      </trkpt>
      <trkpt lat="42.96583" lon="0.87549">
        <ele>1247</ele>
        <time>2018-04-02T07:19:33.000Z</time>
      </trkpt>
      <trkpt lat="42.96584" lon="0.87548">
        <ele>1247</ele>
        <time>2018-04-02T07:19:35.000Z</time>
      </trkpt>
      <trkpt lat="42.96584" lon="0.87547">
        <ele>1247</ele>
        <time>2018-04-02T07:19:37.000Z</time>
      </trkpt>
      <trkpt lat="42.96585" lon="0.87546">
        <ele>1247</ele>
        <time>2018-04-02T07:19:39.000Z</time>
      </trkpt>
      <trkpt lat="42.96585" lon="0.87546">
        <ele>1247</ele>
        <time>2018-04-02T07:19:41.000Z</time>
      </trkpt>
      <trkpt lat="42.96585" lon="0.87545">
        <ele>1247</ele>
        <time>2018-04-02T07:19:43.000Z</time>
      </trkpt>
      <trkpt lat="42.96586" lon="0.87545">
        <ele>1247</ele>
        <time>2018-04-02T07:19:45.000Z</time>
      </trkpt>
      <trkpt lat="42.96586" lon="0.87543">
        <ele>1248</ele>
        <time>2018-04-02T07:19:47.000Z</time>
      </trkpt>
      <trkpt lat="42.96587" lon="0.87542">
        <ele>1248</ele>
        <time>2018-04-02T07:19:49.000Z</time>
      </trkpt>
      <trkpt lat="42.96588" lon="0.8754">
        <ele>1248</ele>
        <time>2018-04-02T07:19:51.000Z</time>
      </trkpt>
      <trkpt lat="42.96588" lon="0.87538">
        <ele>1248</ele>
        <time>2018-04-02T07:19:53.000Z</time>
      </trkpt>
      <trkpt lat="42.96588" lon="0.87537">
        <ele>1249</ele>
        <time>2018-04-02T07:19:55.000Z</time>
      </trkpt>
      <trkpt lat="42.96588" lon="0.87535">
        <ele>1249</ele>
        <time>2018-04-02T07:19:57.000Z</time>
      </trkpt>
      <trkpt lat="42.96588" lon="0.87533">
        <ele>1249</ele>
        <time>2018-04-02T07:19:59.000Z</time>
      </trkpt>
      <trkpt lat="42.96589" lon="0.87532">
        <ele>1249</ele>
        <time>2018-04-02T07:20:01.000Z</time>
      </trkpt>
      <trkpt lat="42.96589" lon="0.87532">
        <ele>1250</ele>
        <time>2018-04-02T07:20:03.000Z</time>
      </trkpt>
      <trkpt lat="42.9659" lon="0.87531">
        <ele>1250</ele>
        <time>2018-04-02T07:20:05.000Z</time>
      </trkpt>
      <trkpt lat="42.96591" lon="0.87532">
        <ele>1249</ele>
        <time>2018-04-02T07:20:07.000Z</time>
      </trkpt>
      <trkpt lat="42.96591" lon="0.87532">
        <ele>1249</ele>
        <time>2018-04-02T07:20:09.000Z</time>
      </trkpt>
      <trkpt lat="42.9659" lon="0.87532">
        <ele>1249</ele>
        <time>2018-04-02T07:20:11.000Z</time>
      </trkpt>
      <trkpt lat="42.9659" lon="0.87532">
        <ele>1249</ele>
        <time>2018-04-02T07:20:13.000Z</time>
      </trkpt>
      <trkpt lat="42.9659" lon="0.87532">
        <ele>1249</ele>
        <time>2018-04-02T07:20:15.000Z</time>
      </trkpt>
      <trkpt lat="42.9659" lon="0.87531">
        <ele>1250</ele>
        <time>2018-04-02T07:20:17.000Z</time>
      </trkpt>
      <trkpt lat="42.9659" lon="0.87529">
        <ele>1250</ele>
        <time>2018-04-02T07:20:19.000Z</time>
      </trkpt>
      <trkpt lat="42.9659" lon="0.87527">
        <ele>1250</ele>
        <time>2018-04-02T07:20:21.000Z</time>
      </trkpt>
      <trkpt lat="42.9659" lon="0.87526">
        <ele>1251</ele>
        <time>2018-04-02T07:20:23.000Z</time>
      </trkpt>
      <trkpt lat="42.9659" lon="0.87525">
        <ele>1251</ele>
        <time>2018-04-02T07:20:25.000Z</time>
      </trkpt>
      <trkpt lat="42.9659" lon="0.87524">
        <ele>1251</ele>
        <time>2018-04-02T07:20:27.000Z</time>
      </trkpt>
      <trkpt lat="42.9659" lon="0.87522">
        <ele>1252</ele>
        <time>2018-04-02T07:20:29.000Z</time>
      </trkpt>
      <trkpt lat="42.9659" lon="0.87521">
        <ele>1252</ele>
        <time>2018-04-02T07:20:31.000Z</time>
      </trkpt>
      <trkpt lat="42.9659" lon="0.8752">
        <ele>1252</ele>
        <time>2018-04-02T07:20:33.000Z</time>
      </trkpt>
      <trkpt lat="42.96591" lon="0.87519">
        <ele>1252</ele>
        <time>2018-04-02T07:20:35.000Z</time>
      </trkpt>
      <trkpt lat="42.96591" lon="0.87517">
        <ele>1253</ele>
        <time>2018-04-02T07:20:37.000Z</time>
      </trkpt>
      <trkpt lat="42.96591" lon="0.87515">
        <ele>1253</ele>
        <time>2018-04-02T07:20:39.000Z</time>
      </trkpt>
      <trkpt lat="42.96592" lon="0.87514">
        <ele>1253</ele>
        <time>2018-04-02T07:20:41.000Z</time>
      </trkpt>
      <trkpt lat="42.96593" lon="0.87513">
        <ele>1253</ele>
        <time>2018-04-02T07:20:43.000Z</time>
      </trkpt>
      <trkpt lat="42.96593" lon="0.87512">
        <ele>1253</ele>
        <time>2018-04-02T07:20:45.000Z</time>
      </trkpt>
      <trkpt lat="42.96593" lon="0.87511">
        <ele>1254</ele>
        <time>2018-04-02T07:20:47.000Z</time>
      </trkpt>
      <trkpt lat="42.96593" lon="0.87509">
        <ele>1254</ele>
        <time>2018-04-02T07:20:49.000Z</time>
      </trkpt>
      <trkpt lat="42.96594" lon="0.87508">
        <ele>1254</ele>
        <time>2018-04-02T07:20:51.000Z</time>
      </trkpt>
      <trkpt lat="42.96595" lon="0.87506">
        <ele>1255</ele>
        <time>2018-04-02T07:20:53.000Z</time>
      </trkpt>
      <trkpt lat="42.96596" lon="0.87505">
        <ele>1255</ele>
        <time>2018-04-02T07:20:55.000Z</time>
      </trkpt>
      <trkpt lat="42.96596" lon="0.87503">
        <ele>1255</ele>
        <time>2018-04-02T07:20:57.000Z</time>
      </trkpt>
      <trkpt lat="42.96597" lon="0.87502">
        <ele>1255</ele>
        <time>2018-04-02T07:20:59.000Z</time>
      </trkpt>
      <trkpt lat="42.96598" lon="0.87501">
        <ele>1255</ele>
        <time>2018-04-02T07:21:01.000Z</time>
      </trkpt>
      <trkpt lat="42.96598" lon="0.87499">
        <ele>1256</ele>
        <time>2018-04-02T07:21:03.000Z</time>
      </trkpt>
      <trkpt lat="42.96599" lon="0.87498">
        <ele>1256</ele>
        <time>2018-04-02T07:21:05.000Z</time>
      </trkpt>
      <trkpt lat="42.96599" lon="0.87497">
        <ele>1256</ele>
        <time>2018-04-02T07:21:07.000Z</time>
      </trkpt>
      <trkpt lat="42.96599" lon="0.87496">
        <ele>1256</ele>
        <time>2018-04-02T07:21:09.000Z</time>
      </trkpt>
      <trkpt lat="42.966" lon="0.87495">
        <ele>1256</ele>
        <time>2018-04-02T07:21:11.000Z</time>
      </trkpt>
      <trkpt lat="42.96599" lon="0.87493">
        <ele>1257</ele>
        <time>2018-04-02T07:21:13.000Z</time>
      </trkpt>
      <trkpt lat="42.966" lon="0.87492">
        <ele>1257</ele>
        <time>2018-04-02T07:21:15.000Z</time>
      </trkpt>
      <trkpt lat="42.966" lon="0.87491">
        <ele>1257</ele>
        <time>2018-04-02T07:21:17.000Z</time>
      </trkpt>
      <trkpt lat="42.96601" lon="0.87491">
        <ele>1257</ele>
        <time>2018-04-02T07:21:19.000Z</time>
      </trkpt>
      <trkpt lat="42.96601" lon="0.87491">
        <ele>1257</ele>
        <time>2018-04-02T07:21:21.000Z</time>
      </trkpt>
      <trkpt lat="42.96602" lon="0.8749">
        <ele>1257</ele>
        <time>2018-04-02T07:21:23.000Z</time>
      </trkpt>
      <trkpt lat="42.96603" lon="0.8749">
        <ele>1257</ele>
        <time>2018-04-02T07:21:25.000Z</time>
      </trkpt>
      <trkpt lat="42.96603" lon="0.87489">
        <ele>1257</ele>
        <time>2018-04-02T07:21:27.000Z</time>
      </trkpt>
      <trkpt lat="42.96604" lon="0.87489">
        <ele>1257</ele>
        <time>2018-04-02T07:21:29.000Z</time>
      </trkpt>
      <trkpt lat="42.96605" lon="0.87492">
        <ele>1257</ele>
        <time>2018-04-02T07:21:31.000Z</time>
      </trkpt>
      <trkpt lat="42.96605" lon="0.87492">
        <ele>1256</ele>
        <time>2018-04-02T07:21:33.000Z</time>
      </trkpt>
      <trkpt lat="42.96605" lon="0.87493">
        <ele>1256</ele>
        <time>2018-04-02T07:21:35.000Z</time>
      </trkpt>
      <trkpt lat="42.96605" lon="0.87493">
        <ele>1256</ele>
        <time>2018-04-02T07:21:37.000Z</time>
      </trkpt>
      <trkpt lat="42.96606" lon="0.87495">
        <ele>1256</ele>
        <time>2018-04-02T07:21:39.000Z</time>
      </trkpt>
      <trkpt lat="42.96605" lon="0.87497">
        <ele>1256</ele>
        <time>2018-04-02T07:21:41.000Z</time>
      </trkpt>
      <trkpt lat="42.96604" lon="0.87498">
        <ele>1255</ele>
        <time>2018-04-02T07:21:43.000Z</time>
      </trkpt>
      <trkpt lat="42.96604" lon="0.87498">
        <ele>1255</ele>
        <time>2018-04-02T07:21:45.000Z</time>
      </trkpt>
      <trkpt lat="42.96603" lon="0.87497">
        <ele>1256</ele>
        <time>2018-04-02T07:21:47.000Z</time>
      </trkpt>
      <trkpt lat="42.96602" lon="0.87498">
        <ele>1256</ele>
        <time>2018-04-02T07:21:49.000Z</time>
      </trkpt>
      <trkpt lat="42.96601" lon="0.87497">
        <ele>1256</ele>
        <time>2018-04-02T07:21:51.000Z</time>
      </trkpt>
      <trkpt lat="42.966" lon="0.87496">
        <ele>1256</ele>
        <time>2018-04-02T07:21:53.000Z</time>
      </trkpt>
      <trkpt lat="42.96599" lon="0.87495">
        <ele>1256</ele>
        <time>2018-04-02T07:21:55.000Z</time>
      </trkpt>
      <trkpt lat="42.96598" lon="0.87494">
        <ele>1257</ele>
        <time>2018-04-02T07:21:57.000Z</time>
      </trkpt>
      <trkpt lat="42.96597" lon="0.87494">
        <ele>1257</ele>
        <time>2018-04-02T07:21:59.000Z</time>
      </trkpt>
      <trkpt lat="42.96595" lon="0.87494">
        <ele>1257</ele>
        <time>2018-04-02T07:22:01.000Z</time>
      </trkpt>
      <trkpt lat="42.96593" lon="0.87492">
        <ele>1258</ele>
        <time>2018-04-02T07:22:03.000Z</time>
      </trkpt>
      <trkpt lat="42.96593" lon="0.87489">
        <ele>1258</ele>
        <time>2018-04-02T07:22:05.000Z</time>
      </trkpt>
      <trkpt lat="42.96591" lon="0.87487">
        <ele>1259</ele>
        <time>2018-04-02T07:22:07.000Z</time>
      </trkpt>
      <trkpt lat="42.96591" lon="0.87485">
        <ele>1259</ele>
        <time>2018-04-02T07:22:09.000Z</time>
      </trkpt>
      <trkpt lat="42.9659" lon="0.87483">
        <ele>1260</ele>
        <time>2018-04-02T07:22:11.000Z</time>
      </trkpt>
      <trkpt lat="42.96589" lon="0.87482">
        <ele>1260</ele>
        <time>2018-04-02T07:22:13.000Z</time>
      </trkpt>
      <trkpt lat="42.96589" lon="0.8748">
        <ele>1261</ele>
        <time>2018-04-02T07:22:15.000Z</time>
      </trkpt>
      <trkpt lat="42.96589" lon="0.87479">
        <ele>1261</ele>
        <time>2018-04-02T07:22:17.000Z</time>
      </trkpt>
      <trkpt lat="42.9659" lon="0.87478">
        <ele>1261</ele>
        <time>2018-04-02T07:22:19.000Z</time>
      </trkpt>
      <trkpt lat="42.96589" lon="0.87477">
        <ele>1261</ele>
        <time>2018-04-02T07:22:21.000Z</time>
      </trkpt>
      <trkpt lat="42.96589" lon="0.87476">
        <ele>1262</ele>
        <time>2018-04-02T07:22:23.000Z</time>
      </trkpt>
      <trkpt lat="42.9659" lon="0.87475">
        <ele>1262</ele>
        <time>2018-04-02T07:22:25.000Z</time>
      </trkpt>
      <trkpt lat="42.9659" lon="0.87474">
        <ele>1262</ele>
        <time>2018-04-02T07:22:27.000Z</time>
      </trkpt>
      <trkpt lat="42.9659" lon="0.87473">
        <ele>1262</ele>
        <time>2018-04-02T07:22:29.000Z</time>
      </trkpt>
      <trkpt lat="42.9659" lon="0.87472">
        <ele>1262</ele>
        <time>2018-04-02T07:22:31.000Z</time>
      </trkpt>
      <trkpt lat="42.9659" lon="0.87471">
        <ele>1262</ele>
        <time>2018-04-02T07:22:33.000Z</time>
      </trkpt>
      <trkpt lat="42.96591" lon="0.8747">
        <ele>1263</ele>
        <time>2018-04-02T07:22:35.000Z</time>
      </trkpt>
      <trkpt lat="42.96591" lon="0.87469">
        <ele>1263</ele>
        <time>2018-04-02T07:22:37.000Z</time>
      </trkpt>
      <trkpt lat="42.96592" lon="0.87467">
        <ele>1263</ele>
        <time>2018-04-02T07:22:39.000Z</time>
      </trkpt>
      <trkpt lat="42.96592" lon="0.87466">
        <ele>1263</ele>
        <time>2018-04-02T07:22:41.000Z</time>
      </trkpt>
      <trkpt lat="42.96593" lon="0.87467">
        <ele>1263</ele>
        <time>2018-04-02T07:22:43.000Z</time>
      </trkpt>
      <trkpt lat="42.96594" lon="0.87465">
        <ele>1263</ele>
        <time>2018-04-02T07:22:45.000Z</time>
      </trkpt>
      <trkpt lat="42.96595" lon="0.87464">
        <ele>1263</ele>
        <time>2018-04-02T07:22:47.000Z</time>
      </trkpt>
      <trkpt lat="42.96595" lon="0.87462">
        <ele>1263</ele>
        <time>2018-04-02T07:22:49.000Z</time>
      </trkpt>
      <trkpt lat="42.96596" lon="0.87461">
        <ele>1263</ele>
        <time>2018-04-02T07:22:51.000Z</time>
      </trkpt>
      <trkpt lat="42.96597" lon="0.87459">
        <ele>1263</ele>
        <time>2018-04-02T07:22:53.000Z</time>
      </trkpt>
      <trkpt lat="42.96597" lon="0.87458">
        <ele>1263</ele>
        <time>2018-04-02T07:22:55.000Z</time>
      </trkpt>
      <trkpt lat="42.96598" lon="0.87456">
        <ele>1264</ele>
        <time>2018-04-02T07:22:57.000Z</time>
      </trkpt>
      <trkpt lat="42.96598" lon="0.87454">
        <ele>1264</ele>
        <time>2018-04-02T07:22:59.000Z</time>
      </trkpt>
      <trkpt lat="42.96599" lon="0.87452">
        <ele>1264</ele>
        <time>2018-04-02T07:23:01.000Z</time>
      </trkpt>
      <trkpt lat="42.966" lon="0.87451">
        <ele>1264</ele>
        <time>2018-04-02T07:23:03.000Z</time>
      </trkpt>
      <trkpt lat="42.966" lon="0.87451">
        <ele>1264</ele>
        <time>2018-04-02T07:23:05.000Z</time>
      </trkpt>
      <trkpt lat="42.96601" lon="0.8745">
        <ele>1264</ele>
        <time>2018-04-02T07:23:07.000Z</time>
      </trkpt>
      <trkpt lat="42.96602" lon="0.87449">
        <ele>1264</ele>
        <time>2018-04-02T07:23:09.000Z</time>
      </trkpt>
      <trkpt lat="42.96602" lon="0.8745">
        <ele>1264</ele>
        <time>2018-04-02T07:23:11.000Z</time>
      </trkpt>
      <trkpt lat="42.96603" lon="0.8745">
        <ele>1264</ele>
        <time>2018-04-02T07:23:13.000Z</time>
      </trkpt>
      <trkpt lat="42.96603" lon="0.8745">
        <ele>1263</ele>
        <time>2018-04-02T07:23:15.000Z</time>
      </trkpt>
      <trkpt lat="42.96603" lon="0.8745">
        <ele>1263</ele>
        <time>2018-04-02T07:23:17.000Z</time>
      </trkpt>
      <trkpt lat="42.96603" lon="0.8745">
        <ele>1264</ele>
        <time>2018-04-02T07:23:19.000Z</time>
      </trkpt>
      <trkpt lat="42.96602" lon="0.87449">
        <ele>1264</ele>
        <time>2018-04-02T07:23:21.000Z</time>
      </trkpt>
      <trkpt lat="42.96602" lon="0.87449">
        <ele>1264</ele>
        <time>2018-04-02T07:23:23.000Z</time>
      </trkpt>
      <trkpt lat="42.96602" lon="0.87449">
        <ele>1264</ele>
        <time>2018-04-02T07:23:25.000Z</time>
      </trkpt>
      <trkpt lat="42.966" lon="0.87449">
        <ele>1264</ele>
        <time>2018-04-02T07:23:27.000Z</time>
      </trkpt>
      <trkpt lat="42.966" lon="0.87449">
        <ele>1264</ele>
        <time>2018-04-02T07:23:29.000Z</time>
      </trkpt>
      <trkpt lat="42.96598" lon="0.87448">
        <ele>1265</ele>
        <time>2018-04-02T07:23:31.000Z</time>
      </trkpt>
      <trkpt lat="42.96595" lon="0.87447">
        <ele>1265</ele>
        <time>2018-04-02T07:23:33.000Z</time>
      </trkpt>
      <trkpt lat="42.96593" lon="0.87447">
        <ele>1266</ele>
        <time>2018-04-02T07:23:35.000Z</time>
      </trkpt>
      <trkpt lat="42.96591" lon="0.87447">
        <ele>1266</ele>
        <time>2018-04-02T07:23:37.000Z</time>
      </trkpt>
      <trkpt lat="42.96589" lon="0.87447">
        <ele>1267</ele>
        <time>2018-04-02T07:23:39.000Z</time>
      </trkpt>
      <trkpt lat="42.96588" lon="0.87447">
        <ele>1267</ele>
        <time>2018-04-02T07:23:41.000Z</time>
      </trkpt>
      <trkpt lat="42.96586" lon="0.87446">
        <ele>1267</ele>
        <time>2018-04-02T07:23:43.000Z</time>
      </trkpt>
      <trkpt lat="42.96585" lon="0.87445">
        <ele>1267</ele>
        <time>2018-04-02T07:23:45.000Z</time>
      </trkpt>
      <trkpt lat="42.96585" lon="0.87445">
        <ele>1267</ele>
        <time>2018-04-02T07:23:47.000Z</time>
      </trkpt>
      <trkpt lat="42.96583" lon="0.87446">
        <ele>1267</ele>
        <time>2018-04-02T07:23:49.000Z</time>
      </trkpt>
      <trkpt lat="42.96582" lon="0.87447">
        <ele>1267</ele>
        <time>2018-04-02T07:23:51.000Z</time>
      </trkpt>
      <trkpt lat="42.9658" lon="0.87447">
        <ele>1267</ele>
        <time>2018-04-02T07:23:53.000Z</time>
      </trkpt>
      <trkpt lat="42.96579" lon="0.87446">
        <ele>1268</ele>
        <time>2018-04-02T07:23:55.000Z</time>
      </trkpt>
      <trkpt lat="42.96579" lon="0.87445">
        <ele>1268</ele>
        <time>2018-04-02T07:23:57.000Z</time>
      </trkpt>
      <trkpt lat="42.96579" lon="0.87443">
        <ele>1268</ele>
        <time>2018-04-02T07:23:59.000Z</time>
      </trkpt>
      <trkpt lat="42.96578" lon="0.87442">
        <ele>1268</ele>
        <time>2018-04-02T07:24:01.000Z</time>
      </trkpt>
      <trkpt lat="42.96578" lon="0.8744">
        <ele>1269</ele>
        <time>2018-04-02T07:24:03.000Z</time>
      </trkpt>
      <trkpt lat="42.96578" lon="0.87437">
        <ele>1269</ele>
        <time>2018-04-02T07:24:05.000Z</time>
      </trkpt>
      <trkpt lat="42.96577" lon="0.87433">
        <ele>1270</ele>
        <time>2018-04-02T07:24:07.000Z</time>
      </trkpt>
      <trkpt lat="42.96576" lon="0.87431">
        <ele>1270</ele>
        <time>2018-04-02T07:24:09.000Z</time>
      </trkpt>
      <trkpt lat="42.96576" lon="0.87429">
        <ele>1271</ele>
        <time>2018-04-02T07:24:11.000Z</time>
      </trkpt>
      <trkpt lat="42.96575" lon="0.87426">
        <ele>1271</ele>
        <time>2018-04-02T07:24:13.000Z</time>
      </trkpt>
      <trkpt lat="42.96574" lon="0.87424">
        <ele>1272</ele>
        <time>2018-04-02T07:24:15.000Z</time>
      </trkpt>
      <trkpt lat="42.96573" lon="0.87422">
        <ele>1272</ele>
        <time>2018-04-02T07:24:17.000Z</time>
      </trkpt>
      <trkpt lat="42.96573" lon="0.87421">
        <ele>1272</ele>
        <time>2018-04-02T07:24:19.000Z</time>
      </trkpt>
      <trkpt lat="42.96573" lon="0.87418">
        <ele>1273</ele>
        <time>2018-04-02T07:24:21.000Z</time>
      </trkpt>
      <trkpt lat="42.96573" lon="0.87417">
        <ele>1273</ele>
        <time>2018-04-02T07:24:23.000Z</time>
      </trkpt>
      <trkpt lat="42.96573" lon="0.87414">
        <ele>1273</ele>
        <time>2018-04-02T07:24:25.000Z</time>
      </trkpt>
      <trkpt lat="42.96573" lon="0.87413">
        <ele>1274</ele>
        <time>2018-04-02T07:24:27.000Z</time>
      </trkpt>
      <trkpt lat="42.96573" lon="0.87411">
        <ele>1274</ele>
        <time>2018-04-02T07:24:29.000Z</time>
      </trkpt>
      <trkpt lat="42.96573" lon="0.87408">
        <ele>1274</ele>
        <time>2018-04-02T07:24:31.000Z</time>
      </trkpt>
      <trkpt lat="42.96573" lon="0.87406">
        <ele>1275</ele>
        <time>2018-04-02T07:24:33.000Z</time>
      </trkpt>
      <trkpt lat="42.96573" lon="0.87405">
        <ele>1275</ele>
        <time>2018-04-02T07:24:35.000Z</time>
      </trkpt>
      <trkpt lat="42.96573" lon="0.87403">
        <ele>1275</ele>
        <time>2018-04-02T07:24:37.000Z</time>
      </trkpt>
      <trkpt lat="42.96574" lon="0.87402">
        <ele>1275</ele>
        <time>2018-04-02T07:24:39.000Z</time>
      </trkpt>
      <trkpt lat="42.96574" lon="0.874">
        <ele>1276</ele>
        <time>2018-04-02T07:24:41.000Z</time>
      </trkpt>
      <trkpt lat="42.96576" lon="0.87399">
        <ele>1276</ele>
        <time>2018-04-02T07:24:43.000Z</time>
      </trkpt>
      <trkpt lat="42.96577" lon="0.87398">
        <ele>1276</ele>
        <time>2018-04-02T07:24:45.000Z</time>
      </trkpt>
      <trkpt lat="42.96577" lon="0.87396">
        <ele>1276</ele>
        <time>2018-04-02T07:24:47.000Z</time>
      </trkpt>
      <trkpt lat="42.96577" lon="0.87394">
        <ele>1276</ele>
        <time>2018-04-02T07:24:49.000Z</time>
      </trkpt>
      <trkpt lat="42.96577" lon="0.87392">
        <ele>1277</ele>
        <time>2018-04-02T07:24:51.000Z</time>
      </trkpt>
      <trkpt lat="42.96577" lon="0.87391">
        <ele>1277</ele>
        <time>2018-04-02T07:24:53.000Z</time>
      </trkpt>
      <trkpt lat="42.96578" lon="0.8739">
        <ele>1277</ele>
        <time>2018-04-02T07:24:55.000Z</time>
      </trkpt>
      <trkpt lat="42.96578" lon="0.87388">
        <ele>1277</ele>
        <time>2018-04-02T07:24:57.000Z</time>
      </trkpt>
      <trkpt lat="42.96579" lon="0.87386">
        <ele>1277</ele>
        <time>2018-04-02T07:24:59.000Z</time>
      </trkpt>
      <trkpt lat="42.96579" lon="0.87384">
        <ele>1277</ele>
        <time>2018-04-02T07:25:01.000Z</time>
      </trkpt>
      <trkpt lat="42.9658" lon="0.87382">
        <ele>1278</ele>
        <time>2018-04-02T07:25:03.000Z</time>
      </trkpt>
      <trkpt lat="42.9658" lon="0.8738">
        <ele>1278</ele>
        <time>2018-04-02T07:25:05.000Z</time>
      </trkpt>
      <trkpt lat="42.9658" lon="0.87378">
        <ele>1278</ele>
        <time>2018-04-02T07:25:07.000Z</time>
      </trkpt>
      <trkpt lat="42.9658" lon="0.87376">
        <ele>1278</ele>
        <time>2018-04-02T07:25:09.000Z</time>
      </trkpt>
      <trkpt lat="42.96581" lon="0.87374">
        <ele>1278</ele>
        <time>2018-04-02T07:25:11.000Z</time>
      </trkpt>
      <trkpt lat="42.96581" lon="0.87372">
        <ele>1278</ele>
        <time>2018-04-02T07:25:13.000Z</time>
      </trkpt>
      <trkpt lat="42.96581" lon="0.8737">
        <ele>1278</ele>
        <time>2018-04-02T07:25:15.000Z</time>
      </trkpt>
      <trkpt lat="42.96581" lon="0.87368">
        <ele>1279</ele>
        <time>2018-04-02T07:25:17.000Z</time>
      </trkpt>
      <trkpt lat="42.96581" lon="0.87367">
        <ele>1279</ele>
        <time>2018-04-02T07:25:19.000Z</time>
      </trkpt>
      <trkpt lat="42.9658" lon="0.87365">
        <ele>1279</ele>
        <time>2018-04-02T07:25:21.000Z</time>
      </trkpt>
      <trkpt lat="42.9658" lon="0.87362">
        <ele>1279</ele>
        <time>2018-04-02T07:25:23.000Z</time>
      </trkpt>
      <trkpt lat="42.9658" lon="0.8736">
        <ele>1279</ele>
        <time>2018-04-02T07:25:25.000Z</time>
      </trkpt>
      <trkpt lat="42.96581" lon="0.87359">
        <ele>1279</ele>
        <time>2018-04-02T07:25:27.000Z</time>
      </trkpt>
      <trkpt lat="42.96581" lon="0.87358">
        <ele>1280</ele>
        <time>2018-04-02T07:25:29.000Z</time>
      </trkpt>
      <trkpt lat="42.96581" lon="0.87356">
        <ele>1280</ele>
        <time>2018-04-02T07:25:31.000Z</time>
      </trkpt>
      <trkpt lat="42.96582" lon="0.87355">
        <ele>1280</ele>
        <time>2018-04-02T07:25:33.000Z</time>
      </trkpt>
      <trkpt lat="42.96582" lon="0.87353">
        <ele>1280</ele>
        <time>2018-04-02T07:25:35.000Z</time>
      </trkpt>
      <trkpt lat="42.96582" lon="0.8735">
        <ele>1280</ele>
        <time>2018-04-02T07:25:37.000Z</time>
      </trkpt>
      <trkpt lat="42.96583" lon="0.87348">
        <ele>1280</ele>
        <time>2018-04-02T07:25:39.000Z</time>
      </trkpt>
      <trkpt lat="42.96584" lon="0.87346">
        <ele>1280</ele>
        <time>2018-04-02T07:25:41.000Z</time>
      </trkpt>
      <trkpt lat="42.96585" lon="0.87345">
        <ele>1280</ele>
        <time>2018-04-02T07:25:43.000Z</time>
      </trkpt>
      <trkpt lat="42.96587" lon="0.87343">
        <ele>1280</ele>
        <time>2018-04-02T07:25:45.000Z</time>
      </trkpt>
      <trkpt lat="42.96588" lon="0.87341">
        <ele>1280</ele>
        <time>2018-04-02T07:25:47.000Z</time>
      </trkpt>
      <trkpt lat="42.96589" lon="0.8734">
        <ele>1280</ele>
        <time>2018-04-02T07:25:49.000Z</time>
      </trkpt>
      <trkpt lat="42.9659" lon="0.87339">
        <ele>1280</ele>
        <time>2018-04-02T07:25:51.000Z</time>
      </trkpt>
      <trkpt lat="42.96592" lon="0.87337">
        <ele>1280</ele>
        <time>2018-04-02T07:25:53.000Z</time>
      </trkpt>
      <trkpt lat="42.96593" lon="0.87336">
        <ele>1280</ele>
        <time>2018-04-02T07:25:55.000Z</time>
      </trkpt>
      <trkpt lat="42.96593" lon="0.87334">
        <ele>1280</ele>
        <time>2018-04-02T07:25:57.000Z</time>
      </trkpt>
      <trkpt lat="42.96593" lon="0.87332">
        <ele>1280</ele>
        <time>2018-04-02T07:25:59.000Z</time>
      </trkpt>
      <trkpt lat="42.96594" lon="0.8733">
        <ele>1280</ele>
        <time>2018-04-02T07:26:01.000Z</time>
      </trkpt>
      <trkpt lat="42.96595" lon="0.87329">
        <ele>1280</ele>
        <time>2018-04-02T07:26:03.000Z</time>
      </trkpt>
      <trkpt lat="42.96596" lon="0.87328">
        <ele>1280</ele>
        <time>2018-04-02T07:26:05.000Z</time>
      </trkpt>
      <trkpt lat="42.96595" lon="0.87327">
        <ele>1280</ele>
        <time>2018-04-02T07:26:07.000Z</time>
      </trkpt>
      <trkpt lat="42.96595" lon="0.87325">
        <ele>1280</ele>
        <time>2018-04-02T07:26:09.000Z</time>
      </trkpt>
      <trkpt lat="42.96595" lon="0.87323">
        <ele>1280</ele>
        <time>2018-04-02T07:26:11.000Z</time>
      </trkpt>
      <trkpt lat="42.96594" lon="0.87321">
        <ele>1281</ele>
        <time>2018-04-02T07:26:13.000Z</time>
      </trkpt>
      <trkpt lat="42.96593" lon="0.87319">
        <ele>1281</ele>
        <time>2018-04-02T07:26:15.000Z</time>
      </trkpt>
      <trkpt lat="42.96593" lon="0.87318">
        <ele>1281</ele>
        <time>2018-04-02T07:26:17.000Z</time>
      </trkpt>
      <trkpt lat="42.96593" lon="0.87317">
        <ele>1282</ele>
        <time>2018-04-02T07:26:19.000Z</time>
      </trkpt>
      <trkpt lat="42.96592" lon="0.87315">
        <ele>1282</ele>
        <time>2018-04-02T07:26:21.000Z</time>
      </trkpt>
      <trkpt lat="42.96592" lon="0.87313">
        <ele>1282</ele>
        <time>2018-04-02T07:26:23.000Z</time>
      </trkpt>
      <trkpt lat="42.96592" lon="0.87311">
        <ele>1282</ele>
        <time>2018-04-02T07:26:25.000Z</time>
      </trkpt>
      <trkpt lat="42.96592" lon="0.87309">
        <ele>1282</ele>
        <time>2018-04-02T07:26:27.000Z</time>
      </trkpt>
      <trkpt lat="42.96593" lon="0.87307">
        <ele>1282</ele>
        <time>2018-04-02T07:26:29.000Z</time>
      </trkpt>
      <trkpt lat="42.96593" lon="0.87304">
        <ele>1283</ele>
        <time>2018-04-02T07:26:31.000Z</time>
      </trkpt>
      <trkpt lat="42.96592" lon="0.87303">
        <ele>1283</ele>
        <time>2018-04-02T07:26:33.000Z</time>
      </trkpt>
      <trkpt lat="42.96592" lon="0.87301">
        <ele>1283</ele>
        <time>2018-04-02T07:26:35.000Z</time>
      </trkpt>
      <trkpt lat="42.96591" lon="0.873">
        <ele>1283</ele>
        <time>2018-04-02T07:26:37.000Z</time>
      </trkpt>
      <trkpt lat="42.96591" lon="0.87298">
        <ele>1283</ele>
        <time>2018-04-02T07:26:39.000Z</time>
      </trkpt>
      <trkpt lat="42.96592" lon="0.87296">
        <ele>1283</ele>
        <time>2018-04-02T07:26:41.000Z</time>
      </trkpt>
      <trkpt lat="42.96592" lon="0.87295">
        <ele>1283</ele>
        <time>2018-04-02T07:26:43.000Z</time>
      </trkpt>
      <trkpt lat="42.96592" lon="0.87293">
        <ele>1283</ele>
        <time>2018-04-02T07:26:45.000Z</time>
      </trkpt>
      <trkpt lat="42.96594" lon="0.87291">
        <ele>1283</ele>
        <time>2018-04-02T07:26:47.000Z</time>
      </trkpt>
      <trkpt lat="42.96594" lon="0.87289">
        <ele>1283</ele>
        <time>2018-04-02T07:26:49.000Z</time>
      </trkpt>
      <trkpt lat="42.96593" lon="0.87287">
        <ele>1284</ele>
        <time>2018-04-02T07:26:51.000Z</time>
      </trkpt>
      <trkpt lat="42.96593" lon="0.87285">
        <ele>1284</ele>
        <time>2018-04-02T07:26:53.000Z</time>
      </trkpt>
      <trkpt lat="42.96593" lon="0.87283">
        <ele>1284</ele>
        <time>2018-04-02T07:26:55.000Z</time>
      </trkpt>
      <trkpt lat="42.96594" lon="0.87281">
        <ele>1284</ele>
        <time>2018-04-02T07:26:57.000Z</time>
      </trkpt>
      <trkpt lat="42.96594" lon="0.87279">
        <ele>1284</ele>
        <time>2018-04-02T07:26:59.000Z</time>
      </trkpt>
      <trkpt lat="42.96596" lon="0.87277">
        <ele>1283</ele>
        <time>2018-04-02T07:27:01.000Z</time>
      </trkpt>
      <trkpt lat="42.96597" lon="0.87275">
        <ele>1283</ele>
        <time>2018-04-02T07:27:03.000Z</time>
      </trkpt>
      <trkpt lat="42.96597" lon="0.87273">
        <ele>1283</ele>
        <time>2018-04-02T07:27:05.000Z</time>
      </trkpt>
      <trkpt lat="42.96597" lon="0.87272">
        <ele>1283</ele>
        <time>2018-04-02T07:27:07.000Z</time>
      </trkpt>
      <trkpt lat="42.96597" lon="0.87269">
        <ele>1283</ele>
        <time>2018-04-02T07:27:09.000Z</time>
      </trkpt>
      <trkpt lat="42.96599" lon="0.87267">
        <ele>1283</ele>
        <time>2018-04-02T07:27:11.000Z</time>
      </trkpt>
      <trkpt lat="42.96599" lon="0.87265">
        <ele>1283</ele>
        <time>2018-04-02T07:27:13.000Z</time>
      </trkpt>
      <trkpt lat="42.96599" lon="0.87264">
        <ele>1283</ele>
        <time>2018-04-02T07:27:15.000Z</time>
      </trkpt>
      <trkpt lat="42.96599" lon="0.87262">
        <ele>1283</ele>
        <time>2018-04-02T07:27:17.000Z</time>
      </trkpt>
      <trkpt lat="42.96598" lon="0.8726">
        <ele>1283</ele>
        <time>2018-04-02T07:27:19.000Z</time>
      </trkpt>
      <trkpt lat="42.96598" lon="0.87258">
        <ele>1284</ele>
        <time>2018-04-02T07:27:21.000Z</time>
      </trkpt>
      <trkpt lat="42.96598" lon="0.87256">
        <ele>1284</ele>
        <time>2018-04-02T07:27:23.000Z</time>
      </trkpt>
      <trkpt lat="42.96599" lon="0.87254">
        <ele>1284</ele>
        <time>2018-04-02T07:27:25.000Z</time>
      </trkpt>
      <trkpt lat="42.96599" lon="0.87252">
        <ele>1284</ele>
        <time>2018-04-02T07:27:27.000Z</time>
      </trkpt>
      <trkpt lat="42.966" lon="0.8725">
        <ele>1284</ele>
        <time>2018-04-02T07:27:29.000Z</time>
      </trkpt>
      <trkpt lat="42.96599" lon="0.87249">
        <ele>1284</ele>
        <time>2018-04-02T07:27:31.000Z</time>
      </trkpt>
      <trkpt lat="42.96599" lon="0.87249">
        <ele>1284</ele>
        <time>2018-04-02T07:27:33.000Z</time>
      </trkpt>
      <trkpt lat="42.96598" lon="0.87248">
        <ele>1284</ele>
        <time>2018-04-02T07:27:35.000Z</time>
      </trkpt>
      <trkpt lat="42.96599" lon="0.87246">
        <ele>1284</ele>
        <time>2018-04-02T07:27:37.000Z</time>
      </trkpt>
      <trkpt lat="42.96599" lon="0.87245">
        <ele>1284</ele>
        <time>2018-04-02T07:27:39.000Z</time>
      </trkpt>
      <trkpt lat="42.96599" lon="0.87244">
        <ele>1284</ele>
        <time>2018-04-02T07:27:41.000Z</time>
      </trkpt>
      <trkpt lat="42.96599" lon="0.87242">
        <ele>1284</ele>
        <time>2018-04-02T07:27:43.000Z</time>
      </trkpt>
      <trkpt lat="42.96598" lon="0.87241">
        <ele>1285</ele>
        <time>2018-04-02T07:27:45.000Z</time>
      </trkpt>
      <trkpt lat="42.96598" lon="0.8724">
        <ele>1285</ele>
        <time>2018-04-02T07:27:47.000Z</time>
      </trkpt>
      <trkpt lat="42.96598" lon="0.87239">
        <ele>1285</ele>
        <time>2018-04-02T07:27:49.000Z</time>
      </trkpt>
      <trkpt lat="42.96597" lon="0.87239">
        <ele>1285</ele>
        <time>2018-04-02T07:27:51.000Z</time>
      </trkpt>
      <trkpt lat="42.96595" lon="0.87238">
        <ele>1286</ele>
        <time>2018-04-02T07:27:53.000Z</time>
      </trkpt>
      <trkpt lat="42.96594" lon="0.87236">
        <ele>1286</ele>
        <time>2018-04-02T07:27:55.000Z</time>
      </trkpt>
      <trkpt lat="42.96593" lon="0.87235">
        <ele>1287</ele>
        <time>2018-04-02T07:27:57.000Z</time>
      </trkpt>
      <trkpt lat="42.96592" lon="0.87234">
        <ele>1287</ele>
        <time>2018-04-02T07:27:59.000Z</time>
      </trkpt>
      <trkpt lat="42.96591" lon="0.87232">
        <ele>1287</ele>
        <time>2018-04-02T07:28:01.000Z</time>
      </trkpt>
      <trkpt lat="42.9659" lon="0.87232">
        <ele>1288</ele>
        <time>2018-04-02T07:28:03.000Z</time>
      </trkpt>
      <trkpt lat="42.96589" lon="0.87231">
        <ele>1288</ele>
        <time>2018-04-02T07:28:05.000Z</time>
      </trkpt>
      <trkpt lat="42.96588" lon="0.87231">
        <ele>1288</ele>
        <time>2018-04-02T07:28:07.000Z</time>
      </trkpt>
      <trkpt lat="42.96587" lon="0.87231">
        <ele>1288</ele>
        <time>2018-04-02T07:28:09.000Z</time>
      </trkpt>
      <trkpt lat="42.96586" lon="0.87229">
        <ele>1289</ele>
        <time>2018-04-02T07:28:11.000Z</time>
      </trkpt>
      <trkpt lat="42.96583" lon="0.87229">
        <ele>1289</ele>
        <time>2018-04-02T07:28:13.000Z</time>
      </trkpt>
      <trkpt lat="42.96581" lon="0.87229">
        <ele>1289</ele>
        <time>2018-04-02T07:28:15.000Z</time>
      </trkpt>
      <trkpt lat="42.9658" lon="0.87228">
        <ele>1290</ele>
        <time>2018-04-02T07:28:17.000Z</time>
      </trkpt>
      <trkpt lat="42.9658" lon="0.87226">
        <ele>1290</ele>
        <time>2018-04-02T07:28:19.000Z</time>
      </trkpt>
      <trkpt lat="42.96579" lon="0.87224">
        <ele>1290</ele>
        <time>2018-04-02T07:28:21.000Z</time>
      </trkpt>
      <trkpt lat="42.96579" lon="0.87224">
        <ele>1290</ele>
        <time>2018-04-02T07:28:23.000Z</time>
      </trkpt>
      <trkpt lat="42.96578" lon="0.87224">
        <ele>1290</ele>
        <time>2018-04-02T07:28:25.000Z</time>
      </trkpt>
      <trkpt lat="42.96578" lon="0.87223">
        <ele>1290</ele>
        <time>2018-04-02T07:28:27.000Z</time>
      </trkpt>
      <trkpt lat="42.96577" lon="0.87222">
        <ele>1291</ele>
        <time>2018-04-02T07:28:29.000Z</time>
      </trkpt>
      <trkpt lat="42.96578" lon="0.8722">
        <ele>1291</ele>
        <time>2018-04-02T07:28:31.000Z</time>
      </trkpt>
      <trkpt lat="42.96579" lon="0.87218">
        <ele>1291</ele>
        <time>2018-04-02T07:28:33.000Z</time>
      </trkpt>
      <trkpt lat="42.96579" lon="0.87215">
        <ele>1291</ele>
        <time>2018-04-02T07:28:35.000Z</time>
      </trkpt>
      <trkpt lat="42.96579" lon="0.87214">
        <ele>1291</ele>
        <time>2018-04-02T07:28:37.000Z</time>
      </trkpt>
      <trkpt lat="42.96579" lon="0.87212">
        <ele>1291</ele>
        <time>2018-04-02T07:28:39.000Z</time>
      </trkpt>
      <trkpt lat="42.96578" lon="0.8721">
        <ele>1292</ele>
        <time>2018-04-02T07:28:41.000Z</time>
      </trkpt>
      <trkpt lat="42.96577" lon="0.87208">
        <ele>1292</ele>
        <time>2018-04-02T07:28:43.000Z</time>
      </trkpt>
      <trkpt lat="42.96578" lon="0.87207">
        <ele>1292</ele>
        <time>2018-04-02T07:28:45.000Z</time>
      </trkpt>
      <trkpt lat="42.96578" lon="0.87205">
        <ele>1292</ele>
        <time>2018-04-02T07:28:47.000Z</time>
      </trkpt>
      <trkpt lat="42.96577" lon="0.87203">
        <ele>1292</ele>
        <time>2018-04-02T07:28:49.000Z</time>
      </trkpt>
      <trkpt lat="42.96578" lon="0.87201">
        <ele>1292</ele>
        <time>2018-04-02T07:28:51.000Z</time>
      </trkpt>
      <trkpt lat="42.96577" lon="0.87199">
        <ele>1293</ele>
        <time>2018-04-02T07:28:53.000Z</time>
      </trkpt>
      <trkpt lat="42.96576" lon="0.87197">
        <ele>1293</ele>
        <time>2018-04-02T07:28:55.000Z</time>
      </trkpt>
      <trkpt lat="42.96575" lon="0.87194">
        <ele>1293</ele>
        <time>2018-04-02T07:28:57.000Z</time>
      </trkpt>
      <trkpt lat="42.96574" lon="0.87192">
        <ele>1294</ele>
        <time>2018-04-02T07:28:59.000Z</time>
      </trkpt>
      <trkpt lat="42.96573" lon="0.8719">
        <ele>1294</ele>
        <time>2018-04-02T07:29:01.000Z</time>
      </trkpt>
      <trkpt lat="42.96572" lon="0.87188">
        <ele>1294</ele>
        <time>2018-04-02T07:29:03.000Z</time>
      </trkpt>
      <trkpt lat="42.96572" lon="0.87185">
        <ele>1295</ele>
        <time>2018-04-02T07:29:05.000Z</time>
      </trkpt>
      <trkpt lat="42.96572" lon="0.87183">
        <ele>1295</ele>
        <time>2018-04-02T07:29:07.000Z</time>
      </trkpt>
      <trkpt lat="42.96572" lon="0.87182">
        <ele>1295</ele>
        <time>2018-04-02T07:29:09.000Z</time>
      </trkpt>
      <trkpt lat="42.96572" lon="0.8718">
        <ele>1295</ele>
        <time>2018-04-02T07:29:11.000Z</time>
      </trkpt>
      <trkpt lat="42.96572" lon="0.87178">
        <ele>1295</ele>
        <time>2018-04-02T07:29:13.000Z</time>
      </trkpt>
      <trkpt lat="42.96573" lon="0.87177">
        <ele>1295</ele>
        <time>2018-04-02T07:29:15.000Z</time>
      </trkpt>
      <trkpt lat="42.96573" lon="0.87175">
        <ele>1295</ele>
        <time>2018-04-02T07:29:17.000Z</time>
      </trkpt>
      <trkpt lat="42.96572" lon="0.87173">
        <ele>1295</ele>
        <time>2018-04-02T07:29:19.000Z</time>
      </trkpt>
      <trkpt lat="42.96572" lon="0.87172">
        <ele>1295</ele>
        <time>2018-04-02T07:29:21.000Z</time>
      </trkpt>
      <trkpt lat="42.96572" lon="0.8717">
        <ele>1296</ele>
        <time>2018-04-02T07:29:23.000Z</time>
      </trkpt>
      <trkpt lat="42.96572" lon="0.87168">
        <ele>1296</ele>
        <time>2018-04-02T07:29:25.000Z</time>
      </trkpt>
      <trkpt lat="42.96572" lon="0.87166">
        <ele>1296</ele>
        <time>2018-04-02T07:29:27.000Z</time>
      </trkpt>
      <trkpt lat="42.96572" lon="0.87164">
        <ele>1296</ele>
        <time>2018-04-02T07:29:29.000Z</time>
      </trkpt>
      <trkpt lat="42.96572" lon="0.87163">
        <ele>1296</ele>
        <time>2018-04-02T07:29:31.000Z</time>
      </trkpt>
      <trkpt lat="42.96573" lon="0.87162">
        <ele>1296</ele>
        <time>2018-04-02T07:29:33.000Z</time>
      </trkpt>
      <trkpt lat="42.96574" lon="0.87159">
        <ele>1296</ele>
        <time>2018-04-02T07:29:35.000Z</time>
      </trkpt>
      <trkpt lat="42.96573" lon="0.87157">
        <ele>1296</ele>
        <time>2018-04-02T07:29:37.000Z</time>
      </trkpt>
      <trkpt lat="42.96573" lon="0.87155">
        <ele>1297</ele>
        <time>2018-04-02T07:29:39.000Z</time>
      </trkpt>
      <trkpt lat="42.96572" lon="0.87153">
        <ele>1297</ele>
        <time>2018-04-02T07:29:41.000Z</time>
      </trkpt>
      <trkpt lat="42.96573" lon="0.87152">
        <ele>1297</ele>
        <time>2018-04-02T07:29:43.000Z</time>
      </trkpt>
      <trkpt lat="42.96573" lon="0.8715">
        <ele>1297</ele>
        <time>2018-04-02T07:29:45.000Z</time>
      </trkpt>
      <trkpt lat="42.96573" lon="0.87149">
        <ele>1297</ele>
        <time>2018-04-02T07:29:47.000Z</time>
      </trkpt>
      <trkpt lat="42.96573" lon="0.87147">
        <ele>1297</ele>
        <time>2018-04-02T07:29:49.000Z</time>
      </trkpt>
      <trkpt lat="42.96573" lon="0.87146">
        <ele>1297</ele>
        <time>2018-04-02T07:29:51.000Z</time>
      </trkpt>
      <trkpt lat="42.96574" lon="0.87145">
        <ele>1297</ele>
        <time>2018-04-02T07:29:53.000Z</time>
      </trkpt>
      <trkpt lat="42.96573" lon="0.87143">
        <ele>1297</ele>
        <time>2018-04-02T07:29:55.000Z</time>
      </trkpt>
      <trkpt lat="42.96573" lon="0.87141">
        <ele>1298</ele>
        <time>2018-04-02T07:29:57.000Z</time>
      </trkpt>
      <trkpt lat="42.96574" lon="0.87139">
        <ele>1298</ele>
        <time>2018-04-02T07:29:59.000Z</time>
      </trkpt>
      <trkpt lat="42.96573" lon="0.87137">
        <ele>1298</ele>
        <time>2018-04-02T07:30:01.000Z</time>
      </trkpt>
      <trkpt lat="42.96573" lon="0.87136">
        <ele>1298</ele>
        <time>2018-04-02T07:30:03.000Z</time>
      </trkpt>
      <trkpt lat="42.96572" lon="0.87133">
        <ele>1299</ele>
        <time>2018-04-02T07:30:05.000Z</time>
      </trkpt>
      <trkpt lat="42.96572" lon="0.87132">
        <ele>1299</ele>
        <time>2018-04-02T07:30:07.000Z</time>
      </trkpt>
      <trkpt lat="42.96571" lon="0.8713">
        <ele>1299</ele>
        <time>2018-04-02T07:30:09.000Z</time>
      </trkpt>
      <trkpt lat="42.96571" lon="0.87129">
        <ele>1299</ele>
        <time>2018-04-02T07:30:11.000Z</time>
      </trkpt>
      <trkpt lat="42.96572" lon="0.87128">
        <ele>1299</ele>
        <time>2018-04-02T07:30:13.000Z</time>
      </trkpt>
      <trkpt lat="42.96572" lon="0.87127">
        <ele>1300</ele>
        <time>2018-04-02T07:30:15.000Z</time>
      </trkpt>
      <trkpt lat="42.96572" lon="0.87125">
        <ele>1300</ele>
        <time>2018-04-02T07:30:17.000Z</time>
      </trkpt>
      <trkpt lat="42.96572" lon="0.87124">
        <ele>1300</ele>
        <time>2018-04-02T07:30:19.000Z</time>
      </trkpt>
      <trkpt lat="42.96572" lon="0.87122">
        <ele>1300</ele>
        <time>2018-04-02T07:30:21.000Z</time>
      </trkpt>
      <trkpt lat="42.96572" lon="0.8712">
        <ele>1301</ele>
        <time>2018-04-02T07:30:23.000Z</time>
      </trkpt>
      <trkpt lat="42.96572" lon="0.87119">
        <ele>1301</ele>
        <time>2018-04-02T07:30:25.000Z</time>
      </trkpt>
      <trkpt lat="42.96571" lon="0.87118">
        <ele>1301</ele>
        <time>2018-04-02T07:30:27.000Z</time>
      </trkpt>
      <trkpt lat="42.9657" lon="0.87116">
        <ele>1302</ele>
        <time>2018-04-02T07:30:29.000Z</time>
      </trkpt>
      <trkpt lat="42.96569" lon="0.87114">
        <ele>1302</ele>
        <time>2018-04-02T07:30:31.000Z</time>
      </trkpt>
      <trkpt lat="42.96569" lon="0.87113">
        <ele>1302</ele>
        <time>2018-04-02T07:30:33.000Z</time>
      </trkpt>
      <trkpt lat="42.96571" lon="0.87112">
        <ele>1302</ele>
        <time>2018-04-02T07:30:35.000Z</time>
      </trkpt>
      <trkpt lat="42.96572" lon="0.87111">
        <ele>1302</ele>
        <time>2018-04-02T07:30:37.000Z</time>
      </trkpt>
      <trkpt lat="42.96573" lon="0.8711">
        <ele>1302</ele>
        <time>2018-04-02T07:30:39.000Z</time>
      </trkpt>
      <trkpt lat="42.96574" lon="0.87109">
        <ele>1302</ele>
        <time>2018-04-02T07:30:41.000Z</time>
      </trkpt>
      <trkpt lat="42.96573" lon="0.87108">
        <ele>1302</ele>
        <time>2018-04-02T07:30:43.000Z</time>
      </trkpt>
      <trkpt lat="42.96573" lon="0.87107">
        <ele>1302</ele>
        <time>2018-04-02T07:30:45.000Z</time>
      </trkpt>
      <trkpt lat="42.96571" lon="0.87107">
        <ele>1303</ele>
        <time>2018-04-02T07:30:47.000Z</time>
      </trkpt>
      <trkpt lat="42.9657" lon="0.87105">
        <ele>1303</ele>
        <time>2018-04-02T07:30:49.000Z</time>
      </trkpt>
      <trkpt lat="42.96568" lon="0.87104">
        <ele>1303</ele>
        <time>2018-04-02T07:30:51.000Z</time>
      </trkpt>
      <trkpt lat="42.96567" lon="0.87103">
        <ele>1304</ele>
        <time>2018-04-02T07:30:53.000Z</time>
      </trkpt>
      <trkpt lat="42.96567" lon="0.87102">
        <ele>1304</ele>
        <time>2018-04-02T07:30:55.000Z</time>
      </trkpt>
      <trkpt lat="42.96566" lon="0.87102">
        <ele>1304</ele>
        <time>2018-04-02T07:30:57.000Z</time>
      </trkpt>
      <trkpt lat="42.96565" lon="0.87101">
        <ele>1304</ele>
        <time>2018-04-02T07:30:59.000Z</time>
      </trkpt>
      <trkpt lat="42.96564" lon="0.871">
        <ele>1305</ele>
        <time>2018-04-02T07:31:01.000Z</time>
      </trkpt>
      <trkpt lat="42.96564" lon="0.87099">
        <ele>1305</ele>
        <time>2018-04-02T07:31:03.000Z</time>
      </trkpt>
      <trkpt lat="42.96564" lon="0.87098">
        <ele>1305</ele>
        <time>2018-04-02T07:31:05.000Z</time>
      </trkpt>
      <trkpt lat="42.96563" lon="0.87097">
        <ele>1305</ele>
        <time>2018-04-02T07:31:07.000Z</time>
      </trkpt>
      <trkpt lat="42.96562" lon="0.87096">
        <ele>1306</ele>
        <time>2018-04-02T07:31:09.000Z</time>
      </trkpt>
      <trkpt lat="42.96565" lon="0.87095">
        <ele>1305</ele>
        <time>2018-04-02T07:31:11.000Z</time>
      </trkpt>
      <trkpt lat="42.96567" lon="0.87094">
        <ele>1305</ele>
        <time>2018-04-02T07:31:13.000Z</time>
      </trkpt>
      <trkpt lat="42.96566" lon="0.87093">
        <ele>1305</ele>
        <time>2018-04-02T07:31:15.000Z</time>
      </trkpt>
      <trkpt lat="42.96565" lon="0.87094">
        <ele>1305</ele>
        <time>2018-04-02T07:31:17.000Z</time>
      </trkpt>
      <trkpt lat="42.96565" lon="0.87093">
        <ele>1306</ele>
        <time>2018-04-02T07:31:19.000Z</time>
      </trkpt>
      <trkpt lat="42.96564" lon="0.87093">
        <ele>1306</ele>
        <time>2018-04-02T07:31:21.000Z</time>
      </trkpt>
      <trkpt lat="42.96565" lon="0.87093">
        <ele>1305</ele>
        <time>2018-04-02T07:31:23.000Z</time>
      </trkpt>
      <trkpt lat="42.96566" lon="0.87094">
        <ele>1305</ele>
        <time>2018-04-02T07:31:25.000Z</time>
      </trkpt>
      <trkpt lat="42.96566" lon="0.87095">
        <ele>1305</ele>
        <time>2018-04-02T07:31:27.000Z</time>
      </trkpt>
      <trkpt lat="42.96566" lon="0.87096">
        <ele>1305</ele>
        <time>2018-04-02T07:31:29.000Z</time>
      </trkpt>
      <trkpt lat="42.96567" lon="0.87097">
        <ele>1304</ele>
        <time>2018-04-02T07:31:31.000Z</time>
      </trkpt>
      <trkpt lat="42.96567" lon="0.87098">
        <ele>1304</ele>
        <time>2018-04-02T07:31:33.000Z</time>
      </trkpt>
      <trkpt lat="42.96568" lon="0.87098">
        <ele>1304</ele>
        <time>2018-04-02T07:31:35.000Z</time>
      </trkpt>
      <trkpt lat="42.9657" lon="0.87097">
        <ele>1304</ele>
        <time>2018-04-02T07:31:37.000Z</time>
      </trkpt>
      <trkpt lat="42.96573" lon="0.87097">
        <ele>1303</ele>
        <time>2018-04-02T07:31:39.000Z</time>
      </trkpt>
      <trkpt lat="42.96574" lon="0.87096">
        <ele>1303</ele>
        <time>2018-04-02T07:31:41.000Z</time>
      </trkpt>
      <trkpt lat="42.96573" lon="0.87096">
        <ele>1303</ele>
        <time>2018-04-02T07:31:43.000Z</time>
      </trkpt>
      <trkpt lat="42.96569" lon="0.87096">
        <ele>1304</ele>
        <time>2018-04-02T07:31:45.000Z</time>
      </trkpt>
      <trkpt lat="42.96566" lon="0.87096">
        <ele>1305</ele>
        <time>2018-04-02T07:31:47.000Z</time>
      </trkpt>
      <trkpt lat="42.96565" lon="0.87095">
        <ele>1305</ele>
        <time>2018-04-02T07:31:49.000Z</time>
      </trkpt>
      <trkpt lat="42.96563" lon="0.87094">
        <ele>1306</ele>
        <time>2018-04-02T07:31:51.000Z</time>
      </trkpt>
      <trkpt lat="42.96564" lon="0.87093">
        <ele>1306</ele>
        <time>2018-04-02T07:31:53.000Z</time>
      </trkpt>
      <trkpt lat="42.96565" lon="0.87092">
        <ele>1306</ele>
        <time>2018-04-02T07:31:55.000Z</time>
      </trkpt>
      <trkpt lat="42.96564" lon="0.8709">
        <ele>1306</ele>
        <time>2018-04-02T07:31:57.000Z</time>
      </trkpt>
      <trkpt lat="42.96565" lon="0.87089">
        <ele>1306</ele>
        <time>2018-04-02T07:31:59.000Z</time>
      </trkpt>
      <trkpt lat="42.96564" lon="0.87088">
        <ele>1306</ele>
        <time>2018-04-02T07:32:01.000Z</time>
      </trkpt>
      <trkpt lat="42.96564" lon="0.87088">
        <ele>1306</ele>
        <time>2018-04-02T07:32:03.000Z</time>
      </trkpt>
      <trkpt lat="42.96564" lon="0.87086">
        <ele>1307</ele>
        <time>2018-04-02T07:32:05.000Z</time>
      </trkpt>
      <trkpt lat="42.96565" lon="0.87085">
        <ele>1307</ele>
        <time>2018-04-02T07:32:07.000Z</time>
      </trkpt>
      <trkpt lat="42.96564" lon="0.87085">
        <ele>1307</ele>
        <time>2018-04-02T07:32:09.000Z</time>
      </trkpt>
      <trkpt lat="42.96564" lon="0.87084">
        <ele>1307</ele>
        <time>2018-04-02T07:32:11.000Z</time>
      </trkpt>
      <trkpt lat="42.96564" lon="0.87082">
        <ele>1307</ele>
        <time>2018-04-02T07:32:13.000Z</time>
      </trkpt>
      <trkpt lat="42.96563" lon="0.87081">
        <ele>1307</ele>
        <time>2018-04-02T07:32:15.000Z</time>
      </trkpt>
      <trkpt lat="42.96563" lon="0.87079">
        <ele>1308</ele>
        <time>2018-04-02T07:32:17.000Z</time>
      </trkpt>
      <trkpt lat="42.96563" lon="0.87078">
        <ele>1308</ele>
        <time>2018-04-02T07:32:19.000Z</time>
      </trkpt>
      <trkpt lat="42.96562" lon="0.87076">
        <ele>1308</ele>
        <time>2018-04-02T07:32:21.000Z</time>
      </trkpt>
      <trkpt lat="42.96562" lon="0.87075">
        <ele>1309</ele>
        <time>2018-04-02T07:32:23.000Z</time>
      </trkpt>
      <trkpt lat="42.96561" lon="0.87074">
        <ele>1309</ele>
        <time>2018-04-02T07:32:25.000Z</time>
      </trkpt>
      <trkpt lat="42.9656" lon="0.87072">
        <ele>1309</ele>
        <time>2018-04-02T07:32:27.000Z</time>
      </trkpt>
      <trkpt lat="42.96559" lon="0.87071">
        <ele>1310</ele>
        <time>2018-04-02T07:32:29.000Z</time>
      </trkpt>
      <trkpt lat="42.96558" lon="0.87069">
        <ele>1310</ele>
        <time>2018-04-02T07:32:31.000Z</time>
      </trkpt>
      <trkpt lat="42.96557" lon="0.87068">
        <ele>1310</ele>
        <time>2018-04-02T07:32:33.000Z</time>
      </trkpt>
      <trkpt lat="42.96556" lon="0.87068">
        <ele>1311</ele>
        <time>2018-04-02T07:32:35.000Z</time>
      </trkpt>
      <trkpt lat="42.96556" lon="0.87066">
        <ele>1311</ele>
        <time>2018-04-02T07:32:37.000Z</time>
      </trkpt>
      <trkpt lat="42.96557" lon="0.87064">
        <ele>1311</ele>
        <time>2018-04-02T07:32:39.000Z</time>
      </trkpt>
      <trkpt lat="42.96556" lon="0.87062">
        <ele>1311</ele>
        <time>2018-04-02T07:32:41.000Z</time>
      </trkpt>
      <trkpt lat="42.96557" lon="0.8706">
        <ele>1312</ele>
        <time>2018-04-02T07:32:43.000Z</time>
      </trkpt>
      <trkpt lat="42.96556" lon="0.87058">
        <ele>1312</ele>
        <time>2018-04-02T07:32:45.000Z</time>
      </trkpt>
      <trkpt lat="42.96556" lon="0.87056">
        <ele>1312</ele>
        <time>2018-04-02T07:32:47.000Z</time>
      </trkpt>
      <trkpt lat="42.96556" lon="0.87054">
        <ele>1313</ele>
        <time>2018-04-02T07:32:49.000Z</time>
      </trkpt>
      <trkpt lat="42.96556" lon="0.87052">
        <ele>1313</ele>
        <time>2018-04-02T07:32:51.000Z</time>
      </trkpt>
      <trkpt lat="42.96556" lon="0.87051">
        <ele>1313</ele>
        <time>2018-04-02T07:32:53.000Z</time>
      </trkpt>
      <trkpt lat="42.96555" lon="0.87048">
        <ele>1313</ele>
        <time>2018-04-02T07:32:55.000Z</time>
      </trkpt>
      <trkpt lat="42.96555" lon="0.87045">
        <ele>1314</ele>
        <time>2018-04-02T07:32:57.000Z</time>
      </trkpt>
      <trkpt lat="42.96555" lon="0.87043">
        <ele>1314</ele>
        <time>2018-04-02T07:32:59.000Z</time>
      </trkpt>
      <trkpt lat="42.96555" lon="0.87042">
        <ele>1315</ele>
        <time>2018-04-02T07:33:01.000Z</time>
      </trkpt>
      <trkpt lat="42.96555" lon="0.8704">
        <ele>1315</ele>
        <time>2018-04-02T07:33:03.000Z</time>
      </trkpt>
      <trkpt lat="42.96556" lon="0.87037">
        <ele>1315</ele>
        <time>2018-04-02T07:33:05.000Z</time>
      </trkpt>
      <trkpt lat="42.96556" lon="0.87035">
        <ele>1315</ele>
        <time>2018-04-02T07:33:07.000Z</time>
      </trkpt>
      <trkpt lat="42.96556" lon="0.87033">
        <ele>1316</ele>
        <time>2018-04-02T07:33:09.000Z</time>
      </trkpt>
      <trkpt lat="42.96557" lon="0.8703">
        <ele>1316</ele>
        <time>2018-04-02T07:33:11.000Z</time>
      </trkpt>
      <trkpt lat="42.96557" lon="0.87028">
        <ele>1316</ele>
        <time>2018-04-02T07:33:13.000Z</time>
      </trkpt>
      <trkpt lat="42.96557" lon="0.87026">
        <ele>1317</ele>
        <time>2018-04-02T07:33:15.000Z</time>
      </trkpt>
      <trkpt lat="42.96558" lon="0.87024">
        <ele>1317</ele>
        <time>2018-04-02T07:33:17.000Z</time>
      </trkpt>
      <trkpt lat="42.96558" lon="0.87022">
        <ele>1317</ele>
        <time>2018-04-02T07:33:19.000Z</time>
      </trkpt>
      <trkpt lat="42.96556" lon="0.87019">
        <ele>1318</ele>
        <time>2018-04-02T07:33:21.000Z</time>
      </trkpt>
      <trkpt lat="42.96555" lon="0.87017">
        <ele>1318</ele>
        <time>2018-04-02T07:33:23.000Z</time>
      </trkpt>
      <trkpt lat="42.96553" lon="0.87015">
        <ele>1319</ele>
        <time>2018-04-02T07:33:25.000Z</time>
      </trkpt>
      <trkpt lat="42.96551" lon="0.87012">
        <ele>1320</ele>
        <time>2018-04-02T07:33:27.000Z</time>
      </trkpt>
      <trkpt lat="42.9655" lon="0.8701">
        <ele>1320</ele>
        <time>2018-04-02T07:33:29.000Z</time>
      </trkpt>
      <trkpt lat="42.9655" lon="0.87008">
        <ele>1320</ele>
        <time>2018-04-02T07:33:31.000Z</time>
      </trkpt>
      <trkpt lat="42.9655" lon="0.87007">
        <ele>1321</ele>
        <time>2018-04-02T07:33:33.000Z</time>
      </trkpt>
      <trkpt lat="42.96551" lon="0.87005">
        <ele>1321</ele>
        <time>2018-04-02T07:33:35.000Z</time>
      </trkpt>
      <trkpt lat="42.96551" lon="0.87004">
        <ele>1321</ele>
        <time>2018-04-02T07:33:37.000Z</time>
      </trkpt>
      <trkpt lat="42.96552" lon="0.87002">
        <ele>1321</ele>
        <time>2018-04-02T07:33:39.000Z</time>
      </trkpt>
      <trkpt lat="42.96552" lon="0.87001">
        <ele>1321</ele>
        <time>2018-04-02T07:33:41.000Z</time>
      </trkpt>
      <trkpt lat="42.96552" lon="0.86998">
        <ele>1321</ele>
        <time>2018-04-02T07:33:43.000Z</time>
      </trkpt>
      <trkpt lat="42.96552" lon="0.86997">
        <ele>1321</ele>
        <time>2018-04-02T07:33:45.000Z</time>
      </trkpt>
      <trkpt lat="42.96552" lon="0.86995">
        <ele>1322</ele>
        <time>2018-04-02T07:33:47.000Z</time>
      </trkpt>
      <trkpt lat="42.96553" lon="0.86994">
        <ele>1321</ele>
        <time>2018-04-02T07:33:49.000Z</time>
      </trkpt>
      <trkpt lat="42.96553" lon="0.86993">
        <ele>1321</ele>
        <time>2018-04-02T07:33:51.000Z</time>
      </trkpt>
      <trkpt lat="42.96555" lon="0.8699">
        <ele>1321</ele>
        <time>2018-04-02T07:33:53.000Z</time>
      </trkpt>
      <trkpt lat="42.96556" lon="0.86988">
        <ele>1321</ele>
        <time>2018-04-02T07:33:55.000Z</time>
      </trkpt>
      <trkpt lat="42.96556" lon="0.86987">
        <ele>1321</ele>
        <time>2018-04-02T07:33:57.000Z</time>
      </trkpt>
      <trkpt lat="42.96556" lon="0.86985">
        <ele>1321</ele>
        <time>2018-04-02T07:33:59.000Z</time>
      </trkpt>
      <trkpt lat="42.96554" lon="0.86984">
        <ele>1322</ele>
        <time>2018-04-02T07:34:01.000Z</time>
      </trkpt>
      <trkpt lat="42.96558" lon="0.86981">
        <ele>1321</ele>
        <time>2018-04-02T07:34:03.000Z</time>
      </trkpt>
      <trkpt lat="42.96562" lon="0.86979">
        <ele>1321</ele>
        <time>2018-04-02T07:34:05.000Z</time>
      </trkpt>
      <trkpt lat="42.96565" lon="0.86978">
        <ele>1320</ele>
        <time>2018-04-02T07:34:07.000Z</time>
      </trkpt>
      <trkpt lat="42.96567" lon="0.86976">
        <ele>1320</ele>
        <time>2018-04-02T07:34:09.000Z</time>
      </trkpt>
      <trkpt lat="42.96568" lon="0.86975">
        <ele>1320</ele>
        <time>2018-04-02T07:34:11.000Z</time>
      </trkpt>
      <trkpt lat="42.96571" lon="0.86973">
        <ele>1319</ele>
        <time>2018-04-02T07:34:13.000Z</time>
      </trkpt>
      <trkpt lat="42.96572" lon="0.86973">
        <ele>1319</ele>
        <time>2018-04-02T07:34:15.000Z</time>
      </trkpt>
      <trkpt lat="42.96573" lon="0.86972">
        <ele>1319</ele>
        <time>2018-04-02T07:34:17.000Z</time>
      </trkpt>
      <trkpt lat="42.96573" lon="0.86972">
        <ele>1319</ele>
        <time>2018-04-02T07:34:19.000Z</time>
      </trkpt>
      <trkpt lat="42.96574" lon="0.86972">
        <ele>1319</ele>
        <time>2018-04-02T07:34:21.000Z</time>
      </trkpt>
      <trkpt lat="42.96575" lon="0.86971">
        <ele>1318</ele>
        <time>2018-04-02T07:34:23.000Z</time>
      </trkpt>
      <trkpt lat="42.96577" lon="0.86972">
        <ele>1318</ele>
        <time>2018-04-02T07:34:25.000Z</time>
      </trkpt>
      <trkpt lat="42.96579" lon="0.86972">
        <ele>1317</ele>
        <time>2018-04-02T07:34:27.000Z</time>
      </trkpt>
      <trkpt lat="42.96582" lon="0.86973">
        <ele>1316</ele>
        <time>2018-04-02T07:34:29.000Z</time>
      </trkpt>
      <trkpt lat="42.96585" lon="0.86972">
        <ele>1316</ele>
        <time>2018-04-02T07:34:31.000Z</time>
      </trkpt>
      <trkpt lat="42.96586" lon="0.86971">
        <ele>1316</ele>
        <time>2018-04-02T07:34:33.000Z</time>
      </trkpt>
      <trkpt lat="42.96587" lon="0.86971">
        <ele>1315</ele>
        <time>2018-04-02T07:34:35.000Z</time>
      </trkpt>
      <trkpt lat="42.96588" lon="0.86969">
        <ele>1315</ele>
        <time>2018-04-02T07:34:37.000Z</time>
      </trkpt>
      <trkpt lat="42.96589" lon="0.86968">
        <ele>1315</ele>
        <time>2018-04-02T07:34:39.000Z</time>
      </trkpt>
      <trkpt lat="42.9659" lon="0.86966">
        <ele>1315</ele>
        <time>2018-04-02T07:34:41.000Z</time>
      </trkpt>
      <trkpt lat="42.9659" lon="0.86964">
        <ele>1315</ele>
        <time>2018-04-02T07:34:43.000Z</time>
      </trkpt>
      <trkpt lat="42.9659" lon="0.86962">
        <ele>1316</ele>
        <time>2018-04-02T07:34:45.000Z</time>
      </trkpt>
      <trkpt lat="42.9659" lon="0.8696">
        <ele>1316</ele>
        <time>2018-04-02T07:34:47.000Z</time>
      </trkpt>
      <trkpt lat="42.9659" lon="0.86958">
        <ele>1316</ele>
        <time>2018-04-02T07:34:49.000Z</time>
      </trkpt>
      <trkpt lat="42.96589" lon="0.86957">
        <ele>1317</ele>
        <time>2018-04-02T07:34:51.000Z</time>
      </trkpt>
      <trkpt lat="42.96589" lon="0.86956">
        <ele>1317</ele>
        <time>2018-04-02T07:34:53.000Z</time>
      </trkpt>
      <trkpt lat="42.96589" lon="0.86954">
        <ele>1317</ele>
        <time>2018-04-02T07:34:55.000Z</time>
      </trkpt>
      <trkpt lat="42.96589" lon="0.86952">
        <ele>1317</ele>
        <time>2018-04-02T07:34:57.000Z</time>
      </trkpt>
      <trkpt lat="42.96588" lon="0.8695">
        <ele>1318</ele>
        <time>2018-04-02T07:34:59.000Z</time>
      </trkpt>
      <trkpt lat="42.96588" lon="0.86948">
        <ele>1318</ele>
        <time>2018-04-02T07:35:01.000Z</time>
      </trkpt>
      <trkpt lat="42.96587" lon="0.86946">
        <ele>1319</ele>
        <time>2018-04-02T07:35:03.000Z</time>
      </trkpt>
      <trkpt lat="42.96587" lon="0.86944">
        <ele>1319</ele>
        <time>2018-04-02T07:35:05.000Z</time>
      </trkpt>
      <trkpt lat="42.96587" lon="0.86943">
        <ele>1319</ele>
        <time>2018-04-02T07:35:07.000Z</time>
      </trkpt>
      <trkpt lat="42.96587" lon="0.86941">
        <ele>1319</ele>
        <time>2018-04-02T07:35:09.000Z</time>
      </trkpt>
      <trkpt lat="42.96587" lon="0.8694">
        <ele>1319</ele>
        <time>2018-04-02T07:35:11.000Z</time>
      </trkpt>
      <trkpt lat="42.96587" lon="0.86939">
        <ele>1319</ele>
        <time>2018-04-02T07:35:13.000Z</time>
      </trkpt>
      <trkpt lat="42.96587" lon="0.86937">
        <ele>1320</ele>
        <time>2018-04-02T07:35:15.000Z</time>
      </trkpt>
      <trkpt lat="42.96587" lon="0.86935">
        <ele>1320</ele>
        <time>2018-04-02T07:35:17.000Z</time>
      </trkpt>
      <trkpt lat="42.96588" lon="0.86934">
        <ele>1320</ele>
        <time>2018-04-02T07:35:19.000Z</time>
      </trkpt>
      <trkpt lat="42.96588" lon="0.86932">
        <ele>1320</ele>
        <time>2018-04-02T07:35:21.000Z</time>
      </trkpt>
      <trkpt lat="42.96588" lon="0.86931">
        <ele>1320</ele>
        <time>2018-04-02T07:35:23.000Z</time>
      </trkpt>
      <trkpt lat="42.96588" lon="0.86929">
        <ele>1320</ele>
        <time>2018-04-02T07:35:25.000Z</time>
      </trkpt>
      <trkpt lat="42.96588" lon="0.86927">
        <ele>1321</ele>
        <time>2018-04-02T07:35:27.000Z</time>
      </trkpt>
      <trkpt lat="42.96587" lon="0.86925">
        <ele>1321</ele>
        <time>2018-04-02T07:35:29.000Z</time>
      </trkpt>
      <trkpt lat="42.96587" lon="0.86924">
        <ele>1321</ele>
        <time>2018-04-02T07:35:31.000Z</time>
      </trkpt>
      <trkpt lat="42.96586" lon="0.86922">
        <ele>1322</ele>
        <time>2018-04-02T07:35:33.000Z</time>
      </trkpt>
      <trkpt lat="42.96585" lon="0.86921">
        <ele>1322</ele>
        <time>2018-04-02T07:35:35.000Z</time>
      </trkpt>
      <trkpt lat="42.96585" lon="0.86919">
        <ele>1322</ele>
        <time>2018-04-02T07:35:37.000Z</time>
      </trkpt>
      <trkpt lat="42.96584" lon="0.86918">
        <ele>1323</ele>
        <time>2018-04-02T07:35:39.000Z</time>
      </trkpt>
      <trkpt lat="42.96583" lon="0.86916">
        <ele>1323</ele>
        <time>2018-04-02T07:35:41.000Z</time>
      </trkpt>
      <trkpt lat="42.96583" lon="0.86914">
        <ele>1324</ele>
        <time>2018-04-02T07:35:43.000Z</time>
      </trkpt>
      <trkpt lat="42.96582" lon="0.86913">
        <ele>1324</ele>
        <time>2018-04-02T07:35:45.000Z</time>
      </trkpt>
      <trkpt lat="42.96582" lon="0.86911">
        <ele>1325</ele>
        <time>2018-04-02T07:35:47.000Z</time>
      </trkpt>
      <trkpt lat="42.9658" lon="0.86909">
        <ele>1325</ele>
        <time>2018-04-02T07:35:49.000Z</time>
      </trkpt>
      <trkpt lat="42.9658" lon="0.86907">
        <ele>1326</ele>
        <time>2018-04-02T07:35:51.000Z</time>
      </trkpt>
      <trkpt lat="42.96581" lon="0.86905">
        <ele>1325</ele>
        <time>2018-04-02T07:35:53.000Z</time>
      </trkpt>
      <trkpt lat="42.96582" lon="0.86903">
        <ele>1325</ele>
        <time>2018-04-02T07:35:55.000Z</time>
      </trkpt>
      <trkpt lat="42.96583" lon="0.86901">
        <ele>1325</ele>
        <time>2018-04-02T07:35:57.000Z</time>
      </trkpt>
      <trkpt lat="42.96583" lon="0.869">
        <ele>1325</ele>
        <time>2018-04-02T07:35:59.000Z</time>
      </trkpt>
      <trkpt lat="42.96584" lon="0.86899">
        <ele>1325</ele>
        <time>2018-04-02T07:36:01.000Z</time>
      </trkpt>
      <trkpt lat="42.96584" lon="0.86898">
        <ele>1325</ele>
        <time>2018-04-02T07:36:03.000Z</time>
      </trkpt>
      <trkpt lat="42.96583" lon="0.86897">
        <ele>1326</ele>
        <time>2018-04-02T07:36:05.000Z</time>
      </trkpt>
      <trkpt lat="42.96583" lon="0.86896">
        <ele>1326</ele>
        <time>2018-04-02T07:36:07.000Z</time>
      </trkpt>
      <trkpt lat="42.96583" lon="0.86895">
        <ele>1326</ele>
        <time>2018-04-02T07:36:09.000Z</time>
      </trkpt>
      <trkpt lat="42.96583" lon="0.86894">
        <ele>1326</ele>
        <time>2018-04-02T07:36:11.000Z</time>
      </trkpt>
      <trkpt lat="42.96583" lon="0.86892">
        <ele>1326</ele>
        <time>2018-04-02T07:36:13.000Z</time>
      </trkpt>
      <trkpt lat="42.96582" lon="0.86892">
        <ele>1327</ele>
        <time>2018-04-02T07:36:15.000Z</time>
      </trkpt>
      <trkpt lat="42.96581" lon="0.8689">
        <ele>1327</ele>
        <time>2018-04-02T07:36:17.000Z</time>
      </trkpt>
      <trkpt lat="42.96581" lon="0.86889">
        <ele>1327</ele>
        <time>2018-04-02T07:36:19.000Z</time>
      </trkpt>
      <trkpt lat="42.9658" lon="0.86889">
        <ele>1328</ele>
        <time>2018-04-02T07:36:21.000Z</time>
      </trkpt>
      <trkpt lat="42.96579" lon="0.86888">
        <ele>1328</ele>
        <time>2018-04-02T07:36:23.000Z</time>
      </trkpt>
      <trkpt lat="42.96578" lon="0.86887">
        <ele>1328</ele>
        <time>2018-04-02T07:36:25.000Z</time>
      </trkpt>
      <trkpt lat="42.96577" lon="0.86885">
        <ele>1329</ele>
        <time>2018-04-02T07:36:27.000Z</time>
      </trkpt>
      <trkpt lat="42.96576" lon="0.86885">
        <ele>1329</ele>
        <time>2018-04-02T07:36:29.000Z</time>
      </trkpt>
      <trkpt lat="42.96577" lon="0.86883">
        <ele>1329</ele>
        <time>2018-04-02T07:36:31.000Z</time>
      </trkpt>
      <trkpt lat="42.96579" lon="0.86881">
        <ele>1329</ele>
        <time>2018-04-02T07:36:33.000Z</time>
      </trkpt>
      <trkpt lat="42.96579" lon="0.86879">
        <ele>1329</ele>
        <time>2018-04-02T07:36:35.000Z</time>
      </trkpt>
      <trkpt lat="42.96579" lon="0.86877">
        <ele>1329</ele>
        <time>2018-04-02T07:36:37.000Z</time>
      </trkpt>
      <trkpt lat="42.96578" lon="0.86875">
        <ele>1329</ele>
        <time>2018-04-02T07:36:39.000Z</time>
      </trkpt>
      <trkpt lat="42.96576" lon="0.86873">
        <ele>1330</ele>
        <time>2018-04-02T07:36:41.000Z</time>
      </trkpt>
      <trkpt lat="42.96575" lon="0.86871">
        <ele>1330</ele>
        <time>2018-04-02T07:36:43.000Z</time>
      </trkpt>
      <trkpt lat="42.96575" lon="0.86868">
        <ele>1330</ele>
        <time>2018-04-02T07:36:45.000Z</time>
      </trkpt>
      <trkpt lat="42.96576" lon="0.86866">
        <ele>1330</ele>
        <time>2018-04-02T07:36:47.000Z</time>
      </trkpt>
      <trkpt lat="42.96576" lon="0.86864">
        <ele>1330</ele>
        <time>2018-04-02T07:36:49.000Z</time>
      </trkpt>
      <trkpt lat="42.96576" lon="0.86861">
        <ele>1331</ele>
        <time>2018-04-02T07:36:51.000Z</time>
      </trkpt>
      <trkpt lat="42.96575" lon="0.86858">
        <ele>1331</ele>
        <time>2018-04-02T07:36:53.000Z</time>
      </trkpt>
      <trkpt lat="42.96575" lon="0.86856">
        <ele>1331</ele>
        <time>2018-04-02T07:36:55.000Z</time>
      </trkpt>
      <trkpt lat="42.96574" lon="0.86854">
        <ele>1332</ele>
        <time>2018-04-02T07:36:57.000Z</time>
      </trkpt>
      <trkpt lat="42.96572" lon="0.86852">
        <ele>1332</ele>
        <time>2018-04-02T07:36:59.000Z</time>
      </trkpt>
      <trkpt lat="42.96571" lon="0.8685">
        <ele>1333</ele>
        <time>2018-04-02T07:37:01.000Z</time>
      </trkpt>
      <trkpt lat="42.96572" lon="0.86848">
        <ele>1333</ele>
        <time>2018-04-02T07:37:03.000Z</time>
      </trkpt>
      <trkpt lat="42.96572" lon="0.86846">
        <ele>1333</ele>
        <time>2018-04-02T07:37:05.000Z</time>
      </trkpt>
      <trkpt lat="42.9657" lon="0.86844">
        <ele>1334</ele>
        <time>2018-04-02T07:37:07.000Z</time>
      </trkpt>
      <trkpt lat="42.96569" lon="0.86842">
        <ele>1334</ele>
        <time>2018-04-02T07:37:09.000Z</time>
      </trkpt>
      <trkpt lat="42.96568" lon="0.8684">
        <ele>1334</ele>
        <time>2018-04-02T07:37:11.000Z</time>
      </trkpt>
      <trkpt lat="42.96568" lon="0.86838">
        <ele>1335</ele>
        <time>2018-04-02T07:37:13.000Z</time>
      </trkpt>
      <trkpt lat="42.96566" lon="0.86837">
        <ele>1335</ele>
        <time>2018-04-02T07:37:15.000Z</time>
      </trkpt>
      <trkpt lat="42.96566" lon="0.86836">
        <ele>1335</ele>
        <time>2018-04-02T07:37:17.000Z</time>
      </trkpt>
      <trkpt lat="42.96566" lon="0.86834">
        <ele>1336</ele>
        <time>2018-04-02T07:37:19.000Z</time>
      </trkpt>
      <trkpt lat="42.96566" lon="0.86832">
        <ele>1335</ele>
        <time>2018-04-02T07:37:21.000Z</time>
      </trkpt>
      <trkpt lat="42.96568" lon="0.86829">
        <ele>1335</ele>
        <time>2018-04-02T07:37:23.000Z</time>
      </trkpt>
      <trkpt lat="42.96569" lon="0.86828">
        <ele>1335</ele>
        <time>2018-04-02T07:37:25.000Z</time>
      </trkpt>
      <trkpt lat="42.96569" lon="0.86826">
        <ele>1335</ele>
        <time>2018-04-02T07:37:27.000Z</time>
      </trkpt>
      <trkpt lat="42.96568" lon="0.86825">
        <ele>1335</ele>
        <time>2018-04-02T07:37:29.000Z</time>
      </trkpt>
      <trkpt lat="42.96568" lon="0.86825">
        <ele>1335</ele>
        <time>2018-04-02T07:37:31.000Z</time>
      </trkpt>
      <trkpt lat="42.96566" lon="0.86823">
        <ele>1336</ele>
        <time>2018-04-02T07:37:33.000Z</time>
      </trkpt>
      <trkpt lat="42.96566" lon="0.86822">
        <ele>1336</ele>
        <time>2018-04-02T07:37:35.000Z</time>
      </trkpt>
      <trkpt lat="42.96564" lon="0.86821">
        <ele>1337</ele>
        <time>2018-04-02T07:37:37.000Z</time>
      </trkpt>
      <trkpt lat="42.96563" lon="0.86819">
        <ele>1337</ele>
        <time>2018-04-02T07:37:39.000Z</time>
      </trkpt>
      <trkpt lat="42.96564" lon="0.86817">
        <ele>1337</ele>
        <time>2018-04-02T07:37:41.000Z</time>
      </trkpt>
      <trkpt lat="42.96566" lon="0.86815">
        <ele>1336</ele>
        <time>2018-04-02T07:37:43.000Z</time>
      </trkpt>
      <trkpt lat="42.96567" lon="0.86813">
        <ele>1336</ele>
        <time>2018-04-02T07:37:45.000Z</time>
      </trkpt>
      <trkpt lat="42.96567" lon="0.8681">
        <ele>1336</ele>
        <time>2018-04-02T07:37:47.000Z</time>
      </trkpt>
      <trkpt lat="42.96569" lon="0.86808">
        <ele>1336</ele>
        <time>2018-04-02T07:37:49.000Z</time>
      </trkpt>
      <trkpt lat="42.96569" lon="0.86807">
        <ele>1336</ele>
        <time>2018-04-02T07:37:51.000Z</time>
      </trkpt>
      <trkpt lat="42.96568" lon="0.86806">
        <ele>1336</ele>
        <time>2018-04-02T07:37:53.000Z</time>
      </trkpt>
      <trkpt lat="42.96568" lon="0.86804">
        <ele>1336</ele>
        <time>2018-04-02T07:37:55.000Z</time>
      </trkpt>
      <trkpt lat="42.96567" lon="0.86803">
        <ele>1336</ele>
        <time>2018-04-02T07:37:57.000Z</time>
      </trkpt>
      <trkpt lat="42.96567" lon="0.86802">
        <ele>1336</ele>
        <time>2018-04-02T07:37:59.000Z</time>
      </trkpt>
      <trkpt lat="42.96565" lon="0.86801">
        <ele>1337</ele>
        <time>2018-04-02T07:38:01.000Z</time>
      </trkpt>
      <trkpt lat="42.96564" lon="0.868">
        <ele>1337</ele>
        <time>2018-04-02T07:38:03.000Z</time>
      </trkpt>
      <trkpt lat="42.96563" lon="0.86798">
        <ele>1338</ele>
        <time>2018-04-02T07:38:05.000Z</time>
      </trkpt>
      <trkpt lat="42.96561" lon="0.86797">
        <ele>1338</ele>
        <time>2018-04-02T07:38:07.000Z</time>
      </trkpt>
      <trkpt lat="42.96561" lon="0.86797">
        <ele>1338</ele>
        <time>2018-04-02T07:38:09.000Z</time>
      </trkpt>
      <trkpt lat="42.9656" lon="0.86797">
        <ele>1339</ele>
        <time>2018-04-02T07:38:11.000Z</time>
      </trkpt>
      <trkpt lat="42.96559" lon="0.86795">
        <ele>1339</ele>
        <time>2018-04-02T07:38:13.000Z</time>
      </trkpt>
      <trkpt lat="42.96559" lon="0.86794">
        <ele>1339</ele>
        <time>2018-04-02T07:38:15.000Z</time>
      </trkpt>
      <trkpt lat="42.96557" lon="0.86793">
        <ele>1339</ele>
        <time>2018-04-02T07:38:17.000Z</time>
      </trkpt>
      <trkpt lat="42.96556" lon="0.86791">
        <ele>1339</ele>
        <time>2018-04-02T07:38:19.000Z</time>
      </trkpt>
      <trkpt lat="42.96556" lon="0.8679">
        <ele>1339</ele>
        <time>2018-04-02T07:38:21.000Z</time>
      </trkpt>
      <trkpt lat="42.96554" lon="0.86788">
        <ele>1340</ele>
        <time>2018-04-02T07:38:23.000Z</time>
      </trkpt>
      <trkpt lat="42.96553" lon="0.86786">
        <ele>1340</ele>
        <time>2018-04-02T07:38:25.000Z</time>
      </trkpt>
      <trkpt lat="42.96553" lon="0.86784">
        <ele>1340</ele>
        <time>2018-04-02T07:38:27.000Z</time>
      </trkpt>
      <trkpt lat="42.96552" lon="0.86782">
        <ele>1341</ele>
        <time>2018-04-02T07:38:29.000Z</time>
      </trkpt>
      <trkpt lat="42.96551" lon="0.8678">
        <ele>1341</ele>
        <time>2018-04-02T07:38:31.000Z</time>
      </trkpt>
      <trkpt lat="42.96551" lon="0.86778">
        <ele>1341</ele>
        <time>2018-04-02T07:38:33.000Z</time>
      </trkpt>
      <trkpt lat="42.9655" lon="0.86776">
        <ele>1341</ele>
        <time>2018-04-02T07:38:35.000Z</time>
      </trkpt>
      <trkpt lat="42.96549" lon="0.86775">
        <ele>1341</ele>
        <time>2018-04-02T07:38:37.000Z</time>
      </trkpt>
      <trkpt lat="42.96549" lon="0.86773">
        <ele>1341</ele>
        <time>2018-04-02T07:38:39.000Z</time>
      </trkpt>
      <trkpt lat="42.96548" lon="0.86771">
        <ele>1341</ele>
        <time>2018-04-02T07:38:41.000Z</time>
      </trkpt>
      <trkpt lat="42.96547" lon="0.8677">
        <ele>1342</ele>
        <time>2018-04-02T07:38:43.000Z</time>
      </trkpt>
      <trkpt lat="42.96546" lon="0.86769">
        <ele>1342</ele>
        <time>2018-04-02T07:38:45.000Z</time>
      </trkpt>
      <trkpt lat="42.96547" lon="0.86767">
        <ele>1342</ele>
        <time>2018-04-02T07:38:47.000Z</time>
      </trkpt>
      <trkpt lat="42.96547" lon="0.86764">
        <ele>1341</ele>
        <time>2018-04-02T07:38:49.000Z</time>
      </trkpt>
      <trkpt lat="42.96547" lon="0.86762">
        <ele>1341</ele>
        <time>2018-04-02T07:38:51.000Z</time>
      </trkpt>
      <trkpt lat="42.96545" lon="0.86759">
        <ele>1342</ele>
        <time>2018-04-02T07:38:53.000Z</time>
      </trkpt>
      <trkpt lat="42.96545" lon="0.86757">
        <ele>1342</ele>
        <time>2018-04-02T07:38:55.000Z</time>
      </trkpt>
      <trkpt lat="42.96544" lon="0.86755">
        <ele>1342</ele>
        <time>2018-04-02T07:38:57.000Z</time>
      </trkpt>
      <trkpt lat="42.96544" lon="0.86754">
        <ele>1342</ele>
        <time>2018-04-02T07:38:59.000Z</time>
      </trkpt>
      <trkpt lat="42.96544" lon="0.86752">
        <ele>1342</ele>
        <time>2018-04-02T07:39:01.000Z</time>
      </trkpt>
      <trkpt lat="42.96544" lon="0.8675">
        <ele>1342</ele>
        <time>2018-04-02T07:39:03.000Z</time>
      </trkpt>
      <trkpt lat="42.96545" lon="0.86748">
        <ele>1342</ele>
        <time>2018-04-02T07:39:05.000Z</time>
      </trkpt>
      <trkpt lat="42.96546" lon="0.86747">
        <ele>1341</ele>
        <time>2018-04-02T07:39:07.000Z</time>
      </trkpt>
      <trkpt lat="42.96546" lon="0.86745">
        <ele>1341</ele>
        <time>2018-04-02T07:39:09.000Z</time>
      </trkpt>
      <trkpt lat="42.96546" lon="0.86744">
        <ele>1341</ele>
        <time>2018-04-02T07:39:11.000Z</time>
      </trkpt>
      <trkpt lat="42.96546" lon="0.86742">
        <ele>1341</ele>
        <time>2018-04-02T07:39:13.000Z</time>
      </trkpt>
      <trkpt lat="42.96546" lon="0.86741">
        <ele>1341</ele>
        <time>2018-04-02T07:39:15.000Z</time>
      </trkpt>
      <trkpt lat="42.96546" lon="0.86738">
        <ele>1341</ele>
        <time>2018-04-02T07:39:17.000Z</time>
      </trkpt>
      <trkpt lat="42.96545" lon="0.86737">
        <ele>1342</ele>
        <time>2018-04-02T07:39:19.000Z</time>
      </trkpt>
      <trkpt lat="42.96544" lon="0.86737">
        <ele>1342</ele>
        <time>2018-04-02T07:39:21.000Z</time>
      </trkpt>
      <trkpt lat="42.96542" lon="0.86736">
        <ele>1342</ele>
        <time>2018-04-02T07:39:23.000Z</time>
      </trkpt>
      <trkpt lat="42.96541" lon="0.86736">
        <ele>1343</ele>
        <time>2018-04-02T07:39:25.000Z</time>
      </trkpt>
      <trkpt lat="42.96539" lon="0.86737">
        <ele>1343</ele>
        <time>2018-04-02T07:39:27.000Z</time>
      </trkpt>
      <trkpt lat="42.96539" lon="0.86736">
        <ele>1344</ele>
        <time>2018-04-02T07:39:29.000Z</time>
      </trkpt>
      <trkpt lat="42.96538" lon="0.86736">
        <ele>1344</ele>
        <time>2018-04-02T07:39:31.000Z</time>
      </trkpt>
      <trkpt lat="42.96539" lon="0.86735">
        <ele>1343</ele>
        <time>2018-04-02T07:39:33.000Z</time>
      </trkpt>
      <trkpt lat="42.96538" lon="0.86734">
        <ele>1344</ele>
        <time>2018-04-02T07:39:35.000Z</time>
      </trkpt>
      <trkpt lat="42.96537" lon="0.86734">
        <ele>1344</ele>
        <time>2018-04-02T07:39:37.000Z</time>
      </trkpt>
      <trkpt lat="42.96535" lon="0.86734">
        <ele>1345</ele>
        <time>2018-04-02T07:39:39.000Z</time>
      </trkpt>
      <trkpt lat="42.96534" lon="0.86732">
        <ele>1345</ele>
        <time>2018-04-02T07:39:41.000Z</time>
      </trkpt>
      <trkpt lat="42.96533" lon="0.86731">
        <ele>1345</ele>
        <time>2018-04-02T07:39:43.000Z</time>
      </trkpt>
      <trkpt lat="42.96533" lon="0.8673">
        <ele>1345</ele>
        <time>2018-04-02T07:39:45.000Z</time>
      </trkpt>
      <trkpt lat="42.96532" lon="0.86729">
        <ele>1345</ele>
        <time>2018-04-02T07:39:47.000Z</time>
      </trkpt>
      <trkpt lat="42.96533" lon="0.86729">
        <ele>1345</ele>
        <time>2018-04-02T07:39:49.000Z</time>
      </trkpt>
      <trkpt lat="42.96535" lon="0.86728">
        <ele>1345</ele>
        <time>2018-04-02T07:39:51.000Z</time>
      </trkpt>
      <trkpt lat="42.96535" lon="0.86727">
        <ele>1345</ele>
        <time>2018-04-02T07:39:53.000Z</time>
      </trkpt>
      <trkpt lat="42.96534" lon="0.86726">
        <ele>1345</ele>
        <time>2018-04-02T07:39:55.000Z</time>
      </trkpt>
      <trkpt lat="42.96533" lon="0.86725">
        <ele>1345</ele>
        <time>2018-04-02T07:39:57.000Z</time>
      </trkpt>
      <trkpt lat="42.96531" lon="0.86724">
        <ele>1346</ele>
        <time>2018-04-02T07:39:59.000Z</time>
      </trkpt>
      <trkpt lat="42.96529" lon="0.86724">
        <ele>1346</ele>
        <time>2018-04-02T07:40:01.000Z</time>
      </trkpt>
      <trkpt lat="42.96527" lon="0.86724">
        <ele>1347</ele>
        <time>2018-04-02T07:40:03.000Z</time>
      </trkpt>
      <trkpt lat="42.96526" lon="0.86724">
        <ele>1347</ele>
        <time>2018-04-02T07:40:05.000Z</time>
      </trkpt>
      <trkpt lat="42.96524" lon="0.86724">
        <ele>1348</ele>
        <time>2018-04-02T07:40:07.000Z</time>
      </trkpt>
      <trkpt lat="42.96522" lon="0.86723">
        <ele>1348</ele>
        <time>2018-04-02T07:40:09.000Z</time>
      </trkpt>
      <trkpt lat="42.9652" lon="0.86723">
        <ele>1349</ele>
        <time>2018-04-02T07:40:11.000Z</time>
      </trkpt>
      <trkpt lat="42.96519" lon="0.86721">
        <ele>1349</ele>
        <time>2018-04-02T07:40:13.000Z</time>
      </trkpt>
      <trkpt lat="42.96518" lon="0.86721">
        <ele>1350</ele>
        <time>2018-04-02T07:40:15.000Z</time>
      </trkpt>
      <trkpt lat="42.96517" lon="0.86719">
        <ele>1350</ele>
        <time>2018-04-02T07:40:17.000Z</time>
      </trkpt>
      <trkpt lat="42.96517" lon="0.86718">
        <ele>1350</ele>
        <time>2018-04-02T07:40:19.000Z</time>
      </trkpt>
      <trkpt lat="42.96517" lon="0.86717">
        <ele>1350</ele>
        <time>2018-04-02T07:40:21.000Z</time>
      </trkpt>
      <trkpt lat="42.96516" lon="0.86717">
        <ele>1350</ele>
        <time>2018-04-02T07:40:23.000Z</time>
      </trkpt>
      <trkpt lat="42.96515" lon="0.86717">
        <ele>1350</ele>
        <time>2018-04-02T07:40:25.000Z</time>
      </trkpt>
      <trkpt lat="42.96514" lon="0.86716">
        <ele>1350</ele>
        <time>2018-04-02T07:40:27.000Z</time>
      </trkpt>
      <trkpt lat="42.96513" lon="0.86714">
        <ele>1350</ele>
        <time>2018-04-02T07:40:29.000Z</time>
      </trkpt>
      <trkpt lat="42.96512" lon="0.86713">
        <ele>1351</ele>
        <time>2018-04-02T07:40:31.000Z</time>
      </trkpt>
      <trkpt lat="42.96511" lon="0.86712">
        <ele>1351</ele>
        <time>2018-04-02T07:40:33.000Z</time>
      </trkpt>
      <trkpt lat="42.9651" lon="0.86711">
        <ele>1351</ele>
        <time>2018-04-02T07:40:35.000Z</time>
      </trkpt>
      <trkpt lat="42.96509" lon="0.8671">
        <ele>1351</ele>
        <time>2018-04-02T07:40:37.000Z</time>
      </trkpt>
      <trkpt lat="42.96507" lon="0.86709">
        <ele>1352</ele>
        <time>2018-04-02T07:40:39.000Z</time>
      </trkpt>
      <trkpt lat="42.96505" lon="0.86707">
        <ele>1352</ele>
        <time>2018-04-02T07:40:41.000Z</time>
      </trkpt>
      <trkpt lat="42.96503" lon="0.86706">
        <ele>1353</ele>
        <time>2018-04-02T07:40:43.000Z</time>
      </trkpt>
      <trkpt lat="42.96502" lon="0.86703">
        <ele>1353</ele>
        <time>2018-04-02T07:40:45.000Z</time>
      </trkpt>
      <trkpt lat="42.96502" lon="0.867">
        <ele>1353</ele>
        <time>2018-04-02T07:40:47.000Z</time>
      </trkpt>
      <trkpt lat="42.96502" lon="0.86697">
        <ele>1352</ele>
        <time>2018-04-02T07:40:49.000Z</time>
      </trkpt>
      <trkpt lat="42.96503" lon="0.86694">
        <ele>1352</ele>
        <time>2018-04-02T07:40:51.000Z</time>
      </trkpt>
      <trkpt lat="42.96503" lon="0.86692">
        <ele>1351</ele>
        <time>2018-04-02T07:40:53.000Z</time>
      </trkpt>
      <trkpt lat="42.96503" lon="0.8669">
        <ele>1351</ele>
        <time>2018-04-02T07:40:55.000Z</time>
      </trkpt>
      <trkpt lat="42.96502" lon="0.86688">
        <ele>1351</ele>
        <time>2018-04-02T07:40:57.000Z</time>
      </trkpt>
      <trkpt lat="42.96501" lon="0.86686">
        <ele>1351</ele>
        <time>2018-04-02T07:40:59.000Z</time>
      </trkpt>
      <trkpt lat="42.965" lon="0.86683">
        <ele>1351</ele>
        <time>2018-04-02T07:41:01.000Z</time>
      </trkpt>
      <trkpt lat="42.965" lon="0.86682">
        <ele>1351</ele>
        <time>2018-04-02T07:41:03.000Z</time>
      </trkpt>
      <trkpt lat="42.96499" lon="0.86679">
        <ele>1352</ele>
        <time>2018-04-02T07:41:05.000Z</time>
      </trkpt>
      <trkpt lat="42.96499" lon="0.86677">
        <ele>1351</ele>
        <time>2018-04-02T07:41:07.000Z</time>
      </trkpt>
      <trkpt lat="42.96499" lon="0.86676">
        <ele>1351</ele>
        <time>2018-04-02T07:41:09.000Z</time>
      </trkpt>
      <trkpt lat="42.96499" lon="0.86673">
        <ele>1351</ele>
        <time>2018-04-02T07:41:11.000Z</time>
      </trkpt>
      <trkpt lat="42.96499" lon="0.86672">
        <ele>1351</ele>
        <time>2018-04-02T07:41:13.000Z</time>
      </trkpt>
      <trkpt lat="42.96499" lon="0.8667">
        <ele>1350</ele>
        <time>2018-04-02T07:41:15.000Z</time>
      </trkpt>
      <trkpt lat="42.96499" lon="0.86668">
        <ele>1350</ele>
        <time>2018-04-02T07:41:17.000Z</time>
      </trkpt>
      <trkpt lat="42.96499" lon="0.86667">
        <ele>1350</ele>
        <time>2018-04-02T07:41:19.000Z</time>
      </trkpt>
      <trkpt lat="42.96498" lon="0.86665">
        <ele>1350</ele>
        <time>2018-04-02T07:41:21.000Z</time>
      </trkpt>
      <trkpt lat="42.96498" lon="0.86663">
        <ele>1350</ele>
        <time>2018-04-02T07:41:23.000Z</time>
      </trkpt>
      <trkpt lat="42.96497" lon="0.86661">
        <ele>1350</ele>
        <time>2018-04-02T07:41:25.000Z</time>
      </trkpt>
      <trkpt lat="42.96496" lon="0.8666">
        <ele>1350</ele>
        <time>2018-04-02T07:41:27.000Z</time>
      </trkpt>
      <trkpt lat="42.96496" lon="0.86659">
        <ele>1351</ele>
        <time>2018-04-02T07:41:29.000Z</time>
      </trkpt>
      <trkpt lat="42.96494" lon="0.86658">
        <ele>1351</ele>
        <time>2018-04-02T07:41:31.000Z</time>
      </trkpt>
      <trkpt lat="42.96494" lon="0.86657">
        <ele>1351</ele>
        <time>2018-04-02T07:41:33.000Z</time>
      </trkpt>
      <trkpt lat="42.96494" lon="0.86654">
        <ele>1351</ele>
        <time>2018-04-02T07:41:35.000Z</time>
      </trkpt>
      <trkpt lat="42.96492" lon="0.86653">
        <ele>1351</ele>
        <time>2018-04-02T07:41:37.000Z</time>
      </trkpt>
      <trkpt lat="42.96491" lon="0.86652">
        <ele>1351</ele>
        <time>2018-04-02T07:41:39.000Z</time>
      </trkpt>
      <trkpt lat="42.96491" lon="0.8665">
        <ele>1351</ele>
        <time>2018-04-02T07:41:41.000Z</time>
      </trkpt>
      <trkpt lat="42.96489" lon="0.8665">
        <ele>1352</ele>
        <time>2018-04-02T07:41:43.000Z</time>
      </trkpt>
      <trkpt lat="42.96487" lon="0.86649">
        <ele>1352</ele>
        <time>2018-04-02T07:41:45.000Z</time>
      </trkpt>
      <trkpt lat="42.96486" lon="0.86648">
        <ele>1353</ele>
        <time>2018-04-02T07:41:47.000Z</time>
      </trkpt>
      <trkpt lat="42.96485" lon="0.86646">
        <ele>1353</ele>
        <time>2018-04-02T07:41:49.000Z</time>
      </trkpt>
      <trkpt lat="42.96483" lon="0.86645">
        <ele>1353</ele>
        <time>2018-04-02T07:41:51.000Z</time>
      </trkpt>
      <trkpt lat="42.96482" lon="0.86644">
        <ele>1354</ele>
        <time>2018-04-02T07:41:53.000Z</time>
      </trkpt>
      <trkpt lat="42.9648" lon="0.86642">
        <ele>1354</ele>
        <time>2018-04-02T07:41:55.000Z</time>
      </trkpt>
      <trkpt lat="42.9648" lon="0.86641">
        <ele>1354</ele>
        <time>2018-04-02T07:41:57.000Z</time>
      </trkpt>
      <trkpt lat="42.96479" lon="0.86639">
        <ele>1354</ele>
        <time>2018-04-02T07:41:59.000Z</time>
      </trkpt>
      <trkpt lat="42.96478" lon="0.86637">
        <ele>1354</ele>
        <time>2018-04-02T07:42:01.000Z</time>
      </trkpt>
      <trkpt lat="42.96479" lon="0.86634">
        <ele>1354</ele>
        <time>2018-04-02T07:42:03.000Z</time>
      </trkpt>
      <trkpt lat="42.96476" lon="0.86634">
        <ele>1355</ele>
        <time>2018-04-02T07:42:05.000Z</time>
      </trkpt>
      <trkpt lat="42.96474" lon="0.86633">
        <ele>1355</ele>
        <time>2018-04-02T07:42:07.000Z</time>
      </trkpt>
      <trkpt lat="42.96474" lon="0.86631">
        <ele>1356</ele>
        <time>2018-04-02T07:42:09.000Z</time>
      </trkpt>
      <trkpt lat="42.96472" lon="0.86628">
        <ele>1356</ele>
        <time>2018-04-02T07:42:11.000Z</time>
      </trkpt>
      <trkpt lat="42.9647" lon="0.86628">
        <ele>1357</ele>
        <time>2018-04-02T07:42:13.000Z</time>
      </trkpt>
      <trkpt lat="42.96469" lon="0.86627">
        <ele>1357</ele>
        <time>2018-04-02T07:42:15.000Z</time>
      </trkpt>
      <trkpt lat="42.96469" lon="0.86625">
        <ele>1357</ele>
        <time>2018-04-02T07:42:17.000Z</time>
      </trkpt>
      <trkpt lat="42.96467" lon="0.86623">
        <ele>1357</ele>
        <time>2018-04-02T07:42:19.000Z</time>
      </trkpt>
      <trkpt lat="42.96466" lon="0.86621">
        <ele>1358</ele>
        <time>2018-04-02T07:42:21.000Z</time>
      </trkpt>
      <trkpt lat="42.96466" lon="0.8662">
        <ele>1357</ele>
        <time>2018-04-02T07:42:23.000Z</time>
      </trkpt>
      <trkpt lat="42.96466" lon="0.86617">
        <ele>1357</ele>
        <time>2018-04-02T07:42:25.000Z</time>
      </trkpt>
      <trkpt lat="42.96465" lon="0.86614">
        <ele>1357</ele>
        <time>2018-04-02T07:42:27.000Z</time>
      </trkpt>
      <trkpt lat="42.96463" lon="0.86612">
        <ele>1358</ele>
        <time>2018-04-02T07:42:29.000Z</time>
      </trkpt>
      <trkpt lat="42.96463" lon="0.86609">
        <ele>1358</ele>
        <time>2018-04-02T07:42:31.000Z</time>
      </trkpt>
      <trkpt lat="42.96463" lon="0.86606">
        <ele>1357</ele>
        <time>2018-04-02T07:42:33.000Z</time>
      </trkpt>
      <trkpt lat="42.96462" lon="0.86605">
        <ele>1358</ele>
        <time>2018-04-02T07:42:35.000Z</time>
      </trkpt>
      <trkpt lat="42.96462" lon="0.86603">
        <ele>1358</ele>
        <time>2018-04-02T07:42:37.000Z</time>
      </trkpt>
      <trkpt lat="42.96461" lon="0.866">
        <ele>1357</ele>
        <time>2018-04-02T07:42:39.000Z</time>
      </trkpt>
      <trkpt lat="42.96461" lon="0.86598">
        <ele>1357</ele>
        <time>2018-04-02T07:42:41.000Z</time>
      </trkpt>
      <trkpt lat="42.9646" lon="0.86595">
        <ele>1358</ele>
        <time>2018-04-02T07:42:43.000Z</time>
      </trkpt>
      <trkpt lat="42.96459" lon="0.86593">
        <ele>1358</ele>
        <time>2018-04-02T07:42:45.000Z</time>
      </trkpt>
      <trkpt lat="42.96458" lon="0.86591">
        <ele>1358</ele>
        <time>2018-04-02T07:42:47.000Z</time>
      </trkpt>
      <trkpt lat="42.96458" lon="0.86589">
        <ele>1358</ele>
        <time>2018-04-02T07:42:49.000Z</time>
      </trkpt>
      <trkpt lat="42.96457" lon="0.86587">
        <ele>1358</ele>
        <time>2018-04-02T07:42:51.000Z</time>
      </trkpt>
      <trkpt lat="42.96457" lon="0.86585">
        <ele>1358</ele>
        <time>2018-04-02T07:42:53.000Z</time>
      </trkpt>
      <trkpt lat="42.96456" lon="0.86583">
        <ele>1358</ele>
        <time>2018-04-02T07:42:55.000Z</time>
      </trkpt>
      <trkpt lat="42.96456" lon="0.86581">
        <ele>1358</ele>
        <time>2018-04-02T07:42:57.000Z</time>
      </trkpt>
      <trkpt lat="42.96455" lon="0.86579">
        <ele>1358</ele>
        <time>2018-04-02T07:42:59.000Z</time>
      </trkpt>
      <trkpt lat="42.96454" lon="0.86578">
        <ele>1358</ele>
        <time>2018-04-02T07:43:01.000Z</time>
      </trkpt>
      <trkpt lat="42.96453" lon="0.86575">
        <ele>1359</ele>
        <time>2018-04-02T07:43:03.000Z</time>
      </trkpt>
      <trkpt lat="42.96452" lon="0.86574">
        <ele>1359</ele>
        <time>2018-04-02T07:43:05.000Z</time>
      </trkpt>
      <trkpt lat="42.96452" lon="0.86572">
        <ele>1359</ele>
        <time>2018-04-02T07:43:07.000Z</time>
      </trkpt>
      <trkpt lat="42.96452" lon="0.86569">
        <ele>1359</ele>
        <time>2018-04-02T07:43:09.000Z</time>
      </trkpt>
      <trkpt lat="42.96451" lon="0.86567">
        <ele>1359</ele>
        <time>2018-04-02T07:43:11.000Z</time>
      </trkpt>
      <trkpt lat="42.96451" lon="0.86565">
        <ele>1359</ele>
        <time>2018-04-02T07:43:13.000Z</time>
      </trkpt>
      <trkpt lat="42.9645" lon="0.86563">
        <ele>1359</ele>
        <time>2018-04-02T07:43:15.000Z</time>
      </trkpt>
      <trkpt lat="42.96449" lon="0.8656">
        <ele>1359</ele>
        <time>2018-04-02T07:43:17.000Z</time>
      </trkpt>
      <trkpt lat="42.96448" lon="0.86558">
        <ele>1359</ele>
        <time>2018-04-02T07:43:19.000Z</time>
      </trkpt>
      <trkpt lat="42.96448" lon="0.86556">
        <ele>1359</ele>
        <time>2018-04-02T07:43:21.000Z</time>
      </trkpt>
      <trkpt lat="42.96447" lon="0.86554">
        <ele>1359</ele>
        <time>2018-04-02T07:43:23.000Z</time>
      </trkpt>
      <trkpt lat="42.96447" lon="0.86552">
        <ele>1359</ele>
        <time>2018-04-02T07:43:25.000Z</time>
      </trkpt>
      <trkpt lat="42.96446" lon="0.8655">
        <ele>1359</ele>
        <time>2018-04-02T07:43:27.000Z</time>
      </trkpt>
      <trkpt lat="42.96445" lon="0.86549">
        <ele>1360</ele>
        <time>2018-04-02T07:43:29.000Z</time>
      </trkpt>
      <trkpt lat="42.96444" lon="0.86548">
        <ele>1360</ele>
        <time>2018-04-02T07:43:31.000Z</time>
      </trkpt>
      <trkpt lat="42.96443" lon="0.86547">
        <ele>1360</ele>
        <time>2018-04-02T07:43:33.000Z</time>
      </trkpt>
      <trkpt lat="42.96442" lon="0.86546">
        <ele>1361</ele>
        <time>2018-04-02T07:43:35.000Z</time>
      </trkpt>
      <trkpt lat="42.9644" lon="0.86544">
        <ele>1361</ele>
        <time>2018-04-02T07:43:37.000Z</time>
      </trkpt>
      <trkpt lat="42.96439" lon="0.86542">
        <ele>1361</ele>
        <time>2018-04-02T07:43:39.000Z</time>
      </trkpt>
      <trkpt lat="42.96437" lon="0.86541">
        <ele>1362</ele>
        <time>2018-04-02T07:43:41.000Z</time>
      </trkpt>
      <trkpt lat="42.96436" lon="0.8654">
        <ele>1362</ele>
        <time>2018-04-02T07:43:43.000Z</time>
      </trkpt>
      <trkpt lat="42.96436" lon="0.86538">
        <ele>1362</ele>
        <time>2018-04-02T07:43:45.000Z</time>
      </trkpt>
      <trkpt lat="42.96436" lon="0.86537">
        <ele>1362</ele>
        <time>2018-04-02T07:43:47.000Z</time>
      </trkpt>
      <trkpt lat="42.96437" lon="0.86534">
        <ele>1361</ele>
        <time>2018-04-02T07:43:49.000Z</time>
      </trkpt>
      <trkpt lat="42.96437" lon="0.86532">
        <ele>1361</ele>
        <time>2018-04-02T07:43:51.000Z</time>
      </trkpt>
      <trkpt lat="42.96438" lon="0.8653">
        <ele>1361</ele>
        <time>2018-04-02T07:43:53.000Z</time>
      </trkpt>
      <trkpt lat="42.96437" lon="0.86528">
        <ele>1361</ele>
        <time>2018-04-02T07:43:55.000Z</time>
      </trkpt>
      <trkpt lat="42.96436" lon="0.86526">
        <ele>1361</ele>
        <time>2018-04-02T07:43:57.000Z</time>
      </trkpt>
      <trkpt lat="42.96435" lon="0.86524">
        <ele>1361</ele>
        <time>2018-04-02T07:43:59.000Z</time>
      </trkpt>
      <trkpt lat="42.96433" lon="0.86522">
        <ele>1362</ele>
        <time>2018-04-02T07:44:01.000Z</time>
      </trkpt>
      <trkpt lat="42.96433" lon="0.8652">
        <ele>1362</ele>
        <time>2018-04-02T07:44:03.000Z</time>
      </trkpt>
      <trkpt lat="42.96432" lon="0.86518">
        <ele>1362</ele>
        <time>2018-04-02T07:44:05.000Z</time>
      </trkpt>
      <trkpt lat="42.9643" lon="0.86516">
        <ele>1362</ele>
        <time>2018-04-02T07:44:07.000Z</time>
      </trkpt>
      <trkpt lat="42.9643" lon="0.86514">
        <ele>1362</ele>
        <time>2018-04-02T07:44:09.000Z</time>
      </trkpt>
      <trkpt lat="42.96428" lon="0.86512">
        <ele>1363</ele>
        <time>2018-04-02T07:44:11.000Z</time>
      </trkpt>
      <trkpt lat="42.96427" lon="0.8651">
        <ele>1363</ele>
        <time>2018-04-02T07:44:13.000Z</time>
      </trkpt>
      <trkpt lat="42.96427" lon="0.86508">
        <ele>1363</ele>
        <time>2018-04-02T07:44:15.000Z</time>
      </trkpt>
      <trkpt lat="42.96425" lon="0.86507">
        <ele>1363</ele>
        <time>2018-04-02T07:44:17.000Z</time>
      </trkpt>
      <trkpt lat="42.96424" lon="0.86506">
        <ele>1363</ele>
        <time>2018-04-02T07:44:19.000Z</time>
      </trkpt>
      <trkpt lat="42.96423" lon="0.86504">
        <ele>1364</ele>
        <time>2018-04-02T07:44:21.000Z</time>
      </trkpt>
      <trkpt lat="42.96422" lon="0.86503">
        <ele>1364</ele>
        <time>2018-04-02T07:44:23.000Z</time>
      </trkpt>
      <trkpt lat="42.96421" lon="0.86501">
        <ele>1364</ele>
        <time>2018-04-02T07:44:25.000Z</time>
      </trkpt>
      <trkpt lat="42.96419" lon="0.86499">
        <ele>1364</ele>
        <time>2018-04-02T07:44:27.000Z</time>
      </trkpt>
      <trkpt lat="42.96419" lon="0.86497">
        <ele>1364</ele>
        <time>2018-04-02T07:44:29.000Z</time>
      </trkpt>
      <trkpt lat="42.96418" lon="0.86495">
        <ele>1364</ele>
        <time>2018-04-02T07:44:31.000Z</time>
      </trkpt>
      <trkpt lat="42.96416" lon="0.86493">
        <ele>1365</ele>
        <time>2018-04-02T07:44:33.000Z</time>
      </trkpt>
      <trkpt lat="42.96415" lon="0.86491">
        <ele>1365</ele>
        <time>2018-04-02T07:44:35.000Z</time>
      </trkpt>
      <trkpt lat="42.96413" lon="0.86489">
        <ele>1365</ele>
        <time>2018-04-02T07:44:37.000Z</time>
      </trkpt>
      <trkpt lat="42.96411" lon="0.86488">
        <ele>1366</ele>
        <time>2018-04-02T07:44:39.000Z</time>
      </trkpt>
      <trkpt lat="42.9641" lon="0.86485">
        <ele>1366</ele>
        <time>2018-04-02T07:44:41.000Z</time>
      </trkpt>
      <trkpt lat="42.96408" lon="0.86484">
        <ele>1366</ele>
        <time>2018-04-02T07:44:43.000Z</time>
      </trkpt>
      <trkpt lat="42.96406" lon="0.86482">
        <ele>1366</ele>
        <time>2018-04-02T07:44:45.000Z</time>
      </trkpt>
      <trkpt lat="42.96404" lon="0.86481">
        <ele>1367</ele>
        <time>2018-04-02T07:44:47.000Z</time>
      </trkpt>
      <trkpt lat="42.96402" lon="0.86478">
        <ele>1367</ele>
        <time>2018-04-02T07:44:49.000Z</time>
      </trkpt>
      <trkpt lat="42.96402" lon="0.86476">
        <ele>1367</ele>
        <time>2018-04-02T07:44:51.000Z</time>
      </trkpt>
      <trkpt lat="42.96402" lon="0.86474">
        <ele>1367</ele>
        <time>2018-04-02T07:44:53.000Z</time>
      </trkpt>
      <trkpt lat="42.96401" lon="0.86471">
        <ele>1367</ele>
        <time>2018-04-02T07:44:55.000Z</time>
      </trkpt>
      <trkpt lat="42.964" lon="0.86469">
        <ele>1367</ele>
        <time>2018-04-02T07:44:57.000Z</time>
      </trkpt>
      <trkpt lat="42.96398" lon="0.86467">
        <ele>1367</ele>
        <time>2018-04-02T07:44:59.000Z</time>
      </trkpt>
      <trkpt lat="42.964" lon="0.86465">
        <ele>1367</ele>
        <time>2018-04-02T07:45:01.000Z</time>
      </trkpt>
      <trkpt lat="42.96399" lon="0.86462">
        <ele>1367</ele>
        <time>2018-04-02T07:45:03.000Z</time>
      </trkpt>
      <trkpt lat="42.96397" lon="0.86461">
        <ele>1367</ele>
        <time>2018-04-02T07:45:05.000Z</time>
      </trkpt>
      <trkpt lat="42.96397" lon="0.86458">
        <ele>1367</ele>
        <time>2018-04-02T07:45:07.000Z</time>
      </trkpt>
      <trkpt lat="42.96395" lon="0.86457">
        <ele>1367</ele>
        <time>2018-04-02T07:45:09.000Z</time>
      </trkpt>
      <trkpt lat="42.96394" lon="0.86455">
        <ele>1367</ele>
        <time>2018-04-02T07:45:11.000Z</time>
      </trkpt>
      <trkpt lat="42.96394" lon="0.86453">
        <ele>1367</ele>
        <time>2018-04-02T07:45:13.000Z</time>
      </trkpt>
      <trkpt lat="42.96393" lon="0.8645">
        <ele>1367</ele>
        <time>2018-04-02T07:45:15.000Z</time>
      </trkpt>
      <trkpt lat="42.96392" lon="0.86449">
        <ele>1367</ele>
        <time>2018-04-02T07:45:17.000Z</time>
      </trkpt>
      <trkpt lat="42.96391" lon="0.86447">
        <ele>1367</ele>
        <time>2018-04-02T07:45:19.000Z</time>
      </trkpt>
      <trkpt lat="42.96391" lon="0.86445">
        <ele>1367</ele>
        <time>2018-04-02T07:45:21.000Z</time>
      </trkpt>
      <trkpt lat="42.96389" lon="0.86443">
        <ele>1367</ele>
        <time>2018-04-02T07:45:23.000Z</time>
      </trkpt>
      <trkpt lat="42.96389" lon="0.86441">
        <ele>1367</ele>
        <time>2018-04-02T07:45:25.000Z</time>
      </trkpt>
      <trkpt lat="42.96389" lon="0.8644">
        <ele>1367</ele>
        <time>2018-04-02T07:45:27.000Z</time>
      </trkpt>
      <trkpt lat="42.96388" lon="0.86437">
        <ele>1367</ele>
        <time>2018-04-02T07:45:29.000Z</time>
      </trkpt>
      <trkpt lat="42.96386" lon="0.86436">
        <ele>1367</ele>
        <time>2018-04-02T07:45:31.000Z</time>
      </trkpt>
      <trkpt lat="42.96384" lon="0.86435">
        <ele>1368</ele>
        <time>2018-04-02T07:45:33.000Z</time>
      </trkpt>
      <trkpt lat="42.96382" lon="0.86433">
        <ele>1368</ele>
        <time>2018-04-02T07:45:35.000Z</time>
      </trkpt>
      <trkpt lat="42.9638" lon="0.86433">
        <ele>1368</ele>
        <time>2018-04-02T07:45:37.000Z</time>
      </trkpt>
      <trkpt lat="42.96378" lon="0.86432">
        <ele>1369</ele>
        <time>2018-04-02T07:45:39.000Z</time>
      </trkpt>
      <trkpt lat="42.96378" lon="0.8643">
        <ele>1369</ele>
        <time>2018-04-02T07:45:41.000Z</time>
      </trkpt>
      <trkpt lat="42.9638" lon="0.86427">
        <ele>1368</ele>
        <time>2018-04-02T07:45:43.000Z</time>
      </trkpt>
      <trkpt lat="42.96379" lon="0.86425">
        <ele>1368</ele>
        <time>2018-04-02T07:45:45.000Z</time>
      </trkpt>
      <trkpt lat="42.96378" lon="0.86424">
        <ele>1368</ele>
        <time>2018-04-02T07:45:47.000Z</time>
      </trkpt>
      <trkpt lat="42.96377" lon="0.86422">
        <ele>1368</ele>
        <time>2018-04-02T07:45:49.000Z</time>
      </trkpt>
      <trkpt lat="42.96376" lon="0.86421">
        <ele>1368</ele>
        <time>2018-04-02T07:45:51.000Z</time>
      </trkpt>
      <trkpt lat="42.96377" lon="0.86419">
        <ele>1368</ele>
        <time>2018-04-02T07:45:53.000Z</time>
      </trkpt>
      <trkpt lat="42.96376" lon="0.86417">
        <ele>1368</ele>
        <time>2018-04-02T07:45:55.000Z</time>
      </trkpt>
      <trkpt lat="42.96375" lon="0.86414">
        <ele>1368</ele>
        <time>2018-04-02T07:45:57.000Z</time>
      </trkpt>
      <trkpt lat="42.96376" lon="0.86412">
        <ele>1368</ele>
        <time>2018-04-02T07:45:59.000Z</time>
      </trkpt>
      <trkpt lat="42.96377" lon="0.86409">
        <ele>1367</ele>
        <time>2018-04-02T07:46:01.000Z</time>
      </trkpt>
      <trkpt lat="42.96377" lon="0.86407">
        <ele>1367</ele>
        <time>2018-04-02T07:46:03.000Z</time>
      </trkpt>
      <trkpt lat="42.96376" lon="0.86405">
        <ele>1367</ele>
        <time>2018-04-02T07:46:05.000Z</time>
      </trkpt>
      <trkpt lat="42.96375" lon="0.86404">
        <ele>1367</ele>
        <time>2018-04-02T07:46:07.000Z</time>
      </trkpt>
      <trkpt lat="42.96374" lon="0.86402">
        <ele>1368</ele>
        <time>2018-04-02T07:46:09.000Z</time>
      </trkpt>
      <trkpt lat="42.96373" lon="0.86401">
        <ele>1368</ele>
        <time>2018-04-02T07:46:11.000Z</time>
      </trkpt>
      <trkpt lat="42.96371" lon="0.864">
        <ele>1368</ele>
        <time>2018-04-02T07:46:13.000Z</time>
      </trkpt>
      <trkpt lat="42.96369" lon="0.86399">
        <ele>1368</ele>
        <time>2018-04-02T07:46:15.000Z</time>
      </trkpt>
      <trkpt lat="42.96367" lon="0.86398">
        <ele>1369</ele>
        <time>2018-04-02T07:46:17.000Z</time>
      </trkpt>
      <trkpt lat="42.96366" lon="0.86397">
        <ele>1369</ele>
        <time>2018-04-02T07:46:19.000Z</time>
      </trkpt>
      <trkpt lat="42.96364" lon="0.86396">
        <ele>1369</ele>
        <time>2018-04-02T07:46:21.000Z</time>
      </trkpt>
      <trkpt lat="42.96362" lon="0.86396">
        <ele>1370</ele>
        <time>2018-04-02T07:46:23.000Z</time>
      </trkpt>
      <trkpt lat="42.96361" lon="0.86395">
        <ele>1370</ele>
        <time>2018-04-02T07:46:25.000Z</time>
      </trkpt>
      <trkpt lat="42.96359" lon="0.86393">
        <ele>1370</ele>
        <time>2018-04-02T07:46:27.000Z</time>
      </trkpt>
      <trkpt lat="42.96358" lon="0.86393">
        <ele>1370</ele>
        <time>2018-04-02T07:46:29.000Z</time>
      </trkpt>
      <trkpt lat="42.96358" lon="0.8639">
        <ele>1370</ele>
        <time>2018-04-02T07:46:31.000Z</time>
      </trkpt>
      <trkpt lat="42.96356" lon="0.86389">
        <ele>1371</ele>
        <time>2018-04-02T07:46:33.000Z</time>
      </trkpt>
      <trkpt lat="42.96355" lon="0.86388">
        <ele>1370</ele>
        <time>2018-04-02T07:46:35.000Z</time>
      </trkpt>
      <trkpt lat="42.96354" lon="0.86386">
        <ele>1370</ele>
        <time>2018-04-02T07:46:37.000Z</time>
      </trkpt>
      <trkpt lat="42.96353" lon="0.86385">
        <ele>1370</ele>
        <time>2018-04-02T07:46:39.000Z</time>
      </trkpt>
      <trkpt lat="42.96352" lon="0.86383">
        <ele>1370</ele>
        <time>2018-04-02T07:46:41.000Z</time>
      </trkpt>
      <trkpt lat="42.96351" lon="0.86383">
        <ele>1371</ele>
        <time>2018-04-02T07:46:43.000Z</time>
      </trkpt>
      <trkpt lat="42.9635" lon="0.86382">
        <ele>1371</ele>
        <time>2018-04-02T07:46:45.000Z</time>
      </trkpt>
      <trkpt lat="42.9635" lon="0.86381">
        <ele>1371</ele>
        <time>2018-04-02T07:46:47.000Z</time>
      </trkpt>
      <trkpt lat="42.96349" lon="0.8638">
        <ele>1371</ele>
        <time>2018-04-02T07:46:49.000Z</time>
      </trkpt>
      <trkpt lat="42.96348" lon="0.86379">
        <ele>1371</ele>
        <time>2018-04-02T07:46:51.000Z</time>
      </trkpt>
      <trkpt lat="42.96348" lon="0.86378">
        <ele>1371</ele>
        <time>2018-04-02T07:46:53.000Z</time>
      </trkpt>
      <trkpt lat="42.96346" lon="0.86377">
        <ele>1371</ele>
        <time>2018-04-02T07:46:55.000Z</time>
      </trkpt>
      <trkpt lat="42.96345" lon="0.86376">
        <ele>1371</ele>
        <time>2018-04-02T07:46:57.000Z</time>
      </trkpt>
      <trkpt lat="42.96344" lon="0.86375">
        <ele>1371</ele>
        <time>2018-04-02T07:46:59.000Z</time>
      </trkpt>
      <trkpt lat="42.96342" lon="0.86373">
        <ele>1371</ele>
        <time>2018-04-02T07:47:01.000Z</time>
      </trkpt>
      <trkpt lat="42.96342" lon="0.86371">
        <ele>1371</ele>
        <time>2018-04-02T07:47:03.000Z</time>
      </trkpt>
      <trkpt lat="42.96341" lon="0.86368">
        <ele>1370</ele>
        <time>2018-04-02T07:47:05.000Z</time>
      </trkpt>
      <trkpt lat="42.96341" lon="0.86366">
        <ele>1370</ele>
        <time>2018-04-02T07:47:07.000Z</time>
      </trkpt>
      <trkpt lat="42.96342" lon="0.86363">
        <ele>1369</ele>
        <time>2018-04-02T07:47:09.000Z</time>
      </trkpt>
      <trkpt lat="42.96341" lon="0.8636">
        <ele>1369</ele>
        <time>2018-04-02T07:47:11.000Z</time>
      </trkpt>
      <trkpt lat="42.96341" lon="0.86358">
        <ele>1369</ele>
        <time>2018-04-02T07:47:13.000Z</time>
      </trkpt>
      <trkpt lat="42.9634" lon="0.86355">
        <ele>1368</ele>
        <time>2018-04-02T07:47:15.000Z</time>
      </trkpt>
      <trkpt lat="42.96341" lon="0.86352">
        <ele>1368</ele>
        <time>2018-04-02T07:47:17.000Z</time>
      </trkpt>
      <trkpt lat="42.96341" lon="0.86349">
        <ele>1367</ele>
        <time>2018-04-02T07:47:19.000Z</time>
      </trkpt>
      <trkpt lat="42.96341" lon="0.86346">
        <ele>1367</ele>
        <time>2018-04-02T07:47:21.000Z</time>
      </trkpt>
      <trkpt lat="42.96341" lon="0.86343">
        <ele>1366</ele>
        <time>2018-04-02T07:47:23.000Z</time>
      </trkpt>
      <trkpt lat="42.96341" lon="0.8634">
        <ele>1366</ele>
        <time>2018-04-02T07:47:25.000Z</time>
      </trkpt>
      <trkpt lat="42.96341" lon="0.86337">
        <ele>1365</ele>
        <time>2018-04-02T07:47:27.000Z</time>
      </trkpt>
      <trkpt lat="42.96341" lon="0.86335">
        <ele>1365</ele>
        <time>2018-04-02T07:47:29.000Z</time>
      </trkpt>
      <trkpt lat="42.9634" lon="0.86334">
        <ele>1365</ele>
        <time>2018-04-02T07:47:31.000Z</time>
      </trkpt>
      <trkpt lat="42.96339" lon="0.86332">
        <ele>1365</ele>
        <time>2018-04-02T07:47:33.000Z</time>
      </trkpt>
      <trkpt lat="42.96338" lon="0.86331">
        <ele>1365</ele>
        <time>2018-04-02T07:47:35.000Z</time>
      </trkpt>
      <trkpt lat="42.96337" lon="0.86331">
        <ele>1365</ele>
        <time>2018-04-02T07:47:37.000Z</time>
      </trkpt>
      <trkpt lat="42.96337" lon="0.8633">
        <ele>1365</ele>
        <time>2018-04-02T07:47:39.000Z</time>
      </trkpt>
      <trkpt lat="42.96337" lon="0.86328">
        <ele>1364</ele>
        <time>2018-04-02T07:47:41.000Z</time>
      </trkpt>
      <trkpt lat="42.96336" lon="0.86328">
        <ele>1364</ele>
        <time>2018-04-02T07:47:43.000Z</time>
      </trkpt>
      <trkpt lat="42.96337" lon="0.86327">
        <ele>1364</ele>
        <time>2018-04-02T07:47:45.000Z</time>
      </trkpt>
      <trkpt lat="42.96337" lon="0.86325">
        <ele>1364</ele>
        <time>2018-04-02T07:47:47.000Z</time>
      </trkpt>
      <trkpt lat="42.96337" lon="0.86323">
        <ele>1363</ele>
        <time>2018-04-02T07:47:49.000Z</time>
      </trkpt>
      <trkpt lat="42.96337" lon="0.86321">
        <ele>1363</ele>
        <time>2018-04-02T07:47:51.000Z</time>
      </trkpt>
      <trkpt lat="42.96338" lon="0.86318">
        <ele>1363</ele>
        <time>2018-04-02T07:47:53.000Z</time>
      </trkpt>
      <trkpt lat="42.96338" lon="0.86316">
        <ele>1362</ele>
        <time>2018-04-02T07:47:55.000Z</time>
      </trkpt>
      <trkpt lat="42.96338" lon="0.86314">
        <ele>1362</ele>
        <time>2018-04-02T07:47:57.000Z</time>
      </trkpt>
      <trkpt lat="42.96338" lon="0.86311">
        <ele>1361</ele>
        <time>2018-04-02T07:47:59.000Z</time>
      </trkpt>
      <trkpt lat="42.96339" lon="0.86309">
        <ele>1361</ele>
        <time>2018-04-02T07:48:01.000Z</time>
      </trkpt>
      <trkpt lat="42.96339" lon="0.86308">
        <ele>1361</ele>
        <time>2018-04-02T07:48:03.000Z</time>
      </trkpt>
      <trkpt lat="42.96339" lon="0.86305">
        <ele>1360</ele>
        <time>2018-04-02T07:48:05.000Z</time>
      </trkpt>
      <trkpt lat="42.96339" lon="0.86303">
        <ele>1360</ele>
        <time>2018-04-02T07:48:07.000Z</time>
      </trkpt>
      <trkpt lat="42.96339" lon="0.86301">
        <ele>1360</ele>
        <time>2018-04-02T07:48:09.000Z</time>
      </trkpt>
      <trkpt lat="42.9634" lon="0.86299">
        <ele>1360</ele>
        <time>2018-04-02T07:48:11.000Z</time>
      </trkpt>
      <trkpt lat="42.9634" lon="0.86298">
        <ele>1360</ele>
        <time>2018-04-02T07:48:13.000Z</time>
      </trkpt>
      <trkpt lat="42.9634" lon="0.86298">
        <ele>1360</ele>
        <time>2018-04-02T07:48:15.000Z</time>
      </trkpt>
      <trkpt lat="42.96339" lon="0.86296">
        <ele>1360</ele>
        <time>2018-04-02T07:48:17.000Z</time>
      </trkpt>
      <trkpt lat="42.96339" lon="0.86295">
        <ele>1360</ele>
        <time>2018-04-02T07:48:19.000Z</time>
      </trkpt>
      <trkpt lat="42.96338" lon="0.86294">
        <ele>1360</ele>
        <time>2018-04-02T07:48:21.000Z</time>
      </trkpt>
      <trkpt lat="42.96338" lon="0.86293">
        <ele>1360</ele>
        <time>2018-04-02T07:48:23.000Z</time>
      </trkpt>
      <trkpt lat="42.96337" lon="0.86293">
        <ele>1360</ele>
        <time>2018-04-02T07:48:25.000Z</time>
      </trkpt>
      <trkpt lat="42.96337" lon="0.86292">
        <ele>1360</ele>
        <time>2018-04-02T07:48:27.000Z</time>
      </trkpt>
      <trkpt lat="42.96336" lon="0.86292">
        <ele>1360</ele>
        <time>2018-04-02T07:48:29.000Z</time>
      </trkpt>
      <trkpt lat="42.96336" lon="0.86292">
        <ele>1360</ele>
        <time>2018-04-02T07:48:31.000Z</time>
      </trkpt>
      <trkpt lat="42.96335" lon="0.8629">
        <ele>1360</ele>
        <time>2018-04-02T07:48:33.000Z</time>
      </trkpt>
      <trkpt lat="42.96334" lon="0.86289">
        <ele>1361</ele>
        <time>2018-04-02T07:48:35.000Z</time>
      </trkpt>
      <trkpt lat="42.96333" lon="0.86288">
        <ele>1361</ele>
        <time>2018-04-02T07:48:37.000Z</time>
      </trkpt>
      <trkpt lat="42.96333" lon="0.86288">
        <ele>1361</ele>
        <time>2018-04-02T07:48:39.000Z</time>
      </trkpt>
      <trkpt lat="42.96332" lon="0.86288">
        <ele>1361</ele>
        <time>2018-04-02T07:48:41.000Z</time>
      </trkpt>
      <trkpt lat="42.96332" lon="0.86288">
        <ele>1361</ele>
        <time>2018-04-02T07:48:43.000Z</time>
      </trkpt>
      <trkpt lat="42.96332" lon="0.86288">
        <ele>1361</ele>
        <time>2018-04-02T07:48:45.000Z</time>
      </trkpt>
      <trkpt lat="42.96332" lon="0.86289">
        <ele>1361</ele>
        <time>2018-04-02T07:48:47.000Z</time>
      </trkpt>
      <trkpt lat="42.96332" lon="0.86289">
        <ele>1361</ele>
        <time>2018-04-02T07:48:49.000Z</time>
      </trkpt>
      <trkpt lat="42.96332" lon="0.86289">
        <ele>1361</ele>
        <time>2018-04-02T07:48:51.000Z</time>
      </trkpt>
      <trkpt lat="42.96332" lon="0.86289">
        <ele>1361</ele>
        <time>2018-04-02T07:48:53.000Z</time>
      </trkpt>
      <trkpt lat="42.96332" lon="0.86289">
        <ele>1361</ele>
        <time>2018-04-02T07:48:55.000Z</time>
      </trkpt>
      <trkpt lat="42.96332" lon="0.86288">
        <ele>1361</ele>
        <time>2018-04-02T07:48:57.000Z</time>
      </trkpt>
      <trkpt lat="42.96329" lon="0.86285">
        <ele>1361</ele>
        <time>2018-04-02T07:48:59.000Z</time>
      </trkpt>
      <trkpt lat="42.96328" lon="0.86284">
        <ele>1361</ele>
        <time>2018-04-02T07:49:01.000Z</time>
      </trkpt>
      <trkpt lat="42.96328" lon="0.86283">
        <ele>1361</ele>
        <time>2018-04-02T07:49:03.000Z</time>
      </trkpt>
      <trkpt lat="42.96328" lon="0.86283">
        <ele>1361</ele>
        <time>2018-04-02T07:49:05.000Z</time>
      </trkpt>
      <trkpt lat="42.96329" lon="0.86284">
        <ele>1361</ele>
        <time>2018-04-02T07:49:07.000Z</time>
      </trkpt>
      <trkpt lat="42.9633" lon="0.86285">
        <ele>1361</ele>
        <time>2018-04-02T07:49:09.000Z</time>
      </trkpt>
      <trkpt lat="42.96331" lon="0.86284">
        <ele>1361</ele>
        <time>2018-04-02T07:49:11.000Z</time>
      </trkpt>
      <trkpt lat="42.96331" lon="0.86285">
        <ele>1361</ele>
        <time>2018-04-02T07:49:13.000Z</time>
      </trkpt>
      <trkpt lat="42.96331" lon="0.86285">
        <ele>1361</ele>
        <time>2018-04-02T07:49:15.000Z</time>
      </trkpt>
      <trkpt lat="42.96331" lon="0.86285">
        <ele>1361</ele>
        <time>2018-04-02T07:49:17.000Z</time>
      </trkpt>
      <trkpt lat="42.96332" lon="0.86286">
        <ele>1361</ele>
        <time>2018-04-02T07:49:19.000Z</time>
      </trkpt>
      <trkpt lat="42.96332" lon="0.86286">
        <ele>1361</ele>
        <time>2018-04-02T07:49:21.000Z</time>
      </trkpt>
      <trkpt lat="42.96333" lon="0.86286">
        <ele>1361</ele>
        <time>2018-04-02T07:49:23.000Z</time>
      </trkpt>
      <trkpt lat="42.96333" lon="0.86286">
        <ele>1361</ele>
        <time>2018-04-02T07:49:25.000Z</time>
      </trkpt>
      <trkpt lat="42.96333" lon="0.86286">
        <ele>1361</ele>
        <time>2018-04-02T07:49:27.000Z</time>
      </trkpt>
      <trkpt lat="42.96332" lon="0.86285">
        <ele>1361</ele>
        <time>2018-04-02T07:49:29.000Z</time>
      </trkpt>
      <trkpt lat="42.9633" lon="0.86284">
        <ele>1361</ele>
        <time>2018-04-02T07:49:31.000Z</time>
      </trkpt>
      <trkpt lat="42.9633" lon="0.86285">
        <ele>1361</ele>
        <time>2018-04-02T07:49:33.000Z</time>
      </trkpt>
      <trkpt lat="42.96329" lon="0.86285">
        <ele>1361</ele>
        <time>2018-04-02T07:49:35.000Z</time>
      </trkpt>
      <trkpt lat="42.96329" lon="0.86285">
        <ele>1361</ele>
        <time>2018-04-02T07:49:37.000Z</time>
      </trkpt>
      <trkpt lat="42.96329" lon="0.86285">
        <ele>1361</ele>
        <time>2018-04-02T07:49:39.000Z</time>
      </trkpt>
      <trkpt lat="42.96328" lon="0.86285">
        <ele>1361</ele>
        <time>2018-04-02T07:49:41.000Z</time>
      </trkpt>
      <trkpt lat="42.96329" lon="0.86286">
        <ele>1361</ele>
        <time>2018-04-02T07:49:43.000Z</time>
      </trkpt>
      <trkpt lat="42.96329" lon="0.86286">
        <ele>1361</ele>
        <time>2018-04-02T07:49:45.000Z</time>
      </trkpt>
      <trkpt lat="42.96329" lon="0.86286">
        <ele>1361</ele>
        <time>2018-04-02T07:49:47.000Z</time>
      </trkpt>
      <trkpt lat="42.96329" lon="0.86286">
        <ele>1361</ele>
        <time>2018-04-02T07:49:49.000Z</time>
      </trkpt>
      <trkpt lat="42.9633" lon="0.86285">
        <ele>1361</ele>
        <time>2018-04-02T07:49:51.000Z</time>
      </trkpt>
      <trkpt lat="42.9633" lon="0.86285">
        <ele>1361</ele>
        <time>2018-04-02T07:49:53.000Z</time>
      </trkpt>
      <trkpt lat="42.96331" lon="0.86285">
        <ele>1361</ele>
        <time>2018-04-02T07:49:55.000Z</time>
      </trkpt>
      <trkpt lat="42.96331" lon="0.86285">
        <ele>1361</ele>
        <time>2018-04-02T07:49:57.000Z</time>
      </trkpt>
      <trkpt lat="42.96332" lon="0.86285">
        <ele>1361</ele>
        <time>2018-04-02T07:49:59.000Z</time>
      </trkpt>
      <trkpt lat="42.96332" lon="0.86285">
        <ele>1361</ele>
        <time>2018-04-02T07:50:01.000Z</time>
      </trkpt>
      <trkpt lat="42.96332" lon="0.86286">
        <ele>1361</ele>
        <time>2018-04-02T07:50:03.000Z</time>
      </trkpt>
      <trkpt lat="42.96333" lon="0.86286">
        <ele>1361</ele>
        <time>2018-04-02T07:50:05.000Z</time>
      </trkpt>
      <trkpt lat="42.96332" lon="0.86286">
        <ele>1361</ele>
        <time>2018-04-02T07:50:07.000Z</time>
      </trkpt>
      <trkpt lat="42.96332" lon="0.86286">
        <ele>1361</ele>
        <time>2018-04-02T07:50:09.000Z</time>
      </trkpt>
      <trkpt lat="42.96332" lon="0.86285">
        <ele>1361</ele>
        <time>2018-04-02T07:50:11.000Z</time>
      </trkpt>
      <trkpt lat="42.96332" lon="0.86286">
        <ele>1361</ele>
        <time>2018-04-02T07:50:13.000Z</time>
      </trkpt>
      <trkpt lat="42.96332" lon="0.86286">
        <ele>1361</ele>
        <time>2018-04-02T07:50:15.000Z</time>
      </trkpt>
      <trkpt lat="42.96332" lon="0.86287">
        <ele>1361</ele>
        <time>2018-04-02T07:50:17.000Z</time>
      </trkpt>
      <trkpt lat="42.96332" lon="0.86287">
        <ele>1361</ele>
        <time>2018-04-02T07:50:19.000Z</time>
      </trkpt>
      <trkpt lat="42.96333" lon="0.86288">
        <ele>1361</ele>
        <time>2018-04-02T07:50:21.000Z</time>
      </trkpt>
      <trkpt lat="42.96333" lon="0.86288">
        <ele>1361</ele>
        <time>2018-04-02T07:50:23.000Z</time>
      </trkpt>
      <trkpt lat="42.96333" lon="0.86287">
        <ele>1361</ele>
        <time>2018-04-02T07:50:25.000Z</time>
      </trkpt>
      <trkpt lat="42.96333" lon="0.86287">
        <ele>1361</ele>
        <time>2018-04-02T07:50:27.000Z</time>
      </trkpt>
      <trkpt lat="42.96334" lon="0.86287">
        <ele>1361</ele>
        <time>2018-04-02T07:50:29.000Z</time>
      </trkpt>
      <trkpt lat="42.96335" lon="0.86287">
        <ele>1360</ele>
        <time>2018-04-02T07:50:31.000Z</time>
      </trkpt>
      <trkpt lat="42.96336" lon="0.86288">
        <ele>1360</ele>
        <time>2018-04-02T07:50:33.000Z</time>
      </trkpt>
      <trkpt lat="42.96337" lon="0.86288">
        <ele>1360</ele>
        <time>2018-04-02T07:50:35.000Z</time>
      </trkpt>
      <trkpt lat="42.96337" lon="0.86289">
        <ele>1360</ele>
        <time>2018-04-02T07:50:37.000Z</time>
      </trkpt>
      <trkpt lat="42.96337" lon="0.86289">
        <ele>1360</ele>
        <time>2018-04-02T07:50:39.000Z</time>
      </trkpt>
      <trkpt lat="42.96337" lon="0.86289">
        <ele>1360</ele>
        <time>2018-04-02T07:50:41.000Z</time>
      </trkpt>
      <trkpt lat="42.96336" lon="0.86288">
        <ele>1360</ele>
        <time>2018-04-02T07:50:43.000Z</time>
      </trkpt>
      <trkpt lat="42.96336" lon="0.86288">
        <ele>1360</ele>
        <time>2018-04-02T07:50:45.000Z</time>
      </trkpt>
      <trkpt lat="42.96335" lon="0.86289">
        <ele>1360</ele>
        <time>2018-04-02T07:50:47.000Z</time>
      </trkpt>
      <trkpt lat="42.96336" lon="0.86289">
        <ele>1360</ele>
        <time>2018-04-02T07:50:49.000Z</time>
      </trkpt>
      <trkpt lat="42.96336" lon="0.86289">
        <ele>1360</ele>
        <time>2018-04-02T07:50:51.000Z</time>
      </trkpt>
      <trkpt lat="42.96335" lon="0.86289">
        <ele>1360</ele>
        <time>2018-04-02T07:50:53.000Z</time>
      </trkpt>
      <trkpt lat="42.96334" lon="0.86288">
        <ele>1361</ele>
        <time>2018-04-02T07:50:55.000Z</time>
      </trkpt>
      <trkpt lat="42.96334" lon="0.86288">
        <ele>1361</ele>
        <time>2018-04-02T07:50:57.000Z</time>
      </trkpt>
      <trkpt lat="42.96334" lon="0.86288">
        <ele>1361</ele>
        <time>2018-04-02T07:50:59.000Z</time>
      </trkpt>
      <trkpt lat="42.96334" lon="0.86289">
        <ele>1361</ele>
        <time>2018-04-02T07:51:01.000Z</time>
      </trkpt>
      <trkpt lat="42.96334" lon="0.86289">
        <ele>1361</ele>
        <time>2018-04-02T07:51:03.000Z</time>
      </trkpt>
      <trkpt lat="42.96333" lon="0.86288">
        <ele>1361</ele>
        <time>2018-04-02T07:51:05.000Z</time>
      </trkpt>
      <trkpt lat="42.96333" lon="0.86288">
        <ele>1361</ele>
        <time>2018-04-02T07:51:07.000Z</time>
      </trkpt>
      <trkpt lat="42.96333" lon="0.86287">
        <ele>1361</ele>
        <time>2018-04-02T07:51:09.000Z</time>
      </trkpt>
      <trkpt lat="42.96332" lon="0.86287">
        <ele>1361</ele>
        <time>2018-04-02T07:51:11.000Z</time>
      </trkpt>
      <trkpt lat="42.96332" lon="0.86287">
        <ele>1361</ele>
        <time>2018-04-02T07:51:13.000Z</time>
      </trkpt>
      <trkpt lat="42.96333" lon="0.86288">
        <ele>1361</ele>
        <time>2018-04-02T07:51:15.000Z</time>
      </trkpt>
      <trkpt lat="42.96333" lon="0.86288">
        <ele>1361</ele>
        <time>2018-04-02T07:51:17.000Z</time>
      </trkpt>
      <trkpt lat="42.96333" lon="0.86288">
        <ele>1361</ele>
        <time>2018-04-02T07:51:19.000Z</time>
      </trkpt>
      <trkpt lat="42.96334" lon="0.86289">
        <ele>1361</ele>
        <time>2018-04-02T07:51:21.000Z</time>
      </trkpt>
      <trkpt lat="42.96334" lon="0.86289">
        <ele>1361</ele>
        <time>2018-04-02T07:51:23.000Z</time>
      </trkpt>
      <trkpt lat="42.96334" lon="0.86288">
        <ele>1361</ele>
        <time>2018-04-02T07:51:25.000Z</time>
      </trkpt>
      <trkpt lat="42.96335" lon="0.86287">
        <ele>1360</ele>
        <time>2018-04-02T07:51:27.000Z</time>
      </trkpt>
      <trkpt lat="42.96335" lon="0.86286">
        <ele>1360</ele>
        <time>2018-04-02T07:51:29.000Z</time>
      </trkpt>
      <trkpt lat="42.96335" lon="0.86286">
        <ele>1360</ele>
        <time>2018-04-02T07:51:31.000Z</time>
      </trkpt>
      <trkpt lat="42.96336" lon="0.86286">
        <ele>1360</ele>
        <time>2018-04-02T07:51:33.000Z</time>
      </trkpt>
      <trkpt lat="42.96336" lon="0.86285">
        <ele>1360</ele>
        <time>2018-04-02T07:51:35.000Z</time>
      </trkpt>
      <trkpt lat="42.96336" lon="0.86286">
        <ele>1360</ele>
        <time>2018-04-02T07:51:37.000Z</time>
      </trkpt>
      <trkpt lat="42.96336" lon="0.86286">
        <ele>1360</ele>
        <time>2018-04-02T07:51:39.000Z</time>
      </trkpt>
      <trkpt lat="42.96336" lon="0.86286">
        <ele>1360</ele>
        <time>2018-04-02T07:51:41.000Z</time>
      </trkpt>
      <trkpt lat="42.96336" lon="0.86286">
        <ele>1360</ele>
        <time>2018-04-02T07:51:43.000Z</time>
      </trkpt>
      <trkpt lat="42.96336" lon="0.86285">
        <ele>1360</ele>
        <time>2018-04-02T07:51:45.000Z</time>
      </trkpt>
      <trkpt lat="42.96335" lon="0.86285">
        <ele>1360</ele>
        <time>2018-04-02T07:51:47.000Z</time>
      </trkpt>
      <trkpt lat="42.96335" lon="0.86285">
        <ele>1360</ele>
        <time>2018-04-02T07:51:49.000Z</time>
      </trkpt>
      <trkpt lat="42.96335" lon="0.86286">
        <ele>1360</ele>
        <time>2018-04-02T07:51:51.000Z</time>
      </trkpt>
      <trkpt lat="42.96335" lon="0.86286">
        <ele>1360</ele>
        <time>2018-04-02T07:51:53.000Z</time>
      </trkpt>
      <trkpt lat="42.96335" lon="0.86287">
        <ele>1360</ele>
        <time>2018-04-02T07:51:55.000Z</time>
      </trkpt>
      <trkpt lat="42.96335" lon="0.86287">
        <ele>1360</ele>
        <time>2018-04-02T07:51:57.000Z</time>
      </trkpt>
      <trkpt lat="42.96336" lon="0.86288">
        <ele>1360</ele>
        <time>2018-04-02T07:51:59.000Z</time>
      </trkpt>
      <trkpt lat="42.96336" lon="0.86289">
        <ele>1360</ele>
        <time>2018-04-02T07:52:01.000Z</time>
      </trkpt>
      <trkpt lat="42.96336" lon="0.86289">
        <ele>1360</ele>
        <time>2018-04-02T07:52:03.000Z</time>
      </trkpt>
      <trkpt lat="42.96336" lon="0.86289">
        <ele>1360</ele>
        <time>2018-04-02T07:52:05.000Z</time>
      </trkpt>
      <trkpt lat="42.96336" lon="0.86289">
        <ele>1360</ele>
        <time>2018-04-02T07:52:07.000Z</time>
      </trkpt>
      <trkpt lat="42.96335" lon="0.8629">
        <ele>1360</ele>
        <time>2018-04-02T07:52:09.000Z</time>
      </trkpt>
      <trkpt lat="42.96335" lon="0.86291">
        <ele>1360</ele>
        <time>2018-04-02T07:52:11.000Z</time>
      </trkpt>
      <trkpt lat="42.96335" lon="0.86291">
        <ele>1360</ele>
        <time>2018-04-02T07:52:13.000Z</time>
      </trkpt>
      <trkpt lat="42.96335" lon="0.86292">
        <ele>1360</ele>
        <time>2018-04-02T07:52:15.000Z</time>
      </trkpt>
      <trkpt lat="42.96336" lon="0.86293">
        <ele>1360</ele>
        <time>2018-04-02T07:52:17.000Z</time>
      </trkpt>
      <trkpt lat="42.96336" lon="0.86293">
        <ele>1360</ele>
        <time>2018-04-02T07:52:19.000Z</time>
      </trkpt>
      <trkpt lat="42.96336" lon="0.86293">
        <ele>1360</ele>
        <time>2018-04-02T07:52:21.000Z</time>
      </trkpt>
      <trkpt lat="42.96336" lon="0.86293">
        <ele>1360</ele>
        <time>2018-04-02T07:52:23.000Z</time>
      </trkpt>
      <trkpt lat="42.96336" lon="0.86293">
        <ele>1360</ele>
        <time>2018-04-02T07:52:25.000Z</time>
      </trkpt>
      <trkpt lat="42.96336" lon="0.86292">
        <ele>1360</ele>
        <time>2018-04-02T07:52:27.000Z</time>
      </trkpt>
      <trkpt lat="42.96335" lon="0.86292">
        <ele>1361</ele>
        <time>2018-04-02T07:52:29.000Z</time>
      </trkpt>
      <trkpt lat="42.96334" lon="0.86292">
        <ele>1361</ele>
        <time>2018-04-02T07:52:31.000Z</time>
      </trkpt>
      <trkpt lat="42.96333" lon="0.86292">
        <ele>1361</ele>
        <time>2018-04-02T07:52:33.000Z</time>
      </trkpt>
      <trkpt lat="42.96333" lon="0.86292">
        <ele>1361</ele>
        <time>2018-04-02T07:52:35.000Z</time>
      </trkpt>
      <trkpt lat="42.96334" lon="0.86293">
        <ele>1361</ele>
        <time>2018-04-02T07:52:37.000Z</time>
      </trkpt>
      <trkpt lat="42.96334" lon="0.86294">
        <ele>1361</ele>
        <time>2018-04-02T07:52:39.000Z</time>
      </trkpt>
      <trkpt lat="42.96335" lon="0.86295">
        <ele>1361</ele>
        <time>2018-04-02T07:52:41.000Z</time>
      </trkpt>
      <trkpt lat="42.96335" lon="0.86296">
        <ele>1361</ele>
        <time>2018-04-02T07:52:43.000Z</time>
      </trkpt>
      <trkpt lat="42.96336" lon="0.86296">
        <ele>1360</ele>
        <time>2018-04-02T07:52:45.000Z</time>
      </trkpt>
      <trkpt lat="42.96336" lon="0.86296">
        <ele>1360</ele>
        <time>2018-04-02T07:52:47.000Z</time>
      </trkpt>
      <trkpt lat="42.96335" lon="0.86297">
        <ele>1360</ele>
        <time>2018-04-02T07:52:49.000Z</time>
      </trkpt>
      <trkpt lat="42.96335" lon="0.86296">
        <ele>1361</ele>
        <time>2018-04-02T07:52:51.000Z</time>
      </trkpt>
      <trkpt lat="42.96335" lon="0.86296">
        <ele>1361</ele>
        <time>2018-04-02T07:52:53.000Z</time>
      </trkpt>
      <trkpt lat="42.96335" lon="0.86296">
        <ele>1361</ele>
        <time>2018-04-02T07:52:55.000Z</time>
      </trkpt>
      <trkpt lat="42.96335" lon="0.86294">
        <ele>1361</ele>
        <time>2018-04-02T07:52:57.000Z</time>
      </trkpt>
      <trkpt lat="42.96334" lon="0.86293">
        <ele>1361</ele>
        <time>2018-04-02T07:52:59.000Z</time>
      </trkpt>
      <trkpt lat="42.96334" lon="0.86292">
        <ele>1361</ele>
        <time>2018-04-02T07:53:01.000Z</time>
      </trkpt>
      <trkpt lat="42.96333" lon="0.86291">
        <ele>1361</ele>
        <time>2018-04-02T07:53:03.000Z</time>
      </trkpt>
      <trkpt lat="42.96333" lon="0.86291">
        <ele>1361</ele>
        <time>2018-04-02T07:53:05.000Z</time>
      </trkpt>
      <trkpt lat="42.96333" lon="0.86292">
        <ele>1361</ele>
        <time>2018-04-02T07:53:07.000Z</time>
      </trkpt>
      <trkpt lat="42.96332" lon="0.86291">
        <ele>1361</ele>
        <time>2018-04-02T07:53:09.000Z</time>
      </trkpt>
      <trkpt lat="42.96332" lon="0.86291">
        <ele>1361</ele>
        <time>2018-04-02T07:53:11.000Z</time>
      </trkpt>
      <trkpt lat="42.96332" lon="0.8629">
        <ele>1361</ele>
        <time>2018-04-02T07:53:13.000Z</time>
      </trkpt>
      <trkpt lat="42.96332" lon="0.86291">
        <ele>1361</ele>
        <time>2018-04-02T07:53:15.000Z</time>
      </trkpt>
      <trkpt lat="42.96332" lon="0.86291">
        <ele>1361</ele>
        <time>2018-04-02T07:53:17.000Z</time>
      </trkpt>
      <trkpt lat="42.96332" lon="0.86291">
        <ele>1361</ele>
        <time>2018-04-02T07:53:19.000Z</time>
      </trkpt>
      <trkpt lat="42.96332" lon="0.8629">
        <ele>1361</ele>
        <time>2018-04-02T07:53:21.000Z</time>
      </trkpt>
      <trkpt lat="42.96333" lon="0.8629">
        <ele>1361</ele>
        <time>2018-04-02T07:53:23.000Z</time>
      </trkpt>
      <trkpt lat="42.96332" lon="0.86291">
        <ele>1361</ele>
        <time>2018-04-02T07:53:25.000Z</time>
      </trkpt>
      <trkpt lat="42.96332" lon="0.86291">
        <ele>1361</ele>
        <time>2018-04-02T07:53:27.000Z</time>
      </trkpt>
      <trkpt lat="42.96332" lon="0.8629">
        <ele>1361</ele>
        <time>2018-04-02T07:53:29.000Z</time>
      </trkpt>
      <trkpt lat="42.96331" lon="0.86289">
        <ele>1361</ele>
        <time>2018-04-02T07:53:31.000Z</time>
      </trkpt>
      <trkpt lat="42.96331" lon="0.86288">
        <ele>1361</ele>
        <time>2018-04-02T07:53:33.000Z</time>
      </trkpt>
      <trkpt lat="42.96331" lon="0.86288">
        <ele>1361</ele>
        <time>2018-04-02T07:53:35.000Z</time>
      </trkpt>
      <trkpt lat="42.96331" lon="0.86287">
        <ele>1361</ele>
        <time>2018-04-02T07:53:37.000Z</time>
      </trkpt>
      <trkpt lat="42.96332" lon="0.86288">
        <ele>1361</ele>
        <time>2018-04-02T07:53:39.000Z</time>
      </trkpt>
      <trkpt lat="42.96333" lon="0.86288">
        <ele>1361</ele>
        <time>2018-04-02T07:53:41.000Z</time>
      </trkpt>
      <trkpt lat="42.96334" lon="0.86288">
        <ele>1361</ele>
        <time>2018-04-02T07:53:43.000Z</time>
      </trkpt>
      <trkpt lat="42.96334" lon="0.86287">
        <ele>1361</ele>
        <time>2018-04-02T07:53:45.000Z</time>
      </trkpt>
      <trkpt lat="42.96334" lon="0.86287">
        <ele>1361</ele>
        <time>2018-04-02T07:53:47.000Z</time>
      </trkpt>
      <trkpt lat="42.96334" lon="0.86286">
        <ele>1361</ele>
        <time>2018-04-02T07:53:49.000Z</time>
      </trkpt>
      <trkpt lat="42.96334" lon="0.86285">
        <ele>1360</ele>
        <time>2018-04-02T07:53:51.000Z</time>
      </trkpt>
      <trkpt lat="42.96334" lon="0.86285">
        <ele>1361</ele>
        <time>2018-04-02T07:53:53.000Z</time>
      </trkpt>
      <trkpt lat="42.96332" lon="0.86285">
        <ele>1361</ele>
        <time>2018-04-02T07:53:55.000Z</time>
      </trkpt>
      <trkpt lat="42.96332" lon="0.86284">
        <ele>1361</ele>
        <time>2018-04-02T07:53:57.000Z</time>
      </trkpt>
      <trkpt lat="42.96332" lon="0.86284">
        <ele>1361</ele>
        <time>2018-04-02T07:53:59.000Z</time>
      </trkpt>
      <trkpt lat="42.96332" lon="0.86284">
        <ele>1361</ele>
        <time>2018-04-02T07:54:01.000Z</time>
      </trkpt>
      <trkpt lat="42.96332" lon="0.86283">
        <ele>1361</ele>
        <time>2018-04-02T07:54:03.000Z</time>
      </trkpt>
      <trkpt lat="42.96332" lon="0.86284">
        <ele>1361</ele>
        <time>2018-04-02T07:54:05.000Z</time>
      </trkpt>
      <trkpt lat="42.96333" lon="0.86285">
        <ele>1361</ele>
        <time>2018-04-02T07:54:07.000Z</time>
      </trkpt>
      <trkpt lat="42.96333" lon="0.86285">
        <ele>1361</ele>
        <time>2018-04-02T07:54:09.000Z</time>
      </trkpt>
      <trkpt lat="42.96333" lon="0.86286">
        <ele>1361</ele>
        <time>2018-04-02T07:54:11.000Z</time>
      </trkpt>
      <trkpt lat="42.96331" lon="0.86285">
        <ele>1361</ele>
        <time>2018-04-02T07:54:13.000Z</time>
      </trkpt>
      <trkpt lat="42.96331" lon="0.86286">
        <ele>1361</ele>
        <time>2018-04-02T07:54:15.000Z</time>
      </trkpt>
      <trkpt lat="42.96331" lon="0.86286">
        <ele>1361</ele>
        <time>2018-04-02T07:54:17.000Z</time>
      </trkpt>
      <trkpt lat="42.96332" lon="0.86286">
        <ele>1361</ele>
        <time>2018-04-02T07:54:19.000Z</time>
      </trkpt>
      <trkpt lat="42.96332" lon="0.86287">
        <ele>1361</ele>
        <time>2018-04-02T07:54:21.000Z</time>
      </trkpt>
      <trkpt lat="42.96331" lon="0.86287">
        <ele>1361</ele>
        <time>2018-04-02T07:54:23.000Z</time>
      </trkpt>
      <trkpt lat="42.96331" lon="0.86287">
        <ele>1361</ele>
        <time>2018-04-02T07:54:25.000Z</time>
      </trkpt>
      <trkpt lat="42.96331" lon="0.86287">
        <ele>1361</ele>
        <time>2018-04-02T07:54:27.000Z</time>
      </trkpt>
      <trkpt lat="42.9633" lon="0.86286">
        <ele>1361</ele>
        <time>2018-04-02T07:54:29.000Z</time>
      </trkpt>
      <trkpt lat="42.9633" lon="0.86286">
        <ele>1361</ele>
        <time>2018-04-02T07:54:31.000Z</time>
      </trkpt>
      <trkpt lat="42.9633" lon="0.86286">
        <ele>1361</ele>
        <time>2018-04-02T07:54:33.000Z</time>
      </trkpt>
      <trkpt lat="42.96331" lon="0.86286">
        <ele>1361</ele>
        <time>2018-04-02T07:54:35.000Z</time>
      </trkpt>
      <trkpt lat="42.96331" lon="0.86286">
        <ele>1361</ele>
        <time>2018-04-02T07:54:37.000Z</time>
      </trkpt>
      <trkpt lat="42.96332" lon="0.86285">
        <ele>1361</ele>
        <time>2018-04-02T07:54:39.000Z</time>
      </trkpt>
      <trkpt lat="42.96332" lon="0.86285">
        <ele>1361</ele>
        <time>2018-04-02T07:54:41.000Z</time>
      </trkpt>
      <trkpt lat="42.96333" lon="0.86285">
        <ele>1361</ele>
        <time>2018-04-02T07:54:43.000Z</time>
      </trkpt>
      <trkpt lat="42.96333" lon="0.86287">
        <ele>1361</ele>
        <time>2018-04-02T07:54:45.000Z</time>
      </trkpt>
      <trkpt lat="42.96334" lon="0.86287">
        <ele>1361</ele>
        <time>2018-04-02T07:54:47.000Z</time>
      </trkpt>
      <trkpt lat="42.96333" lon="0.86287">
        <ele>1361</ele>
        <time>2018-04-02T07:54:49.000Z</time>
      </trkpt>
      <trkpt lat="42.96334" lon="0.86287">
        <ele>1361</ele>
        <time>2018-04-02T07:54:51.000Z</time>
      </trkpt>
      <trkpt lat="42.96334" lon="0.86287">
        <ele>1360</ele>
        <time>2018-04-02T07:54:53.000Z</time>
      </trkpt>
      <trkpt lat="42.96335" lon="0.86287">
        <ele>1360</ele>
        <time>2018-04-02T07:54:55.000Z</time>
      </trkpt>
      <trkpt lat="42.96335" lon="0.86287">
        <ele>1360</ele>
        <time>2018-04-02T07:54:57.000Z</time>
      </trkpt>
      <trkpt lat="42.96335" lon="0.86287">
        <ele>1360</ele>
        <time>2018-04-02T07:54:59.000Z</time>
      </trkpt>
      <trkpt lat="42.96335" lon="0.86288">
        <ele>1360</ele>
        <time>2018-04-02T07:55:01.000Z</time>
      </trkpt>
      <trkpt lat="42.96335" lon="0.86288">
        <ele>1360</ele>
        <time>2018-04-02T07:55:03.000Z</time>
      </trkpt>
      <trkpt lat="42.96335" lon="0.86289">
        <ele>1360</ele>
        <time>2018-04-02T07:55:05.000Z</time>
      </trkpt>
      <trkpt lat="42.96335" lon="0.8629">
        <ele>1361</ele>
        <time>2018-04-02T07:55:07.000Z</time>
      </trkpt>
      <trkpt lat="42.96333" lon="0.86291">
        <ele>1361</ele>
        <time>2018-04-02T07:55:09.000Z</time>
      </trkpt>
      <trkpt lat="42.96333" lon="0.86292">
        <ele>1361</ele>
        <time>2018-04-02T07:55:11.000Z</time>
      </trkpt>
      <trkpt lat="42.96331" lon="0.8629">
        <ele>1361</ele>
        <time>2018-04-02T07:55:13.000Z</time>
      </trkpt>
      <trkpt lat="42.9633" lon="0.86289">
        <ele>1361</ele>
        <time>2018-04-02T07:55:15.000Z</time>
      </trkpt>
      <trkpt lat="42.96329" lon="0.86288">
        <ele>1361</ele>
        <time>2018-04-02T07:55:17.000Z</time>
      </trkpt>
      <trkpt lat="42.96329" lon="0.86288">
        <ele>1361</ele>
        <time>2018-04-02T07:55:19.000Z</time>
      </trkpt>
      <trkpt lat="42.96329" lon="0.86287">
        <ele>1361</ele>
        <time>2018-04-02T07:55:21.000Z</time>
      </trkpt>
      <trkpt lat="42.96329" lon="0.86287">
        <ele>1361</ele>
        <time>2018-04-02T07:55:23.000Z</time>
      </trkpt>
      <trkpt lat="42.96329" lon="0.86286">
        <ele>1361</ele>
        <time>2018-04-02T07:55:25.000Z</time>
      </trkpt>
      <trkpt lat="42.96329" lon="0.86285">
        <ele>1361</ele>
        <time>2018-04-02T07:55:27.000Z</time>
      </trkpt>
      <trkpt lat="42.9633" lon="0.86285">
        <ele>1361</ele>
        <time>2018-04-02T07:55:29.000Z</time>
      </trkpt>
      <trkpt lat="42.9633" lon="0.86285">
        <ele>1361</ele>
        <time>2018-04-02T07:55:31.000Z</time>
      </trkpt>
      <trkpt lat="42.96329" lon="0.86285">
        <ele>1361</ele>
        <time>2018-04-02T07:55:33.000Z</time>
      </trkpt>
      <trkpt lat="42.96329" lon="0.86284">
        <ele>1361</ele>
        <time>2018-04-02T07:55:35.000Z</time>
      </trkpt>
      <trkpt lat="42.9633" lon="0.86284">
        <ele>1361</ele>
        <time>2018-04-02T07:55:37.000Z</time>
      </trkpt>
      <trkpt lat="42.96329" lon="0.86284">
        <ele>1361</ele>
        <time>2018-04-02T07:55:39.000Z</time>
      </trkpt>
      <trkpt lat="42.96329" lon="0.86284">
        <ele>1361</ele>
        <time>2018-04-02T07:55:41.000Z</time>
      </trkpt>
      <trkpt lat="42.96328" lon="0.86285">
        <ele>1361</ele>
        <time>2018-04-02T07:55:43.000Z</time>
      </trkpt>
      <trkpt lat="42.96328" lon="0.86285">
        <ele>1361</ele>
        <time>2018-04-02T07:55:45.000Z</time>
      </trkpt>
      <trkpt lat="42.96328" lon="0.86285">
        <ele>1361</ele>
        <time>2018-04-02T07:55:47.000Z</time>
      </trkpt>
      <trkpt lat="42.9633" lon="0.86286">
        <ele>1361</ele>
        <time>2018-04-02T07:55:49.000Z</time>
      </trkpt>
      <trkpt lat="42.96331" lon="0.86286">
        <ele>1361</ele>
        <time>2018-04-02T07:55:51.000Z</time>
      </trkpt>
      <trkpt lat="42.96332" lon="0.86287">
        <ele>1361</ele>
        <time>2018-04-02T07:55:53.000Z</time>
      </trkpt>
      <trkpt lat="42.96334" lon="0.86285">
        <ele>1361</ele>
        <time>2018-04-02T07:55:55.000Z</time>
      </trkpt>
      <trkpt lat="42.96335" lon="0.86285">
        <ele>1360</ele>
        <time>2018-04-02T07:55:57.000Z</time>
      </trkpt>
      <trkpt lat="42.96336" lon="0.86284">
        <ele>1360</ele>
        <time>2018-04-02T07:55:59.000Z</time>
      </trkpt>
      <trkpt lat="42.96337" lon="0.86284">
        <ele>1360</ele>
        <time>2018-04-02T07:56:01.000Z</time>
      </trkpt>
      <trkpt lat="42.96337" lon="0.86284">
        <ele>1360</ele>
        <time>2018-04-02T07:56:03.000Z</time>
      </trkpt>
      <trkpt lat="42.96337" lon="0.86285">
        <ele>1360</ele>
        <time>2018-04-02T07:56:05.000Z</time>
      </trkpt>
      <trkpt lat="42.96338" lon="0.86286">
        <ele>1360</ele>
        <time>2018-04-02T07:56:07.000Z</time>
      </trkpt>
      <trkpt lat="42.96339" lon="0.86287">
        <ele>1360</ele>
        <time>2018-04-02T07:56:09.000Z</time>
      </trkpt>
      <trkpt lat="42.96338" lon="0.86287">
        <ele>1360</ele>
        <time>2018-04-02T07:56:11.000Z</time>
      </trkpt>
      <trkpt lat="42.96339" lon="0.86287">
        <ele>1360</ele>
        <time>2018-04-02T07:56:13.000Z</time>
      </trkpt>
      <trkpt lat="42.96339" lon="0.86287">
        <ele>1360</ele>
        <time>2018-04-02T07:56:15.000Z</time>
      </trkpt>
      <trkpt lat="42.96339" lon="0.86287">
        <ele>1360</ele>
        <time>2018-04-02T07:56:17.000Z</time>
      </trkpt>
      <trkpt lat="42.96339" lon="0.86286">
        <ele>1360</ele>
        <time>2018-04-02T07:56:19.000Z</time>
      </trkpt>
      <trkpt lat="42.96339" lon="0.86286">
        <ele>1360</ele>
        <time>2018-04-02T07:56:21.000Z</time>
      </trkpt>
      <trkpt lat="42.9634" lon="0.86286">
        <ele>1360</ele>
        <time>2018-04-02T07:56:23.000Z</time>
      </trkpt>
      <trkpt lat="42.96339" lon="0.86286">
        <ele>1360</ele>
        <time>2018-04-02T07:56:25.000Z</time>
      </trkpt>
      <trkpt lat="42.96339" lon="0.86286">
        <ele>1360</ele>
        <time>2018-04-02T07:56:27.000Z</time>
      </trkpt>
      <trkpt lat="42.96339" lon="0.86287">
        <ele>1360</ele>
        <time>2018-04-02T07:56:29.000Z</time>
      </trkpt>
      <trkpt lat="42.96338" lon="0.86288">
        <ele>1360</ele>
        <time>2018-04-02T07:56:31.000Z</time>
      </trkpt>
      <trkpt lat="42.96338" lon="0.86288">
        <ele>1360</ele>
        <time>2018-04-02T07:56:33.000Z</time>
      </trkpt>
      <trkpt lat="42.96338" lon="0.86288">
        <ele>1360</ele>
        <time>2018-04-02T07:56:35.000Z</time>
      </trkpt>
      <trkpt lat="42.96337" lon="0.86288">
        <ele>1360</ele>
        <time>2018-04-02T07:56:37.000Z</time>
      </trkpt>
      <trkpt lat="42.96337" lon="0.86287">
        <ele>1360</ele>
        <time>2018-04-02T07:56:39.000Z</time>
      </trkpt>
      <trkpt lat="42.96337" lon="0.86286">
        <ele>1360</ele>
        <time>2018-04-02T07:56:41.000Z</time>
      </trkpt>
      <trkpt lat="42.96337" lon="0.86286">
        <ele>1360</ele>
        <time>2018-04-02T07:56:43.000Z</time>
      </trkpt>
      <trkpt lat="42.96336" lon="0.86286">
        <ele>1360</ele>
        <time>2018-04-02T07:56:45.000Z</time>
      </trkpt>
      <trkpt lat="42.96337" lon="0.86286">
        <ele>1360</ele>
        <time>2018-04-02T07:56:47.000Z</time>
      </trkpt>
      <trkpt lat="42.96337" lon="0.86286">
        <ele>1360</ele>
        <time>2018-04-02T07:56:49.000Z</time>
      </trkpt>
      <trkpt lat="42.96337" lon="0.86286">
        <ele>1360</ele>
        <time>2018-04-02T07:56:51.000Z</time>
      </trkpt>
      <trkpt lat="42.96337" lon="0.86287">
        <ele>1360</ele>
        <time>2018-04-02T07:56:53.000Z</time>
      </trkpt>
      <trkpt lat="42.96337" lon="0.86287">
        <ele>1360</ele>
        <time>2018-04-02T07:56:55.000Z</time>
      </trkpt>
      <trkpt lat="42.96336" lon="0.86287">
        <ele>1360</ele>
        <time>2018-04-02T07:56:57.000Z</time>
      </trkpt>
      <trkpt lat="42.96335" lon="0.86287">
        <ele>1360</ele>
        <time>2018-04-02T07:56:59.000Z</time>
      </trkpt>
      <trkpt lat="42.96336" lon="0.86288">
        <ele>1360</ele>
        <time>2018-04-02T07:57:01.000Z</time>
      </trkpt>
      <trkpt lat="42.96336" lon="0.86288">
        <ele>1360</ele>
        <time>2018-04-02T07:57:03.000Z</time>
      </trkpt>
      <trkpt lat="42.96338" lon="0.86286">
        <ele>1360</ele>
        <time>2018-04-02T07:57:05.000Z</time>
      </trkpt>
      <trkpt lat="42.96337" lon="0.86284">
        <ele>1360</ele>
        <time>2018-04-02T07:57:07.000Z</time>
      </trkpt>
      <trkpt lat="42.96337" lon="0.86284">
        <ele>1360</ele>
        <time>2018-04-02T07:57:09.000Z</time>
      </trkpt>
      <trkpt lat="42.96337" lon="0.86284">
        <ele>1360</ele>
        <time>2018-04-02T07:57:11.000Z</time>
      </trkpt>
      <trkpt lat="42.96335" lon="0.86284">
        <ele>1360</ele>
        <time>2018-04-02T07:57:13.000Z</time>
      </trkpt>
      <trkpt lat="42.96335" lon="0.86284">
        <ele>1360</ele>
        <time>2018-04-02T07:57:15.000Z</time>
      </trkpt>
      <trkpt lat="42.96334" lon="0.86284">
        <ele>1360</ele>
        <time>2018-04-02T07:57:17.000Z</time>
      </trkpt>
      <trkpt lat="42.96334" lon="0.86284">
        <ele>1360</ele>
        <time>2018-04-02T07:57:19.000Z</time>
      </trkpt>
      <trkpt lat="42.96334" lon="0.86284">
        <ele>1360</ele>
        <time>2018-04-02T07:57:21.000Z</time>
      </trkpt>
      <trkpt lat="42.96334" lon="0.86284">
        <ele>1361</ele>
        <time>2018-04-02T07:57:23.000Z</time>
      </trkpt>
      <trkpt lat="42.96333" lon="0.86284">
        <ele>1361</ele>
        <time>2018-04-02T07:57:25.000Z</time>
      </trkpt>
      <trkpt lat="42.96332" lon="0.86284">
        <ele>1361</ele>
        <time>2018-04-02T07:57:27.000Z</time>
      </trkpt>
      <trkpt lat="42.96331" lon="0.86284">
        <ele>1361</ele>
        <time>2018-04-02T07:57:29.000Z</time>
      </trkpt>
      <trkpt lat="42.9633" lon="0.86284">
        <ele>1361</ele>
        <time>2018-04-02T07:57:31.000Z</time>
      </trkpt>
      <trkpt lat="42.96329" lon="0.86284">
        <ele>1361</ele>
        <time>2018-04-02T07:57:33.000Z</time>
      </trkpt>
      <trkpt lat="42.96328" lon="0.86283">
        <ele>1361</ele>
        <time>2018-04-02T07:57:35.000Z</time>
      </trkpt>
      <trkpt lat="42.96328" lon="0.86281">
        <ele>1361</ele>
        <time>2018-04-02T07:57:37.000Z</time>
      </trkpt>
      <trkpt lat="42.96327" lon="0.8628">
        <ele>1361</ele>
        <time>2018-04-02T07:57:39.000Z</time>
      </trkpt>
      <trkpt lat="42.96327" lon="0.86278">
        <ele>1361</ele>
        <time>2018-04-02T07:57:41.000Z</time>
      </trkpt>
      <trkpt lat="42.96328" lon="0.86277">
        <ele>1361</ele>
        <time>2018-04-02T07:57:43.000Z</time>
      </trkpt>
      <trkpt lat="42.96328" lon="0.86277">
        <ele>1361</ele>
        <time>2018-04-02T07:57:45.000Z</time>
      </trkpt>
      <trkpt lat="42.96328" lon="0.86276">
        <ele>1361</ele>
        <time>2018-04-02T07:57:47.000Z</time>
      </trkpt>
      <trkpt lat="42.96328" lon="0.86275">
        <ele>1361</ele>
        <time>2018-04-02T07:57:49.000Z</time>
      </trkpt>
      <trkpt lat="42.96328" lon="0.86274">
        <ele>1361</ele>
        <time>2018-04-02T07:57:51.000Z</time>
      </trkpt>
      <trkpt lat="42.96327" lon="0.86273">
        <ele>1361</ele>
        <time>2018-04-02T07:57:53.000Z</time>
      </trkpt>
      <trkpt lat="42.96328" lon="0.86272">
        <ele>1361</ele>
        <time>2018-04-02T07:57:55.000Z</time>
      </trkpt>
      <trkpt lat="42.96328" lon="0.86271">
        <ele>1361</ele>
        <time>2018-04-02T07:57:57.000Z</time>
      </trkpt>
      <trkpt lat="42.96328" lon="0.86269">
        <ele>1361</ele>
        <time>2018-04-02T07:57:59.000Z</time>
      </trkpt>
      <trkpt lat="42.96328" lon="0.86268">
        <ele>1361</ele>
        <time>2018-04-02T07:58:01.000Z</time>
      </trkpt>
      <trkpt lat="42.9633" lon="0.86267">
        <ele>1361</ele>
        <time>2018-04-02T07:58:03.000Z</time>
      </trkpt>
      <trkpt lat="42.96331" lon="0.86265">
        <ele>1361</ele>
        <time>2018-04-02T07:58:05.000Z</time>
      </trkpt>
      <trkpt lat="42.96332" lon="0.86264">
        <ele>1360</ele>
        <time>2018-04-02T07:58:07.000Z</time>
      </trkpt>
      <trkpt lat="42.96334" lon="0.86262">
        <ele>1360</ele>
        <time>2018-04-02T07:58:09.000Z</time>
      </trkpt>
      <trkpt lat="42.96335" lon="0.86261">
        <ele>1360</ele>
        <time>2018-04-02T07:58:11.000Z</time>
      </trkpt>
      <trkpt lat="42.96336" lon="0.8626">
        <ele>1360</ele>
        <time>2018-04-02T07:58:13.000Z</time>
      </trkpt>
      <trkpt lat="42.96338" lon="0.8626">
        <ele>1360</ele>
        <time>2018-04-02T07:58:15.000Z</time>
      </trkpt>
      <trkpt lat="42.96339" lon="0.8626">
        <ele>1360</ele>
        <time>2018-04-02T07:58:17.000Z</time>
      </trkpt>
      <trkpt lat="42.96341" lon="0.86259">
        <ele>1359</ele>
        <time>2018-04-02T07:58:19.000Z</time>
      </trkpt>
      <trkpt lat="42.96342" lon="0.86259">
        <ele>1359</ele>
        <time>2018-04-02T07:58:21.000Z</time>
      </trkpt>
      <trkpt lat="42.96341" lon="0.86258">
        <ele>1359</ele>
        <time>2018-04-02T07:58:23.000Z</time>
      </trkpt>
      <trkpt lat="42.96341" lon="0.86258">
        <ele>1359</ele>
        <time>2018-04-02T07:58:25.000Z</time>
      </trkpt>
      <trkpt lat="42.96343" lon="0.86259">
        <ele>1359</ele>
        <time>2018-04-02T07:58:27.000Z</time>
      </trkpt>
      <trkpt lat="42.96342" lon="0.86258">
        <ele>1359</ele>
        <time>2018-04-02T07:58:29.000Z</time>
      </trkpt>
      <trkpt lat="42.96341" lon="0.86257">
        <ele>1359</ele>
        <time>2018-04-02T07:58:31.000Z</time>
      </trkpt>
      <trkpt lat="42.9634" lon="0.86256">
        <ele>1359</ele>
        <time>2018-04-02T07:58:33.000Z</time>
      </trkpt>
      <trkpt lat="42.96339" lon="0.86256">
        <ele>1360</ele>
        <time>2018-04-02T07:58:35.000Z</time>
      </trkpt>
      <trkpt lat="42.96338" lon="0.86256">
        <ele>1360</ele>
        <time>2018-04-02T07:58:37.000Z</time>
      </trkpt>
      <trkpt lat="42.96336" lon="0.86255">
        <ele>1360</ele>
        <time>2018-04-02T07:58:39.000Z</time>
      </trkpt>
      <trkpt lat="42.96335" lon="0.86254">
        <ele>1360</ele>
        <time>2018-04-02T07:58:41.000Z</time>
      </trkpt>
      <trkpt lat="42.96334" lon="0.86253">
        <ele>1360</ele>
        <time>2018-04-02T07:58:43.000Z</time>
      </trkpt>
      <trkpt lat="42.96332" lon="0.86251">
        <ele>1360</ele>
        <time>2018-04-02T07:58:45.000Z</time>
      </trkpt>
      <trkpt lat="42.96331" lon="0.8625">
        <ele>1360</ele>
        <time>2018-04-02T07:58:47.000Z</time>
      </trkpt>
      <trkpt lat="42.9633" lon="0.86248">
        <ele>1361</ele>
        <time>2018-04-02T07:58:49.000Z</time>
      </trkpt>
      <trkpt lat="42.96328" lon="0.86247">
        <ele>1361</ele>
        <time>2018-04-02T07:58:51.000Z</time>
      </trkpt>
      <trkpt lat="42.96327" lon="0.86246">
        <ele>1361</ele>
        <time>2018-04-02T07:58:53.000Z</time>
      </trkpt>
      <trkpt lat="42.96325" lon="0.86245">
        <ele>1361</ele>
        <time>2018-04-02T07:58:55.000Z</time>
      </trkpt>
      <trkpt lat="42.96324" lon="0.86243">
        <ele>1361</ele>
        <time>2018-04-02T07:58:57.000Z</time>
      </trkpt>
      <trkpt lat="42.96322" lon="0.86242">
        <ele>1361</ele>
        <time>2018-04-02T07:58:59.000Z</time>
      </trkpt>
      <trkpt lat="42.96321" lon="0.8624">
        <ele>1361</ele>
        <time>2018-04-02T07:59:01.000Z</time>
      </trkpt>
      <trkpt lat="42.9632" lon="0.86238">
        <ele>1361</ele>
        <time>2018-04-02T07:59:03.000Z</time>
      </trkpt>
      <trkpt lat="42.96319" lon="0.86236">
        <ele>1362</ele>
        <time>2018-04-02T07:59:05.000Z</time>
      </trkpt>
      <trkpt lat="42.96318" lon="0.86234">
        <ele>1362</ele>
        <time>2018-04-02T07:59:07.000Z</time>
      </trkpt>
      <trkpt lat="42.96317" lon="0.86233">
        <ele>1362</ele>
        <time>2018-04-02T07:59:09.000Z</time>
      </trkpt>
      <trkpt lat="42.96315" lon="0.86231">
        <ele>1362</ele>
        <time>2018-04-02T07:59:11.000Z</time>
      </trkpt>
      <trkpt lat="42.96313" lon="0.86229">
        <ele>1362</ele>
        <time>2018-04-02T07:59:13.000Z</time>
      </trkpt>
      <trkpt lat="42.96312" lon="0.86228">
        <ele>1362</ele>
        <time>2018-04-02T07:59:15.000Z</time>
      </trkpt>
      <trkpt lat="42.96311" lon="0.86226">
        <ele>1362</ele>
        <time>2018-04-02T07:59:17.000Z</time>
      </trkpt>
      <trkpt lat="42.96309" lon="0.86225">
        <ele>1362</ele>
        <time>2018-04-02T07:59:19.000Z</time>
      </trkpt>
      <trkpt lat="42.96308" lon="0.86223">
        <ele>1363</ele>
        <time>2018-04-02T07:59:21.000Z</time>
      </trkpt>
      <trkpt lat="42.96307" lon="0.86221">
        <ele>1363</ele>
        <time>2018-04-02T07:59:23.000Z</time>
      </trkpt>
      <trkpt lat="42.96306" lon="0.86219">
        <ele>1363</ele>
        <time>2018-04-02T07:59:25.000Z</time>
      </trkpt>
      <trkpt lat="42.96305" lon="0.86218">
        <ele>1363</ele>
        <time>2018-04-02T07:59:27.000Z</time>
      </trkpt>
      <trkpt lat="42.96304" lon="0.86216">
        <ele>1363</ele>
        <time>2018-04-02T07:59:29.000Z</time>
      </trkpt>
      <trkpt lat="42.96304" lon="0.86214">
        <ele>1363</ele>
        <time>2018-04-02T07:59:31.000Z</time>
      </trkpt>
      <trkpt lat="42.96303" lon="0.86212">
        <ele>1363</ele>
        <time>2018-04-02T07:59:33.000Z</time>
      </trkpt>
      <trkpt lat="42.96302" lon="0.8621">
        <ele>1363</ele>
        <time>2018-04-02T07:59:35.000Z</time>
      </trkpt>
      <trkpt lat="42.96302" lon="0.86209">
        <ele>1363</ele>
        <time>2018-04-02T07:59:37.000Z</time>
      </trkpt>
      <trkpt lat="42.96301" lon="0.86207">
        <ele>1363</ele>
        <time>2018-04-02T07:59:39.000Z</time>
      </trkpt>
      <trkpt lat="42.963" lon="0.86205">
        <ele>1363</ele>
        <time>2018-04-02T07:59:41.000Z</time>
      </trkpt>
      <trkpt lat="42.963" lon="0.86204">
        <ele>1363</ele>
        <time>2018-04-02T07:59:43.000Z</time>
      </trkpt>
      <trkpt lat="42.96299" lon="0.86202">
        <ele>1363</ele>
        <time>2018-04-02T07:59:45.000Z</time>
      </trkpt>
      <trkpt lat="42.96298" lon="0.862">
        <ele>1363</ele>
        <time>2018-04-02T07:59:47.000Z</time>
      </trkpt>
      <trkpt lat="42.96297" lon="0.86198">
        <ele>1363</ele>
        <time>2018-04-02T07:59:49.000Z</time>
      </trkpt>
      <trkpt lat="42.96297" lon="0.86196">
        <ele>1363</ele>
        <time>2018-04-02T07:59:51.000Z</time>
      </trkpt>
      <trkpt lat="42.96297" lon="0.86193">
        <ele>1363</ele>
        <time>2018-04-02T07:59:53.000Z</time>
      </trkpt>
      <trkpt lat="42.96297" lon="0.86191">
        <ele>1363</ele>
        <time>2018-04-02T07:59:55.000Z</time>
      </trkpt>
      <trkpt lat="42.96297" lon="0.86189">
        <ele>1363</ele>
        <time>2018-04-02T07:59:57.000Z</time>
      </trkpt>
      <trkpt lat="42.96296" lon="0.86188">
        <ele>1363</ele>
        <time>2018-04-02T07:59:59.000Z</time>
      </trkpt>
      <trkpt lat="42.96296" lon="0.86186">
        <ele>1363</ele>
        <time>2018-04-02T08:00:01.000Z</time>
      </trkpt>
      <trkpt lat="42.96296" lon="0.86185">
        <ele>1363</ele>
        <time>2018-04-02T08:00:03.000Z</time>
      </trkpt>
      <trkpt lat="42.96296" lon="0.86183">
        <ele>1363</ele>
        <time>2018-04-02T08:00:05.000Z</time>
      </trkpt>
      <trkpt lat="42.96296" lon="0.86181">
        <ele>1363</ele>
        <time>2018-04-02T08:00:07.000Z</time>
      </trkpt>
      <trkpt lat="42.96295" lon="0.86179">
        <ele>1363</ele>
        <time>2018-04-02T08:00:09.000Z</time>
      </trkpt>
      <trkpt lat="42.96295" lon="0.86177">
        <ele>1363</ele>
        <time>2018-04-02T08:00:11.000Z</time>
      </trkpt>
      <trkpt lat="42.96294" lon="0.86175">
        <ele>1364</ele>
        <time>2018-04-02T08:00:13.000Z</time>
      </trkpt>
      <trkpt lat="42.96294" lon="0.86174">
        <ele>1364</ele>
        <time>2018-04-02T08:00:15.000Z</time>
      </trkpt>
      <trkpt lat="42.96293" lon="0.86172">
        <ele>1364</ele>
        <time>2018-04-02T08:00:17.000Z</time>
      </trkpt>
      <trkpt lat="42.96293" lon="0.8617">
        <ele>1364</ele>
        <time>2018-04-02T08:00:19.000Z</time>
      </trkpt>
      <trkpt lat="42.96292" lon="0.86169">
        <ele>1364</ele>
        <time>2018-04-02T08:00:21.000Z</time>
      </trkpt>
      <trkpt lat="42.96291" lon="0.86167">
        <ele>1365</ele>
        <time>2018-04-02T08:00:23.000Z</time>
      </trkpt>
      <trkpt lat="42.9629" lon="0.86166">
        <ele>1365</ele>
        <time>2018-04-02T08:00:25.000Z</time>
      </trkpt>
      <trkpt lat="42.96289" lon="0.86165">
        <ele>1365</ele>
        <time>2018-04-02T08:00:27.000Z</time>
      </trkpt>
      <trkpt lat="42.96288" lon="0.86165">
        <ele>1365</ele>
        <time>2018-04-02T08:00:29.000Z</time>
      </trkpt>
      <trkpt lat="42.96287" lon="0.86164">
        <ele>1365</ele>
        <time>2018-04-02T08:00:31.000Z</time>
      </trkpt>
      <trkpt lat="42.96286" lon="0.86162">
        <ele>1365</ele>
        <time>2018-04-02T08:00:33.000Z</time>
      </trkpt>
      <trkpt lat="42.96285" lon="0.8616">
        <ele>1365</ele>
        <time>2018-04-02T08:00:35.000Z</time>
      </trkpt>
      <trkpt lat="42.96285" lon="0.86159">
        <ele>1366</ele>
        <time>2018-04-02T08:00:37.000Z</time>
      </trkpt>
      <trkpt lat="42.96285" lon="0.86158">
        <ele>1366</ele>
        <time>2018-04-02T08:00:39.000Z</time>
      </trkpt>
      <trkpt lat="42.96285" lon="0.86156">
        <ele>1366</ele>
        <time>2018-04-02T08:00:41.000Z</time>
      </trkpt>
      <trkpt lat="42.96284" lon="0.86155">
        <ele>1366</ele>
        <time>2018-04-02T08:00:43.000Z</time>
      </trkpt>
      <trkpt lat="42.96284" lon="0.86155">
        <ele>1366</ele>
        <time>2018-04-02T08:00:45.000Z</time>
      </trkpt>
      <trkpt lat="42.96283" lon="0.86154">
        <ele>1366</ele>
        <time>2018-04-02T08:00:47.000Z</time>
      </trkpt>
      <trkpt lat="42.96283" lon="0.86153">
        <ele>1366</ele>
        <time>2018-04-02T08:00:49.000Z</time>
      </trkpt>
      <trkpt lat="42.96282" lon="0.86151">
        <ele>1367</ele>
        <time>2018-04-02T08:00:51.000Z</time>
      </trkpt>
      <trkpt lat="42.96281" lon="0.86149">
        <ele>1367</ele>
        <time>2018-04-02T08:00:53.000Z</time>
      </trkpt>
      <trkpt lat="42.9628" lon="0.86148">
        <ele>1367</ele>
        <time>2018-04-02T08:00:55.000Z</time>
      </trkpt>
      <trkpt lat="42.96279" lon="0.86146">
        <ele>1367</ele>
        <time>2018-04-02T08:00:57.000Z</time>
      </trkpt>
      <trkpt lat="42.96279" lon="0.86145">
        <ele>1367</ele>
        <time>2018-04-02T08:00:59.000Z</time>
      </trkpt>
      <trkpt lat="42.96278" lon="0.86143">
        <ele>1368</ele>
        <time>2018-04-02T08:01:01.000Z</time>
      </trkpt>
      <trkpt lat="42.96278" lon="0.86142">
        <ele>1368</ele>
        <time>2018-04-02T08:01:03.000Z</time>
      </trkpt>
      <trkpt lat="42.96278" lon="0.8614">
        <ele>1368</ele>
        <time>2018-04-02T08:01:05.000Z</time>
      </trkpt>
      <trkpt lat="42.96277" lon="0.86139">
        <ele>1368</ele>
        <time>2018-04-02T08:01:07.000Z</time>
      </trkpt>
      <trkpt lat="42.96277" lon="0.86138">
        <ele>1368</ele>
        <time>2018-04-02T08:01:09.000Z</time>
      </trkpt>
      <trkpt lat="42.96276" lon="0.86136">
        <ele>1368</ele>
        <time>2018-04-02T08:01:11.000Z</time>
      </trkpt>
      <trkpt lat="42.96276" lon="0.86134">
        <ele>1369</ele>
        <time>2018-04-02T08:01:13.000Z</time>
      </trkpt>
      <trkpt lat="42.96275" lon="0.86133">
        <ele>1369</ele>
        <time>2018-04-02T08:01:15.000Z</time>
      </trkpt>
      <trkpt lat="42.96275" lon="0.86131">
        <ele>1369</ele>
        <time>2018-04-02T08:01:17.000Z</time>
      </trkpt>
      <trkpt lat="42.96274" lon="0.8613">
        <ele>1369</ele>
        <time>2018-04-02T08:01:19.000Z</time>
      </trkpt>
      <trkpt lat="42.96274" lon="0.8613">
        <ele>1369</ele>
        <time>2018-04-02T08:01:21.000Z</time>
      </trkpt>
      <trkpt lat="42.96273" lon="0.86129">
        <ele>1369</ele>
        <time>2018-04-02T08:01:23.000Z</time>
      </trkpt>
      <trkpt lat="42.96272" lon="0.86128">
        <ele>1369</ele>
        <time>2018-04-02T08:01:25.000Z</time>
      </trkpt>
      <trkpt lat="42.96271" lon="0.86128">
        <ele>1369</ele>
        <time>2018-04-02T08:01:27.000Z</time>
      </trkpt>
      <trkpt lat="42.9627" lon="0.86128">
        <ele>1369</ele>
        <time>2018-04-02T08:01:29.000Z</time>
      </trkpt>
      <trkpt lat="42.96269" lon="0.86128">
        <ele>1369</ele>
        <time>2018-04-02T08:01:31.000Z</time>
      </trkpt>
      <trkpt lat="42.96267" lon="0.86127">
        <ele>1369</ele>
        <time>2018-04-02T08:01:33.000Z</time>
      </trkpt>
      <trkpt lat="42.96266" lon="0.86127">
        <ele>1369</ele>
        <time>2018-04-02T08:01:35.000Z</time>
      </trkpt>
      <trkpt lat="42.96265" lon="0.86127">
        <ele>1369</ele>
        <time>2018-04-02T08:01:37.000Z</time>
      </trkpt>
      <trkpt lat="42.96264" lon="0.86127">
        <ele>1369</ele>
        <time>2018-04-02T08:01:39.000Z</time>
      </trkpt>
      <trkpt lat="42.96263" lon="0.86126">
        <ele>1369</ele>
        <time>2018-04-02T08:01:41.000Z</time>
      </trkpt>
      <trkpt lat="42.96262" lon="0.86126">
        <ele>1369</ele>
        <time>2018-04-02T08:01:43.000Z</time>
      </trkpt>
      <trkpt lat="42.96261" lon="0.86124">
        <ele>1369</ele>
        <time>2018-04-02T08:01:45.000Z</time>
      </trkpt>
      <trkpt lat="42.96261" lon="0.86123">
        <ele>1369</ele>
        <time>2018-04-02T08:01:47.000Z</time>
      </trkpt>
      <trkpt lat="42.9626" lon="0.86121">
        <ele>1369</ele>
        <time>2018-04-02T08:01:49.000Z</time>
      </trkpt>
      <trkpt lat="42.9626" lon="0.8612">
        <ele>1369</ele>
        <time>2018-04-02T08:01:51.000Z</time>
      </trkpt>
      <trkpt lat="42.96259" lon="0.86118">
        <ele>1369</ele>
        <time>2018-04-02T08:01:53.000Z</time>
      </trkpt>
      <trkpt lat="42.96258" lon="0.86118">
        <ele>1369</ele>
        <time>2018-04-02T08:01:55.000Z</time>
      </trkpt>
      <trkpt lat="42.96258" lon="0.86116">
        <ele>1370</ele>
        <time>2018-04-02T08:01:57.000Z</time>
      </trkpt>
      <trkpt lat="42.96258" lon="0.86115">
        <ele>1370</ele>
        <time>2018-04-02T08:01:59.000Z</time>
      </trkpt>
      <trkpt lat="42.96257" lon="0.86113">
        <ele>1370</ele>
        <time>2018-04-02T08:02:01.000Z</time>
      </trkpt>
      <trkpt lat="42.96257" lon="0.86112">
        <ele>1370</ele>
        <time>2018-04-02T08:02:03.000Z</time>
      </trkpt>
      <trkpt lat="42.96257" lon="0.8611">
        <ele>1370</ele>
        <time>2018-04-02T08:02:05.000Z</time>
      </trkpt>
      <trkpt lat="42.96256" lon="0.86109">
        <ele>1370</ele>
        <time>2018-04-02T08:02:07.000Z</time>
      </trkpt>
      <trkpt lat="42.96256" lon="0.86107">
        <ele>1371</ele>
        <time>2018-04-02T08:02:09.000Z</time>
      </trkpt>
      <trkpt lat="42.96256" lon="0.86106">
        <ele>1371</ele>
        <time>2018-04-02T08:02:11.000Z</time>
      </trkpt>
      <trkpt lat="42.96256" lon="0.86104">
        <ele>1371</ele>
        <time>2018-04-02T08:02:13.000Z</time>
      </trkpt>
      <trkpt lat="42.96255" lon="0.86103">
        <ele>1371</ele>
        <time>2018-04-02T08:02:15.000Z</time>
      </trkpt>
      <trkpt lat="42.96255" lon="0.86102">
        <ele>1372</ele>
        <time>2018-04-02T08:02:17.000Z</time>
      </trkpt>
      <trkpt lat="42.96254" lon="0.861">
        <ele>1372</ele>
        <time>2018-04-02T08:02:19.000Z</time>
      </trkpt>
      <trkpt lat="42.96254" lon="0.86099">
        <ele>1372</ele>
        <time>2018-04-02T08:02:21.000Z</time>
      </trkpt>
      <trkpt lat="42.96254" lon="0.86097">
        <ele>1372</ele>
        <time>2018-04-02T08:02:23.000Z</time>
      </trkpt>
      <trkpt lat="42.96253" lon="0.86096">
        <ele>1372</ele>
        <time>2018-04-02T08:02:25.000Z</time>
      </trkpt>
      <trkpt lat="42.96253" lon="0.86095">
        <ele>1373</ele>
        <time>2018-04-02T08:02:27.000Z</time>
      </trkpt>
      <trkpt lat="42.96252" lon="0.86094">
        <ele>1373</ele>
        <time>2018-04-02T08:02:29.000Z</time>
      </trkpt>
      <trkpt lat="42.96251" lon="0.86093">
        <ele>1373</ele>
        <time>2018-04-02T08:02:31.000Z</time>
      </trkpt>
      <trkpt lat="42.9625" lon="0.86092">
        <ele>1373</ele>
        <time>2018-04-02T08:02:33.000Z</time>
      </trkpt>
      <trkpt lat="42.96249" lon="0.86091">
        <ele>1374</ele>
        <time>2018-04-02T08:02:35.000Z</time>
      </trkpt>
      <trkpt lat="42.96248" lon="0.8609">
        <ele>1374</ele>
        <time>2018-04-02T08:02:37.000Z</time>
      </trkpt>
      <trkpt lat="42.96247" lon="0.86089">
        <ele>1374</ele>
        <time>2018-04-02T08:02:39.000Z</time>
      </trkpt>
      <trkpt lat="42.96246" lon="0.86087">
        <ele>1374</ele>
        <time>2018-04-02T08:02:41.000Z</time>
      </trkpt>
      <trkpt lat="42.96245" lon="0.86086">
        <ele>1375</ele>
        <time>2018-04-02T08:02:43.000Z</time>
      </trkpt>
      <trkpt lat="42.96244" lon="0.86085">
        <ele>1375</ele>
        <time>2018-04-02T08:02:45.000Z</time>
      </trkpt>
      <trkpt lat="42.96243" lon="0.86083">
        <ele>1375</ele>
        <time>2018-04-02T08:02:47.000Z</time>
      </trkpt>
      <trkpt lat="42.96243" lon="0.86082">
        <ele>1375</ele>
        <time>2018-04-02T08:02:49.000Z</time>
      </trkpt>
      <trkpt lat="42.96243" lon="0.8608">
        <ele>1376</ele>
        <time>2018-04-02T08:02:51.000Z</time>
      </trkpt>
      <trkpt lat="42.96243" lon="0.86078">
        <ele>1376</ele>
        <time>2018-04-02T08:02:53.000Z</time>
      </trkpt>
      <trkpt lat="42.96242" lon="0.86076">
        <ele>1376</ele>
        <time>2018-04-02T08:02:55.000Z</time>
      </trkpt>
      <trkpt lat="42.96242" lon="0.86075">
        <ele>1376</ele>
        <time>2018-04-02T08:02:57.000Z</time>
      </trkpt>
      <trkpt lat="42.96241" lon="0.86073">
        <ele>1376</ele>
        <time>2018-04-02T08:02:59.000Z</time>
      </trkpt>
      <trkpt lat="42.96241" lon="0.86072">
        <ele>1377</ele>
        <time>2018-04-02T08:03:01.000Z</time>
      </trkpt>
      <trkpt lat="42.96241" lon="0.8607">
        <ele>1377</ele>
        <time>2018-04-02T08:03:03.000Z</time>
      </trkpt>
      <trkpt lat="42.9624" lon="0.86069">
        <ele>1377</ele>
        <time>2018-04-02T08:03:05.000Z</time>
      </trkpt>
      <trkpt lat="42.9624" lon="0.86068">
        <ele>1377</ele>
        <time>2018-04-02T08:03:07.000Z</time>
      </trkpt>
      <trkpt lat="42.96239" lon="0.86066">
        <ele>1378</ele>
        <time>2018-04-02T08:03:09.000Z</time>
      </trkpt>
      <trkpt lat="42.96239" lon="0.86065">
        <ele>1378</ele>
        <time>2018-04-02T08:03:11.000Z</time>
      </trkpt>
      <trkpt lat="42.96238" lon="0.86063">
        <ele>1378</ele>
        <time>2018-04-02T08:03:13.000Z</time>
      </trkpt>
      <trkpt lat="42.96238" lon="0.86062">
        <ele>1378</ele>
        <time>2018-04-02T08:03:15.000Z</time>
      </trkpt>
      <trkpt lat="42.96237" lon="0.86061">
        <ele>1378</ele>
        <time>2018-04-02T08:03:17.000Z</time>
      </trkpt>
      <trkpt lat="42.96237" lon="0.8606">
        <ele>1379</ele>
        <time>2018-04-02T08:03:19.000Z</time>
      </trkpt>
      <trkpt lat="42.96236" lon="0.86058">
        <ele>1379</ele>
        <time>2018-04-02T08:03:21.000Z</time>
      </trkpt>
      <trkpt lat="42.96235" lon="0.86057">
        <ele>1379</ele>
        <time>2018-04-02T08:03:23.000Z</time>
      </trkpt>
      <trkpt lat="42.96235" lon="0.86056">
        <ele>1379</ele>
        <time>2018-04-02T08:03:25.000Z</time>
      </trkpt>
      <trkpt lat="42.96234" lon="0.86054">
        <ele>1379</ele>
        <time>2018-04-02T08:03:27.000Z</time>
      </trkpt>
      <trkpt lat="42.96233" lon="0.86053">
        <ele>1379</ele>
        <time>2018-04-02T08:03:29.000Z</time>
      </trkpt>
      <trkpt lat="42.96233" lon="0.86052">
        <ele>1379</ele>
        <time>2018-04-02T08:03:31.000Z</time>
      </trkpt>
      <trkpt lat="42.96232" lon="0.8605">
        <ele>1379</ele>
        <time>2018-04-02T08:03:33.000Z</time>
      </trkpt>
      <trkpt lat="42.96232" lon="0.86048">
        <ele>1379</ele>
        <time>2018-04-02T08:03:35.000Z</time>
      </trkpt>
      <trkpt lat="42.96232" lon="0.86047">
        <ele>1379</ele>
        <time>2018-04-02T08:03:37.000Z</time>
      </trkpt>
      <trkpt lat="42.96232" lon="0.86046">
        <ele>1379</ele>
        <time>2018-04-02T08:03:39.000Z</time>
      </trkpt>
      <trkpt lat="42.96233" lon="0.86044">
        <ele>1379</ele>
        <time>2018-04-02T08:03:41.000Z</time>
      </trkpt>
      <trkpt lat="42.96233" lon="0.86043">
        <ele>1379</ele>
        <time>2018-04-02T08:03:43.000Z</time>
      </trkpt>
      <trkpt lat="42.96233" lon="0.86043">
        <ele>1379</ele>
        <time>2018-04-02T08:03:45.000Z</time>
      </trkpt>
      <trkpt lat="42.96234" lon="0.86042">
        <ele>1379</ele>
        <time>2018-04-02T08:03:47.000Z</time>
      </trkpt>
      <trkpt lat="42.96234" lon="0.86041">
        <ele>1379</ele>
        <time>2018-04-02T08:03:49.000Z</time>
      </trkpt>
      <trkpt lat="42.96234" lon="0.8604">
        <ele>1378</ele>
        <time>2018-04-02T08:03:51.000Z</time>
      </trkpt>
      <trkpt lat="42.96234" lon="0.86038">
        <ele>1378</ele>
        <time>2018-04-02T08:03:53.000Z</time>
      </trkpt>
      <trkpt lat="42.96234" lon="0.86037">
        <ele>1378</ele>
        <time>2018-04-02T08:03:55.000Z</time>
      </trkpt>
      <trkpt lat="42.96234" lon="0.86036">
        <ele>1378</ele>
        <time>2018-04-02T08:03:57.000Z</time>
      </trkpt>
      <trkpt lat="42.96233" lon="0.86035">
        <ele>1378</ele>
        <time>2018-04-02T08:03:59.000Z</time>
      </trkpt>
      <trkpt lat="42.96233" lon="0.86033">
        <ele>1378</ele>
        <time>2018-04-02T08:04:01.000Z</time>
      </trkpt>
      <trkpt lat="42.96233" lon="0.86032">
        <ele>1378</ele>
        <time>2018-04-02T08:04:03.000Z</time>
      </trkpt>
      <trkpt lat="42.96233" lon="0.8603">
        <ele>1378</ele>
        <time>2018-04-02T08:04:05.000Z</time>
      </trkpt>
      <trkpt lat="42.96233" lon="0.86029">
        <ele>1378</ele>
        <time>2018-04-02T08:04:07.000Z</time>
      </trkpt>
      <trkpt lat="42.96233" lon="0.86027">
        <ele>1379</ele>
        <time>2018-04-02T08:04:09.000Z</time>
      </trkpt>
      <trkpt lat="42.96233" lon="0.86026">
        <ele>1379</ele>
        <time>2018-04-02T08:04:11.000Z</time>
      </trkpt>
      <trkpt lat="42.96232" lon="0.86024">
        <ele>1379</ele>
        <time>2018-04-02T08:04:13.000Z</time>
      </trkpt>
      <trkpt lat="42.96232" lon="0.86023">
        <ele>1379</ele>
        <time>2018-04-02T08:04:15.000Z</time>
      </trkpt>
      <trkpt lat="42.96232" lon="0.86021">
        <ele>1379</ele>
        <time>2018-04-02T08:04:17.000Z</time>
      </trkpt>
      <trkpt lat="42.96231" lon="0.8602">
        <ele>1379</ele>
        <time>2018-04-02T08:04:19.000Z</time>
      </trkpt>
      <trkpt lat="42.96231" lon="0.86018">
        <ele>1380</ele>
        <time>2018-04-02T08:04:21.000Z</time>
      </trkpt>
      <trkpt lat="42.96231" lon="0.86017">
        <ele>1380</ele>
        <time>2018-04-02T08:04:23.000Z</time>
      </trkpt>
      <trkpt lat="42.96231" lon="0.86016">
        <ele>1380</ele>
        <time>2018-04-02T08:04:25.000Z</time>
      </trkpt>
      <trkpt lat="42.96231" lon="0.86014">
        <ele>1380</ele>
        <time>2018-04-02T08:04:27.000Z</time>
      </trkpt>
      <trkpt lat="42.96231" lon="0.86013">
        <ele>1380</ele>
        <time>2018-04-02T08:04:29.000Z</time>
      </trkpt>
      <trkpt lat="42.96231" lon="0.86012">
        <ele>1380</ele>
        <time>2018-04-02T08:04:31.000Z</time>
      </trkpt>
      <trkpt lat="42.9623" lon="0.86011">
        <ele>1380</ele>
        <time>2018-04-02T08:04:33.000Z</time>
      </trkpt>
      <trkpt lat="42.96229" lon="0.8601">
        <ele>1381</ele>
        <time>2018-04-02T08:04:35.000Z</time>
      </trkpt>
      <trkpt lat="42.96229" lon="0.86009">
        <ele>1381</ele>
        <time>2018-04-02T08:04:37.000Z</time>
      </trkpt>
      <trkpt lat="42.96229" lon="0.86007">
        <ele>1381</ele>
        <time>2018-04-02T08:04:39.000Z</time>
      </trkpt>
      <trkpt lat="42.96229" lon="0.86006">
        <ele>1381</ele>
        <time>2018-04-02T08:04:41.000Z</time>
      </trkpt>
      <trkpt lat="42.96229" lon="0.86004">
        <ele>1381</ele>
        <time>2018-04-02T08:04:43.000Z</time>
      </trkpt>
      <trkpt lat="42.96229" lon="0.86003">
        <ele>1381</ele>
        <time>2018-04-02T08:04:45.000Z</time>
      </trkpt>
      <trkpt lat="42.96228" lon="0.86">
        <ele>1382</ele>
        <time>2018-04-02T08:04:47.000Z</time>
      </trkpt>
      <trkpt lat="42.96228" lon="0.85998">
        <ele>1382</ele>
        <time>2018-04-02T08:04:49.000Z</time>
      </trkpt>
      <trkpt lat="42.96229" lon="0.85997">
        <ele>1382</ele>
        <time>2018-04-02T08:04:51.000Z</time>
      </trkpt>
      <trkpt lat="42.96229" lon="0.85995">
        <ele>1382</ele>
        <time>2018-04-02T08:04:53.000Z</time>
      </trkpt>
      <trkpt lat="42.96229" lon="0.85994">
        <ele>1382</ele>
        <time>2018-04-02T08:04:55.000Z</time>
      </trkpt>
      <trkpt lat="42.96229" lon="0.85993">
        <ele>1383</ele>
        <time>2018-04-02T08:04:57.000Z</time>
      </trkpt>
      <trkpt lat="42.9623" lon="0.85992">
        <ele>1383</ele>
        <time>2018-04-02T08:04:59.000Z</time>
      </trkpt>
      <trkpt lat="42.9623" lon="0.8599">
        <ele>1383</ele>
        <time>2018-04-02T08:05:01.000Z</time>
      </trkpt>
      <trkpt lat="42.9623" lon="0.85989">
        <ele>1383</ele>
        <time>2018-04-02T08:05:03.000Z</time>
      </trkpt>
      <trkpt lat="42.96231" lon="0.85987">
        <ele>1383</ele>
        <time>2018-04-02T08:05:05.000Z</time>
      </trkpt>
      <trkpt lat="42.96231" lon="0.85986">
        <ele>1383</ele>
        <time>2018-04-02T08:05:07.000Z</time>
      </trkpt>
      <trkpt lat="42.96231" lon="0.85983">
        <ele>1384</ele>
        <time>2018-04-02T08:05:09.000Z</time>
      </trkpt>
      <trkpt lat="42.96231" lon="0.85982">
        <ele>1384</ele>
        <time>2018-04-02T08:05:11.000Z</time>
      </trkpt>
      <trkpt lat="42.9623" lon="0.8598">
        <ele>1384</ele>
        <time>2018-04-02T08:05:13.000Z</time>
      </trkpt>
      <trkpt lat="42.9623" lon="0.85979">
        <ele>1384</ele>
        <time>2018-04-02T08:05:15.000Z</time>
      </trkpt>
      <trkpt lat="42.96228" lon="0.85977">
        <ele>1384</ele>
        <time>2018-04-02T08:05:17.000Z</time>
      </trkpt>
      <trkpt lat="42.96228" lon="0.85975">
        <ele>1385</ele>
        <time>2018-04-02T08:05:19.000Z</time>
      </trkpt>
      <trkpt lat="42.96227" lon="0.85974">
        <ele>1385</ele>
        <time>2018-04-02T08:05:21.000Z</time>
      </trkpt>
      <trkpt lat="42.96226" lon="0.85973">
        <ele>1385</ele>
        <time>2018-04-02T08:05:23.000Z</time>
      </trkpt>
      <trkpt lat="42.96225" lon="0.85972">
        <ele>1385</ele>
        <time>2018-04-02T08:05:25.000Z</time>
      </trkpt>
      <trkpt lat="42.96225" lon="0.85971">
        <ele>1385</ele>
        <time>2018-04-02T08:05:27.000Z</time>
      </trkpt>
      <trkpt lat="42.96224" lon="0.8597">
        <ele>1385</ele>
        <time>2018-04-02T08:05:29.000Z</time>
      </trkpt>
      <trkpt lat="42.96223" lon="0.85968">
        <ele>1385</ele>
        <time>2018-04-02T08:05:31.000Z</time>
      </trkpt>
      <trkpt lat="42.96221" lon="0.85967">
        <ele>1385</ele>
        <time>2018-04-02T08:05:33.000Z</time>
      </trkpt>
      <trkpt lat="42.9622" lon="0.85966">
        <ele>1385</ele>
        <time>2018-04-02T08:05:35.000Z</time>
      </trkpt>
      <trkpt lat="42.96219" lon="0.85964">
        <ele>1385</ele>
        <time>2018-04-02T08:05:37.000Z</time>
      </trkpt>
      <trkpt lat="42.96218" lon="0.85963">
        <ele>1385</ele>
        <time>2018-04-02T08:05:39.000Z</time>
      </trkpt>
      <trkpt lat="42.96218" lon="0.85961">
        <ele>1385</ele>
        <time>2018-04-02T08:05:41.000Z</time>
      </trkpt>
      <trkpt lat="42.96217" lon="0.8596">
        <ele>1385</ele>
        <time>2018-04-02T08:05:43.000Z</time>
      </trkpt>
      <trkpt lat="42.96216" lon="0.85958">
        <ele>1385</ele>
        <time>2018-04-02T08:05:45.000Z</time>
      </trkpt>
      <trkpt lat="42.96215" lon="0.85957">
        <ele>1385</ele>
        <time>2018-04-02T08:05:47.000Z</time>
      </trkpt>
      <trkpt lat="42.96214" lon="0.85955">
        <ele>1385</ele>
        <time>2018-04-02T08:05:49.000Z</time>
      </trkpt>
      <trkpt lat="42.96213" lon="0.85954">
        <ele>1386</ele>
        <time>2018-04-02T08:05:51.000Z</time>
      </trkpt>
      <trkpt lat="42.96212" lon="0.85952">
        <ele>1386</ele>
        <time>2018-04-02T08:05:53.000Z</time>
      </trkpt>
      <trkpt lat="42.96211" lon="0.85951">
        <ele>1386</ele>
        <time>2018-04-02T08:05:55.000Z</time>
      </trkpt>
      <trkpt lat="42.96211" lon="0.85949">
        <ele>1386</ele>
        <time>2018-04-02T08:05:57.000Z</time>
      </trkpt>
      <trkpt lat="42.9621" lon="0.85948">
        <ele>1386</ele>
        <time>2018-04-02T08:05:59.000Z</time>
      </trkpt>
      <trkpt lat="42.96209" lon="0.85947">
        <ele>1386</ele>
        <time>2018-04-02T08:06:01.000Z</time>
      </trkpt>
      <trkpt lat="42.96209" lon="0.85945">
        <ele>1386</ele>
        <time>2018-04-02T08:06:03.000Z</time>
      </trkpt>
      <trkpt lat="42.96208" lon="0.85944">
        <ele>1386</ele>
        <time>2018-04-02T08:06:05.000Z</time>
      </trkpt>
      <trkpt lat="42.96207" lon="0.85942">
        <ele>1386</ele>
        <time>2018-04-02T08:06:07.000Z</time>
      </trkpt>
      <trkpt lat="42.96207" lon="0.85941">
        <ele>1386</ele>
        <time>2018-04-02T08:06:09.000Z</time>
      </trkpt>
      <trkpt lat="42.96205" lon="0.85939">
        <ele>1386</ele>
        <time>2018-04-02T08:06:11.000Z</time>
      </trkpt>
      <trkpt lat="42.96204" lon="0.85937">
        <ele>1386</ele>
        <time>2018-04-02T08:06:13.000Z</time>
      </trkpt>
      <trkpt lat="42.96203" lon="0.85935">
        <ele>1386</ele>
        <time>2018-04-02T08:06:15.000Z</time>
      </trkpt>
      <trkpt lat="42.96202" lon="0.85933">
        <ele>1386</ele>
        <time>2018-04-02T08:06:17.000Z</time>
      </trkpt>
      <trkpt lat="42.96201" lon="0.85932">
        <ele>1386</ele>
        <time>2018-04-02T08:06:19.000Z</time>
      </trkpt>
      <trkpt lat="42.962" lon="0.8593">
        <ele>1386</ele>
        <time>2018-04-02T08:06:21.000Z</time>
      </trkpt>
      <trkpt lat="42.96199" lon="0.8593">
        <ele>1386</ele>
        <time>2018-04-02T08:06:23.000Z</time>
      </trkpt>
      <trkpt lat="42.96197" lon="0.8593">
        <ele>1386</ele>
        <time>2018-04-02T08:06:25.000Z</time>
      </trkpt>
      <trkpt lat="42.96196" lon="0.85927">
        <ele>1387</ele>
        <time>2018-04-02T08:06:27.000Z</time>
      </trkpt>
      <trkpt lat="42.96195" lon="0.85926">
        <ele>1387</ele>
        <time>2018-04-02T08:06:29.000Z</time>
      </trkpt>
      <trkpt lat="42.96194" lon="0.85924">
        <ele>1387</ele>
        <time>2018-04-02T08:06:31.000Z</time>
      </trkpt>
      <trkpt lat="42.96193" lon="0.85922">
        <ele>1387</ele>
        <time>2018-04-02T08:06:33.000Z</time>
      </trkpt>
      <trkpt lat="42.96193" lon="0.8592">
        <ele>1387</ele>
        <time>2018-04-02T08:06:35.000Z</time>
      </trkpt>
      <trkpt lat="42.96191" lon="0.85918">
        <ele>1387</ele>
        <time>2018-04-02T08:06:37.000Z</time>
      </trkpt>
      <trkpt lat="42.9619" lon="0.85917">
        <ele>1387</ele>
        <time>2018-04-02T08:06:39.000Z</time>
      </trkpt>
      <trkpt lat="42.96189" lon="0.85915">
        <ele>1387</ele>
        <time>2018-04-02T08:06:41.000Z</time>
      </trkpt>
      <trkpt lat="42.96189" lon="0.85914">
        <ele>1387</ele>
        <time>2018-04-02T08:06:43.000Z</time>
      </trkpt>
      <trkpt lat="42.96188" lon="0.85912">
        <ele>1387</ele>
        <time>2018-04-02T08:06:45.000Z</time>
      </trkpt>
      <trkpt lat="42.96187" lon="0.8591">
        <ele>1387</ele>
        <time>2018-04-02T08:06:47.000Z</time>
      </trkpt>
      <trkpt lat="42.96186" lon="0.85908">
        <ele>1387</ele>
        <time>2018-04-02T08:06:49.000Z</time>
      </trkpt>
      <trkpt lat="42.96185" lon="0.85907">
        <ele>1387</ele>
        <time>2018-04-02T08:06:51.000Z</time>
      </trkpt>
      <trkpt lat="42.96184" lon="0.85906">
        <ele>1387</ele>
        <time>2018-04-02T08:06:53.000Z</time>
      </trkpt>
      <trkpt lat="42.96184" lon="0.85904">
        <ele>1387</ele>
        <time>2018-04-02T08:06:55.000Z</time>
      </trkpt>
      <trkpt lat="42.96182" lon="0.85903">
        <ele>1387</ele>
        <time>2018-04-02T08:06:57.000Z</time>
      </trkpt>
      <trkpt lat="42.96182" lon="0.85901">
        <ele>1388</ele>
        <time>2018-04-02T08:06:59.000Z</time>
      </trkpt>
      <trkpt lat="42.96181" lon="0.859">
        <ele>1388</ele>
        <time>2018-04-02T08:07:01.000Z</time>
      </trkpt>
      <trkpt lat="42.96181" lon="0.85898">
        <ele>1388</ele>
        <time>2018-04-02T08:07:03.000Z</time>
      </trkpt>
      <trkpt lat="42.96181" lon="0.85896">
        <ele>1388</ele>
        <time>2018-04-02T08:07:05.000Z</time>
      </trkpt>
      <trkpt lat="42.9618" lon="0.85894">
        <ele>1388</ele>
        <time>2018-04-02T08:07:07.000Z</time>
      </trkpt>
      <trkpt lat="42.96179" lon="0.85893">
        <ele>1388</ele>
        <time>2018-04-02T08:07:09.000Z</time>
      </trkpt>
      <trkpt lat="42.96178" lon="0.85891">
        <ele>1388</ele>
        <time>2018-04-02T08:07:11.000Z</time>
      </trkpt>
      <trkpt lat="42.96177" lon="0.85889">
        <ele>1388</ele>
        <time>2018-04-02T08:07:13.000Z</time>
      </trkpt>
      <trkpt lat="42.96177" lon="0.85886">
        <ele>1389</ele>
        <time>2018-04-02T08:07:15.000Z</time>
      </trkpt>
      <trkpt lat="42.96176" lon="0.85885">
        <ele>1389</ele>
        <time>2018-04-02T08:07:17.000Z</time>
      </trkpt>
      <trkpt lat="42.96175" lon="0.85883">
        <ele>1389</ele>
        <time>2018-04-02T08:07:19.000Z</time>
      </trkpt>
      <trkpt lat="42.96175" lon="0.85881">
        <ele>1389</ele>
        <time>2018-04-02T08:07:21.000Z</time>
      </trkpt>
      <trkpt lat="42.96174" lon="0.85879">
        <ele>1389</ele>
        <time>2018-04-02T08:07:23.000Z</time>
      </trkpt>
      <trkpt lat="42.96173" lon="0.85877">
        <ele>1389</ele>
        <time>2018-04-02T08:07:25.000Z</time>
      </trkpt>
      <trkpt lat="42.96172" lon="0.85875">
        <ele>1389</ele>
        <time>2018-04-02T08:07:27.000Z</time>
      </trkpt>
      <trkpt lat="42.96171" lon="0.85873">
        <ele>1389</ele>
        <time>2018-04-02T08:07:29.000Z</time>
      </trkpt>
      <trkpt lat="42.9617" lon="0.85871">
        <ele>1390</ele>
        <time>2018-04-02T08:07:31.000Z</time>
      </trkpt>
      <trkpt lat="42.9617" lon="0.85868">
        <ele>1390</ele>
        <time>2018-04-02T08:07:33.000Z</time>
      </trkpt>
      <trkpt lat="42.96171" lon="0.85865">
        <ele>1390</ele>
        <time>2018-04-02T08:07:35.000Z</time>
      </trkpt>
      <trkpt lat="42.9617" lon="0.85863">
        <ele>1390</ele>
        <time>2018-04-02T08:07:37.000Z</time>
      </trkpt>
      <trkpt lat="42.9617" lon="0.85861">
        <ele>1390</ele>
        <time>2018-04-02T08:07:39.000Z</time>
      </trkpt>
      <trkpt lat="42.96169" lon="0.85858">
        <ele>1391</ele>
        <time>2018-04-02T08:07:41.000Z</time>
      </trkpt>
      <trkpt lat="42.96168" lon="0.85856">
        <ele>1391</ele>
        <time>2018-04-02T08:07:43.000Z</time>
      </trkpt>
      <trkpt lat="42.96168" lon="0.85854">
        <ele>1391</ele>
        <time>2018-04-02T08:07:45.000Z</time>
      </trkpt>
      <trkpt lat="42.96167" lon="0.85853">
        <ele>1391</ele>
        <time>2018-04-02T08:07:47.000Z</time>
      </trkpt>
      <trkpt lat="42.96166" lon="0.85851">
        <ele>1391</ele>
        <time>2018-04-02T08:07:49.000Z</time>
      </trkpt>
      <trkpt lat="42.96165" lon="0.8585">
        <ele>1392</ele>
        <time>2018-04-02T08:07:51.000Z</time>
      </trkpt>
      <trkpt lat="42.96165" lon="0.85848">
        <ele>1392</ele>
        <time>2018-04-02T08:07:53.000Z</time>
      </trkpt>
      <trkpt lat="42.96164" lon="0.85846">
        <ele>1392</ele>
        <time>2018-04-02T08:07:55.000Z</time>
      </trkpt>
      <trkpt lat="42.96164" lon="0.85846">
        <ele>1392</ele>
        <time>2018-04-02T08:07:57.000Z</time>
      </trkpt>
      <trkpt lat="42.96163" lon="0.85844">
        <ele>1392</ele>
        <time>2018-04-02T08:07:59.000Z</time>
      </trkpt>
      <trkpt lat="42.96163" lon="0.85843">
        <ele>1392</ele>
        <time>2018-04-02T08:08:01.000Z</time>
      </trkpt>
      <trkpt lat="42.96162" lon="0.85842">
        <ele>1392</ele>
        <time>2018-04-02T08:08:03.000Z</time>
      </trkpt>
      <trkpt lat="42.96161" lon="0.8584">
        <ele>1393</ele>
        <time>2018-04-02T08:08:05.000Z</time>
      </trkpt>
      <trkpt lat="42.9616" lon="0.85838">
        <ele>1393</ele>
        <time>2018-04-02T08:08:07.000Z</time>
      </trkpt>
      <trkpt lat="42.96159" lon="0.85836">
        <ele>1393</ele>
        <time>2018-04-02T08:08:09.000Z</time>
      </trkpt>
      <trkpt lat="42.96159" lon="0.85835">
        <ele>1393</ele>
        <time>2018-04-02T08:08:11.000Z</time>
      </trkpt>
      <trkpt lat="42.96158" lon="0.85834">
        <ele>1393</ele>
        <time>2018-04-02T08:08:13.000Z</time>
      </trkpt>
      <trkpt lat="42.96156" lon="0.85832">
        <ele>1394</ele>
        <time>2018-04-02T08:08:15.000Z</time>
      </trkpt>
      <trkpt lat="42.96156" lon="0.8583">
        <ele>1394</ele>
        <time>2018-04-02T08:08:17.000Z</time>
      </trkpt>
      <trkpt lat="42.96155" lon="0.85829">
        <ele>1394</ele>
        <time>2018-04-02T08:08:19.000Z</time>
      </trkpt>
      <trkpt lat="42.96154" lon="0.85828">
        <ele>1394</ele>
        <time>2018-04-02T08:08:21.000Z</time>
      </trkpt>
      <trkpt lat="42.96154" lon="0.85826">
        <ele>1394</ele>
        <time>2018-04-02T08:08:23.000Z</time>
      </trkpt>
      <trkpt lat="42.96154" lon="0.85824">
        <ele>1394</ele>
        <time>2018-04-02T08:08:25.000Z</time>
      </trkpt>
      <trkpt lat="42.96153" lon="0.85823">
        <ele>1395</ele>
        <time>2018-04-02T08:08:27.000Z</time>
      </trkpt>
      <trkpt lat="42.96153" lon="0.85821">
        <ele>1395</ele>
        <time>2018-04-02T08:08:29.000Z</time>
      </trkpt>
      <trkpt lat="42.96153" lon="0.85818">
        <ele>1395</ele>
        <time>2018-04-02T08:08:31.000Z</time>
      </trkpt>
      <trkpt lat="42.96153" lon="0.85816">
        <ele>1395</ele>
        <time>2018-04-02T08:08:33.000Z</time>
      </trkpt>
      <trkpt lat="42.96153" lon="0.85813">
        <ele>1395</ele>
        <time>2018-04-02T08:08:35.000Z</time>
      </trkpt>
      <trkpt lat="42.96152" lon="0.85811">
        <ele>1396</ele>
        <time>2018-04-02T08:08:37.000Z</time>
      </trkpt>
      <trkpt lat="42.96152" lon="0.85809">
        <ele>1396</ele>
        <time>2018-04-02T08:08:39.000Z</time>
      </trkpt>
      <trkpt lat="42.96152" lon="0.85807">
        <ele>1396</ele>
        <time>2018-04-02T08:08:41.000Z</time>
      </trkpt>
      <trkpt lat="42.96153" lon="0.85806">
        <ele>1396</ele>
        <time>2018-04-02T08:08:43.000Z</time>
      </trkpt>
      <trkpt lat="42.96153" lon="0.85805">
        <ele>1396</ele>
        <time>2018-04-02T08:08:45.000Z</time>
      </trkpt>
      <trkpt lat="42.96154" lon="0.85803">
        <ele>1396</ele>
        <time>2018-04-02T08:08:47.000Z</time>
      </trkpt>
      <trkpt lat="42.96155" lon="0.85801">
        <ele>1396</ele>
        <time>2018-04-02T08:08:49.000Z</time>
      </trkpt>
      <trkpt lat="42.96155" lon="0.858">
        <ele>1396</ele>
        <time>2018-04-02T08:08:51.000Z</time>
      </trkpt>
      <trkpt lat="42.96156" lon="0.85799">
        <ele>1396</ele>
        <time>2018-04-02T08:08:53.000Z</time>
      </trkpt>
      <trkpt lat="42.96157" lon="0.85797">
        <ele>1396</ele>
        <time>2018-04-02T08:08:55.000Z</time>
      </trkpt>
      <trkpt lat="42.96157" lon="0.85796">
        <ele>1396</ele>
        <time>2018-04-02T08:08:57.000Z</time>
      </trkpt>
      <trkpt lat="42.96158" lon="0.85795">
        <ele>1396</ele>
        <time>2018-04-02T08:08:59.000Z</time>
      </trkpt>
      <trkpt lat="42.96158" lon="0.85793">
        <ele>1396</ele>
        <time>2018-04-02T08:09:01.000Z</time>
      </trkpt>
      <trkpt lat="42.96159" lon="0.85792">
        <ele>1396</ele>
        <time>2018-04-02T08:09:03.000Z</time>
      </trkpt>
      <trkpt lat="42.96159" lon="0.85793">
        <ele>1396</ele>
        <time>2018-04-02T08:09:05.000Z</time>
      </trkpt>
      <trkpt lat="42.9616" lon="0.85794">
        <ele>1396</ele>
        <time>2018-04-02T08:09:07.000Z</time>
      </trkpt>
      <trkpt lat="42.9616" lon="0.85795">
        <ele>1396</ele>
        <time>2018-04-02T08:09:09.000Z</time>
      </trkpt>
      <trkpt lat="42.96159" lon="0.85795">
        <ele>1396</ele>
        <time>2018-04-02T08:09:11.000Z</time>
      </trkpt>
      <trkpt lat="42.96159" lon="0.85796">
        <ele>1396</ele>
        <time>2018-04-02T08:09:13.000Z</time>
      </trkpt>
      <trkpt lat="42.96159" lon="0.85795">
        <ele>1396</ele>
        <time>2018-04-02T08:09:15.000Z</time>
      </trkpt>
      <trkpt lat="42.96158" lon="0.85793">
        <ele>1396</ele>
        <time>2018-04-02T08:09:17.000Z</time>
      </trkpt>
      <trkpt lat="42.96158" lon="0.85791">
        <ele>1396</ele>
        <time>2018-04-02T08:09:19.000Z</time>
      </trkpt>
      <trkpt lat="42.96158" lon="0.85789">
        <ele>1396</ele>
        <time>2018-04-02T08:09:21.000Z</time>
      </trkpt>
      <trkpt lat="42.96158" lon="0.85787">
        <ele>1396</ele>
        <time>2018-04-02T08:09:23.000Z</time>
      </trkpt>
      <trkpt lat="42.96158" lon="0.85785">
        <ele>1396</ele>
        <time>2018-04-02T08:09:25.000Z</time>
      </trkpt>
      <trkpt lat="42.96158" lon="0.85783">
        <ele>1396</ele>
        <time>2018-04-02T08:09:27.000Z</time>
      </trkpt>
      <trkpt lat="42.96158" lon="0.8578">
        <ele>1396</ele>
        <time>2018-04-02T08:09:29.000Z</time>
      </trkpt>
      <trkpt lat="42.96158" lon="0.85778">
        <ele>1396</ele>
        <time>2018-04-02T08:09:31.000Z</time>
      </trkpt>
      <trkpt lat="42.96158" lon="0.85777">
        <ele>1396</ele>
        <time>2018-04-02T08:09:33.000Z</time>
      </trkpt>
      <trkpt lat="42.96159" lon="0.85776">
        <ele>1396</ele>
        <time>2018-04-02T08:09:35.000Z</time>
      </trkpt>
      <trkpt lat="42.9616" lon="0.85775">
        <ele>1396</ele>
        <time>2018-04-02T08:09:37.000Z</time>
      </trkpt>
      <trkpt lat="42.9616" lon="0.85774">
        <ele>1396</ele>
        <time>2018-04-02T08:09:39.000Z</time>
      </trkpt>
      <trkpt lat="42.9616" lon="0.85772">
        <ele>1397</ele>
        <time>2018-04-02T08:09:41.000Z</time>
      </trkpt>
      <trkpt lat="42.9616" lon="0.8577">
        <ele>1397</ele>
        <time>2018-04-02T08:09:43.000Z</time>
      </trkpt>
      <trkpt lat="42.96161" lon="0.85769">
        <ele>1397</ele>
        <time>2018-04-02T08:09:45.000Z</time>
      </trkpt>
      <trkpt lat="42.96161" lon="0.85767">
        <ele>1397</ele>
        <time>2018-04-02T08:09:47.000Z</time>
      </trkpt>
      <trkpt lat="42.96162" lon="0.85766">
        <ele>1397</ele>
        <time>2018-04-02T08:09:49.000Z</time>
      </trkpt>
      <trkpt lat="42.96162" lon="0.85766">
        <ele>1397</ele>
        <time>2018-04-02T08:09:51.000Z</time>
      </trkpt>
      <trkpt lat="42.96163" lon="0.85765">
        <ele>1397</ele>
        <time>2018-04-02T08:09:53.000Z</time>
      </trkpt>
      <trkpt lat="42.96163" lon="0.85763">
        <ele>1397</ele>
        <time>2018-04-02T08:09:55.000Z</time>
      </trkpt>
      <trkpt lat="42.96163" lon="0.85762">
        <ele>1397</ele>
        <time>2018-04-02T08:09:57.000Z</time>
      </trkpt>
      <trkpt lat="42.96164" lon="0.85761">
        <ele>1397</ele>
        <time>2018-04-02T08:09:59.000Z</time>
      </trkpt>
      <trkpt lat="42.96164" lon="0.85759">
        <ele>1397</ele>
        <time>2018-04-02T08:10:01.000Z</time>
      </trkpt>
      <trkpt lat="42.96164" lon="0.85758">
        <ele>1397</ele>
        <time>2018-04-02T08:10:03.000Z</time>
      </trkpt>
      <trkpt lat="42.96165" lon="0.85757">
        <ele>1397</ele>
        <time>2018-04-02T08:10:05.000Z</time>
      </trkpt>
      <trkpt lat="42.96165" lon="0.85755">
        <ele>1397</ele>
        <time>2018-04-02T08:10:07.000Z</time>
      </trkpt>
      <trkpt lat="42.96165" lon="0.85754">
        <ele>1397</ele>
        <time>2018-04-02T08:10:09.000Z</time>
      </trkpt>
      <trkpt lat="42.96165" lon="0.85753">
        <ele>1397</ele>
        <time>2018-04-02T08:10:11.000Z</time>
      </trkpt>
      <trkpt lat="42.96165" lon="0.85751">
        <ele>1397</ele>
        <time>2018-04-02T08:10:13.000Z</time>
      </trkpt>
      <trkpt lat="42.96165" lon="0.8575">
        <ele>1397</ele>
        <time>2018-04-02T08:10:15.000Z</time>
      </trkpt>
      <trkpt lat="42.96165" lon="0.85748">
        <ele>1397</ele>
        <time>2018-04-02T08:10:17.000Z</time>
      </trkpt>
      <trkpt lat="42.96165" lon="0.85747">
        <ele>1397</ele>
        <time>2018-04-02T08:10:19.000Z</time>
      </trkpt>
      <trkpt lat="42.96164" lon="0.85746">
        <ele>1397</ele>
        <time>2018-04-02T08:10:21.000Z</time>
      </trkpt>
      <trkpt lat="42.96163" lon="0.85745">
        <ele>1398</ele>
        <time>2018-04-02T08:10:23.000Z</time>
      </trkpt>
      <trkpt lat="42.96162" lon="0.85744">
        <ele>1398</ele>
        <time>2018-04-02T08:10:25.000Z</time>
      </trkpt>
      <trkpt lat="42.96161" lon="0.85743">
        <ele>1398</ele>
        <time>2018-04-02T08:10:27.000Z</time>
      </trkpt>
      <trkpt lat="42.9616" lon="0.85742">
        <ele>1398</ele>
        <time>2018-04-02T08:10:29.000Z</time>
      </trkpt>
      <trkpt lat="42.96159" lon="0.85741">
        <ele>1398</ele>
        <time>2018-04-02T08:10:31.000Z</time>
      </trkpt>
      <trkpt lat="42.96158" lon="0.8574">
        <ele>1398</ele>
        <time>2018-04-02T08:10:33.000Z</time>
      </trkpt>
      <trkpt lat="42.96157" lon="0.8574">
        <ele>1398</ele>
        <time>2018-04-02T08:10:35.000Z</time>
      </trkpt>
      <trkpt lat="42.96156" lon="0.85739">
        <ele>1398</ele>
        <time>2018-04-02T08:10:37.000Z</time>
      </trkpt>
      <trkpt lat="42.96155" lon="0.85738">
        <ele>1398</ele>
        <time>2018-04-02T08:10:39.000Z</time>
      </trkpt>
      <trkpt lat="42.96154" lon="0.85736">
        <ele>1399</ele>
        <time>2018-04-02T08:10:41.000Z</time>
      </trkpt>
      <trkpt lat="42.96153" lon="0.85733">
        <ele>1399</ele>
        <time>2018-04-02T08:10:43.000Z</time>
      </trkpt>
      <trkpt lat="42.96152" lon="0.85731">
        <ele>1399</ele>
        <time>2018-04-02T08:10:45.000Z</time>
      </trkpt>
      <trkpt lat="42.96151" lon="0.85729">
        <ele>1399</ele>
        <time>2018-04-02T08:10:47.000Z</time>
      </trkpt>
      <trkpt lat="42.9615" lon="0.85728">
        <ele>1399</ele>
        <time>2018-04-02T08:10:49.000Z</time>
      </trkpt>
      <trkpt lat="42.96149" lon="0.85726">
        <ele>1399</ele>
        <time>2018-04-02T08:10:51.000Z</time>
      </trkpt>
      <trkpt lat="42.96148" lon="0.85724">
        <ele>1399</ele>
        <time>2018-04-02T08:10:53.000Z</time>
      </trkpt>
      <trkpt lat="42.96148" lon="0.85722">
        <ele>1400</ele>
        <time>2018-04-02T08:10:55.000Z</time>
      </trkpt>
      <trkpt lat="42.96147" lon="0.8572">
        <ele>1400</ele>
        <time>2018-04-02T08:10:57.000Z</time>
      </trkpt>
      <trkpt lat="42.96146" lon="0.85719">
        <ele>1400</ele>
        <time>2018-04-02T08:10:59.000Z</time>
      </trkpt>
      <trkpt lat="42.96146" lon="0.85717">
        <ele>1400</ele>
        <time>2018-04-02T08:11:01.000Z</time>
      </trkpt>
      <trkpt lat="42.96145" lon="0.85715">
        <ele>1400</ele>
        <time>2018-04-02T08:11:03.000Z</time>
      </trkpt>
      <trkpt lat="42.96144" lon="0.85713">
        <ele>1400</ele>
        <time>2018-04-02T08:11:05.000Z</time>
      </trkpt>
      <trkpt lat="42.96144" lon="0.85711">
        <ele>1400</ele>
        <time>2018-04-02T08:11:07.000Z</time>
      </trkpt>
      <trkpt lat="42.96143" lon="0.85709">
        <ele>1400</ele>
        <time>2018-04-02T08:11:09.000Z</time>
      </trkpt>
      <trkpt lat="42.96143" lon="0.85707">
        <ele>1400</ele>
        <time>2018-04-02T08:11:11.000Z</time>
      </trkpt>
      <trkpt lat="42.96142" lon="0.85705">
        <ele>1400</ele>
        <time>2018-04-02T08:11:13.000Z</time>
      </trkpt>
      <trkpt lat="42.96142" lon="0.85704">
        <ele>1400</ele>
        <time>2018-04-02T08:11:15.000Z</time>
      </trkpt>
      <trkpt lat="42.96141" lon="0.85702">
        <ele>1400</ele>
        <time>2018-04-02T08:11:17.000Z</time>
      </trkpt>
      <trkpt lat="42.96141" lon="0.857">
        <ele>1400</ele>
        <time>2018-04-02T08:11:19.000Z</time>
      </trkpt>
      <trkpt lat="42.96141" lon="0.85698">
        <ele>1400</ele>
        <time>2018-04-02T08:11:21.000Z</time>
      </trkpt>
      <trkpt lat="42.96141" lon="0.85697">
        <ele>1400</ele>
        <time>2018-04-02T08:11:23.000Z</time>
      </trkpt>
      <trkpt lat="42.96141" lon="0.85695">
        <ele>1400</ele>
        <time>2018-04-02T08:11:25.000Z</time>
      </trkpt>
      <trkpt lat="42.96141" lon="0.85693">
        <ele>1400</ele>
        <time>2018-04-02T08:11:27.000Z</time>
      </trkpt>
      <trkpt lat="42.96142" lon="0.85691">
        <ele>1400</ele>
        <time>2018-04-02T08:11:29.000Z</time>
      </trkpt>
      <trkpt lat="42.96142" lon="0.85689">
        <ele>1400</ele>
        <time>2018-04-02T08:11:31.000Z</time>
      </trkpt>
      <trkpt lat="42.96143" lon="0.85688">
        <ele>1400</ele>
        <time>2018-04-02T08:11:33.000Z</time>
      </trkpt>
      <trkpt lat="42.96144" lon="0.85686">
        <ele>1401</ele>
        <time>2018-04-02T08:11:35.000Z</time>
      </trkpt>
      <trkpt lat="42.96144" lon="0.85684">
        <ele>1401</ele>
        <time>2018-04-02T08:11:37.000Z</time>
      </trkpt>
      <trkpt lat="42.96145" lon="0.85683">
        <ele>1401</ele>
        <time>2018-04-02T08:11:39.000Z</time>
      </trkpt>
      <trkpt lat="42.96146" lon="0.85682">
        <ele>1401</ele>
        <time>2018-04-02T08:11:41.000Z</time>
      </trkpt>
      <trkpt lat="42.96146" lon="0.85682">
        <ele>1401</ele>
        <time>2018-04-02T08:11:43.000Z</time>
      </trkpt>
      <trkpt lat="42.96147" lon="0.85681">
        <ele>1401</ele>
        <time>2018-04-02T08:11:45.000Z</time>
      </trkpt>
      <trkpt lat="42.96148" lon="0.85682">
        <ele>1401</ele>
        <time>2018-04-02T08:11:47.000Z</time>
      </trkpt>
      <trkpt lat="42.96149" lon="0.85682">
        <ele>1401</ele>
        <time>2018-04-02T08:11:49.000Z</time>
      </trkpt>
      <trkpt lat="42.9615" lon="0.85682">
        <ele>1401</ele>
        <time>2018-04-02T08:11:51.000Z</time>
      </trkpt>
      <trkpt lat="42.96151" lon="0.85681">
        <ele>1401</ele>
        <time>2018-04-02T08:11:53.000Z</time>
      </trkpt>
      <trkpt lat="42.96152" lon="0.8568">
        <ele>1402</ele>
        <time>2018-04-02T08:11:55.000Z</time>
      </trkpt>
      <trkpt lat="42.96153" lon="0.8568">
        <ele>1402</ele>
        <time>2018-04-02T08:11:57.000Z</time>
      </trkpt>
      <trkpt lat="42.96154" lon="0.85679">
        <ele>1402</ele>
        <time>2018-04-02T08:11:59.000Z</time>
      </trkpt>
      <trkpt lat="42.96154" lon="0.85678">
        <ele>1402</ele>
        <time>2018-04-02T08:12:01.000Z</time>
      </trkpt>
      <trkpt lat="42.96155" lon="0.85677">
        <ele>1402</ele>
        <time>2018-04-02T08:12:03.000Z</time>
      </trkpt>
      <trkpt lat="42.96156" lon="0.85677">
        <ele>1402</ele>
        <time>2018-04-02T08:12:05.000Z</time>
      </trkpt>
      <trkpt lat="42.96156" lon="0.85675">
        <ele>1402</ele>
        <time>2018-04-02T08:12:07.000Z</time>
      </trkpt>
      <trkpt lat="42.96157" lon="0.85674">
        <ele>1402</ele>
        <time>2018-04-02T08:12:09.000Z</time>
      </trkpt>
      <trkpt lat="42.96157" lon="0.85673">
        <ele>1402</ele>
        <time>2018-04-02T08:12:11.000Z</time>
      </trkpt>
      <trkpt lat="42.96156" lon="0.85672">
        <ele>1403</ele>
        <time>2018-04-02T08:12:13.000Z</time>
      </trkpt>
      <trkpt lat="42.96157" lon="0.8567">
        <ele>1403</ele>
        <time>2018-04-02T08:12:15.000Z</time>
      </trkpt>
      <trkpt lat="42.96157" lon="0.8567">
        <ele>1403</ele>
        <time>2018-04-02T08:12:17.000Z</time>
      </trkpt>
      <trkpt lat="42.96157" lon="0.85669">
        <ele>1403</ele>
        <time>2018-04-02T08:12:19.000Z</time>
      </trkpt>
      <trkpt lat="42.96157" lon="0.85669">
        <ele>1403</ele>
        <time>2018-04-02T08:12:21.000Z</time>
      </trkpt>
      <trkpt lat="42.96157" lon="0.85667">
        <ele>1403</ele>
        <time>2018-04-02T08:12:23.000Z</time>
      </trkpt>
      <trkpt lat="42.96156" lon="0.85667">
        <ele>1403</ele>
        <time>2018-04-02T08:12:25.000Z</time>
      </trkpt>
      <trkpt lat="42.96156" lon="0.85667">
        <ele>1403</ele>
        <time>2018-04-02T08:12:27.000Z</time>
      </trkpt>
      <trkpt lat="42.96157" lon="0.85667">
        <ele>1403</ele>
        <time>2018-04-02T08:12:29.000Z</time>
      </trkpt>
      <trkpt lat="42.96157" lon="0.85667">
        <ele>1403</ele>
        <time>2018-04-02T08:12:31.000Z</time>
      </trkpt>
      <trkpt lat="42.96156" lon="0.85667">
        <ele>1403</ele>
        <time>2018-04-02T08:12:33.000Z</time>
      </trkpt>
      <trkpt lat="42.96156" lon="0.85667">
        <ele>1403</ele>
        <time>2018-04-02T08:12:35.000Z</time>
      </trkpt>
      <trkpt lat="42.96156" lon="0.85667">
        <ele>1403</ele>
        <time>2018-04-02T08:12:37.000Z</time>
      </trkpt>
      <trkpt lat="42.96157" lon="0.85667">
        <ele>1403</ele>
        <time>2018-04-02T08:12:39.000Z</time>
      </trkpt>
      <trkpt lat="42.96157" lon="0.85668">
        <ele>1403</ele>
        <time>2018-04-02T08:12:41.000Z</time>
      </trkpt>
      <trkpt lat="42.96158" lon="0.85669">
        <ele>1403</ele>
        <time>2018-04-02T08:12:43.000Z</time>
      </trkpt>
      <trkpt lat="42.96158" lon="0.85669">
        <ele>1403</ele>
        <time>2018-04-02T08:12:45.000Z</time>
      </trkpt>
      <trkpt lat="42.96159" lon="0.8567">
        <ele>1403</ele>
        <time>2018-04-02T08:12:47.000Z</time>
      </trkpt>
      <trkpt lat="42.9616" lon="0.85671">
        <ele>1403</ele>
        <time>2018-04-02T08:12:49.000Z</time>
      </trkpt>
      <trkpt lat="42.9616" lon="0.85671">
        <ele>1403</ele>
        <time>2018-04-02T08:12:51.000Z</time>
      </trkpt>
      <trkpt lat="42.9616" lon="0.85671">
        <ele>1403</ele>
        <time>2018-04-02T08:12:53.000Z</time>
      </trkpt>
      <trkpt lat="42.9616" lon="0.85671">
        <ele>1403</ele>
        <time>2018-04-02T08:12:55.000Z</time>
      </trkpt>
      <trkpt lat="42.9616" lon="0.85672">
        <ele>1403</ele>
        <time>2018-04-02T08:12:57.000Z</time>
      </trkpt>
      <trkpt lat="42.9616" lon="0.85671">
        <ele>1403</ele>
        <time>2018-04-02T08:12:59.000Z</time>
      </trkpt>
      <trkpt lat="42.96161" lon="0.85671">
        <ele>1403</ele>
        <time>2018-04-02T08:13:01.000Z</time>
      </trkpt>
      <trkpt lat="42.9616" lon="0.85671">
        <ele>1403</ele>
        <time>2018-04-02T08:13:03.000Z</time>
      </trkpt>
      <trkpt lat="42.9616" lon="0.85672">
        <ele>1403</ele>
        <time>2018-04-02T08:13:05.000Z</time>
      </trkpt>
      <trkpt lat="42.9616" lon="0.85672">
        <ele>1403</ele>
        <time>2018-04-02T08:13:07.000Z</time>
      </trkpt>
      <trkpt lat="42.96161" lon="0.85672">
        <ele>1403</ele>
        <time>2018-04-02T08:13:09.000Z</time>
      </trkpt>
      <trkpt lat="42.96161" lon="0.85671">
        <ele>1403</ele>
        <time>2018-04-02T08:13:11.000Z</time>
      </trkpt>
      <trkpt lat="42.96162" lon="0.85672">
        <ele>1403</ele>
        <time>2018-04-02T08:13:13.000Z</time>
      </trkpt>
      <trkpt lat="42.96161" lon="0.85673">
        <ele>1403</ele>
        <time>2018-04-02T08:13:15.000Z</time>
      </trkpt>
      <trkpt lat="42.96161" lon="0.85673">
        <ele>1403</ele>
        <time>2018-04-02T08:13:17.000Z</time>
      </trkpt>
      <trkpt lat="42.9616" lon="0.85674">
        <ele>1403</ele>
        <time>2018-04-02T08:13:19.000Z</time>
      </trkpt>
      <trkpt lat="42.9616" lon="0.85674">
        <ele>1403</ele>
        <time>2018-04-02T08:13:21.000Z</time>
      </trkpt>
      <trkpt lat="42.9616" lon="0.85674">
        <ele>1403</ele>
        <time>2018-04-02T08:13:23.000Z</time>
      </trkpt>
      <trkpt lat="42.96159" lon="0.85673">
        <ele>1403</ele>
        <time>2018-04-02T08:13:25.000Z</time>
      </trkpt>
      <trkpt lat="42.96159" lon="0.85673">
        <ele>1403</ele>
        <time>2018-04-02T08:13:27.000Z</time>
      </trkpt>
      <trkpt lat="42.96159" lon="0.85673">
        <ele>1403</ele>
        <time>2018-04-02T08:13:29.000Z</time>
      </trkpt>
      <trkpt lat="42.96159" lon="0.85672">
        <ele>1403</ele>
        <time>2018-04-02T08:13:31.000Z</time>
      </trkpt>
      <trkpt lat="42.96159" lon="0.85673">
        <ele>1403</ele>
        <time>2018-04-02T08:13:33.000Z</time>
      </trkpt>
      <trkpt lat="42.96158" lon="0.85673">
        <ele>1403</ele>
        <time>2018-04-02T08:13:35.000Z</time>
      </trkpt>
      <trkpt lat="42.96158" lon="0.85672">
        <ele>1403</ele>
        <time>2018-04-02T08:13:37.000Z</time>
      </trkpt>
      <trkpt lat="42.96158" lon="0.85673">
        <ele>1403</ele>
        <time>2018-04-02T08:13:39.000Z</time>
      </trkpt>
      <trkpt lat="42.96158" lon="0.85674">
        <ele>1403</ele>
        <time>2018-04-02T08:13:41.000Z</time>
      </trkpt>
      <trkpt lat="42.96158" lon="0.85674">
        <ele>1402</ele>
        <time>2018-04-02T08:13:43.000Z</time>
      </trkpt>
      <trkpt lat="42.96159" lon="0.85675">
        <ele>1402</ele>
        <time>2018-04-02T08:13:45.000Z</time>
      </trkpt>
      <trkpt lat="42.9616" lon="0.85675">
        <ele>1402</ele>
        <time>2018-04-02T08:13:47.000Z</time>
      </trkpt>
      <trkpt lat="42.9616" lon="0.85675">
        <ele>1402</ele>
        <time>2018-04-02T08:13:49.000Z</time>
      </trkpt>
      <trkpt lat="42.9616" lon="0.85675">
        <ele>1402</ele>
        <time>2018-04-02T08:13:51.000Z</time>
      </trkpt>
      <trkpt lat="42.9616" lon="0.85675">
        <ele>1402</ele>
        <time>2018-04-02T08:13:53.000Z</time>
      </trkpt>
      <trkpt lat="42.9616" lon="0.85676">
        <ele>1402</ele>
        <time>2018-04-02T08:13:55.000Z</time>
      </trkpt>
      <trkpt lat="42.9616" lon="0.85676">
        <ele>1402</ele>
        <time>2018-04-02T08:13:57.000Z</time>
      </trkpt>
      <trkpt lat="42.9616" lon="0.85676">
        <ele>1402</ele>
        <time>2018-04-02T08:13:59.000Z</time>
      </trkpt>
      <trkpt lat="42.9616" lon="0.85676">
        <ele>1402</ele>
        <time>2018-04-02T08:14:01.000Z</time>
      </trkpt>
      <trkpt lat="42.9616" lon="0.85675">
        <ele>1402</ele>
        <time>2018-04-02T08:14:03.000Z</time>
      </trkpt>
      <trkpt lat="42.96159" lon="0.85675">
        <ele>1402</ele>
        <time>2018-04-02T08:14:05.000Z</time>
      </trkpt>
      <trkpt lat="42.96159" lon="0.85675">
        <ele>1402</ele>
        <time>2018-04-02T08:14:07.000Z</time>
      </trkpt>
      <trkpt lat="42.96159" lon="0.85675">
        <ele>1402</ele>
        <time>2018-04-02T08:14:09.000Z</time>
      </trkpt>
      <trkpt lat="42.96159" lon="0.85676">
        <ele>1402</ele>
        <time>2018-04-02T08:14:11.000Z</time>
      </trkpt>
      <trkpt lat="42.9616" lon="0.85676">
        <ele>1402</ele>
        <time>2018-04-02T08:14:13.000Z</time>
      </trkpt>
      <trkpt lat="42.9616" lon="0.85676">
        <ele>1402</ele>
        <time>2018-04-02T08:14:15.000Z</time>
      </trkpt>
      <trkpt lat="42.9616" lon="0.85675">
        <ele>1402</ele>
        <time>2018-04-02T08:14:17.000Z</time>
      </trkpt>
      <trkpt lat="42.9616" lon="0.85675">
        <ele>1402</ele>
        <time>2018-04-02T08:14:19.000Z</time>
      </trkpt>
      <trkpt lat="42.9616" lon="0.85675">
        <ele>1402</ele>
        <time>2018-04-02T08:14:21.000Z</time>
      </trkpt>
      <trkpt lat="42.96159" lon="0.85675">
        <ele>1402</ele>
        <time>2018-04-02T08:14:23.000Z</time>
      </trkpt>
      <trkpt lat="42.96159" lon="0.85675">
        <ele>1402</ele>
        <time>2018-04-02T08:14:25.000Z</time>
      </trkpt>
      <trkpt lat="42.96159" lon="0.85675">
        <ele>1402</ele>
        <time>2018-04-02T08:14:27.000Z</time>
      </trkpt>
      <trkpt lat="42.96159" lon="0.85674">
        <ele>1402</ele>
        <time>2018-04-02T08:14:29.000Z</time>
      </trkpt>
      <trkpt lat="42.96159" lon="0.85674">
        <ele>1403</ele>
        <time>2018-04-02T08:14:31.000Z</time>
      </trkpt>
      <trkpt lat="42.96158" lon="0.85674">
        <ele>1402</ele>
        <time>2018-04-02T08:14:33.000Z</time>
      </trkpt>
      <trkpt lat="42.96158" lon="0.85675">
        <ele>1402</ele>
        <time>2018-04-02T08:14:35.000Z</time>
      </trkpt>
      <trkpt lat="42.96158" lon="0.85675">
        <ele>1402</ele>
        <time>2018-04-02T08:14:37.000Z</time>
      </trkpt>
      <trkpt lat="42.96157" lon="0.85675">
        <ele>1402</ele>
        <time>2018-04-02T08:14:39.000Z</time>
      </trkpt>
      <trkpt lat="42.96157" lon="0.85674">
        <ele>1402</ele>
        <time>2018-04-02T08:14:41.000Z</time>
      </trkpt>
      <trkpt lat="42.96157" lon="0.85674">
        <ele>1402</ele>
        <time>2018-04-02T08:14:43.000Z</time>
      </trkpt>
      <trkpt lat="42.96157" lon="0.85675">
        <ele>1402</ele>
        <time>2018-04-02T08:14:45.000Z</time>
      </trkpt>
      <trkpt lat="42.96157" lon="0.85674">
        <ele>1402</ele>
        <time>2018-04-02T08:14:47.000Z</time>
      </trkpt>
      <trkpt lat="42.96158" lon="0.85675">
        <ele>1402</ele>
        <time>2018-04-02T08:14:49.000Z</time>
      </trkpt>
      <trkpt lat="42.96158" lon="0.85675">
        <ele>1402</ele>
        <time>2018-04-02T08:14:51.000Z</time>
      </trkpt>
      <trkpt lat="42.96157" lon="0.85675">
        <ele>1402</ele>
        <time>2018-04-02T08:14:53.000Z</time>
      </trkpt>
      <trkpt lat="42.96157" lon="0.85675">
        <ele>1402</ele>
        <time>2018-04-02T08:14:55.000Z</time>
      </trkpt>
      <trkpt lat="42.96156" lon="0.85676">
        <ele>1402</ele>
        <time>2018-04-02T08:14:57.000Z</time>
      </trkpt>
      <trkpt lat="42.96156" lon="0.85677">
        <ele>1402</ele>
        <time>2018-04-02T08:14:59.000Z</time>
      </trkpt>
      <trkpt lat="42.96156" lon="0.85678">
        <ele>1402</ele>
        <time>2018-04-02T08:15:01.000Z</time>
      </trkpt>
      <trkpt lat="42.96156" lon="0.85678">
        <ele>1402</ele>
        <time>2018-04-02T08:15:03.000Z</time>
      </trkpt>
      <trkpt lat="42.96156" lon="0.85677">
        <ele>1402</ele>
        <time>2018-04-02T08:15:05.000Z</time>
      </trkpt>
      <trkpt lat="42.96157" lon="0.85677">
        <ele>1402</ele>
        <time>2018-04-02T08:15:07.000Z</time>
      </trkpt>
      <trkpt lat="42.96157" lon="0.85677">
        <ele>1402</ele>
        <time>2018-04-02T08:15:09.000Z</time>
      </trkpt>
      <trkpt lat="42.96158" lon="0.85677">
        <ele>1402</ele>
        <time>2018-04-02T08:15:11.000Z</time>
      </trkpt>
      <trkpt lat="42.96157" lon="0.85677">
        <ele>1402</ele>
        <time>2018-04-02T08:15:13.000Z</time>
      </trkpt>
      <trkpt lat="42.96157" lon="0.85676">
        <ele>1402</ele>
        <time>2018-04-02T08:15:15.000Z</time>
      </trkpt>
      <trkpt lat="42.96158" lon="0.85676">
        <ele>1402</ele>
        <time>2018-04-02T08:15:17.000Z</time>
      </trkpt>
      <trkpt lat="42.96158" lon="0.85676">
        <ele>1402</ele>
        <time>2018-04-02T08:15:19.000Z</time>
      </trkpt>
      <trkpt lat="42.96158" lon="0.85676">
        <ele>1402</ele>
        <time>2018-04-02T08:15:21.000Z</time>
      </trkpt>
      <trkpt lat="42.96159" lon="0.85675">
        <ele>1402</ele>
        <time>2018-04-02T08:15:23.000Z</time>
      </trkpt>
      <trkpt lat="42.96159" lon="0.85675">
        <ele>1402</ele>
        <time>2018-04-02T08:15:25.000Z</time>
      </trkpt>
      <trkpt lat="42.96159" lon="0.85675">
        <ele>1402</ele>
        <time>2018-04-02T08:15:27.000Z</time>
      </trkpt>
      <trkpt lat="42.9616" lon="0.85675">
        <ele>1402</ele>
        <time>2018-04-02T08:15:29.000Z</time>
      </trkpt>
      <trkpt lat="42.9616" lon="0.85675">
        <ele>1402</ele>
        <time>2018-04-02T08:15:31.000Z</time>
      </trkpt>
      <trkpt lat="42.9616" lon="0.85674">
        <ele>1403</ele>
        <time>2018-04-02T08:15:33.000Z</time>
      </trkpt>
      <trkpt lat="42.96161" lon="0.85675">
        <ele>1403</ele>
        <time>2018-04-02T08:15:35.000Z</time>
      </trkpt>
      <trkpt lat="42.96161" lon="0.85675">
        <ele>1402</ele>
        <time>2018-04-02T08:15:37.000Z</time>
      </trkpt>
      <trkpt lat="42.9616" lon="0.85676">
        <ele>1402</ele>
        <time>2018-04-02T08:15:39.000Z</time>
      </trkpt>
      <trkpt lat="42.9616" lon="0.85676">
        <ele>1402</ele>
        <time>2018-04-02T08:15:41.000Z</time>
      </trkpt>
      <trkpt lat="42.9616" lon="0.85676">
        <ele>1402</ele>
        <time>2018-04-02T08:15:43.000Z</time>
      </trkpt>
      <trkpt lat="42.9616" lon="0.85676">
        <ele>1402</ele>
        <time>2018-04-02T08:15:45.000Z</time>
      </trkpt>
      <trkpt lat="42.9616" lon="0.85676">
        <ele>1402</ele>
        <time>2018-04-02T08:15:47.000Z</time>
      </trkpt>
      <trkpt lat="42.9616" lon="0.85675">
        <ele>1402</ele>
        <time>2018-04-02T08:15:49.000Z</time>
      </trkpt>
      <trkpt lat="42.96159" lon="0.85675">
        <ele>1402</ele>
        <time>2018-04-02T08:15:51.000Z</time>
      </trkpt>
      <trkpt lat="42.96159" lon="0.85675">
        <ele>1402</ele>
        <time>2018-04-02T08:15:53.000Z</time>
      </trkpt>
      <trkpt lat="42.96159" lon="0.85674">
        <ele>1403</ele>
        <time>2018-04-02T08:15:55.000Z</time>
      </trkpt>
      <trkpt lat="42.96159" lon="0.85674">
        <ele>1403</ele>
        <time>2018-04-02T08:15:57.000Z</time>
      </trkpt>
      <trkpt lat="42.96159" lon="0.85674">
        <ele>1403</ele>
        <time>2018-04-02T08:15:59.000Z</time>
      </trkpt>
      <trkpt lat="42.96159" lon="0.85674">
        <ele>1403</ele>
        <time>2018-04-02T08:16:01.000Z</time>
      </trkpt>
      <trkpt lat="42.9616" lon="0.85674">
        <ele>1403</ele>
        <time>2018-04-02T08:16:03.000Z</time>
      </trkpt>
      <trkpt lat="42.9616" lon="0.85674">
        <ele>1403</ele>
        <time>2018-04-02T08:16:05.000Z</time>
      </trkpt>
      <trkpt lat="42.9616" lon="0.85675">
        <ele>1403</ele>
        <time>2018-04-02T08:16:07.000Z</time>
      </trkpt>
      <trkpt lat="42.9616" lon="0.85675">
        <ele>1402</ele>
        <time>2018-04-02T08:16:09.000Z</time>
      </trkpt>
      <trkpt lat="42.9616" lon="0.85675">
        <ele>1402</ele>
        <time>2018-04-02T08:16:11.000Z</time>
      </trkpt>
      <trkpt lat="42.9616" lon="0.85676">
        <ele>1402</ele>
        <time>2018-04-02T08:16:13.000Z</time>
      </trkpt>
      <trkpt lat="42.9616" lon="0.85676">
        <ele>1402</ele>
        <time>2018-04-02T08:16:15.000Z</time>
      </trkpt>
      <trkpt lat="42.96161" lon="0.85675">
        <ele>1402</ele>
        <time>2018-04-02T08:16:17.000Z</time>
      </trkpt>
      <trkpt lat="42.96161" lon="0.85675">
        <ele>1403</ele>
        <time>2018-04-02T08:16:19.000Z</time>
      </trkpt>
      <trkpt lat="42.9616" lon="0.85675">
        <ele>1402</ele>
        <time>2018-04-02T08:16:21.000Z</time>
      </trkpt>
      <trkpt lat="42.9616" lon="0.85675">
        <ele>1402</ele>
        <time>2018-04-02T08:16:23.000Z</time>
      </trkpt>
      <trkpt lat="42.9616" lon="0.85676">
        <ele>1402</ele>
        <time>2018-04-02T08:16:25.000Z</time>
      </trkpt>
      <trkpt lat="42.9616" lon="0.85676">
        <ele>1402</ele>
        <time>2018-04-02T08:16:27.000Z</time>
      </trkpt>
      <trkpt lat="42.9616" lon="0.85678">
        <ele>1402</ele>
        <time>2018-04-02T08:16:29.000Z</time>
      </trkpt>
      <trkpt lat="42.96159" lon="0.85678">
        <ele>1402</ele>
        <time>2018-04-02T08:16:31.000Z</time>
      </trkpt>
      <trkpt lat="42.96159" lon="0.85679">
        <ele>1402</ele>
        <time>2018-04-02T08:16:33.000Z</time>
      </trkpt>
      <trkpt lat="42.96159" lon="0.85679">
        <ele>1402</ele>
        <time>2018-04-02T08:16:35.000Z</time>
      </trkpt>
      <trkpt lat="42.96159" lon="0.8568">
        <ele>1402</ele>
        <time>2018-04-02T08:16:37.000Z</time>
      </trkpt>
      <trkpt lat="42.9616" lon="0.85679">
        <ele>1402</ele>
        <time>2018-04-02T08:16:39.000Z</time>
      </trkpt>
      <trkpt lat="42.9616" lon="0.85679">
        <ele>1402</ele>
        <time>2018-04-02T08:16:41.000Z</time>
      </trkpt>
      <trkpt lat="42.96161" lon="0.85678">
        <ele>1402</ele>
        <time>2018-04-02T08:16:43.000Z</time>
      </trkpt>
      <trkpt lat="42.9616" lon="0.85677">
        <ele>1402</ele>
        <time>2018-04-02T08:16:45.000Z</time>
      </trkpt>
      <trkpt lat="42.9616" lon="0.85677">
        <ele>1402</ele>
        <time>2018-04-02T08:16:47.000Z</time>
      </trkpt>
      <trkpt lat="42.9616" lon="0.85677">
        <ele>1402</ele>
        <time>2018-04-02T08:16:49.000Z</time>
      </trkpt>
      <trkpt lat="42.9616" lon="0.85676">
        <ele>1402</ele>
        <time>2018-04-02T08:16:51.000Z</time>
      </trkpt>
      <trkpt lat="42.9616" lon="0.85677">
        <ele>1402</ele>
        <time>2018-04-02T08:16:53.000Z</time>
      </trkpt>
      <trkpt lat="42.9616" lon="0.85677">
        <ele>1402</ele>
        <time>2018-04-02T08:16:55.000Z</time>
      </trkpt>
      <trkpt lat="42.9616" lon="0.85677">
        <ele>1402</ele>
        <time>2018-04-02T08:16:57.000Z</time>
      </trkpt>
      <trkpt lat="42.9616" lon="0.85677">
        <ele>1402</ele>
        <time>2018-04-02T08:16:59.000Z</time>
      </trkpt>
      <trkpt lat="42.9616" lon="0.85676">
        <ele>1402</ele>
        <time>2018-04-02T08:17:01.000Z</time>
      </trkpt>
      <trkpt lat="42.9616" lon="0.85676">
        <ele>1402</ele>
        <time>2018-04-02T08:17:03.000Z</time>
      </trkpt>
      <trkpt lat="42.9616" lon="0.85675">
        <ele>1402</ele>
        <time>2018-04-02T08:17:05.000Z</time>
      </trkpt>
      <trkpt lat="42.96161" lon="0.85675">
        <ele>1403</ele>
        <time>2018-04-02T08:17:07.000Z</time>
      </trkpt>
      <trkpt lat="42.96162" lon="0.85675">
        <ele>1403</ele>
        <time>2018-04-02T08:17:09.000Z</time>
      </trkpt>
      <trkpt lat="42.96161" lon="0.85675">
        <ele>1403</ele>
        <time>2018-04-02T08:17:11.000Z</time>
      </trkpt>
      <trkpt lat="42.96161" lon="0.85674">
        <ele>1403</ele>
        <time>2018-04-02T08:17:13.000Z</time>
      </trkpt>
      <trkpt lat="42.96161" lon="0.85673">
        <ele>1403</ele>
        <time>2018-04-02T08:17:15.000Z</time>
      </trkpt>
      <trkpt lat="42.96162" lon="0.85673">
        <ele>1403</ele>
        <time>2018-04-02T08:17:17.000Z</time>
      </trkpt>
      <trkpt lat="42.96162" lon="0.85672">
        <ele>1403</ele>
        <time>2018-04-02T08:17:19.000Z</time>
      </trkpt>
      <trkpt lat="42.96161" lon="0.85672">
        <ele>1403</ele>
        <time>2018-04-02T08:17:21.000Z</time>
      </trkpt>
      <trkpt lat="42.96161" lon="0.85672">
        <ele>1403</ele>
        <time>2018-04-02T08:17:23.000Z</time>
      </trkpt>
      <trkpt lat="42.9616" lon="0.85672">
        <ele>1403</ele>
        <time>2018-04-02T08:17:25.000Z</time>
      </trkpt>
      <trkpt lat="42.96159" lon="0.85672">
        <ele>1403</ele>
        <time>2018-04-02T08:17:27.000Z</time>
      </trkpt>
      <trkpt lat="42.96159" lon="0.85671">
        <ele>1403</ele>
        <time>2018-04-02T08:17:29.000Z</time>
      </trkpt>
      <trkpt lat="42.96159" lon="0.85669">
        <ele>1403</ele>
        <time>2018-04-02T08:17:31.000Z</time>
      </trkpt>
      <trkpt lat="42.96159" lon="0.85667">
        <ele>1403</ele>
        <time>2018-04-02T08:17:33.000Z</time>
      </trkpt>
      <trkpt lat="42.96159" lon="0.85666">
        <ele>1403</ele>
        <time>2018-04-02T08:17:35.000Z</time>
      </trkpt>
      <trkpt lat="42.9616" lon="0.85665">
        <ele>1404</ele>
        <time>2018-04-02T08:17:37.000Z</time>
      </trkpt>
      <trkpt lat="42.9616" lon="0.85664">
        <ele>1404</ele>
        <time>2018-04-02T08:17:39.000Z</time>
      </trkpt>
      <trkpt lat="42.96161" lon="0.85664">
        <ele>1404</ele>
        <time>2018-04-02T08:17:41.000Z</time>
      </trkpt>
      <trkpt lat="42.96161" lon="0.85664">
        <ele>1404</ele>
        <time>2018-04-02T08:17:43.000Z</time>
      </trkpt>
      <trkpt lat="42.96161" lon="0.85664">
        <ele>1404</ele>
        <time>2018-04-02T08:17:45.000Z</time>
      </trkpt>
      <trkpt lat="42.96161" lon="0.85664">
        <ele>1404</ele>
        <time>2018-04-02T08:17:47.000Z</time>
      </trkpt>
      <trkpt lat="42.96161" lon="0.85664">
        <ele>1404</ele>
        <time>2018-04-02T08:17:49.000Z</time>
      </trkpt>
      <trkpt lat="42.96162" lon="0.85664">
        <ele>1404</ele>
        <time>2018-04-02T08:17:51.000Z</time>
      </trkpt>
      <trkpt lat="42.96162" lon="0.85664">
        <ele>1404</ele>
        <time>2018-04-02T08:17:53.000Z</time>
      </trkpt>
      <trkpt lat="42.96163" lon="0.85665">
        <ele>1404</ele>
        <time>2018-04-02T08:17:55.000Z</time>
      </trkpt>
      <trkpt lat="42.96163" lon="0.85666">
        <ele>1404</ele>
        <time>2018-04-02T08:17:57.000Z</time>
      </trkpt>
      <trkpt lat="42.96162" lon="0.85666">
        <ele>1404</ele>
        <time>2018-04-02T08:17:59.000Z</time>
      </trkpt>
      <trkpt lat="42.96162" lon="0.85666">
        <ele>1404</ele>
        <time>2018-04-02T08:18:01.000Z</time>
      </trkpt>
      <trkpt lat="42.96162" lon="0.85666">
        <ele>1404</ele>
        <time>2018-04-02T08:18:03.000Z</time>
      </trkpt>
      <trkpt lat="42.96162" lon="0.85666">
        <ele>1404</ele>
        <time>2018-04-02T08:18:05.000Z</time>
      </trkpt>
      <trkpt lat="42.96161" lon="0.85666">
        <ele>1404</ele>
        <time>2018-04-02T08:18:07.000Z</time>
      </trkpt>
      <trkpt lat="42.96161" lon="0.85666">
        <ele>1403</ele>
        <time>2018-04-02T08:18:09.000Z</time>
      </trkpt>
      <trkpt lat="42.96162" lon="0.85666">
        <ele>1404</ele>
        <time>2018-04-02T08:18:11.000Z</time>
      </trkpt>
      <trkpt lat="42.9616" lon="0.85665">
        <ele>1404</ele>
        <time>2018-04-02T08:18:13.000Z</time>
      </trkpt>
      <trkpt lat="42.9616" lon="0.85665">
        <ele>1404</ele>
        <time>2018-04-02T08:18:15.000Z</time>
      </trkpt>
      <trkpt lat="42.96158" lon="0.85665">
        <ele>1404</ele>
        <time>2018-04-02T08:18:17.000Z</time>
      </trkpt>
      <trkpt lat="42.96157" lon="0.85664">
        <ele>1404</ele>
        <time>2018-04-02T08:18:19.000Z</time>
      </trkpt>
      <trkpt lat="42.96157" lon="0.85664">
        <ele>1404</ele>
        <time>2018-04-02T08:18:21.000Z</time>
      </trkpt>
      <trkpt lat="42.96157" lon="0.85664">
        <ele>1403</ele>
        <time>2018-04-02T08:18:23.000Z</time>
      </trkpt>
      <trkpt lat="42.96156" lon="0.85665">
        <ele>1403</ele>
        <time>2018-04-02T08:18:25.000Z</time>
      </trkpt>
      <trkpt lat="42.96155" lon="0.85664">
        <ele>1403</ele>
        <time>2018-04-02T08:18:27.000Z</time>
      </trkpt>
      <trkpt lat="42.96155" lon="0.85664">
        <ele>1403</ele>
        <time>2018-04-02T08:18:29.000Z</time>
      </trkpt>
      <trkpt lat="42.96154" lon="0.85664">
        <ele>1403</ele>
        <time>2018-04-02T08:18:31.000Z</time>
      </trkpt>
      <trkpt lat="42.96155" lon="0.85664">
        <ele>1403</ele>
        <time>2018-04-02T08:18:33.000Z</time>
      </trkpt>
      <trkpt lat="42.96155" lon="0.85664">
        <ele>1403</ele>
        <time>2018-04-02T08:18:35.000Z</time>
      </trkpt>
      <trkpt lat="42.96155" lon="0.85666">
        <ele>1403</ele>
        <time>2018-04-02T08:18:37.000Z</time>
      </trkpt>
      <trkpt lat="42.96155" lon="0.85667">
        <ele>1403</ele>
        <time>2018-04-02T08:18:39.000Z</time>
      </trkpt>
      <trkpt lat="42.96155" lon="0.85668">
        <ele>1403</ele>
        <time>2018-04-02T08:18:41.000Z</time>
      </trkpt>
      <trkpt lat="42.96157" lon="0.85666">
        <ele>1403</ele>
        <time>2018-04-02T08:18:43.000Z</time>
      </trkpt>
      <trkpt lat="42.96158" lon="0.85662">
        <ele>1404</ele>
        <time>2018-04-02T08:18:45.000Z</time>
      </trkpt>
      <trkpt lat="42.96161" lon="0.8566">
        <ele>1404</ele>
        <time>2018-04-02T08:18:47.000Z</time>
      </trkpt>
      <trkpt lat="42.96164" lon="0.85658">
        <ele>1404</ele>
        <time>2018-04-02T08:18:49.000Z</time>
      </trkpt>
      <trkpt lat="42.96166" lon="0.85659">
        <ele>1405</ele>
        <time>2018-04-02T08:18:51.000Z</time>
      </trkpt>
      <trkpt lat="42.96165" lon="0.85658">
        <ele>1404</ele>
        <time>2018-04-02T08:18:53.000Z</time>
      </trkpt>
      <trkpt lat="42.96163" lon="0.85658">
        <ele>1404</ele>
        <time>2018-04-02T08:18:55.000Z</time>
      </trkpt>
      <trkpt lat="42.9616" lon="0.85657">
        <ele>1404</ele>
        <time>2018-04-02T08:18:57.000Z</time>
      </trkpt>
      <trkpt lat="42.9616" lon="0.85659">
        <ele>1404</ele>
        <time>2018-04-02T08:18:59.000Z</time>
      </trkpt>
      <trkpt lat="42.9616" lon="0.85662">
        <ele>1404</ele>
        <time>2018-04-02T08:19:01.000Z</time>
      </trkpt>
      <trkpt lat="42.9616" lon="0.85664">
        <ele>1404</ele>
        <time>2018-04-02T08:19:03.000Z</time>
      </trkpt>
      <trkpt lat="42.9616" lon="0.85665">
        <ele>1404</ele>
        <time>2018-04-02T08:19:05.000Z</time>
      </trkpt>
      <trkpt lat="42.96161" lon="0.85666">
        <ele>1403</ele>
        <time>2018-04-02T08:19:07.000Z</time>
      </trkpt>
      <trkpt lat="42.9616" lon="0.85666">
        <ele>1403</ele>
        <time>2018-04-02T08:19:09.000Z</time>
      </trkpt>
      <trkpt lat="42.96159" lon="0.85664">
        <ele>1404</ele>
        <time>2018-04-02T08:19:11.000Z</time>
      </trkpt>
      <trkpt lat="42.96159" lon="0.85661">
        <ele>1404</ele>
        <time>2018-04-02T08:19:13.000Z</time>
      </trkpt>
      <trkpt lat="42.96159" lon="0.8566">
        <ele>1404</ele>
        <time>2018-04-02T08:19:15.000Z</time>
      </trkpt>
      <trkpt lat="42.96158" lon="0.8566">
        <ele>1404</ele>
        <time>2018-04-02T08:19:17.000Z</time>
      </trkpt>
      <trkpt lat="42.96159" lon="0.8566">
        <ele>1404</ele>
        <time>2018-04-02T08:19:19.000Z</time>
      </trkpt>
      <trkpt lat="42.96159" lon="0.85659">
        <ele>1404</ele>
        <time>2018-04-02T08:19:21.000Z</time>
      </trkpt>
      <trkpt lat="42.9616" lon="0.85658">
        <ele>1404</ele>
        <time>2018-04-02T08:19:23.000Z</time>
      </trkpt>
      <trkpt lat="42.9616" lon="0.85659">
        <ele>1404</ele>
        <time>2018-04-02T08:19:25.000Z</time>
      </trkpt>
      <trkpt lat="42.9616" lon="0.8566">
        <ele>1404</ele>
        <time>2018-04-02T08:19:27.000Z</time>
      </trkpt>
      <trkpt lat="42.96162" lon="0.85662">
        <ele>1404</ele>
        <time>2018-04-02T08:19:29.000Z</time>
      </trkpt>
      <trkpt lat="42.96163" lon="0.85663">
        <ele>1404</ele>
        <time>2018-04-02T08:19:31.000Z</time>
      </trkpt>
      <trkpt lat="42.96163" lon="0.85664">
        <ele>1404</ele>
        <time>2018-04-02T08:19:33.000Z</time>
      </trkpt>
      <trkpt lat="42.96162" lon="0.85665">
        <ele>1404</ele>
        <time>2018-04-02T08:19:35.000Z</time>
      </trkpt>
      <trkpt lat="42.96162" lon="0.85666">
        <ele>1403</ele>
        <time>2018-04-02T08:19:37.000Z</time>
      </trkpt>
      <trkpt lat="42.96163" lon="0.85669">
        <ele>1403</ele>
        <time>2018-04-02T08:19:39.000Z</time>
      </trkpt>
      <trkpt lat="42.96163" lon="0.8567">
        <ele>1403</ele>
        <time>2018-04-02T08:19:41.000Z</time>
      </trkpt>
      <trkpt lat="42.96164" lon="0.8567">
        <ele>1403</ele>
        <time>2018-04-02T08:19:43.000Z</time>
      </trkpt>
      <trkpt lat="42.96165" lon="0.85671">
        <ele>1403</ele>
        <time>2018-04-02T08:19:45.000Z</time>
      </trkpt>
      <trkpt lat="42.96165" lon="0.85671">
        <ele>1403</ele>
        <time>2018-04-02T08:19:47.000Z</time>
      </trkpt>
      <trkpt lat="42.96165" lon="0.85671">
        <ele>1403</ele>
        <time>2018-04-02T08:19:49.000Z</time>
      </trkpt>
      <trkpt lat="42.96164" lon="0.85672">
        <ele>1403</ele>
        <time>2018-04-02T08:19:51.000Z</time>
      </trkpt>
      <trkpt lat="42.96163" lon="0.85677">
        <ele>1402</ele>
        <time>2018-04-02T08:19:53.000Z</time>
      </trkpt>
      <trkpt lat="42.96162" lon="0.85676">
        <ele>1402</ele>
        <time>2018-04-02T08:19:55.000Z</time>
      </trkpt>
      <trkpt lat="42.96161" lon="0.85674">
        <ele>1403</ele>
        <time>2018-04-02T08:19:57.000Z</time>
      </trkpt>
      <trkpt lat="42.9616" lon="0.85675">
        <ele>1402</ele>
        <time>2018-04-02T08:19:59.000Z</time>
      </trkpt>
      <trkpt lat="42.9616" lon="0.85675">
        <ele>1402</ele>
        <time>2018-04-02T08:20:01.000Z</time>
      </trkpt>
      <trkpt lat="42.96159" lon="0.85674">
        <ele>1402</ele>
        <time>2018-04-02T08:20:03.000Z</time>
      </trkpt>
      <trkpt lat="42.96158" lon="0.85674">
        <ele>1402</ele>
        <time>2018-04-02T08:20:05.000Z</time>
      </trkpt>
      <trkpt lat="42.96159" lon="0.85675">
        <ele>1402</ele>
        <time>2018-04-02T08:20:07.000Z</time>
      </trkpt>
      <trkpt lat="42.9616" lon="0.85674">
        <ele>1403</ele>
        <time>2018-04-02T08:20:09.000Z</time>
      </trkpt>
      <trkpt lat="42.96159" lon="0.85674">
        <ele>1403</ele>
        <time>2018-04-02T08:20:11.000Z</time>
      </trkpt>
      <trkpt lat="42.9616" lon="0.85674">
        <ele>1403</ele>
        <time>2018-04-02T08:20:13.000Z</time>
      </trkpt>
      <trkpt lat="42.96159" lon="0.85674">
        <ele>1402</ele>
        <time>2018-04-02T08:20:15.000Z</time>
      </trkpt>
      <trkpt lat="42.9616" lon="0.85674">
        <ele>1403</ele>
        <time>2018-04-02T08:20:17.000Z</time>
      </trkpt>
      <trkpt lat="42.9616" lon="0.85675">
        <ele>1402</ele>
        <time>2018-04-02T08:20:19.000Z</time>
      </trkpt>
      <trkpt lat="42.9616" lon="0.85675">
        <ele>1402</ele>
        <time>2018-04-02T08:20:21.000Z</time>
      </trkpt>
      <trkpt lat="42.96161" lon="0.85675">
        <ele>1403</ele>
        <time>2018-04-02T08:20:23.000Z</time>
      </trkpt>
      <trkpt lat="42.9616" lon="0.85675">
        <ele>1402</ele>
        <time>2018-04-02T08:20:25.000Z</time>
      </trkpt>
      <trkpt lat="42.9616" lon="0.85676">
        <ele>1402</ele>
        <time>2018-04-02T08:20:27.000Z</time>
      </trkpt>
      <trkpt lat="42.9616" lon="0.85677">
        <ele>1402</ele>
        <time>2018-04-02T08:20:29.000Z</time>
      </trkpt>
      <trkpt lat="42.9616" lon="0.85676">
        <ele>1402</ele>
        <time>2018-04-02T08:20:31.000Z</time>
      </trkpt>
      <trkpt lat="42.96159" lon="0.85676">
        <ele>1402</ele>
        <time>2018-04-02T08:20:33.000Z</time>
      </trkpt>
      <trkpt lat="42.96159" lon="0.85675">
        <ele>1402</ele>
        <time>2018-04-02T08:20:35.000Z</time>
      </trkpt>
      <trkpt lat="42.9616" lon="0.85676">
        <ele>1402</ele>
        <time>2018-04-02T08:20:37.000Z</time>
      </trkpt>
      <trkpt lat="42.9616" lon="0.85676">
        <ele>1402</ele>
        <time>2018-04-02T08:20:39.000Z</time>
      </trkpt>
      <trkpt lat="42.9616" lon="0.85676">
        <ele>1402</ele>
        <time>2018-04-02T08:20:41.000Z</time>
      </trkpt>
      <trkpt lat="42.9616" lon="0.85676">
        <ele>1402</ele>
        <time>2018-04-02T08:20:43.000Z</time>
      </trkpt>
      <trkpt lat="42.9616" lon="0.85675">
        <ele>1402</ele>
        <time>2018-04-02T08:20:45.000Z</time>
      </trkpt>
      <trkpt lat="42.96161" lon="0.85675">
        <ele>1402</ele>
        <time>2018-04-02T08:20:47.000Z</time>
      </trkpt>
      <trkpt lat="42.96161" lon="0.85675">
        <ele>1403</ele>
        <time>2018-04-02T08:20:49.000Z</time>
      </trkpt>
      <trkpt lat="42.96161" lon="0.85675">
        <ele>1403</ele>
        <time>2018-04-02T08:20:51.000Z</time>
      </trkpt>
      <trkpt lat="42.96161" lon="0.85675">
        <ele>1403</ele>
        <time>2018-04-02T08:20:53.000Z</time>
      </trkpt>
      <trkpt lat="42.96161" lon="0.85675">
        <ele>1402</ele>
        <time>2018-04-02T08:20:55.000Z</time>
      </trkpt>
      <trkpt lat="42.96161" lon="0.85676">
        <ele>1402</ele>
        <time>2018-04-02T08:20:57.000Z</time>
      </trkpt>
      <trkpt lat="42.9616" lon="0.85677">
        <ele>1402</ele>
        <time>2018-04-02T08:20:59.000Z</time>
      </trkpt>
      <trkpt lat="42.9616" lon="0.85676">
        <ele>1402</ele>
        <time>2018-04-02T08:21:01.000Z</time>
      </trkpt>
      <trkpt lat="42.9616" lon="0.85676">
        <ele>1402</ele>
        <time>2018-04-02T08:21:03.000Z</time>
      </trkpt>
      <trkpt lat="42.9616" lon="0.85676">
        <ele>1402</ele>
        <time>2018-04-02T08:21:05.000Z</time>
      </trkpt>
      <trkpt lat="42.9616" lon="0.85676">
        <ele>1402</ele>
        <time>2018-04-02T08:21:07.000Z</time>
      </trkpt>
      <trkpt lat="42.9616" lon="0.85676">
        <ele>1402</ele>
        <time>2018-04-02T08:21:09.000Z</time>
      </trkpt>
      <trkpt lat="42.9616" lon="0.85675">
        <ele>1402</ele>
        <time>2018-04-02T08:21:11.000Z</time>
      </trkpt>
      <trkpt lat="42.9616" lon="0.85675">
        <ele>1402</ele>
        <time>2018-04-02T08:21:13.000Z</time>
      </trkpt>
      <trkpt lat="42.96161" lon="0.85675">
        <ele>1402</ele>
        <time>2018-04-02T08:21:15.000Z</time>
      </trkpt>
      <trkpt lat="42.96161" lon="0.85675">
        <ele>1402</ele>
        <time>2018-04-02T08:21:17.000Z</time>
      </trkpt>
      <trkpt lat="42.9616" lon="0.85675">
        <ele>1402</ele>
        <time>2018-04-02T08:21:19.000Z</time>
      </trkpt>
      <trkpt lat="42.9616" lon="0.85675">
        <ele>1402</ele>
        <time>2018-04-02T08:21:21.000Z</time>
      </trkpt>
      <trkpt lat="42.96159" lon="0.85675">
        <ele>1402</ele>
        <time>2018-04-02T08:21:23.000Z</time>
      </trkpt>
      <trkpt lat="42.96159" lon="0.85675">
        <ele>1402</ele>
        <time>2018-04-02T08:21:25.000Z</time>
      </trkpt>
      <trkpt lat="42.96159" lon="0.85675">
        <ele>1402</ele>
        <time>2018-04-02T08:21:27.000Z</time>
      </trkpt>
      <trkpt lat="42.96159" lon="0.85675">
        <ele>1402</ele>
        <time>2018-04-02T08:21:29.000Z</time>
      </trkpt>
      <trkpt lat="42.96159" lon="0.85675">
        <ele>1402</ele>
        <time>2018-04-02T08:21:31.000Z</time>
      </trkpt>
      <trkpt lat="42.96159" lon="0.85674">
        <ele>1402</ele>
        <time>2018-04-02T08:21:33.000Z</time>
      </trkpt>
      <trkpt lat="42.9616" lon="0.85674">
        <ele>1403</ele>
        <time>2018-04-02T08:21:35.000Z</time>
      </trkpt>
      <trkpt lat="42.9616" lon="0.85674">
        <ele>1403</ele>
        <time>2018-04-02T08:21:37.000Z</time>
      </trkpt>
      <trkpt lat="42.96161" lon="0.85674">
        <ele>1403</ele>
        <time>2018-04-02T08:21:39.000Z</time>
      </trkpt>
      <trkpt lat="42.96161" lon="0.85674">
        <ele>1403</ele>
        <time>2018-04-02T08:21:41.000Z</time>
      </trkpt>
      <trkpt lat="42.96161" lon="0.85674">
        <ele>1403</ele>
        <time>2018-04-02T08:21:43.000Z</time>
      </trkpt>
      <trkpt lat="42.9616" lon="0.85673">
        <ele>1403</ele>
        <time>2018-04-02T08:21:45.000Z</time>
      </trkpt>
      <trkpt lat="42.9616" lon="0.85673">
        <ele>1403</ele>
        <time>2018-04-02T08:21:47.000Z</time>
      </trkpt>
      <trkpt lat="42.9616" lon="0.85673">
        <ele>1403</ele>
        <time>2018-04-02T08:21:49.000Z</time>
      </trkpt>
      <trkpt lat="42.9616" lon="0.85672">
        <ele>1403</ele>
        <time>2018-04-02T08:21:51.000Z</time>
      </trkpt>
      <trkpt lat="42.9616" lon="0.85672">
        <ele>1403</ele>
        <time>2018-04-02T08:21:53.000Z</time>
      </trkpt>
      <trkpt lat="42.96161" lon="0.85671">
        <ele>1403</ele>
        <time>2018-04-02T08:21:55.000Z</time>
      </trkpt>
      <trkpt lat="42.96162" lon="0.85671">
        <ele>1403</ele>
        <time>2018-04-02T08:21:57.000Z</time>
      </trkpt>
      <trkpt lat="42.96162" lon="0.8567">
        <ele>1403</ele>
        <time>2018-04-02T08:21:59.000Z</time>
      </trkpt>
      <trkpt lat="42.96162" lon="0.8567">
        <ele>1403</ele>
        <time>2018-04-02T08:22:01.000Z</time>
      </trkpt>
      <trkpt lat="42.96161" lon="0.8567">
        <ele>1403</ele>
        <time>2018-04-02T08:22:03.000Z</time>
      </trkpt>
      <trkpt lat="42.96161" lon="0.85671">
        <ele>1403</ele>
        <time>2018-04-02T08:22:05.000Z</time>
      </trkpt>
      <trkpt lat="42.96161" lon="0.85671">
        <ele>1403</ele>
        <time>2018-04-02T08:22:07.000Z</time>
      </trkpt>
      <trkpt lat="42.9616" lon="0.85672">
        <ele>1403</ele>
        <time>2018-04-02T08:22:09.000Z</time>
      </trkpt>
      <trkpt lat="42.9616" lon="0.85672">
        <ele>1403</ele>
        <time>2018-04-02T08:22:11.000Z</time>
      </trkpt>
      <trkpt lat="42.9616" lon="0.85673">
        <ele>1403</ele>
        <time>2018-04-02T08:22:13.000Z</time>
      </trkpt>
      <trkpt lat="42.9616" lon="0.85673">
        <ele>1403</ele>
        <time>2018-04-02T08:22:15.000Z</time>
      </trkpt>
      <trkpt lat="42.96161" lon="0.85673">
        <ele>1403</ele>
        <time>2018-04-02T08:22:17.000Z</time>
      </trkpt>
      <trkpt lat="42.96161" lon="0.85673">
        <ele>1403</ele>
        <time>2018-04-02T08:22:19.000Z</time>
      </trkpt>
      <trkpt lat="42.96161" lon="0.85673">
        <ele>1403</ele>
        <time>2018-04-02T08:22:21.000Z</time>
      </trkpt>
      <trkpt lat="42.96162" lon="0.85673">
        <ele>1403</ele>
        <time>2018-04-02T08:22:23.000Z</time>
      </trkpt>
      <trkpt lat="42.96162" lon="0.85673">
        <ele>1403</ele>
        <time>2018-04-02T08:22:25.000Z</time>
      </trkpt>
      <trkpt lat="42.96163" lon="0.85673">
        <ele>1403</ele>
        <time>2018-04-02T08:22:27.000Z</time>
      </trkpt>
      <trkpt lat="42.96163" lon="0.85674">
        <ele>1403</ele>
        <time>2018-04-02T08:22:29.000Z</time>
      </trkpt>
      <trkpt lat="42.96163" lon="0.85675">
        <ele>1403</ele>
        <time>2018-04-02T08:22:31.000Z</time>
      </trkpt>
      <trkpt lat="42.96164" lon="0.85676">
        <ele>1403</ele>
        <time>2018-04-02T08:22:33.000Z</time>
      </trkpt>
      <trkpt lat="42.96163" lon="0.85678">
        <ele>1402</ele>
        <time>2018-04-02T08:22:35.000Z</time>
      </trkpt>
      <trkpt lat="42.96162" lon="0.8568">
        <ele>1402</ele>
        <time>2018-04-02T08:22:37.000Z</time>
      </trkpt>
      <trkpt lat="42.96161" lon="0.85683">
        <ele>1402</ele>
        <time>2018-04-02T08:22:39.000Z</time>
      </trkpt>
      <trkpt lat="42.96162" lon="0.85682">
        <ele>1402</ele>
        <time>2018-04-02T08:22:41.000Z</time>
      </trkpt>
      <trkpt lat="42.96162" lon="0.85681">
        <ele>1402</ele>
        <time>2018-04-02T08:22:43.000Z</time>
      </trkpt>
      <trkpt lat="42.96162" lon="0.85681">
        <ele>1402</ele>
        <time>2018-04-02T08:22:45.000Z</time>
      </trkpt>
      <trkpt lat="42.96162" lon="0.85679">
        <ele>1402</ele>
        <time>2018-04-02T08:22:47.000Z</time>
      </trkpt>
      <trkpt lat="42.96162" lon="0.85678">
        <ele>1402</ele>
        <time>2018-04-02T08:22:49.000Z</time>
      </trkpt>
      <trkpt lat="42.96162" lon="0.85676">
        <ele>1402</ele>
        <time>2018-04-02T08:22:51.000Z</time>
      </trkpt>
      <trkpt lat="42.96163" lon="0.85675">
        <ele>1403</ele>
        <time>2018-04-02T08:22:53.000Z</time>
      </trkpt>
      <trkpt lat="42.96163" lon="0.85675">
        <ele>1403</ele>
        <time>2018-04-02T08:22:55.000Z</time>
      </trkpt>
      <trkpt lat="42.96163" lon="0.85675">
        <ele>1403</ele>
        <time>2018-04-02T08:22:57.000Z</time>
      </trkpt>
      <trkpt lat="42.96164" lon="0.85674">
        <ele>1403</ele>
        <time>2018-04-02T08:22:59.000Z</time>
      </trkpt>
      <trkpt lat="42.96164" lon="0.85674">
        <ele>1403</ele>
        <time>2018-04-02T08:23:01.000Z</time>
      </trkpt>
      <trkpt lat="42.96165" lon="0.85673">
        <ele>1403</ele>
        <time>2018-04-02T08:23:03.000Z</time>
      </trkpt>
      <trkpt lat="42.96165" lon="0.85673">
        <ele>1403</ele>
        <time>2018-04-02T08:23:05.000Z</time>
      </trkpt>
      <trkpt lat="42.96165" lon="0.85673">
        <ele>1403</ele>
        <time>2018-04-02T08:23:07.000Z</time>
      </trkpt>
      <trkpt lat="42.96165" lon="0.85674">
        <ele>1403</ele>
        <time>2018-04-02T08:23:09.000Z</time>
      </trkpt>
      <trkpt lat="42.96165" lon="0.85674">
        <ele>1403</ele>
        <time>2018-04-02T08:23:11.000Z</time>
      </trkpt>
      <trkpt lat="42.96165" lon="0.85675">
        <ele>1403</ele>
        <time>2018-04-02T08:23:13.000Z</time>
      </trkpt>
      <trkpt lat="42.96164" lon="0.85676">
        <ele>1403</ele>
        <time>2018-04-02T08:23:15.000Z</time>
      </trkpt>
      <trkpt lat="42.96164" lon="0.85677">
        <ele>1402</ele>
        <time>2018-04-02T08:23:17.000Z</time>
      </trkpt>
      <trkpt lat="42.96164" lon="0.85678">
        <ele>1402</ele>
        <time>2018-04-02T08:23:19.000Z</time>
      </trkpt>
      <trkpt lat="42.96163" lon="0.85678">
        <ele>1402</ele>
        <time>2018-04-02T08:23:21.000Z</time>
      </trkpt>
      <trkpt lat="42.96163" lon="0.85679">
        <ele>1402</ele>
        <time>2018-04-02T08:23:23.000Z</time>
      </trkpt>
      <trkpt lat="42.96162" lon="0.8568">
        <ele>1402</ele>
        <time>2018-04-02T08:23:25.000Z</time>
      </trkpt>
      <trkpt lat="42.96161" lon="0.85681">
        <ele>1402</ele>
        <time>2018-04-02T08:23:27.000Z</time>
      </trkpt>
      <trkpt lat="42.96161" lon="0.85681">
        <ele>1402</ele>
        <time>2018-04-02T08:23:29.000Z</time>
      </trkpt>
      <trkpt lat="42.9616" lon="0.85681">
        <ele>1402</ele>
        <time>2018-04-02T08:23:31.000Z</time>
      </trkpt>
      <trkpt lat="42.9616" lon="0.8568">
        <ele>1402</ele>
        <time>2018-04-02T08:23:33.000Z</time>
      </trkpt>
      <trkpt lat="42.9616" lon="0.8568">
        <ele>1402</ele>
        <time>2018-04-02T08:23:35.000Z</time>
      </trkpt>
      <trkpt lat="42.9616" lon="0.8568">
        <ele>1402</ele>
        <time>2018-04-02T08:23:37.000Z</time>
      </trkpt>
      <trkpt lat="42.9616" lon="0.8568">
        <ele>1402</ele>
        <time>2018-04-02T08:23:39.000Z</time>
      </trkpt>
      <trkpt lat="42.9616" lon="0.85679">
        <ele>1402</ele>
        <time>2018-04-02T08:23:41.000Z</time>
      </trkpt>
      <trkpt lat="42.9616" lon="0.85679">
        <ele>1402</ele>
        <time>2018-04-02T08:23:43.000Z</time>
      </trkpt>
      <trkpt lat="42.9616" lon="0.85678">
        <ele>1402</ele>
        <time>2018-04-02T08:23:45.000Z</time>
      </trkpt>
      <trkpt lat="42.9616" lon="0.85678">
        <ele>1402</ele>
        <time>2018-04-02T08:23:47.000Z</time>
      </trkpt>
      <trkpt lat="42.9616" lon="0.85677">
        <ele>1402</ele>
        <time>2018-04-02T08:23:49.000Z</time>
      </trkpt>
      <trkpt lat="42.9616" lon="0.85677">
        <ele>1402</ele>
        <time>2018-04-02T08:23:51.000Z</time>
      </trkpt>
      <trkpt lat="42.96161" lon="0.85677">
        <ele>1402</ele>
        <time>2018-04-02T08:23:53.000Z</time>
      </trkpt>
      <trkpt lat="42.96161" lon="0.85677">
        <ele>1402</ele>
        <time>2018-04-02T08:23:55.000Z</time>
      </trkpt>
      <trkpt lat="42.96161" lon="0.85677">
        <ele>1402</ele>
        <time>2018-04-02T08:23:57.000Z</time>
      </trkpt>
      <trkpt lat="42.96161" lon="0.85677">
        <ele>1402</ele>
        <time>2018-04-02T08:23:59.000Z</time>
      </trkpt>
      <trkpt lat="42.96162" lon="0.85678">
        <ele>1402</ele>
        <time>2018-04-02T08:24:01.000Z</time>
      </trkpt>
      <trkpt lat="42.96162" lon="0.85678">
        <ele>1402</ele>
        <time>2018-04-02T08:24:03.000Z</time>
      </trkpt>
      <trkpt lat="42.96162" lon="0.85678">
        <ele>1402</ele>
        <time>2018-04-02T08:24:05.000Z</time>
      </trkpt>
      <trkpt lat="42.96162" lon="0.85678">
        <ele>1402</ele>
        <time>2018-04-02T08:24:07.000Z</time>
      </trkpt>
      <trkpt lat="42.96162" lon="0.85679">
        <ele>1402</ele>
        <time>2018-04-02T08:24:09.000Z</time>
      </trkpt>
      <trkpt lat="42.96162" lon="0.85679">
        <ele>1402</ele>
        <time>2018-04-02T08:24:11.000Z</time>
      </trkpt>
      <trkpt lat="42.96163" lon="0.85679">
        <ele>1402</ele>
        <time>2018-04-02T08:24:13.000Z</time>
      </trkpt>
      <trkpt lat="42.96163" lon="0.85679">
        <ele>1402</ele>
        <time>2018-04-02T08:24:15.000Z</time>
      </trkpt>
      <trkpt lat="42.96163" lon="0.8568">
        <ele>1402</ele>
        <time>2018-04-02T08:24:17.000Z</time>
      </trkpt>
      <trkpt lat="42.96164" lon="0.8568">
        <ele>1402</ele>
        <time>2018-04-02T08:24:19.000Z</time>
      </trkpt>
      <trkpt lat="42.96164" lon="0.8568">
        <ele>1402</ele>
        <time>2018-04-02T08:24:21.000Z</time>
      </trkpt>
      <trkpt lat="42.96164" lon="0.85679">
        <ele>1402</ele>
        <time>2018-04-02T08:24:23.000Z</time>
      </trkpt>
      <trkpt lat="42.96165" lon="0.8568">
        <ele>1402</ele>
        <time>2018-04-02T08:24:25.000Z</time>
      </trkpt>
      <trkpt lat="42.96165" lon="0.8568">
        <ele>1402</ele>
        <time>2018-04-02T08:24:27.000Z</time>
      </trkpt>
      <trkpt lat="42.96165" lon="0.8568">
        <ele>1402</ele>
        <time>2018-04-02T08:24:29.000Z</time>
      </trkpt>
      <trkpt lat="42.96164" lon="0.8568">
        <ele>1402</ele>
        <time>2018-04-02T08:24:31.000Z</time>
      </trkpt>
      <trkpt lat="42.96165" lon="0.8568">
        <ele>1402</ele>
        <time>2018-04-02T08:24:33.000Z</time>
      </trkpt>
      <trkpt lat="42.96165" lon="0.8568">
        <ele>1402</ele>
        <time>2018-04-02T08:24:35.000Z</time>
      </trkpt>
      <trkpt lat="42.96165" lon="0.85679">
        <ele>1402</ele>
        <time>2018-04-02T08:24:37.000Z</time>
      </trkpt>
      <trkpt lat="42.96164" lon="0.85679">
        <ele>1402</ele>
        <time>2018-04-02T08:24:39.000Z</time>
      </trkpt>
      <trkpt lat="42.96165" lon="0.85678">
        <ele>1402</ele>
        <time>2018-04-02T08:24:41.000Z</time>
      </trkpt>
      <trkpt lat="42.96165" lon="0.85677">
        <ele>1402</ele>
        <time>2018-04-02T08:24:43.000Z</time>
      </trkpt>
      <trkpt lat="42.96165" lon="0.85676">
        <ele>1403</ele>
        <time>2018-04-02T08:24:45.000Z</time>
      </trkpt>
      <trkpt lat="42.96165" lon="0.85677">
        <ele>1403</ele>
        <time>2018-04-02T08:24:47.000Z</time>
      </trkpt>
      <trkpt lat="42.96165" lon="0.85676">
        <ele>1403</ele>
        <time>2018-04-02T08:24:49.000Z</time>
      </trkpt>
      <trkpt lat="42.96165" lon="0.85677">
        <ele>1402</ele>
        <time>2018-04-02T08:24:51.000Z</time>
      </trkpt>
      <trkpt lat="42.96165" lon="0.85677">
        <ele>1402</ele>
        <time>2018-04-02T08:24:53.000Z</time>
      </trkpt>
      <trkpt lat="42.96164" lon="0.85677">
        <ele>1403</ele>
        <time>2018-04-02T08:24:55.000Z</time>
      </trkpt>
      <trkpt lat="42.96164" lon="0.85676">
        <ele>1403</ele>
        <time>2018-04-02T08:24:57.000Z</time>
      </trkpt>
      <trkpt lat="42.96164" lon="0.85676">
        <ele>1403</ele>
        <time>2018-04-02T08:24:59.000Z</time>
      </trkpt>
      <trkpt lat="42.96164" lon="0.85676">
        <ele>1403</ele>
        <time>2018-04-02T08:25:01.000Z</time>
      </trkpt>
      <trkpt lat="42.96164" lon="0.85675">
        <ele>1403</ele>
        <time>2018-04-02T08:25:03.000Z</time>
      </trkpt>
      <trkpt lat="42.96164" lon="0.85675">
        <ele>1403</ele>
        <time>2018-04-02T08:25:05.000Z</time>
      </trkpt>
      <trkpt lat="42.96164" lon="0.85674">
        <ele>1403</ele>
        <time>2018-04-02T08:25:07.000Z</time>
      </trkpt>
      <trkpt lat="42.96164" lon="0.85674">
        <ele>1403</ele>
        <time>2018-04-02T08:25:09.000Z</time>
      </trkpt>
      <trkpt lat="42.96163" lon="0.85673">
        <ele>1403</ele>
        <time>2018-04-02T08:25:11.000Z</time>
      </trkpt>
      <trkpt lat="42.96162" lon="0.85673">
        <ele>1403</ele>
        <time>2018-04-02T08:25:13.000Z</time>
      </trkpt>
      <trkpt lat="42.96162" lon="0.85674">
        <ele>1403</ele>
        <time>2018-04-02T08:25:15.000Z</time>
      </trkpt>
      <trkpt lat="42.96161" lon="0.85674">
        <ele>1403</ele>
        <time>2018-04-02T08:25:17.000Z</time>
      </trkpt>
      <trkpt lat="42.96161" lon="0.85674">
        <ele>1403</ele>
        <time>2018-04-02T08:25:19.000Z</time>
      </trkpt>
      <trkpt lat="42.96161" lon="0.85674">
        <ele>1403</ele>
        <time>2018-04-02T08:25:21.000Z</time>
      </trkpt>
      <trkpt lat="42.9616" lon="0.85675">
        <ele>1402</ele>
        <time>2018-04-02T08:25:23.000Z</time>
      </trkpt>
      <trkpt lat="42.9616" lon="0.85675">
        <ele>1402</ele>
        <time>2018-04-02T08:25:25.000Z</time>
      </trkpt>
      <trkpt lat="42.96161" lon="0.85676">
        <ele>1402</ele>
        <time>2018-04-02T08:25:27.000Z</time>
      </trkpt>
      <trkpt lat="42.96161" lon="0.85676">
        <ele>1402</ele>
        <time>2018-04-02T08:25:29.000Z</time>
      </trkpt>
      <trkpt lat="42.96162" lon="0.85676">
        <ele>1402</ele>
        <time>2018-04-02T08:25:31.000Z</time>
      </trkpt>
      <trkpt lat="42.96162" lon="0.85676">
        <ele>1402</ele>
        <time>2018-04-02T08:25:33.000Z</time>
      </trkpt>
      <trkpt lat="42.96162" lon="0.85677">
        <ele>1402</ele>
        <time>2018-04-02T08:25:35.000Z</time>
      </trkpt>
      <trkpt lat="42.96162" lon="0.85677">
        <ele>1402</ele>
        <time>2018-04-02T08:25:37.000Z</time>
      </trkpt>
      <trkpt lat="42.96162" lon="0.85676">
        <ele>1402</ele>
        <time>2018-04-02T08:25:39.000Z</time>
      </trkpt>
      <trkpt lat="42.96162" lon="0.85675">
        <ele>1403</ele>
        <time>2018-04-02T08:25:41.000Z</time>
      </trkpt>
      <trkpt lat="42.96162" lon="0.85675">
        <ele>1403</ele>
        <time>2018-04-02T08:25:43.000Z</time>
      </trkpt>
      <trkpt lat="42.96162" lon="0.85675">
        <ele>1403</ele>
        <time>2018-04-02T08:25:45.000Z</time>
      </trkpt>
      <trkpt lat="42.96162" lon="0.85675">
        <ele>1403</ele>
        <time>2018-04-02T08:25:47.000Z</time>
      </trkpt>
      <trkpt lat="42.96162" lon="0.85675">
        <ele>1403</ele>
        <time>2018-04-02T08:25:49.000Z</time>
      </trkpt>
      <trkpt lat="42.96162" lon="0.85676">
        <ele>1402</ele>
        <time>2018-04-02T08:25:51.000Z</time>
      </trkpt>
      <trkpt lat="42.96161" lon="0.85676">
        <ele>1402</ele>
        <time>2018-04-02T08:25:53.000Z</time>
      </trkpt>
      <trkpt lat="42.96161" lon="0.85676">
        <ele>1402</ele>
        <time>2018-04-02T08:25:55.000Z</time>
      </trkpt>
      <trkpt lat="42.9616" lon="0.85676">
        <ele>1402</ele>
        <time>2018-04-02T08:25:57.000Z</time>
      </trkpt>
      <trkpt lat="42.9616" lon="0.85676">
        <ele>1402</ele>
        <time>2018-04-02T08:25:59.000Z</time>
      </trkpt>
      <trkpt lat="42.9616" lon="0.85675">
        <ele>1402</ele>
        <time>2018-04-02T08:26:01.000Z</time>
      </trkpt>
      <trkpt lat="42.9616" lon="0.85676">
        <ele>1402</ele>
        <time>2018-04-02T08:26:03.000Z</time>
      </trkpt>
      <trkpt lat="42.9616" lon="0.85677">
        <ele>1402</ele>
        <time>2018-04-02T08:26:05.000Z</time>
      </trkpt>
      <trkpt lat="42.9616" lon="0.85677">
        <ele>1402</ele>
        <time>2018-04-02T08:26:07.000Z</time>
      </trkpt>
      <trkpt lat="42.9616" lon="0.85678">
        <ele>1402</ele>
        <time>2018-04-02T08:26:09.000Z</time>
      </trkpt>
      <trkpt lat="42.96161" lon="0.85678">
        <ele>1402</ele>
        <time>2018-04-02T08:26:11.000Z</time>
      </trkpt>
      <trkpt lat="42.96159" lon="0.85679">
        <ele>1402</ele>
        <time>2018-04-02T08:26:13.000Z</time>
      </trkpt>
      <trkpt lat="42.96159" lon="0.85679">
        <ele>1402</ele>
        <time>2018-04-02T08:26:15.000Z</time>
      </trkpt>
      <trkpt lat="42.96159" lon="0.85679">
        <ele>1402</ele>
        <time>2018-04-02T08:26:17.000Z</time>
      </trkpt>
      <trkpt lat="42.96159" lon="0.85679">
        <ele>1402</ele>
        <time>2018-04-02T08:26:19.000Z</time>
      </trkpt>
      <trkpt lat="42.9616" lon="0.85679">
        <ele>1402</ele>
        <time>2018-04-02T08:26:21.000Z</time>
      </trkpt>
      <trkpt lat="42.96159" lon="0.85679">
        <ele>1402</ele>
        <time>2018-04-02T08:26:23.000Z</time>
      </trkpt>
      <trkpt lat="42.9616" lon="0.85678">
        <ele>1402</ele>
        <time>2018-04-02T08:26:25.000Z</time>
      </trkpt>
      <trkpt lat="42.9616" lon="0.85678">
        <ele>1402</ele>
        <time>2018-04-02T08:26:27.000Z</time>
      </trkpt>
      <trkpt lat="42.96159" lon="0.85678">
        <ele>1402</ele>
        <time>2018-04-02T08:26:29.000Z</time>
      </trkpt>
      <trkpt lat="42.96158" lon="0.85677">
        <ele>1402</ele>
        <time>2018-04-02T08:26:31.000Z</time>
      </trkpt>
      <trkpt lat="42.96158" lon="0.85677">
        <ele>1402</ele>
        <time>2018-04-02T08:26:33.000Z</time>
      </trkpt>
      <trkpt lat="42.96157" lon="0.85676">
        <ele>1402</ele>
        <time>2018-04-02T08:26:35.000Z</time>
      </trkpt>
      <trkpt lat="42.96156" lon="0.85675">
        <ele>1402</ele>
        <time>2018-04-02T08:26:37.000Z</time>
      </trkpt>
      <trkpt lat="42.96156" lon="0.85673">
        <ele>1402</ele>
        <time>2018-04-02T08:26:39.000Z</time>
      </trkpt>
      <trkpt lat="42.96155" lon="0.85672">
        <ele>1403</ele>
        <time>2018-04-02T08:26:41.000Z</time>
      </trkpt>
      <trkpt lat="42.96155" lon="0.8567">
        <ele>1403</ele>
        <time>2018-04-02T08:26:43.000Z</time>
      </trkpt>
      <trkpt lat="42.96154" lon="0.85668">
        <ele>1403</ele>
        <time>2018-04-02T08:26:45.000Z</time>
      </trkpt>
      <trkpt lat="42.96154" lon="0.85665">
        <ele>1403</ele>
        <time>2018-04-02T08:26:47.000Z</time>
      </trkpt>
      <trkpt lat="42.96153" lon="0.85664">
        <ele>1403</ele>
        <time>2018-04-02T08:26:49.000Z</time>
      </trkpt>
      <trkpt lat="42.96153" lon="0.85662">
        <ele>1403</ele>
        <time>2018-04-02T08:26:51.000Z</time>
      </trkpt>
      <trkpt lat="42.96153" lon="0.85661">
        <ele>1404</ele>
        <time>2018-04-02T08:26:53.000Z</time>
      </trkpt>
      <trkpt lat="42.96153" lon="0.85661">
        <ele>1404</ele>
        <time>2018-04-02T08:26:55.000Z</time>
      </trkpt>
      <trkpt lat="42.96152" lon="0.85661">
        <ele>1404</ele>
        <time>2018-04-02T08:26:57.000Z</time>
      </trkpt>
      <trkpt lat="42.96152" lon="0.8566">
        <ele>1404</ele>
        <time>2018-04-02T08:26:59.000Z</time>
      </trkpt>
      <trkpt lat="42.96151" lon="0.85659">
        <ele>1404</ele>
        <time>2018-04-02T08:27:01.000Z</time>
      </trkpt>
      <trkpt lat="42.96151" lon="0.85659">
        <ele>1404</ele>
        <time>2018-04-02T08:27:03.000Z</time>
      </trkpt>
      <trkpt lat="42.9615" lon="0.85658">
        <ele>1404</ele>
        <time>2018-04-02T08:27:05.000Z</time>
      </trkpt>
      <trkpt lat="42.96149" lon="0.85657">
        <ele>1404</ele>
        <time>2018-04-02T08:27:07.000Z</time>
      </trkpt>
      <trkpt lat="42.96149" lon="0.85656">
        <ele>1404</ele>
        <time>2018-04-02T08:27:09.000Z</time>
      </trkpt>
      <trkpt lat="42.96148" lon="0.85655">
        <ele>1404</ele>
        <time>2018-04-02T08:27:11.000Z</time>
      </trkpt>
      <trkpt lat="42.96147" lon="0.85654">
        <ele>1404</ele>
        <time>2018-04-02T08:27:13.000Z</time>
      </trkpt>
      <trkpt lat="42.96147" lon="0.85652">
        <ele>1404</ele>
        <time>2018-04-02T08:27:15.000Z</time>
      </trkpt>
      <trkpt lat="42.96147" lon="0.85649">
        <ele>1405</ele>
        <time>2018-04-02T08:27:17.000Z</time>
      </trkpt>
      <trkpt lat="42.96147" lon="0.85647">
        <ele>1405</ele>
        <time>2018-04-02T08:27:19.000Z</time>
      </trkpt>
      <trkpt lat="42.96147" lon="0.85646">
        <ele>1405</ele>
        <time>2018-04-02T08:27:21.000Z</time>
      </trkpt>
      <trkpt lat="42.96146" lon="0.85644">
        <ele>1405</ele>
        <time>2018-04-02T08:27:23.000Z</time>
      </trkpt>
      <trkpt lat="42.96146" lon="0.85642">
        <ele>1405</ele>
        <time>2018-04-02T08:27:25.000Z</time>
      </trkpt>
      <trkpt lat="42.96146" lon="0.8564">
        <ele>1406</ele>
        <time>2018-04-02T08:27:27.000Z</time>
      </trkpt>
      <trkpt lat="42.96145" lon="0.85639">
        <ele>1406</ele>
        <time>2018-04-02T08:27:29.000Z</time>
      </trkpt>
      <trkpt lat="42.96145" lon="0.85637">
        <ele>1406</ele>
        <time>2018-04-02T08:27:31.000Z</time>
      </trkpt>
      <trkpt lat="42.96145" lon="0.85636">
        <ele>1406</ele>
        <time>2018-04-02T08:27:33.000Z</time>
      </trkpt>
      <trkpt lat="42.96144" lon="0.85635">
        <ele>1406</ele>
        <time>2018-04-02T08:27:35.000Z</time>
      </trkpt>
      <trkpt lat="42.96143" lon="0.85633">
        <ele>1406</ele>
        <time>2018-04-02T08:27:37.000Z</time>
      </trkpt>
      <trkpt lat="42.96143" lon="0.85631">
        <ele>1406</ele>
        <time>2018-04-02T08:27:39.000Z</time>
      </trkpt>
      <trkpt lat="42.96143" lon="0.85631">
        <ele>1406</ele>
        <time>2018-04-02T08:27:41.000Z</time>
      </trkpt>
      <trkpt lat="42.96143" lon="0.85631">
        <ele>1406</ele>
        <time>2018-04-02T08:27:43.000Z</time>
      </trkpt>
      <trkpt lat="42.96143" lon="0.85631">
        <ele>1406</ele>
        <time>2018-04-02T08:27:45.000Z</time>
      </trkpt>
      <trkpt lat="42.96143" lon="0.85631">
        <ele>1406</ele>
        <time>2018-04-02T08:27:47.000Z</time>
      </trkpt>
      <trkpt lat="42.96143" lon="0.85631">
        <ele>1406</ele>
        <time>2018-04-02T08:27:49.000Z</time>
      </trkpt>
      <trkpt lat="42.96143" lon="0.85631">
        <ele>1406</ele>
        <time>2018-04-02T08:27:51.000Z</time>
      </trkpt>
      <trkpt lat="42.96143" lon="0.85631">
        <ele>1406</ele>
        <time>2018-04-02T08:27:53.000Z</time>
      </trkpt>
      <trkpt lat="42.96143" lon="0.85632">
        <ele>1406</ele>
        <time>2018-04-02T08:27:55.000Z</time>
      </trkpt>
      <trkpt lat="42.96145" lon="0.85632">
        <ele>1406</ele>
        <time>2018-04-02T08:27:57.000Z</time>
      </trkpt>
      <trkpt lat="42.96146" lon="0.85632">
        <ele>1406</ele>
        <time>2018-04-02T08:27:59.000Z</time>
      </trkpt>
      <trkpt lat="42.96146" lon="0.85632">
        <ele>1406</ele>
        <time>2018-04-02T08:28:01.000Z</time>
      </trkpt>
      <trkpt lat="42.96146" lon="0.85632">
        <ele>1406</ele>
        <time>2018-04-02T08:28:03.000Z</time>
      </trkpt>
      <trkpt lat="42.96146" lon="0.85631">
        <ele>1406</ele>
        <time>2018-04-02T08:28:05.000Z</time>
      </trkpt>
      <trkpt lat="42.96145" lon="0.85631">
        <ele>1406</ele>
        <time>2018-04-02T08:28:07.000Z</time>
      </trkpt>
      <trkpt lat="42.96145" lon="0.85631">
        <ele>1406</ele>
        <time>2018-04-02T08:28:09.000Z</time>
      </trkpt>
      <trkpt lat="42.96145" lon="0.85631">
        <ele>1406</ele>
        <time>2018-04-02T08:28:11.000Z</time>
      </trkpt>
      <trkpt lat="42.96145" lon="0.85631">
        <ele>1406</ele>
        <time>2018-04-02T08:28:13.000Z</time>
      </trkpt>
      <trkpt lat="42.96145" lon="0.85631">
        <ele>1406</ele>
        <time>2018-04-02T08:28:15.000Z</time>
      </trkpt>
      <trkpt lat="42.96145" lon="0.85631">
        <ele>1406</ele>
        <time>2018-04-02T08:28:17.000Z</time>
      </trkpt>
      <trkpt lat="42.96144" lon="0.85632">
        <ele>1406</ele>
        <time>2018-04-02T08:28:19.000Z</time>
      </trkpt>
      <trkpt lat="42.96143" lon="0.85631">
        <ele>1406</ele>
        <time>2018-04-02T08:28:21.000Z</time>
      </trkpt>
      <trkpt lat="42.96143" lon="0.85631">
        <ele>1406</ele>
        <time>2018-04-02T08:28:23.000Z</time>
      </trkpt>
      <trkpt lat="42.96142" lon="0.85629">
        <ele>1406</ele>
        <time>2018-04-02T08:28:25.000Z</time>
      </trkpt>
      <trkpt lat="42.96142" lon="0.85628">
        <ele>1407</ele>
        <time>2018-04-02T08:28:27.000Z</time>
      </trkpt>
      <trkpt lat="42.96141" lon="0.85627">
        <ele>1407</ele>
        <time>2018-04-02T08:28:29.000Z</time>
      </trkpt>
      <trkpt lat="42.96141" lon="0.85626">
        <ele>1407</ele>
        <time>2018-04-02T08:28:31.000Z</time>
      </trkpt>
      <trkpt lat="42.9614" lon="0.85624">
        <ele>1407</ele>
        <time>2018-04-02T08:28:33.000Z</time>
      </trkpt>
      <trkpt lat="42.9614" lon="0.85623">
        <ele>1407</ele>
        <time>2018-04-02T08:28:35.000Z</time>
      </trkpt>
      <trkpt lat="42.96139" lon="0.85622">
        <ele>1407</ele>
        <time>2018-04-02T08:28:37.000Z</time>
      </trkpt>
      <trkpt lat="42.96139" lon="0.8562">
        <ele>1407</ele>
        <time>2018-04-02T08:28:39.000Z</time>
      </trkpt>
      <trkpt lat="42.96138" lon="0.85619">
        <ele>1407</ele>
        <time>2018-04-02T08:28:41.000Z</time>
      </trkpt>
      <trkpt lat="42.96138" lon="0.85617">
        <ele>1407</ele>
        <time>2018-04-02T08:28:43.000Z</time>
      </trkpt>
      <trkpt lat="42.96139" lon="0.85616">
        <ele>1408</ele>
        <time>2018-04-02T08:28:45.000Z</time>
      </trkpt>
      <trkpt lat="42.96138" lon="0.85614">
        <ele>1408</ele>
        <time>2018-04-02T08:28:47.000Z</time>
      </trkpt>
      <trkpt lat="42.96138" lon="0.85613">
        <ele>1408</ele>
        <time>2018-04-02T08:28:49.000Z</time>
      </trkpt>
      <trkpt lat="42.96138" lon="0.85612">
        <ele>1408</ele>
        <time>2018-04-02T08:28:51.000Z</time>
      </trkpt>
      <trkpt lat="42.96138" lon="0.8561">
        <ele>1408</ele>
        <time>2018-04-02T08:28:53.000Z</time>
      </trkpt>
      <trkpt lat="42.96138" lon="0.85609">
        <ele>1408</ele>
        <time>2018-04-02T08:28:55.000Z</time>
      </trkpt>
      <trkpt lat="42.96137" lon="0.85607">
        <ele>1408</ele>
        <time>2018-04-02T08:28:57.000Z</time>
      </trkpt>
      <trkpt lat="42.96137" lon="0.85606">
        <ele>1408</ele>
        <time>2018-04-02T08:28:59.000Z</time>
      </trkpt>
      <trkpt lat="42.96137" lon="0.85605">
        <ele>1409</ele>
        <time>2018-04-02T08:29:01.000Z</time>
      </trkpt>
      <trkpt lat="42.96137" lon="0.85603">
        <ele>1409</ele>
        <time>2018-04-02T08:29:03.000Z</time>
      </trkpt>
      <trkpt lat="42.96137" lon="0.85602">
        <ele>1409</ele>
        <time>2018-04-02T08:29:05.000Z</time>
      </trkpt>
      <trkpt lat="42.96136" lon="0.85601">
        <ele>1409</ele>
        <time>2018-04-02T08:29:07.000Z</time>
      </trkpt>
      <trkpt lat="42.96136" lon="0.85599">
        <ele>1409</ele>
        <time>2018-04-02T08:29:09.000Z</time>
      </trkpt>
      <trkpt lat="42.96135" lon="0.85599">
        <ele>1409</ele>
        <time>2018-04-02T08:29:11.000Z</time>
      </trkpt>
      <trkpt lat="42.96135" lon="0.85598">
        <ele>1409</ele>
        <time>2018-04-02T08:29:13.000Z</time>
      </trkpt>
      <trkpt lat="42.96134" lon="0.85597">
        <ele>1409</ele>
        <time>2018-04-02T08:29:15.000Z</time>
      </trkpt>
      <trkpt lat="42.96134" lon="0.85595">
        <ele>1410</ele>
        <time>2018-04-02T08:29:17.000Z</time>
      </trkpt>
      <trkpt lat="42.96134" lon="0.85594">
        <ele>1410</ele>
        <time>2018-04-02T08:29:19.000Z</time>
      </trkpt>
      <trkpt lat="42.96133" lon="0.85594">
        <ele>1410</ele>
        <time>2018-04-02T08:29:21.000Z</time>
      </trkpt>
      <trkpt lat="42.96133" lon="0.85593">
        <ele>1410</ele>
        <time>2018-04-02T08:29:23.000Z</time>
      </trkpt>
      <trkpt lat="42.96133" lon="0.85592">
        <ele>1410</ele>
        <time>2018-04-02T08:29:25.000Z</time>
      </trkpt>
      <trkpt lat="42.96133" lon="0.85591">
        <ele>1410</ele>
        <time>2018-04-02T08:29:27.000Z</time>
      </trkpt>
      <trkpt lat="42.96133" lon="0.85589">
        <ele>1410</ele>
        <time>2018-04-02T08:29:29.000Z</time>
      </trkpt>
      <trkpt lat="42.96132" lon="0.85588">
        <ele>1410</ele>
        <time>2018-04-02T08:29:31.000Z</time>
      </trkpt>
      <trkpt lat="42.96132" lon="0.85587">
        <ele>1411</ele>
        <time>2018-04-02T08:29:33.000Z</time>
      </trkpt>
      <trkpt lat="42.96132" lon="0.85585">
        <ele>1411</ele>
        <time>2018-04-02T08:29:35.000Z</time>
      </trkpt>
      <trkpt lat="42.96132" lon="0.85584">
        <ele>1411</ele>
        <time>2018-04-02T08:29:37.000Z</time>
      </trkpt>
      <trkpt lat="42.96131" lon="0.85583">
        <ele>1411</ele>
        <time>2018-04-02T08:29:39.000Z</time>
      </trkpt>
      <trkpt lat="42.96131" lon="0.85582">
        <ele>1411</ele>
        <time>2018-04-02T08:29:41.000Z</time>
      </trkpt>
      <trkpt lat="42.9613" lon="0.85581">
        <ele>1411</ele>
        <time>2018-04-02T08:29:43.000Z</time>
      </trkpt>
      <trkpt lat="42.9613" lon="0.8558">
        <ele>1412</ele>
        <time>2018-04-02T08:29:45.000Z</time>
      </trkpt>
      <trkpt lat="42.9613" lon="0.85578">
        <ele>1412</ele>
        <time>2018-04-02T08:29:47.000Z</time>
      </trkpt>
      <trkpt lat="42.9613" lon="0.85577">
        <ele>1412</ele>
        <time>2018-04-02T08:29:49.000Z</time>
      </trkpt>
      <trkpt lat="42.9613" lon="0.85576">
        <ele>1412</ele>
        <time>2018-04-02T08:29:51.000Z</time>
      </trkpt>
      <trkpt lat="42.9613" lon="0.85575">
        <ele>1412</ele>
        <time>2018-04-02T08:29:53.000Z</time>
      </trkpt>
      <trkpt lat="42.9613" lon="0.85574">
        <ele>1412</ele>
        <time>2018-04-02T08:29:55.000Z</time>
      </trkpt>
      <trkpt lat="42.9613" lon="0.85573">
        <ele>1412</ele>
        <time>2018-04-02T08:29:57.000Z</time>
      </trkpt>
      <trkpt lat="42.9613" lon="0.85572">
        <ele>1413</ele>
        <time>2018-04-02T08:29:59.000Z</time>
      </trkpt>
      <trkpt lat="42.9613" lon="0.85571">
        <ele>1413</ele>
        <time>2018-04-02T08:30:01.000Z</time>
      </trkpt>
      <trkpt lat="42.9613" lon="0.85571">
        <ele>1413</ele>
        <time>2018-04-02T08:30:03.000Z</time>
      </trkpt>
      <trkpt lat="42.9613" lon="0.85569">
        <ele>1413</ele>
        <time>2018-04-02T08:30:05.000Z</time>
      </trkpt>
      <trkpt lat="42.9613" lon="0.85568">
        <ele>1413</ele>
        <time>2018-04-02T08:30:07.000Z</time>
      </trkpt>
      <trkpt lat="42.9613" lon="0.85568">
        <ele>1413</ele>
        <time>2018-04-02T08:30:09.000Z</time>
      </trkpt>
      <trkpt lat="42.9613" lon="0.85567">
        <ele>1414</ele>
        <time>2018-04-02T08:30:11.000Z</time>
      </trkpt>
      <trkpt lat="42.96131" lon="0.85566">
        <ele>1414</ele>
        <time>2018-04-02T08:30:13.000Z</time>
      </trkpt>
      <trkpt lat="42.9613" lon="0.85566">
        <ele>1414</ele>
        <time>2018-04-02T08:30:15.000Z</time>
      </trkpt>
      <trkpt lat="42.9613" lon="0.85565">
        <ele>1414</ele>
        <time>2018-04-02T08:30:17.000Z</time>
      </trkpt>
      <trkpt lat="42.96129" lon="0.85564">
        <ele>1414</ele>
        <time>2018-04-02T08:30:19.000Z</time>
      </trkpt>
      <trkpt lat="42.96128" lon="0.85563">
        <ele>1414</ele>
        <time>2018-04-02T08:30:21.000Z</time>
      </trkpt>
      <trkpt lat="42.96128" lon="0.85562">
        <ele>1414</ele>
        <time>2018-04-02T08:30:23.000Z</time>
      </trkpt>
      <trkpt lat="42.96128" lon="0.85561">
        <ele>1414</ele>
        <time>2018-04-02T08:30:25.000Z</time>
      </trkpt>
      <trkpt lat="42.96128" lon="0.85561">
        <ele>1414</ele>
        <time>2018-04-02T08:30:27.000Z</time>
      </trkpt>
      <trkpt lat="42.96127" lon="0.8556">
        <ele>1414</ele>
        <time>2018-04-02T08:30:29.000Z</time>
      </trkpt>
      <trkpt lat="42.96127" lon="0.85559">
        <ele>1414</ele>
        <time>2018-04-02T08:30:31.000Z</time>
      </trkpt>
      <trkpt lat="42.96126" lon="0.85558">
        <ele>1414</ele>
        <time>2018-04-02T08:30:33.000Z</time>
      </trkpt>
      <trkpt lat="42.96126" lon="0.85557">
        <ele>1415</ele>
        <time>2018-04-02T08:30:35.000Z</time>
      </trkpt>
      <trkpt lat="42.96126" lon="0.85556">
        <ele>1415</ele>
        <time>2018-04-02T08:30:37.000Z</time>
      </trkpt>
      <trkpt lat="42.96126" lon="0.85555">
        <ele>1415</ele>
        <time>2018-04-02T08:30:39.000Z</time>
      </trkpt>
      <trkpt lat="42.96126" lon="0.85554">
        <ele>1415</ele>
        <time>2018-04-02T08:30:41.000Z</time>
      </trkpt>
      <trkpt lat="42.96126" lon="0.85553">
        <ele>1415</ele>
        <time>2018-04-02T08:30:43.000Z</time>
      </trkpt>
      <trkpt lat="42.96126" lon="0.85552">
        <ele>1415</ele>
        <time>2018-04-02T08:30:45.000Z</time>
      </trkpt>
      <trkpt lat="42.96126" lon="0.85552">
        <ele>1416</ele>
        <time>2018-04-02T08:30:47.000Z</time>
      </trkpt>
      <trkpt lat="42.96126" lon="0.85551">
        <ele>1416</ele>
        <time>2018-04-02T08:30:49.000Z</time>
      </trkpt>
      <trkpt lat="42.96126" lon="0.85551">
        <ele>1416</ele>
        <time>2018-04-02T08:30:51.000Z</time>
      </trkpt>
      <trkpt lat="42.96126" lon="0.8555">
        <ele>1416</ele>
        <time>2018-04-02T08:30:53.000Z</time>
      </trkpt>
      <trkpt lat="42.96126" lon="0.85549">
        <ele>1416</ele>
        <time>2018-04-02T08:30:55.000Z</time>
      </trkpt>
      <trkpt lat="42.96126" lon="0.85548">
        <ele>1416</ele>
        <time>2018-04-02T08:30:57.000Z</time>
      </trkpt>
      <trkpt lat="42.96126" lon="0.85548">
        <ele>1416</ele>
        <time>2018-04-02T08:30:59.000Z</time>
      </trkpt>
      <trkpt lat="42.96126" lon="0.85548">
        <ele>1416</ele>
        <time>2018-04-02T08:31:01.000Z</time>
      </trkpt>
      <trkpt lat="42.96126" lon="0.85548">
        <ele>1416</ele>
        <time>2018-04-02T08:31:03.000Z</time>
      </trkpt>
      <trkpt lat="42.96125" lon="0.85549">
        <ele>1416</ele>
        <time>2018-04-02T08:31:05.000Z</time>
      </trkpt>
      <trkpt lat="42.96125" lon="0.85549">
        <ele>1416</ele>
        <time>2018-04-02T08:31:07.000Z</time>
      </trkpt>
      <trkpt lat="42.96124" lon="0.85549">
        <ele>1416</ele>
        <time>2018-04-02T08:31:09.000Z</time>
      </trkpt>
      <trkpt lat="42.96124" lon="0.85548">
        <ele>1416</ele>
        <time>2018-04-02T08:31:11.000Z</time>
      </trkpt>
      <trkpt lat="42.96124" lon="0.85547">
        <ele>1416</ele>
        <time>2018-04-02T08:31:13.000Z</time>
      </trkpt>
      <trkpt lat="42.96124" lon="0.85546">
        <ele>1416</ele>
        <time>2018-04-02T08:31:15.000Z</time>
      </trkpt>
      <trkpt lat="42.96124" lon="0.85545">
        <ele>1417</ele>
        <time>2018-04-02T08:31:17.000Z</time>
      </trkpt>
      <trkpt lat="42.96124" lon="0.85544">
        <ele>1417</ele>
        <time>2018-04-02T08:31:19.000Z</time>
      </trkpt>
      <trkpt lat="42.96124" lon="0.85543">
        <ele>1417</ele>
        <time>2018-04-02T08:31:21.000Z</time>
      </trkpt>
      <trkpt lat="42.96123" lon="0.85542">
        <ele>1417</ele>
        <time>2018-04-02T08:31:23.000Z</time>
      </trkpt>
      <trkpt lat="42.96123" lon="0.85541">
        <ele>1417</ele>
        <time>2018-04-02T08:31:25.000Z</time>
      </trkpt>
      <trkpt lat="42.96123" lon="0.8554">
        <ele>1417</ele>
        <time>2018-04-02T08:31:27.000Z</time>
      </trkpt>
      <trkpt lat="42.96123" lon="0.85539">
        <ele>1418</ele>
        <time>2018-04-02T08:31:29.000Z</time>
      </trkpt>
      <trkpt lat="42.96123" lon="0.85538">
        <ele>1418</ele>
        <time>2018-04-02T08:31:31.000Z</time>
      </trkpt>
      <trkpt lat="42.96123" lon="0.85537">
        <ele>1418</ele>
        <time>2018-04-02T08:31:33.000Z</time>
      </trkpt>
      <trkpt lat="42.96123" lon="0.85535">
        <ele>1418</ele>
        <time>2018-04-02T08:31:35.000Z</time>
      </trkpt>
      <trkpt lat="42.96122" lon="0.85534">
        <ele>1418</ele>
        <time>2018-04-02T08:31:37.000Z</time>
      </trkpt>
      <trkpt lat="42.96121" lon="0.85533">
        <ele>1418</ele>
        <time>2018-04-02T08:31:39.000Z</time>
      </trkpt>
      <trkpt lat="42.96121" lon="0.85531">
        <ele>1419</ele>
        <time>2018-04-02T08:31:41.000Z</time>
      </trkpt>
      <trkpt lat="42.96121" lon="0.8553">
        <ele>1419</ele>
        <time>2018-04-02T08:31:43.000Z</time>
      </trkpt>
      <trkpt lat="42.96121" lon="0.85529">
        <ele>1419</ele>
        <time>2018-04-02T08:31:45.000Z</time>
      </trkpt>
      <trkpt lat="42.96121" lon="0.85528">
        <ele>1419</ele>
        <time>2018-04-02T08:31:47.000Z</time>
      </trkpt>
      <trkpt lat="42.96121" lon="0.85527">
        <ele>1419</ele>
        <time>2018-04-02T08:31:49.000Z</time>
      </trkpt>
      <trkpt lat="42.9612" lon="0.85526">
        <ele>1420</ele>
        <time>2018-04-02T08:31:51.000Z</time>
      </trkpt>
      <trkpt lat="42.96119" lon="0.85525">
        <ele>1420</ele>
        <time>2018-04-02T08:31:53.000Z</time>
      </trkpt>
      <trkpt lat="42.96119" lon="0.85524">
        <ele>1420</ele>
        <time>2018-04-02T08:31:55.000Z</time>
      </trkpt>
      <trkpt lat="42.96118" lon="0.85522">
        <ele>1420</ele>
        <time>2018-04-02T08:31:57.000Z</time>
      </trkpt>
      <trkpt lat="42.96118" lon="0.85521">
        <ele>1420</ele>
        <time>2018-04-02T08:31:59.000Z</time>
      </trkpt>
      <trkpt lat="42.96117" lon="0.8552">
        <ele>1420</ele>
        <time>2018-04-02T08:32:01.000Z</time>
      </trkpt>
      <trkpt lat="42.96117" lon="0.85518">
        <ele>1421</ele>
        <time>2018-04-02T08:32:03.000Z</time>
      </trkpt>
      <trkpt lat="42.96116" lon="0.85517">
        <ele>1421</ele>
        <time>2018-04-02T08:32:05.000Z</time>
      </trkpt>
      <trkpt lat="42.96115" lon="0.85516">
        <ele>1421</ele>
        <time>2018-04-02T08:32:07.000Z</time>
      </trkpt>
      <trkpt lat="42.96115" lon="0.85515">
        <ele>1421</ele>
        <time>2018-04-02T08:32:09.000Z</time>
      </trkpt>
      <trkpt lat="42.96114" lon="0.85514">
        <ele>1421</ele>
        <time>2018-04-02T08:32:11.000Z</time>
      </trkpt>
      <trkpt lat="42.96113" lon="0.85513">
        <ele>1421</ele>
        <time>2018-04-02T08:32:13.000Z</time>
      </trkpt>
      <trkpt lat="42.96113" lon="0.85512">
        <ele>1421</ele>
        <time>2018-04-02T08:32:15.000Z</time>
      </trkpt>
      <trkpt lat="42.96113" lon="0.8551">
        <ele>1422</ele>
        <time>2018-04-02T08:32:17.000Z</time>
      </trkpt>
      <trkpt lat="42.96112" lon="0.85509">
        <ele>1422</ele>
        <time>2018-04-02T08:32:19.000Z</time>
      </trkpt>
      <trkpt lat="42.96112" lon="0.85508">
        <ele>1422</ele>
        <time>2018-04-02T08:32:21.000Z</time>
      </trkpt>
      <trkpt lat="42.96112" lon="0.85506">
        <ele>1422</ele>
        <time>2018-04-02T08:32:23.000Z</time>
      </trkpt>
      <trkpt lat="42.96111" lon="0.85505">
        <ele>1422</ele>
        <time>2018-04-02T08:32:25.000Z</time>
      </trkpt>
      <trkpt lat="42.96111" lon="0.85504">
        <ele>1422</ele>
        <time>2018-04-02T08:32:27.000Z</time>
      </trkpt>
      <trkpt lat="42.9611" lon="0.85502">
        <ele>1423</ele>
        <time>2018-04-02T08:32:29.000Z</time>
      </trkpt>
      <trkpt lat="42.9611" lon="0.85501">
        <ele>1423</ele>
        <time>2018-04-02T08:32:31.000Z</time>
      </trkpt>
      <trkpt lat="42.96109" lon="0.855">
        <ele>1423</ele>
        <time>2018-04-02T08:32:33.000Z</time>
      </trkpt>
      <trkpt lat="42.96109" lon="0.85499">
        <ele>1423</ele>
        <time>2018-04-02T08:32:35.000Z</time>
      </trkpt>
      <trkpt lat="42.96108" lon="0.85497">
        <ele>1423</ele>
        <time>2018-04-02T08:32:37.000Z</time>
      </trkpt>
      <trkpt lat="42.96108" lon="0.85496">
        <ele>1424</ele>
        <time>2018-04-02T08:32:39.000Z</time>
      </trkpt>
      <trkpt lat="42.96108" lon="0.85494">
        <ele>1424</ele>
        <time>2018-04-02T08:32:41.000Z</time>
      </trkpt>
      <trkpt lat="42.96107" lon="0.85493">
        <ele>1424</ele>
        <time>2018-04-02T08:32:43.000Z</time>
      </trkpt>
      <trkpt lat="42.96106" lon="0.85491">
        <ele>1424</ele>
        <time>2018-04-02T08:32:45.000Z</time>
      </trkpt>
      <trkpt lat="42.96105" lon="0.8549">
        <ele>1424</ele>
        <time>2018-04-02T08:32:47.000Z</time>
      </trkpt>
      <trkpt lat="42.96104" lon="0.85489">
        <ele>1425</ele>
        <time>2018-04-02T08:32:49.000Z</time>
      </trkpt>
      <trkpt lat="42.96103" lon="0.85488">
        <ele>1425</ele>
        <time>2018-04-02T08:32:51.000Z</time>
      </trkpt>
      <trkpt lat="42.96101" lon="0.85487">
        <ele>1425</ele>
        <time>2018-04-02T08:32:53.000Z</time>
      </trkpt>
      <trkpt lat="42.961" lon="0.85486">
        <ele>1425</ele>
        <time>2018-04-02T08:32:55.000Z</time>
      </trkpt>
      <trkpt lat="42.96099" lon="0.85486">
        <ele>1424</ele>
        <time>2018-04-02T08:32:57.000Z</time>
      </trkpt>
      <trkpt lat="42.96097" lon="0.85485">
        <ele>1425</ele>
        <time>2018-04-02T08:32:59.000Z</time>
      </trkpt>
      <trkpt lat="42.96096" lon="0.85485">
        <ele>1424</ele>
        <time>2018-04-02T08:33:01.000Z</time>
      </trkpt>
      <trkpt lat="42.96095" lon="0.85484">
        <ele>1424</ele>
        <time>2018-04-02T08:33:03.000Z</time>
      </trkpt>
      <trkpt lat="42.96094" lon="0.85483">
        <ele>1424</ele>
        <time>2018-04-02T08:33:05.000Z</time>
      </trkpt>
      <trkpt lat="42.96093" lon="0.85483">
        <ele>1424</ele>
        <time>2018-04-02T08:33:07.000Z</time>
      </trkpt>
      <trkpt lat="42.96092" lon="0.85482">
        <ele>1424</ele>
        <time>2018-04-02T08:33:09.000Z</time>
      </trkpt>
      <trkpt lat="42.9609" lon="0.85482">
        <ele>1424</ele>
        <time>2018-04-02T08:33:11.000Z</time>
      </trkpt>
      <trkpt lat="42.96089" lon="0.85481">
        <ele>1425</ele>
        <time>2018-04-02T08:33:13.000Z</time>
      </trkpt>
      <trkpt lat="42.96088" lon="0.8548">
        <ele>1425</ele>
        <time>2018-04-02T08:33:15.000Z</time>
      </trkpt>
      <trkpt lat="42.96087" lon="0.8548">
        <ele>1425</ele>
        <time>2018-04-02T08:33:17.000Z</time>
      </trkpt>
      <trkpt lat="42.96085" lon="0.8548">
        <ele>1425</ele>
        <time>2018-04-02T08:33:19.000Z</time>
      </trkpt>
      <trkpt lat="42.96084" lon="0.85479">
        <ele>1425</ele>
        <time>2018-04-02T08:33:21.000Z</time>
      </trkpt>
      <trkpt lat="42.96083" lon="0.85479">
        <ele>1425</ele>
        <time>2018-04-02T08:33:23.000Z</time>
      </trkpt>
      <trkpt lat="42.96082" lon="0.85478">
        <ele>1426</ele>
        <time>2018-04-02T08:33:25.000Z</time>
      </trkpt>
      <trkpt lat="42.96081" lon="0.85478">
        <ele>1426</ele>
        <time>2018-04-02T08:33:27.000Z</time>
      </trkpt>
      <trkpt lat="42.9608" lon="0.85477">
        <ele>1426</ele>
        <time>2018-04-02T08:33:29.000Z</time>
      </trkpt>
      <trkpt lat="42.96079" lon="0.85475">
        <ele>1426</ele>
        <time>2018-04-02T08:33:31.000Z</time>
      </trkpt>
      <trkpt lat="42.96078" lon="0.85474">
        <ele>1427</ele>
        <time>2018-04-02T08:33:33.000Z</time>
      </trkpt>
      <trkpt lat="42.96077" lon="0.85473">
        <ele>1427</ele>
        <time>2018-04-02T08:33:35.000Z</time>
      </trkpt>
      <trkpt lat="42.96076" lon="0.85472">
        <ele>1427</ele>
        <time>2018-04-02T08:33:37.000Z</time>
      </trkpt>
      <trkpt lat="42.96074" lon="0.85471">
        <ele>1427</ele>
        <time>2018-04-02T08:33:39.000Z</time>
      </trkpt>
      <trkpt lat="42.96073" lon="0.8547">
        <ele>1427</ele>
        <time>2018-04-02T08:33:41.000Z</time>
      </trkpt>
      <trkpt lat="42.96072" lon="0.85469">
        <ele>1427</ele>
        <time>2018-04-02T08:33:43.000Z</time>
      </trkpt>
      <trkpt lat="42.9607" lon="0.85468">
        <ele>1427</ele>
        <time>2018-04-02T08:33:45.000Z</time>
      </trkpt>
      <trkpt lat="42.96069" lon="0.85467">
        <ele>1427</ele>
        <time>2018-04-02T08:33:47.000Z</time>
      </trkpt>
      <trkpt lat="42.96068" lon="0.85466">
        <ele>1427</ele>
        <time>2018-04-02T08:33:49.000Z</time>
      </trkpt>
      <trkpt lat="42.96066" lon="0.85465">
        <ele>1427</ele>
        <time>2018-04-02T08:33:51.000Z</time>
      </trkpt>
      <trkpt lat="42.96065" lon="0.85464">
        <ele>1427</ele>
        <time>2018-04-02T08:33:53.000Z</time>
      </trkpt>
      <trkpt lat="42.96063" lon="0.85463">
        <ele>1427</ele>
        <time>2018-04-02T08:33:55.000Z</time>
      </trkpt>
      <trkpt lat="42.96061" lon="0.85462">
        <ele>1427</ele>
        <time>2018-04-02T08:33:57.000Z</time>
      </trkpt>
      <trkpt lat="42.9606" lon="0.8546">
        <ele>1427</ele>
        <time>2018-04-02T08:33:59.000Z</time>
      </trkpt>
      <trkpt lat="42.96058" lon="0.85459">
        <ele>1427</ele>
        <time>2018-04-02T08:34:01.000Z</time>
      </trkpt>
      <trkpt lat="42.96057" lon="0.85457">
        <ele>1427</ele>
        <time>2018-04-02T08:34:03.000Z</time>
      </trkpt>
      <trkpt lat="42.96056" lon="0.85457">
        <ele>1427</ele>
        <time>2018-04-02T08:34:05.000Z</time>
      </trkpt>
      <trkpt lat="42.96054" lon="0.85456">
        <ele>1427</ele>
        <time>2018-04-02T08:34:07.000Z</time>
      </trkpt>
      <trkpt lat="42.96052" lon="0.85456">
        <ele>1427</ele>
        <time>2018-04-02T08:34:09.000Z</time>
      </trkpt>
      <trkpt lat="42.96051" lon="0.85455">
        <ele>1427</ele>
        <time>2018-04-02T08:34:11.000Z</time>
      </trkpt>
      <trkpt lat="42.96049" lon="0.85455">
        <ele>1427</ele>
        <time>2018-04-02T08:34:13.000Z</time>
      </trkpt>
      <trkpt lat="42.96048" lon="0.85454">
        <ele>1427</ele>
        <time>2018-04-02T08:34:15.000Z</time>
      </trkpt>
      <trkpt lat="42.96046" lon="0.85453">
        <ele>1427</ele>
        <time>2018-04-02T08:34:17.000Z</time>
      </trkpt>
      <trkpt lat="42.96044" lon="0.85453">
        <ele>1427</ele>
        <time>2018-04-02T08:34:19.000Z</time>
      </trkpt>
      <trkpt lat="42.96043" lon="0.85452">
        <ele>1427</ele>
        <time>2018-04-02T08:34:21.000Z</time>
      </trkpt>
      <trkpt lat="42.96041" lon="0.85451">
        <ele>1427</ele>
        <time>2018-04-02T08:34:23.000Z</time>
      </trkpt>
      <trkpt lat="42.96039" lon="0.85451">
        <ele>1427</ele>
        <time>2018-04-02T08:34:25.000Z</time>
      </trkpt>
      <trkpt lat="42.96037" lon="0.85451">
        <ele>1427</ele>
        <time>2018-04-02T08:34:27.000Z</time>
      </trkpt>
      <trkpt lat="42.96036" lon="0.8545">
        <ele>1427</ele>
        <time>2018-04-02T08:34:29.000Z</time>
      </trkpt>
      <trkpt lat="42.96035" lon="0.8545">
        <ele>1427</ele>
        <time>2018-04-02T08:34:31.000Z</time>
      </trkpt>
      <trkpt lat="42.96033" lon="0.8545">
        <ele>1428</ele>
        <time>2018-04-02T08:34:33.000Z</time>
      </trkpt>
      <trkpt lat="42.96031" lon="0.85449">
        <ele>1428</ele>
        <time>2018-04-02T08:34:35.000Z</time>
      </trkpt>
      <trkpt lat="42.9603" lon="0.85449">
        <ele>1428</ele>
        <time>2018-04-02T08:34:37.000Z</time>
      </trkpt>
      <trkpt lat="42.96028" lon="0.85448">
        <ele>1428</ele>
        <time>2018-04-02T08:34:39.000Z</time>
      </trkpt>
      <trkpt lat="42.96026" lon="0.85447">
        <ele>1428</ele>
        <time>2018-04-02T08:34:41.000Z</time>
      </trkpt>
      <trkpt lat="42.96025" lon="0.85446">
        <ele>1428</ele>
        <time>2018-04-02T08:34:43.000Z</time>
      </trkpt>
      <trkpt lat="42.96023" lon="0.85445">
        <ele>1428</ele>
        <time>2018-04-02T08:34:45.000Z</time>
      </trkpt>
      <trkpt lat="42.96022" lon="0.85444">
        <ele>1428</ele>
        <time>2018-04-02T08:34:47.000Z</time>
      </trkpt>
      <trkpt lat="42.96021" lon="0.85444">
        <ele>1428</ele>
        <time>2018-04-02T08:34:49.000Z</time>
      </trkpt>
      <trkpt lat="42.9602" lon="0.85443">
        <ele>1428</ele>
        <time>2018-04-02T08:34:51.000Z</time>
      </trkpt>
      <trkpt lat="42.9602" lon="0.85442">
        <ele>1428</ele>
        <time>2018-04-02T08:34:53.000Z</time>
      </trkpt>
      <trkpt lat="42.9602" lon="0.85442">
        <ele>1428</ele>
        <time>2018-04-02T08:34:55.000Z</time>
      </trkpt>
      <trkpt lat="42.96021" lon="0.85442">
        <ele>1428</ele>
        <time>2018-04-02T08:34:57.000Z</time>
      </trkpt>
      <trkpt lat="42.96021" lon="0.85442">
        <ele>1428</ele>
        <time>2018-04-02T08:34:59.000Z</time>
      </trkpt>
      <trkpt lat="42.96021" lon="0.85442">
        <ele>1428</ele>
        <time>2018-04-02T08:35:01.000Z</time>
      </trkpt>
      <trkpt lat="42.96021" lon="0.85442">
        <ele>1428</ele>
        <time>2018-04-02T08:35:03.000Z</time>
      </trkpt>
      <trkpt lat="42.9602" lon="0.85442">
        <ele>1428</ele>
        <time>2018-04-02T08:35:05.000Z</time>
      </trkpt>
      <trkpt lat="42.9602" lon="0.85443">
        <ele>1428</ele>
        <time>2018-04-02T08:35:07.000Z</time>
      </trkpt>
      <trkpt lat="42.9602" lon="0.85443">
        <ele>1428</ele>
        <time>2018-04-02T08:35:09.000Z</time>
      </trkpt>
      <trkpt lat="42.9602" lon="0.85443">
        <ele>1428</ele>
        <time>2018-04-02T08:35:11.000Z</time>
      </trkpt>
      <trkpt lat="42.9602" lon="0.85443">
        <ele>1428</ele>
        <time>2018-04-02T08:35:13.000Z</time>
      </trkpt>
      <trkpt lat="42.9602" lon="0.85443">
        <ele>1428</ele>
        <time>2018-04-02T08:35:15.000Z</time>
      </trkpt>
      <trkpt lat="42.9602" lon="0.85443">
        <ele>1428</ele>
        <time>2018-04-02T08:35:17.000Z</time>
      </trkpt>
      <trkpt lat="42.9602" lon="0.85443">
        <ele>1428</ele>
        <time>2018-04-02T08:35:19.000Z</time>
      </trkpt>
      <trkpt lat="42.9602" lon="0.85443">
        <ele>1428</ele>
        <time>2018-04-02T08:35:21.000Z</time>
      </trkpt>
      <trkpt lat="42.9602" lon="0.85442">
        <ele>1428</ele>
        <time>2018-04-02T08:35:23.000Z</time>
      </trkpt>
      <trkpt lat="42.9602" lon="0.85442">
        <ele>1428</ele>
        <time>2018-04-02T08:35:25.000Z</time>
      </trkpt>
      <trkpt lat="42.9602" lon="0.85443">
        <ele>1428</ele>
        <time>2018-04-02T08:35:27.000Z</time>
      </trkpt>
      <trkpt lat="42.9602" lon="0.85442">
        <ele>1428</ele>
        <time>2018-04-02T08:35:29.000Z</time>
      </trkpt>
      <trkpt lat="42.9602" lon="0.85442">
        <ele>1428</ele>
        <time>2018-04-02T08:35:31.000Z</time>
      </trkpt>
      <trkpt lat="42.96019" lon="0.85443">
        <ele>1428</ele>
        <time>2018-04-02T08:35:33.000Z</time>
      </trkpt>
      <trkpt lat="42.96019" lon="0.85443">
        <ele>1428</ele>
        <time>2018-04-02T08:35:35.000Z</time>
      </trkpt>
      <trkpt lat="42.96019" lon="0.85443">
        <ele>1428</ele>
        <time>2018-04-02T08:35:37.000Z</time>
      </trkpt>
      <trkpt lat="42.96019" lon="0.85443">
        <ele>1428</ele>
        <time>2018-04-02T08:35:39.000Z</time>
      </trkpt>
      <trkpt lat="42.96019" lon="0.85444">
        <ele>1428</ele>
        <time>2018-04-02T08:35:41.000Z</time>
      </trkpt>
      <trkpt lat="42.9602" lon="0.85444">
        <ele>1428</ele>
        <time>2018-04-02T08:35:43.000Z</time>
      </trkpt>
      <trkpt lat="42.96019" lon="0.85444">
        <ele>1428</ele>
        <time>2018-04-02T08:35:45.000Z</time>
      </trkpt>
      <trkpt lat="42.96019" lon="0.85444">
        <ele>1428</ele>
        <time>2018-04-02T08:35:47.000Z</time>
      </trkpt>
      <trkpt lat="42.96019" lon="0.85444">
        <ele>1428</ele>
        <time>2018-04-02T08:35:49.000Z</time>
      </trkpt>
      <trkpt lat="42.96019" lon="0.85444">
        <ele>1428</ele>
        <time>2018-04-02T08:35:51.000Z</time>
      </trkpt>
      <trkpt lat="42.96019" lon="0.85444">
        <ele>1428</ele>
        <time>2018-04-02T08:35:53.000Z</time>
      </trkpt>
      <trkpt lat="42.96019" lon="0.85443">
        <ele>1428</ele>
        <time>2018-04-02T08:35:55.000Z</time>
      </trkpt>
      <trkpt lat="42.96019" lon="0.85443">
        <ele>1428</ele>
        <time>2018-04-02T08:35:57.000Z</time>
      </trkpt>
      <trkpt lat="42.96019" lon="0.85443">
        <ele>1428</ele>
        <time>2018-04-02T08:35:59.000Z</time>
      </trkpt>
      <trkpt lat="42.96019" lon="0.85443">
        <ele>1428</ele>
        <time>2018-04-02T08:36:01.000Z</time>
      </trkpt>
      <trkpt lat="42.96019" lon="0.85442">
        <ele>1428</ele>
        <time>2018-04-02T08:36:03.000Z</time>
      </trkpt>
      <trkpt lat="42.96019" lon="0.85442">
        <ele>1428</ele>
        <time>2018-04-02T08:36:05.000Z</time>
      </trkpt>
      <trkpt lat="42.96019" lon="0.85443">
        <ele>1428</ele>
        <time>2018-04-02T08:36:07.000Z</time>
      </trkpt>
      <trkpt lat="42.96019" lon="0.85443">
        <ele>1428</ele>
        <time>2018-04-02T08:36:09.000Z</time>
      </trkpt>
      <trkpt lat="42.96019" lon="0.85443">
        <ele>1428</ele>
        <time>2018-04-02T08:36:11.000Z</time>
      </trkpt>
      <trkpt lat="42.96019" lon="0.85443">
        <ele>1428</ele>
        <time>2018-04-02T08:36:13.000Z</time>
      </trkpt>
      <trkpt lat="42.96019" lon="0.85443">
        <ele>1428</ele>
        <time>2018-04-02T08:36:15.000Z</time>
      </trkpt>
      <trkpt lat="42.96019" lon="0.85443">
        <ele>1428</ele>
        <time>2018-04-02T08:36:17.000Z</time>
      </trkpt>
      <trkpt lat="42.96019" lon="0.85443">
        <ele>1428</ele>
        <time>2018-04-02T08:36:19.000Z</time>
      </trkpt>
      <trkpt lat="42.96019" lon="0.85443">
        <ele>1428</ele>
        <time>2018-04-02T08:36:21.000Z</time>
      </trkpt>
      <trkpt lat="42.96019" lon="0.85443">
        <ele>1428</ele>
        <time>2018-04-02T08:36:23.000Z</time>
      </trkpt>
      <trkpt lat="42.96019" lon="0.85443">
        <ele>1428</ele>
        <time>2018-04-02T08:36:25.000Z</time>
      </trkpt>
      <trkpt lat="42.96019" lon="0.85443">
        <ele>1428</ele>
        <time>2018-04-02T08:36:27.000Z</time>
      </trkpt>
      <trkpt lat="42.96019" lon="0.85442">
        <ele>1428</ele>
        <time>2018-04-02T08:36:29.000Z</time>
      </trkpt>
      <trkpt lat="42.96019" lon="0.85442">
        <ele>1428</ele>
        <time>2018-04-02T08:36:31.000Z</time>
      </trkpt>
      <trkpt lat="42.96019" lon="0.85443">
        <ele>1428</ele>
        <time>2018-04-02T08:36:33.000Z</time>
      </trkpt>
      <trkpt lat="42.96018" lon="0.85443">
        <ele>1428</ele>
        <time>2018-04-02T08:36:35.000Z</time>
      </trkpt>
      <trkpt lat="42.96016" lon="0.85442">
        <ele>1428</ele>
        <time>2018-04-02T08:36:37.000Z</time>
      </trkpt>
      <trkpt lat="42.96015" lon="0.85442">
        <ele>1428</ele>
        <time>2018-04-02T08:36:39.000Z</time>
      </trkpt>
      <trkpt lat="42.96013" lon="0.85441">
        <ele>1428</ele>
        <time>2018-04-02T08:36:41.000Z</time>
      </trkpt>
      <trkpt lat="42.96012" lon="0.85441">
        <ele>1428</ele>
        <time>2018-04-02T08:36:43.000Z</time>
      </trkpt>
      <trkpt lat="42.9601" lon="0.8544">
        <ele>1428</ele>
        <time>2018-04-02T08:36:45.000Z</time>
      </trkpt>
      <trkpt lat="42.96009" lon="0.85438">
        <ele>1428</ele>
        <time>2018-04-02T08:36:47.000Z</time>
      </trkpt>
      <trkpt lat="42.96008" lon="0.85437">
        <ele>1428</ele>
        <time>2018-04-02T08:36:49.000Z</time>
      </trkpt>
      <trkpt lat="42.96006" lon="0.85436">
        <ele>1428</ele>
        <time>2018-04-02T08:36:51.000Z</time>
      </trkpt>
      <trkpt lat="42.96005" lon="0.85435">
        <ele>1428</ele>
        <time>2018-04-02T08:36:53.000Z</time>
      </trkpt>
      <trkpt lat="42.96005" lon="0.85434">
        <ele>1428</ele>
        <time>2018-04-02T08:36:55.000Z</time>
      </trkpt>
      <trkpt lat="42.96005" lon="0.85434">
        <ele>1428</ele>
        <time>2018-04-02T08:36:57.000Z</time>
      </trkpt>
      <trkpt lat="42.96005" lon="0.85433">
        <ele>1428</ele>
        <time>2018-04-02T08:36:59.000Z</time>
      </trkpt>
      <trkpt lat="42.96005" lon="0.85431">
        <ele>1428</ele>
        <time>2018-04-02T08:37:01.000Z</time>
      </trkpt>
      <trkpt lat="42.96004" lon="0.8543">
        <ele>1428</ele>
        <time>2018-04-02T08:37:03.000Z</time>
      </trkpt>
      <trkpt lat="42.96004" lon="0.85428">
        <ele>1428</ele>
        <time>2018-04-02T08:37:05.000Z</time>
      </trkpt>
      <trkpt lat="42.96004" lon="0.85426">
        <ele>1428</ele>
        <time>2018-04-02T08:37:07.000Z</time>
      </trkpt>
      <trkpt lat="42.96004" lon="0.85423">
        <ele>1427</ele>
        <time>2018-04-02T08:37:09.000Z</time>
      </trkpt>
      <trkpt lat="42.96004" lon="0.85421">
        <ele>1427</ele>
        <time>2018-04-02T08:37:11.000Z</time>
      </trkpt>
      <trkpt lat="42.96005" lon="0.85419">
        <ele>1427</ele>
        <time>2018-04-02T08:37:13.000Z</time>
      </trkpt>
      <trkpt lat="42.96005" lon="0.85417">
        <ele>1427</ele>
        <time>2018-04-02T08:37:15.000Z</time>
      </trkpt>
      <trkpt lat="42.96006" lon="0.85415">
        <ele>1426</ele>
        <time>2018-04-02T08:37:17.000Z</time>
      </trkpt>
      <trkpt lat="42.96006" lon="0.85413">
        <ele>1426</ele>
        <time>2018-04-02T08:37:19.000Z</time>
      </trkpt>
      <trkpt lat="42.96006" lon="0.85411">
        <ele>1426</ele>
        <time>2018-04-02T08:37:21.000Z</time>
      </trkpt>
      <trkpt lat="42.96006" lon="0.85409">
        <ele>1426</ele>
        <time>2018-04-02T08:37:23.000Z</time>
      </trkpt>
      <trkpt lat="42.96007" lon="0.85407">
        <ele>1426</ele>
        <time>2018-04-02T08:37:25.000Z</time>
      </trkpt>
      <trkpt lat="42.96007" lon="0.85405">
        <ele>1425</ele>
        <time>2018-04-02T08:37:27.000Z</time>
      </trkpt>
      <trkpt lat="42.96007" lon="0.85403">
        <ele>1425</ele>
        <time>2018-04-02T08:37:29.000Z</time>
      </trkpt>
      <trkpt lat="42.96007" lon="0.854">
        <ele>1425</ele>
        <time>2018-04-02T08:37:31.000Z</time>
      </trkpt>
      <trkpt lat="42.96007" lon="0.85398">
        <ele>1425</ele>
        <time>2018-04-02T08:37:33.000Z</time>
      </trkpt>
      <trkpt lat="42.96007" lon="0.85396">
        <ele>1425</ele>
        <time>2018-04-02T08:37:35.000Z</time>
      </trkpt>
      <trkpt lat="42.96007" lon="0.85393">
        <ele>1424</ele>
        <time>2018-04-02T08:37:37.000Z</time>
      </trkpt>
      <trkpt lat="42.96008" lon="0.85391">
        <ele>1424</ele>
        <time>2018-04-02T08:37:39.000Z</time>
      </trkpt>
      <trkpt lat="42.96008" lon="0.85389">
        <ele>1424</ele>
        <time>2018-04-02T08:37:41.000Z</time>
      </trkpt>
      <trkpt lat="42.96007" lon="0.85387">
        <ele>1424</ele>
        <time>2018-04-02T08:37:43.000Z</time>
      </trkpt>
      <trkpt lat="42.96007" lon="0.85385">
        <ele>1424</ele>
        <time>2018-04-02T08:37:45.000Z</time>
      </trkpt>
      <trkpt lat="42.96007" lon="0.85383">
        <ele>1423</ele>
        <time>2018-04-02T08:37:47.000Z</time>
      </trkpt>
      <trkpt lat="42.96007" lon="0.85381">
        <ele>1423</ele>
        <time>2018-04-02T08:37:49.000Z</time>
      </trkpt>
      <trkpt lat="42.96006" lon="0.85378">
        <ele>1423</ele>
        <time>2018-04-02T08:37:51.000Z</time>
      </trkpt>
      <trkpt lat="42.96006" lon="0.85376">
        <ele>1423</ele>
        <time>2018-04-02T08:37:53.000Z</time>
      </trkpt>
      <trkpt lat="42.96005" lon="0.85374">
        <ele>1423</ele>
        <time>2018-04-02T08:37:55.000Z</time>
      </trkpt>
      <trkpt lat="42.96004" lon="0.85372">
        <ele>1423</ele>
        <time>2018-04-02T08:37:57.000Z</time>
      </trkpt>
      <trkpt lat="42.96004" lon="0.8537">
        <ele>1422</ele>
        <time>2018-04-02T08:37:59.000Z</time>
      </trkpt>
      <trkpt lat="42.96002" lon="0.85368">
        <ele>1422</ele>
        <time>2018-04-02T08:38:01.000Z</time>
      </trkpt>
      <trkpt lat="42.96002" lon="0.85366">
        <ele>1422</ele>
        <time>2018-04-02T08:38:03.000Z</time>
      </trkpt>
      <trkpt lat="42.96001" lon="0.85364">
        <ele>1422</ele>
        <time>2018-04-02T08:38:05.000Z</time>
      </trkpt>
      <trkpt lat="42.96001" lon="0.85362">
        <ele>1422</ele>
        <time>2018-04-02T08:38:07.000Z</time>
      </trkpt>
      <trkpt lat="42.96" lon="0.85359">
        <ele>1422</ele>
        <time>2018-04-02T08:38:09.000Z</time>
      </trkpt>
      <trkpt lat="42.96" lon="0.85357">
        <ele>1422</ele>
        <time>2018-04-02T08:38:11.000Z</time>
      </trkpt>
      <trkpt lat="42.95999" lon="0.85355">
        <ele>1421</ele>
        <time>2018-04-02T08:38:13.000Z</time>
      </trkpt>
      <trkpt lat="42.95999" lon="0.85353">
        <ele>1421</ele>
        <time>2018-04-02T08:38:15.000Z</time>
      </trkpt>
      <trkpt lat="42.95998" lon="0.85351">
        <ele>1421</ele>
        <time>2018-04-02T08:38:17.000Z</time>
      </trkpt>
      <trkpt lat="42.95998" lon="0.85349">
        <ele>1421</ele>
        <time>2018-04-02T08:38:19.000Z</time>
      </trkpt>
      <trkpt lat="42.95997" lon="0.85347">
        <ele>1421</ele>
        <time>2018-04-02T08:38:21.000Z</time>
      </trkpt>
      <trkpt lat="42.95997" lon="0.85346">
        <ele>1421</ele>
        <time>2018-04-02T08:38:23.000Z</time>
      </trkpt>
      <trkpt lat="42.95997" lon="0.85344">
        <ele>1420</ele>
        <time>2018-04-02T08:38:25.000Z</time>
      </trkpt>
      <trkpt lat="42.95996" lon="0.85342">
        <ele>1420</ele>
        <time>2018-04-02T08:38:27.000Z</time>
      </trkpt>
      <trkpt lat="42.95996" lon="0.85341">
        <ele>1420</ele>
        <time>2018-04-02T08:38:29.000Z</time>
      </trkpt>
      <trkpt lat="42.95996" lon="0.85339">
        <ele>1420</ele>
        <time>2018-04-02T08:38:31.000Z</time>
      </trkpt>
      <trkpt lat="42.95996" lon="0.85338">
        <ele>1420</ele>
        <time>2018-04-02T08:38:33.000Z</time>
      </trkpt>
      <trkpt lat="42.95996" lon="0.85336">
        <ele>1420</ele>
        <time>2018-04-02T08:38:35.000Z</time>
      </trkpt>
      <trkpt lat="42.95997" lon="0.85335">
        <ele>1419</ele>
        <time>2018-04-02T08:38:37.000Z</time>
      </trkpt>
      <trkpt lat="42.95997" lon="0.85334">
        <ele>1419</ele>
        <time>2018-04-02T08:38:39.000Z</time>
      </trkpt>
      <trkpt lat="42.95997" lon="0.85333">
        <ele>1419</ele>
        <time>2018-04-02T08:38:41.000Z</time>
      </trkpt>
      <trkpt lat="42.95996" lon="0.85332">
        <ele>1419</ele>
        <time>2018-04-02T08:38:43.000Z</time>
      </trkpt>
      <trkpt lat="42.95996" lon="0.85331">
        <ele>1419</ele>
        <time>2018-04-02T08:38:45.000Z</time>
      </trkpt>
      <trkpt lat="42.95995" lon="0.85329">
        <ele>1419</ele>
        <time>2018-04-02T08:38:47.000Z</time>
      </trkpt>
      <trkpt lat="42.95995" lon="0.85328">
        <ele>1419</ele>
        <time>2018-04-02T08:38:49.000Z</time>
      </trkpt>
      <trkpt lat="42.95993" lon="0.85325">
        <ele>1419</ele>
        <time>2018-04-02T08:38:51.000Z</time>
      </trkpt>
      <trkpt lat="42.95992" lon="0.85323">
        <ele>1419</ele>
        <time>2018-04-02T08:38:53.000Z</time>
      </trkpt>
      <trkpt lat="42.95989" lon="0.85321">
        <ele>1419</ele>
        <time>2018-04-02T08:38:55.000Z</time>
      </trkpt>
      <trkpt lat="42.95988" lon="0.8532">
        <ele>1419</ele>
        <time>2018-04-02T08:38:57.000Z</time>
      </trkpt>
      <trkpt lat="42.95987" lon="0.8532">
        <ele>1419</ele>
        <time>2018-04-02T08:38:59.000Z</time>
      </trkpt>
      <trkpt lat="42.95985" lon="0.85321">
        <ele>1419</ele>
        <time>2018-04-02T08:39:01.000Z</time>
      </trkpt>
      <trkpt lat="42.95984" lon="0.85321">
        <ele>1419</ele>
        <time>2018-04-02T08:39:03.000Z</time>
      </trkpt>
      <trkpt lat="42.95982" lon="0.85321">
        <ele>1420</ele>
        <time>2018-04-02T08:39:05.000Z</time>
      </trkpt>
      <trkpt lat="42.95981" lon="0.85321">
        <ele>1420</ele>
        <time>2018-04-02T08:39:07.000Z</time>
      </trkpt>
      <trkpt lat="42.9598" lon="0.85321">
        <ele>1420</ele>
        <time>2018-04-02T08:39:09.000Z</time>
      </trkpt>
      <trkpt lat="42.95979" lon="0.85321">
        <ele>1420</ele>
        <time>2018-04-02T08:39:11.000Z</time>
      </trkpt>
      <trkpt lat="42.95977" lon="0.85321">
        <ele>1420</ele>
        <time>2018-04-02T08:39:13.000Z</time>
      </trkpt>
      <trkpt lat="42.95977" lon="0.85322">
        <ele>1420</ele>
        <time>2018-04-02T08:39:15.000Z</time>
      </trkpt>
      <trkpt lat="42.95976" lon="0.85323">
        <ele>1421</ele>
        <time>2018-04-02T08:39:17.000Z</time>
      </trkpt>
      <trkpt lat="42.95974" lon="0.85323">
        <ele>1421</ele>
        <time>2018-04-02T08:39:19.000Z</time>
      </trkpt>
      <trkpt lat="42.95973" lon="0.85322">
        <ele>1421</ele>
        <time>2018-04-02T08:39:21.000Z</time>
      </trkpt>
      <trkpt lat="42.95971" lon="0.8532">
        <ele>1421</ele>
        <time>2018-04-02T08:39:23.000Z</time>
      </trkpt>
      <trkpt lat="42.9597" lon="0.85318">
        <ele>1421</ele>
        <time>2018-04-02T08:39:25.000Z</time>
      </trkpt>
      <trkpt lat="42.9597" lon="0.85317">
        <ele>1421</ele>
        <time>2018-04-02T08:39:27.000Z</time>
      </trkpt>
      <trkpt lat="42.95969" lon="0.85314">
        <ele>1421</ele>
        <time>2018-04-02T08:39:29.000Z</time>
      </trkpt>
      <trkpt lat="42.95967" lon="0.85312">
        <ele>1421</ele>
        <time>2018-04-02T08:39:31.000Z</time>
      </trkpt>
      <trkpt lat="42.95966" lon="0.8531">
        <ele>1420</ele>
        <time>2018-04-02T08:39:33.000Z</time>
      </trkpt>
      <trkpt lat="42.95965" lon="0.85308">
        <ele>1420</ele>
        <time>2018-04-02T08:39:35.000Z</time>
      </trkpt>
      <trkpt lat="42.95964" lon="0.85305">
        <ele>1420</ele>
        <time>2018-04-02T08:39:37.000Z</time>
      </trkpt>
      <trkpt lat="42.95964" lon="0.85302">
        <ele>1420</ele>
        <time>2018-04-02T08:39:39.000Z</time>
      </trkpt>
      <trkpt lat="42.95964" lon="0.85301">
        <ele>1420</ele>
        <time>2018-04-02T08:39:41.000Z</time>
      </trkpt>
      <trkpt lat="42.95965" lon="0.85299">
        <ele>1419</ele>
        <time>2018-04-02T08:39:43.000Z</time>
      </trkpt>
      <trkpt lat="42.95964" lon="0.85298">
        <ele>1419</ele>
        <time>2018-04-02T08:39:45.000Z</time>
      </trkpt>
      <trkpt lat="42.95964" lon="0.85297">
        <ele>1419</ele>
        <time>2018-04-02T08:39:47.000Z</time>
      </trkpt>
      <trkpt lat="42.95964" lon="0.85297">
        <ele>1419</ele>
        <time>2018-04-02T08:39:49.000Z</time>
      </trkpt>
      <trkpt lat="42.95964" lon="0.85295">
        <ele>1419</ele>
        <time>2018-04-02T08:39:51.000Z</time>
      </trkpt>
      <trkpt lat="42.95964" lon="0.85294">
        <ele>1419</ele>
        <time>2018-04-02T08:39:53.000Z</time>
      </trkpt>
      <trkpt lat="42.95963" lon="0.85293">
        <ele>1419</ele>
        <time>2018-04-02T08:39:55.000Z</time>
      </trkpt>
      <trkpt lat="42.95963" lon="0.85293">
        <ele>1419</ele>
        <time>2018-04-02T08:39:57.000Z</time>
      </trkpt>
      <trkpt lat="42.95962" lon="0.85292">
        <ele>1419</ele>
        <time>2018-04-02T08:39:59.000Z</time>
      </trkpt>
      <trkpt lat="42.95961" lon="0.8529">
        <ele>1419</ele>
        <time>2018-04-02T08:40:01.000Z</time>
      </trkpt>
      <trkpt lat="42.9596" lon="0.85289">
        <ele>1419</ele>
        <time>2018-04-02T08:40:03.000Z</time>
      </trkpt>
      <trkpt lat="42.9596" lon="0.85288">
        <ele>1419</ele>
        <time>2018-04-02T08:40:05.000Z</time>
      </trkpt>
      <trkpt lat="42.95959" lon="0.85286">
        <ele>1419</ele>
        <time>2018-04-02T08:40:07.000Z</time>
      </trkpt>
      <trkpt lat="42.95958" lon="0.85284">
        <ele>1419</ele>
        <time>2018-04-02T08:40:09.000Z</time>
      </trkpt>
      <trkpt lat="42.95957" lon="0.85282">
        <ele>1418</ele>
        <time>2018-04-02T08:40:11.000Z</time>
      </trkpt>
      <trkpt lat="42.95956" lon="0.8528">
        <ele>1418</ele>
        <time>2018-04-02T08:40:13.000Z</time>
      </trkpt>
      <trkpt lat="42.95954" lon="0.85278">
        <ele>1418</ele>
        <time>2018-04-02T08:40:15.000Z</time>
      </trkpt>
      <trkpt lat="42.95953" lon="0.85276">
        <ele>1418</ele>
        <time>2018-04-02T08:40:17.000Z</time>
      </trkpt>
      <trkpt lat="42.95953" lon="0.85274">
        <ele>1418</ele>
        <time>2018-04-02T08:40:19.000Z</time>
      </trkpt>
      <trkpt lat="42.95953" lon="0.85272">
        <ele>1418</ele>
        <time>2018-04-02T08:40:21.000Z</time>
      </trkpt>
      <trkpt lat="42.95953" lon="0.85271">
        <ele>1418</ele>
        <time>2018-04-02T08:40:23.000Z</time>
      </trkpt>
      <trkpt lat="42.95952" lon="0.85271">
        <ele>1418</ele>
        <time>2018-04-02T08:40:25.000Z</time>
      </trkpt>
      <trkpt lat="42.95951" lon="0.85271">
        <ele>1418</ele>
        <time>2018-04-02T08:40:27.000Z</time>
      </trkpt>
      <trkpt lat="42.9595" lon="0.85272">
        <ele>1418</ele>
        <time>2018-04-02T08:40:29.000Z</time>
      </trkpt>
      <trkpt lat="42.9595" lon="0.85272">
        <ele>1418</ele>
        <time>2018-04-02T08:40:31.000Z</time>
      </trkpt>
      <trkpt lat="42.95949" lon="0.85274">
        <ele>1419</ele>
        <time>2018-04-02T08:40:33.000Z</time>
      </trkpt>
      <trkpt lat="42.95948" lon="0.85275">
        <ele>1419</ele>
        <time>2018-04-02T08:40:35.000Z</time>
      </trkpt>
      <trkpt lat="42.95947" lon="0.85276">
        <ele>1419</ele>
        <time>2018-04-02T08:40:37.000Z</time>
      </trkpt>
      <trkpt lat="42.95945" lon="0.85276">
        <ele>1419</ele>
        <time>2018-04-02T08:40:39.000Z</time>
      </trkpt>
      <trkpt lat="42.95943" lon="0.85276">
        <ele>1420</ele>
        <time>2018-04-02T08:40:41.000Z</time>
      </trkpt>
      <trkpt lat="42.95942" lon="0.85276">
        <ele>1420</ele>
        <time>2018-04-02T08:40:43.000Z</time>
      </trkpt>
      <trkpt lat="42.9594" lon="0.85276">
        <ele>1420</ele>
        <time>2018-04-02T08:40:45.000Z</time>
      </trkpt>
      <trkpt lat="42.95938" lon="0.85276">
        <ele>1420</ele>
        <time>2018-04-02T08:40:47.000Z</time>
      </trkpt>
      <trkpt lat="42.95936" lon="0.85276">
        <ele>1420</ele>
        <time>2018-04-02T08:40:49.000Z</time>
      </trkpt>
      <trkpt lat="42.95934" lon="0.85276">
        <ele>1421</ele>
        <time>2018-04-02T08:40:51.000Z</time>
      </trkpt>
      <trkpt lat="42.95932" lon="0.85276">
        <ele>1421</ele>
        <time>2018-04-02T08:40:53.000Z</time>
      </trkpt>
      <trkpt lat="42.9593" lon="0.85276">
        <ele>1421</ele>
        <time>2018-04-02T08:40:55.000Z</time>
      </trkpt>
      <trkpt lat="42.95928" lon="0.85275">
        <ele>1421</ele>
        <time>2018-04-02T08:40:57.000Z</time>
      </trkpt>
      <trkpt lat="42.95927" lon="0.85274">
        <ele>1421</ele>
        <time>2018-04-02T08:40:59.000Z</time>
      </trkpt>
      <trkpt lat="42.95925" lon="0.85273">
        <ele>1421</ele>
        <time>2018-04-02T08:41:01.000Z</time>
      </trkpt>
      <trkpt lat="42.95924" lon="0.85273">
        <ele>1421</ele>
        <time>2018-04-02T08:41:03.000Z</time>
      </trkpt>
      <trkpt lat="42.95922" lon="0.85272">
        <ele>1421</ele>
        <time>2018-04-02T08:41:05.000Z</time>
      </trkpt>
      <trkpt lat="42.95921" lon="0.85271">
        <ele>1421</ele>
        <time>2018-04-02T08:41:07.000Z</time>
      </trkpt>
      <trkpt lat="42.9592" lon="0.8527">
        <ele>1421</ele>
        <time>2018-04-02T08:41:09.000Z</time>
      </trkpt>
      <trkpt lat="42.95919" lon="0.85269">
        <ele>1421</ele>
        <time>2018-04-02T08:41:11.000Z</time>
      </trkpt>
      <trkpt lat="42.95918" lon="0.85268">
        <ele>1421</ele>
        <time>2018-04-02T08:41:13.000Z</time>
      </trkpt>
      <trkpt lat="42.95917" lon="0.85266">
        <ele>1421</ele>
        <time>2018-04-02T08:41:15.000Z</time>
      </trkpt>
      <trkpt lat="42.95917" lon="0.85264">
        <ele>1421</ele>
        <time>2018-04-02T08:41:17.000Z</time>
      </trkpt>
      <trkpt lat="42.95916" lon="0.85263">
        <ele>1421</ele>
        <time>2018-04-02T08:41:19.000Z</time>
      </trkpt>
      <trkpt lat="42.95915" lon="0.8526">
        <ele>1421</ele>
        <time>2018-04-02T08:41:21.000Z</time>
      </trkpt>
      <trkpt lat="42.95914" lon="0.85258">
        <ele>1421</ele>
        <time>2018-04-02T08:41:23.000Z</time>
      </trkpt>
      <trkpt lat="42.95914" lon="0.85256">
        <ele>1420</ele>
        <time>2018-04-02T08:41:25.000Z</time>
      </trkpt>
      <trkpt lat="42.95914" lon="0.85254">
        <ele>1420</ele>
        <time>2018-04-02T08:41:27.000Z</time>
      </trkpt>
      <trkpt lat="42.95914" lon="0.85252">
        <ele>1420</ele>
        <time>2018-04-02T08:41:29.000Z</time>
      </trkpt>
      <trkpt lat="42.95914" lon="0.8525">
        <ele>1420</ele>
        <time>2018-04-02T08:41:31.000Z</time>
      </trkpt>
      <trkpt lat="42.95914" lon="0.85248">
        <ele>1420</ele>
        <time>2018-04-02T08:41:33.000Z</time>
      </trkpt>
      <trkpt lat="42.95913" lon="0.85247">
        <ele>1419</ele>
        <time>2018-04-02T08:41:35.000Z</time>
      </trkpt>
      <trkpt lat="42.95913" lon="0.85245">
        <ele>1419</ele>
        <time>2018-04-02T08:41:37.000Z</time>
      </trkpt>
      <trkpt lat="42.95912" lon="0.85245">
        <ele>1419</ele>
        <time>2018-04-02T08:41:39.000Z</time>
      </trkpt>
      <trkpt lat="42.95912" lon="0.85243">
        <ele>1419</ele>
        <time>2018-04-02T08:41:41.000Z</time>
      </trkpt>
      <trkpt lat="42.95911" lon="0.85242">
        <ele>1419</ele>
        <time>2018-04-02T08:41:43.000Z</time>
      </trkpt>
      <trkpt lat="42.9591" lon="0.85241">
        <ele>1419</ele>
        <time>2018-04-02T08:41:45.000Z</time>
      </trkpt>
      <trkpt lat="42.95909" lon="0.85238">
        <ele>1419</ele>
        <time>2018-04-02T08:41:47.000Z</time>
      </trkpt>
      <trkpt lat="42.95908" lon="0.85236">
        <ele>1419</ele>
        <time>2018-04-02T08:41:49.000Z</time>
      </trkpt>
      <trkpt lat="42.95907" lon="0.85234">
        <ele>1419</ele>
        <time>2018-04-02T08:41:51.000Z</time>
      </trkpt>
      <trkpt lat="42.95906" lon="0.85233">
        <ele>1418</ele>
        <time>2018-04-02T08:41:53.000Z</time>
      </trkpt>
      <trkpt lat="42.95905" lon="0.85232">
        <ele>1418</ele>
        <time>2018-04-02T08:41:55.000Z</time>
      </trkpt>
      <trkpt lat="42.95904" lon="0.85232">
        <ele>1418</ele>
        <time>2018-04-02T08:41:57.000Z</time>
      </trkpt>
      <trkpt lat="42.95902" lon="0.8523">
        <ele>1418</ele>
        <time>2018-04-02T08:41:59.000Z</time>
      </trkpt>
      <trkpt lat="42.95901" lon="0.8523">
        <ele>1418</ele>
        <time>2018-04-02T08:42:01.000Z</time>
      </trkpt>
      <trkpt lat="42.959" lon="0.85229">
        <ele>1418</ele>
        <time>2018-04-02T08:42:03.000Z</time>
      </trkpt>
      <trkpt lat="42.95898" lon="0.85227">
        <ele>1418</ele>
        <time>2018-04-02T08:42:05.000Z</time>
      </trkpt>
      <trkpt lat="42.95897" lon="0.85225">
        <ele>1418</ele>
        <time>2018-04-02T08:42:07.000Z</time>
      </trkpt>
      <trkpt lat="42.95895" lon="0.85225">
        <ele>1418</ele>
        <time>2018-04-02T08:42:09.000Z</time>
      </trkpt>
      <trkpt lat="42.95894" lon="0.85224">
        <ele>1418</ele>
        <time>2018-04-02T08:42:11.000Z</time>
      </trkpt>
      <trkpt lat="42.95893" lon="0.85224">
        <ele>1418</ele>
        <time>2018-04-02T08:42:13.000Z</time>
      </trkpt>
      <trkpt lat="42.95891" lon="0.85223">
        <ele>1418</ele>
        <time>2018-04-02T08:42:15.000Z</time>
      </trkpt>
      <trkpt lat="42.9589" lon="0.85221">
        <ele>1418</ele>
        <time>2018-04-02T08:42:17.000Z</time>
      </trkpt>
      <trkpt lat="42.95889" lon="0.85219">
        <ele>1418</ele>
        <time>2018-04-02T08:42:19.000Z</time>
      </trkpt>
      <trkpt lat="42.95888" lon="0.85218">
        <ele>1418</ele>
        <time>2018-04-02T08:42:21.000Z</time>
      </trkpt>
      <trkpt lat="42.95886" lon="0.85216">
        <ele>1418</ele>
        <time>2018-04-02T08:42:23.000Z</time>
      </trkpt>
      <trkpt lat="42.95885" lon="0.85214">
        <ele>1418</ele>
        <time>2018-04-02T08:42:25.000Z</time>
      </trkpt>
      <trkpt lat="42.95884" lon="0.85212">
        <ele>1418</ele>
        <time>2018-04-02T08:42:27.000Z</time>
      </trkpt>
      <trkpt lat="42.95883" lon="0.85208">
        <ele>1418</ele>
        <time>2018-04-02T08:42:29.000Z</time>
      </trkpt>
      <trkpt lat="42.95882" lon="0.85206">
        <ele>1418</ele>
        <time>2018-04-02T08:42:31.000Z</time>
      </trkpt>
      <trkpt lat="42.95881" lon="0.85204">
        <ele>1418</ele>
        <time>2018-04-02T08:42:33.000Z</time>
      </trkpt>
      <trkpt lat="42.9588" lon="0.85201">
        <ele>1417</ele>
        <time>2018-04-02T08:42:35.000Z</time>
      </trkpt>
      <trkpt lat="42.9588" lon="0.85199">
        <ele>1417</ele>
        <time>2018-04-02T08:42:37.000Z</time>
      </trkpt>
      <trkpt lat="42.95879" lon="0.85197">
        <ele>1417</ele>
        <time>2018-04-02T08:42:39.000Z</time>
      </trkpt>
      <trkpt lat="42.95877" lon="0.85195">
        <ele>1417</ele>
        <time>2018-04-02T08:42:41.000Z</time>
      </trkpt>
      <trkpt lat="42.95876" lon="0.85193">
        <ele>1417</ele>
        <time>2018-04-02T08:42:43.000Z</time>
      </trkpt>
      <trkpt lat="42.95875" lon="0.85191">
        <ele>1417</ele>
        <time>2018-04-02T08:42:45.000Z</time>
      </trkpt>
      <trkpt lat="42.95873" lon="0.8519">
        <ele>1417</ele>
        <time>2018-04-02T08:42:47.000Z</time>
      </trkpt>
      <trkpt lat="42.95872" lon="0.85188">
        <ele>1417</ele>
        <time>2018-04-02T08:42:49.000Z</time>
      </trkpt>
      <trkpt lat="42.95871" lon="0.85186">
        <ele>1417</ele>
        <time>2018-04-02T08:42:51.000Z</time>
      </trkpt>
      <trkpt lat="42.9587" lon="0.85184">
        <ele>1417</ele>
        <time>2018-04-02T08:42:53.000Z</time>
      </trkpt>
      <trkpt lat="42.95869" lon="0.85182">
        <ele>1417</ele>
        <time>2018-04-02T08:42:55.000Z</time>
      </trkpt>
      <trkpt lat="42.95868" lon="0.8518">
        <ele>1416</ele>
        <time>2018-04-02T08:42:57.000Z</time>
      </trkpt>
      <trkpt lat="42.95868" lon="0.85178">
        <ele>1416</ele>
        <time>2018-04-02T08:42:59.000Z</time>
      </trkpt>
      <trkpt lat="42.95867" lon="0.85175">
        <ele>1416</ele>
        <time>2018-04-02T08:43:01.000Z</time>
      </trkpt>
      <trkpt lat="42.95866" lon="0.85173">
        <ele>1416</ele>
        <time>2018-04-02T08:43:03.000Z</time>
      </trkpt>
      <trkpt lat="42.95865" lon="0.8517">
        <ele>1416</ele>
        <time>2018-04-02T08:43:05.000Z</time>
      </trkpt>
      <trkpt lat="42.95864" lon="0.85169">
        <ele>1416</ele>
        <time>2018-04-02T08:43:07.000Z</time>
      </trkpt>
      <trkpt lat="42.95863" lon="0.85167">
        <ele>1416</ele>
        <time>2018-04-02T08:43:09.000Z</time>
      </trkpt>
      <trkpt lat="42.95862" lon="0.85165">
        <ele>1416</ele>
        <time>2018-04-02T08:43:11.000Z</time>
      </trkpt>
      <trkpt lat="42.95861" lon="0.85163">
        <ele>1416</ele>
        <time>2018-04-02T08:43:13.000Z</time>
      </trkpt>
      <trkpt lat="42.95859" lon="0.85161">
        <ele>1416</ele>
        <time>2018-04-02T08:43:15.000Z</time>
      </trkpt>
      <trkpt lat="42.95858" lon="0.85161">
        <ele>1416</ele>
        <time>2018-04-02T08:43:17.000Z</time>
      </trkpt>
      <trkpt lat="42.95857" lon="0.8516">
        <ele>1416</ele>
        <time>2018-04-02T08:43:19.000Z</time>
      </trkpt>
      <trkpt lat="42.95857" lon="0.8516">
        <ele>1416</ele>
        <time>2018-04-02T08:43:21.000Z</time>
      </trkpt>
      <trkpt lat="42.95856" lon="0.8516">
        <ele>1416</ele>
        <time>2018-04-02T08:43:23.000Z</time>
      </trkpt>
      <trkpt lat="42.95856" lon="0.85158">
        <ele>1416</ele>
        <time>2018-04-02T08:43:25.000Z</time>
      </trkpt>
      <trkpt lat="42.95856" lon="0.85158">
        <ele>1416</ele>
        <time>2018-04-02T08:43:27.000Z</time>
      </trkpt>
      <trkpt lat="42.95856" lon="0.85158">
        <ele>1416</ele>
        <time>2018-04-02T08:43:29.000Z</time>
      </trkpt>
      <trkpt lat="42.95856" lon="0.85158">
        <ele>1416</ele>
        <time>2018-04-02T08:43:31.000Z</time>
      </trkpt>
      <trkpt lat="42.95857" lon="0.85158">
        <ele>1415</ele>
        <time>2018-04-02T08:43:33.000Z</time>
      </trkpt>
      <trkpt lat="42.95857" lon="0.85158">
        <ele>1415</ele>
        <time>2018-04-02T08:43:35.000Z</time>
      </trkpt>
      <trkpt lat="42.95857" lon="0.85159">
        <ele>1415</ele>
        <time>2018-04-02T08:43:37.000Z</time>
      </trkpt>
      <trkpt lat="42.95858" lon="0.85158">
        <ele>1415</ele>
        <time>2018-04-02T08:43:39.000Z</time>
      </trkpt>
      <trkpt lat="42.95857" lon="0.85157">
        <ele>1415</ele>
        <time>2018-04-02T08:43:41.000Z</time>
      </trkpt>
      <trkpt lat="42.95856" lon="0.85155">
        <ele>1415</ele>
        <time>2018-04-02T08:43:43.000Z</time>
      </trkpt>
      <trkpt lat="42.95855" lon="0.85152">
        <ele>1415</ele>
        <time>2018-04-02T08:43:45.000Z</time>
      </trkpt>
      <trkpt lat="42.95854" lon="0.8515">
        <ele>1415</ele>
        <time>2018-04-02T08:43:47.000Z</time>
      </trkpt>
      <trkpt lat="42.95853" lon="0.85148">
        <ele>1415</ele>
        <time>2018-04-02T08:43:49.000Z</time>
      </trkpt>
      <trkpt lat="42.95852" lon="0.85146">
        <ele>1415</ele>
        <time>2018-04-02T08:43:51.000Z</time>
      </trkpt>
      <trkpt lat="42.95851" lon="0.85143">
        <ele>1415</ele>
        <time>2018-04-02T08:43:53.000Z</time>
      </trkpt>
      <trkpt lat="42.95849" lon="0.85141">
        <ele>1415</ele>
        <time>2018-04-02T08:43:55.000Z</time>
      </trkpt>
      <trkpt lat="42.95849" lon="0.85137">
        <ele>1415</ele>
        <time>2018-04-02T08:43:57.000Z</time>
      </trkpt>
      <trkpt lat="42.95848" lon="0.85134">
        <ele>1415</ele>
        <time>2018-04-02T08:43:59.000Z</time>
      </trkpt>
      <trkpt lat="42.95847" lon="0.85131">
        <ele>1415</ele>
        <time>2018-04-02T08:44:01.000Z</time>
      </trkpt>
      <trkpt lat="42.95846" lon="0.85129">
        <ele>1415</ele>
        <time>2018-04-02T08:44:03.000Z</time>
      </trkpt>
      <trkpt lat="42.95846" lon="0.85126">
        <ele>1415</ele>
        <time>2018-04-02T08:44:05.000Z</time>
      </trkpt>
      <trkpt lat="42.95845" lon="0.85123">
        <ele>1415</ele>
        <time>2018-04-02T08:44:07.000Z</time>
      </trkpt>
      <trkpt lat="42.95844" lon="0.85121">
        <ele>1415</ele>
        <time>2018-04-02T08:44:09.000Z</time>
      </trkpt>
      <trkpt lat="42.95843" lon="0.85119">
        <ele>1415</ele>
        <time>2018-04-02T08:44:11.000Z</time>
      </trkpt>
      <trkpt lat="42.95842" lon="0.85117">
        <ele>1416</ele>
        <time>2018-04-02T08:44:13.000Z</time>
      </trkpt>
      <trkpt lat="42.95841" lon="0.85114">
        <ele>1416</ele>
        <time>2018-04-02T08:44:15.000Z</time>
      </trkpt>
      <trkpt lat="42.9584" lon="0.85112">
        <ele>1416</ele>
        <time>2018-04-02T08:44:17.000Z</time>
      </trkpt>
      <trkpt lat="42.95839" lon="0.85109">
        <ele>1416</ele>
        <time>2018-04-02T08:44:19.000Z</time>
      </trkpt>
      <trkpt lat="42.95839" lon="0.85107">
        <ele>1416</ele>
        <time>2018-04-02T08:44:21.000Z</time>
      </trkpt>
      <trkpt lat="42.95838" lon="0.85105">
        <ele>1416</ele>
        <time>2018-04-02T08:44:23.000Z</time>
      </trkpt>
      <trkpt lat="42.95836" lon="0.85103">
        <ele>1417</ele>
        <time>2018-04-02T08:44:25.000Z</time>
      </trkpt>
      <trkpt lat="42.95835" lon="0.851">
        <ele>1417</ele>
        <time>2018-04-02T08:44:27.000Z</time>
      </trkpt>
      <trkpt lat="42.95835" lon="0.85099">
        <ele>1417</ele>
        <time>2018-04-02T08:44:29.000Z</time>
      </trkpt>
      <trkpt lat="42.95833" lon="0.85096">
        <ele>1418</ele>
        <time>2018-04-02T08:44:31.000Z</time>
      </trkpt>
      <trkpt lat="42.95832" lon="0.85094">
        <ele>1418</ele>
        <time>2018-04-02T08:44:33.000Z</time>
      </trkpt>
      <trkpt lat="42.95831" lon="0.85092">
        <ele>1418</ele>
        <time>2018-04-02T08:44:35.000Z</time>
      </trkpt>
      <trkpt lat="42.9583" lon="0.8509">
        <ele>1418</ele>
        <time>2018-04-02T08:44:37.000Z</time>
      </trkpt>
      <trkpt lat="42.95829" lon="0.85088">
        <ele>1419</ele>
        <time>2018-04-02T08:44:39.000Z</time>
      </trkpt>
      <trkpt lat="42.95828" lon="0.85085">
        <ele>1419</ele>
        <time>2018-04-02T08:44:41.000Z</time>
      </trkpt>
      <trkpt lat="42.95828" lon="0.85083">
        <ele>1419</ele>
        <time>2018-04-02T08:44:43.000Z</time>
      </trkpt>
      <trkpt lat="42.95827" lon="0.8508">
        <ele>1419</ele>
        <time>2018-04-02T08:44:45.000Z</time>
      </trkpt>
      <trkpt lat="42.95826" lon="0.85078">
        <ele>1420</ele>
        <time>2018-04-02T08:44:47.000Z</time>
      </trkpt>
      <trkpt lat="42.95824" lon="0.85076">
        <ele>1420</ele>
        <time>2018-04-02T08:44:49.000Z</time>
      </trkpt>
      <trkpt lat="42.95823" lon="0.85074">
        <ele>1420</ele>
        <time>2018-04-02T08:44:51.000Z</time>
      </trkpt>
      <trkpt lat="42.95822" lon="0.85072">
        <ele>1420</ele>
        <time>2018-04-02T08:44:53.000Z</time>
      </trkpt>
      <trkpt lat="42.95821" lon="0.8507">
        <ele>1421</ele>
        <time>2018-04-02T08:44:55.000Z</time>
      </trkpt>
      <trkpt lat="42.95821" lon="0.85068">
        <ele>1421</ele>
        <time>2018-04-02T08:44:57.000Z</time>
      </trkpt>
      <trkpt lat="42.9582" lon="0.85066">
        <ele>1421</ele>
        <time>2018-04-02T08:44:59.000Z</time>
      </trkpt>
      <trkpt lat="42.95819" lon="0.85064">
        <ele>1421</ele>
        <time>2018-04-02T08:45:01.000Z</time>
      </trkpt>
      <trkpt lat="42.95818" lon="0.85061">
        <ele>1422</ele>
        <time>2018-04-02T08:45:03.000Z</time>
      </trkpt>
      <trkpt lat="42.95818" lon="0.85058">
        <ele>1422</ele>
        <time>2018-04-02T08:45:05.000Z</time>
      </trkpt>
      <trkpt lat="42.95817" lon="0.85056">
        <ele>1422</ele>
        <time>2018-04-02T08:45:07.000Z</time>
      </trkpt>
      <trkpt lat="42.95817" lon="0.85054">
        <ele>1422</ele>
        <time>2018-04-02T08:45:09.000Z</time>
      </trkpt>
      <trkpt lat="42.95815" lon="0.85052">
        <ele>1422</ele>
        <time>2018-04-02T08:45:11.000Z</time>
      </trkpt>
      <trkpt lat="42.95815" lon="0.8505">
        <ele>1422</ele>
        <time>2018-04-02T08:45:13.000Z</time>
      </trkpt>
      <trkpt lat="42.95815" lon="0.85047">
        <ele>1421</ele>
        <time>2018-04-02T08:45:15.000Z</time>
      </trkpt>
      <trkpt lat="42.95816" lon="0.85043">
        <ele>1421</ele>
        <time>2018-04-02T08:45:17.000Z</time>
      </trkpt>
      <trkpt lat="42.95818" lon="0.8504">
        <ele>1420</ele>
        <time>2018-04-02T08:45:19.000Z</time>
      </trkpt>
      <trkpt lat="42.95819" lon="0.85038">
        <ele>1420</ele>
        <time>2018-04-02T08:45:21.000Z</time>
      </trkpt>
      <trkpt lat="42.9582" lon="0.85036">
        <ele>1419</ele>
        <time>2018-04-02T08:45:23.000Z</time>
      </trkpt>
      <trkpt lat="42.95821" lon="0.85035">
        <ele>1419</ele>
        <time>2018-04-02T08:45:25.000Z</time>
      </trkpt>
      <trkpt lat="42.95822" lon="0.85032">
        <ele>1419</ele>
        <time>2018-04-02T08:45:27.000Z</time>
      </trkpt>
      <trkpt lat="42.95822" lon="0.8503">
        <ele>1419</ele>
        <time>2018-04-02T08:45:29.000Z</time>
      </trkpt>
      <trkpt lat="42.95822" lon="0.85028">
        <ele>1419</ele>
        <time>2018-04-02T08:45:31.000Z</time>
      </trkpt>
      <trkpt lat="42.95823" lon="0.85024">
        <ele>1419</ele>
        <time>2018-04-02T08:45:33.000Z</time>
      </trkpt>
      <trkpt lat="42.95823" lon="0.85022">
        <ele>1418</ele>
        <time>2018-04-02T08:45:35.000Z</time>
      </trkpt>
      <trkpt lat="42.95824" lon="0.85019">
        <ele>1418</ele>
        <time>2018-04-02T08:45:37.000Z</time>
      </trkpt>
      <trkpt lat="42.95824" lon="0.85016">
        <ele>1418</ele>
        <time>2018-04-02T08:45:39.000Z</time>
      </trkpt>
      <trkpt lat="42.95824" lon="0.85014">
        <ele>1418</ele>
        <time>2018-04-02T08:45:41.000Z</time>
      </trkpt>
      <trkpt lat="42.95824" lon="0.85012">
        <ele>1418</ele>
        <time>2018-04-02T08:45:43.000Z</time>
      </trkpt>
      <trkpt lat="42.95825" lon="0.85011">
        <ele>1418</ele>
        <time>2018-04-02T08:45:45.000Z</time>
      </trkpt>
      <trkpt lat="42.95825" lon="0.85008">
        <ele>1418</ele>
        <time>2018-04-02T08:45:47.000Z</time>
      </trkpt>
      <trkpt lat="42.95825" lon="0.85006">
        <ele>1417</ele>
        <time>2018-04-02T08:45:49.000Z</time>
      </trkpt>
      <trkpt lat="42.95826" lon="0.85003">
        <ele>1417</ele>
        <time>2018-04-02T08:45:51.000Z</time>
      </trkpt>
      <trkpt lat="42.95826" lon="0.85001">
        <ele>1417</ele>
        <time>2018-04-02T08:45:53.000Z</time>
      </trkpt>
      <trkpt lat="42.95826" lon="0.84998">
        <ele>1417</ele>
        <time>2018-04-02T08:45:55.000Z</time>
      </trkpt>
      <trkpt lat="42.95827" lon="0.84996">
        <ele>1417</ele>
        <time>2018-04-02T08:45:57.000Z</time>
      </trkpt>
      <trkpt lat="42.95827" lon="0.84994">
        <ele>1417</ele>
        <time>2018-04-02T08:45:59.000Z</time>
      </trkpt>
      <trkpt lat="42.95827" lon="0.84991">
        <ele>1417</ele>
        <time>2018-04-02T08:46:01.000Z</time>
      </trkpt>
      <trkpt lat="42.95828" lon="0.84989">
        <ele>1416</ele>
        <time>2018-04-02T08:46:03.000Z</time>
      </trkpt>
      <trkpt lat="42.95829" lon="0.84987">
        <ele>1416</ele>
        <time>2018-04-02T08:46:05.000Z</time>
      </trkpt>
      <trkpt lat="42.95829" lon="0.84985">
        <ele>1416</ele>
        <time>2018-04-02T08:46:07.000Z</time>
      </trkpt>
      <trkpt lat="42.95829" lon="0.84983">
        <ele>1416</ele>
        <time>2018-04-02T08:46:09.000Z</time>
      </trkpt>
      <trkpt lat="42.95829" lon="0.84981">
        <ele>1416</ele>
        <time>2018-04-02T08:46:11.000Z</time>
      </trkpt>
      <trkpt lat="42.95829" lon="0.84979">
        <ele>1416</ele>
        <time>2018-04-02T08:46:13.000Z</time>
      </trkpt>
      <trkpt lat="42.95829" lon="0.84977">
        <ele>1416</ele>
        <time>2018-04-02T08:46:15.000Z</time>
      </trkpt>
      <trkpt lat="42.95829" lon="0.84974">
        <ele>1416</ele>
        <time>2018-04-02T08:46:17.000Z</time>
      </trkpt>
      <trkpt lat="42.95829" lon="0.84972">
        <ele>1416</ele>
        <time>2018-04-02T08:46:19.000Z</time>
      </trkpt>
      <trkpt lat="42.95829" lon="0.8497">
        <ele>1416</ele>
        <time>2018-04-02T08:46:21.000Z</time>
      </trkpt>
      <trkpt lat="42.95829" lon="0.84968">
        <ele>1416</ele>
        <time>2018-04-02T08:46:23.000Z</time>
      </trkpt>
      <trkpt lat="42.95828" lon="0.84965">
        <ele>1417</ele>
        <time>2018-04-02T08:46:25.000Z</time>
      </trkpt>
      <trkpt lat="42.95828" lon="0.84963">
        <ele>1417</ele>
        <time>2018-04-02T08:46:27.000Z</time>
      </trkpt>
      <trkpt lat="42.95828" lon="0.84961">
        <ele>1417</ele>
        <time>2018-04-02T08:46:29.000Z</time>
      </trkpt>
      <trkpt lat="42.95827" lon="0.84959">
        <ele>1417</ele>
        <time>2018-04-02T08:46:31.000Z</time>
      </trkpt>
      <trkpt lat="42.95827" lon="0.84957">
        <ele>1417</ele>
        <time>2018-04-02T08:46:33.000Z</time>
      </trkpt>
      <trkpt lat="42.95826" lon="0.84956">
        <ele>1418</ele>
        <time>2018-04-02T08:46:35.000Z</time>
      </trkpt>
      <trkpt lat="42.95826" lon="0.84955">
        <ele>1418</ele>
        <time>2018-04-02T08:46:37.000Z</time>
      </trkpt>
      <trkpt lat="42.95825" lon="0.84953">
        <ele>1418</ele>
        <time>2018-04-02T08:46:39.000Z</time>
      </trkpt>
      <trkpt lat="42.95825" lon="0.84952">
        <ele>1418</ele>
        <time>2018-04-02T08:46:41.000Z</time>
      </trkpt>
      <trkpt lat="42.95825" lon="0.8495">
        <ele>1418</ele>
        <time>2018-04-02T08:46:43.000Z</time>
      </trkpt>
      <trkpt lat="42.95825" lon="0.84949">
        <ele>1418</ele>
        <time>2018-04-02T08:46:45.000Z</time>
      </trkpt>
      <trkpt lat="42.95825" lon="0.84947">
        <ele>1418</ele>
        <time>2018-04-02T08:46:47.000Z</time>
      </trkpt>
      <trkpt lat="42.95825" lon="0.84946">
        <ele>1418</ele>
        <time>2018-04-02T08:46:49.000Z</time>
      </trkpt>
      <trkpt lat="42.95824" lon="0.84944">
        <ele>1418</ele>
        <time>2018-04-02T08:46:51.000Z</time>
      </trkpt>
      <trkpt lat="42.95824" lon="0.84943">
        <ele>1418</ele>
        <time>2018-04-02T08:46:53.000Z</time>
      </trkpt>
      <trkpt lat="42.95825" lon="0.84941">
        <ele>1418</ele>
        <time>2018-04-02T08:46:55.000Z</time>
      </trkpt>
      <trkpt lat="42.95825" lon="0.84939">
        <ele>1419</ele>
        <time>2018-04-02T08:46:57.000Z</time>
      </trkpt>
      <trkpt lat="42.95825" lon="0.84937">
        <ele>1419</ele>
        <time>2018-04-02T08:46:59.000Z</time>
      </trkpt>
      <trkpt lat="42.95825" lon="0.84935">
        <ele>1419</ele>
        <time>2018-04-02T08:47:01.000Z</time>
      </trkpt>
      <trkpt lat="42.95825" lon="0.84934">
        <ele>1419</ele>
        <time>2018-04-02T08:47:03.000Z</time>
      </trkpt>
      <trkpt lat="42.95825" lon="0.84932">
        <ele>1419</ele>
        <time>2018-04-02T08:47:05.000Z</time>
      </trkpt>
      <trkpt lat="42.95825" lon="0.84931">
        <ele>1419</ele>
        <time>2018-04-02T08:47:07.000Z</time>
      </trkpt>
      <trkpt lat="42.95825" lon="0.8493">
        <ele>1419</ele>
        <time>2018-04-02T08:47:09.000Z</time>
      </trkpt>
      <trkpt lat="42.95825" lon="0.84928">
        <ele>1419</ele>
        <time>2018-04-02T08:47:11.000Z</time>
      </trkpt>
      <trkpt lat="42.95825" lon="0.84926">
        <ele>1419</ele>
        <time>2018-04-02T08:47:13.000Z</time>
      </trkpt>
      <trkpt lat="42.95825" lon="0.84925">
        <ele>1419</ele>
        <time>2018-04-02T08:47:15.000Z</time>
      </trkpt>
      <trkpt lat="42.95825" lon="0.84924">
        <ele>1419</ele>
        <time>2018-04-02T08:47:17.000Z</time>
      </trkpt>
      <trkpt lat="42.95825" lon="0.84922">
        <ele>1419</ele>
        <time>2018-04-02T08:47:19.000Z</time>
      </trkpt>
      <trkpt lat="42.95825" lon="0.84921">
        <ele>1419</ele>
        <time>2018-04-02T08:47:21.000Z</time>
      </trkpt>
      <trkpt lat="42.95825" lon="0.84919">
        <ele>1419</ele>
        <time>2018-04-02T08:47:23.000Z</time>
      </trkpt>
      <trkpt lat="42.95825" lon="0.84918">
        <ele>1419</ele>
        <time>2018-04-02T08:47:25.000Z</time>
      </trkpt>
      <trkpt lat="42.95826" lon="0.84916">
        <ele>1419</ele>
        <time>2018-04-02T08:47:27.000Z</time>
      </trkpt>
      <trkpt lat="42.95826" lon="0.84914">
        <ele>1419</ele>
        <time>2018-04-02T08:47:29.000Z</time>
      </trkpt>
      <trkpt lat="42.95826" lon="0.84913">
        <ele>1419</ele>
        <time>2018-04-02T08:47:31.000Z</time>
      </trkpt>
      <trkpt lat="42.95826" lon="0.84912">
        <ele>1419</ele>
        <time>2018-04-02T08:47:33.000Z</time>
      </trkpt>
      <trkpt lat="42.95826" lon="0.84911">
        <ele>1419</ele>
        <time>2018-04-02T08:47:35.000Z</time>
      </trkpt>
      <trkpt lat="42.95826" lon="0.8491">
        <ele>1419</ele>
        <time>2018-04-02T08:47:37.000Z</time>
      </trkpt>
      <trkpt lat="42.95826" lon="0.84909">
        <ele>1419</ele>
        <time>2018-04-02T08:47:39.000Z</time>
      </trkpt>
      <trkpt lat="42.95826" lon="0.84907">
        <ele>1419</ele>
        <time>2018-04-02T08:47:41.000Z</time>
      </trkpt>
      <trkpt lat="42.95826" lon="0.84905">
        <ele>1419</ele>
        <time>2018-04-02T08:47:43.000Z</time>
      </trkpt>
      <trkpt lat="42.95827" lon="0.84903">
        <ele>1419</ele>
        <time>2018-04-02T08:47:45.000Z</time>
      </trkpt>
      <trkpt lat="42.95828" lon="0.84902">
        <ele>1419</ele>
        <time>2018-04-02T08:47:47.000Z</time>
      </trkpt>
      <trkpt lat="42.95828" lon="0.84901">
        <ele>1419</ele>
        <time>2018-04-02T08:47:49.000Z</time>
      </trkpt>
      <trkpt lat="42.95829" lon="0.84899">
        <ele>1419</ele>
        <time>2018-04-02T08:47:51.000Z</time>
      </trkpt>
      <trkpt lat="42.9583" lon="0.84899">
        <ele>1419</ele>
        <time>2018-04-02T08:47:53.000Z</time>
      </trkpt>
      <trkpt lat="42.95832" lon="0.84898">
        <ele>1419</ele>
        <time>2018-04-02T08:47:55.000Z</time>
      </trkpt>
      <trkpt lat="42.95833" lon="0.84896">
        <ele>1418</ele>
        <time>2018-04-02T08:47:57.000Z</time>
      </trkpt>
      <trkpt lat="42.95834" lon="0.84895">
        <ele>1418</ele>
        <time>2018-04-02T08:47:59.000Z</time>
      </trkpt>
      <trkpt lat="42.95835" lon="0.84893">
        <ele>1418</ele>
        <time>2018-04-02T08:48:01.000Z</time>
      </trkpt>
      <trkpt lat="42.95836" lon="0.84892">
        <ele>1418</ele>
        <time>2018-04-02T08:48:03.000Z</time>
      </trkpt>
      <trkpt lat="42.95836" lon="0.84891">
        <ele>1418</ele>
        <time>2018-04-02T08:48:05.000Z</time>
      </trkpt>
      <trkpt lat="42.95837" lon="0.84889">
        <ele>1418</ele>
        <time>2018-04-02T08:48:07.000Z</time>
      </trkpt>
      <trkpt lat="42.95837" lon="0.84888">
        <ele>1418</ele>
        <time>2018-04-02T08:48:09.000Z</time>
      </trkpt>
      <trkpt lat="42.95838" lon="0.84886">
        <ele>1418</ele>
        <time>2018-04-02T08:48:11.000Z</time>
      </trkpt>
      <trkpt lat="42.95838" lon="0.84885">
        <ele>1418</ele>
        <time>2018-04-02T08:48:13.000Z</time>
      </trkpt>
      <trkpt lat="42.95838" lon="0.84883">
        <ele>1418</ele>
        <time>2018-04-02T08:48:15.000Z</time>
      </trkpt>
      <trkpt lat="42.95838" lon="0.84882">
        <ele>1418</ele>
        <time>2018-04-02T08:48:17.000Z</time>
      </trkpt>
      <trkpt lat="42.95839" lon="0.84881">
        <ele>1418</ele>
        <time>2018-04-02T08:48:19.000Z</time>
      </trkpt>
      <trkpt lat="42.95839" lon="0.84879">
        <ele>1418</ele>
        <time>2018-04-02T08:48:21.000Z</time>
      </trkpt>
      <trkpt lat="42.95839" lon="0.84878">
        <ele>1418</ele>
        <time>2018-04-02T08:48:23.000Z</time>
      </trkpt>
      <trkpt lat="42.95839" lon="0.84876">
        <ele>1418</ele>
        <time>2018-04-02T08:48:25.000Z</time>
      </trkpt>
      <trkpt lat="42.95839" lon="0.84875">
        <ele>1418</ele>
        <time>2018-04-02T08:48:27.000Z</time>
      </trkpt>
      <trkpt lat="42.95839" lon="0.84873">
        <ele>1418</ele>
        <time>2018-04-02T08:48:29.000Z</time>
      </trkpt>
      <trkpt lat="42.95838" lon="0.84871">
        <ele>1418</ele>
        <time>2018-04-02T08:48:31.000Z</time>
      </trkpt>
      <trkpt lat="42.95838" lon="0.8487">
        <ele>1419</ele>
        <time>2018-04-02T08:48:33.000Z</time>
      </trkpt>
      <trkpt lat="42.95837" lon="0.84868">
        <ele>1419</ele>
        <time>2018-04-02T08:48:35.000Z</time>
      </trkpt>
      <trkpt lat="42.95836" lon="0.84866">
        <ele>1419</ele>
        <time>2018-04-02T08:48:37.000Z</time>
      </trkpt>
      <trkpt lat="42.95836" lon="0.84865">
        <ele>1419</ele>
        <time>2018-04-02T08:48:39.000Z</time>
      </trkpt>
      <trkpt lat="42.95835" lon="0.84863">
        <ele>1420</ele>
        <time>2018-04-02T08:48:41.000Z</time>
      </trkpt>
      <trkpt lat="42.95834" lon="0.84862">
        <ele>1420</ele>
        <time>2018-04-02T08:48:43.000Z</time>
      </trkpt>
      <trkpt lat="42.95833" lon="0.8486">
        <ele>1420</ele>
        <time>2018-04-02T08:48:45.000Z</time>
      </trkpt>
      <trkpt lat="42.95833" lon="0.84858">
        <ele>1421</ele>
        <time>2018-04-02T08:48:47.000Z</time>
      </trkpt>
      <trkpt lat="42.95832" lon="0.84857">
        <ele>1421</ele>
        <time>2018-04-02T08:48:49.000Z</time>
      </trkpt>
      <trkpt lat="42.95831" lon="0.84855">
        <ele>1421</ele>
        <time>2018-04-02T08:48:51.000Z</time>
      </trkpt>
      <trkpt lat="42.95831" lon="0.84853">
        <ele>1421</ele>
        <time>2018-04-02T08:48:53.000Z</time>
      </trkpt>
      <trkpt lat="42.9583" lon="0.84852">
        <ele>1422</ele>
        <time>2018-04-02T08:48:55.000Z</time>
      </trkpt>
      <trkpt lat="42.9583" lon="0.8485">
        <ele>1422</ele>
        <time>2018-04-02T08:48:57.000Z</time>
      </trkpt>
      <trkpt lat="42.95829" lon="0.8485">
        <ele>1422</ele>
        <time>2018-04-02T08:48:59.000Z</time>
      </trkpt>
      <trkpt lat="42.95828" lon="0.84848">
        <ele>1423</ele>
        <time>2018-04-02T08:49:01.000Z</time>
      </trkpt>
      <trkpt lat="42.95828" lon="0.84848">
        <ele>1423</ele>
        <time>2018-04-02T08:49:03.000Z</time>
      </trkpt>
      <trkpt lat="42.95827" lon="0.84848">
        <ele>1423</ele>
        <time>2018-04-02T08:49:05.000Z</time>
      </trkpt>
      <trkpt lat="42.95827" lon="0.84848">
        <ele>1423</ele>
        <time>2018-04-02T08:49:07.000Z</time>
      </trkpt>
      <trkpt lat="42.95826" lon="0.84846">
        <ele>1423</ele>
        <time>2018-04-02T08:49:09.000Z</time>
      </trkpt>
      <trkpt lat="42.95825" lon="0.84844">
        <ele>1424</ele>
        <time>2018-04-02T08:49:11.000Z</time>
      </trkpt>
      <trkpt lat="42.95825" lon="0.84843">
        <ele>1424</ele>
        <time>2018-04-02T08:49:13.000Z</time>
      </trkpt>
      <trkpt lat="42.95824" lon="0.84842">
        <ele>1424</ele>
        <time>2018-04-02T08:49:15.000Z</time>
      </trkpt>
      <trkpt lat="42.95824" lon="0.8484">
        <ele>1424</ele>
        <time>2018-04-02T08:49:17.000Z</time>
      </trkpt>
      <trkpt lat="42.95824" lon="0.84839">
        <ele>1424</ele>
        <time>2018-04-02T08:49:19.000Z</time>
      </trkpt>
      <trkpt lat="42.95824" lon="0.84837">
        <ele>1424</ele>
        <time>2018-04-02T08:49:21.000Z</time>
      </trkpt>
      <trkpt lat="42.95824" lon="0.84835">
        <ele>1424</ele>
        <time>2018-04-02T08:49:23.000Z</time>
      </trkpt>
      <trkpt lat="42.95824" lon="0.84834">
        <ele>1424</ele>
        <time>2018-04-02T08:49:25.000Z</time>
      </trkpt>
      <trkpt lat="42.95824" lon="0.84833">
        <ele>1424</ele>
        <time>2018-04-02T08:49:27.000Z</time>
      </trkpt>
      <trkpt lat="42.95825" lon="0.8483">
        <ele>1424</ele>
        <time>2018-04-02T08:49:29.000Z</time>
      </trkpt>
      <trkpt lat="42.95826" lon="0.84828">
        <ele>1423</ele>
        <time>2018-04-02T08:49:31.000Z</time>
      </trkpt>
      <trkpt lat="42.95827" lon="0.84827">
        <ele>1423</ele>
        <time>2018-04-02T08:49:33.000Z</time>
      </trkpt>
      <trkpt lat="42.95829" lon="0.84825">
        <ele>1422</ele>
        <time>2018-04-02T08:49:35.000Z</time>
      </trkpt>
      <trkpt lat="42.9583" lon="0.84824">
        <ele>1422</ele>
        <time>2018-04-02T08:49:37.000Z</time>
      </trkpt>
      <trkpt lat="42.95831" lon="0.84823">
        <ele>1422</ele>
        <time>2018-04-02T08:49:39.000Z</time>
      </trkpt>
      <trkpt lat="42.95832" lon="0.84821">
        <ele>1421</ele>
        <time>2018-04-02T08:49:41.000Z</time>
      </trkpt>
      <trkpt lat="42.95833" lon="0.8482">
        <ele>1421</ele>
        <time>2018-04-02T08:49:43.000Z</time>
      </trkpt>
      <trkpt lat="42.95834" lon="0.84819">
        <ele>1421</ele>
        <time>2018-04-02T08:49:45.000Z</time>
      </trkpt>
      <trkpt lat="42.95835" lon="0.84818">
        <ele>1420</ele>
        <time>2018-04-02T08:49:47.000Z</time>
      </trkpt>
      <trkpt lat="42.95835" lon="0.84816">
        <ele>1420</ele>
        <time>2018-04-02T08:49:49.000Z</time>
      </trkpt>
      <trkpt lat="42.95836" lon="0.84815">
        <ele>1420</ele>
        <time>2018-04-02T08:49:51.000Z</time>
      </trkpt>
      <trkpt lat="42.95837" lon="0.84814">
        <ele>1420</ele>
        <time>2018-04-02T08:49:53.000Z</time>
      </trkpt>
      <trkpt lat="42.95838" lon="0.84813">
        <ele>1419</ele>
        <time>2018-04-02T08:49:55.000Z</time>
      </trkpt>
      <trkpt lat="42.95839" lon="0.84812">
        <ele>1419</ele>
        <time>2018-04-02T08:49:57.000Z</time>
      </trkpt>
      <trkpt lat="42.9584" lon="0.84811">
        <ele>1418</ele>
        <time>2018-04-02T08:49:59.000Z</time>
      </trkpt>
      <trkpt lat="42.95841" lon="0.8481">
        <ele>1418</ele>
        <time>2018-04-02T08:50:01.000Z</time>
      </trkpt>
      <trkpt lat="42.95842" lon="0.84808">
        <ele>1418</ele>
        <time>2018-04-02T08:50:03.000Z</time>
      </trkpt>
      <trkpt lat="42.95843" lon="0.84806">
        <ele>1418</ele>
        <time>2018-04-02T08:50:05.000Z</time>
      </trkpt>
      <trkpt lat="42.95844" lon="0.84804">
        <ele>1419</ele>
        <time>2018-04-02T08:50:07.000Z</time>
      </trkpt>
      <trkpt lat="42.95844" lon="0.84802">
        <ele>1419</ele>
        <time>2018-04-02T08:50:09.000Z</time>
      </trkpt>
      <trkpt lat="42.95845" lon="0.848">
        <ele>1419</ele>
        <time>2018-04-02T08:50:11.000Z</time>
      </trkpt>
      <trkpt lat="42.95845" lon="0.84798">
        <ele>1419</ele>
        <time>2018-04-02T08:50:13.000Z</time>
      </trkpt>
      <trkpt lat="42.95845" lon="0.84796">
        <ele>1420</ele>
        <time>2018-04-02T08:50:15.000Z</time>
      </trkpt>
      <trkpt lat="42.95845" lon="0.84795">
        <ele>1420</ele>
        <time>2018-04-02T08:50:17.000Z</time>
      </trkpt>
      <trkpt lat="42.95845" lon="0.84793">
        <ele>1420</ele>
        <time>2018-04-02T08:50:19.000Z</time>
      </trkpt>
      <trkpt lat="42.95845" lon="0.84792">
        <ele>1420</ele>
        <time>2018-04-02T08:50:21.000Z</time>
      </trkpt>
      <trkpt lat="42.95846" lon="0.84789">
        <ele>1421</ele>
        <time>2018-04-02T08:50:23.000Z</time>
      </trkpt>
      <trkpt lat="42.95846" lon="0.84787">
        <ele>1421</ele>
        <time>2018-04-02T08:50:25.000Z</time>
      </trkpt>
      <trkpt lat="42.95847" lon="0.84785">
        <ele>1421</ele>
        <time>2018-04-02T08:50:27.000Z</time>
      </trkpt>
      <trkpt lat="42.95847" lon="0.84783">
        <ele>1422</ele>
        <time>2018-04-02T08:50:29.000Z</time>
      </trkpt>
      <trkpt lat="42.95847" lon="0.84782">
        <ele>1422</ele>
        <time>2018-04-02T08:50:31.000Z</time>
      </trkpt>
      <trkpt lat="42.95847" lon="0.8478">
        <ele>1422</ele>
        <time>2018-04-02T08:50:33.000Z</time>
      </trkpt>
      <trkpt lat="42.95848" lon="0.84778">
        <ele>1422</ele>
        <time>2018-04-02T08:50:35.000Z</time>
      </trkpt>
      <trkpt lat="42.95848" lon="0.84777">
        <ele>1423</ele>
        <time>2018-04-02T08:50:37.000Z</time>
      </trkpt>
      <trkpt lat="42.95848" lon="0.84774">
        <ele>1423</ele>
        <time>2018-04-02T08:50:39.000Z</time>
      </trkpt>
      <trkpt lat="42.95848" lon="0.84773">
        <ele>1423</ele>
        <time>2018-04-02T08:50:41.000Z</time>
      </trkpt>
      <trkpt lat="42.95849" lon="0.84771">
        <ele>1423</ele>
        <time>2018-04-02T08:50:43.000Z</time>
      </trkpt>
      <trkpt lat="42.95849" lon="0.84769">
        <ele>1424</ele>
        <time>2018-04-02T08:50:45.000Z</time>
      </trkpt>
      <trkpt lat="42.95849" lon="0.84767">
        <ele>1424</ele>
        <time>2018-04-02T08:50:47.000Z</time>
      </trkpt>
      <trkpt lat="42.95849" lon="0.84766">
        <ele>1424</ele>
        <time>2018-04-02T08:50:49.000Z</time>
      </trkpt>
      <trkpt lat="42.95849" lon="0.84764">
        <ele>1424</ele>
        <time>2018-04-02T08:50:51.000Z</time>
      </trkpt>
      <trkpt lat="42.9585" lon="0.84763">
        <ele>1425</ele>
        <time>2018-04-02T08:50:53.000Z</time>
      </trkpt>
      <trkpt lat="42.9585" lon="0.84762">
        <ele>1425</ele>
        <time>2018-04-02T08:50:55.000Z</time>
      </trkpt>
      <trkpt lat="42.9585" lon="0.84761">
        <ele>1425</ele>
        <time>2018-04-02T08:50:57.000Z</time>
      </trkpt>
      <trkpt lat="42.95851" lon="0.8476">
        <ele>1425</ele>
        <time>2018-04-02T08:50:59.000Z</time>
      </trkpt>
      <trkpt lat="42.95851" lon="0.84758">
        <ele>1425</ele>
        <time>2018-04-02T08:51:01.000Z</time>
      </trkpt>
      <trkpt lat="42.95851" lon="0.84758">
        <ele>1425</ele>
        <time>2018-04-02T08:51:03.000Z</time>
      </trkpt>
      <trkpt lat="42.95851" lon="0.84757">
        <ele>1426</ele>
        <time>2018-04-02T08:51:05.000Z</time>
      </trkpt>
      <trkpt lat="42.95851" lon="0.84756">
        <ele>1426</ele>
        <time>2018-04-02T08:51:07.000Z</time>
      </trkpt>
      <trkpt lat="42.95852" lon="0.84755">
        <ele>1426</ele>
        <time>2018-04-02T08:51:09.000Z</time>
      </trkpt>
      <trkpt lat="42.95852" lon="0.84753">
        <ele>1426</ele>
        <time>2018-04-02T08:51:11.000Z</time>
      </trkpt>
      <trkpt lat="42.95852" lon="0.84752">
        <ele>1426</ele>
        <time>2018-04-02T08:51:13.000Z</time>
      </trkpt>
      <trkpt lat="42.95852" lon="0.8475">
        <ele>1427</ele>
        <time>2018-04-02T08:51:15.000Z</time>
      </trkpt>
      <trkpt lat="42.95853" lon="0.84748">
        <ele>1427</ele>
        <time>2018-04-02T08:51:17.000Z</time>
      </trkpt>
      <trkpt lat="42.95853" lon="0.84747">
        <ele>1427</ele>
        <time>2018-04-02T08:51:19.000Z</time>
      </trkpt>
      <trkpt lat="42.95853" lon="0.84746">
        <ele>1427</ele>
        <time>2018-04-02T08:51:21.000Z</time>
      </trkpt>
      <trkpt lat="42.95853" lon="0.84744">
        <ele>1427</ele>
        <time>2018-04-02T08:51:23.000Z</time>
      </trkpt>
      <trkpt lat="42.95853" lon="0.84742">
        <ele>1428</ele>
        <time>2018-04-02T08:51:25.000Z</time>
      </trkpt>
      <trkpt lat="42.95853" lon="0.8474">
        <ele>1428</ele>
        <time>2018-04-02T08:51:27.000Z</time>
      </trkpt>
      <trkpt lat="42.95853" lon="0.84738">
        <ele>1428</ele>
        <time>2018-04-02T08:51:29.000Z</time>
      </trkpt>
      <trkpt lat="42.95853" lon="0.84736">
        <ele>1429</ele>
        <time>2018-04-02T08:51:31.000Z</time>
      </trkpt>
      <trkpt lat="42.95853" lon="0.84735">
        <ele>1429</ele>
        <time>2018-04-02T08:51:33.000Z</time>
      </trkpt>
      <trkpt lat="42.95853" lon="0.84733">
        <ele>1429</ele>
        <time>2018-04-02T08:51:35.000Z</time>
      </trkpt>
      <trkpt lat="42.95853" lon="0.84732">
        <ele>1429</ele>
        <time>2018-04-02T08:51:37.000Z</time>
      </trkpt>
      <trkpt lat="42.95853" lon="0.8473">
        <ele>1429</ele>
        <time>2018-04-02T08:51:39.000Z</time>
      </trkpt>
      <trkpt lat="42.95853" lon="0.84729">
        <ele>1429</ele>
        <time>2018-04-02T08:51:41.000Z</time>
      </trkpt>
      <trkpt lat="42.95852" lon="0.84727">
        <ele>1429</ele>
        <time>2018-04-02T08:51:43.000Z</time>
      </trkpt>
      <trkpt lat="42.95852" lon="0.84725">
        <ele>1429</ele>
        <time>2018-04-02T08:51:45.000Z</time>
      </trkpt>
      <trkpt lat="42.95852" lon="0.84724">
        <ele>1429</ele>
        <time>2018-04-02T08:51:47.000Z</time>
      </trkpt>
      <trkpt lat="42.95852" lon="0.84722">
        <ele>1430</ele>
        <time>2018-04-02T08:51:49.000Z</time>
      </trkpt>
      <trkpt lat="42.95852" lon="0.84721">
        <ele>1430</ele>
        <time>2018-04-02T08:51:51.000Z</time>
      </trkpt>
      <trkpt lat="42.95852" lon="0.84719">
        <ele>1430</ele>
        <time>2018-04-02T08:51:53.000Z</time>
      </trkpt>
      <trkpt lat="42.95852" lon="0.84717">
        <ele>1430</ele>
        <time>2018-04-02T08:51:55.000Z</time>
      </trkpt>
      <trkpt lat="42.95851" lon="0.84716">
        <ele>1430</ele>
        <time>2018-04-02T08:51:57.000Z</time>
      </trkpt>
      <trkpt lat="42.9585" lon="0.84714">
        <ele>1430</ele>
        <time>2018-04-02T08:51:59.000Z</time>
      </trkpt>
      <trkpt lat="42.9585" lon="0.84712">
        <ele>1431</ele>
        <time>2018-04-02T08:52:01.000Z</time>
      </trkpt>
      <trkpt lat="42.95849" lon="0.84711">
        <ele>1431</ele>
        <time>2018-04-02T08:52:03.000Z</time>
      </trkpt>
      <trkpt lat="42.95848" lon="0.84709">
        <ele>1431</ele>
        <time>2018-04-02T08:52:05.000Z</time>
      </trkpt>
      <trkpt lat="42.95848" lon="0.84707">
        <ele>1431</ele>
        <time>2018-04-02T08:52:07.000Z</time>
      </trkpt>
      <trkpt lat="42.95847" lon="0.84706">
        <ele>1431</ele>
        <time>2018-04-02T08:52:09.000Z</time>
      </trkpt>
      <trkpt lat="42.95846" lon="0.84704">
        <ele>1431</ele>
        <time>2018-04-02T08:52:11.000Z</time>
      </trkpt>
      <trkpt lat="42.95846" lon="0.84703">
        <ele>1431</ele>
        <time>2018-04-02T08:52:13.000Z</time>
      </trkpt>
      <trkpt lat="42.95845" lon="0.84701">
        <ele>1431</ele>
        <time>2018-04-02T08:52:15.000Z</time>
      </trkpt>
      <trkpt lat="42.95844" lon="0.847">
        <ele>1432</ele>
        <time>2018-04-02T08:52:17.000Z</time>
      </trkpt>
      <trkpt lat="42.95843" lon="0.84698">
        <ele>1432</ele>
        <time>2018-04-02T08:52:19.000Z</time>
      </trkpt>
      <trkpt lat="42.95842" lon="0.84696">
        <ele>1432</ele>
        <time>2018-04-02T08:52:21.000Z</time>
      </trkpt>
      <trkpt lat="42.95841" lon="0.84694">
        <ele>1432</ele>
        <time>2018-04-02T08:52:23.000Z</time>
      </trkpt>
      <trkpt lat="42.95841" lon="0.84692">
        <ele>1432</ele>
        <time>2018-04-02T08:52:25.000Z</time>
      </trkpt>
      <trkpt lat="42.9584" lon="0.84691">
        <ele>1433</ele>
        <time>2018-04-02T08:52:27.000Z</time>
      </trkpt>
      <trkpt lat="42.95839" lon="0.84689">
        <ele>1433</ele>
        <time>2018-04-02T08:52:29.000Z</time>
      </trkpt>
      <trkpt lat="42.95838" lon="0.84688">
        <ele>1433</ele>
        <time>2018-04-02T08:52:31.000Z</time>
      </trkpt>
      <trkpt lat="42.95837" lon="0.84687">
        <ele>1434</ele>
        <time>2018-04-02T08:52:33.000Z</time>
      </trkpt>
      <trkpt lat="42.95836" lon="0.84686">
        <ele>1434</ele>
        <time>2018-04-02T08:52:35.000Z</time>
      </trkpt>
      <trkpt lat="42.95835" lon="0.84685">
        <ele>1434</ele>
        <time>2018-04-02T08:52:37.000Z</time>
      </trkpt>
      <trkpt lat="42.95834" lon="0.84684">
        <ele>1435</ele>
        <time>2018-04-02T08:52:39.000Z</time>
      </trkpt>
      <trkpt lat="42.95833" lon="0.84683">
        <ele>1435</ele>
        <time>2018-04-02T08:52:41.000Z</time>
      </trkpt>
      <trkpt lat="42.95832" lon="0.84682">
        <ele>1435</ele>
        <time>2018-04-02T08:52:43.000Z</time>
      </trkpt>
      <trkpt lat="42.95831" lon="0.84681">
        <ele>1435</ele>
        <time>2018-04-02T08:52:45.000Z</time>
      </trkpt>
      <trkpt lat="42.9583" lon="0.8468">
        <ele>1436</ele>
        <time>2018-04-02T08:52:47.000Z</time>
      </trkpt>
      <trkpt lat="42.95829" lon="0.8468">
        <ele>1436</ele>
        <time>2018-04-02T08:52:49.000Z</time>
      </trkpt>
      <trkpt lat="42.95828" lon="0.8468">
        <ele>1436</ele>
        <time>2018-04-02T08:52:51.000Z</time>
      </trkpt>
      <trkpt lat="42.95827" lon="0.8468">
        <ele>1436</ele>
        <time>2018-04-02T08:52:53.000Z</time>
      </trkpt>
      <trkpt lat="42.95826" lon="0.84679">
        <ele>1436</ele>
        <time>2018-04-02T08:52:55.000Z</time>
      </trkpt>
      <trkpt lat="42.95826" lon="0.84679">
        <ele>1437</ele>
        <time>2018-04-02T08:52:57.000Z</time>
      </trkpt>
      <trkpt lat="42.95825" lon="0.84679">
        <ele>1437</ele>
        <time>2018-04-02T08:52:59.000Z</time>
      </trkpt>
      <trkpt lat="42.95824" lon="0.84678">
        <ele>1437</ele>
        <time>2018-04-02T08:53:01.000Z</time>
      </trkpt>
      <trkpt lat="42.95823" lon="0.84678">
        <ele>1437</ele>
        <time>2018-04-02T08:53:03.000Z</time>
      </trkpt>
      <trkpt lat="42.95822" lon="0.84678">
        <ele>1437</ele>
        <time>2018-04-02T08:53:05.000Z</time>
      </trkpt>
      <trkpt lat="42.95821" lon="0.84677">
        <ele>1438</ele>
        <time>2018-04-02T08:53:07.000Z</time>
      </trkpt>
      <trkpt lat="42.9582" lon="0.84676">
        <ele>1438</ele>
        <time>2018-04-02T08:53:09.000Z</time>
      </trkpt>
      <trkpt lat="42.9582" lon="0.84676">
        <ele>1438</ele>
        <time>2018-04-02T08:53:11.000Z</time>
      </trkpt>
      <trkpt lat="42.95819" lon="0.84675">
        <ele>1438</ele>
        <time>2018-04-02T08:53:13.000Z</time>
      </trkpt>
      <trkpt lat="42.95818" lon="0.84674">
        <ele>1439</ele>
        <time>2018-04-02T08:53:15.000Z</time>
      </trkpt>
      <trkpt lat="42.95817" lon="0.84673">
        <ele>1439</ele>
        <time>2018-04-02T08:53:17.000Z</time>
      </trkpt>
      <trkpt lat="42.95817" lon="0.84672">
        <ele>1439</ele>
        <time>2018-04-02T08:53:19.000Z</time>
      </trkpt>
      <trkpt lat="42.95816" lon="0.84672">
        <ele>1439</ele>
        <time>2018-04-02T08:53:21.000Z</time>
      </trkpt>
      <trkpt lat="42.95815" lon="0.84671">
        <ele>1440</ele>
        <time>2018-04-02T08:53:23.000Z</time>
      </trkpt>
      <trkpt lat="42.95814" lon="0.84669">
        <ele>1440</ele>
        <time>2018-04-02T08:53:25.000Z</time>
      </trkpt>
      <trkpt lat="42.95813" lon="0.84668">
        <ele>1440</ele>
        <time>2018-04-02T08:53:27.000Z</time>
      </trkpt>
      <trkpt lat="42.95812" lon="0.84667">
        <ele>1441</ele>
        <time>2018-04-02T08:53:29.000Z</time>
      </trkpt>
      <trkpt lat="42.95811" lon="0.84666">
        <ele>1441</ele>
        <time>2018-04-02T08:53:31.000Z</time>
      </trkpt>
      <trkpt lat="42.9581" lon="0.84665">
        <ele>1441</ele>
        <time>2018-04-02T08:53:33.000Z</time>
      </trkpt>
      <trkpt lat="42.95809" lon="0.84664">
        <ele>1441</ele>
        <time>2018-04-02T08:53:35.000Z</time>
      </trkpt>
      <trkpt lat="42.95809" lon="0.84663">
        <ele>1442</ele>
        <time>2018-04-02T08:53:37.000Z</time>
      </trkpt>
      <trkpt lat="42.95808" lon="0.84662">
        <ele>1442</ele>
        <time>2018-04-02T08:53:39.000Z</time>
      </trkpt>
      <trkpt lat="42.95808" lon="0.84661">
        <ele>1442</ele>
        <time>2018-04-02T08:53:41.000Z</time>
      </trkpt>
      <trkpt lat="42.95807" lon="0.8466">
        <ele>1442</ele>
        <time>2018-04-02T08:53:43.000Z</time>
      </trkpt>
      <trkpt lat="42.95807" lon="0.84658">
        <ele>1443</ele>
        <time>2018-04-02T08:53:45.000Z</time>
      </trkpt>
      <trkpt lat="42.95807" lon="0.84656">
        <ele>1443</ele>
        <time>2018-04-02T08:53:47.000Z</time>
      </trkpt>
      <trkpt lat="42.95806" lon="0.84655">
        <ele>1443</ele>
        <time>2018-04-02T08:53:49.000Z</time>
      </trkpt>
      <trkpt lat="42.95806" lon="0.84655">
        <ele>1443</ele>
        <time>2018-04-02T08:53:51.000Z</time>
      </trkpt>
      <trkpt lat="42.95806" lon="0.84654">
        <ele>1443</ele>
        <time>2018-04-02T08:53:53.000Z</time>
      </trkpt>
      <trkpt lat="42.95805" lon="0.84653">
        <ele>1443</ele>
        <time>2018-04-02T08:53:55.000Z</time>
      </trkpt>
      <trkpt lat="42.95804" lon="0.84653">
        <ele>1444</ele>
        <time>2018-04-02T08:53:57.000Z</time>
      </trkpt>
      <trkpt lat="42.95804" lon="0.84654">
        <ele>1444</ele>
        <time>2018-04-02T08:53:59.000Z</time>
      </trkpt>
      <trkpt lat="42.95804" lon="0.84654">
        <ele>1444</ele>
        <time>2018-04-02T08:54:01.000Z</time>
      </trkpt>
      <trkpt lat="42.95803" lon="0.84654">
        <ele>1444</ele>
        <time>2018-04-02T08:54:03.000Z</time>
      </trkpt>
      <trkpt lat="42.95803" lon="0.84655">
        <ele>1444</ele>
        <time>2018-04-02T08:54:05.000Z</time>
      </trkpt>
      <trkpt lat="42.95803" lon="0.84655">
        <ele>1444</ele>
        <time>2018-04-02T08:54:07.000Z</time>
      </trkpt>
      <trkpt lat="42.95803" lon="0.84655">
        <ele>1444</ele>
        <time>2018-04-02T08:54:09.000Z</time>
      </trkpt>
      <trkpt lat="42.95803" lon="0.84655">
        <ele>1444</ele>
        <time>2018-04-02T08:54:11.000Z</time>
      </trkpt>
      <trkpt lat="42.95804" lon="0.84654">
        <ele>1444</ele>
        <time>2018-04-02T08:54:13.000Z</time>
      </trkpt>
      <trkpt lat="42.95804" lon="0.84654">
        <ele>1444</ele>
        <time>2018-04-02T08:54:15.000Z</time>
      </trkpt>
      <trkpt lat="42.95804" lon="0.84655">
        <ele>1443</ele>
        <time>2018-04-02T08:54:17.000Z</time>
      </trkpt>
      <trkpt lat="42.95804" lon="0.84655">
        <ele>1443</ele>
        <time>2018-04-02T08:54:19.000Z</time>
      </trkpt>
      <trkpt lat="42.95804" lon="0.84655">
        <ele>1443</ele>
        <time>2018-04-02T08:54:21.000Z</time>
      </trkpt>
      <trkpt lat="42.95803" lon="0.84656">
        <ele>1443</ele>
        <time>2018-04-02T08:54:23.000Z</time>
      </trkpt>
      <trkpt lat="42.95804" lon="0.84655">
        <ele>1443</ele>
        <time>2018-04-02T08:54:25.000Z</time>
      </trkpt>
      <trkpt lat="42.95804" lon="0.84655">
        <ele>1443</ele>
        <time>2018-04-02T08:54:27.000Z</time>
      </trkpt>
      <trkpt lat="42.95803" lon="0.84656">
        <ele>1443</ele>
        <time>2018-04-02T08:54:29.000Z</time>
      </trkpt>
      <trkpt lat="42.95803" lon="0.84656">
        <ele>1443</ele>
        <time>2018-04-02T08:54:31.000Z</time>
      </trkpt>
      <trkpt lat="42.95803" lon="0.84656">
        <ele>1443</ele>
        <time>2018-04-02T08:54:33.000Z</time>
      </trkpt>
      <trkpt lat="42.95803" lon="0.84656">
        <ele>1443</ele>
        <time>2018-04-02T08:54:35.000Z</time>
      </trkpt>
      <trkpt lat="42.95803" lon="0.84656">
        <ele>1444</ele>
        <time>2018-04-02T08:54:37.000Z</time>
      </trkpt>
      <trkpt lat="42.95803" lon="0.84655">
        <ele>1444</ele>
        <time>2018-04-02T08:54:39.000Z</time>
      </trkpt>
      <trkpt lat="42.95802" lon="0.84656">
        <ele>1444</ele>
        <time>2018-04-02T08:54:41.000Z</time>
      </trkpt>
      <trkpt lat="42.95802" lon="0.84655">
        <ele>1444</ele>
        <time>2018-04-02T08:54:43.000Z</time>
      </trkpt>
      <trkpt lat="42.95802" lon="0.84655">
        <ele>1444</ele>
        <time>2018-04-02T08:54:45.000Z</time>
      </trkpt>
      <trkpt lat="42.95804" lon="0.84653">
        <ele>1444</ele>
        <time>2018-04-02T08:54:47.000Z</time>
      </trkpt>
      <trkpt lat="42.95806" lon="0.84651">
        <ele>1443</ele>
        <time>2018-04-02T08:54:49.000Z</time>
      </trkpt>
      <trkpt lat="42.95807" lon="0.84651">
        <ele>1443</ele>
        <time>2018-04-02T08:54:51.000Z</time>
      </trkpt>
      <trkpt lat="42.95809" lon="0.84651">
        <ele>1443</ele>
        <time>2018-04-02T08:54:53.000Z</time>
      </trkpt>
      <trkpt lat="42.95809" lon="0.84651">
        <ele>1443</ele>
        <time>2018-04-02T08:54:55.000Z</time>
      </trkpt>
      <trkpt lat="42.95809" lon="0.84651">
        <ele>1443</ele>
        <time>2018-04-02T08:54:57.000Z</time>
      </trkpt>
      <trkpt lat="42.95809" lon="0.84651">
        <ele>1443</ele>
        <time>2018-04-02T08:54:59.000Z</time>
      </trkpt>
      <trkpt lat="42.95809" lon="0.84651">
        <ele>1443</ele>
        <time>2018-04-02T08:55:01.000Z</time>
      </trkpt>
      <trkpt lat="42.95809" lon="0.84651">
        <ele>1443</ele>
        <time>2018-04-02T08:55:03.000Z</time>
      </trkpt>
      <trkpt lat="42.95809" lon="0.84651">
        <ele>1443</ele>
        <time>2018-04-02T08:55:05.000Z</time>
      </trkpt>
      <trkpt lat="42.9581" lon="0.84651">
        <ele>1443</ele>
        <time>2018-04-02T08:55:07.000Z</time>
      </trkpt>
      <trkpt lat="42.9581" lon="0.84652">
        <ele>1443</ele>
        <time>2018-04-02T08:55:09.000Z</time>
      </trkpt>
      <trkpt lat="42.9581" lon="0.84653">
        <ele>1442</ele>
        <time>2018-04-02T08:55:11.000Z</time>
      </trkpt>
      <trkpt lat="42.9581" lon="0.84654">
        <ele>1442</ele>
        <time>2018-04-02T08:55:13.000Z</time>
      </trkpt>
      <trkpt lat="42.9581" lon="0.84654">
        <ele>1442</ele>
        <time>2018-04-02T08:55:15.000Z</time>
      </trkpt>
      <trkpt lat="42.9581" lon="0.84654">
        <ele>1442</ele>
        <time>2018-04-02T08:55:17.000Z</time>
      </trkpt>
      <trkpt lat="42.9581" lon="0.84654">
        <ele>1443</ele>
        <time>2018-04-02T08:55:19.000Z</time>
      </trkpt>
      <trkpt lat="42.9581" lon="0.84653">
        <ele>1443</ele>
        <time>2018-04-02T08:55:21.000Z</time>
      </trkpt>
      <trkpt lat="42.9581" lon="0.84653">
        <ele>1443</ele>
        <time>2018-04-02T08:55:23.000Z</time>
      </trkpt>
      <trkpt lat="42.95809" lon="0.84652">
        <ele>1443</ele>
        <time>2018-04-02T08:55:25.000Z</time>
      </trkpt>
      <trkpt lat="42.95809" lon="0.84652">
        <ele>1443</ele>
        <time>2018-04-02T08:55:27.000Z</time>
      </trkpt>
      <trkpt lat="42.95808" lon="0.84651">
        <ele>1443</ele>
        <time>2018-04-02T08:55:29.000Z</time>
      </trkpt>
      <trkpt lat="42.95808" lon="0.84651">
        <ele>1443</ele>
        <time>2018-04-02T08:55:31.000Z</time>
      </trkpt>
      <trkpt lat="42.95808" lon="0.84651">
        <ele>1443</ele>
        <time>2018-04-02T08:55:33.000Z</time>
      </trkpt>
      <trkpt lat="42.95808" lon="0.84651">
        <ele>1443</ele>
        <time>2018-04-02T08:55:35.000Z</time>
      </trkpt>
      <trkpt lat="42.95808" lon="0.84651">
        <ele>1443</ele>
        <time>2018-04-02T08:55:37.000Z</time>
      </trkpt>
      <trkpt lat="42.95808" lon="0.84652">
        <ele>1443</ele>
        <time>2018-04-02T08:55:39.000Z</time>
      </trkpt>
      <trkpt lat="42.95808" lon="0.84652">
        <ele>1443</ele>
        <time>2018-04-02T08:55:41.000Z</time>
      </trkpt>
      <trkpt lat="42.95809" lon="0.84652">
        <ele>1443</ele>
        <time>2018-04-02T08:55:43.000Z</time>
      </trkpt>
      <trkpt lat="42.95809" lon="0.84653">
        <ele>1443</ele>
        <time>2018-04-02T08:55:45.000Z</time>
      </trkpt>
      <trkpt lat="42.9581" lon="0.84653">
        <ele>1443</ele>
        <time>2018-04-02T08:55:47.000Z</time>
      </trkpt>
      <trkpt lat="42.9581" lon="0.84652">
        <ele>1443</ele>
        <time>2018-04-02T08:55:49.000Z</time>
      </trkpt>
      <trkpt lat="42.9581" lon="0.84651">
        <ele>1443</ele>
        <time>2018-04-02T08:55:51.000Z</time>
      </trkpt>
      <trkpt lat="42.95809" lon="0.84648">
        <ele>1443</ele>
        <time>2018-04-02T08:55:53.000Z</time>
      </trkpt>
      <trkpt lat="42.95808" lon="0.84646">
        <ele>1444</ele>
        <time>2018-04-02T08:55:55.000Z</time>
      </trkpt>
      <trkpt lat="42.95807" lon="0.84644">
        <ele>1444</ele>
        <time>2018-04-02T08:55:57.000Z</time>
      </trkpt>
      <trkpt lat="42.95806" lon="0.84641">
        <ele>1444</ele>
        <time>2018-04-02T08:55:59.000Z</time>
      </trkpt>
      <trkpt lat="42.95806" lon="0.84639">
        <ele>1445</ele>
        <time>2018-04-02T08:56:01.000Z</time>
      </trkpt>
      <trkpt lat="42.95805" lon="0.84636">
        <ele>1445</ele>
        <time>2018-04-02T08:56:03.000Z</time>
      </trkpt>
      <trkpt lat="42.95804" lon="0.84633">
        <ele>1445</ele>
        <time>2018-04-02T08:56:05.000Z</time>
      </trkpt>
      <trkpt lat="42.95803" lon="0.8463">
        <ele>1445</ele>
        <time>2018-04-02T08:56:07.000Z</time>
      </trkpt>
      <trkpt lat="42.95803" lon="0.84627">
        <ele>1445</ele>
        <time>2018-04-02T08:56:09.000Z</time>
      </trkpt>
      <trkpt lat="42.95803" lon="0.84624">
        <ele>1444</ele>
        <time>2018-04-02T08:56:11.000Z</time>
      </trkpt>
      <trkpt lat="42.95802" lon="0.84622">
        <ele>1444</ele>
        <time>2018-04-02T08:56:13.000Z</time>
      </trkpt>
      <trkpt lat="42.95802" lon="0.84619">
        <ele>1444</ele>
        <time>2018-04-02T08:56:15.000Z</time>
      </trkpt>
      <trkpt lat="42.95802" lon="0.84617">
        <ele>1444</ele>
        <time>2018-04-02T08:56:17.000Z</time>
      </trkpt>
      <trkpt lat="42.95801" lon="0.84614">
        <ele>1444</ele>
        <time>2018-04-02T08:56:19.000Z</time>
      </trkpt>
      <trkpt lat="42.958" lon="0.84611">
        <ele>1444</ele>
        <time>2018-04-02T08:56:21.000Z</time>
      </trkpt>
      <trkpt lat="42.958" lon="0.84607">
        <ele>1444</ele>
        <time>2018-04-02T08:56:23.000Z</time>
      </trkpt>
      <trkpt lat="42.958" lon="0.84604">
        <ele>1444</ele>
        <time>2018-04-02T08:56:25.000Z</time>
      </trkpt>
      <trkpt lat="42.958" lon="0.84602">
        <ele>1444</ele>
        <time>2018-04-02T08:56:27.000Z</time>
      </trkpt>
      <trkpt lat="42.95799" lon="0.84599">
        <ele>1444</ele>
        <time>2018-04-02T08:56:29.000Z</time>
      </trkpt>
      <trkpt lat="42.95799" lon="0.84597">
        <ele>1444</ele>
        <time>2018-04-02T08:56:31.000Z</time>
      </trkpt>
      <trkpt lat="42.95799" lon="0.84594">
        <ele>1444</ele>
        <time>2018-04-02T08:56:33.000Z</time>
      </trkpt>
      <trkpt lat="42.95799" lon="0.84591">
        <ele>1444</ele>
        <time>2018-04-02T08:56:35.000Z</time>
      </trkpt>
      <trkpt lat="42.95799" lon="0.84588">
        <ele>1444</ele>
        <time>2018-04-02T08:56:37.000Z</time>
      </trkpt>
      <trkpt lat="42.95798" lon="0.84586">
        <ele>1445</ele>
        <time>2018-04-02T08:56:39.000Z</time>
      </trkpt>
      <trkpt lat="42.95798" lon="0.84584">
        <ele>1445</ele>
        <time>2018-04-02T08:56:41.000Z</time>
      </trkpt>
      <trkpt lat="42.95797" lon="0.84581">
        <ele>1445</ele>
        <time>2018-04-02T08:56:43.000Z</time>
      </trkpt>
      <trkpt lat="42.95797" lon="0.84579">
        <ele>1445</ele>
        <time>2018-04-02T08:56:45.000Z</time>
      </trkpt>
      <trkpt lat="42.95796" lon="0.84576">
        <ele>1445</ele>
        <time>2018-04-02T08:56:47.000Z</time>
      </trkpt>
      <trkpt lat="42.95795" lon="0.84574">
        <ele>1446</ele>
        <time>2018-04-02T08:56:49.000Z</time>
      </trkpt>
      <trkpt lat="42.95794" lon="0.84572">
        <ele>1446</ele>
        <time>2018-04-02T08:56:51.000Z</time>
      </trkpt>
      <trkpt lat="42.95793" lon="0.8457">
        <ele>1446</ele>
        <time>2018-04-02T08:56:53.000Z</time>
      </trkpt>
      <trkpt lat="42.95792" lon="0.84568">
        <ele>1446</ele>
        <time>2018-04-02T08:56:55.000Z</time>
      </trkpt>
      <trkpt lat="42.95791" lon="0.84566">
        <ele>1447</ele>
        <time>2018-04-02T08:56:57.000Z</time>
      </trkpt>
      <trkpt lat="42.9579" lon="0.84565">
        <ele>1447</ele>
        <time>2018-04-02T08:56:59.000Z</time>
      </trkpt>
      <trkpt lat="42.95789" lon="0.84563">
        <ele>1447</ele>
        <time>2018-04-02T08:57:01.000Z</time>
      </trkpt>
      <trkpt lat="42.95788" lon="0.84561">
        <ele>1447</ele>
        <time>2018-04-02T08:57:03.000Z</time>
      </trkpt>
      <trkpt lat="42.95788" lon="0.84559">
        <ele>1447</ele>
        <time>2018-04-02T08:57:05.000Z</time>
      </trkpt>
      <trkpt lat="42.95787" lon="0.84558">
        <ele>1447</ele>
        <time>2018-04-02T08:57:07.000Z</time>
      </trkpt>
      <trkpt lat="42.95786" lon="0.84556">
        <ele>1448</ele>
        <time>2018-04-02T08:57:09.000Z</time>
      </trkpt>
      <trkpt lat="42.95785" lon="0.84554">
        <ele>1448</ele>
        <time>2018-04-02T08:57:11.000Z</time>
      </trkpt>
      <trkpt lat="42.95784" lon="0.84552">
        <ele>1448</ele>
        <time>2018-04-02T08:57:13.000Z</time>
      </trkpt>
      <trkpt lat="42.95783" lon="0.8455">
        <ele>1448</ele>
        <time>2018-04-02T08:57:15.000Z</time>
      </trkpt>
      <trkpt lat="42.95782" lon="0.84548">
        <ele>1449</ele>
        <time>2018-04-02T08:57:17.000Z</time>
      </trkpt>
      <trkpt lat="42.95781" lon="0.84546">
        <ele>1449</ele>
        <time>2018-04-02T08:57:19.000Z</time>
      </trkpt>
      <trkpt lat="42.9578" lon="0.84546">
        <ele>1449</ele>
        <time>2018-04-02T08:57:21.000Z</time>
      </trkpt>
      <trkpt lat="42.9578" lon="0.84545">
        <ele>1449</ele>
        <time>2018-04-02T08:57:23.000Z</time>
      </trkpt>
      <trkpt lat="42.9578" lon="0.84545">
        <ele>1449</ele>
        <time>2018-04-02T08:57:25.000Z</time>
      </trkpt>
      <trkpt lat="42.9578" lon="0.84546">
        <ele>1449</ele>
        <time>2018-04-02T08:57:27.000Z</time>
      </trkpt>
      <trkpt lat="42.9578" lon="0.84546">
        <ele>1449</ele>
        <time>2018-04-02T08:57:29.000Z</time>
      </trkpt>
      <trkpt lat="42.95779" lon="0.84545">
        <ele>1449</ele>
        <time>2018-04-02T08:57:31.000Z</time>
      </trkpt>
      <trkpt lat="42.95778" lon="0.84544">
        <ele>1449</ele>
        <time>2018-04-02T08:57:33.000Z</time>
      </trkpt>
      <trkpt lat="42.95777" lon="0.84543">
        <ele>1449</ele>
        <time>2018-04-02T08:57:35.000Z</time>
      </trkpt>
      <trkpt lat="42.95776" lon="0.84542">
        <ele>1450</ele>
        <time>2018-04-02T08:57:37.000Z</time>
      </trkpt>
      <trkpt lat="42.95775" lon="0.8454">
        <ele>1450</ele>
        <time>2018-04-02T08:57:39.000Z</time>
      </trkpt>
      <trkpt lat="42.95775" lon="0.84539">
        <ele>1450</ele>
        <time>2018-04-02T08:57:41.000Z</time>
      </trkpt>
      <trkpt lat="42.95774" lon="0.84538">
        <ele>1450</ele>
        <time>2018-04-02T08:57:43.000Z</time>
      </trkpt>
      <trkpt lat="42.95774" lon="0.84537">
        <ele>1450</ele>
        <time>2018-04-02T08:57:45.000Z</time>
      </trkpt>
      <trkpt lat="42.95774" lon="0.84537">
        <ele>1450</ele>
        <time>2018-04-02T08:57:47.000Z</time>
      </trkpt>
      <trkpt lat="42.95773" lon="0.84535">
        <ele>1450</ele>
        <time>2018-04-02T08:57:49.000Z</time>
      </trkpt>
      <trkpt lat="42.95772" lon="0.84534">
        <ele>1451</ele>
        <time>2018-04-02T08:57:51.000Z</time>
      </trkpt>
      <trkpt lat="42.95772" lon="0.84532">
        <ele>1451</ele>
        <time>2018-04-02T08:57:53.000Z</time>
      </trkpt>
      <trkpt lat="42.95771" lon="0.84531">
        <ele>1451</ele>
        <time>2018-04-02T08:57:55.000Z</time>
      </trkpt>
      <trkpt lat="42.9577" lon="0.84529">
        <ele>1451</ele>
        <time>2018-04-02T08:57:57.000Z</time>
      </trkpt>
      <trkpt lat="42.95769" lon="0.84528">
        <ele>1452</ele>
        <time>2018-04-02T08:57:59.000Z</time>
      </trkpt>
      <trkpt lat="42.95769" lon="0.84525">
        <ele>1452</ele>
        <time>2018-04-02T08:58:01.000Z</time>
      </trkpt>
      <trkpt lat="42.95768" lon="0.84524">
        <ele>1452</ele>
        <time>2018-04-02T08:58:03.000Z</time>
      </trkpt>
      <trkpt lat="42.95768" lon="0.84523">
        <ele>1452</ele>
        <time>2018-04-02T08:58:05.000Z</time>
      </trkpt>
      <trkpt lat="42.95767" lon="0.84521">
        <ele>1452</ele>
        <time>2018-04-02T08:58:07.000Z</time>
      </trkpt>
      <trkpt lat="42.95767" lon="0.8452">
        <ele>1452</ele>
        <time>2018-04-02T08:58:09.000Z</time>
      </trkpt>
      <trkpt lat="42.95766" lon="0.84518">
        <ele>1453</ele>
        <time>2018-04-02T08:58:11.000Z</time>
      </trkpt>
      <trkpt lat="42.95765" lon="0.84517">
        <ele>1453</ele>
        <time>2018-04-02T08:58:13.000Z</time>
      </trkpt>
      <trkpt lat="42.95765" lon="0.84515">
        <ele>1453</ele>
        <time>2018-04-02T08:58:15.000Z</time>
      </trkpt>
      <trkpt lat="42.95764" lon="0.84514">
        <ele>1453</ele>
        <time>2018-04-02T08:58:17.000Z</time>
      </trkpt>
      <trkpt lat="42.95764" lon="0.84513">
        <ele>1453</ele>
        <time>2018-04-02T08:58:19.000Z</time>
      </trkpt>
      <trkpt lat="42.95763" lon="0.84512">
        <ele>1454</ele>
        <time>2018-04-02T08:58:21.000Z</time>
      </trkpt>
      <trkpt lat="42.95763" lon="0.8451">
        <ele>1454</ele>
        <time>2018-04-02T08:58:23.000Z</time>
      </trkpt>
      <trkpt lat="42.95763" lon="0.84508">
        <ele>1454</ele>
        <time>2018-04-02T08:58:25.000Z</time>
      </trkpt>
      <trkpt lat="42.95762" lon="0.84506">
        <ele>1454</ele>
        <time>2018-04-02T08:58:27.000Z</time>
      </trkpt>
      <trkpt lat="42.95762" lon="0.84505">
        <ele>1454</ele>
        <time>2018-04-02T08:58:29.000Z</time>
      </trkpt>
      <trkpt lat="42.95762" lon="0.84503">
        <ele>1455</ele>
        <time>2018-04-02T08:58:31.000Z</time>
      </trkpt>
      <trkpt lat="42.95761" lon="0.84502">
        <ele>1455</ele>
        <time>2018-04-02T08:58:33.000Z</time>
      </trkpt>
      <trkpt lat="42.95761" lon="0.84501">
        <ele>1455</ele>
        <time>2018-04-02T08:58:35.000Z</time>
      </trkpt>
      <trkpt lat="42.9576" lon="0.84499">
        <ele>1455</ele>
        <time>2018-04-02T08:58:37.000Z</time>
      </trkpt>
      <trkpt lat="42.9576" lon="0.84498">
        <ele>1455</ele>
        <time>2018-04-02T08:58:39.000Z</time>
      </trkpt>
      <trkpt lat="42.95759" lon="0.84497">
        <ele>1455</ele>
        <time>2018-04-02T08:58:41.000Z</time>
      </trkpt>
      <trkpt lat="42.95759" lon="0.84496">
        <ele>1455</ele>
        <time>2018-04-02T08:58:43.000Z</time>
      </trkpt>
      <trkpt lat="42.95758" lon="0.84495">
        <ele>1456</ele>
        <time>2018-04-02T08:58:45.000Z</time>
      </trkpt>
      <trkpt lat="42.95757" lon="0.84494">
        <ele>1456</ele>
        <time>2018-04-02T08:58:47.000Z</time>
      </trkpt>
      <trkpt lat="42.95756" lon="0.84493">
        <ele>1457</ele>
        <time>2018-04-02T08:58:49.000Z</time>
      </trkpt>
      <trkpt lat="42.95755" lon="0.84492">
        <ele>1457</ele>
        <time>2018-04-02T08:58:51.000Z</time>
      </trkpt>
      <trkpt lat="42.95754" lon="0.84491">
        <ele>1458</ele>
        <time>2018-04-02T08:58:53.000Z</time>
      </trkpt>
      <trkpt lat="42.95754" lon="0.8449">
        <ele>1458</ele>
        <time>2018-04-02T08:58:55.000Z</time>
      </trkpt>
      <trkpt lat="42.95754" lon="0.84488">
        <ele>1458</ele>
        <time>2018-04-02T08:58:57.000Z</time>
      </trkpt>
      <trkpt lat="42.95754" lon="0.84487">
        <ele>1458</ele>
        <time>2018-04-02T08:58:59.000Z</time>
      </trkpt>
      <trkpt lat="42.95755" lon="0.84486">
        <ele>1458</ele>
        <time>2018-04-02T08:59:01.000Z</time>
      </trkpt>
      <trkpt lat="42.95755" lon="0.84484">
        <ele>1458</ele>
        <time>2018-04-02T08:59:03.000Z</time>
      </trkpt>
      <trkpt lat="42.95756" lon="0.84483">
        <ele>1458</ele>
        <time>2018-04-02T08:59:05.000Z</time>
      </trkpt>
      <trkpt lat="42.95757" lon="0.84481">
        <ele>1458</ele>
        <time>2018-04-02T08:59:07.000Z</time>
      </trkpt>
      <trkpt lat="42.95757" lon="0.8448">
        <ele>1457</ele>
        <time>2018-04-02T08:59:09.000Z</time>
      </trkpt>
      <trkpt lat="42.95758" lon="0.8448">
        <ele>1457</ele>
        <time>2018-04-02T08:59:11.000Z</time>
      </trkpt>
      <trkpt lat="42.95758" lon="0.84479">
        <ele>1457</ele>
        <time>2018-04-02T08:59:13.000Z</time>
      </trkpt>
      <trkpt lat="42.95758" lon="0.84479">
        <ele>1457</ele>
        <time>2018-04-02T08:59:15.000Z</time>
      </trkpt>
      <trkpt lat="42.95757" lon="0.84478">
        <ele>1458</ele>
        <time>2018-04-02T08:59:17.000Z</time>
      </trkpt>
      <trkpt lat="42.95757" lon="0.84477">
        <ele>1458</ele>
        <time>2018-04-02T08:59:19.000Z</time>
      </trkpt>
      <trkpt lat="42.95756" lon="0.84476">
        <ele>1459</ele>
        <time>2018-04-02T08:59:21.000Z</time>
      </trkpt>
      <trkpt lat="42.95756" lon="0.84475">
        <ele>1459</ele>
        <time>2018-04-02T08:59:23.000Z</time>
      </trkpt>
      <trkpt lat="42.95756" lon="0.84473">
        <ele>1459</ele>
        <time>2018-04-02T08:59:25.000Z</time>
      </trkpt>
      <trkpt lat="42.95756" lon="0.84472">
        <ele>1459</ele>
        <time>2018-04-02T08:59:27.000Z</time>
      </trkpt>
      <trkpt lat="42.95756" lon="0.84471">
        <ele>1459</ele>
        <time>2018-04-02T08:59:29.000Z</time>
      </trkpt>
      <trkpt lat="42.95756" lon="0.8447">
        <ele>1459</ele>
        <time>2018-04-02T08:59:31.000Z</time>
      </trkpt>
      <trkpt lat="42.95755" lon="0.8447">
        <ele>1460</ele>
        <time>2018-04-02T08:59:33.000Z</time>
      </trkpt>
      <trkpt lat="42.95754" lon="0.84469">
        <ele>1460</ele>
        <time>2018-04-02T08:59:35.000Z</time>
      </trkpt>
      <trkpt lat="42.95753" lon="0.84469">
        <ele>1461</ele>
        <time>2018-04-02T08:59:37.000Z</time>
      </trkpt>
      <trkpt lat="42.95752" lon="0.84468">
        <ele>1461</ele>
        <time>2018-04-02T08:59:39.000Z</time>
      </trkpt>
      <trkpt lat="42.95752" lon="0.84467">
        <ele>1462</ele>
        <time>2018-04-02T08:59:41.000Z</time>
      </trkpt>
      <trkpt lat="42.95752" lon="0.84465">
        <ele>1462</ele>
        <time>2018-04-02T08:59:43.000Z</time>
      </trkpt>
      <trkpt lat="42.95753" lon="0.84464">
        <ele>1462</ele>
        <time>2018-04-02T08:59:45.000Z</time>
      </trkpt>
      <trkpt lat="42.95753" lon="0.84463">
        <ele>1462</ele>
        <time>2018-04-02T08:59:47.000Z</time>
      </trkpt>
      <trkpt lat="42.95753" lon="0.84462">
        <ele>1462</ele>
        <time>2018-04-02T08:59:49.000Z</time>
      </trkpt>
      <trkpt lat="42.95753" lon="0.84461">
        <ele>1463</ele>
        <time>2018-04-02T08:59:51.000Z</time>
      </trkpt>
      <trkpt lat="42.95753" lon="0.8446">
        <ele>1463</ele>
        <time>2018-04-02T08:59:53.000Z</time>
      </trkpt>
      <trkpt lat="42.95752" lon="0.84459">
        <ele>1463</ele>
        <time>2018-04-02T08:59:55.000Z</time>
      </trkpt>
      <trkpt lat="42.95752" lon="0.84459">
        <ele>1464</ele>
        <time>2018-04-02T08:59:57.000Z</time>
      </trkpt>
      <trkpt lat="42.95751" lon="0.84458">
        <ele>1464</ele>
        <time>2018-04-02T08:59:59.000Z</time>
      </trkpt>
      <trkpt lat="42.9575" lon="0.84457">
        <ele>1465</ele>
        <time>2018-04-02T09:00:01.000Z</time>
      </trkpt>
      <trkpt lat="42.9575" lon="0.84455">
        <ele>1465</ele>
        <time>2018-04-02T09:00:03.000Z</time>
      </trkpt>
      <trkpt lat="42.95751" lon="0.84454">
        <ele>1465</ele>
        <time>2018-04-02T09:00:05.000Z</time>
      </trkpt>
      <trkpt lat="42.9575" lon="0.84453">
        <ele>1465</ele>
        <time>2018-04-02T09:00:07.000Z</time>
      </trkpt>
      <trkpt lat="42.9575" lon="0.84452">
        <ele>1466</ele>
        <time>2018-04-02T09:00:09.000Z</time>
      </trkpt>
      <trkpt lat="42.95751" lon="0.84451">
        <ele>1466</ele>
        <time>2018-04-02T09:00:11.000Z</time>
      </trkpt>
      <trkpt lat="42.9575" lon="0.8445">
        <ele>1466</ele>
        <time>2018-04-02T09:00:13.000Z</time>
      </trkpt>
      <trkpt lat="42.95751" lon="0.84449">
        <ele>1466</ele>
        <time>2018-04-02T09:00:15.000Z</time>
      </trkpt>
      <trkpt lat="42.95751" lon="0.84447">
        <ele>1467</ele>
        <time>2018-04-02T09:00:17.000Z</time>
      </trkpt>
      <trkpt lat="42.95751" lon="0.84447">
        <ele>1467</ele>
        <time>2018-04-02T09:00:19.000Z</time>
      </trkpt>
      <trkpt lat="42.9575" lon="0.84446">
        <ele>1467</ele>
        <time>2018-04-02T09:00:21.000Z</time>
      </trkpt>
      <trkpt lat="42.95749" lon="0.84446">
        <ele>1467</ele>
        <time>2018-04-02T09:00:23.000Z</time>
      </trkpt>
      <trkpt lat="42.95748" lon="0.84445">
        <ele>1468</ele>
        <time>2018-04-02T09:00:25.000Z</time>
      </trkpt>
      <trkpt lat="42.95747" lon="0.84444">
        <ele>1469</ele>
        <time>2018-04-02T09:00:27.000Z</time>
      </trkpt>
      <trkpt lat="42.95747" lon="0.84444">
        <ele>1469</ele>
        <time>2018-04-02T09:00:29.000Z</time>
      </trkpt>
      <trkpt lat="42.95746" lon="0.84444">
        <ele>1469</ele>
        <time>2018-04-02T09:00:31.000Z</time>
      </trkpt>
      <trkpt lat="42.95745" lon="0.84444">
        <ele>1470</ele>
        <time>2018-04-02T09:00:33.000Z</time>
      </trkpt>
      <trkpt lat="42.95743" lon="0.84443">
        <ele>1470</ele>
        <time>2018-04-02T09:00:35.000Z</time>
      </trkpt>
      <trkpt lat="42.95743" lon="0.84442">
        <ele>1471</ele>
        <time>2018-04-02T09:00:37.000Z</time>
      </trkpt>
      <trkpt lat="42.95742" lon="0.84442">
        <ele>1472</ele>
        <time>2018-04-02T09:00:39.000Z</time>
      </trkpt>
      <trkpt lat="42.95741" lon="0.84441">
        <ele>1472</ele>
        <time>2018-04-02T09:00:41.000Z</time>
      </trkpt>
      <trkpt lat="42.9574" lon="0.84441">
        <ele>1472</ele>
        <time>2018-04-02T09:00:43.000Z</time>
      </trkpt>
      <trkpt lat="42.95739" lon="0.8444">
        <ele>1473</ele>
        <time>2018-04-02T09:00:45.000Z</time>
      </trkpt>
      <trkpt lat="42.95738" lon="0.84439">
        <ele>1474</ele>
        <time>2018-04-02T09:00:47.000Z</time>
      </trkpt>
      <trkpt lat="42.95737" lon="0.84439">
        <ele>1474</ele>
        <time>2018-04-02T09:00:49.000Z</time>
      </trkpt>
      <trkpt lat="42.95737" lon="0.84438">
        <ele>1474</ele>
        <time>2018-04-02T09:00:51.000Z</time>
      </trkpt>
      <trkpt lat="42.95737" lon="0.84437">
        <ele>1475</ele>
        <time>2018-04-02T09:00:53.000Z</time>
      </trkpt>
      <trkpt lat="42.95737" lon="0.84435">
        <ele>1475</ele>
        <time>2018-04-02T09:00:55.000Z</time>
      </trkpt>
      <trkpt lat="42.95738" lon="0.84435">
        <ele>1475</ele>
        <time>2018-04-02T09:00:57.000Z</time>
      </trkpt>
      <trkpt lat="42.95738" lon="0.84433">
        <ele>1475</ele>
        <time>2018-04-02T09:00:59.000Z</time>
      </trkpt>
      <trkpt lat="42.95739" lon="0.84432">
        <ele>1475</ele>
        <time>2018-04-02T09:01:01.000Z</time>
      </trkpt>
      <trkpt lat="42.9574" lon="0.84431">
        <ele>1475</ele>
        <time>2018-04-02T09:01:03.000Z</time>
      </trkpt>
      <trkpt lat="42.9574" lon="0.84429">
        <ele>1475</ele>
        <time>2018-04-02T09:01:05.000Z</time>
      </trkpt>
      <trkpt lat="42.95741" lon="0.84428">
        <ele>1475</ele>
        <time>2018-04-02T09:01:07.000Z</time>
      </trkpt>
      <trkpt lat="42.95741" lon="0.84427">
        <ele>1475</ele>
        <time>2018-04-02T09:01:09.000Z</time>
      </trkpt>
      <trkpt lat="42.95741" lon="0.84426">
        <ele>1475</ele>
        <time>2018-04-02T09:01:11.000Z</time>
      </trkpt>
      <trkpt lat="42.95742" lon="0.84426">
        <ele>1475</ele>
        <time>2018-04-02T09:01:13.000Z</time>
      </trkpt>
      <trkpt lat="42.95743" lon="0.84425">
        <ele>1475</ele>
        <time>2018-04-02T09:01:15.000Z</time>
      </trkpt>
      <trkpt lat="42.95743" lon="0.84424">
        <ele>1475</ele>
        <time>2018-04-02T09:01:17.000Z</time>
      </trkpt>
      <trkpt lat="42.95743" lon="0.84422">
        <ele>1475</ele>
        <time>2018-04-02T09:01:19.000Z</time>
      </trkpt>
      <trkpt lat="42.95744" lon="0.84421">
        <ele>1475</ele>
        <time>2018-04-02T09:01:21.000Z</time>
      </trkpt>
      <trkpt lat="42.95743" lon="0.84421">
        <ele>1475</ele>
        <time>2018-04-02T09:01:23.000Z</time>
      </trkpt>
      <trkpt lat="42.95742" lon="0.8442">
        <ele>1476</ele>
        <time>2018-04-02T09:01:25.000Z</time>
      </trkpt>
      <trkpt lat="42.95741" lon="0.8442">
        <ele>1476</ele>
        <time>2018-04-02T09:01:27.000Z</time>
      </trkpt>
      <trkpt lat="42.95741" lon="0.8442">
        <ele>1477</ele>
        <time>2018-04-02T09:01:29.000Z</time>
      </trkpt>
      <trkpt lat="42.9574" lon="0.84419">
        <ele>1477</ele>
        <time>2018-04-02T09:01:31.000Z</time>
      </trkpt>
      <trkpt lat="42.95739" lon="0.84419">
        <ele>1478</ele>
        <time>2018-04-02T09:01:33.000Z</time>
      </trkpt>
      <trkpt lat="42.95738" lon="0.84418">
        <ele>1478</ele>
        <time>2018-04-02T09:01:35.000Z</time>
      </trkpt>
      <trkpt lat="42.95737" lon="0.84418">
        <ele>1479</ele>
        <time>2018-04-02T09:01:37.000Z</time>
      </trkpt>
      <trkpt lat="42.95736" lon="0.84417">
        <ele>1480</ele>
        <time>2018-04-02T09:01:39.000Z</time>
      </trkpt>
      <trkpt lat="42.95734" lon="0.84417">
        <ele>1480</ele>
        <time>2018-04-02T09:01:41.000Z</time>
      </trkpt>
      <trkpt lat="42.95733" lon="0.84416">
        <ele>1481</ele>
        <time>2018-04-02T09:01:43.000Z</time>
      </trkpt>
      <trkpt lat="42.95732" lon="0.84416">
        <ele>1482</ele>
        <time>2018-04-02T09:01:45.000Z</time>
      </trkpt>
      <trkpt lat="42.95731" lon="0.84414">
        <ele>1482</ele>
        <time>2018-04-02T09:01:47.000Z</time>
      </trkpt>
      <trkpt lat="42.95732" lon="0.84412">
        <ele>1482</ele>
        <time>2018-04-02T09:01:49.000Z</time>
      </trkpt>
      <trkpt lat="42.95733" lon="0.84411">
        <ele>1482</ele>
        <time>2018-04-02T09:01:51.000Z</time>
      </trkpt>
      <trkpt lat="42.95733" lon="0.8441">
        <ele>1482</ele>
        <time>2018-04-02T09:01:53.000Z</time>
      </trkpt>
      <trkpt lat="42.95734" lon="0.84409">
        <ele>1482</ele>
        <time>2018-04-02T09:01:55.000Z</time>
      </trkpt>
      <trkpt lat="42.95735" lon="0.84408">
        <ele>1482</ele>
        <time>2018-04-02T09:01:57.000Z</time>
      </trkpt>
      <trkpt lat="42.95735" lon="0.84407">
        <ele>1482</ele>
        <time>2018-04-02T09:01:59.000Z</time>
      </trkpt>
      <trkpt lat="42.95736" lon="0.84406">
        <ele>1482</ele>
        <time>2018-04-02T09:02:01.000Z</time>
      </trkpt>
      <trkpt lat="42.95737" lon="0.84404">
        <ele>1482</ele>
        <time>2018-04-02T09:02:03.000Z</time>
      </trkpt>
      <trkpt lat="42.95738" lon="0.84403">
        <ele>1482</ele>
        <time>2018-04-02T09:02:05.000Z</time>
      </trkpt>
      <trkpt lat="42.95738" lon="0.84401">
        <ele>1482</ele>
        <time>2018-04-02T09:02:07.000Z</time>
      </trkpt>
      <trkpt lat="42.95739" lon="0.84399">
        <ele>1482</ele>
        <time>2018-04-02T09:02:09.000Z</time>
      </trkpt>
      <trkpt lat="42.95739" lon="0.84398">
        <ele>1482</ele>
        <time>2018-04-02T09:02:11.000Z</time>
      </trkpt>
      <trkpt lat="42.95739" lon="0.84397">
        <ele>1482</ele>
        <time>2018-04-02T09:02:13.000Z</time>
      </trkpt>
      <trkpt lat="42.95739" lon="0.84396">
        <ele>1483</ele>
        <time>2018-04-02T09:02:15.000Z</time>
      </trkpt>
      <trkpt lat="42.95739" lon="0.84395">
        <ele>1483</ele>
        <time>2018-04-02T09:02:17.000Z</time>
      </trkpt>
      <trkpt lat="42.95738" lon="0.84394">
        <ele>1483</ele>
        <time>2018-04-02T09:02:19.000Z</time>
      </trkpt>
      <trkpt lat="42.95738" lon="0.84393">
        <ele>1484</ele>
        <time>2018-04-02T09:02:21.000Z</time>
      </trkpt>
      <trkpt lat="42.95738" lon="0.84392">
        <ele>1484</ele>
        <time>2018-04-02T09:02:23.000Z</time>
      </trkpt>
      <trkpt lat="42.95739" lon="0.84392">
        <ele>1484</ele>
        <time>2018-04-02T09:02:25.000Z</time>
      </trkpt>
      <trkpt lat="42.95738" lon="0.84391">
        <ele>1484</ele>
        <time>2018-04-02T09:02:27.000Z</time>
      </trkpt>
      <trkpt lat="42.95737" lon="0.84391">
        <ele>1484</ele>
        <time>2018-04-02T09:02:29.000Z</time>
      </trkpt>
      <trkpt lat="42.95737" lon="0.8439">
        <ele>1485</ele>
        <time>2018-04-02T09:02:31.000Z</time>
      </trkpt>
      <trkpt lat="42.95736" lon="0.84389">
        <ele>1485</ele>
        <time>2018-04-02T09:02:33.000Z</time>
      </trkpt>
      <trkpt lat="42.95735" lon="0.84389">
        <ele>1486</ele>
        <time>2018-04-02T09:02:35.000Z</time>
      </trkpt>
      <trkpt lat="42.95734" lon="0.84388">
        <ele>1486</ele>
        <time>2018-04-02T09:02:37.000Z</time>
      </trkpt>
      <trkpt lat="42.95733" lon="0.84388">
        <ele>1487</ele>
        <time>2018-04-02T09:02:39.000Z</time>
      </trkpt>
      <trkpt lat="42.95733" lon="0.84388">
        <ele>1487</ele>
        <time>2018-04-02T09:02:41.000Z</time>
      </trkpt>
      <trkpt lat="42.95731" lon="0.84388">
        <ele>1487</ele>
        <time>2018-04-02T09:02:43.000Z</time>
      </trkpt>
      <trkpt lat="42.9573" lon="0.84387">
        <ele>1488</ele>
        <time>2018-04-02T09:02:45.000Z</time>
      </trkpt>
      <trkpt lat="42.95729" lon="0.84387">
        <ele>1488</ele>
        <time>2018-04-02T09:02:47.000Z</time>
      </trkpt>
      <trkpt lat="42.95729" lon="0.84386">
        <ele>1489</ele>
        <time>2018-04-02T09:02:49.000Z</time>
      </trkpt>
      <trkpt lat="42.95729" lon="0.84384">
        <ele>1488</ele>
        <time>2018-04-02T09:02:51.000Z</time>
      </trkpt>
      <trkpt lat="42.9573" lon="0.84383">
        <ele>1488</ele>
        <time>2018-04-02T09:02:53.000Z</time>
      </trkpt>
      <trkpt lat="42.9573" lon="0.84382">
        <ele>1488</ele>
        <time>2018-04-02T09:02:55.000Z</time>
      </trkpt>
      <trkpt lat="42.9573" lon="0.84381">
        <ele>1488</ele>
        <time>2018-04-02T09:02:57.000Z</time>
      </trkpt>
      <trkpt lat="42.9573" lon="0.8438">
        <ele>1488</ele>
        <time>2018-04-02T09:02:59.000Z</time>
      </trkpt>
      <trkpt lat="42.9573" lon="0.84379">
        <ele>1488</ele>
        <time>2018-04-02T09:03:01.000Z</time>
      </trkpt>
      <trkpt lat="42.9573" lon="0.84378">
        <ele>1488</ele>
        <time>2018-04-02T09:03:03.000Z</time>
      </trkpt>
      <trkpt lat="42.9573" lon="0.84377">
        <ele>1488</ele>
        <time>2018-04-02T09:03:05.000Z</time>
      </trkpt>
      <trkpt lat="42.9573" lon="0.84376">
        <ele>1488</ele>
        <time>2018-04-02T09:03:07.000Z</time>
      </trkpt>
      <trkpt lat="42.95729" lon="0.84375">
        <ele>1489</ele>
        <time>2018-04-02T09:03:09.000Z</time>
      </trkpt>
      <trkpt lat="42.95729" lon="0.84374">
        <ele>1489</ele>
        <time>2018-04-02T09:03:11.000Z</time>
      </trkpt>
      <trkpt lat="42.95729" lon="0.84373">
        <ele>1489</ele>
        <time>2018-04-02T09:03:13.000Z</time>
      </trkpt>
      <trkpt lat="42.95729" lon="0.84372">
        <ele>1489</ele>
        <time>2018-04-02T09:03:15.000Z</time>
      </trkpt>
      <trkpt lat="42.95729" lon="0.84371">
        <ele>1489</ele>
        <time>2018-04-02T09:03:17.000Z</time>
      </trkpt>
      <trkpt lat="42.95729" lon="0.8437">
        <ele>1489</ele>
        <time>2018-04-02T09:03:19.000Z</time>
      </trkpt>
      <trkpt lat="42.95729" lon="0.84368">
        <ele>1489</ele>
        <time>2018-04-02T09:03:21.000Z</time>
      </trkpt>
      <trkpt lat="42.95729" lon="0.84367">
        <ele>1489</ele>
        <time>2018-04-02T09:03:23.000Z</time>
      </trkpt>
      <trkpt lat="42.95729" lon="0.84366">
        <ele>1489</ele>
        <time>2018-04-02T09:03:25.000Z</time>
      </trkpt>
      <trkpt lat="42.95729" lon="0.84366">
        <ele>1489</ele>
        <time>2018-04-02T09:03:27.000Z</time>
      </trkpt>
      <trkpt lat="42.95728" lon="0.84365">
        <ele>1489</ele>
        <time>2018-04-02T09:03:29.000Z</time>
      </trkpt>
      <trkpt lat="42.95729" lon="0.84364">
        <ele>1489</ele>
        <time>2018-04-02T09:03:31.000Z</time>
      </trkpt>
      <trkpt lat="42.95729" lon="0.84363">
        <ele>1489</ele>
        <time>2018-04-02T09:03:33.000Z</time>
      </trkpt>
      <trkpt lat="42.95728" lon="0.84362">
        <ele>1489</ele>
        <time>2018-04-02T09:03:35.000Z</time>
      </trkpt>
      <trkpt lat="42.95728" lon="0.84361">
        <ele>1490</ele>
        <time>2018-04-02T09:03:37.000Z</time>
      </trkpt>
      <trkpt lat="42.95728" lon="0.8436">
        <ele>1490</ele>
        <time>2018-04-02T09:03:39.000Z</time>
      </trkpt>
      <trkpt lat="42.95727" lon="0.84359">
        <ele>1490</ele>
        <time>2018-04-02T09:03:41.000Z</time>
      </trkpt>
      <trkpt lat="42.95727" lon="0.84358">
        <ele>1490</ele>
        <time>2018-04-02T09:03:43.000Z</time>
      </trkpt>
      <trkpt lat="42.95727" lon="0.84358">
        <ele>1490</ele>
        <time>2018-04-02T09:03:45.000Z</time>
      </trkpt>
      <trkpt lat="42.95726" lon="0.84356">
        <ele>1491</ele>
        <time>2018-04-02T09:03:47.000Z</time>
      </trkpt>
      <trkpt lat="42.95726" lon="0.84355">
        <ele>1491</ele>
        <time>2018-04-02T09:03:49.000Z</time>
      </trkpt>
      <trkpt lat="42.95726" lon="0.84355">
        <ele>1491</ele>
        <time>2018-04-02T09:03:51.000Z</time>
      </trkpt>
      <trkpt lat="42.95726" lon="0.84354">
        <ele>1491</ele>
        <time>2018-04-02T09:03:53.000Z</time>
      </trkpt>
      <trkpt lat="42.95726" lon="0.84353">
        <ele>1491</ele>
        <time>2018-04-02T09:03:55.000Z</time>
      </trkpt>
      <trkpt lat="42.95726" lon="0.84352">
        <ele>1492</ele>
        <time>2018-04-02T09:03:57.000Z</time>
      </trkpt>
      <trkpt lat="42.95726" lon="0.84351">
        <ele>1492</ele>
        <time>2018-04-02T09:03:59.000Z</time>
      </trkpt>
      <trkpt lat="42.95726" lon="0.8435">
        <ele>1492</ele>
        <time>2018-04-02T09:04:01.000Z</time>
      </trkpt>
      <trkpt lat="42.95726" lon="0.84348">
        <ele>1492</ele>
        <time>2018-04-02T09:04:03.000Z</time>
      </trkpt>
      <trkpt lat="42.95726" lon="0.84347">
        <ele>1493</ele>
        <time>2018-04-02T09:04:05.000Z</time>
      </trkpt>
      <trkpt lat="42.95726" lon="0.84346">
        <ele>1493</ele>
        <time>2018-04-02T09:04:07.000Z</time>
      </trkpt>
      <trkpt lat="42.95726" lon="0.84345">
        <ele>1493</ele>
        <time>2018-04-02T09:04:09.000Z</time>
      </trkpt>
      <trkpt lat="42.95726" lon="0.84344">
        <ele>1493</ele>
        <time>2018-04-02T09:04:11.000Z</time>
      </trkpt>
      <trkpt lat="42.95726" lon="0.84343">
        <ele>1494</ele>
        <time>2018-04-02T09:04:13.000Z</time>
      </trkpt>
      <trkpt lat="42.95726" lon="0.84342">
        <ele>1494</ele>
        <time>2018-04-02T09:04:15.000Z</time>
      </trkpt>
      <trkpt lat="42.95726" lon="0.84341">
        <ele>1494</ele>
        <time>2018-04-02T09:04:17.000Z</time>
      </trkpt>
      <trkpt lat="42.95726" lon="0.8434">
        <ele>1494</ele>
        <time>2018-04-02T09:04:19.000Z</time>
      </trkpt>
      <trkpt lat="42.95726" lon="0.84339">
        <ele>1494</ele>
        <time>2018-04-02T09:04:21.000Z</time>
      </trkpt>
      <trkpt lat="42.95727" lon="0.84338">
        <ele>1494</ele>
        <time>2018-04-02T09:04:23.000Z</time>
      </trkpt>
      <trkpt lat="42.95727" lon="0.84336">
        <ele>1495</ele>
        <time>2018-04-02T09:04:25.000Z</time>
      </trkpt>
      <trkpt lat="42.95727" lon="0.84335">
        <ele>1495</ele>
        <time>2018-04-02T09:04:27.000Z</time>
      </trkpt>
      <trkpt lat="42.95727" lon="0.84334">
        <ele>1495</ele>
        <time>2018-04-02T09:04:29.000Z</time>
      </trkpt>
      <trkpt lat="42.95727" lon="0.84333">
        <ele>1495</ele>
        <time>2018-04-02T09:04:31.000Z</time>
      </trkpt>
      <trkpt lat="42.95727" lon="0.84331">
        <ele>1496</ele>
        <time>2018-04-02T09:04:33.000Z</time>
      </trkpt>
      <trkpt lat="42.95726" lon="0.8433">
        <ele>1496</ele>
        <time>2018-04-02T09:04:35.000Z</time>
      </trkpt>
      <trkpt lat="42.95726" lon="0.84329">
        <ele>1497</ele>
        <time>2018-04-02T09:04:37.000Z</time>
      </trkpt>
      <trkpt lat="42.95726" lon="0.84327">
        <ele>1497</ele>
        <time>2018-04-02T09:04:39.000Z</time>
      </trkpt>
      <trkpt lat="42.95726" lon="0.84326">
        <ele>1497</ele>
        <time>2018-04-02T09:04:41.000Z</time>
      </trkpt>
      <trkpt lat="42.95726" lon="0.84325">
        <ele>1497</ele>
        <time>2018-04-02T09:04:43.000Z</time>
      </trkpt>
      <trkpt lat="42.95726" lon="0.84324">
        <ele>1498</ele>
        <time>2018-04-02T09:04:45.000Z</time>
      </trkpt>
      <trkpt lat="42.95726" lon="0.84323">
        <ele>1498</ele>
        <time>2018-04-02T09:04:47.000Z</time>
      </trkpt>
      <trkpt lat="42.95726" lon="0.84322">
        <ele>1498</ele>
        <time>2018-04-02T09:04:49.000Z</time>
      </trkpt>
      <trkpt lat="42.95726" lon="0.84321">
        <ele>1498</ele>
        <time>2018-04-02T09:04:51.000Z</time>
      </trkpt>
      <trkpt lat="42.95725" lon="0.8432">
        <ele>1499</ele>
        <time>2018-04-02T09:04:53.000Z</time>
      </trkpt>
      <trkpt lat="42.95726" lon="0.84318">
        <ele>1499</ele>
        <time>2018-04-02T09:04:55.000Z</time>
      </trkpt>
      <trkpt lat="42.95726" lon="0.84317">
        <ele>1499</ele>
        <time>2018-04-02T09:04:57.000Z</time>
      </trkpt>
      <trkpt lat="42.95726" lon="0.84316">
        <ele>1499</ele>
        <time>2018-04-02T09:04:59.000Z</time>
      </trkpt>
      <trkpt lat="42.95726" lon="0.84315">
        <ele>1500</ele>
        <time>2018-04-02T09:05:01.000Z</time>
      </trkpt>
      <trkpt lat="42.95726" lon="0.84314">
        <ele>1500</ele>
        <time>2018-04-02T09:05:03.000Z</time>
      </trkpt>
      <trkpt lat="42.95727" lon="0.84313">
        <ele>1500</ele>
        <time>2018-04-02T09:05:05.000Z</time>
      </trkpt>
      <trkpt lat="42.95726" lon="0.84312">
        <ele>1500</ele>
        <time>2018-04-02T09:05:07.000Z</time>
      </trkpt>
      <trkpt lat="42.95727" lon="0.84311">
        <ele>1500</ele>
        <time>2018-04-02T09:05:09.000Z</time>
      </trkpt>
      <trkpt lat="42.95726" lon="0.8431">
        <ele>1501</ele>
        <time>2018-04-02T09:05:11.000Z</time>
      </trkpt>
      <trkpt lat="42.95726" lon="0.84309">
        <ele>1501</ele>
        <time>2018-04-02T09:05:13.000Z</time>
      </trkpt>
      <trkpt lat="42.95726" lon="0.84308">
        <ele>1501</ele>
        <time>2018-04-02T09:05:15.000Z</time>
      </trkpt>
      <trkpt lat="42.95726" lon="0.84307">
        <ele>1501</ele>
        <time>2018-04-02T09:05:17.000Z</time>
      </trkpt>
      <trkpt lat="42.95725" lon="0.84306">
        <ele>1502</ele>
        <time>2018-04-02T09:05:19.000Z</time>
      </trkpt>
      <trkpt lat="42.95725" lon="0.84304">
        <ele>1502</ele>
        <time>2018-04-02T09:05:21.000Z</time>
      </trkpt>
      <trkpt lat="42.95725" lon="0.84304">
        <ele>1502</ele>
        <time>2018-04-02T09:05:23.000Z</time>
      </trkpt>
      <trkpt lat="42.95724" lon="0.84303">
        <ele>1502</ele>
        <time>2018-04-02T09:05:25.000Z</time>
      </trkpt>
      <trkpt lat="42.95724" lon="0.84302">
        <ele>1502</ele>
        <time>2018-04-02T09:05:27.000Z</time>
      </trkpt>
      <trkpt lat="42.95723" lon="0.84301">
        <ele>1502</ele>
        <time>2018-04-02T09:05:29.000Z</time>
      </trkpt>
      <trkpt lat="42.95723" lon="0.84299">
        <ele>1502</ele>
        <time>2018-04-02T09:05:31.000Z</time>
      </trkpt>
      <trkpt lat="42.95722" lon="0.84298">
        <ele>1502</ele>
        <time>2018-04-02T09:05:33.000Z</time>
      </trkpt>
      <trkpt lat="42.95722" lon="0.84297">
        <ele>1502</ele>
        <time>2018-04-02T09:05:35.000Z</time>
      </trkpt>
      <trkpt lat="42.95722" lon="0.84295">
        <ele>1502</ele>
        <time>2018-04-02T09:05:37.000Z</time>
      </trkpt>
      <trkpt lat="42.95721" lon="0.84294">
        <ele>1502</ele>
        <time>2018-04-02T09:05:39.000Z</time>
      </trkpt>
      <trkpt lat="42.95721" lon="0.84293">
        <ele>1502</ele>
        <time>2018-04-02T09:05:41.000Z</time>
      </trkpt>
      <trkpt lat="42.95721" lon="0.84291">
        <ele>1502</ele>
        <time>2018-04-02T09:05:43.000Z</time>
      </trkpt>
      <trkpt lat="42.95721" lon="0.8429">
        <ele>1502</ele>
        <time>2018-04-02T09:05:45.000Z</time>
      </trkpt>
      <trkpt lat="42.95721" lon="0.84289">
        <ele>1502</ele>
        <time>2018-04-02T09:05:47.000Z</time>
      </trkpt>
      <trkpt lat="42.95721" lon="0.84287">
        <ele>1502</ele>
        <time>2018-04-02T09:05:49.000Z</time>
      </trkpt>
      <trkpt lat="42.95721" lon="0.84286">
        <ele>1502</ele>
        <time>2018-04-02T09:05:51.000Z</time>
      </trkpt>
      <trkpt lat="42.95721" lon="0.84284">
        <ele>1502</ele>
        <time>2018-04-02T09:05:53.000Z</time>
      </trkpt>
      <trkpt lat="42.95721" lon="0.84283">
        <ele>1502</ele>
        <time>2018-04-02T09:05:55.000Z</time>
      </trkpt>
      <trkpt lat="42.95721" lon="0.84281">
        <ele>1501</ele>
        <time>2018-04-02T09:05:57.000Z</time>
      </trkpt>
      <trkpt lat="42.9572" lon="0.8428">
        <ele>1501</ele>
        <time>2018-04-02T09:05:59.000Z</time>
      </trkpt>
      <trkpt lat="42.9572" lon="0.84279">
        <ele>1501</ele>
        <time>2018-04-02T09:06:01.000Z</time>
      </trkpt>
      <trkpt lat="42.9572" lon="0.84277">
        <ele>1501</ele>
        <time>2018-04-02T09:06:03.000Z</time>
      </trkpt>
      <trkpt lat="42.9572" lon="0.84275">
        <ele>1501</ele>
        <time>2018-04-02T09:06:05.000Z</time>
      </trkpt>
      <trkpt lat="42.9572" lon="0.84273">
        <ele>1501</ele>
        <time>2018-04-02T09:06:07.000Z</time>
      </trkpt>
      <trkpt lat="42.9572" lon="0.84272">
        <ele>1501</ele>
        <time>2018-04-02T09:06:09.000Z</time>
      </trkpt>
      <trkpt lat="42.9572" lon="0.84271">
        <ele>1501</ele>
        <time>2018-04-02T09:06:11.000Z</time>
      </trkpt>
      <trkpt lat="42.9572" lon="0.8427">
        <ele>1501</ele>
        <time>2018-04-02T09:06:13.000Z</time>
      </trkpt>
      <trkpt lat="42.95719" lon="0.84269">
        <ele>1501</ele>
        <time>2018-04-02T09:06:15.000Z</time>
      </trkpt>
      <trkpt lat="42.95719" lon="0.84269">
        <ele>1501</ele>
        <time>2018-04-02T09:06:17.000Z</time>
      </trkpt>
      <trkpt lat="42.95719" lon="0.84269">
        <ele>1501</ele>
        <time>2018-04-02T09:06:19.000Z</time>
      </trkpt>
      <trkpt lat="42.95719" lon="0.84269">
        <ele>1501</ele>
        <time>2018-04-02T09:06:21.000Z</time>
      </trkpt>
      <trkpt lat="42.95719" lon="0.8427">
        <ele>1501</ele>
        <time>2018-04-02T09:06:23.000Z</time>
      </trkpt>
      <trkpt lat="42.95719" lon="0.8427">
        <ele>1501</ele>
        <time>2018-04-02T09:06:25.000Z</time>
      </trkpt>
      <trkpt lat="42.95719" lon="0.8427">
        <ele>1501</ele>
        <time>2018-04-02T09:06:27.000Z</time>
      </trkpt>
      <trkpt lat="42.95719" lon="0.8427">
        <ele>1501</ele>
        <time>2018-04-02T09:06:29.000Z</time>
      </trkpt>
      <trkpt lat="42.95718" lon="0.84271">
        <ele>1501</ele>
        <time>2018-04-02T09:06:31.000Z</time>
      </trkpt>
      <trkpt lat="42.95718" lon="0.84271">
        <ele>1501</ele>
        <time>2018-04-02T09:06:33.000Z</time>
      </trkpt>
      <trkpt lat="42.95718" lon="0.84272">
        <ele>1501</ele>
        <time>2018-04-02T09:06:35.000Z</time>
      </trkpt>
      <trkpt lat="42.95718" lon="0.84272">
        <ele>1501</ele>
        <time>2018-04-02T09:06:37.000Z</time>
      </trkpt>
      <trkpt lat="42.95718" lon="0.84272">
        <ele>1501</ele>
        <time>2018-04-02T09:06:39.000Z</time>
      </trkpt>
      <trkpt lat="42.95719" lon="0.84272">
        <ele>1501</ele>
        <time>2018-04-02T09:06:41.000Z</time>
      </trkpt>
      <trkpt lat="42.95719" lon="0.84272">
        <ele>1501</ele>
        <time>2018-04-02T09:06:43.000Z</time>
      </trkpt>
      <trkpt lat="42.95719" lon="0.84272">
        <ele>1501</ele>
        <time>2018-04-02T09:06:45.000Z</time>
      </trkpt>
      <trkpt lat="42.95719" lon="0.84272">
        <ele>1501</ele>
        <time>2018-04-02T09:06:47.000Z</time>
      </trkpt>
      <trkpt lat="42.95719" lon="0.84272">
        <ele>1501</ele>
        <time>2018-04-02T09:06:49.000Z</time>
      </trkpt>
      <trkpt lat="42.95719" lon="0.84272">
        <ele>1501</ele>
        <time>2018-04-02T09:06:51.000Z</time>
      </trkpt>
      <trkpt lat="42.95719" lon="0.84272">
        <ele>1501</ele>
        <time>2018-04-02T09:06:53.000Z</time>
      </trkpt>
      <trkpt lat="42.95719" lon="0.84272">
        <ele>1501</ele>
        <time>2018-04-02T09:06:55.000Z</time>
      </trkpt>
      <trkpt lat="42.95719" lon="0.84272">
        <ele>1501</ele>
        <time>2018-04-02T09:06:57.000Z</time>
      </trkpt>
      <trkpt lat="42.95719" lon="0.84272">
        <ele>1501</ele>
        <time>2018-04-02T09:06:59.000Z</time>
      </trkpt>
      <trkpt lat="42.9572" lon="0.84271">
        <ele>1501</ele>
        <time>2018-04-02T09:07:01.000Z</time>
      </trkpt>
      <trkpt lat="42.9572" lon="0.8427">
        <ele>1501</ele>
        <time>2018-04-02T09:07:03.000Z</time>
      </trkpt>
      <trkpt lat="42.9572" lon="0.84269">
        <ele>1501</ele>
        <time>2018-04-02T09:07:05.000Z</time>
      </trkpt>
      <trkpt lat="42.9572" lon="0.84268">
        <ele>1501</ele>
        <time>2018-04-02T09:07:07.000Z</time>
      </trkpt>
      <trkpt lat="42.95719" lon="0.84266">
        <ele>1501</ele>
        <time>2018-04-02T09:07:09.000Z</time>
      </trkpt>
      <trkpt lat="42.95718" lon="0.84265">
        <ele>1502</ele>
        <time>2018-04-02T09:07:11.000Z</time>
      </trkpt>
      <trkpt lat="42.95718" lon="0.84263">
        <ele>1502</ele>
        <time>2018-04-02T09:07:13.000Z</time>
      </trkpt>
      <trkpt lat="42.95718" lon="0.84261">
        <ele>1503</ele>
        <time>2018-04-02T09:07:15.000Z</time>
      </trkpt>
      <trkpt lat="42.95718" lon="0.84259">
        <ele>1503</ele>
        <time>2018-04-02T09:07:17.000Z</time>
      </trkpt>
      <trkpt lat="42.95718" lon="0.84257">
        <ele>1504</ele>
        <time>2018-04-02T09:07:19.000Z</time>
      </trkpt>
      <trkpt lat="42.95719" lon="0.84257">
        <ele>1504</ele>
        <time>2018-04-02T09:07:21.000Z</time>
      </trkpt>
      <trkpt lat="42.9572" lon="0.84257">
        <ele>1504</ele>
        <time>2018-04-02T09:07:23.000Z</time>
      </trkpt>
      <trkpt lat="42.95721" lon="0.84257">
        <ele>1504</ele>
        <time>2018-04-02T09:07:25.000Z</time>
      </trkpt>
      <trkpt lat="42.95722" lon="0.84257">
        <ele>1504</ele>
        <time>2018-04-02T09:07:27.000Z</time>
      </trkpt>
      <trkpt lat="42.95723" lon="0.84256">
        <ele>1505</ele>
        <time>2018-04-02T09:07:29.000Z</time>
      </trkpt>
      <trkpt lat="42.95724" lon="0.84256">
        <ele>1505</ele>
        <time>2018-04-02T09:07:31.000Z</time>
      </trkpt>
      <trkpt lat="42.95725" lon="0.84256">
        <ele>1505</ele>
        <time>2018-04-02T09:07:33.000Z</time>
      </trkpt>
      <trkpt lat="42.95726" lon="0.84255">
        <ele>1505</ele>
        <time>2018-04-02T09:07:35.000Z</time>
      </trkpt>
      <trkpt lat="42.95726" lon="0.84254">
        <ele>1506</ele>
        <time>2018-04-02T09:07:37.000Z</time>
      </trkpt>
      <trkpt lat="42.95727" lon="0.84254">
        <ele>1506</ele>
        <time>2018-04-02T09:07:39.000Z</time>
      </trkpt>
      <trkpt lat="42.95727" lon="0.84252">
        <ele>1506</ele>
        <time>2018-04-02T09:07:41.000Z</time>
      </trkpt>
      <trkpt lat="42.95728" lon="0.84252">
        <ele>1507</ele>
        <time>2018-04-02T09:07:43.000Z</time>
      </trkpt>
      <trkpt lat="42.95729" lon="0.84251">
        <ele>1507</ele>
        <time>2018-04-02T09:07:45.000Z</time>
      </trkpt>
      <trkpt lat="42.95729" lon="0.8425">
        <ele>1507</ele>
        <time>2018-04-02T09:07:47.000Z</time>
      </trkpt>
      <trkpt lat="42.9573" lon="0.8425">
        <ele>1507</ele>
        <time>2018-04-02T09:07:49.000Z</time>
      </trkpt>
      <trkpt lat="42.95731" lon="0.8425">
        <ele>1508</ele>
        <time>2018-04-02T09:07:51.000Z</time>
      </trkpt>
      <trkpt lat="42.95731" lon="0.84249">
        <ele>1508</ele>
        <time>2018-04-02T09:07:53.000Z</time>
      </trkpt>
      <trkpt lat="42.95732" lon="0.84249">
        <ele>1508</ele>
        <time>2018-04-02T09:07:55.000Z</time>
      </trkpt>
      <trkpt lat="42.95733" lon="0.84248">
        <ele>1508</ele>
        <time>2018-04-02T09:07:57.000Z</time>
      </trkpt>
      <trkpt lat="42.95734" lon="0.84248">
        <ele>1508</ele>
        <time>2018-04-02T09:07:59.000Z</time>
      </trkpt>
      <trkpt lat="42.95735" lon="0.84248">
        <ele>1509</ele>
        <time>2018-04-02T09:08:01.000Z</time>
      </trkpt>
      <trkpt lat="42.95736" lon="0.84247">
        <ele>1509</ele>
        <time>2018-04-02T09:08:03.000Z</time>
      </trkpt>
      <trkpt lat="42.95737" lon="0.84247">
        <ele>1509</ele>
        <time>2018-04-02T09:08:05.000Z</time>
      </trkpt>
      <trkpt lat="42.95737" lon="0.84247">
        <ele>1509</ele>
        <time>2018-04-02T09:08:07.000Z</time>
      </trkpt>
      <trkpt lat="42.95738" lon="0.84247">
        <ele>1509</ele>
        <time>2018-04-02T09:08:09.000Z</time>
      </trkpt>
      <trkpt lat="42.95739" lon="0.84246">
        <ele>1510</ele>
        <time>2018-04-02T09:08:11.000Z</time>
      </trkpt>
      <trkpt lat="42.95739" lon="0.84246">
        <ele>1510</ele>
        <time>2018-04-02T09:08:13.000Z</time>
      </trkpt>
      <trkpt lat="42.9574" lon="0.84246">
        <ele>1510</ele>
        <time>2018-04-02T09:08:15.000Z</time>
      </trkpt>
      <trkpt lat="42.9574" lon="0.84246">
        <ele>1510</ele>
        <time>2018-04-02T09:08:17.000Z</time>
      </trkpt>
      <trkpt lat="42.9574" lon="0.84246">
        <ele>1510</ele>
        <time>2018-04-02T09:08:19.000Z</time>
      </trkpt>
      <trkpt lat="42.9574" lon="0.84246">
        <ele>1510</ele>
        <time>2018-04-02T09:08:21.000Z</time>
      </trkpt>
      <trkpt lat="42.9574" lon="0.84245">
        <ele>1510</ele>
        <time>2018-04-02T09:08:23.000Z</time>
      </trkpt>
      <trkpt lat="42.95741" lon="0.84244">
        <ele>1510</ele>
        <time>2018-04-02T09:08:25.000Z</time>
      </trkpt>
      <trkpt lat="42.95742" lon="0.84244">
        <ele>1511</ele>
        <time>2018-04-02T09:08:27.000Z</time>
      </trkpt>
      <trkpt lat="42.95742" lon="0.84244">
        <ele>1511</ele>
        <time>2018-04-02T09:08:29.000Z</time>
      </trkpt>
      <trkpt lat="42.95743" lon="0.84243">
        <ele>1511</ele>
        <time>2018-04-02T09:08:31.000Z</time>
      </trkpt>
      <trkpt lat="42.95743" lon="0.84243">
        <ele>1511</ele>
        <time>2018-04-02T09:08:33.000Z</time>
      </trkpt>
      <trkpt lat="42.95743" lon="0.84242">
        <ele>1511</ele>
        <time>2018-04-02T09:08:35.000Z</time>
      </trkpt>
      <trkpt lat="42.95743" lon="0.84242">
        <ele>1511</ele>
        <time>2018-04-02T09:08:37.000Z</time>
      </trkpt>
      <trkpt lat="42.95743" lon="0.84241">
        <ele>1512</ele>
        <time>2018-04-02T09:08:39.000Z</time>
      </trkpt>
      <trkpt lat="42.95743" lon="0.8424">
        <ele>1512</ele>
        <time>2018-04-02T09:08:41.000Z</time>
      </trkpt>
      <trkpt lat="42.95743" lon="0.8424">
        <ele>1512</ele>
        <time>2018-04-02T09:08:43.000Z</time>
      </trkpt>
      <trkpt lat="42.95743" lon="0.84239">
        <ele>1512</ele>
        <time>2018-04-02T09:08:45.000Z</time>
      </trkpt>
      <trkpt lat="42.95742" lon="0.84238">
        <ele>1512</ele>
        <time>2018-04-02T09:08:47.000Z</time>
      </trkpt>
      <trkpt lat="42.95741" lon="0.84237">
        <ele>1513</ele>
        <time>2018-04-02T09:08:49.000Z</time>
      </trkpt>
      <trkpt lat="42.95741" lon="0.84236">
        <ele>1513</ele>
        <time>2018-04-02T09:08:51.000Z</time>
      </trkpt>
      <trkpt lat="42.95741" lon="0.84235">
        <ele>1513</ele>
        <time>2018-04-02T09:08:53.000Z</time>
      </trkpt>
      <trkpt lat="42.9574" lon="0.84235">
        <ele>1513</ele>
        <time>2018-04-02T09:08:55.000Z</time>
      </trkpt>
      <trkpt lat="42.95739" lon="0.84235">
        <ele>1513</ele>
        <time>2018-04-02T09:08:57.000Z</time>
      </trkpt>
      <trkpt lat="42.9574" lon="0.84235">
        <ele>1513</ele>
        <time>2018-04-02T09:08:59.000Z</time>
      </trkpt>
      <trkpt lat="42.9574" lon="0.84235">
        <ele>1513</ele>
        <time>2018-04-02T09:09:01.000Z</time>
      </trkpt>
      <trkpt lat="42.9574" lon="0.84235">
        <ele>1513</ele>
        <time>2018-04-02T09:09:03.000Z</time>
      </trkpt>
      <trkpt lat="42.9574" lon="0.84235">
        <ele>1513</ele>
        <time>2018-04-02T09:09:05.000Z</time>
      </trkpt>
      <trkpt lat="42.95741" lon="0.84235">
        <ele>1513</ele>
        <time>2018-04-02T09:09:07.000Z</time>
      </trkpt>
      <trkpt lat="42.95741" lon="0.84235">
        <ele>1513</ele>
        <time>2018-04-02T09:09:09.000Z</time>
      </trkpt>
      <trkpt lat="42.95741" lon="0.84234">
        <ele>1513</ele>
        <time>2018-04-02T09:09:11.000Z</time>
      </trkpt>
      <trkpt lat="42.9574" lon="0.84234">
        <ele>1514</ele>
        <time>2018-04-02T09:09:13.000Z</time>
      </trkpt>
      <trkpt lat="42.9574" lon="0.84232">
        <ele>1514</ele>
        <time>2018-04-02T09:09:15.000Z</time>
      </trkpt>
      <trkpt lat="42.9574" lon="0.84232">
        <ele>1514</ele>
        <time>2018-04-02T09:09:17.000Z</time>
      </trkpt>
      <trkpt lat="42.9574" lon="0.84231">
        <ele>1514</ele>
        <time>2018-04-02T09:09:19.000Z</time>
      </trkpt>
      <trkpt lat="42.95741" lon="0.8423">
        <ele>1515</ele>
        <time>2018-04-02T09:09:21.000Z</time>
      </trkpt>
      <trkpt lat="42.95742" lon="0.8423">
        <ele>1515</ele>
        <time>2018-04-02T09:09:23.000Z</time>
      </trkpt>
      <trkpt lat="42.95743" lon="0.8423">
        <ele>1515</ele>
        <time>2018-04-02T09:09:25.000Z</time>
      </trkpt>
      <trkpt lat="42.95744" lon="0.8423">
        <ele>1515</ele>
        <time>2018-04-02T09:09:27.000Z</time>
      </trkpt>
      <trkpt lat="42.95744" lon="0.8423">
        <ele>1515</ele>
        <time>2018-04-02T09:09:29.000Z</time>
      </trkpt>
      <trkpt lat="42.95745" lon="0.8423">
        <ele>1515</ele>
        <time>2018-04-02T09:09:31.000Z</time>
      </trkpt>
      <trkpt lat="42.95746" lon="0.8423">
        <ele>1515</ele>
        <time>2018-04-02T09:09:33.000Z</time>
      </trkpt>
      <trkpt lat="42.95747" lon="0.8423">
        <ele>1516</ele>
        <time>2018-04-02T09:09:35.000Z</time>
      </trkpt>
      <trkpt lat="42.95748" lon="0.8423">
        <ele>1516</ele>
        <time>2018-04-02T09:09:37.000Z</time>
      </trkpt>
      <trkpt lat="42.95749" lon="0.8423">
        <ele>1516</ele>
        <time>2018-04-02T09:09:39.000Z</time>
      </trkpt>
      <trkpt lat="42.9575" lon="0.8423">
        <ele>1516</ele>
        <time>2018-04-02T09:09:41.000Z</time>
      </trkpt>
      <trkpt lat="42.95751" lon="0.8423">
        <ele>1516</ele>
        <time>2018-04-02T09:09:43.000Z</time>
      </trkpt>
      <trkpt lat="42.95752" lon="0.8423">
        <ele>1516</ele>
        <time>2018-04-02T09:09:45.000Z</time>
      </trkpt>
      <trkpt lat="42.95752" lon="0.8423">
        <ele>1516</ele>
        <time>2018-04-02T09:09:47.000Z</time>
      </trkpt>
      <trkpt lat="42.95753" lon="0.8423">
        <ele>1516</ele>
        <time>2018-04-02T09:09:49.000Z</time>
      </trkpt>
      <trkpt lat="42.95754" lon="0.8423">
        <ele>1516</ele>
        <time>2018-04-02T09:09:51.000Z</time>
      </trkpt>
      <trkpt lat="42.95754" lon="0.8423">
        <ele>1516</ele>
        <time>2018-04-02T09:09:53.000Z</time>
      </trkpt>
      <trkpt lat="42.95755" lon="0.8423">
        <ele>1516</ele>
        <time>2018-04-02T09:09:55.000Z</time>
      </trkpt>
      <trkpt lat="42.95755" lon="0.84229">
        <ele>1517</ele>
        <time>2018-04-02T09:09:57.000Z</time>
      </trkpt>
      <trkpt lat="42.95755" lon="0.84228">
        <ele>1517</ele>
        <time>2018-04-02T09:09:59.000Z</time>
      </trkpt>
      <trkpt lat="42.95755" lon="0.84227">
        <ele>1517</ele>
        <time>2018-04-02T09:10:01.000Z</time>
      </trkpt>
      <trkpt lat="42.95755" lon="0.84226">
        <ele>1518</ele>
        <time>2018-04-02T09:10:03.000Z</time>
      </trkpt>
      <trkpt lat="42.95755" lon="0.84226">
        <ele>1518</ele>
        <time>2018-04-02T09:10:05.000Z</time>
      </trkpt>
      <trkpt lat="42.95755" lon="0.84226">
        <ele>1518</ele>
        <time>2018-04-02T09:10:07.000Z</time>
      </trkpt>
      <trkpt lat="42.95755" lon="0.84226">
        <ele>1518</ele>
        <time>2018-04-02T09:10:09.000Z</time>
      </trkpt>
      <trkpt lat="42.95755" lon="0.84225">
        <ele>1518</ele>
        <time>2018-04-02T09:10:11.000Z</time>
      </trkpt>
      <trkpt lat="42.95755" lon="0.84225">
        <ele>1518</ele>
        <time>2018-04-02T09:10:13.000Z</time>
      </trkpt>
      <trkpt lat="42.95755" lon="0.84225">
        <ele>1518</ele>
        <time>2018-04-02T09:10:15.000Z</time>
      </trkpt>
      <trkpt lat="42.95755" lon="0.84225">
        <ele>1518</ele>
        <time>2018-04-02T09:10:17.000Z</time>
      </trkpt>
      <trkpt lat="42.95755" lon="0.84225">
        <ele>1518</ele>
        <time>2018-04-02T09:10:19.000Z</time>
      </trkpt>
      <trkpt lat="42.95755" lon="0.84225">
        <ele>1518</ele>
        <time>2018-04-02T09:10:21.000Z</time>
      </trkpt>
      <trkpt lat="42.95755" lon="0.84225">
        <ele>1518</ele>
        <time>2018-04-02T09:10:23.000Z</time>
      </trkpt>
      <trkpt lat="42.95755" lon="0.84224">
        <ele>1518</ele>
        <time>2018-04-02T09:10:25.000Z</time>
      </trkpt>
      <trkpt lat="42.95755" lon="0.84223">
        <ele>1518</ele>
        <time>2018-04-02T09:10:27.000Z</time>
      </trkpt>
      <trkpt lat="42.95755" lon="0.84222">
        <ele>1519</ele>
        <time>2018-04-02T09:10:29.000Z</time>
      </trkpt>
      <trkpt lat="42.95755" lon="0.84221">
        <ele>1518</ele>
        <time>2018-04-02T09:10:31.000Z</time>
      </trkpt>
      <trkpt lat="42.95755" lon="0.8422">
        <ele>1518</ele>
        <time>2018-04-02T09:10:33.000Z</time>
      </trkpt>
      <trkpt lat="42.95755" lon="0.84218">
        <ele>1518</ele>
        <time>2018-04-02T09:10:35.000Z</time>
      </trkpt>
      <trkpt lat="42.95755" lon="0.84217">
        <ele>1518</ele>
        <time>2018-04-02T09:10:37.000Z</time>
      </trkpt>
      <trkpt lat="42.95755" lon="0.84216">
        <ele>1519</ele>
        <time>2018-04-02T09:10:39.000Z</time>
      </trkpt>
      <trkpt lat="42.95755" lon="0.84215">
        <ele>1519</ele>
        <time>2018-04-02T09:10:41.000Z</time>
      </trkpt>
      <trkpt lat="42.95755" lon="0.84214">
        <ele>1519</ele>
        <time>2018-04-02T09:10:43.000Z</time>
      </trkpt>
      <trkpt lat="42.95755" lon="0.84212">
        <ele>1519</ele>
        <time>2018-04-02T09:10:45.000Z</time>
      </trkpt>
      <trkpt lat="42.95755" lon="0.84211">
        <ele>1519</ele>
        <time>2018-04-02T09:10:47.000Z</time>
      </trkpt>
      <trkpt lat="42.95755" lon="0.84211">
        <ele>1519</ele>
        <time>2018-04-02T09:10:49.000Z</time>
      </trkpt>
      <trkpt lat="42.95755" lon="0.8421">
        <ele>1519</ele>
        <time>2018-04-02T09:10:51.000Z</time>
      </trkpt>
      <trkpt lat="42.95755" lon="0.84209">
        <ele>1519</ele>
        <time>2018-04-02T09:10:53.000Z</time>
      </trkpt>
      <trkpt lat="42.95756" lon="0.84209">
        <ele>1519</ele>
        <time>2018-04-02T09:10:55.000Z</time>
      </trkpt>
      <trkpt lat="42.95756" lon="0.84208">
        <ele>1519</ele>
        <time>2018-04-02T09:10:57.000Z</time>
      </trkpt>
      <trkpt lat="42.95756" lon="0.84208">
        <ele>1519</ele>
        <time>2018-04-02T09:10:59.000Z</time>
      </trkpt>
      <trkpt lat="42.95756" lon="0.84207">
        <ele>1519</ele>
        <time>2018-04-02T09:11:01.000Z</time>
      </trkpt>
      <trkpt lat="42.95756" lon="0.84207">
        <ele>1519</ele>
        <time>2018-04-02T09:11:03.000Z</time>
      </trkpt>
      <trkpt lat="42.95757" lon="0.84206">
        <ele>1519</ele>
        <time>2018-04-02T09:11:05.000Z</time>
      </trkpt>
      <trkpt lat="42.95757" lon="0.84207">
        <ele>1519</ele>
        <time>2018-04-02T09:11:07.000Z</time>
      </trkpt>
      <trkpt lat="42.95758" lon="0.84207">
        <ele>1520</ele>
        <time>2018-04-02T09:11:09.000Z</time>
      </trkpt>
      <trkpt lat="42.95759" lon="0.84208">
        <ele>1520</ele>
        <time>2018-04-02T09:11:11.000Z</time>
      </trkpt>
      <trkpt lat="42.9576" lon="0.84208">
        <ele>1520</ele>
        <time>2018-04-02T09:11:13.000Z</time>
      </trkpt>
      <trkpt lat="42.95761" lon="0.84209">
        <ele>1520</ele>
        <time>2018-04-02T09:11:15.000Z</time>
      </trkpt>
      <trkpt lat="42.95762" lon="0.84209">
        <ele>1520</ele>
        <time>2018-04-02T09:11:17.000Z</time>
      </trkpt>
      <trkpt lat="42.95762" lon="0.84209">
        <ele>1520</ele>
        <time>2018-04-02T09:11:19.000Z</time>
      </trkpt>
      <trkpt lat="42.95762" lon="0.84209">
        <ele>1520</ele>
        <time>2018-04-02T09:11:21.000Z</time>
      </trkpt>
      <trkpt lat="42.95762" lon="0.84209">
        <ele>1520</ele>
        <time>2018-04-02T09:11:23.000Z</time>
      </trkpt>
      <trkpt lat="42.95762" lon="0.84209">
        <ele>1520</ele>
        <time>2018-04-02T09:11:25.000Z</time>
      </trkpt>
      <trkpt lat="42.95762" lon="0.84209">
        <ele>1520</ele>
        <time>2018-04-02T09:11:27.000Z</time>
      </trkpt>
      <trkpt lat="42.95762" lon="0.84208">
        <ele>1520</ele>
        <time>2018-04-02T09:11:29.000Z</time>
      </trkpt>
      <trkpt lat="42.95762" lon="0.84208">
        <ele>1520</ele>
        <time>2018-04-02T09:11:31.000Z</time>
      </trkpt>
      <trkpt lat="42.95763" lon="0.84208">
        <ele>1520</ele>
        <time>2018-04-02T09:11:33.000Z</time>
      </trkpt>
      <trkpt lat="42.95764" lon="0.84208">
        <ele>1520</ele>
        <time>2018-04-02T09:11:35.000Z</time>
      </trkpt>
      <trkpt lat="42.95764" lon="0.84208">
        <ele>1521</ele>
        <time>2018-04-02T09:11:37.000Z</time>
      </trkpt>
      <trkpt lat="42.95765" lon="0.84208">
        <ele>1521</ele>
        <time>2018-04-02T09:11:39.000Z</time>
      </trkpt>
      <trkpt lat="42.95766" lon="0.84207">
        <ele>1521</ele>
        <time>2018-04-02T09:11:41.000Z</time>
      </trkpt>
      <trkpt lat="42.95767" lon="0.84207">
        <ele>1521</ele>
        <time>2018-04-02T09:11:43.000Z</time>
      </trkpt>
      <trkpt lat="42.95768" lon="0.84207">
        <ele>1521</ele>
        <time>2018-04-02T09:11:45.000Z</time>
      </trkpt>
      <trkpt lat="42.95769" lon="0.84206">
        <ele>1521</ele>
        <time>2018-04-02T09:11:47.000Z</time>
      </trkpt>
      <trkpt lat="42.95769" lon="0.84206">
        <ele>1521</ele>
        <time>2018-04-02T09:11:49.000Z</time>
      </trkpt>
      <trkpt lat="42.9577" lon="0.84206">
        <ele>1522</ele>
        <time>2018-04-02T09:11:51.000Z</time>
      </trkpt>
      <trkpt lat="42.95771" lon="0.84206">
        <ele>1522</ele>
        <time>2018-04-02T09:11:53.000Z</time>
      </trkpt>
      <trkpt lat="42.95772" lon="0.84205">
        <ele>1522</ele>
        <time>2018-04-02T09:11:55.000Z</time>
      </trkpt>
      <trkpt lat="42.95772" lon="0.84205">
        <ele>1522</ele>
        <time>2018-04-02T09:11:57.000Z</time>
      </trkpt>
      <trkpt lat="42.95773" lon="0.84205">
        <ele>1522</ele>
        <time>2018-04-02T09:11:59.000Z</time>
      </trkpt>
      <trkpt lat="42.95774" lon="0.84204">
        <ele>1522</ele>
        <time>2018-04-02T09:12:01.000Z</time>
      </trkpt>
      <trkpt lat="42.95775" lon="0.84204">
        <ele>1522</ele>
        <time>2018-04-02T09:12:03.000Z</time>
      </trkpt>
      <trkpt lat="42.95775" lon="0.84204">
        <ele>1522</ele>
        <time>2018-04-02T09:12:05.000Z</time>
      </trkpt>
      <trkpt lat="42.95774" lon="0.84204">
        <ele>1522</ele>
        <time>2018-04-02T09:12:07.000Z</time>
      </trkpt>
      <trkpt lat="42.95774" lon="0.84204">
        <ele>1522</ele>
        <time>2018-04-02T09:12:09.000Z</time>
      </trkpt>
      <trkpt lat="42.95774" lon="0.84203">
        <ele>1522</ele>
        <time>2018-04-02T09:12:11.000Z</time>
      </trkpt>
      <trkpt lat="42.95775" lon="0.84203">
        <ele>1522</ele>
        <time>2018-04-02T09:12:13.000Z</time>
      </trkpt>
      <trkpt lat="42.95775" lon="0.84203">
        <ele>1522</ele>
        <time>2018-04-02T09:12:15.000Z</time>
      </trkpt>
      <trkpt lat="42.95775" lon="0.84202">
        <ele>1522</ele>
        <time>2018-04-02T09:12:17.000Z</time>
      </trkpt>
      <trkpt lat="42.95776" lon="0.84202">
        <ele>1523</ele>
        <time>2018-04-02T09:12:19.000Z</time>
      </trkpt>
      <trkpt lat="42.95776" lon="0.84201">
        <ele>1523</ele>
        <time>2018-04-02T09:12:21.000Z</time>
      </trkpt>
      <trkpt lat="42.95777" lon="0.842">
        <ele>1523</ele>
        <time>2018-04-02T09:12:23.000Z</time>
      </trkpt>
      <trkpt lat="42.95777" lon="0.84199">
        <ele>1523</ele>
        <time>2018-04-02T09:12:25.000Z</time>
      </trkpt>
      <trkpt lat="42.95778" lon="0.84199">
        <ele>1523</ele>
        <time>2018-04-02T09:12:27.000Z</time>
      </trkpt>
      <trkpt lat="42.95778" lon="0.84198">
        <ele>1523</ele>
        <time>2018-04-02T09:12:29.000Z</time>
      </trkpt>
      <trkpt lat="42.95778" lon="0.84199">
        <ele>1523</ele>
        <time>2018-04-02T09:12:31.000Z</time>
      </trkpt>
      <trkpt lat="42.95778" lon="0.84198">
        <ele>1523</ele>
        <time>2018-04-02T09:12:33.000Z</time>
      </trkpt>
      <trkpt lat="42.95778" lon="0.84199">
        <ele>1523</ele>
        <time>2018-04-02T09:12:35.000Z</time>
      </trkpt>
      <trkpt lat="42.95779" lon="0.84199">
        <ele>1523</ele>
        <time>2018-04-02T09:12:37.000Z</time>
      </trkpt>
      <trkpt lat="42.9578" lon="0.84199">
        <ele>1523</ele>
        <time>2018-04-02T09:12:39.000Z</time>
      </trkpt>
      <trkpt lat="42.95781" lon="0.84199">
        <ele>1523</ele>
        <time>2018-04-02T09:12:41.000Z</time>
      </trkpt>
      <trkpt lat="42.95782" lon="0.84199">
        <ele>1524</ele>
        <time>2018-04-02T09:12:43.000Z</time>
      </trkpt>
      <trkpt lat="42.95783" lon="0.84199">
        <ele>1524</ele>
        <time>2018-04-02T09:12:45.000Z</time>
      </trkpt>
      <trkpt lat="42.95784" lon="0.84199">
        <ele>1524</ele>
        <time>2018-04-02T09:12:47.000Z</time>
      </trkpt>
      <trkpt lat="42.95784" lon="0.84198">
        <ele>1524</ele>
        <time>2018-04-02T09:12:49.000Z</time>
      </trkpt>
      <trkpt lat="42.95784" lon="0.84196">
        <ele>1524</ele>
        <time>2018-04-02T09:12:51.000Z</time>
      </trkpt>
      <trkpt lat="42.95784" lon="0.84195">
        <ele>1524</ele>
        <time>2018-04-02T09:12:53.000Z</time>
      </trkpt>
      <trkpt lat="42.95784" lon="0.84193">
        <ele>1524</ele>
        <time>2018-04-02T09:12:55.000Z</time>
      </trkpt>
      <trkpt lat="42.95785" lon="0.84192">
        <ele>1524</ele>
        <time>2018-04-02T09:12:57.000Z</time>
      </trkpt>
      <trkpt lat="42.95785" lon="0.84191">
        <ele>1524</ele>
        <time>2018-04-02T09:12:59.000Z</time>
      </trkpt>
      <trkpt lat="42.95786" lon="0.8419">
        <ele>1524</ele>
        <time>2018-04-02T09:13:01.000Z</time>
      </trkpt>
      <trkpt lat="42.95786" lon="0.8419">
        <ele>1525</ele>
        <time>2018-04-02T09:13:03.000Z</time>
      </trkpt>
      <trkpt lat="42.95786" lon="0.84191">
        <ele>1525</ele>
        <time>2018-04-02T09:13:05.000Z</time>
      </trkpt>
      <trkpt lat="42.95786" lon="0.84191">
        <ele>1525</ele>
        <time>2018-04-02T09:13:07.000Z</time>
      </trkpt>
      <trkpt lat="42.95786" lon="0.84191">
        <ele>1525</ele>
        <time>2018-04-02T09:13:09.000Z</time>
      </trkpt>
      <trkpt lat="42.95786" lon="0.8419">
        <ele>1525</ele>
        <time>2018-04-02T09:13:11.000Z</time>
      </trkpt>
      <trkpt lat="42.95786" lon="0.84188">
        <ele>1525</ele>
        <time>2018-04-02T09:13:13.000Z</time>
      </trkpt>
      <trkpt lat="42.95787" lon="0.84187">
        <ele>1525</ele>
        <time>2018-04-02T09:13:15.000Z</time>
      </trkpt>
      <trkpt lat="42.95787" lon="0.84185">
        <ele>1525</ele>
        <time>2018-04-02T09:13:17.000Z</time>
      </trkpt>
      <trkpt lat="42.95787" lon="0.84184">
        <ele>1525</ele>
        <time>2018-04-02T09:13:19.000Z</time>
      </trkpt>
      <trkpt lat="42.95787" lon="0.84182">
        <ele>1525</ele>
        <time>2018-04-02T09:13:21.000Z</time>
      </trkpt>
      <trkpt lat="42.95788" lon="0.8418">
        <ele>1525</ele>
        <time>2018-04-02T09:13:23.000Z</time>
      </trkpt>
      <trkpt lat="42.95788" lon="0.84178">
        <ele>1525</ele>
        <time>2018-04-02T09:13:25.000Z</time>
      </trkpt>
      <trkpt lat="42.95788" lon="0.84177">
        <ele>1525</ele>
        <time>2018-04-02T09:13:27.000Z</time>
      </trkpt>
      <trkpt lat="42.95789" lon="0.84175">
        <ele>1526</ele>
        <time>2018-04-02T09:13:29.000Z</time>
      </trkpt>
      <trkpt lat="42.9579" lon="0.84175">
        <ele>1526</ele>
        <time>2018-04-02T09:13:31.000Z</time>
      </trkpt>
      <trkpt lat="42.9579" lon="0.84174">
        <ele>1526</ele>
        <time>2018-04-02T09:13:33.000Z</time>
      </trkpt>
      <trkpt lat="42.95791" lon="0.84173">
        <ele>1526</ele>
        <time>2018-04-02T09:13:35.000Z</time>
      </trkpt>
      <trkpt lat="42.95791" lon="0.84171">
        <ele>1526</ele>
        <time>2018-04-02T09:13:37.000Z</time>
      </trkpt>
      <trkpt lat="42.95792" lon="0.8417">
        <ele>1527</ele>
        <time>2018-04-02T09:13:39.000Z</time>
      </trkpt>
      <trkpt lat="42.95792" lon="0.84168">
        <ele>1527</ele>
        <time>2018-04-02T09:13:41.000Z</time>
      </trkpt>
      <trkpt lat="42.95792" lon="0.84166">
        <ele>1528</ele>
        <time>2018-04-02T09:13:43.000Z</time>
      </trkpt>
      <trkpt lat="42.95792" lon="0.84165">
        <ele>1528</ele>
        <time>2018-04-02T09:13:45.000Z</time>
      </trkpt>
      <trkpt lat="42.95792" lon="0.84164">
        <ele>1528</ele>
        <time>2018-04-02T09:13:47.000Z</time>
      </trkpt>
      <trkpt lat="42.95792" lon="0.84162">
        <ele>1529</ele>
        <time>2018-04-02T09:13:49.000Z</time>
      </trkpt>
      <trkpt lat="42.95792" lon="0.8416">
        <ele>1529</ele>
        <time>2018-04-02T09:13:51.000Z</time>
      </trkpt>
      <trkpt lat="42.95792" lon="0.84159">
        <ele>1529</ele>
        <time>2018-04-02T09:13:53.000Z</time>
      </trkpt>
      <trkpt lat="42.95792" lon="0.84159">
        <ele>1529</ele>
        <time>2018-04-02T09:13:55.000Z</time>
      </trkpt>
      <trkpt lat="42.95793" lon="0.84159">
        <ele>1529</ele>
        <time>2018-04-02T09:13:57.000Z</time>
      </trkpt>
      <trkpt lat="42.95793" lon="0.84159">
        <ele>1530</ele>
        <time>2018-04-02T09:13:59.000Z</time>
      </trkpt>
      <trkpt lat="42.95793" lon="0.84158">
        <ele>1530</ele>
        <time>2018-04-02T09:14:01.000Z</time>
      </trkpt>
      <trkpt lat="42.95793" lon="0.84158">
        <ele>1530</ele>
        <time>2018-04-02T09:14:03.000Z</time>
      </trkpt>
      <trkpt lat="42.95793" lon="0.84159">
        <ele>1530</ele>
        <time>2018-04-02T09:14:05.000Z</time>
      </trkpt>
      <trkpt lat="42.95793" lon="0.84158">
        <ele>1530</ele>
        <time>2018-04-02T09:14:07.000Z</time>
      </trkpt>
      <trkpt lat="42.95793" lon="0.84158">
        <ele>1530</ele>
        <time>2018-04-02T09:14:09.000Z</time>
      </trkpt>
      <trkpt lat="42.95793" lon="0.84158">
        <ele>1530</ele>
        <time>2018-04-02T09:14:11.000Z</time>
      </trkpt>
      <trkpt lat="42.95793" lon="0.84158">
        <ele>1530</ele>
        <time>2018-04-02T09:14:13.000Z</time>
      </trkpt>
      <trkpt lat="42.95793" lon="0.84159">
        <ele>1530</ele>
        <time>2018-04-02T09:14:15.000Z</time>
      </trkpt>
      <trkpt lat="42.95793" lon="0.84159">
        <ele>1530</ele>
        <time>2018-04-02T09:14:17.000Z</time>
      </trkpt>
      <trkpt lat="42.95793" lon="0.84159">
        <ele>1529</ele>
        <time>2018-04-02T09:14:19.000Z</time>
      </trkpt>
      <trkpt lat="42.95792" lon="0.84159">
        <ele>1529</ele>
        <time>2018-04-02T09:14:21.000Z</time>
      </trkpt>
      <trkpt lat="42.95792" lon="0.84159">
        <ele>1529</ele>
        <time>2018-04-02T09:14:23.000Z</time>
      </trkpt>
      <trkpt lat="42.95792" lon="0.84159">
        <ele>1529</ele>
        <time>2018-04-02T09:14:25.000Z</time>
      </trkpt>
      <trkpt lat="42.95792" lon="0.84159">
        <ele>1529</ele>
        <time>2018-04-02T09:14:27.000Z</time>
      </trkpt>
      <trkpt lat="42.95792" lon="0.84159">
        <ele>1529</ele>
        <time>2018-04-02T09:14:29.000Z</time>
      </trkpt>
      <trkpt lat="42.95792" lon="0.8416">
        <ele>1529</ele>
        <time>2018-04-02T09:14:31.000Z</time>
      </trkpt>
      <trkpt lat="42.95792" lon="0.84159">
        <ele>1529</ele>
        <time>2018-04-02T09:14:33.000Z</time>
      </trkpt>
      <trkpt lat="42.95792" lon="0.84159">
        <ele>1529</ele>
        <time>2018-04-02T09:14:35.000Z</time>
      </trkpt>
      <trkpt lat="42.95791" lon="0.8416">
        <ele>1529</ele>
        <time>2018-04-02T09:14:37.000Z</time>
      </trkpt>
      <trkpt lat="42.95791" lon="0.8416">
        <ele>1529</ele>
        <time>2018-04-02T09:14:39.000Z</time>
      </trkpt>
      <trkpt lat="42.95791" lon="0.84161">
        <ele>1528</ele>
        <time>2018-04-02T09:14:41.000Z</time>
      </trkpt>
      <trkpt lat="42.95791" lon="0.84161">
        <ele>1528</ele>
        <time>2018-04-02T09:14:43.000Z</time>
      </trkpt>
      <trkpt lat="42.95791" lon="0.84161">
        <ele>1528</ele>
        <time>2018-04-02T09:14:45.000Z</time>
      </trkpt>
      <trkpt lat="42.95791" lon="0.84161">
        <ele>1528</ele>
        <time>2018-04-02T09:14:47.000Z</time>
      </trkpt>
      <trkpt lat="42.9579" lon="0.8416">
        <ele>1528</ele>
        <time>2018-04-02T09:14:49.000Z</time>
      </trkpt>
      <trkpt lat="42.9579" lon="0.84159">
        <ele>1529</ele>
        <time>2018-04-02T09:14:51.000Z</time>
      </trkpt>
      <trkpt lat="42.95791" lon="0.8416">
        <ele>1529</ele>
        <time>2018-04-02T09:14:53.000Z</time>
      </trkpt>
      <trkpt lat="42.95791" lon="0.8416">
        <ele>1529</ele>
        <time>2018-04-02T09:14:55.000Z</time>
      </trkpt>
      <trkpt lat="42.95791" lon="0.8416">
        <ele>1529</ele>
        <time>2018-04-02T09:14:57.000Z</time>
      </trkpt>
      <trkpt lat="42.95791" lon="0.8416">
        <ele>1529</ele>
        <time>2018-04-02T09:14:59.000Z</time>
      </trkpt>
      <trkpt lat="42.95791" lon="0.84159">
        <ele>1529</ele>
        <time>2018-04-02T09:15:01.000Z</time>
      </trkpt>
      <trkpt lat="42.95791" lon="0.84159">
        <ele>1529</ele>
        <time>2018-04-02T09:15:03.000Z</time>
      </trkpt>
      <trkpt lat="42.95792" lon="0.84158">
        <ele>1529</ele>
        <time>2018-04-02T09:15:05.000Z</time>
      </trkpt>
      <trkpt lat="42.95792" lon="0.84157">
        <ele>1530</ele>
        <time>2018-04-02T09:15:07.000Z</time>
      </trkpt>
      <trkpt lat="42.95792" lon="0.84157">
        <ele>1530</ele>
        <time>2018-04-02T09:15:09.000Z</time>
      </trkpt>
      <trkpt lat="42.95793" lon="0.84157">
        <ele>1530</ele>
        <time>2018-04-02T09:15:11.000Z</time>
      </trkpt>
      <trkpt lat="42.95793" lon="0.84157">
        <ele>1530</ele>
        <time>2018-04-02T09:15:13.000Z</time>
      </trkpt>
      <trkpt lat="42.95793" lon="0.84158">
        <ele>1530</ele>
        <time>2018-04-02T09:15:15.000Z</time>
      </trkpt>
      <trkpt lat="42.95793" lon="0.84158">
        <ele>1530</ele>
        <time>2018-04-02T09:15:17.000Z</time>
      </trkpt>
      <trkpt lat="42.95793" lon="0.84158">
        <ele>1530</ele>
        <time>2018-04-02T09:15:19.000Z</time>
      </trkpt>
      <trkpt lat="42.95793" lon="0.84158">
        <ele>1530</ele>
        <time>2018-04-02T09:15:21.000Z</time>
      </trkpt>
      <trkpt lat="42.95793" lon="0.84158">
        <ele>1530</ele>
        <time>2018-04-02T09:15:23.000Z</time>
      </trkpt>
      <trkpt lat="42.95793" lon="0.84157">
        <ele>1530</ele>
        <time>2018-04-02T09:15:25.000Z</time>
      </trkpt>
      <trkpt lat="42.95792" lon="0.84157">
        <ele>1530</ele>
        <time>2018-04-02T09:15:27.000Z</time>
      </trkpt>
      <trkpt lat="42.95792" lon="0.84157">
        <ele>1530</ele>
        <time>2018-04-02T09:15:29.000Z</time>
      </trkpt>
      <trkpt lat="42.95792" lon="0.84157">
        <ele>1530</ele>
        <time>2018-04-02T09:15:31.000Z</time>
      </trkpt>
      <trkpt lat="42.95792" lon="0.84157">
        <ele>1529</ele>
        <time>2018-04-02T09:15:33.000Z</time>
      </trkpt>
      <trkpt lat="42.95791" lon="0.84158">
        <ele>1529</ele>
        <time>2018-04-02T09:15:35.000Z</time>
      </trkpt>
      <trkpt lat="42.95791" lon="0.84159">
        <ele>1529</ele>
        <time>2018-04-02T09:15:37.000Z</time>
      </trkpt>
      <trkpt lat="42.95791" lon="0.84159">
        <ele>1529</ele>
        <time>2018-04-02T09:15:39.000Z</time>
      </trkpt>
      <trkpt lat="42.95791" lon="0.84159">
        <ele>1529</ele>
        <time>2018-04-02T09:15:41.000Z</time>
      </trkpt>
      <trkpt lat="42.95791" lon="0.84159">
        <ele>1529</ele>
        <time>2018-04-02T09:15:43.000Z</time>
      </trkpt>
      <trkpt lat="42.95791" lon="0.84159">
        <ele>1529</ele>
        <time>2018-04-02T09:15:45.000Z</time>
      </trkpt>
      <trkpt lat="42.95791" lon="0.84159">
        <ele>1529</ele>
        <time>2018-04-02T09:15:47.000Z</time>
      </trkpt>
      <trkpt lat="42.95791" lon="0.84159">
        <ele>1529</ele>
        <time>2018-04-02T09:15:49.000Z</time>
      </trkpt>
      <trkpt lat="42.95791" lon="0.84159">
        <ele>1529</ele>
        <time>2018-04-02T09:15:51.000Z</time>
      </trkpt>
      <trkpt lat="42.95792" lon="0.84159">
        <ele>1529</ele>
        <time>2018-04-02T09:15:53.000Z</time>
      </trkpt>
      <trkpt lat="42.95792" lon="0.84158">
        <ele>1529</ele>
        <time>2018-04-02T09:15:55.000Z</time>
      </trkpt>
      <trkpt lat="42.95792" lon="0.84158">
        <ele>1529</ele>
        <time>2018-04-02T09:15:57.000Z</time>
      </trkpt>
      <trkpt lat="42.95792" lon="0.84158">
        <ele>1529</ele>
        <time>2018-04-02T09:15:59.000Z</time>
      </trkpt>
      <trkpt lat="42.95791" lon="0.84158">
        <ele>1529</ele>
        <time>2018-04-02T09:16:01.000Z</time>
      </trkpt>
      <trkpt lat="42.95791" lon="0.84158">
        <ele>1529</ele>
        <time>2018-04-02T09:16:03.000Z</time>
      </trkpt>
      <trkpt lat="42.95791" lon="0.84158">
        <ele>1529</ele>
        <time>2018-04-02T09:16:05.000Z</time>
      </trkpt>
      <trkpt lat="42.95791" lon="0.84158">
        <ele>1529</ele>
        <time>2018-04-02T09:16:07.000Z</time>
      </trkpt>
      <trkpt lat="42.95791" lon="0.84158">
        <ele>1529</ele>
        <time>2018-04-02T09:16:09.000Z</time>
      </trkpt>
      <trkpt lat="42.95791" lon="0.84158">
        <ele>1529</ele>
        <time>2018-04-02T09:16:11.000Z</time>
      </trkpt>
      <trkpt lat="42.95791" lon="0.84158">
        <ele>1529</ele>
        <time>2018-04-02T09:16:13.000Z</time>
      </trkpt>
      <trkpt lat="42.95791" lon="0.84158">
        <ele>1529</ele>
        <time>2018-04-02T09:16:15.000Z</time>
      </trkpt>
      <trkpt lat="42.95791" lon="0.84158">
        <ele>1529</ele>
        <time>2018-04-02T09:16:17.000Z</time>
      </trkpt>
      <trkpt lat="42.95791" lon="0.84158">
        <ele>1529</ele>
        <time>2018-04-02T09:16:19.000Z</time>
      </trkpt>
      <trkpt lat="42.95791" lon="0.84157">
        <ele>1529</ele>
        <time>2018-04-02T09:16:21.000Z</time>
      </trkpt>
      <trkpt lat="42.95791" lon="0.84157">
        <ele>1529</ele>
        <time>2018-04-02T09:16:23.000Z</time>
      </trkpt>
      <trkpt lat="42.95791" lon="0.84156">
        <ele>1530</ele>
        <time>2018-04-02T09:16:25.000Z</time>
      </trkpt>
      <trkpt lat="42.95792" lon="0.84154">
        <ele>1530</ele>
        <time>2018-04-02T09:16:27.000Z</time>
      </trkpt>
      <trkpt lat="42.95794" lon="0.84153">
        <ele>1531</ele>
        <time>2018-04-02T09:16:29.000Z</time>
      </trkpt>
      <trkpt lat="42.95795" lon="0.84152">
        <ele>1532</ele>
        <time>2018-04-02T09:16:31.000Z</time>
      </trkpt>
      <trkpt lat="42.95797" lon="0.84151">
        <ele>1533</ele>
        <time>2018-04-02T09:16:33.000Z</time>
      </trkpt>
      <trkpt lat="42.95798" lon="0.84149">
        <ele>1533</ele>
        <time>2018-04-02T09:16:35.000Z</time>
      </trkpt>
      <trkpt lat="42.95799" lon="0.84147">
        <ele>1534</ele>
        <time>2018-04-02T09:16:37.000Z</time>
      </trkpt>
      <trkpt lat="42.95801" lon="0.84145">
        <ele>1535</ele>
        <time>2018-04-02T09:16:39.000Z</time>
      </trkpt>
      <trkpt lat="42.95803" lon="0.84144">
        <ele>1536</ele>
        <time>2018-04-02T09:16:41.000Z</time>
      </trkpt>
      <trkpt lat="42.95805" lon="0.84143">
        <ele>1537</ele>
        <time>2018-04-02T09:16:43.000Z</time>
      </trkpt>
      <trkpt lat="42.95806" lon="0.84141">
        <ele>1538</ele>
        <time>2018-04-02T09:16:45.000Z</time>
      </trkpt>
      <trkpt lat="42.95808" lon="0.8414">
        <ele>1539</ele>
        <time>2018-04-02T09:16:47.000Z</time>
      </trkpt>
      <trkpt lat="42.9581" lon="0.84139">
        <ele>1539</ele>
        <time>2018-04-02T09:16:49.000Z</time>
      </trkpt>
      <trkpt lat="42.95811" lon="0.84139">
        <ele>1540</ele>
        <time>2018-04-02T09:16:51.000Z</time>
      </trkpt>
      <trkpt lat="42.95812" lon="0.84138">
        <ele>1540</ele>
        <time>2018-04-02T09:16:53.000Z</time>
      </trkpt>
      <trkpt lat="42.95814" lon="0.84137">
        <ele>1541</ele>
        <time>2018-04-02T09:16:55.000Z</time>
      </trkpt>
      <trkpt lat="42.95815" lon="0.84136">
        <ele>1541</ele>
        <time>2018-04-02T09:16:57.000Z</time>
      </trkpt>
      <trkpt lat="42.95816" lon="0.84135">
        <ele>1542</ele>
        <time>2018-04-02T09:16:59.000Z</time>
      </trkpt>
      <trkpt lat="42.95817" lon="0.84134">
        <ele>1542</ele>
        <time>2018-04-02T09:17:01.000Z</time>
      </trkpt>
      <trkpt lat="42.95818" lon="0.84133">
        <ele>1542</ele>
        <time>2018-04-02T09:17:03.000Z</time>
      </trkpt>
      <trkpt lat="42.95819" lon="0.84133">
        <ele>1543</ele>
        <time>2018-04-02T09:17:05.000Z</time>
      </trkpt>
      <trkpt lat="42.95821" lon="0.84133">
        <ele>1543</ele>
        <time>2018-04-02T09:17:07.000Z</time>
      </trkpt>
      <trkpt lat="42.95822" lon="0.84132">
        <ele>1543</ele>
        <time>2018-04-02T09:17:09.000Z</time>
      </trkpt>
      <trkpt lat="42.95823" lon="0.84131">
        <ele>1544</ele>
        <time>2018-04-02T09:17:11.000Z</time>
      </trkpt>
      <trkpt lat="42.95824" lon="0.84131">
        <ele>1544</ele>
        <time>2018-04-02T09:17:13.000Z</time>
      </trkpt>
      <trkpt lat="42.95825" lon="0.8413">
        <ele>1544</ele>
        <time>2018-04-02T09:17:15.000Z</time>
      </trkpt>
      <trkpt lat="42.95826" lon="0.84129">
        <ele>1545</ele>
        <time>2018-04-02T09:17:17.000Z</time>
      </trkpt>
      <trkpt lat="42.95826" lon="0.84129">
        <ele>1545</ele>
        <time>2018-04-02T09:17:19.000Z</time>
      </trkpt>
      <trkpt lat="42.95827" lon="0.84128">
        <ele>1545</ele>
        <time>2018-04-02T09:17:21.000Z</time>
      </trkpt>
      <trkpt lat="42.95828" lon="0.84128">
        <ele>1546</ele>
        <time>2018-04-02T09:17:23.000Z</time>
      </trkpt>
      <trkpt lat="42.95829" lon="0.84127">
        <ele>1546</ele>
        <time>2018-04-02T09:17:25.000Z</time>
      </trkpt>
      <trkpt lat="42.95829" lon="0.84127">
        <ele>1546</ele>
        <time>2018-04-02T09:17:27.000Z</time>
      </trkpt>
      <trkpt lat="42.9583" lon="0.84126">
        <ele>1546</ele>
        <time>2018-04-02T09:17:29.000Z</time>
      </trkpt>
      <trkpt lat="42.95831" lon="0.84125">
        <ele>1547</ele>
        <time>2018-04-02T09:17:31.000Z</time>
      </trkpt>
      <trkpt lat="42.95832" lon="0.84124">
        <ele>1547</ele>
        <time>2018-04-02T09:17:33.000Z</time>
      </trkpt>
      <trkpt lat="42.95832" lon="0.84123">
        <ele>1547</ele>
        <time>2018-04-02T09:17:35.000Z</time>
      </trkpt>
      <trkpt lat="42.95833" lon="0.84123">
        <ele>1548</ele>
        <time>2018-04-02T09:17:37.000Z</time>
      </trkpt>
      <trkpt lat="42.95833" lon="0.84123">
        <ele>1548</ele>
        <time>2018-04-02T09:17:39.000Z</time>
      </trkpt>
      <trkpt lat="42.95834" lon="0.84123">
        <ele>1548</ele>
        <time>2018-04-02T09:17:41.000Z</time>
      </trkpt>
      <trkpt lat="42.95835" lon="0.84124">
        <ele>1548</ele>
        <time>2018-04-02T09:17:43.000Z</time>
      </trkpt>
      <trkpt lat="42.95835" lon="0.84124">
        <ele>1549</ele>
        <time>2018-04-02T09:17:45.000Z</time>
      </trkpt>
      <trkpt lat="42.95836" lon="0.84123">
        <ele>1549</ele>
        <time>2018-04-02T09:17:47.000Z</time>
      </trkpt>
      <trkpt lat="42.95836" lon="0.84123">
        <ele>1549</ele>
        <time>2018-04-02T09:17:49.000Z</time>
      </trkpt>
      <trkpt lat="42.95837" lon="0.84122">
        <ele>1550</ele>
        <time>2018-04-02T09:17:51.000Z</time>
      </trkpt>
      <trkpt lat="42.95838" lon="0.84122">
        <ele>1550</ele>
        <time>2018-04-02T09:17:53.000Z</time>
      </trkpt>
      <trkpt lat="42.95839" lon="0.84122">
        <ele>1550</ele>
        <time>2018-04-02T09:17:55.000Z</time>
      </trkpt>
      <trkpt lat="42.95839" lon="0.84122">
        <ele>1550</ele>
        <time>2018-04-02T09:17:57.000Z</time>
      </trkpt>
      <trkpt lat="42.9584" lon="0.84122">
        <ele>1551</ele>
        <time>2018-04-02T09:17:59.000Z</time>
      </trkpt>
      <trkpt lat="42.95841" lon="0.84122">
        <ele>1551</ele>
        <time>2018-04-02T09:18:01.000Z</time>
      </trkpt>
      <trkpt lat="42.95842" lon="0.84121">
        <ele>1551</ele>
        <time>2018-04-02T09:18:03.000Z</time>
      </trkpt>
      <trkpt lat="42.95843" lon="0.84121">
        <ele>1552</ele>
        <time>2018-04-02T09:18:05.000Z</time>
      </trkpt>
      <trkpt lat="42.95843" lon="0.84121">
        <ele>1552</ele>
        <time>2018-04-02T09:18:07.000Z</time>
      </trkpt>
      <trkpt lat="42.95844" lon="0.8412">
        <ele>1552</ele>
        <time>2018-04-02T09:18:09.000Z</time>
      </trkpt>
      <trkpt lat="42.95845" lon="0.8412">
        <ele>1552</ele>
        <time>2018-04-02T09:18:11.000Z</time>
      </trkpt>
      <trkpt lat="42.95845" lon="0.8412">
        <ele>1552</ele>
        <time>2018-04-02T09:18:13.000Z</time>
      </trkpt>
      <trkpt lat="42.95846" lon="0.8412">
        <ele>1553</ele>
        <time>2018-04-02T09:18:15.000Z</time>
      </trkpt>
      <trkpt lat="42.95847" lon="0.8412">
        <ele>1553</ele>
        <time>2018-04-02T09:18:17.000Z</time>
      </trkpt>
      <trkpt lat="42.95848" lon="0.8412">
        <ele>1553</ele>
        <time>2018-04-02T09:18:19.000Z</time>
      </trkpt>
      <trkpt lat="42.95849" lon="0.84121">
        <ele>1553</ele>
        <time>2018-04-02T09:18:21.000Z</time>
      </trkpt>
      <trkpt lat="42.9585" lon="0.84121">
        <ele>1554</ele>
        <time>2018-04-02T09:18:23.000Z</time>
      </trkpt>
      <trkpt lat="42.95851" lon="0.84121">
        <ele>1554</ele>
        <time>2018-04-02T09:18:25.000Z</time>
      </trkpt>
      <trkpt lat="42.95851" lon="0.84121">
        <ele>1554</ele>
        <time>2018-04-02T09:18:27.000Z</time>
      </trkpt>
      <trkpt lat="42.95852" lon="0.84121">
        <ele>1554</ele>
        <time>2018-04-02T09:18:29.000Z</time>
      </trkpt>
      <trkpt lat="42.95853" lon="0.8412">
        <ele>1555</ele>
        <time>2018-04-02T09:18:31.000Z</time>
      </trkpt>
      <trkpt lat="42.95854" lon="0.8412">
        <ele>1555</ele>
        <time>2018-04-02T09:18:33.000Z</time>
      </trkpt>
      <trkpt lat="42.95854" lon="0.8412">
        <ele>1555</ele>
        <time>2018-04-02T09:18:35.000Z</time>
      </trkpt>
      <trkpt lat="42.95855" lon="0.84119">
        <ele>1555</ele>
        <time>2018-04-02T09:18:37.000Z</time>
      </trkpt>
      <trkpt lat="42.95856" lon="0.84118">
        <ele>1555</ele>
        <time>2018-04-02T09:18:39.000Z</time>
      </trkpt>
      <trkpt lat="42.95856" lon="0.84118">
        <ele>1556</ele>
        <time>2018-04-02T09:18:41.000Z</time>
      </trkpt>
      <trkpt lat="42.95857" lon="0.84118">
        <ele>1556</ele>
        <time>2018-04-02T09:18:43.000Z</time>
      </trkpt>
      <trkpt lat="42.95858" lon="0.84118">
        <ele>1556</ele>
        <time>2018-04-02T09:18:45.000Z</time>
      </trkpt>
      <trkpt lat="42.95859" lon="0.84118">
        <ele>1557</ele>
        <time>2018-04-02T09:18:47.000Z</time>
      </trkpt>
      <trkpt lat="42.95861" lon="0.84118">
        <ele>1557</ele>
        <time>2018-04-02T09:18:49.000Z</time>
      </trkpt>
      <trkpt lat="42.95862" lon="0.84119">
        <ele>1557</ele>
        <time>2018-04-02T09:18:51.000Z</time>
      </trkpt>
      <trkpt lat="42.95863" lon="0.84119">
        <ele>1557</ele>
        <time>2018-04-02T09:18:53.000Z</time>
      </trkpt>
      <trkpt lat="42.95863" lon="0.84118">
        <ele>1558</ele>
        <time>2018-04-02T09:18:55.000Z</time>
      </trkpt>
      <trkpt lat="42.95864" lon="0.84118">
        <ele>1558</ele>
        <time>2018-04-02T09:18:57.000Z</time>
      </trkpt>
      <trkpt lat="42.95865" lon="0.84118">
        <ele>1558</ele>
        <time>2018-04-02T09:18:59.000Z</time>
      </trkpt>
      <trkpt lat="42.95866" lon="0.84118">
        <ele>1558</ele>
        <time>2018-04-02T09:19:01.000Z</time>
      </trkpt>
      <trkpt lat="42.95867" lon="0.84118">
        <ele>1559</ele>
        <time>2018-04-02T09:19:03.000Z</time>
      </trkpt>
      <trkpt lat="42.95868" lon="0.84119">
        <ele>1559</ele>
        <time>2018-04-02T09:19:05.000Z</time>
      </trkpt>
      <trkpt lat="42.95869" lon="0.84119">
        <ele>1559</ele>
        <time>2018-04-02T09:19:07.000Z</time>
      </trkpt>
      <trkpt lat="42.9587" lon="0.84119">
        <ele>1559</ele>
        <time>2018-04-02T09:19:09.000Z</time>
      </trkpt>
      <trkpt lat="42.95871" lon="0.8412">
        <ele>1560</ele>
        <time>2018-04-02T09:19:11.000Z</time>
      </trkpt>
      <trkpt lat="42.95871" lon="0.8412">
        <ele>1560</ele>
        <time>2018-04-02T09:19:13.000Z</time>
      </trkpt>
      <trkpt lat="42.95872" lon="0.8412">
        <ele>1560</ele>
        <time>2018-04-02T09:19:15.000Z</time>
      </trkpt>
      <trkpt lat="42.95873" lon="0.84121">
        <ele>1560</ele>
        <time>2018-04-02T09:19:17.000Z</time>
      </trkpt>
      <trkpt lat="42.95874" lon="0.84121">
        <ele>1561</ele>
        <time>2018-04-02T09:19:19.000Z</time>
      </trkpt>
      <trkpt lat="42.95875" lon="0.84121">
        <ele>1561</ele>
        <time>2018-04-02T09:19:21.000Z</time>
      </trkpt>
      <trkpt lat="42.95876" lon="0.84121">
        <ele>1561</ele>
        <time>2018-04-02T09:19:23.000Z</time>
      </trkpt>
      <trkpt lat="42.95877" lon="0.84121">
        <ele>1561</ele>
        <time>2018-04-02T09:19:25.000Z</time>
      </trkpt>
      <trkpt lat="42.95877" lon="0.84121">
        <ele>1562</ele>
        <time>2018-04-02T09:19:27.000Z</time>
      </trkpt>
      <trkpt lat="42.95878" lon="0.84122">
        <ele>1562</ele>
        <time>2018-04-02T09:19:29.000Z</time>
      </trkpt>
      <trkpt lat="42.95879" lon="0.84122">
        <ele>1562</ele>
        <time>2018-04-02T09:19:31.000Z</time>
      </trkpt>
      <trkpt lat="42.9588" lon="0.84123">
        <ele>1562</ele>
        <time>2018-04-02T09:19:33.000Z</time>
      </trkpt>
      <trkpt lat="42.95881" lon="0.84123">
        <ele>1562</ele>
        <time>2018-04-02T09:19:35.000Z</time>
      </trkpt>
      <trkpt lat="42.95882" lon="0.84124">
        <ele>1563</ele>
        <time>2018-04-02T09:19:37.000Z</time>
      </trkpt>
      <trkpt lat="42.95883" lon="0.84123">
        <ele>1563</ele>
        <time>2018-04-02T09:19:39.000Z</time>
      </trkpt>
      <trkpt lat="42.95884" lon="0.84123">
        <ele>1563</ele>
        <time>2018-04-02T09:19:41.000Z</time>
      </trkpt>
      <trkpt lat="42.95884" lon="0.84123">
        <ele>1563</ele>
        <time>2018-04-02T09:19:43.000Z</time>
      </trkpt>
      <trkpt lat="42.95885" lon="0.84123">
        <ele>1564</ele>
        <time>2018-04-02T09:19:45.000Z</time>
      </trkpt>
      <trkpt lat="42.95886" lon="0.84123">
        <ele>1564</ele>
        <time>2018-04-02T09:19:47.000Z</time>
      </trkpt>
      <trkpt lat="42.95887" lon="0.84123">
        <ele>1564</ele>
        <time>2018-04-02T09:19:49.000Z</time>
      </trkpt>
      <trkpt lat="42.95888" lon="0.84123">
        <ele>1564</ele>
        <time>2018-04-02T09:19:51.000Z</time>
      </trkpt>
      <trkpt lat="42.95888" lon="0.84122">
        <ele>1565</ele>
        <time>2018-04-02T09:19:53.000Z</time>
      </trkpt>
      <trkpt lat="42.95888" lon="0.8412">
        <ele>1565</ele>
        <time>2018-04-02T09:19:55.000Z</time>
      </trkpt>
      <trkpt lat="42.95887" lon="0.84119">
        <ele>1565</ele>
        <time>2018-04-02T09:19:57.000Z</time>
      </trkpt>
      <trkpt lat="42.95887" lon="0.84117">
        <ele>1565</ele>
        <time>2018-04-02T09:19:59.000Z</time>
      </trkpt>
      <trkpt lat="42.95887" lon="0.84116">
        <ele>1565</ele>
        <time>2018-04-02T09:20:01.000Z</time>
      </trkpt>
      <trkpt lat="42.95887" lon="0.84114">
        <ele>1565</ele>
        <time>2018-04-02T09:20:03.000Z</time>
      </trkpt>
      <trkpt lat="42.95886" lon="0.84113">
        <ele>1565</ele>
        <time>2018-04-02T09:20:05.000Z</time>
      </trkpt>
      <trkpt lat="42.95886" lon="0.84112">
        <ele>1565</ele>
        <time>2018-04-02T09:20:07.000Z</time>
      </trkpt>
      <trkpt lat="42.95886" lon="0.84111">
        <ele>1565</ele>
        <time>2018-04-02T09:20:09.000Z</time>
      </trkpt>
      <trkpt lat="42.95886" lon="0.84109">
        <ele>1565</ele>
        <time>2018-04-02T09:20:11.000Z</time>
      </trkpt>
      <trkpt lat="42.95887" lon="0.84108">
        <ele>1565</ele>
        <time>2018-04-02T09:20:13.000Z</time>
      </trkpt>
      <trkpt lat="42.95888" lon="0.84107">
        <ele>1565</ele>
        <time>2018-04-02T09:20:15.000Z</time>
      </trkpt>
      <trkpt lat="42.95888" lon="0.84107">
        <ele>1566</ele>
        <time>2018-04-02T09:20:17.000Z</time>
      </trkpt>
      <trkpt lat="42.9589" lon="0.84107">
        <ele>1566</ele>
        <time>2018-04-02T09:20:19.000Z</time>
      </trkpt>
      <trkpt lat="42.95891" lon="0.84107">
        <ele>1566</ele>
        <time>2018-04-02T09:20:21.000Z</time>
      </trkpt>
      <trkpt lat="42.95892" lon="0.84107">
        <ele>1566</ele>
        <time>2018-04-02T09:20:23.000Z</time>
      </trkpt>
      <trkpt lat="42.95893" lon="0.84108">
        <ele>1567</ele>
        <time>2018-04-02T09:20:25.000Z</time>
      </trkpt>
      <trkpt lat="42.95894" lon="0.84108">
        <ele>1567</ele>
        <time>2018-04-02T09:20:27.000Z</time>
      </trkpt>
      <trkpt lat="42.95895" lon="0.84109">
        <ele>1567</ele>
        <time>2018-04-02T09:20:29.000Z</time>
      </trkpt>
      <trkpt lat="42.95896" lon="0.84109">
        <ele>1567</ele>
        <time>2018-04-02T09:20:31.000Z</time>
      </trkpt>
      <trkpt lat="42.95897" lon="0.84109">
        <ele>1568</ele>
        <time>2018-04-02T09:20:33.000Z</time>
      </trkpt>
      <trkpt lat="42.95898" lon="0.84109">
        <ele>1568</ele>
        <time>2018-04-02T09:20:35.000Z</time>
      </trkpt>
      <trkpt lat="42.95898" lon="0.8411">
        <ele>1568</ele>
        <time>2018-04-02T09:20:37.000Z</time>
      </trkpt>
      <trkpt lat="42.95898" lon="0.8411">
        <ele>1568</ele>
        <time>2018-04-02T09:20:39.000Z</time>
      </trkpt>
      <trkpt lat="42.95898" lon="0.84109">
        <ele>1568</ele>
        <time>2018-04-02T09:20:41.000Z</time>
      </trkpt>
      <trkpt lat="42.95898" lon="0.84109">
        <ele>1568</ele>
        <time>2018-04-02T09:20:43.000Z</time>
      </trkpt>
      <trkpt lat="42.95898" lon="0.84109">
        <ele>1568</ele>
        <time>2018-04-02T09:20:45.000Z</time>
      </trkpt>
      <trkpt lat="42.95898" lon="0.84109">
        <ele>1568</ele>
        <time>2018-04-02T09:20:47.000Z</time>
      </trkpt>
      <trkpt lat="42.95898" lon="0.84109">
        <ele>1568</ele>
        <time>2018-04-02T09:20:49.000Z</time>
      </trkpt>
      <trkpt lat="42.95898" lon="0.84109">
        <ele>1568</ele>
        <time>2018-04-02T09:20:51.000Z</time>
      </trkpt>
      <trkpt lat="42.95898" lon="0.84109">
        <ele>1568</ele>
        <time>2018-04-02T09:20:53.000Z</time>
      </trkpt>
      <trkpt lat="42.95899" lon="0.84109">
        <ele>1568</ele>
        <time>2018-04-02T09:20:55.000Z</time>
      </trkpt>
      <trkpt lat="42.95899" lon="0.84108">
        <ele>1568</ele>
        <time>2018-04-02T09:20:57.000Z</time>
      </trkpt>
      <trkpt lat="42.95899" lon="0.84108">
        <ele>1568</ele>
        <time>2018-04-02T09:20:59.000Z</time>
      </trkpt>
      <trkpt lat="42.95899" lon="0.84108">
        <ele>1568</ele>
        <time>2018-04-02T09:21:01.000Z</time>
      </trkpt>
      <trkpt lat="42.95899" lon="0.84108">
        <ele>1568</ele>
        <time>2018-04-02T09:21:03.000Z</time>
      </trkpt>
      <trkpt lat="42.95898" lon="0.84108">
        <ele>1568</ele>
        <time>2018-04-02T09:21:05.000Z</time>
      </trkpt>
      <trkpt lat="42.95898" lon="0.84108">
        <ele>1568</ele>
        <time>2018-04-02T09:21:07.000Z</time>
      </trkpt>
      <trkpt lat="42.95898" lon="0.84108">
        <ele>1568</ele>
        <time>2018-04-02T09:21:09.000Z</time>
      </trkpt>
      <trkpt lat="42.95897" lon="0.84108">
        <ele>1568</ele>
        <time>2018-04-02T09:21:11.000Z</time>
      </trkpt>
      <trkpt lat="42.95897" lon="0.84108">
        <ele>1568</ele>
        <time>2018-04-02T09:21:13.000Z</time>
      </trkpt>
      <trkpt lat="42.95897" lon="0.84108">
        <ele>1568</ele>
        <time>2018-04-02T09:21:15.000Z</time>
      </trkpt>
      <trkpt lat="42.95897" lon="0.84108">
        <ele>1568</ele>
        <time>2018-04-02T09:21:17.000Z</time>
      </trkpt>
      <trkpt lat="42.95898" lon="0.84109">
        <ele>1568</ele>
        <time>2018-04-02T09:21:19.000Z</time>
      </trkpt>
      <trkpt lat="42.95897" lon="0.84108">
        <ele>1568</ele>
        <time>2018-04-02T09:21:21.000Z</time>
      </trkpt>
      <trkpt lat="42.95897" lon="0.84109">
        <ele>1568</ele>
        <time>2018-04-02T09:21:23.000Z</time>
      </trkpt>
      <trkpt lat="42.95897" lon="0.84108">
        <ele>1568</ele>
        <time>2018-04-02T09:21:25.000Z</time>
      </trkpt>
      <trkpt lat="42.95898" lon="0.84107">
        <ele>1568</ele>
        <time>2018-04-02T09:21:27.000Z</time>
      </trkpt>
      <trkpt lat="42.95899" lon="0.84107">
        <ele>1568</ele>
        <time>2018-04-02T09:21:29.000Z</time>
      </trkpt>
      <trkpt lat="42.95899" lon="0.84107">
        <ele>1568</ele>
        <time>2018-04-02T09:21:31.000Z</time>
      </trkpt>
      <trkpt lat="42.95901" lon="0.84108">
        <ele>1569</ele>
        <time>2018-04-02T09:21:33.000Z</time>
      </trkpt>
      <trkpt lat="42.95902" lon="0.84108">
        <ele>1569</ele>
        <time>2018-04-02T09:21:35.000Z</time>
      </trkpt>
      <trkpt lat="42.95904" lon="0.84109">
        <ele>1569</ele>
        <time>2018-04-02T09:21:37.000Z</time>
      </trkpt>
      <trkpt lat="42.95905" lon="0.8411">
        <ele>1569</ele>
        <time>2018-04-02T09:21:39.000Z</time>
      </trkpt>
      <trkpt lat="42.95906" lon="0.84111">
        <ele>1570</ele>
        <time>2018-04-02T09:21:41.000Z</time>
      </trkpt>
      <trkpt lat="42.95907" lon="0.84111">
        <ele>1570</ele>
        <time>2018-04-02T09:21:43.000Z</time>
      </trkpt>
      <trkpt lat="42.95908" lon="0.84112">
        <ele>1570</ele>
        <time>2018-04-02T09:21:45.000Z</time>
      </trkpt>
      <trkpt lat="42.95909" lon="0.84113">
        <ele>1570</ele>
        <time>2018-04-02T09:21:47.000Z</time>
      </trkpt>
      <trkpt lat="42.9591" lon="0.84114">
        <ele>1571</ele>
        <time>2018-04-02T09:21:49.000Z</time>
      </trkpt>
      <trkpt lat="42.95912" lon="0.84115">
        <ele>1571</ele>
        <time>2018-04-02T09:21:51.000Z</time>
      </trkpt>
      <trkpt lat="42.95913" lon="0.84116">
        <ele>1571</ele>
        <time>2018-04-02T09:21:53.000Z</time>
      </trkpt>
      <trkpt lat="42.95914" lon="0.84116">
        <ele>1572</ele>
        <time>2018-04-02T09:21:55.000Z</time>
      </trkpt>
      <trkpt lat="42.95915" lon="0.84117">
        <ele>1572</ele>
        <time>2018-04-02T09:21:57.000Z</time>
      </trkpt>
      <trkpt lat="42.95917" lon="0.84118">
        <ele>1572</ele>
        <time>2018-04-02T09:21:59.000Z</time>
      </trkpt>
      <trkpt lat="42.95918" lon="0.84119">
        <ele>1572</ele>
        <time>2018-04-02T09:22:01.000Z</time>
      </trkpt>
      <trkpt lat="42.95919" lon="0.84119">
        <ele>1573</ele>
        <time>2018-04-02T09:22:03.000Z</time>
      </trkpt>
      <trkpt lat="42.95921" lon="0.84121">
        <ele>1573</ele>
        <time>2018-04-02T09:22:05.000Z</time>
      </trkpt>
      <trkpt lat="42.95922" lon="0.84122">
        <ele>1573</ele>
        <time>2018-04-02T09:22:07.000Z</time>
      </trkpt>
      <trkpt lat="42.95924" lon="0.84123">
        <ele>1574</ele>
        <time>2018-04-02T09:22:09.000Z</time>
      </trkpt>
      <trkpt lat="42.95925" lon="0.84124">
        <ele>1574</ele>
        <time>2018-04-02T09:22:11.000Z</time>
      </trkpt>
      <trkpt lat="42.95926" lon="0.84124">
        <ele>1574</ele>
        <time>2018-04-02T09:22:13.000Z</time>
      </trkpt>
      <trkpt lat="42.95927" lon="0.84125">
        <ele>1574</ele>
        <time>2018-04-02T09:22:15.000Z</time>
      </trkpt>
      <trkpt lat="42.95928" lon="0.84127">
        <ele>1574</ele>
        <time>2018-04-02T09:22:17.000Z</time>
      </trkpt>
      <trkpt lat="42.95929" lon="0.84128">
        <ele>1574</ele>
        <time>2018-04-02T09:22:19.000Z</time>
      </trkpt>
      <trkpt lat="42.9593" lon="0.84129">
        <ele>1574</ele>
        <time>2018-04-02T09:22:21.000Z</time>
      </trkpt>
      <trkpt lat="42.95931" lon="0.84131">
        <ele>1574</ele>
        <time>2018-04-02T09:22:23.000Z</time>
      </trkpt>
      <trkpt lat="42.95932" lon="0.84133">
        <ele>1575</ele>
        <time>2018-04-02T09:22:25.000Z</time>
      </trkpt>
      <trkpt lat="42.95933" lon="0.84134">
        <ele>1575</ele>
        <time>2018-04-02T09:22:27.000Z</time>
      </trkpt>
      <trkpt lat="42.95933" lon="0.84135">
        <ele>1575</ele>
        <time>2018-04-02T09:22:29.000Z</time>
      </trkpt>
      <trkpt lat="42.95934" lon="0.84136">
        <ele>1575</ele>
        <time>2018-04-02T09:22:31.000Z</time>
      </trkpt>
      <trkpt lat="42.95935" lon="0.84136">
        <ele>1575</ele>
        <time>2018-04-02T09:22:33.000Z</time>
      </trkpt>
      <trkpt lat="42.95936" lon="0.84137">
        <ele>1575</ele>
        <time>2018-04-02T09:22:35.000Z</time>
      </trkpt>
      <trkpt lat="42.95937" lon="0.84138">
        <ele>1575</ele>
        <time>2018-04-02T09:22:37.000Z</time>
      </trkpt>
      <trkpt lat="42.95938" lon="0.84138">
        <ele>1575</ele>
        <time>2018-04-02T09:22:39.000Z</time>
      </trkpt>
      <trkpt lat="42.95939" lon="0.84138">
        <ele>1575</ele>
        <time>2018-04-02T09:22:41.000Z</time>
      </trkpt>
      <trkpt lat="42.9594" lon="0.84138">
        <ele>1575</ele>
        <time>2018-04-02T09:22:43.000Z</time>
      </trkpt>
      <trkpt lat="42.95941" lon="0.84139">
        <ele>1575</ele>
        <time>2018-04-02T09:22:45.000Z</time>
      </trkpt>
      <trkpt lat="42.95942" lon="0.8414">
        <ele>1575</ele>
        <time>2018-04-02T09:22:47.000Z</time>
      </trkpt>
      <trkpt lat="42.95943" lon="0.8414">
        <ele>1576</ele>
        <time>2018-04-02T09:22:49.000Z</time>
      </trkpt>
      <trkpt lat="42.95944" lon="0.84141">
        <ele>1576</ele>
        <time>2018-04-02T09:22:51.000Z</time>
      </trkpt>
      <trkpt lat="42.95945" lon="0.84142">
        <ele>1576</ele>
        <time>2018-04-02T09:22:53.000Z</time>
      </trkpt>
      <trkpt lat="42.95946" lon="0.84142">
        <ele>1576</ele>
        <time>2018-04-02T09:22:55.000Z</time>
      </trkpt>
      <trkpt lat="42.95948" lon="0.84143">
        <ele>1576</ele>
        <time>2018-04-02T09:22:57.000Z</time>
      </trkpt>
      <trkpt lat="42.95949" lon="0.84144">
        <ele>1576</ele>
        <time>2018-04-02T09:22:59.000Z</time>
      </trkpt>
      <trkpt lat="42.9595" lon="0.84145">
        <ele>1577</ele>
        <time>2018-04-02T09:23:01.000Z</time>
      </trkpt>
      <trkpt lat="42.95951" lon="0.84146">
        <ele>1577</ele>
        <time>2018-04-02T09:23:03.000Z</time>
      </trkpt>
      <trkpt lat="42.95952" lon="0.84146">
        <ele>1577</ele>
        <time>2018-04-02T09:23:05.000Z</time>
      </trkpt>
      <trkpt lat="42.95953" lon="0.84147">
        <ele>1577</ele>
        <time>2018-04-02T09:23:07.000Z</time>
      </trkpt>
      <trkpt lat="42.95954" lon="0.84147">
        <ele>1577</ele>
        <time>2018-04-02T09:23:09.000Z</time>
      </trkpt>
      <trkpt lat="42.95956" lon="0.84148">
        <ele>1577</ele>
        <time>2018-04-02T09:23:11.000Z</time>
      </trkpt>
      <trkpt lat="42.95957" lon="0.84148">
        <ele>1577</ele>
        <time>2018-04-02T09:23:13.000Z</time>
      </trkpt>
      <trkpt lat="42.95958" lon="0.84149">
        <ele>1578</ele>
        <time>2018-04-02T09:23:15.000Z</time>
      </trkpt>
      <trkpt lat="42.95959" lon="0.8415">
        <ele>1578</ele>
        <time>2018-04-02T09:23:17.000Z</time>
      </trkpt>
      <trkpt lat="42.95959" lon="0.84151">
        <ele>1578</ele>
        <time>2018-04-02T09:23:19.000Z</time>
      </trkpt>
      <trkpt lat="42.95961" lon="0.84152">
        <ele>1578</ele>
        <time>2018-04-02T09:23:21.000Z</time>
      </trkpt>
      <trkpt lat="42.95962" lon="0.84153">
        <ele>1578</ele>
        <time>2018-04-02T09:23:23.000Z</time>
      </trkpt>
      <trkpt lat="42.95962" lon="0.84155">
        <ele>1578</ele>
        <time>2018-04-02T09:23:25.000Z</time>
      </trkpt>
      <trkpt lat="42.95963" lon="0.84156">
        <ele>1578</ele>
        <time>2018-04-02T09:23:27.000Z</time>
      </trkpt>
      <trkpt lat="42.95963" lon="0.84158">
        <ele>1579</ele>
        <time>2018-04-02T09:23:29.000Z</time>
      </trkpt>
      <trkpt lat="42.95964" lon="0.84159">
        <ele>1579</ele>
        <time>2018-04-02T09:23:31.000Z</time>
      </trkpt>
      <trkpt lat="42.95964" lon="0.8416">
        <ele>1579</ele>
        <time>2018-04-02T09:23:33.000Z</time>
      </trkpt>
      <trkpt lat="42.95965" lon="0.84162">
        <ele>1579</ele>
        <time>2018-04-02T09:23:35.000Z</time>
      </trkpt>
      <trkpt lat="42.95965" lon="0.84163">
        <ele>1579</ele>
        <time>2018-04-02T09:23:37.000Z</time>
      </trkpt>
      <trkpt lat="42.95966" lon="0.84164">
        <ele>1579</ele>
        <time>2018-04-02T09:23:39.000Z</time>
      </trkpt>
      <trkpt lat="42.95967" lon="0.84165">
        <ele>1579</ele>
        <time>2018-04-02T09:23:41.000Z</time>
      </trkpt>
      <trkpt lat="42.95968" lon="0.84167">
        <ele>1580</ele>
        <time>2018-04-02T09:23:43.000Z</time>
      </trkpt>
      <trkpt lat="42.95968" lon="0.84168">
        <ele>1580</ele>
        <time>2018-04-02T09:23:45.000Z</time>
      </trkpt>
      <trkpt lat="42.95969" lon="0.8417">
        <ele>1580</ele>
        <time>2018-04-02T09:23:47.000Z</time>
      </trkpt>
      <trkpt lat="42.9597" lon="0.84172">
        <ele>1580</ele>
        <time>2018-04-02T09:23:49.000Z</time>
      </trkpt>
      <trkpt lat="42.9597" lon="0.84174">
        <ele>1580</ele>
        <time>2018-04-02T09:23:51.000Z</time>
      </trkpt>
      <trkpt lat="42.95971" lon="0.84175">
        <ele>1581</ele>
        <time>2018-04-02T09:23:53.000Z</time>
      </trkpt>
      <trkpt lat="42.95972" lon="0.84177">
        <ele>1581</ele>
        <time>2018-04-02T09:23:55.000Z</time>
      </trkpt>
      <trkpt lat="42.95972" lon="0.84179">
        <ele>1581</ele>
        <time>2018-04-02T09:23:57.000Z</time>
      </trkpt>
      <trkpt lat="42.95973" lon="0.8418">
        <ele>1581</ele>
        <time>2018-04-02T09:23:59.000Z</time>
      </trkpt>
      <trkpt lat="42.95974" lon="0.84182">
        <ele>1581</ele>
        <time>2018-04-02T09:24:01.000Z</time>
      </trkpt>
      <trkpt lat="42.95975" lon="0.84185">
        <ele>1582</ele>
        <time>2018-04-02T09:24:03.000Z</time>
      </trkpt>
      <trkpt lat="42.95976" lon="0.84188">
        <ele>1582</ele>
        <time>2018-04-02T09:24:05.000Z</time>
      </trkpt>
      <trkpt lat="42.95977" lon="0.8419">
        <ele>1582</ele>
        <time>2018-04-02T09:24:07.000Z</time>
      </trkpt>
      <trkpt lat="42.95978" lon="0.84193">
        <ele>1582</ele>
        <time>2018-04-02T09:24:09.000Z</time>
      </trkpt>
      <trkpt lat="42.95979" lon="0.84195">
        <ele>1582</ele>
        <time>2018-04-02T09:24:11.000Z</time>
      </trkpt>
      <trkpt lat="42.9598" lon="0.84197">
        <ele>1582</ele>
        <time>2018-04-02T09:24:13.000Z</time>
      </trkpt>
      <trkpt lat="42.95981" lon="0.84198">
        <ele>1582</ele>
        <time>2018-04-02T09:24:15.000Z</time>
      </trkpt>
      <trkpt lat="42.95982" lon="0.842">
        <ele>1583</ele>
        <time>2018-04-02T09:24:17.000Z</time>
      </trkpt>
      <trkpt lat="42.95983" lon="0.84201">
        <ele>1583</ele>
        <time>2018-04-02T09:24:19.000Z</time>
      </trkpt>
      <trkpt lat="42.95985" lon="0.84203">
        <ele>1583</ele>
        <time>2018-04-02T09:24:21.000Z</time>
      </trkpt>
      <trkpt lat="42.95986" lon="0.84204">
        <ele>1583</ele>
        <time>2018-04-02T09:24:23.000Z</time>
      </trkpt>
      <trkpt lat="42.95988" lon="0.84206">
        <ele>1583</ele>
        <time>2018-04-02T09:24:25.000Z</time>
      </trkpt>
      <trkpt lat="42.95988" lon="0.84208">
        <ele>1583</ele>
        <time>2018-04-02T09:24:27.000Z</time>
      </trkpt>
      <trkpt lat="42.9599" lon="0.8421">
        <ele>1583</ele>
        <time>2018-04-02T09:24:29.000Z</time>
      </trkpt>
      <trkpt lat="42.95991" lon="0.84212">
        <ele>1583</ele>
        <time>2018-04-02T09:24:31.000Z</time>
      </trkpt>
      <trkpt lat="42.95991" lon="0.84214">
        <ele>1583</ele>
        <time>2018-04-02T09:24:33.000Z</time>
      </trkpt>
      <trkpt lat="42.95992" lon="0.84216">
        <ele>1583</ele>
        <time>2018-04-02T09:24:35.000Z</time>
      </trkpt>
      <trkpt lat="42.95993" lon="0.84218">
        <ele>1583</ele>
        <time>2018-04-02T09:24:37.000Z</time>
      </trkpt>
      <trkpt lat="42.95994" lon="0.8422">
        <ele>1583</ele>
        <time>2018-04-02T09:24:39.000Z</time>
      </trkpt>
      <trkpt lat="42.95995" lon="0.84222">
        <ele>1583</ele>
        <time>2018-04-02T09:24:41.000Z</time>
      </trkpt>
      <trkpt lat="42.95996" lon="0.84224">
        <ele>1584</ele>
        <time>2018-04-02T09:24:43.000Z</time>
      </trkpt>
      <trkpt lat="42.95997" lon="0.84226">
        <ele>1584</ele>
        <time>2018-04-02T09:24:45.000Z</time>
      </trkpt>
      <trkpt lat="42.95999" lon="0.84228">
        <ele>1584</ele>
        <time>2018-04-02T09:24:47.000Z</time>
      </trkpt>
      <trkpt lat="42.95999" lon="0.84229">
        <ele>1584</ele>
        <time>2018-04-02T09:24:49.000Z</time>
      </trkpt>
      <trkpt lat="42.96001" lon="0.84231">
        <ele>1584</ele>
        <time>2018-04-02T09:24:51.000Z</time>
      </trkpt>
      <trkpt lat="42.96002" lon="0.84233">
        <ele>1585</ele>
        <time>2018-04-02T09:24:53.000Z</time>
      </trkpt>
      <trkpt lat="42.96002" lon="0.84234">
        <ele>1585</ele>
        <time>2018-04-02T09:24:55.000Z</time>
      </trkpt>
      <trkpt lat="42.96003" lon="0.84235">
        <ele>1585</ele>
        <time>2018-04-02T09:24:57.000Z</time>
      </trkpt>
      <trkpt lat="42.96005" lon="0.84237">
        <ele>1585</ele>
        <time>2018-04-02T09:24:59.000Z</time>
      </trkpt>
      <trkpt lat="42.96005" lon="0.84238">
        <ele>1585</ele>
        <time>2018-04-02T09:25:01.000Z</time>
      </trkpt>
      <trkpt lat="42.96007" lon="0.8424">
        <ele>1586</ele>
        <time>2018-04-02T09:25:03.000Z</time>
      </trkpt>
      <trkpt lat="42.96008" lon="0.84241">
        <ele>1586</ele>
        <time>2018-04-02T09:25:05.000Z</time>
      </trkpt>
      <trkpt lat="42.96008" lon="0.84243">
        <ele>1586</ele>
        <time>2018-04-02T09:25:07.000Z</time>
      </trkpt>
      <trkpt lat="42.96009" lon="0.84244">
        <ele>1586</ele>
        <time>2018-04-02T09:25:09.000Z</time>
      </trkpt>
      <trkpt lat="42.9601" lon="0.84245">
        <ele>1586</ele>
        <time>2018-04-02T09:25:11.000Z</time>
      </trkpt>
      <trkpt lat="42.96011" lon="0.84247">
        <ele>1586</ele>
        <time>2018-04-02T09:25:13.000Z</time>
      </trkpt>
      <trkpt lat="42.96012" lon="0.84249">
        <ele>1586</ele>
        <time>2018-04-02T09:25:15.000Z</time>
      </trkpt>
      <trkpt lat="42.96013" lon="0.8425">
        <ele>1586</ele>
        <time>2018-04-02T09:25:17.000Z</time>
      </trkpt>
      <trkpt lat="42.96014" lon="0.84252">
        <ele>1586</ele>
        <time>2018-04-02T09:25:19.000Z</time>
      </trkpt>
      <trkpt lat="42.96015" lon="0.84254">
        <ele>1586</ele>
        <time>2018-04-02T09:25:21.000Z</time>
      </trkpt>
      <trkpt lat="42.96016" lon="0.84255">
        <ele>1586</ele>
        <time>2018-04-02T09:25:23.000Z</time>
      </trkpt>
      <trkpt lat="42.96017" lon="0.84257">
        <ele>1586</ele>
        <time>2018-04-02T09:25:25.000Z</time>
      </trkpt>
      <trkpt lat="42.96018" lon="0.84259">
        <ele>1586</ele>
        <time>2018-04-02T09:25:27.000Z</time>
      </trkpt>
      <trkpt lat="42.96019" lon="0.84261">
        <ele>1586</ele>
        <time>2018-04-02T09:25:29.000Z</time>
      </trkpt>
      <trkpt lat="42.96019" lon="0.84262">
        <ele>1586</ele>
        <time>2018-04-02T09:25:31.000Z</time>
      </trkpt>
      <trkpt lat="42.9602" lon="0.84264">
        <ele>1586</ele>
        <time>2018-04-02T09:25:33.000Z</time>
      </trkpt>
      <trkpt lat="42.96021" lon="0.84266">
        <ele>1586</ele>
        <time>2018-04-02T09:25:35.000Z</time>
      </trkpt>
      <trkpt lat="42.96021" lon="0.84268">
        <ele>1586</ele>
        <time>2018-04-02T09:25:37.000Z</time>
      </trkpt>
      <trkpt lat="42.96022" lon="0.8427">
        <ele>1586</ele>
        <time>2018-04-02T09:25:39.000Z</time>
      </trkpt>
      <trkpt lat="42.96024" lon="0.84272">
        <ele>1586</ele>
        <time>2018-04-02T09:25:41.000Z</time>
      </trkpt>
      <trkpt lat="42.96025" lon="0.84274">
        <ele>1586</ele>
        <time>2018-04-02T09:25:43.000Z</time>
      </trkpt>
      <trkpt lat="42.96026" lon="0.84275">
        <ele>1586</ele>
        <time>2018-04-02T09:25:45.000Z</time>
      </trkpt>
      <trkpt lat="42.96027" lon="0.84277">
        <ele>1586</ele>
        <time>2018-04-02T09:25:47.000Z</time>
      </trkpt>
      <trkpt lat="42.96028" lon="0.84278">
        <ele>1586</ele>
        <time>2018-04-02T09:25:49.000Z</time>
      </trkpt>
      <trkpt lat="42.96029" lon="0.84279">
        <ele>1586</ele>
        <time>2018-04-02T09:25:51.000Z</time>
      </trkpt>
      <trkpt lat="42.9603" lon="0.84281">
        <ele>1586</ele>
        <time>2018-04-02T09:25:53.000Z</time>
      </trkpt>
      <trkpt lat="42.96031" lon="0.84282">
        <ele>1586</ele>
        <time>2018-04-02T09:25:55.000Z</time>
      </trkpt>
      <trkpt lat="42.96033" lon="0.84283">
        <ele>1586</ele>
        <time>2018-04-02T09:25:57.000Z</time>
      </trkpt>
      <trkpt lat="42.96034" lon="0.84285">
        <ele>1586</ele>
        <time>2018-04-02T09:25:59.000Z</time>
      </trkpt>
      <trkpt lat="42.96034" lon="0.84287">
        <ele>1586</ele>
        <time>2018-04-02T09:26:01.000Z</time>
      </trkpt>
      <trkpt lat="42.96035" lon="0.84289">
        <ele>1586</ele>
        <time>2018-04-02T09:26:03.000Z</time>
      </trkpt>
      <trkpt lat="42.96036" lon="0.8429">
        <ele>1586</ele>
        <time>2018-04-02T09:26:05.000Z</time>
      </trkpt>
      <trkpt lat="42.96037" lon="0.84292">
        <ele>1586</ele>
        <time>2018-04-02T09:26:07.000Z</time>
      </trkpt>
      <trkpt lat="42.96038" lon="0.84293">
        <ele>1586</ele>
        <time>2018-04-02T09:26:09.000Z</time>
      </trkpt>
      <trkpt lat="42.96039" lon="0.84294">
        <ele>1586</ele>
        <time>2018-04-02T09:26:11.000Z</time>
      </trkpt>
      <trkpt lat="42.9604" lon="0.84295">
        <ele>1587</ele>
        <time>2018-04-02T09:26:13.000Z</time>
      </trkpt>
      <trkpt lat="42.96041" lon="0.84296">
        <ele>1587</ele>
        <time>2018-04-02T09:26:15.000Z</time>
      </trkpt>
      <trkpt lat="42.96041" lon="0.84297">
        <ele>1587</ele>
        <time>2018-04-02T09:26:17.000Z</time>
      </trkpt>
      <trkpt lat="42.96042" lon="0.84298">
        <ele>1587</ele>
        <time>2018-04-02T09:26:19.000Z</time>
      </trkpt>
      <trkpt lat="42.96043" lon="0.84299">
        <ele>1587</ele>
        <time>2018-04-02T09:26:21.000Z</time>
      </trkpt>
      <trkpt lat="42.96044" lon="0.843">
        <ele>1587</ele>
        <time>2018-04-02T09:26:23.000Z</time>
      </trkpt>
      <trkpt lat="42.96045" lon="0.84301">
        <ele>1587</ele>
        <time>2018-04-02T09:26:25.000Z</time>
      </trkpt>
      <trkpt lat="42.96045" lon="0.84303">
        <ele>1587</ele>
        <time>2018-04-02T09:26:27.000Z</time>
      </trkpt>
      <trkpt lat="42.96046" lon="0.84304">
        <ele>1587</ele>
        <time>2018-04-02T09:26:29.000Z</time>
      </trkpt>
      <trkpt lat="42.96047" lon="0.84305">
        <ele>1587</ele>
        <time>2018-04-02T09:26:31.000Z</time>
      </trkpt>
      <trkpt lat="42.96048" lon="0.84307">
        <ele>1587</ele>
        <time>2018-04-02T09:26:33.000Z</time>
      </trkpt>
      <trkpt lat="42.96049" lon="0.84307">
        <ele>1587</ele>
        <time>2018-04-02T09:26:35.000Z</time>
      </trkpt>
      <trkpt lat="42.96049" lon="0.84307">
        <ele>1587</ele>
        <time>2018-04-02T09:26:37.000Z</time>
      </trkpt>
      <trkpt lat="42.9605" lon="0.84308">
        <ele>1587</ele>
        <time>2018-04-02T09:26:39.000Z</time>
      </trkpt>
      <trkpt lat="42.9605" lon="0.84308">
        <ele>1587</ele>
        <time>2018-04-02T09:26:41.000Z</time>
      </trkpt>
      <trkpt lat="42.96051" lon="0.84309">
        <ele>1587</ele>
        <time>2018-04-02T09:26:43.000Z</time>
      </trkpt>
      <trkpt lat="42.96052" lon="0.8431">
        <ele>1586</ele>
        <time>2018-04-02T09:26:45.000Z</time>
      </trkpt>
      <trkpt lat="42.96053" lon="0.84311">
        <ele>1586</ele>
        <time>2018-04-02T09:26:47.000Z</time>
      </trkpt>
      <trkpt lat="42.96054" lon="0.84313">
        <ele>1586</ele>
        <time>2018-04-02T09:26:49.000Z</time>
      </trkpt>
      <trkpt lat="42.96054" lon="0.84314">
        <ele>1586</ele>
        <time>2018-04-02T09:26:51.000Z</time>
      </trkpt>
      <trkpt lat="42.96054" lon="0.84315">
        <ele>1586</ele>
        <time>2018-04-02T09:26:53.000Z</time>
      </trkpt>
      <trkpt lat="42.96054" lon="0.84316">
        <ele>1586</ele>
        <time>2018-04-02T09:26:55.000Z</time>
      </trkpt>
      <trkpt lat="42.96054" lon="0.84316">
        <ele>1586</ele>
        <time>2018-04-02T09:26:57.000Z</time>
      </trkpt>
      <trkpt lat="42.96054" lon="0.84316">
        <ele>1586</ele>
        <time>2018-04-02T09:26:59.000Z</time>
      </trkpt>
      <trkpt lat="42.96055" lon="0.84317">
        <ele>1586</ele>
        <time>2018-04-02T09:27:01.000Z</time>
      </trkpt>
      <trkpt lat="42.96055" lon="0.84317">
        <ele>1586</ele>
        <time>2018-04-02T09:27:03.000Z</time>
      </trkpt>
      <trkpt lat="42.96056" lon="0.84318">
        <ele>1585</ele>
        <time>2018-04-02T09:27:05.000Z</time>
      </trkpt>
      <trkpt lat="42.96057" lon="0.84319">
        <ele>1585</ele>
        <time>2018-04-02T09:27:07.000Z</time>
      </trkpt>
      <trkpt lat="42.96057" lon="0.84319">
        <ele>1585</ele>
        <time>2018-04-02T09:27:09.000Z</time>
      </trkpt>
      <trkpt lat="42.96059" lon="0.8432">
        <ele>1585</ele>
        <time>2018-04-02T09:27:11.000Z</time>
      </trkpt>
      <trkpt lat="42.9606" lon="0.84321">
        <ele>1585</ele>
        <time>2018-04-02T09:27:13.000Z</time>
      </trkpt>
      <trkpt lat="42.9606" lon="0.84321">
        <ele>1585</ele>
        <time>2018-04-02T09:27:15.000Z</time>
      </trkpt>
      <trkpt lat="42.96061" lon="0.84322">
        <ele>1585</ele>
        <time>2018-04-02T09:27:17.000Z</time>
      </trkpt>
      <trkpt lat="42.96062" lon="0.84323">
        <ele>1585</ele>
        <time>2018-04-02T09:27:19.000Z</time>
      </trkpt>
      <trkpt lat="42.96063" lon="0.84323">
        <ele>1585</ele>
        <time>2018-04-02T09:27:21.000Z</time>
      </trkpt>
      <trkpt lat="42.96064" lon="0.84323">
        <ele>1585</ele>
        <time>2018-04-02T09:27:23.000Z</time>
      </trkpt>
      <trkpt lat="42.96064" lon="0.84324">
        <ele>1585</ele>
        <time>2018-04-02T09:27:25.000Z</time>
      </trkpt>
      <trkpt lat="42.96065" lon="0.84325">
        <ele>1585</ele>
        <time>2018-04-02T09:27:27.000Z</time>
      </trkpt>
      <trkpt lat="42.96066" lon="0.84326">
        <ele>1585</ele>
        <time>2018-04-02T09:27:29.000Z</time>
      </trkpt>
      <trkpt lat="42.96067" lon="0.84326">
        <ele>1585</ele>
        <time>2018-04-02T09:27:31.000Z</time>
      </trkpt>
      <trkpt lat="42.96067" lon="0.84326">
        <ele>1585</ele>
        <time>2018-04-02T09:27:33.000Z</time>
      </trkpt>
      <trkpt lat="42.96067" lon="0.84326">
        <ele>1585</ele>
        <time>2018-04-02T09:27:35.000Z</time>
      </trkpt>
      <trkpt lat="42.96068" lon="0.84326">
        <ele>1585</ele>
        <time>2018-04-02T09:27:37.000Z</time>
      </trkpt>
      <trkpt lat="42.96068" lon="0.84325">
        <ele>1585</ele>
        <time>2018-04-02T09:27:39.000Z</time>
      </trkpt>
      <trkpt lat="42.96068" lon="0.84325">
        <ele>1586</ele>
        <time>2018-04-02T09:27:41.000Z</time>
      </trkpt>
      <trkpt lat="42.96069" lon="0.84326">
        <ele>1586</ele>
        <time>2018-04-02T09:27:43.000Z</time>
      </trkpt>
      <trkpt lat="42.9607" lon="0.84326">
        <ele>1586</ele>
        <time>2018-04-02T09:27:45.000Z</time>
      </trkpt>
      <trkpt lat="42.9607" lon="0.84325">
        <ele>1586</ele>
        <time>2018-04-02T09:27:47.000Z</time>
      </trkpt>
      <trkpt lat="42.96071" lon="0.84325">
        <ele>1586</ele>
        <time>2018-04-02T09:27:49.000Z</time>
      </trkpt>
      <trkpt lat="42.96072" lon="0.84325">
        <ele>1586</ele>
        <time>2018-04-02T09:27:51.000Z</time>
      </trkpt>
      <trkpt lat="42.96073" lon="0.84325">
        <ele>1586</ele>
        <time>2018-04-02T09:27:53.000Z</time>
      </trkpt>
      <trkpt lat="42.96074" lon="0.84325">
        <ele>1586</ele>
        <time>2018-04-02T09:27:55.000Z</time>
      </trkpt>
      <trkpt lat="42.96074" lon="0.84325">
        <ele>1586</ele>
        <time>2018-04-02T09:27:57.000Z</time>
      </trkpt>
      <trkpt lat="42.96075" lon="0.84325">
        <ele>1586</ele>
        <time>2018-04-02T09:27:59.000Z</time>
      </trkpt>
      <trkpt lat="42.96075" lon="0.84325">
        <ele>1586</ele>
        <time>2018-04-02T09:28:01.000Z</time>
      </trkpt>
      <trkpt lat="42.96076" lon="0.84325">
        <ele>1587</ele>
        <time>2018-04-02T09:28:03.000Z</time>
      </trkpt>
      <trkpt lat="42.96077" lon="0.84324">
        <ele>1587</ele>
        <time>2018-04-02T09:28:05.000Z</time>
      </trkpt>
      <trkpt lat="42.96077" lon="0.84324">
        <ele>1587</ele>
        <time>2018-04-02T09:28:07.000Z</time>
      </trkpt>
      <trkpt lat="42.96078" lon="0.84324">
        <ele>1587</ele>
        <time>2018-04-02T09:28:09.000Z</time>
      </trkpt>
      <trkpt lat="42.96078" lon="0.84323">
        <ele>1587</ele>
        <time>2018-04-02T09:28:11.000Z</time>
      </trkpt>
      <trkpt lat="42.96078" lon="0.84323">
        <ele>1587</ele>
        <time>2018-04-02T09:28:13.000Z</time>
      </trkpt>
      <trkpt lat="42.96078" lon="0.84324">
        <ele>1587</ele>
        <time>2018-04-02T09:28:15.000Z</time>
      </trkpt>
      <trkpt lat="42.96078" lon="0.84323">
        <ele>1587</ele>
        <time>2018-04-02T09:28:17.000Z</time>
      </trkpt>
      <trkpt lat="42.96078" lon="0.84323">
        <ele>1587</ele>
        <time>2018-04-02T09:28:19.000Z</time>
      </trkpt>
      <trkpt lat="42.96079" lon="0.84324">
        <ele>1587</ele>
        <time>2018-04-02T09:28:21.000Z</time>
      </trkpt>
      <trkpt lat="42.9608" lon="0.84325">
        <ele>1587</ele>
        <time>2018-04-02T09:28:23.000Z</time>
      </trkpt>
      <trkpt lat="42.9608" lon="0.84326">
        <ele>1587</ele>
        <time>2018-04-02T09:28:25.000Z</time>
      </trkpt>
      <trkpt lat="42.9608" lon="0.84327">
        <ele>1587</ele>
        <time>2018-04-02T09:28:27.000Z</time>
      </trkpt>
      <trkpt lat="42.96081" lon="0.84328">
        <ele>1587</ele>
        <time>2018-04-02T09:28:29.000Z</time>
      </trkpt>
      <trkpt lat="42.96081" lon="0.84329">
        <ele>1586</ele>
        <time>2018-04-02T09:28:31.000Z</time>
      </trkpt>
      <trkpt lat="42.96081" lon="0.84329">
        <ele>1586</ele>
        <time>2018-04-02T09:28:33.000Z</time>
      </trkpt>
      <trkpt lat="42.96081" lon="0.8433">
        <ele>1586</ele>
        <time>2018-04-02T09:28:35.000Z</time>
      </trkpt>
      <trkpt lat="42.96081" lon="0.8433">
        <ele>1586</ele>
        <time>2018-04-02T09:28:37.000Z</time>
      </trkpt>
      <trkpt lat="42.96082" lon="0.8433">
        <ele>1586</ele>
        <time>2018-04-02T09:28:39.000Z</time>
      </trkpt>
      <trkpt lat="42.96082" lon="0.8433">
        <ele>1586</ele>
        <time>2018-04-02T09:28:41.000Z</time>
      </trkpt>
      <trkpt lat="42.96083" lon="0.8433">
        <ele>1586</ele>
        <time>2018-04-02T09:28:43.000Z</time>
      </trkpt>
      <trkpt lat="42.96083" lon="0.84331">
        <ele>1586</ele>
        <time>2018-04-02T09:28:45.000Z</time>
      </trkpt>
      <trkpt lat="42.96084" lon="0.84332">
        <ele>1586</ele>
        <time>2018-04-02T09:28:47.000Z</time>
      </trkpt>
      <trkpt lat="42.96085" lon="0.84332">
        <ele>1586</ele>
        <time>2018-04-02T09:28:49.000Z</time>
      </trkpt>
      <trkpt lat="42.96085" lon="0.84333">
        <ele>1586</ele>
        <time>2018-04-02T09:28:51.000Z</time>
      </trkpt>
      <trkpt lat="42.96085" lon="0.84334">
        <ele>1586</ele>
        <time>2018-04-02T09:28:53.000Z</time>
      </trkpt>
      <trkpt lat="42.96085" lon="0.84334">
        <ele>1586</ele>
        <time>2018-04-02T09:28:55.000Z</time>
      </trkpt>
      <trkpt lat="42.96087" lon="0.84334">
        <ele>1586</ele>
        <time>2018-04-02T09:28:57.000Z</time>
      </trkpt>
      <trkpt lat="42.96087" lon="0.84335">
        <ele>1586</ele>
        <time>2018-04-02T09:28:59.000Z</time>
      </trkpt>
      <trkpt lat="42.96087" lon="0.84335">
        <ele>1586</ele>
        <time>2018-04-02T09:29:01.000Z</time>
      </trkpt>
      <trkpt lat="42.96087" lon="0.84335">
        <ele>1586</ele>
        <time>2018-04-02T09:29:03.000Z</time>
      </trkpt>
      <trkpt lat="42.96087" lon="0.84335">
        <ele>1586</ele>
        <time>2018-04-02T09:29:05.000Z</time>
      </trkpt>
      <trkpt lat="42.96087" lon="0.84335">
        <ele>1586</ele>
        <time>2018-04-02T09:29:07.000Z</time>
      </trkpt>
      <trkpt lat="42.96086" lon="0.84336">
        <ele>1586</ele>
        <time>2018-04-02T09:29:09.000Z</time>
      </trkpt>
      <trkpt lat="42.96086" lon="0.84335">
        <ele>1586</ele>
        <time>2018-04-02T09:29:11.000Z</time>
      </trkpt>
      <trkpt lat="42.96087" lon="0.84335">
        <ele>1586</ele>
        <time>2018-04-02T09:29:13.000Z</time>
      </trkpt>
      <trkpt lat="42.96087" lon="0.84336">
        <ele>1586</ele>
        <time>2018-04-02T09:29:15.000Z</time>
      </trkpt>
      <trkpt lat="42.96087" lon="0.84336">
        <ele>1586</ele>
        <time>2018-04-02T09:29:17.000Z</time>
      </trkpt>
      <trkpt lat="42.96088" lon="0.84337">
        <ele>1586</ele>
        <time>2018-04-02T09:29:19.000Z</time>
      </trkpt>
      <trkpt lat="42.96089" lon="0.84337">
        <ele>1586</ele>
        <time>2018-04-02T09:29:21.000Z</time>
      </trkpt>
      <trkpt lat="42.9609" lon="0.84338">
        <ele>1586</ele>
        <time>2018-04-02T09:29:23.000Z</time>
      </trkpt>
      <trkpt lat="42.9609" lon="0.84338">
        <ele>1586</ele>
        <time>2018-04-02T09:29:25.000Z</time>
      </trkpt>
      <trkpt lat="42.96091" lon="0.84338">
        <ele>1586</ele>
        <time>2018-04-02T09:29:27.000Z</time>
      </trkpt>
      <trkpt lat="42.96092" lon="0.84339">
        <ele>1586</ele>
        <time>2018-04-02T09:29:29.000Z</time>
      </trkpt>
      <trkpt lat="42.96092" lon="0.8434">
        <ele>1585</ele>
        <time>2018-04-02T09:29:31.000Z</time>
      </trkpt>
      <trkpt lat="42.96093" lon="0.84341">
        <ele>1585</ele>
        <time>2018-04-02T09:29:33.000Z</time>
      </trkpt>
      <trkpt lat="42.96094" lon="0.84342">
        <ele>1585</ele>
        <time>2018-04-02T09:29:35.000Z</time>
      </trkpt>
      <trkpt lat="42.96094" lon="0.84342">
        <ele>1585</ele>
        <time>2018-04-02T09:29:37.000Z</time>
      </trkpt>
      <trkpt lat="42.96095" lon="0.84342">
        <ele>1585</ele>
        <time>2018-04-02T09:29:39.000Z</time>
      </trkpt>
      <trkpt lat="42.96095" lon="0.84342">
        <ele>1584</ele>
        <time>2018-04-02T09:29:41.000Z</time>
      </trkpt>
      <trkpt lat="42.96096" lon="0.84343">
        <ele>1584</ele>
        <time>2018-04-02T09:29:43.000Z</time>
      </trkpt>
      <trkpt lat="42.96097" lon="0.84343">
        <ele>1584</ele>
        <time>2018-04-02T09:29:45.000Z</time>
      </trkpt>
      <trkpt lat="42.96099" lon="0.84343">
        <ele>1584</ele>
        <time>2018-04-02T09:29:47.000Z</time>
      </trkpt>
      <trkpt lat="42.961" lon="0.84343">
        <ele>1584</ele>
        <time>2018-04-02T09:29:49.000Z</time>
      </trkpt>
      <trkpt lat="42.96101" lon="0.84343">
        <ele>1584</ele>
        <time>2018-04-02T09:29:51.000Z</time>
      </trkpt>
      <trkpt lat="42.96102" lon="0.84344">
        <ele>1583</ele>
        <time>2018-04-02T09:29:53.000Z</time>
      </trkpt>
      <trkpt lat="42.96103" lon="0.84345">
        <ele>1583</ele>
        <time>2018-04-02T09:29:55.000Z</time>
      </trkpt>
      <trkpt lat="42.96104" lon="0.84346">
        <ele>1583</ele>
        <time>2018-04-02T09:29:57.000Z</time>
      </trkpt>
      <trkpt lat="42.96104" lon="0.84348">
        <ele>1582</ele>
        <time>2018-04-02T09:29:59.000Z</time>
      </trkpt>
      <trkpt lat="42.96104" lon="0.84349">
        <ele>1582</ele>
        <time>2018-04-02T09:30:01.000Z</time>
      </trkpt>
      <trkpt lat="42.96104" lon="0.84349">
        <ele>1582</ele>
        <time>2018-04-02T09:30:03.000Z</time>
      </trkpt>
      <trkpt lat="42.96103" lon="0.84349">
        <ele>1582</ele>
        <time>2018-04-02T09:30:05.000Z</time>
      </trkpt>
      <trkpt lat="42.96104" lon="0.8435">
        <ele>1582</ele>
        <time>2018-04-02T09:30:07.000Z</time>
      </trkpt>
      <trkpt lat="42.96104" lon="0.8435">
        <ele>1582</ele>
        <time>2018-04-02T09:30:09.000Z</time>
      </trkpt>
      <trkpt lat="42.96105" lon="0.8435">
        <ele>1582</ele>
        <time>2018-04-02T09:30:11.000Z</time>
      </trkpt>
      <trkpt lat="42.96106" lon="0.8435">
        <ele>1582</ele>
        <time>2018-04-02T09:30:13.000Z</time>
      </trkpt>
      <trkpt lat="42.96107" lon="0.84351">
        <ele>1582</ele>
        <time>2018-04-02T09:30:15.000Z</time>
      </trkpt>
      <trkpt lat="42.96107" lon="0.84351">
        <ele>1581</ele>
        <time>2018-04-02T09:30:17.000Z</time>
      </trkpt>
      <trkpt lat="42.96107" lon="0.84351">
        <ele>1581</ele>
        <time>2018-04-02T09:30:19.000Z</time>
      </trkpt>
      <trkpt lat="42.96107" lon="0.84352">
        <ele>1581</ele>
        <time>2018-04-02T09:30:21.000Z</time>
      </trkpt>
      <trkpt lat="42.96107" lon="0.84352">
        <ele>1581</ele>
        <time>2018-04-02T09:30:23.000Z</time>
      </trkpt>
      <trkpt lat="42.96107" lon="0.84352">
        <ele>1581</ele>
        <time>2018-04-02T09:30:25.000Z</time>
      </trkpt>
      <trkpt lat="42.96107" lon="0.84353">
        <ele>1581</ele>
        <time>2018-04-02T09:30:27.000Z</time>
      </trkpt>
      <trkpt lat="42.96107" lon="0.84353">
        <ele>1581</ele>
        <time>2018-04-02T09:30:29.000Z</time>
      </trkpt>
      <trkpt lat="42.96108" lon="0.84353">
        <ele>1581</ele>
        <time>2018-04-02T09:30:31.000Z</time>
      </trkpt>
      <trkpt lat="42.96108" lon="0.84353">
        <ele>1581</ele>
        <time>2018-04-02T09:30:33.000Z</time>
      </trkpt>
      <trkpt lat="42.96107" lon="0.84353">
        <ele>1581</ele>
        <time>2018-04-02T09:30:35.000Z</time>
      </trkpt>
      <trkpt lat="42.96107" lon="0.84354">
        <ele>1581</ele>
        <time>2018-04-02T09:30:37.000Z</time>
      </trkpt>
      <trkpt lat="42.96107" lon="0.84354">
        <ele>1581</ele>
        <time>2018-04-02T09:30:39.000Z</time>
      </trkpt>
      <trkpt lat="42.96107" lon="0.84354">
        <ele>1581</ele>
        <time>2018-04-02T09:30:41.000Z</time>
      </trkpt>
      <trkpt lat="42.96107" lon="0.84354">
        <ele>1581</ele>
        <time>2018-04-02T09:30:43.000Z</time>
      </trkpt>
      <trkpt lat="42.96106" lon="0.84354">
        <ele>1581</ele>
        <time>2018-04-02T09:30:45.000Z</time>
      </trkpt>
      <trkpt lat="42.96106" lon="0.84354">
        <ele>1581</ele>
        <time>2018-04-02T09:30:47.000Z</time>
      </trkpt>
      <trkpt lat="42.96105" lon="0.84353">
        <ele>1581</ele>
        <time>2018-04-02T09:30:49.000Z</time>
      </trkpt>
      <trkpt lat="42.96105" lon="0.84352">
        <ele>1581</ele>
        <time>2018-04-02T09:30:51.000Z</time>
      </trkpt>
      <trkpt lat="42.96105" lon="0.84352">
        <ele>1582</ele>
        <time>2018-04-02T09:30:53.000Z</time>
      </trkpt>
      <trkpt lat="42.96105" lon="0.84352">
        <ele>1582</ele>
        <time>2018-04-02T09:30:55.000Z</time>
      </trkpt>
      <trkpt lat="42.96104" lon="0.84352">
        <ele>1582</ele>
        <time>2018-04-02T09:30:57.000Z</time>
      </trkpt>
      <trkpt lat="42.96105" lon="0.84352">
        <ele>1582</ele>
        <time>2018-04-02T09:30:59.000Z</time>
      </trkpt>
      <trkpt lat="42.96104" lon="0.84353">
        <ele>1581</ele>
        <time>2018-04-02T09:31:01.000Z</time>
      </trkpt>
      <trkpt lat="42.96104" lon="0.84352">
        <ele>1581</ele>
        <time>2018-04-02T09:31:03.000Z</time>
      </trkpt>
      <trkpt lat="42.96104" lon="0.84353">
        <ele>1581</ele>
        <time>2018-04-02T09:31:05.000Z</time>
      </trkpt>
      <trkpt lat="42.96103" lon="0.84353">
        <ele>1582</ele>
        <time>2018-04-02T09:31:07.000Z</time>
      </trkpt>
      <trkpt lat="42.96104" lon="0.84352">
        <ele>1582</ele>
        <time>2018-04-02T09:31:09.000Z</time>
      </trkpt>
      <trkpt lat="42.96104" lon="0.84352">
        <ele>1582</ele>
        <time>2018-04-02T09:31:11.000Z</time>
      </trkpt>
      <trkpt lat="42.96105" lon="0.84351">
        <ele>1582</ele>
        <time>2018-04-02T09:31:13.000Z</time>
      </trkpt>
      <trkpt lat="42.96105" lon="0.84352">
        <ele>1582</ele>
        <time>2018-04-02T09:31:15.000Z</time>
      </trkpt>
      <trkpt lat="42.96105" lon="0.84352">
        <ele>1581</ele>
        <time>2018-04-02T09:31:17.000Z</time>
      </trkpt>
      <trkpt lat="42.96105" lon="0.84351">
        <ele>1582</ele>
        <time>2018-04-02T09:31:19.000Z</time>
      </trkpt>
      <trkpt lat="42.96105" lon="0.84351">
        <ele>1582</ele>
        <time>2018-04-02T09:31:21.000Z</time>
      </trkpt>
      <trkpt lat="42.96105" lon="0.84351">
        <ele>1582</ele>
        <time>2018-04-02T09:31:23.000Z</time>
      </trkpt>
      <trkpt lat="42.96105" lon="0.84351">
        <ele>1582</ele>
        <time>2018-04-02T09:31:25.000Z</time>
      </trkpt>
      <trkpt lat="42.96105" lon="0.84351">
        <ele>1582</ele>
        <time>2018-04-02T09:31:27.000Z</time>
      </trkpt>
      <trkpt lat="42.96104" lon="0.84351">
        <ele>1582</ele>
        <time>2018-04-02T09:31:29.000Z</time>
      </trkpt>
      <trkpt lat="42.96105" lon="0.84351">
        <ele>1582</ele>
        <time>2018-04-02T09:31:31.000Z</time>
      </trkpt>
      <trkpt lat="42.96105" lon="0.84351">
        <ele>1582</ele>
        <time>2018-04-02T09:31:33.000Z</time>
      </trkpt>
      <trkpt lat="42.96104" lon="0.84351">
        <ele>1582</ele>
        <time>2018-04-02T09:31:35.000Z</time>
      </trkpt>
      <trkpt lat="42.96104" lon="0.84352">
        <ele>1582</ele>
        <time>2018-04-02T09:31:37.000Z</time>
      </trkpt>
      <trkpt lat="42.96104" lon="0.84352">
        <ele>1582</ele>
        <time>2018-04-02T09:31:39.000Z</time>
      </trkpt>
      <trkpt lat="42.96105" lon="0.84351">
        <ele>1582</ele>
        <time>2018-04-02T09:31:41.000Z</time>
      </trkpt>
      <trkpt lat="42.96105" lon="0.84351">
        <ele>1582</ele>
        <time>2018-04-02T09:31:43.000Z</time>
      </trkpt>
      <trkpt lat="42.96105" lon="0.84351">
        <ele>1582</ele>
        <time>2018-04-02T09:31:45.000Z</time>
      </trkpt>
      <trkpt lat="42.96106" lon="0.84351">
        <ele>1582</ele>
        <time>2018-04-02T09:31:47.000Z</time>
      </trkpt>
      <trkpt lat="42.96106" lon="0.84351">
        <ele>1582</ele>
        <time>2018-04-02T09:31:49.000Z</time>
      </trkpt>
      <trkpt lat="42.96106" lon="0.84351">
        <ele>1582</ele>
        <time>2018-04-02T09:31:51.000Z</time>
      </trkpt>
      <trkpt lat="42.96106" lon="0.84351">
        <ele>1582</ele>
        <time>2018-04-02T09:31:53.000Z</time>
      </trkpt>
      <trkpt lat="42.96106" lon="0.84351">
        <ele>1582</ele>
        <time>2018-04-02T09:31:55.000Z</time>
      </trkpt>
      <trkpt lat="42.96105" lon="0.84352">
        <ele>1581</ele>
        <time>2018-04-02T09:31:57.000Z</time>
      </trkpt>
      <trkpt lat="42.96106" lon="0.84352">
        <ele>1581</ele>
        <time>2018-04-02T09:31:59.000Z</time>
      </trkpt>
      <trkpt lat="42.96106" lon="0.84352">
        <ele>1581</ele>
        <time>2018-04-02T09:32:01.000Z</time>
      </trkpt>
      <trkpt lat="42.96106" lon="0.84352">
        <ele>1581</ele>
        <time>2018-04-02T09:32:03.000Z</time>
      </trkpt>
      <trkpt lat="42.96106" lon="0.84352">
        <ele>1581</ele>
        <time>2018-04-02T09:32:05.000Z</time>
      </trkpt>
      <trkpt lat="42.96106" lon="0.84352">
        <ele>1581</ele>
        <time>2018-04-02T09:32:07.000Z</time>
      </trkpt>
      <trkpt lat="42.96106" lon="0.84352">
        <ele>1581</ele>
        <time>2018-04-02T09:32:09.000Z</time>
      </trkpt>
      <trkpt lat="42.96106" lon="0.84352">
        <ele>1581</ele>
        <time>2018-04-02T09:32:11.000Z</time>
      </trkpt>
      <trkpt lat="42.96106" lon="0.84352">
        <ele>1581</ele>
        <time>2018-04-02T09:32:13.000Z</time>
      </trkpt>
      <trkpt lat="42.96106" lon="0.84352">
        <ele>1581</ele>
        <time>2018-04-02T09:32:15.000Z</time>
      </trkpt>
      <trkpt lat="42.96106" lon="0.84352">
        <ele>1581</ele>
        <time>2018-04-02T09:32:17.000Z</time>
      </trkpt>
      <trkpt lat="42.96106" lon="0.84351">
        <ele>1582</ele>
        <time>2018-04-02T09:32:19.000Z</time>
      </trkpt>
      <trkpt lat="42.96106" lon="0.84351">
        <ele>1581</ele>
        <time>2018-04-02T09:32:21.000Z</time>
      </trkpt>
      <trkpt lat="42.96106" lon="0.84351">
        <ele>1582</ele>
        <time>2018-04-02T09:32:23.000Z</time>
      </trkpt>
      <trkpt lat="42.96106" lon="0.84351">
        <ele>1582</ele>
        <time>2018-04-02T09:32:25.000Z</time>
      </trkpt>
      <trkpt lat="42.96106" lon="0.8435">
        <ele>1582</ele>
        <time>2018-04-02T09:32:27.000Z</time>
      </trkpt>
      <trkpt lat="42.96105" lon="0.84351">
        <ele>1582</ele>
        <time>2018-04-02T09:32:29.000Z</time>
      </trkpt>
      <trkpt lat="42.96105" lon="0.84351">
        <ele>1582</ele>
        <time>2018-04-02T09:32:31.000Z</time>
      </trkpt>
      <trkpt lat="42.96105" lon="0.84351">
        <ele>1582</ele>
        <time>2018-04-02T09:32:33.000Z</time>
      </trkpt>
      <trkpt lat="42.96105" lon="0.8435">
        <ele>1582</ele>
        <time>2018-04-02T09:32:35.000Z</time>
      </trkpt>
      <trkpt lat="42.96105" lon="0.84351">
        <ele>1582</ele>
        <time>2018-04-02T09:32:37.000Z</time>
      </trkpt>
      <trkpt lat="42.96105" lon="0.8435">
        <ele>1582</ele>
        <time>2018-04-02T09:32:39.000Z</time>
      </trkpt>
      <trkpt lat="42.96105" lon="0.84351">
        <ele>1582</ele>
        <time>2018-04-02T09:32:41.000Z</time>
      </trkpt>
      <trkpt lat="42.96105" lon="0.84351">
        <ele>1582</ele>
        <time>2018-04-02T09:32:43.000Z</time>
      </trkpt>
      <trkpt lat="42.96105" lon="0.84351">
        <ele>1582</ele>
        <time>2018-04-02T09:32:45.000Z</time>
      </trkpt>
      <trkpt lat="42.96105" lon="0.84351">
        <ele>1582</ele>
        <time>2018-04-02T09:32:47.000Z</time>
      </trkpt>
      <trkpt lat="42.96105" lon="0.84351">
        <ele>1582</ele>
        <time>2018-04-02T09:32:49.000Z</time>
      </trkpt>
      <trkpt lat="42.96106" lon="0.84351">
        <ele>1582</ele>
        <time>2018-04-02T09:32:51.000Z</time>
      </trkpt>
      <trkpt lat="42.96105" lon="0.84352">
        <ele>1581</ele>
        <time>2018-04-02T09:32:53.000Z</time>
      </trkpt>
      <trkpt lat="42.96106" lon="0.84352">
        <ele>1581</ele>
        <time>2018-04-02T09:32:55.000Z</time>
      </trkpt>
      <trkpt lat="42.96106" lon="0.84351">
        <ele>1582</ele>
        <time>2018-04-02T09:32:57.000Z</time>
      </trkpt>
      <trkpt lat="42.96106" lon="0.84351">
        <ele>1582</ele>
        <time>2018-04-02T09:32:59.000Z</time>
      </trkpt>
      <trkpt lat="42.96106" lon="0.84351">
        <ele>1582</ele>
        <time>2018-04-02T09:33:01.000Z</time>
      </trkpt>
      <trkpt lat="42.96106" lon="0.84351">
        <ele>1582</ele>
        <time>2018-04-02T09:33:03.000Z</time>
      </trkpt>
      <trkpt lat="42.96106" lon="0.8435">
        <ele>1582</ele>
        <time>2018-04-02T09:33:05.000Z</time>
      </trkpt>
      <trkpt lat="42.96106" lon="0.84351">
        <ele>1582</ele>
        <time>2018-04-02T09:33:07.000Z</time>
      </trkpt>
      <trkpt lat="42.96106" lon="0.84351">
        <ele>1582</ele>
        <time>2018-04-02T09:33:09.000Z</time>
      </trkpt>
      <trkpt lat="42.96106" lon="0.84351">
        <ele>1582</ele>
        <time>2018-04-02T09:33:11.000Z</time>
      </trkpt>
      <trkpt lat="42.96105" lon="0.84351">
        <ele>1582</ele>
        <time>2018-04-02T09:33:13.000Z</time>
      </trkpt>
      <trkpt lat="42.96105" lon="0.8435">
        <ele>1582</ele>
        <time>2018-04-02T09:33:15.000Z</time>
      </trkpt>
      <trkpt lat="42.96105" lon="0.8435">
        <ele>1582</ele>
        <time>2018-04-02T09:33:17.000Z</time>
      </trkpt>
      <trkpt lat="42.96105" lon="0.8435">
        <ele>1582</ele>
        <time>2018-04-02T09:33:19.000Z</time>
      </trkpt>
      <trkpt lat="42.96106" lon="0.84349">
        <ele>1582</ele>
        <time>2018-04-02T09:33:21.000Z</time>
      </trkpt>
      <trkpt lat="42.96106" lon="0.84349">
        <ele>1582</ele>
        <time>2018-04-02T09:33:23.000Z</time>
      </trkpt>
      <trkpt lat="42.96106" lon="0.84349">
        <ele>1582</ele>
        <time>2018-04-02T09:33:25.000Z</time>
      </trkpt>
      <trkpt lat="42.96106" lon="0.84349">
        <ele>1582</ele>
        <time>2018-04-02T09:33:27.000Z</time>
      </trkpt>
      <trkpt lat="42.96106" lon="0.84349">
        <ele>1582</ele>
        <time>2018-04-02T09:33:29.000Z</time>
      </trkpt>
      <trkpt lat="42.96106" lon="0.84349">
        <ele>1582</ele>
        <time>2018-04-02T09:33:31.000Z</time>
      </trkpt>
      <trkpt lat="42.96106" lon="0.8435">
        <ele>1582</ele>
        <time>2018-04-02T09:33:33.000Z</time>
      </trkpt>
      <trkpt lat="42.96106" lon="0.8435">
        <ele>1582</ele>
        <time>2018-04-02T09:33:35.000Z</time>
      </trkpt>
      <trkpt lat="42.96106" lon="0.8435">
        <ele>1582</ele>
        <time>2018-04-02T09:33:37.000Z</time>
      </trkpt>
      <trkpt lat="42.96106" lon="0.8435">
        <ele>1582</ele>
        <time>2018-04-02T09:33:39.000Z</time>
      </trkpt>
      <trkpt lat="42.96106" lon="0.8435">
        <ele>1582</ele>
        <time>2018-04-02T09:33:41.000Z</time>
      </trkpt>
      <trkpt lat="42.96106" lon="0.8435">
        <ele>1582</ele>
        <time>2018-04-02T09:33:43.000Z</time>
      </trkpt>
      <trkpt lat="42.96106" lon="0.8435">
        <ele>1582</ele>
        <time>2018-04-02T09:33:45.000Z</time>
      </trkpt>
      <trkpt lat="42.96106" lon="0.84351">
        <ele>1582</ele>
        <time>2018-04-02T09:33:47.000Z</time>
      </trkpt>
      <trkpt lat="42.96106" lon="0.8435">
        <ele>1582</ele>
        <time>2018-04-02T09:33:49.000Z</time>
      </trkpt>
      <trkpt lat="42.96106" lon="0.84351">
        <ele>1582</ele>
        <time>2018-04-02T09:33:51.000Z</time>
      </trkpt>
      <trkpt lat="42.96106" lon="0.84351">
        <ele>1582</ele>
        <time>2018-04-02T09:33:53.000Z</time>
      </trkpt>
      <trkpt lat="42.96106" lon="0.84351">
        <ele>1582</ele>
        <time>2018-04-02T09:33:55.000Z</time>
      </trkpt>
      <trkpt lat="42.96106" lon="0.8435">
        <ele>1582</ele>
        <time>2018-04-02T09:33:57.000Z</time>
      </trkpt>
      <trkpt lat="42.96106" lon="0.84351">
        <ele>1582</ele>
        <time>2018-04-02T09:33:59.000Z</time>
      </trkpt>
      <trkpt lat="42.96106" lon="0.84351">
        <ele>1582</ele>
        <time>2018-04-02T09:34:01.000Z</time>
      </trkpt>
      <trkpt lat="42.96105" lon="0.84352">
        <ele>1582</ele>
        <time>2018-04-02T09:34:03.000Z</time>
      </trkpt>
      <trkpt lat="42.96105" lon="0.84352">
        <ele>1581</ele>
        <time>2018-04-02T09:34:05.000Z</time>
      </trkpt>
      <trkpt lat="42.96105" lon="0.84352">
        <ele>1581</ele>
        <time>2018-04-02T09:34:07.000Z</time>
      </trkpt>
      <trkpt lat="42.96105" lon="0.84352">
        <ele>1581</ele>
        <time>2018-04-02T09:34:09.000Z</time>
      </trkpt>
      <trkpt lat="42.96105" lon="0.84352">
        <ele>1581</ele>
        <time>2018-04-02T09:34:11.000Z</time>
      </trkpt>
      <trkpt lat="42.96106" lon="0.84352">
        <ele>1581</ele>
        <time>2018-04-02T09:34:13.000Z</time>
      </trkpt>
      <trkpt lat="42.96106" lon="0.84352">
        <ele>1581</ele>
        <time>2018-04-02T09:34:15.000Z</time>
      </trkpt>
      <trkpt lat="42.96105" lon="0.84352">
        <ele>1581</ele>
        <time>2018-04-02T09:34:17.000Z</time>
      </trkpt>
      <trkpt lat="42.96106" lon="0.84352">
        <ele>1581</ele>
        <time>2018-04-02T09:34:19.000Z</time>
      </trkpt>
      <trkpt lat="42.96106" lon="0.84352">
        <ele>1581</ele>
        <time>2018-04-02T09:34:21.000Z</time>
      </trkpt>
      <trkpt lat="42.96106" lon="0.84353">
        <ele>1581</ele>
        <time>2018-04-02T09:34:23.000Z</time>
      </trkpt>
      <trkpt lat="42.96106" lon="0.84353">
        <ele>1581</ele>
        <time>2018-04-02T09:34:25.000Z</time>
      </trkpt>
      <trkpt lat="42.96106" lon="0.84354">
        <ele>1581</ele>
        <time>2018-04-02T09:34:27.000Z</time>
      </trkpt>
      <trkpt lat="42.96105" lon="0.84353">
        <ele>1581</ele>
        <time>2018-04-02T09:34:29.000Z</time>
      </trkpt>
      <trkpt lat="42.96105" lon="0.84352">
        <ele>1581</ele>
        <time>2018-04-02T09:34:31.000Z</time>
      </trkpt>
      <trkpt lat="42.96105" lon="0.84352">
        <ele>1581</ele>
        <time>2018-04-02T09:34:33.000Z</time>
      </trkpt>
      <trkpt lat="42.96105" lon="0.84352">
        <ele>1581</ele>
        <time>2018-04-02T09:34:35.000Z</time>
      </trkpt>
      <trkpt lat="42.96105" lon="0.84352">
        <ele>1581</ele>
        <time>2018-04-02T09:34:37.000Z</time>
      </trkpt>
      <trkpt lat="42.96105" lon="0.84353">
        <ele>1581</ele>
        <time>2018-04-02T09:34:39.000Z</time>
      </trkpt>
      <trkpt lat="42.96105" lon="0.84352">
        <ele>1581</ele>
        <time>2018-04-02T09:34:41.000Z</time>
      </trkpt>
      <trkpt lat="42.96105" lon="0.84353">
        <ele>1581</ele>
        <time>2018-04-02T09:34:43.000Z</time>
      </trkpt>
      <trkpt lat="42.96105" lon="0.84352">
        <ele>1581</ele>
        <time>2018-04-02T09:34:45.000Z</time>
      </trkpt>
      <trkpt lat="42.96105" lon="0.84352">
        <ele>1581</ele>
        <time>2018-04-02T09:34:47.000Z</time>
      </trkpt>
      <trkpt lat="42.96105" lon="0.84352">
        <ele>1581</ele>
        <time>2018-04-02T09:34:49.000Z</time>
      </trkpt>
      <trkpt lat="42.96105" lon="0.84353">
        <ele>1581</ele>
        <time>2018-04-02T09:34:51.000Z</time>
      </trkpt>
      <trkpt lat="42.96105" lon="0.84353">
        <ele>1581</ele>
        <time>2018-04-02T09:34:53.000Z</time>
      </trkpt>
      <trkpt lat="42.96105" lon="0.84353">
        <ele>1581</ele>
        <time>2018-04-02T09:34:55.000Z</time>
      </trkpt>
      <trkpt lat="42.96105" lon="0.84354">
        <ele>1581</ele>
        <time>2018-04-02T09:34:57.000Z</time>
      </trkpt>
      <trkpt lat="42.96104" lon="0.84354">
        <ele>1581</ele>
        <time>2018-04-02T09:34:59.000Z</time>
      </trkpt>
      <trkpt lat="42.96104" lon="0.84354">
        <ele>1581</ele>
        <time>2018-04-02T09:35:01.000Z</time>
      </trkpt>
      <trkpt lat="42.96103" lon="0.84354">
        <ele>1581</ele>
        <time>2018-04-02T09:35:03.000Z</time>
      </trkpt>
      <trkpt lat="42.96102" lon="0.84353">
        <ele>1582</ele>
        <time>2018-04-02T09:35:05.000Z</time>
      </trkpt>
      <trkpt lat="42.96101" lon="0.84352">
        <ele>1582</ele>
        <time>2018-04-02T09:35:07.000Z</time>
      </trkpt>
      <trkpt lat="42.961" lon="0.84351">
        <ele>1582</ele>
        <time>2018-04-02T09:35:09.000Z</time>
      </trkpt>
      <trkpt lat="42.96098" lon="0.84349">
        <ele>1583</ele>
        <time>2018-04-02T09:35:11.000Z</time>
      </trkpt>
      <trkpt lat="42.96097" lon="0.84348">
        <ele>1583</ele>
        <time>2018-04-02T09:35:13.000Z</time>
      </trkpt>
      <trkpt lat="42.96097" lon="0.84347">
        <ele>1583</ele>
        <time>2018-04-02T09:35:15.000Z</time>
      </trkpt>
      <trkpt lat="42.96096" lon="0.84346">
        <ele>1584</ele>
        <time>2018-04-02T09:35:17.000Z</time>
      </trkpt>
      <trkpt lat="42.96096" lon="0.84345">
        <ele>1584</ele>
        <time>2018-04-02T09:35:19.000Z</time>
      </trkpt>
      <trkpt lat="42.96096" lon="0.84345">
        <ele>1584</ele>
        <time>2018-04-02T09:35:21.000Z</time>
      </trkpt>
      <trkpt lat="42.96097" lon="0.84344">
        <ele>1584</ele>
        <time>2018-04-02T09:35:23.000Z</time>
      </trkpt>
      <trkpt lat="42.96097" lon="0.84344">
        <ele>1584</ele>
        <time>2018-04-02T09:35:25.000Z</time>
      </trkpt>
      <trkpt lat="42.96097" lon="0.84344">
        <ele>1584</ele>
        <time>2018-04-02T09:35:27.000Z</time>
      </trkpt>
      <trkpt lat="42.96097" lon="0.84344">
        <ele>1584</ele>
        <time>2018-04-02T09:35:29.000Z</time>
      </trkpt>
      <trkpt lat="42.96097" lon="0.84345">
        <ele>1584</ele>
        <time>2018-04-02T09:35:31.000Z</time>
      </trkpt>
      <trkpt lat="42.96097" lon="0.84345">
        <ele>1584</ele>
        <time>2018-04-02T09:35:33.000Z</time>
      </trkpt>
      <trkpt lat="42.96097" lon="0.84345">
        <ele>1584</ele>
        <time>2018-04-02T09:35:35.000Z</time>
      </trkpt>
      <trkpt lat="42.96097" lon="0.84345">
        <ele>1584</ele>
        <time>2018-04-02T09:35:37.000Z</time>
      </trkpt>
      <trkpt lat="42.96097" lon="0.84345">
        <ele>1584</ele>
        <time>2018-04-02T09:35:39.000Z</time>
      </trkpt>
      <trkpt lat="42.96097" lon="0.84345">
        <ele>1584</ele>
        <time>2018-04-02T09:35:41.000Z</time>
      </trkpt>
      <trkpt lat="42.96097" lon="0.84345">
        <ele>1584</ele>
        <time>2018-04-02T09:35:43.000Z</time>
      </trkpt>
      <trkpt lat="42.96097" lon="0.84345">
        <ele>1584</ele>
        <time>2018-04-02T09:35:45.000Z</time>
      </trkpt>
      <trkpt lat="42.96097" lon="0.84345">
        <ele>1584</ele>
        <time>2018-04-02T09:35:47.000Z</time>
      </trkpt>
      <trkpt lat="42.96097" lon="0.84345">
        <ele>1584</ele>
        <time>2018-04-02T09:35:49.000Z</time>
      </trkpt>
      <trkpt lat="42.96097" lon="0.84345">
        <ele>1584</ele>
        <time>2018-04-02T09:35:51.000Z</time>
      </trkpt>
      <trkpt lat="42.96096" lon="0.84345">
        <ele>1584</ele>
        <time>2018-04-02T09:35:53.000Z</time>
      </trkpt>
      <trkpt lat="42.96096" lon="0.84344">
        <ele>1584</ele>
        <time>2018-04-02T09:35:55.000Z</time>
      </trkpt>
      <trkpt lat="42.96096" lon="0.84344">
        <ele>1584</ele>
        <time>2018-04-02T09:35:57.000Z</time>
      </trkpt>
      <trkpt lat="42.96096" lon="0.84344">
        <ele>1584</ele>
        <time>2018-04-02T09:35:59.000Z</time>
      </trkpt>
      <trkpt lat="42.96096" lon="0.84344">
        <ele>1584</ele>
        <time>2018-04-02T09:36:01.000Z</time>
      </trkpt>
      <trkpt lat="42.96096" lon="0.84344">
        <ele>1584</ele>
        <time>2018-04-02T09:36:03.000Z</time>
      </trkpt>
      <trkpt lat="42.96096" lon="0.84344">
        <ele>1584</ele>
        <time>2018-04-02T09:36:05.000Z</time>
      </trkpt>
      <trkpt lat="42.96096" lon="0.84344">
        <ele>1584</ele>
        <time>2018-04-02T09:36:07.000Z</time>
      </trkpt>
      <trkpt lat="42.96096" lon="0.84344">
        <ele>1584</ele>
        <time>2018-04-02T09:36:09.000Z</time>
      </trkpt>
      <trkpt lat="42.96096" lon="0.84344">
        <ele>1584</ele>
        <time>2018-04-02T09:36:11.000Z</time>
      </trkpt>
      <trkpt lat="42.96096" lon="0.84345">
        <ele>1584</ele>
        <time>2018-04-02T09:36:13.000Z</time>
      </trkpt>
      <trkpt lat="42.96096" lon="0.84345">
        <ele>1584</ele>
        <time>2018-04-02T09:36:15.000Z</time>
      </trkpt>
      <trkpt lat="42.96096" lon="0.84345">
        <ele>1584</ele>
        <time>2018-04-02T09:36:17.000Z</time>
      </trkpt>
      <trkpt lat="42.96097" lon="0.84345">
        <ele>1584</ele>
        <time>2018-04-02T09:36:19.000Z</time>
      </trkpt>
      <trkpt lat="42.96097" lon="0.84345">
        <ele>1584</ele>
        <time>2018-04-02T09:36:21.000Z</time>
      </trkpt>
      <trkpt lat="42.96097" lon="0.84345">
        <ele>1584</ele>
        <time>2018-04-02T09:36:23.000Z</time>
      </trkpt>
      <trkpt lat="42.96096" lon="0.84345">
        <ele>1584</ele>
        <time>2018-04-02T09:36:25.000Z</time>
      </trkpt>
      <trkpt lat="42.96096" lon="0.84345">
        <ele>1584</ele>
        <time>2018-04-02T09:36:27.000Z</time>
      </trkpt>
      <trkpt lat="42.96096" lon="0.84345">
        <ele>1584</ele>
        <time>2018-04-02T09:36:29.000Z</time>
      </trkpt>
      <trkpt lat="42.96096" lon="0.84345">
        <ele>1584</ele>
        <time>2018-04-02T09:36:31.000Z</time>
      </trkpt>
      <trkpt lat="42.96096" lon="0.84346">
        <ele>1584</ele>
        <time>2018-04-02T09:36:33.000Z</time>
      </trkpt>
      <trkpt lat="42.96096" lon="0.84346">
        <ele>1584</ele>
        <time>2018-04-02T09:36:35.000Z</time>
      </trkpt>
      <trkpt lat="42.96096" lon="0.84346">
        <ele>1584</ele>
        <time>2018-04-02T09:36:37.000Z</time>
      </trkpt>
      <trkpt lat="42.96096" lon="0.84346">
        <ele>1584</ele>
        <time>2018-04-02T09:36:39.000Z</time>
      </trkpt>
      <trkpt lat="42.96096" lon="0.84346">
        <ele>1584</ele>
        <time>2018-04-02T09:36:41.000Z</time>
      </trkpt>
      <trkpt lat="42.96096" lon="0.84346">
        <ele>1584</ele>
        <time>2018-04-02T09:36:43.000Z</time>
      </trkpt>
      <trkpt lat="42.96096" lon="0.84346">
        <ele>1584</ele>
        <time>2018-04-02T09:36:45.000Z</time>
      </trkpt>
      <trkpt lat="42.96096" lon="0.84346">
        <ele>1584</ele>
        <time>2018-04-02T09:36:47.000Z</time>
      </trkpt>
      <trkpt lat="42.96096" lon="0.84346">
        <ele>1584</ele>
        <time>2018-04-02T09:36:49.000Z</time>
      </trkpt>
      <trkpt lat="42.96096" lon="0.84346">
        <ele>1584</ele>
        <time>2018-04-02T09:36:51.000Z</time>
      </trkpt>
      <trkpt lat="42.96096" lon="0.84346">
        <ele>1584</ele>
        <time>2018-04-02T09:36:53.000Z</time>
      </trkpt>
      <trkpt lat="42.96096" lon="0.84346">
        <ele>1584</ele>
        <time>2018-04-02T09:36:55.000Z</time>
      </trkpt>
      <trkpt lat="42.96096" lon="0.84346">
        <ele>1584</ele>
        <time>2018-04-02T09:36:57.000Z</time>
      </trkpt>
      <trkpt lat="42.96096" lon="0.84346">
        <ele>1584</ele>
        <time>2018-04-02T09:36:59.000Z</time>
      </trkpt>
      <trkpt lat="42.96096" lon="0.84346">
        <ele>1584</ele>
        <time>2018-04-02T09:37:01.000Z</time>
      </trkpt>
      <trkpt lat="42.96096" lon="0.84346">
        <ele>1584</ele>
        <time>2018-04-02T09:37:03.000Z</time>
      </trkpt>
      <trkpt lat="42.96096" lon="0.84347">
        <ele>1584</ele>
        <time>2018-04-02T09:37:05.000Z</time>
      </trkpt>
      <trkpt lat="42.96096" lon="0.84347">
        <ele>1584</ele>
        <time>2018-04-02T09:37:07.000Z</time>
      </trkpt>
      <trkpt lat="42.96096" lon="0.84346">
        <ele>1584</ele>
        <time>2018-04-02T09:37:09.000Z</time>
      </trkpt>
      <trkpt lat="42.96096" lon="0.84346">
        <ele>1584</ele>
        <time>2018-04-02T09:37:11.000Z</time>
      </trkpt>
      <trkpt lat="42.96096" lon="0.84346">
        <ele>1584</ele>
        <time>2018-04-02T09:37:13.000Z</time>
      </trkpt>
      <trkpt lat="42.96096" lon="0.84346">
        <ele>1584</ele>
        <time>2018-04-02T09:37:15.000Z</time>
      </trkpt>
      <trkpt lat="42.96096" lon="0.84346">
        <ele>1584</ele>
        <time>2018-04-02T09:37:17.000Z</time>
      </trkpt>
      <trkpt lat="42.96096" lon="0.84346">
        <ele>1584</ele>
        <time>2018-04-02T09:37:19.000Z</time>
      </trkpt>
      <trkpt lat="42.96096" lon="0.84346">
        <ele>1584</ele>
        <time>2018-04-02T09:37:21.000Z</time>
      </trkpt>
      <trkpt lat="42.96096" lon="0.84346">
        <ele>1584</ele>
        <time>2018-04-02T09:37:23.000Z</time>
      </trkpt>
      <trkpt lat="42.96096" lon="0.84346">
        <ele>1584</ele>
        <time>2018-04-02T09:37:25.000Z</time>
      </trkpt>
      <trkpt lat="42.96096" lon="0.84346">
        <ele>1584</ele>
        <time>2018-04-02T09:37:27.000Z</time>
      </trkpt>
      <trkpt lat="42.96096" lon="0.84346">
        <ele>1584</ele>
        <time>2018-04-02T09:37:29.000Z</time>
      </trkpt>
      <trkpt lat="42.96096" lon="0.84345">
        <ele>1584</ele>
        <time>2018-04-02T09:37:31.000Z</time>
      </trkpt>
      <trkpt lat="42.96096" lon="0.84345">
        <ele>1584</ele>
        <time>2018-04-02T09:37:33.000Z</time>
      </trkpt>
      <trkpt lat="42.96096" lon="0.84345">
        <ele>1584</ele>
        <time>2018-04-02T09:37:35.000Z</time>
      </trkpt>
      <trkpt lat="42.96096" lon="0.84345">
        <ele>1584</ele>
        <time>2018-04-02T09:37:37.000Z</time>
      </trkpt>
      <trkpt lat="42.96096" lon="0.84345">
        <ele>1584</ele>
        <time>2018-04-02T09:37:39.000Z</time>
      </trkpt>
      <trkpt lat="42.96097" lon="0.84345">
        <ele>1584</ele>
        <time>2018-04-02T09:37:41.000Z</time>
      </trkpt>
      <trkpt lat="42.96096" lon="0.84345">
        <ele>1584</ele>
        <time>2018-04-02T09:37:43.000Z</time>
      </trkpt>
      <trkpt lat="42.96096" lon="0.84345">
        <ele>1584</ele>
        <time>2018-04-02T09:37:45.000Z</time>
      </trkpt>
      <trkpt lat="42.96097" lon="0.84345">
        <ele>1584</ele>
        <time>2018-04-02T09:37:47.000Z</time>
      </trkpt>
      <trkpt lat="42.96096" lon="0.84345">
        <ele>1584</ele>
        <time>2018-04-02T09:37:49.000Z</time>
      </trkpt>
      <trkpt lat="42.96096" lon="0.84345">
        <ele>1584</ele>
        <time>2018-04-02T09:37:51.000Z</time>
      </trkpt>
      <trkpt lat="42.96096" lon="0.84345">
        <ele>1584</ele>
        <time>2018-04-02T09:37:53.000Z</time>
      </trkpt>
      <trkpt lat="42.96096" lon="0.84345">
        <ele>1584</ele>
        <time>2018-04-02T09:37:55.000Z</time>
      </trkpt>
      <trkpt lat="42.96096" lon="0.84345">
        <ele>1584</ele>
        <time>2018-04-02T09:37:57.000Z</time>
      </trkpt>
      <trkpt lat="42.96096" lon="0.84345">
        <ele>1584</ele>
        <time>2018-04-02T09:37:59.000Z</time>
      </trkpt>
      <trkpt lat="42.96096" lon="0.84345">
        <ele>1584</ele>
        <time>2018-04-02T09:38:01.000Z</time>
      </trkpt>
      <trkpt lat="42.96096" lon="0.84345">
        <ele>1584</ele>
        <time>2018-04-02T09:38:03.000Z</time>
      </trkpt>
      <trkpt lat="42.96096" lon="0.84345">
        <ele>1584</ele>
        <time>2018-04-02T09:38:05.000Z</time>
      </trkpt>
      <trkpt lat="42.96096" lon="0.84345">
        <ele>1584</ele>
        <time>2018-04-02T09:38:07.000Z</time>
      </trkpt>
      <trkpt lat="42.96096" lon="0.84345">
        <ele>1584</ele>
        <time>2018-04-02T09:38:09.000Z</time>
      </trkpt>
      <trkpt lat="42.96096" lon="0.84345">
        <ele>1584</ele>
        <time>2018-04-02T09:38:11.000Z</time>
      </trkpt>
      <trkpt lat="42.96096" lon="0.84345">
        <ele>1584</ele>
        <time>2018-04-02T09:38:13.000Z</time>
      </trkpt>
      <trkpt lat="42.96096" lon="0.84345">
        <ele>1584</ele>
        <time>2018-04-02T09:38:15.000Z</time>
      </trkpt>
      <trkpt lat="42.96096" lon="0.84345">
        <ele>1584</ele>
        <time>2018-04-02T09:38:17.000Z</time>
      </trkpt>
      <trkpt lat="42.96097" lon="0.84346">
        <ele>1584</ele>
        <time>2018-04-02T09:38:19.000Z</time>
      </trkpt>
      <trkpt lat="42.96097" lon="0.84345">
        <ele>1584</ele>
        <time>2018-04-02T09:38:21.000Z</time>
      </trkpt>
      <trkpt lat="42.96097" lon="0.84345">
        <ele>1584</ele>
        <time>2018-04-02T09:38:23.000Z</time>
      </trkpt>
      <trkpt lat="42.96097" lon="0.84345">
        <ele>1584</ele>
        <time>2018-04-02T09:38:25.000Z</time>
      </trkpt>
      <trkpt lat="42.96097" lon="0.84346">
        <ele>1584</ele>
        <time>2018-04-02T09:38:27.000Z</time>
      </trkpt>
      <trkpt lat="42.96097" lon="0.84345">
        <ele>1584</ele>
        <time>2018-04-02T09:38:29.000Z</time>
      </trkpt>
      <trkpt lat="42.96097" lon="0.84346">
        <ele>1584</ele>
        <time>2018-04-02T09:38:31.000Z</time>
      </trkpt>
      <trkpt lat="42.96097" lon="0.84345">
        <ele>1584</ele>
        <time>2018-04-02T09:38:33.000Z</time>
      </trkpt>
      <trkpt lat="42.96097" lon="0.84344">
        <ele>1584</ele>
        <time>2018-04-02T09:38:35.000Z</time>
      </trkpt>
      <trkpt lat="42.96097" lon="0.84344">
        <ele>1584</ele>
        <time>2018-04-02T09:38:37.000Z</time>
      </trkpt>
      <trkpt lat="42.96097" lon="0.84344">
        <ele>1584</ele>
        <time>2018-04-02T09:38:39.000Z</time>
      </trkpt>
      <trkpt lat="42.96097" lon="0.84344">
        <ele>1584</ele>
        <time>2018-04-02T09:38:41.000Z</time>
      </trkpt>
      <trkpt lat="42.96097" lon="0.84344">
        <ele>1584</ele>
        <time>2018-04-02T09:38:43.000Z</time>
      </trkpt>
      <trkpt lat="42.96097" lon="0.84344">
        <ele>1584</ele>
        <time>2018-04-02T09:38:45.000Z</time>
      </trkpt>
      <trkpt lat="42.96097" lon="0.84344">
        <ele>1584</ele>
        <time>2018-04-02T09:38:47.000Z</time>
      </trkpt>
      <trkpt lat="42.96097" lon="0.84344">
        <ele>1584</ele>
        <time>2018-04-02T09:38:49.000Z</time>
      </trkpt>
      <trkpt lat="42.96097" lon="0.84343">
        <ele>1584</ele>
        <time>2018-04-02T09:38:51.000Z</time>
      </trkpt>
      <trkpt lat="42.96097" lon="0.84343">
        <ele>1584</ele>
        <time>2018-04-02T09:38:53.000Z</time>
      </trkpt>
      <trkpt lat="42.96097" lon="0.84342">
        <ele>1584</ele>
        <time>2018-04-02T09:38:55.000Z</time>
      </trkpt>
      <trkpt lat="42.96098" lon="0.84343">
        <ele>1584</ele>
        <time>2018-04-02T09:38:57.000Z</time>
      </trkpt>
      <trkpt lat="42.96098" lon="0.84343">
        <ele>1584</ele>
        <time>2018-04-02T09:38:59.000Z</time>
      </trkpt>
      <trkpt lat="42.96098" lon="0.84343">
        <ele>1584</ele>
        <time>2018-04-02T09:39:01.000Z</time>
      </trkpt>
      <trkpt lat="42.96098" lon="0.84343">
        <ele>1584</ele>
        <time>2018-04-02T09:39:03.000Z</time>
      </trkpt>
      <trkpt lat="42.96098" lon="0.84344">
        <ele>1584</ele>
        <time>2018-04-02T09:39:05.000Z</time>
      </trkpt>
      <trkpt lat="42.96098" lon="0.84344">
        <ele>1584</ele>
        <time>2018-04-02T09:39:07.000Z</time>
      </trkpt>
      <trkpt lat="42.96098" lon="0.84344">
        <ele>1584</ele>
        <time>2018-04-02T09:39:09.000Z</time>
      </trkpt>
      <trkpt lat="42.96098" lon="0.84344">
        <ele>1584</ele>
        <time>2018-04-02T09:39:11.000Z</time>
      </trkpt>
      <trkpt lat="42.96098" lon="0.84344">
        <ele>1584</ele>
        <time>2018-04-02T09:39:13.000Z</time>
      </trkpt>
      <trkpt lat="42.96098" lon="0.84345">
        <ele>1584</ele>
        <time>2018-04-02T09:39:15.000Z</time>
      </trkpt>
      <trkpt lat="42.96098" lon="0.84345">
        <ele>1584</ele>
        <time>2018-04-02T09:39:17.000Z</time>
      </trkpt>
      <trkpt lat="42.96098" lon="0.84345">
        <ele>1584</ele>
        <time>2018-04-02T09:39:19.000Z</time>
      </trkpt>
      <trkpt lat="42.96098" lon="0.84345">
        <ele>1584</ele>
        <time>2018-04-02T09:39:21.000Z</time>
      </trkpt>
      <trkpt lat="42.96098" lon="0.84345">
        <ele>1584</ele>
        <time>2018-04-02T09:39:23.000Z</time>
      </trkpt>
      <trkpt lat="42.96097" lon="0.84345">
        <ele>1584</ele>
        <time>2018-04-02T09:39:25.000Z</time>
      </trkpt>
      <trkpt lat="42.96097" lon="0.84345">
        <ele>1584</ele>
        <time>2018-04-02T09:39:27.000Z</time>
      </trkpt>
      <trkpt lat="42.96097" lon="0.84345">
        <ele>1584</ele>
        <time>2018-04-02T09:39:29.000Z</time>
      </trkpt>
      <trkpt lat="42.96097" lon="0.84345">
        <ele>1584</ele>
        <time>2018-04-02T09:39:31.000Z</time>
      </trkpt>
      <trkpt lat="42.96097" lon="0.84345">
        <ele>1584</ele>
        <time>2018-04-02T09:39:33.000Z</time>
      </trkpt>
      <trkpt lat="42.96097" lon="0.84345">
        <ele>1584</ele>
        <time>2018-04-02T09:39:35.000Z</time>
      </trkpt>
      <trkpt lat="42.96097" lon="0.84345">
        <ele>1584</ele>
        <time>2018-04-02T09:39:37.000Z</time>
      </trkpt>
      <trkpt lat="42.96097" lon="0.84345">
        <ele>1584</ele>
        <time>2018-04-02T09:39:39.000Z</time>
      </trkpt>
      <trkpt lat="42.96097" lon="0.84345">
        <ele>1584</ele>
        <time>2018-04-02T09:39:41.000Z</time>
      </trkpt>
      <trkpt lat="42.96097" lon="0.84345">
        <ele>1584</ele>
        <time>2018-04-02T09:39:43.000Z</time>
      </trkpt>
      <trkpt lat="42.96097" lon="0.84344">
        <ele>1584</ele>
        <time>2018-04-02T09:39:45.000Z</time>
      </trkpt>
      <trkpt lat="42.96097" lon="0.84345">
        <ele>1584</ele>
        <time>2018-04-02T09:39:47.000Z</time>
      </trkpt>
      <trkpt lat="42.96098" lon="0.84345">
        <ele>1584</ele>
        <time>2018-04-02T09:39:49.000Z</time>
      </trkpt>
      <trkpt lat="42.96097" lon="0.84345">
        <ele>1584</ele>
        <time>2018-04-02T09:39:51.000Z</time>
      </trkpt>
      <trkpt lat="42.96098" lon="0.84344">
        <ele>1584</ele>
        <time>2018-04-02T09:39:53.000Z</time>
      </trkpt>
      <trkpt lat="42.96098" lon="0.84344">
        <ele>1584</ele>
        <time>2018-04-02T09:39:55.000Z</time>
      </trkpt>
      <trkpt lat="42.96098" lon="0.84344">
        <ele>1584</ele>
        <time>2018-04-02T09:39:57.000Z</time>
      </trkpt>
      <trkpt lat="42.96098" lon="0.84345">
        <ele>1584</ele>
        <time>2018-04-02T09:39:59.000Z</time>
      </trkpt>
      <trkpt lat="42.96098" lon="0.84344">
        <ele>1584</ele>
        <time>2018-04-02T09:40:01.000Z</time>
      </trkpt>
      <trkpt lat="42.96098" lon="0.84344">
        <ele>1584</ele>
        <time>2018-04-02T09:40:03.000Z</time>
      </trkpt>
      <trkpt lat="42.96098" lon="0.84343">
        <ele>1584</ele>
        <time>2018-04-02T09:40:05.000Z</time>
      </trkpt>
      <trkpt lat="42.96098" lon="0.84343">
        <ele>1584</ele>
        <time>2018-04-02T09:40:07.000Z</time>
      </trkpt>
      <trkpt lat="42.96098" lon="0.84343">
        <ele>1584</ele>
        <time>2018-04-02T09:40:09.000Z</time>
      </trkpt>
      <trkpt lat="42.96098" lon="0.84343">
        <ele>1584</ele>
        <time>2018-04-02T09:40:11.000Z</time>
      </trkpt>
      <trkpt lat="42.96098" lon="0.84343">
        <ele>1584</ele>
        <time>2018-04-02T09:40:13.000Z</time>
      </trkpt>
      <trkpt lat="42.96098" lon="0.84343">
        <ele>1584</ele>
        <time>2018-04-02T09:40:15.000Z</time>
      </trkpt>
      <trkpt lat="42.96098" lon="0.84343">
        <ele>1584</ele>
        <time>2018-04-02T09:40:17.000Z</time>
      </trkpt>
      <trkpt lat="42.96098" lon="0.84344">
        <ele>1584</ele>
        <time>2018-04-02T09:40:19.000Z</time>
      </trkpt>
      <trkpt lat="42.96098" lon="0.84344">
        <ele>1584</ele>
        <time>2018-04-02T09:40:21.000Z</time>
      </trkpt>
      <trkpt lat="42.96098" lon="0.84343">
        <ele>1584</ele>
        <time>2018-04-02T09:40:23.000Z</time>
      </trkpt>
      <trkpt lat="42.96098" lon="0.84344">
        <ele>1584</ele>
        <time>2018-04-02T09:40:25.000Z</time>
      </trkpt>
      <trkpt lat="42.96098" lon="0.84344">
        <ele>1584</ele>
        <time>2018-04-02T09:40:27.000Z</time>
      </trkpt>
      <trkpt lat="42.96098" lon="0.84344">
        <ele>1584</ele>
        <time>2018-04-02T09:40:29.000Z</time>
      </trkpt>
      <trkpt lat="42.96098" lon="0.84344">
        <ele>1584</ele>
        <time>2018-04-02T09:40:31.000Z</time>
      </trkpt>
      <trkpt lat="42.96098" lon="0.84344">
        <ele>1584</ele>
        <time>2018-04-02T09:40:33.000Z</time>
      </trkpt>
      <trkpt lat="42.96097" lon="0.84344">
        <ele>1584</ele>
        <time>2018-04-02T09:40:35.000Z</time>
      </trkpt>
      <trkpt lat="42.96098" lon="0.84344">
        <ele>1584</ele>
        <time>2018-04-02T09:40:37.000Z</time>
      </trkpt>
      <trkpt lat="42.96097" lon="0.84344">
        <ele>1584</ele>
        <time>2018-04-02T09:40:39.000Z</time>
      </trkpt>
      <trkpt lat="42.96097" lon="0.84344">
        <ele>1584</ele>
        <time>2018-04-02T09:40:41.000Z</time>
      </trkpt>
      <trkpt lat="42.96097" lon="0.84344">
        <ele>1584</ele>
        <time>2018-04-02T09:40:43.000Z</time>
      </trkpt>
      <trkpt lat="42.96097" lon="0.84344">
        <ele>1584</ele>
        <time>2018-04-02T09:40:45.000Z</time>
      </trkpt>
      <trkpt lat="42.96098" lon="0.84344">
        <ele>1584</ele>
        <time>2018-04-02T09:40:47.000Z</time>
      </trkpt>
      <trkpt lat="42.96098" lon="0.84344">
        <ele>1584</ele>
        <time>2018-04-02T09:40:49.000Z</time>
      </trkpt>
      <trkpt lat="42.96098" lon="0.84344">
        <ele>1584</ele>
        <time>2018-04-02T09:40:51.000Z</time>
      </trkpt>
      <trkpt lat="42.96098" lon="0.84344">
        <ele>1584</ele>
        <time>2018-04-02T09:40:53.000Z</time>
      </trkpt>
      <trkpt lat="42.96098" lon="0.84344">
        <ele>1584</ele>
        <time>2018-04-02T09:40:55.000Z</time>
      </trkpt>
      <trkpt lat="42.96098" lon="0.84344">
        <ele>1584</ele>
        <time>2018-04-02T09:40:57.000Z</time>
      </trkpt>
      <trkpt lat="42.96098" lon="0.84344">
        <ele>1584</ele>
        <time>2018-04-02T09:40:59.000Z</time>
      </trkpt>
      <trkpt lat="42.96098" lon="0.84343">
        <ele>1584</ele>
        <time>2018-04-02T09:41:01.000Z</time>
      </trkpt>
      <trkpt lat="42.96098" lon="0.84343">
        <ele>1584</ele>
        <time>2018-04-02T09:41:03.000Z</time>
      </trkpt>
      <trkpt lat="42.96098" lon="0.84343">
        <ele>1584</ele>
        <time>2018-04-02T09:41:05.000Z</time>
      </trkpt>
      <trkpt lat="42.96098" lon="0.84343">
        <ele>1584</ele>
        <time>2018-04-02T09:41:07.000Z</time>
      </trkpt>
      <trkpt lat="42.96098" lon="0.84343">
        <ele>1584</ele>
        <time>2018-04-02T09:41:09.000Z</time>
      </trkpt>
      <trkpt lat="42.96098" lon="0.84343">
        <ele>1584</ele>
        <time>2018-04-02T09:41:11.000Z</time>
      </trkpt>
      <trkpt lat="42.96098" lon="0.84343">
        <ele>1584</ele>
        <time>2018-04-02T09:41:13.000Z</time>
      </trkpt>
      <trkpt lat="42.96098" lon="0.84343">
        <ele>1584</ele>
        <time>2018-04-02T09:41:15.000Z</time>
      </trkpt>
      <trkpt lat="42.96098" lon="0.84343">
        <ele>1584</ele>
        <time>2018-04-02T09:41:17.000Z</time>
      </trkpt>
      <trkpt lat="42.96098" lon="0.84343">
        <ele>1584</ele>
        <time>2018-04-02T09:41:19.000Z</time>
      </trkpt>
      <trkpt lat="42.96098" lon="0.84343">
        <ele>1584</ele>
        <time>2018-04-02T09:41:21.000Z</time>
      </trkpt>
      <trkpt lat="42.96098" lon="0.84343">
        <ele>1584</ele>
        <time>2018-04-02T09:41:23.000Z</time>
      </trkpt>
      <trkpt lat="42.96098" lon="0.84343">
        <ele>1584</ele>
        <time>2018-04-02T09:41:25.000Z</time>
      </trkpt>
      <trkpt lat="42.96098" lon="0.84343">
        <ele>1584</ele>
        <time>2018-04-02T09:41:27.000Z</time>
      </trkpt>
      <trkpt lat="42.96098" lon="0.84343">
        <ele>1584</ele>
        <time>2018-04-02T09:41:29.000Z</time>
      </trkpt>
      <trkpt lat="42.96098" lon="0.84343">
        <ele>1584</ele>
        <time>2018-04-02T09:41:31.000Z</time>
      </trkpt>
      <trkpt lat="42.96098" lon="0.84343">
        <ele>1584</ele>
        <time>2018-04-02T09:41:33.000Z</time>
      </trkpt>
      <trkpt lat="42.96098" lon="0.84343">
        <ele>1584</ele>
        <time>2018-04-02T09:41:35.000Z</time>
      </trkpt>
      <trkpt lat="42.96098" lon="0.84343">
        <ele>1584</ele>
        <time>2018-04-02T09:41:37.000Z</time>
      </trkpt>
      <trkpt lat="42.96098" lon="0.84343">
        <ele>1584</ele>
        <time>2018-04-02T09:41:39.000Z</time>
      </trkpt>
      <trkpt lat="42.96098" lon="0.84342">
        <ele>1584</ele>
        <time>2018-04-02T09:41:41.000Z</time>
      </trkpt>
      <trkpt lat="42.96098" lon="0.84342">
        <ele>1584</ele>
        <time>2018-04-02T09:41:43.000Z</time>
      </trkpt>
      <trkpt lat="42.96098" lon="0.84342">
        <ele>1584</ele>
        <time>2018-04-02T09:41:45.000Z</time>
      </trkpt>
      <trkpt lat="42.96098" lon="0.84342">
        <ele>1584</ele>
        <time>2018-04-02T09:41:47.000Z</time>
      </trkpt>
      <trkpt lat="42.96098" lon="0.84342">
        <ele>1584</ele>
        <time>2018-04-02T09:41:49.000Z</time>
      </trkpt>
      <trkpt lat="42.96098" lon="0.84342">
        <ele>1584</ele>
        <time>2018-04-02T09:41:51.000Z</time>
      </trkpt>
      <trkpt lat="42.96098" lon="0.84342">
        <ele>1584</ele>
        <time>2018-04-02T09:41:53.000Z</time>
      </trkpt>
      <trkpt lat="42.96098" lon="0.84342">
        <ele>1584</ele>
        <time>2018-04-02T09:41:55.000Z</time>
      </trkpt>
      <trkpt lat="42.96098" lon="0.84342">
        <ele>1584</ele>
        <time>2018-04-02T09:41:57.000Z</time>
      </trkpt>
      <trkpt lat="42.96098" lon="0.84342">
        <ele>1584</ele>
        <time>2018-04-02T09:41:59.000Z</time>
      </trkpt>
      <trkpt lat="42.96098" lon="0.84342">
        <ele>1584</ele>
        <time>2018-04-02T09:42:01.000Z</time>
      </trkpt>
      <trkpt lat="42.96098" lon="0.84342">
        <ele>1584</ele>
        <time>2018-04-02T09:42:03.000Z</time>
      </trkpt>
      <trkpt lat="42.96098" lon="0.84343">
        <ele>1584</ele>
        <time>2018-04-02T09:42:05.000Z</time>
      </trkpt>
      <trkpt lat="42.96097" lon="0.84343">
        <ele>1584</ele>
        <time>2018-04-02T09:42:07.000Z</time>
      </trkpt>
      <trkpt lat="42.96097" lon="0.84343">
        <ele>1584</ele>
        <time>2018-04-02T09:42:09.000Z</time>
      </trkpt>
      <trkpt lat="42.96097" lon="0.84343">
        <ele>1584</ele>
        <time>2018-04-02T09:42:11.000Z</time>
      </trkpt>
      <trkpt lat="42.96097" lon="0.84343">
        <ele>1584</ele>
        <time>2018-04-02T09:42:13.000Z</time>
      </trkpt>
      <trkpt lat="42.96097" lon="0.84343">
        <ele>1584</ele>
        <time>2018-04-02T09:42:15.000Z</time>
      </trkpt>
      <trkpt lat="42.96097" lon="0.84343">
        <ele>1584</ele>
        <time>2018-04-02T09:42:17.000Z</time>
      </trkpt>
      <trkpt lat="42.96097" lon="0.84343">
        <ele>1584</ele>
        <time>2018-04-02T09:42:19.000Z</time>
      </trkpt>
      <trkpt lat="42.96097" lon="0.84344">
        <ele>1584</ele>
        <time>2018-04-02T09:42:21.000Z</time>
      </trkpt>
      <trkpt lat="42.96097" lon="0.84344">
        <ele>1584</ele>
        <time>2018-04-02T09:42:23.000Z</time>
      </trkpt>
      <trkpt lat="42.96097" lon="0.84344">
        <ele>1584</ele>
        <time>2018-04-02T09:42:25.000Z</time>
      </trkpt>
      <trkpt lat="42.96097" lon="0.84345">
        <ele>1584</ele>
        <time>2018-04-02T09:42:27.000Z</time>
      </trkpt>
      <trkpt lat="42.96097" lon="0.84344">
        <ele>1584</ele>
        <time>2018-04-02T09:42:29.000Z</time>
      </trkpt>
      <trkpt lat="42.96097" lon="0.84345">
        <ele>1584</ele>
        <time>2018-04-02T09:42:31.000Z</time>
      </trkpt>
      <trkpt lat="42.96098" lon="0.84345">
        <ele>1584</ele>
        <time>2018-04-02T09:42:33.000Z</time>
      </trkpt>
      <trkpt lat="42.96098" lon="0.84345">
        <ele>1584</ele>
        <time>2018-04-02T09:42:35.000Z</time>
      </trkpt>
      <trkpt lat="42.96098" lon="0.84346">
        <ele>1583</ele>
        <time>2018-04-02T09:42:37.000Z</time>
      </trkpt>
      <trkpt lat="42.96099" lon="0.84347">
        <ele>1583</ele>
        <time>2018-04-02T09:42:39.000Z</time>
      </trkpt>
      <trkpt lat="42.961" lon="0.84348">
        <ele>1583</ele>
        <time>2018-04-02T09:42:41.000Z</time>
      </trkpt>
      <trkpt lat="42.961" lon="0.8435">
        <ele>1582</ele>
        <time>2018-04-02T09:42:43.000Z</time>
      </trkpt>
      <trkpt lat="42.96101" lon="0.84351">
        <ele>1582</ele>
        <time>2018-04-02T09:42:45.000Z</time>
      </trkpt>
      <trkpt lat="42.96102" lon="0.84352">
        <ele>1582</ele>
        <time>2018-04-02T09:42:47.000Z</time>
      </trkpt>
      <trkpt lat="42.96104" lon="0.84352">
        <ele>1582</ele>
        <time>2018-04-02T09:42:49.000Z</time>
      </trkpt>
      <trkpt lat="42.96104" lon="0.84351">
        <ele>1582</ele>
        <time>2018-04-02T09:42:51.000Z</time>
      </trkpt>
      <trkpt lat="42.96104" lon="0.84352">
        <ele>1582</ele>
        <time>2018-04-02T09:42:53.000Z</time>
      </trkpt>
      <trkpt lat="42.96104" lon="0.84352">
        <ele>1582</ele>
        <time>2018-04-02T09:42:55.000Z</time>
      </trkpt>
      <trkpt lat="42.96104" lon="0.84352">
        <ele>1582</ele>
        <time>2018-04-02T09:42:57.000Z</time>
      </trkpt>
      <trkpt lat="42.96104" lon="0.84352">
        <ele>1582</ele>
        <time>2018-04-02T09:42:59.000Z</time>
      </trkpt>
      <trkpt lat="42.96103" lon="0.84351">
        <ele>1582</ele>
        <time>2018-04-02T09:43:01.000Z</time>
      </trkpt>
      <trkpt lat="42.96103" lon="0.84351">
        <ele>1582</ele>
        <time>2018-04-02T09:43:03.000Z</time>
      </trkpt>
      <trkpt lat="42.96103" lon="0.84351">
        <ele>1582</ele>
        <time>2018-04-02T09:43:05.000Z</time>
      </trkpt>
      <trkpt lat="42.96104" lon="0.84351">
        <ele>1582</ele>
        <time>2018-04-02T09:43:07.000Z</time>
      </trkpt>
      <trkpt lat="42.96104" lon="0.84352">
        <ele>1582</ele>
        <time>2018-04-02T09:43:09.000Z</time>
      </trkpt>
      <trkpt lat="42.96104" lon="0.84352">
        <ele>1582</ele>
        <time>2018-04-02T09:43:11.000Z</time>
      </trkpt>
      <trkpt lat="42.96104" lon="0.84352">
        <ele>1582</ele>
        <time>2018-04-02T09:43:13.000Z</time>
      </trkpt>
      <trkpt lat="42.96104" lon="0.84352">
        <ele>1582</ele>
        <time>2018-04-02T09:43:15.000Z</time>
      </trkpt>
      <trkpt lat="42.96104" lon="0.84352">
        <ele>1582</ele>
        <time>2018-04-02T09:43:17.000Z</time>
      </trkpt>
      <trkpt lat="42.96104" lon="0.84352">
        <ele>1582</ele>
        <time>2018-04-02T09:43:19.000Z</time>
      </trkpt>
      <trkpt lat="42.96104" lon="0.84352">
        <ele>1582</ele>
        <time>2018-04-02T09:43:21.000Z</time>
      </trkpt>
      <trkpt lat="42.96104" lon="0.84353">
        <ele>1581</ele>
        <time>2018-04-02T09:43:23.000Z</time>
      </trkpt>
      <trkpt lat="42.96105" lon="0.84353">
        <ele>1581</ele>
        <time>2018-04-02T09:43:25.000Z</time>
      </trkpt>
      <trkpt lat="42.96105" lon="0.84353">
        <ele>1581</ele>
        <time>2018-04-02T09:43:27.000Z</time>
      </trkpt>
      <trkpt lat="42.96105" lon="0.84353">
        <ele>1581</ele>
        <time>2018-04-02T09:43:29.000Z</time>
      </trkpt>
      <trkpt lat="42.96105" lon="0.84353">
        <ele>1581</ele>
        <time>2018-04-02T09:43:31.000Z</time>
      </trkpt>
      <trkpt lat="42.96105" lon="0.84353">
        <ele>1581</ele>
        <time>2018-04-02T09:43:33.000Z</time>
      </trkpt>
      <trkpt lat="42.96105" lon="0.84353">
        <ele>1581</ele>
        <time>2018-04-02T09:43:35.000Z</time>
      </trkpt>
      <trkpt lat="42.96105" lon="0.84353">
        <ele>1581</ele>
        <time>2018-04-02T09:43:37.000Z</time>
      </trkpt>
      <trkpt lat="42.96104" lon="0.84353">
        <ele>1581</ele>
        <time>2018-04-02T09:43:39.000Z</time>
      </trkpt>
      <trkpt lat="42.96104" lon="0.84353">
        <ele>1581</ele>
        <time>2018-04-02T09:43:41.000Z</time>
      </trkpt>
      <trkpt lat="42.96104" lon="0.84353">
        <ele>1581</ele>
        <time>2018-04-02T09:43:43.000Z</time>
      </trkpt>
      <trkpt lat="42.96104" lon="0.84354">
        <ele>1581</ele>
        <time>2018-04-02T09:43:45.000Z</time>
      </trkpt>
      <trkpt lat="42.96103" lon="0.84354">
        <ele>1581</ele>
        <time>2018-04-02T09:43:47.000Z</time>
      </trkpt>
      <trkpt lat="42.96104" lon="0.84353">
        <ele>1581</ele>
        <time>2018-04-02T09:43:49.000Z</time>
      </trkpt>
      <trkpt lat="42.96104" lon="0.84353">
        <ele>1581</ele>
        <time>2018-04-02T09:43:51.000Z</time>
      </trkpt>
      <trkpt lat="42.96104" lon="0.84353">
        <ele>1581</ele>
        <time>2018-04-02T09:43:53.000Z</time>
      </trkpt>
      <trkpt lat="42.96104" lon="0.84353">
        <ele>1581</ele>
        <time>2018-04-02T09:43:55.000Z</time>
      </trkpt>
      <trkpt lat="42.96104" lon="0.84353">
        <ele>1581</ele>
        <time>2018-04-02T09:43:57.000Z</time>
      </trkpt>
      <trkpt lat="42.96104" lon="0.84353">
        <ele>1581</ele>
        <time>2018-04-02T09:43:59.000Z</time>
      </trkpt>
      <trkpt lat="42.96104" lon="0.84353">
        <ele>1581</ele>
        <time>2018-04-02T09:44:01.000Z</time>
      </trkpt>
      <trkpt lat="42.96104" lon="0.84353">
        <ele>1581</ele>
        <time>2018-04-02T09:44:03.000Z</time>
      </trkpt>
      <trkpt lat="42.96104" lon="0.84353">
        <ele>1581</ele>
        <time>2018-04-02T09:44:05.000Z</time>
      </trkpt>
      <trkpt lat="42.96105" lon="0.84353">
        <ele>1581</ele>
        <time>2018-04-02T09:44:07.000Z</time>
      </trkpt>
      <trkpt lat="42.96104" lon="0.84353">
        <ele>1581</ele>
        <time>2018-04-02T09:44:09.000Z</time>
      </trkpt>
      <trkpt lat="42.96104" lon="0.84353">
        <ele>1581</ele>
        <time>2018-04-02T09:44:11.000Z</time>
      </trkpt>
      <trkpt lat="42.96104" lon="0.84353">
        <ele>1581</ele>
        <time>2018-04-02T09:44:13.000Z</time>
      </trkpt>
      <trkpt lat="42.96104" lon="0.84353">
        <ele>1581</ele>
        <time>2018-04-02T09:44:15.000Z</time>
      </trkpt>
      <trkpt lat="42.96104" lon="0.84353">
        <ele>1581</ele>
        <time>2018-04-02T09:44:17.000Z</time>
      </trkpt>
      <trkpt lat="42.96104" lon="0.84353">
        <ele>1581</ele>
        <time>2018-04-02T09:44:19.000Z</time>
      </trkpt>
      <trkpt lat="42.96104" lon="0.84353">
        <ele>1581</ele>
        <time>2018-04-02T09:44:21.000Z</time>
      </trkpt>
      <trkpt lat="42.96104" lon="0.84353">
        <ele>1581</ele>
        <time>2018-04-02T09:44:23.000Z</time>
      </trkpt>
      <trkpt lat="42.96104" lon="0.84353">
        <ele>1581</ele>
        <time>2018-04-02T09:44:25.000Z</time>
      </trkpt>
      <trkpt lat="42.96104" lon="0.84353">
        <ele>1581</ele>
        <time>2018-04-02T09:44:27.000Z</time>
      </trkpt>
      <trkpt lat="42.96104" lon="0.84353">
        <ele>1581</ele>
        <time>2018-04-02T09:44:29.000Z</time>
      </trkpt>
      <trkpt lat="42.96104" lon="0.84352">
        <ele>1582</ele>
        <time>2018-04-02T09:44:31.000Z</time>
      </trkpt>
      <trkpt lat="42.96104" lon="0.84352">
        <ele>1582</ele>
        <time>2018-04-02T09:44:33.000Z</time>
      </trkpt>
      <trkpt lat="42.96104" lon="0.84352">
        <ele>1582</ele>
        <time>2018-04-02T09:44:35.000Z</time>
      </trkpt>
      <trkpt lat="42.96104" lon="0.84353">
        <ele>1581</ele>
        <time>2018-04-02T09:44:37.000Z</time>
      </trkpt>
      <trkpt lat="42.96104" lon="0.84353">
        <ele>1581</ele>
        <time>2018-04-02T09:44:39.000Z</time>
      </trkpt>
      <trkpt lat="42.96104" lon="0.84353">
        <ele>1581</ele>
        <time>2018-04-02T09:44:41.000Z</time>
      </trkpt>
      <trkpt lat="42.96104" lon="0.84353">
        <ele>1581</ele>
        <time>2018-04-02T09:44:43.000Z</time>
      </trkpt>
      <trkpt lat="42.96104" lon="0.84354">
        <ele>1581</ele>
        <time>2018-04-02T09:44:45.000Z</time>
      </trkpt>
      <trkpt lat="42.96104" lon="0.84355">
        <ele>1581</ele>
        <time>2018-04-02T09:44:47.000Z</time>
      </trkpt>
      <trkpt lat="42.96104" lon="0.84355">
        <ele>1581</ele>
        <time>2018-04-02T09:44:49.000Z</time>
      </trkpt>
      <trkpt lat="42.96105" lon="0.84355">
        <ele>1581</ele>
        <time>2018-04-02T09:44:51.000Z</time>
      </trkpt>
      <trkpt lat="42.96104" lon="0.84356">
        <ele>1581</ele>
        <time>2018-04-02T09:44:53.000Z</time>
      </trkpt>
      <trkpt lat="42.96104" lon="0.84356">
        <ele>1581</ele>
        <time>2018-04-02T09:44:55.000Z</time>
      </trkpt>
      <trkpt lat="42.96103" lon="0.84357">
        <ele>1581</ele>
        <time>2018-04-02T09:44:57.000Z</time>
      </trkpt>
      <trkpt lat="42.96102" lon="0.84356">
        <ele>1581</ele>
        <time>2018-04-02T09:44:59.000Z</time>
      </trkpt>
      <trkpt lat="42.961" lon="0.84355">
        <ele>1581</ele>
        <time>2018-04-02T09:45:01.000Z</time>
      </trkpt>
      <trkpt lat="42.96099" lon="0.84354">
        <ele>1582</ele>
        <time>2018-04-02T09:45:03.000Z</time>
      </trkpt>
      <trkpt lat="42.96098" lon="0.84353">
        <ele>1582</ele>
        <time>2018-04-02T09:45:05.000Z</time>
      </trkpt>
      <trkpt lat="42.96098" lon="0.84352">
        <ele>1582</ele>
        <time>2018-04-02T09:45:07.000Z</time>
      </trkpt>
      <trkpt lat="42.96097" lon="0.84351">
        <ele>1583</ele>
        <time>2018-04-02T09:45:09.000Z</time>
      </trkpt>
      <trkpt lat="42.96097" lon="0.84349">
        <ele>1583</ele>
        <time>2018-04-02T09:45:11.000Z</time>
      </trkpt>
      <trkpt lat="42.96096" lon="0.84349">
        <ele>1583</ele>
        <time>2018-04-02T09:45:13.000Z</time>
      </trkpt>
      <trkpt lat="42.96096" lon="0.84349">
        <ele>1583</ele>
        <time>2018-04-02T09:45:15.000Z</time>
      </trkpt>
      <trkpt lat="42.96096" lon="0.84349">
        <ele>1583</ele>
        <time>2018-04-02T09:45:17.000Z</time>
      </trkpt>
      <trkpt lat="42.96096" lon="0.84348">
        <ele>1583</ele>
        <time>2018-04-02T09:45:19.000Z</time>
      </trkpt>
      <trkpt lat="42.96097" lon="0.84347">
        <ele>1583</ele>
        <time>2018-04-02T09:45:21.000Z</time>
      </trkpt>
      <trkpt lat="42.96097" lon="0.84347">
        <ele>1583</ele>
        <time>2018-04-02T09:45:23.000Z</time>
      </trkpt>
      <trkpt lat="42.96096" lon="0.84347">
        <ele>1583</ele>
        <time>2018-04-02T09:45:25.000Z</time>
      </trkpt>
      <trkpt lat="42.96096" lon="0.84347">
        <ele>1583</ele>
        <time>2018-04-02T09:45:27.000Z</time>
      </trkpt>
      <trkpt lat="42.96096" lon="0.84347">
        <ele>1584</ele>
        <time>2018-04-02T09:45:29.000Z</time>
      </trkpt>
      <trkpt lat="42.96097" lon="0.84346">
        <ele>1584</ele>
        <time>2018-04-02T09:45:31.000Z</time>
      </trkpt>
      <trkpt lat="42.96097" lon="0.84346">
        <ele>1584</ele>
        <time>2018-04-02T09:45:33.000Z</time>
      </trkpt>
      <trkpt lat="42.96097" lon="0.84345">
        <ele>1584</ele>
        <time>2018-04-02T09:45:35.000Z</time>
      </trkpt>
      <trkpt lat="42.96097" lon="0.84345">
        <ele>1584</ele>
        <time>2018-04-02T09:45:37.000Z</time>
      </trkpt>
      <trkpt lat="42.96097" lon="0.84344">
        <ele>1584</ele>
        <time>2018-04-02T09:45:39.000Z</time>
      </trkpt>
      <trkpt lat="42.96097" lon="0.84345">
        <ele>1584</ele>
        <time>2018-04-02T09:45:41.000Z</time>
      </trkpt>
      <trkpt lat="42.96097" lon="0.84345">
        <ele>1584</ele>
        <time>2018-04-02T09:45:43.000Z</time>
      </trkpt>
      <trkpt lat="42.96097" lon="0.84345">
        <ele>1584</ele>
        <time>2018-04-02T09:45:45.000Z</time>
      </trkpt>
      <trkpt lat="42.96097" lon="0.84345">
        <ele>1584</ele>
        <time>2018-04-02T09:45:47.000Z</time>
      </trkpt>
      <trkpt lat="42.96098" lon="0.84345">
        <ele>1584</ele>
        <time>2018-04-02T09:45:49.000Z</time>
      </trkpt>
      <trkpt lat="42.96098" lon="0.84345">
        <ele>1584</ele>
        <time>2018-04-02T09:45:51.000Z</time>
      </trkpt>
      <trkpt lat="42.96098" lon="0.84346">
        <ele>1584</ele>
        <time>2018-04-02T09:45:53.000Z</time>
      </trkpt>
      <trkpt lat="42.96097" lon="0.84346">
        <ele>1584</ele>
        <time>2018-04-02T09:45:55.000Z</time>
      </trkpt>
      <trkpt lat="42.96097" lon="0.84346">
        <ele>1584</ele>
        <time>2018-04-02T09:45:57.000Z</time>
      </trkpt>
      <trkpt lat="42.96097" lon="0.84345">
        <ele>1584</ele>
        <time>2018-04-02T09:45:59.000Z</time>
      </trkpt>
      <trkpt lat="42.96097" lon="0.84345">
        <ele>1584</ele>
        <time>2018-04-02T09:46:01.000Z</time>
      </trkpt>
      <trkpt lat="42.96097" lon="0.84345">
        <ele>1584</ele>
        <time>2018-04-02T09:46:03.000Z</time>
      </trkpt>
      <trkpt lat="42.96097" lon="0.84344">
        <ele>1584</ele>
        <time>2018-04-02T09:46:05.000Z</time>
      </trkpt>
      <trkpt lat="42.96097" lon="0.84344">
        <ele>1584</ele>
        <time>2018-04-02T09:46:07.000Z</time>
      </trkpt>
      <trkpt lat="42.96097" lon="0.84344">
        <ele>1584</ele>
        <time>2018-04-02T09:46:09.000Z</time>
      </trkpt>
      <trkpt lat="42.96097" lon="0.84345">
        <ele>1584</ele>
        <time>2018-04-02T09:46:11.000Z</time>
      </trkpt>
      <trkpt lat="42.96097" lon="0.84345">
        <ele>1584</ele>
        <time>2018-04-02T09:46:13.000Z</time>
      </trkpt>
      <trkpt lat="42.96097" lon="0.84345">
        <ele>1584</ele>
        <time>2018-04-02T09:46:15.000Z</time>
      </trkpt>
      <trkpt lat="42.96097" lon="0.84344">
        <ele>1584</ele>
        <time>2018-04-02T09:46:17.000Z</time>
      </trkpt>
      <trkpt lat="42.96097" lon="0.84344">
        <ele>1584</ele>
        <time>2018-04-02T09:46:19.000Z</time>
      </trkpt>
      <trkpt lat="42.96097" lon="0.84343">
        <ele>1584</ele>
        <time>2018-04-02T09:46:21.000Z</time>
      </trkpt>
      <trkpt lat="42.96096" lon="0.84344">
        <ele>1584</ele>
        <time>2018-04-02T09:46:23.000Z</time>
      </trkpt>
      <trkpt lat="42.96096" lon="0.84344">
        <ele>1584</ele>
        <time>2018-04-02T09:46:25.000Z</time>
      </trkpt>
      <trkpt lat="42.96097" lon="0.84344">
        <ele>1584</ele>
        <time>2018-04-02T09:46:27.000Z</time>
      </trkpt>
      <trkpt lat="42.96096" lon="0.84344">
        <ele>1584</ele>
        <time>2018-04-02T09:46:29.000Z</time>
      </trkpt>
      <trkpt lat="42.96096" lon="0.84344">
        <ele>1584</ele>
        <time>2018-04-02T09:46:31.000Z</time>
      </trkpt>
      <trkpt lat="42.96096" lon="0.84345">
        <ele>1584</ele>
        <time>2018-04-02T09:46:33.000Z</time>
      </trkpt>
      <trkpt lat="42.96096" lon="0.84344">
        <ele>1584</ele>
        <time>2018-04-02T09:46:35.000Z</time>
      </trkpt>
      <trkpt lat="42.96096" lon="0.84345">
        <ele>1584</ele>
        <time>2018-04-02T09:46:37.000Z</time>
      </trkpt>
      <trkpt lat="42.96096" lon="0.84345">
        <ele>1584</ele>
        <time>2018-04-02T09:46:39.000Z</time>
      </trkpt>
      <trkpt lat="42.96096" lon="0.84345">
        <ele>1584</ele>
        <time>2018-04-02T09:46:41.000Z</time>
      </trkpt>
      <trkpt lat="42.96096" lon="0.84345">
        <ele>1584</ele>
        <time>2018-04-02T09:46:43.000Z</time>
      </trkpt>
      <trkpt lat="42.96096" lon="0.84345">
        <ele>1584</ele>
        <time>2018-04-02T09:46:45.000Z</time>
      </trkpt>
      <trkpt lat="42.96096" lon="0.84345">
        <ele>1584</ele>
        <time>2018-04-02T09:46:47.000Z</time>
      </trkpt>
      <trkpt lat="42.96096" lon="0.84345">
        <ele>1584</ele>
        <time>2018-04-02T09:46:49.000Z</time>
      </trkpt>
      <trkpt lat="42.96096" lon="0.84345">
        <ele>1584</ele>
        <time>2018-04-02T09:46:51.000Z</time>
      </trkpt>
      <trkpt lat="42.96096" lon="0.84345">
        <ele>1584</ele>
        <time>2018-04-02T09:46:53.000Z</time>
      </trkpt>
      <trkpt lat="42.96096" lon="0.84344">
        <ele>1584</ele>
        <time>2018-04-02T09:46:55.000Z</time>
      </trkpt>
      <trkpt lat="42.96096" lon="0.84345">
        <ele>1584</ele>
        <time>2018-04-02T09:46:57.000Z</time>
      </trkpt>
      <trkpt lat="42.96096" lon="0.84345">
        <ele>1584</ele>
        <time>2018-04-02T09:46:59.000Z</time>
      </trkpt>
      <trkpt lat="42.96096" lon="0.84345">
        <ele>1584</ele>
        <time>2018-04-02T09:47:01.000Z</time>
      </trkpt>
      <trkpt lat="42.96096" lon="0.84346">
        <ele>1584</ele>
        <time>2018-04-02T09:47:03.000Z</time>
      </trkpt>
      <trkpt lat="42.96097" lon="0.84345">
        <ele>1584</ele>
        <time>2018-04-02T09:47:05.000Z</time>
      </trkpt>
      <trkpt lat="42.96097" lon="0.84344">
        <ele>1584</ele>
        <time>2018-04-02T09:47:07.000Z</time>
      </trkpt>
      <trkpt lat="42.96097" lon="0.84344">
        <ele>1584</ele>
        <time>2018-04-02T09:47:09.000Z</time>
      </trkpt>
      <trkpt lat="42.96096" lon="0.84344">
        <ele>1584</ele>
        <time>2018-04-02T09:47:11.000Z</time>
      </trkpt>
      <trkpt lat="42.96096" lon="0.84344">
        <ele>1584</ele>
        <time>2018-04-02T09:47:13.000Z</time>
      </trkpt>
      <trkpt lat="42.96096" lon="0.84344">
        <ele>1584</ele>
        <time>2018-04-02T09:47:15.000Z</time>
      </trkpt>
      <trkpt lat="42.96096" lon="0.84344">
        <ele>1584</ele>
        <time>2018-04-02T09:47:17.000Z</time>
      </trkpt>
      <trkpt lat="42.96096" lon="0.84344">
        <ele>1584</ele>
        <time>2018-04-02T09:47:19.000Z</time>
      </trkpt>
      <trkpt lat="42.96095" lon="0.84344">
        <ele>1584</ele>
        <time>2018-04-02T09:47:21.000Z</time>
      </trkpt>
      <trkpt lat="42.96096" lon="0.84344">
        <ele>1584</ele>
        <time>2018-04-02T09:47:23.000Z</time>
      </trkpt>
      <trkpt lat="42.96096" lon="0.84344">
        <ele>1584</ele>
        <time>2018-04-02T09:47:25.000Z</time>
      </trkpt>
      <trkpt lat="42.96096" lon="0.84344">
        <ele>1584</ele>
        <time>2018-04-02T09:47:27.000Z</time>
      </trkpt>
      <trkpt lat="42.96096" lon="0.84344">
        <ele>1584</ele>
        <time>2018-04-02T09:47:29.000Z</time>
      </trkpt>
      <trkpt lat="42.96096" lon="0.84344">
        <ele>1584</ele>
        <time>2018-04-02T09:47:31.000Z</time>
      </trkpt>
      <trkpt lat="42.96096" lon="0.84344">
        <ele>1584</ele>
        <time>2018-04-02T09:47:33.000Z</time>
      </trkpt>
      <trkpt lat="42.96097" lon="0.84344">
        <ele>1584</ele>
        <time>2018-04-02T09:47:35.000Z</time>
      </trkpt>
      <trkpt lat="42.96096" lon="0.84344">
        <ele>1584</ele>
        <time>2018-04-02T09:47:37.000Z</time>
      </trkpt>
      <trkpt lat="42.96096" lon="0.84344">
        <ele>1584</ele>
        <time>2018-04-02T09:47:39.000Z</time>
      </trkpt>
      <trkpt lat="42.96097" lon="0.84343">
        <ele>1584</ele>
        <time>2018-04-02T09:47:41.000Z</time>
      </trkpt>
      <trkpt lat="42.96096" lon="0.84343">
        <ele>1584</ele>
        <time>2018-04-02T09:47:43.000Z</time>
      </trkpt>
      <trkpt lat="42.96097" lon="0.84343">
        <ele>1584</ele>
        <time>2018-04-02T09:47:45.000Z</time>
      </trkpt>
      <trkpt lat="42.96097" lon="0.84343">
        <ele>1584</ele>
        <time>2018-04-02T09:47:47.000Z</time>
      </trkpt>
      <trkpt lat="42.96096" lon="0.84343">
        <ele>1584</ele>
        <time>2018-04-02T09:47:49.000Z</time>
      </trkpt>
      <trkpt lat="42.96096" lon="0.84343">
        <ele>1584</ele>
        <time>2018-04-02T09:47:51.000Z</time>
      </trkpt>
      <trkpt lat="42.96096" lon="0.84343">
        <ele>1584</ele>
        <time>2018-04-02T09:47:53.000Z</time>
      </trkpt>
      <trkpt lat="42.96097" lon="0.84343">
        <ele>1584</ele>
        <time>2018-04-02T09:47:55.000Z</time>
      </trkpt>
      <trkpt lat="42.96097" lon="0.84343">
        <ele>1584</ele>
        <time>2018-04-02T09:47:57.000Z</time>
      </trkpt>
      <trkpt lat="42.96097" lon="0.84343">
        <ele>1584</ele>
        <time>2018-04-02T09:47:59.000Z</time>
      </trkpt>
      <trkpt lat="42.96097" lon="0.84343">
        <ele>1584</ele>
        <time>2018-04-02T09:48:01.000Z</time>
      </trkpt>
      <trkpt lat="42.96097" lon="0.84343">
        <ele>1584</ele>
        <time>2018-04-02T09:48:03.000Z</time>
      </trkpt>
      <trkpt lat="42.96097" lon="0.84343">
        <ele>1584</ele>
        <time>2018-04-02T09:48:05.000Z</time>
      </trkpt>
      <trkpt lat="42.96098" lon="0.84344">
        <ele>1584</ele>
        <time>2018-04-02T09:48:07.000Z</time>
      </trkpt>
      <trkpt lat="42.96098" lon="0.84344">
        <ele>1584</ele>
        <time>2018-04-02T09:48:09.000Z</time>
      </trkpt>
      <trkpt lat="42.96098" lon="0.84344">
        <ele>1584</ele>
        <time>2018-04-02T09:48:11.000Z</time>
      </trkpt>
      <trkpt lat="42.96098" lon="0.84344">
        <ele>1584</ele>
        <time>2018-04-02T09:48:13.000Z</time>
      </trkpt>
      <trkpt lat="42.96098" lon="0.84344">
        <ele>1584</ele>
        <time>2018-04-02T09:48:15.000Z</time>
      </trkpt>
      <trkpt lat="42.96098" lon="0.84344">
        <ele>1584</ele>
        <time>2018-04-02T09:48:17.000Z</time>
      </trkpt>
      <trkpt lat="42.96099" lon="0.84344">
        <ele>1584</ele>
        <time>2018-04-02T09:48:19.000Z</time>
      </trkpt>
      <trkpt lat="42.96099" lon="0.84344">
        <ele>1584</ele>
        <time>2018-04-02T09:48:21.000Z</time>
      </trkpt>
      <trkpt lat="42.96099" lon="0.84344">
        <ele>1584</ele>
        <time>2018-04-02T09:48:23.000Z</time>
      </trkpt>
      <trkpt lat="42.96098" lon="0.84344">
        <ele>1584</ele>
        <time>2018-04-02T09:48:25.000Z</time>
      </trkpt>
      <trkpt lat="42.96099" lon="0.84344">
        <ele>1584</ele>
        <time>2018-04-02T09:48:27.000Z</time>
      </trkpt>
      <trkpt lat="42.96098" lon="0.84343">
        <ele>1584</ele>
        <time>2018-04-02T09:48:29.000Z</time>
      </trkpt>
      <trkpt lat="42.96099" lon="0.84343">
        <ele>1584</ele>
        <time>2018-04-02T09:48:31.000Z</time>
      </trkpt>
      <trkpt lat="42.961" lon="0.84343">
        <ele>1584</ele>
        <time>2018-04-02T09:48:33.000Z</time>
      </trkpt>
      <trkpt lat="42.961" lon="0.84343">
        <ele>1584</ele>
        <time>2018-04-02T09:48:35.000Z</time>
      </trkpt>
      <trkpt lat="42.961" lon="0.84343">
        <ele>1584</ele>
        <time>2018-04-02T09:48:37.000Z</time>
      </trkpt>
      <trkpt lat="42.961" lon="0.84343">
        <ele>1584</ele>
        <time>2018-04-02T09:48:39.000Z</time>
      </trkpt>
      <trkpt lat="42.96099" lon="0.84343">
        <ele>1584</ele>
        <time>2018-04-02T09:48:41.000Z</time>
      </trkpt>
      <trkpt lat="42.96099" lon="0.84344">
        <ele>1584</ele>
        <time>2018-04-02T09:48:43.000Z</time>
      </trkpt>
      <trkpt lat="42.96099" lon="0.84344">
        <ele>1584</ele>
        <time>2018-04-02T09:48:45.000Z</time>
      </trkpt>
      <trkpt lat="42.96099" lon="0.84343">
        <ele>1584</ele>
        <time>2018-04-02T09:48:47.000Z</time>
      </trkpt>
      <trkpt lat="42.96098" lon="0.84344">
        <ele>1584</ele>
        <time>2018-04-02T09:48:49.000Z</time>
      </trkpt>
      <trkpt lat="42.96099" lon="0.84344">
        <ele>1584</ele>
        <time>2018-04-02T09:48:51.000Z</time>
      </trkpt>
      <trkpt lat="42.96099" lon="0.84344">
        <ele>1584</ele>
        <time>2018-04-02T09:48:53.000Z</time>
      </trkpt>
      <trkpt lat="42.96099" lon="0.84344">
        <ele>1584</ele>
        <time>2018-04-02T09:48:55.000Z</time>
      </trkpt>
      <trkpt lat="42.96099" lon="0.84344">
        <ele>1584</ele>
        <time>2018-04-02T09:48:57.000Z</time>
      </trkpt>
      <trkpt lat="42.96099" lon="0.84343">
        <ele>1584</ele>
        <time>2018-04-02T09:48:59.000Z</time>
      </trkpt>
      <trkpt lat="42.96099" lon="0.84343">
        <ele>1584</ele>
        <time>2018-04-02T09:49:01.000Z</time>
      </trkpt>
      <trkpt lat="42.961" lon="0.84343">
        <ele>1584</ele>
        <time>2018-04-02T09:49:03.000Z</time>
      </trkpt>
      <trkpt lat="42.96099" lon="0.84344">
        <ele>1584</ele>
        <time>2018-04-02T09:49:05.000Z</time>
      </trkpt>
      <trkpt lat="42.96099" lon="0.84344">
        <ele>1584</ele>
        <time>2018-04-02T09:49:07.000Z</time>
      </trkpt>
      <trkpt lat="42.96099" lon="0.84344">
        <ele>1584</ele>
        <time>2018-04-02T09:49:09.000Z</time>
      </trkpt>
      <trkpt lat="42.96099" lon="0.84344">
        <ele>1584</ele>
        <time>2018-04-02T09:49:11.000Z</time>
      </trkpt>
      <trkpt lat="42.96099" lon="0.84344">
        <ele>1584</ele>
        <time>2018-04-02T09:49:13.000Z</time>
      </trkpt>
      <trkpt lat="42.96099" lon="0.84344">
        <ele>1584</ele>
        <time>2018-04-02T09:49:15.000Z</time>
      </trkpt>
      <trkpt lat="42.96099" lon="0.84344">
        <ele>1584</ele>
        <time>2018-04-02T09:49:17.000Z</time>
      </trkpt>
      <trkpt lat="42.96098" lon="0.84344">
        <ele>1584</ele>
        <time>2018-04-02T09:49:19.000Z</time>
      </trkpt>
      <trkpt lat="42.96098" lon="0.84344">
        <ele>1584</ele>
        <time>2018-04-02T09:49:21.000Z</time>
      </trkpt>
      <trkpt lat="42.96099" lon="0.84344">
        <ele>1584</ele>
        <time>2018-04-02T09:49:23.000Z</time>
      </trkpt>
      <trkpt lat="42.96098" lon="0.84344">
        <ele>1584</ele>
        <time>2018-04-02T09:49:25.000Z</time>
      </trkpt>
      <trkpt lat="42.96099" lon="0.84345">
        <ele>1583</ele>
        <time>2018-04-02T09:49:27.000Z</time>
      </trkpt>
      <trkpt lat="42.96099" lon="0.84347">
        <ele>1583</ele>
        <time>2018-04-02T09:49:29.000Z</time>
      </trkpt>
      <trkpt lat="42.96101" lon="0.84348">
        <ele>1583</ele>
        <time>2018-04-02T09:49:31.000Z</time>
      </trkpt>
      <trkpt lat="42.96101" lon="0.8435">
        <ele>1582</ele>
        <time>2018-04-02T09:49:33.000Z</time>
      </trkpt>
      <trkpt lat="42.96102" lon="0.84351">
        <ele>1582</ele>
        <time>2018-04-02T09:49:35.000Z</time>
      </trkpt>
      <trkpt lat="42.96103" lon="0.84352">
        <ele>1582</ele>
        <time>2018-04-02T09:49:37.000Z</time>
      </trkpt>
      <trkpt lat="42.96103" lon="0.84352">
        <ele>1582</ele>
        <time>2018-04-02T09:49:39.000Z</time>
      </trkpt>
      <trkpt lat="42.96104" lon="0.84352">
        <ele>1581</ele>
        <time>2018-04-02T09:49:41.000Z</time>
      </trkpt>
      <trkpt lat="42.96106" lon="0.84352">
        <ele>1581</ele>
        <time>2018-04-02T09:49:43.000Z</time>
      </trkpt>
      <trkpt lat="42.96106" lon="0.84352">
        <ele>1581</ele>
        <time>2018-04-02T09:49:45.000Z</time>
      </trkpt>
      <trkpt lat="42.96106" lon="0.84352">
        <ele>1581</ele>
        <time>2018-04-02T09:49:47.000Z</time>
      </trkpt>
      <trkpt lat="42.96106" lon="0.84352">
        <ele>1581</ele>
        <time>2018-04-02T09:49:49.000Z</time>
      </trkpt>
      <trkpt lat="42.96106" lon="0.84353">
        <ele>1581</ele>
        <time>2018-04-02T09:49:51.000Z</time>
      </trkpt>
      <trkpt lat="42.96106" lon="0.84353">
        <ele>1581</ele>
        <time>2018-04-02T09:49:53.000Z</time>
      </trkpt>
      <trkpt lat="42.96105" lon="0.84353">
        <ele>1581</ele>
        <time>2018-04-02T09:49:55.000Z</time>
      </trkpt>
      <trkpt lat="42.96106" lon="0.84353">
        <ele>1581</ele>
        <time>2018-04-02T09:49:57.000Z</time>
      </trkpt>
      <trkpt lat="42.96106" lon="0.84353">
        <ele>1581</ele>
        <time>2018-04-02T09:49:59.000Z</time>
      </trkpt>
      <trkpt lat="42.96106" lon="0.84354">
        <ele>1581</ele>
        <time>2018-04-02T09:50:01.000Z</time>
      </trkpt>
      <trkpt lat="42.96106" lon="0.84354">
        <ele>1581</ele>
        <time>2018-04-02T09:50:03.000Z</time>
      </trkpt>
      <trkpt lat="42.96106" lon="0.84354">
        <ele>1581</ele>
        <time>2018-04-02T09:50:05.000Z</time>
      </trkpt>
      <trkpt lat="42.96105" lon="0.84354">
        <ele>1581</ele>
        <time>2018-04-02T09:50:07.000Z</time>
      </trkpt>
      <trkpt lat="42.96104" lon="0.84353">
        <ele>1581</ele>
        <time>2018-04-02T09:50:09.000Z</time>
      </trkpt>
      <trkpt lat="42.96105" lon="0.84353">
        <ele>1581</ele>
        <time>2018-04-02T09:50:11.000Z</time>
      </trkpt>
      <trkpt lat="42.96105" lon="0.84353">
        <ele>1581</ele>
        <time>2018-04-02T09:50:13.000Z</time>
      </trkpt>
      <trkpt lat="42.96105" lon="0.84353">
        <ele>1581</ele>
        <time>2018-04-02T09:50:15.000Z</time>
      </trkpt>
      <trkpt lat="42.96105" lon="0.84353">
        <ele>1581</ele>
        <time>2018-04-02T09:50:17.000Z</time>
      </trkpt>
      <trkpt lat="42.96105" lon="0.84354">
        <ele>1581</ele>
        <time>2018-04-02T09:50:19.000Z</time>
      </trkpt>
      <trkpt lat="42.96105" lon="0.84354">
        <ele>1581</ele>
        <time>2018-04-02T09:50:21.000Z</time>
      </trkpt>
      <trkpt lat="42.96106" lon="0.84354">
        <ele>1581</ele>
        <time>2018-04-02T09:50:23.000Z</time>
      </trkpt>
      <trkpt lat="42.96106" lon="0.84354">
        <ele>1581</ele>
        <time>2018-04-02T09:50:25.000Z</time>
      </trkpt>
      <trkpt lat="42.96106" lon="0.84354">
        <ele>1581</ele>
        <time>2018-04-02T09:50:27.000Z</time>
      </trkpt>
      <trkpt lat="42.96106" lon="0.84354">
        <ele>1581</ele>
        <time>2018-04-02T09:50:29.000Z</time>
      </trkpt>
      <trkpt lat="42.96106" lon="0.84354">
        <ele>1581</ele>
        <time>2018-04-02T09:50:31.000Z</time>
      </trkpt>
      <trkpt lat="42.96106" lon="0.84354">
        <ele>1581</ele>
        <time>2018-04-02T09:50:33.000Z</time>
      </trkpt>
      <trkpt lat="42.96106" lon="0.84353">
        <ele>1581</ele>
        <time>2018-04-02T09:50:35.000Z</time>
      </trkpt>
      <trkpt lat="42.96105" lon="0.84353">
        <ele>1581</ele>
        <time>2018-04-02T09:50:37.000Z</time>
      </trkpt>
      <trkpt lat="42.96105" lon="0.84353">
        <ele>1581</ele>
        <time>2018-04-02T09:50:39.000Z</time>
      </trkpt>
      <trkpt lat="42.96105" lon="0.84354">
        <ele>1581</ele>
        <time>2018-04-02T09:50:41.000Z</time>
      </trkpt>
      <trkpt lat="42.96106" lon="0.84354">
        <ele>1581</ele>
        <time>2018-04-02T09:50:43.000Z</time>
      </trkpt>
      <trkpt lat="42.96106" lon="0.84354">
        <ele>1581</ele>
        <time>2018-04-02T09:50:45.000Z</time>
      </trkpt>
      <trkpt lat="42.96106" lon="0.84354">
        <ele>1581</ele>
        <time>2018-04-02T09:50:47.000Z</time>
      </trkpt>
      <trkpt lat="42.96106" lon="0.84354">
        <ele>1581</ele>
        <time>2018-04-02T09:50:49.000Z</time>
      </trkpt>
      <trkpt lat="42.96106" lon="0.84354">
        <ele>1581</ele>
        <time>2018-04-02T09:50:51.000Z</time>
      </trkpt>
      <trkpt lat="42.96107" lon="0.84354">
        <ele>1581</ele>
        <time>2018-04-02T09:50:53.000Z</time>
      </trkpt>
      <trkpt lat="42.96107" lon="0.84354">
        <ele>1581</ele>
        <time>2018-04-02T09:50:55.000Z</time>
      </trkpt>
      <trkpt lat="42.96107" lon="0.84353">
        <ele>1581</ele>
        <time>2018-04-02T09:50:57.000Z</time>
      </trkpt>
      <trkpt lat="42.96106" lon="0.84353">
        <ele>1581</ele>
        <time>2018-04-02T09:50:59.000Z</time>
      </trkpt>
      <trkpt lat="42.96106" lon="0.84353">
        <ele>1581</ele>
        <time>2018-04-02T09:51:01.000Z</time>
      </trkpt>
      <trkpt lat="42.96106" lon="0.84353">
        <ele>1581</ele>
        <time>2018-04-02T09:51:03.000Z</time>
      </trkpt>
      <trkpt lat="42.96105" lon="0.84354">
        <ele>1581</ele>
        <time>2018-04-02T09:51:05.000Z</time>
      </trkpt>
      <trkpt lat="42.96105" lon="0.84353">
        <ele>1581</ele>
        <time>2018-04-02T09:51:07.000Z</time>
      </trkpt>
      <trkpt lat="42.96105" lon="0.84353">
        <ele>1581</ele>
        <time>2018-04-02T09:51:09.000Z</time>
      </trkpt>
      <trkpt lat="42.96105" lon="0.84353">
        <ele>1581</ele>
        <time>2018-04-02T09:51:11.000Z</time>
      </trkpt>
      <trkpt lat="42.96105" lon="0.84352">
        <ele>1581</ele>
        <time>2018-04-02T09:51:13.000Z</time>
      </trkpt>
      <trkpt lat="42.96105" lon="0.84352">
        <ele>1581</ele>
        <time>2018-04-02T09:51:15.000Z</time>
      </trkpt>
      <trkpt lat="42.96105" lon="0.84352">
        <ele>1581</ele>
        <time>2018-04-02T09:51:17.000Z</time>
      </trkpt>
      <trkpt lat="42.96105" lon="0.84352">
        <ele>1582</ele>
        <time>2018-04-02T09:51:19.000Z</time>
      </trkpt>
      <trkpt lat="42.96105" lon="0.84352">
        <ele>1582</ele>
        <time>2018-04-02T09:51:21.000Z</time>
      </trkpt>
      <trkpt lat="42.96106" lon="0.84352">
        <ele>1581</ele>
        <time>2018-04-02T09:51:23.000Z</time>
      </trkpt>
      <trkpt lat="42.96105" lon="0.84352">
        <ele>1581</ele>
        <time>2018-04-02T09:51:25.000Z</time>
      </trkpt>
      <trkpt lat="42.96105" lon="0.84352">
        <ele>1581</ele>
        <time>2018-04-02T09:51:27.000Z</time>
      </trkpt>
      <trkpt lat="42.96105" lon="0.84352">
        <ele>1581</ele>
        <time>2018-04-02T09:51:29.000Z</time>
      </trkpt>
      <trkpt lat="42.96105" lon="0.84352">
        <ele>1581</ele>
        <time>2018-04-02T09:51:31.000Z</time>
      </trkpt>
      <trkpt lat="42.96105" lon="0.84352">
        <ele>1581</ele>
        <time>2018-04-02T09:51:33.000Z</time>
      </trkpt>
      <trkpt lat="42.96105" lon="0.84352">
        <ele>1581</ele>
        <time>2018-04-02T09:51:35.000Z</time>
      </trkpt>
      <trkpt lat="42.96105" lon="0.84353">
        <ele>1581</ele>
        <time>2018-04-02T09:51:37.000Z</time>
      </trkpt>
      <trkpt lat="42.96104" lon="0.84352">
        <ele>1581</ele>
        <time>2018-04-02T09:51:39.000Z</time>
      </trkpt>
      <trkpt lat="42.96104" lon="0.84353">
        <ele>1581</ele>
        <time>2018-04-02T09:51:41.000Z</time>
      </trkpt>
      <trkpt lat="42.96104" lon="0.84352">
        <ele>1581</ele>
        <time>2018-04-02T09:51:43.000Z</time>
      </trkpt>
      <trkpt lat="42.96104" lon="0.84352">
        <ele>1581</ele>
        <time>2018-04-02T09:51:45.000Z</time>
      </trkpt>
      <trkpt lat="42.96104" lon="0.84352">
        <ele>1582</ele>
        <time>2018-04-02T09:51:47.000Z</time>
      </trkpt>
      <trkpt lat="42.96105" lon="0.84353">
        <ele>1581</ele>
        <time>2018-04-02T09:51:49.000Z</time>
      </trkpt>
      <trkpt lat="42.96105" lon="0.84353">
        <ele>1581</ele>
        <time>2018-04-02T09:51:51.000Z</time>
      </trkpt>
      <trkpt lat="42.96105" lon="0.84353">
        <ele>1581</ele>
        <time>2018-04-02T09:51:53.000Z</time>
      </trkpt>
      <trkpt lat="42.96106" lon="0.84354">
        <ele>1581</ele>
        <time>2018-04-02T09:51:55.000Z</time>
      </trkpt>
      <trkpt lat="42.96105" lon="0.84354">
        <ele>1581</ele>
        <time>2018-04-02T09:51:57.000Z</time>
      </trkpt>
      <trkpt lat="42.96105" lon="0.84354">
        <ele>1581</ele>
        <time>2018-04-02T09:51:59.000Z</time>
      </trkpt>
      <trkpt lat="42.96105" lon="0.84355">
        <ele>1581</ele>
        <time>2018-04-02T09:52:01.000Z</time>
      </trkpt>
      <trkpt lat="42.96104" lon="0.84354">
        <ele>1581</ele>
        <time>2018-04-02T09:52:03.000Z</time>
      </trkpt>
      <trkpt lat="42.96104" lon="0.84354">
        <ele>1581</ele>
        <time>2018-04-02T09:52:05.000Z</time>
      </trkpt>
      <trkpt lat="42.96103" lon="0.84355">
        <ele>1581</ele>
        <time>2018-04-02T09:52:07.000Z</time>
      </trkpt>
      <trkpt lat="42.96102" lon="0.84355">
        <ele>1581</ele>
        <time>2018-04-02T09:52:09.000Z</time>
      </trkpt>
      <trkpt lat="42.961" lon="0.84354">
        <ele>1582</ele>
        <time>2018-04-02T09:52:11.000Z</time>
      </trkpt>
      <trkpt lat="42.96099" lon="0.84352">
        <ele>1582</ele>
        <time>2018-04-02T09:52:13.000Z</time>
      </trkpt>
      <trkpt lat="42.96099" lon="0.8435">
        <ele>1583</ele>
        <time>2018-04-02T09:52:15.000Z</time>
      </trkpt>
      <trkpt lat="42.96098" lon="0.8435">
        <ele>1583</ele>
        <time>2018-04-02T09:52:17.000Z</time>
      </trkpt>
      <trkpt lat="42.96098" lon="0.8435">
        <ele>1583</ele>
        <time>2018-04-02T09:52:19.000Z</time>
      </trkpt>
      <trkpt lat="42.96098" lon="0.8435">
        <ele>1583</ele>
        <time>2018-04-02T09:52:21.000Z</time>
      </trkpt>
      <trkpt lat="42.96097" lon="0.84349">
        <ele>1583</ele>
        <time>2018-04-02T09:52:23.000Z</time>
      </trkpt>
      <trkpt lat="42.96097" lon="0.84348">
        <ele>1583</ele>
        <time>2018-04-02T09:52:25.000Z</time>
      </trkpt>
      <trkpt lat="42.96095" lon="0.84347">
        <ele>1584</ele>
        <time>2018-04-02T09:52:27.000Z</time>
      </trkpt>
      <trkpt lat="42.96094" lon="0.84346">
        <ele>1584</ele>
        <time>2018-04-02T09:52:29.000Z</time>
      </trkpt>
      <trkpt lat="42.96093" lon="0.84345">
        <ele>1584</ele>
        <time>2018-04-02T09:52:31.000Z</time>
      </trkpt>
      <trkpt lat="42.96092" lon="0.84345">
        <ele>1584</ele>
        <time>2018-04-02T09:52:33.000Z</time>
      </trkpt>
      <trkpt lat="42.96091" lon="0.84344">
        <ele>1585</ele>
        <time>2018-04-02T09:52:35.000Z</time>
      </trkpt>
      <trkpt lat="42.9609" lon="0.84344">
        <ele>1584</ele>
        <time>2018-04-02T09:52:37.000Z</time>
      </trkpt>
      <trkpt lat="42.96089" lon="0.84344">
        <ele>1584</ele>
        <time>2018-04-02T09:52:39.000Z</time>
      </trkpt>
      <trkpt lat="42.96088" lon="0.84344">
        <ele>1584</ele>
        <time>2018-04-02T09:52:41.000Z</time>
      </trkpt>
      <trkpt lat="42.96088" lon="0.84344">
        <ele>1584</ele>
        <time>2018-04-02T09:52:43.000Z</time>
      </trkpt>
      <trkpt lat="42.96088" lon="0.84344">
        <ele>1584</ele>
        <time>2018-04-02T09:52:45.000Z</time>
      </trkpt>
      <trkpt lat="42.96088" lon="0.84344">
        <ele>1584</ele>
        <time>2018-04-02T09:52:47.000Z</time>
      </trkpt>
      <trkpt lat="42.96088" lon="0.84344">
        <ele>1584</ele>
        <time>2018-04-02T09:52:49.000Z</time>
      </trkpt>
      <trkpt lat="42.96088" lon="0.84344">
        <ele>1584</ele>
        <time>2018-04-02T09:52:51.000Z</time>
      </trkpt>
      <trkpt lat="42.96088" lon="0.84344">
        <ele>1584</ele>
        <time>2018-04-02T09:52:53.000Z</time>
      </trkpt>
      <trkpt lat="42.96088" lon="0.84344">
        <ele>1584</ele>
        <time>2018-04-02T09:52:55.000Z</time>
      </trkpt>
      <trkpt lat="42.96088" lon="0.84344">
        <ele>1584</ele>
        <time>2018-04-02T09:52:57.000Z</time>
      </trkpt>
      <trkpt lat="42.96088" lon="0.84344">
        <ele>1584</ele>
        <time>2018-04-02T09:52:59.000Z</time>
      </trkpt>
      <trkpt lat="42.96088" lon="0.84344">
        <ele>1584</ele>
        <time>2018-04-02T09:53:01.000Z</time>
      </trkpt>
      <trkpt lat="42.96088" lon="0.84344">
        <ele>1584</ele>
        <time>2018-04-02T09:53:03.000Z</time>
      </trkpt>
      <trkpt lat="42.96088" lon="0.84344">
        <ele>1584</ele>
        <time>2018-04-02T09:53:05.000Z</time>
      </trkpt>
      <trkpt lat="42.96088" lon="0.84344">
        <ele>1584</ele>
        <time>2018-04-02T09:53:07.000Z</time>
      </trkpt>
      <trkpt lat="42.96087" lon="0.84344">
        <ele>1584</ele>
        <time>2018-04-02T09:53:09.000Z</time>
      </trkpt>
      <trkpt lat="42.96087" lon="0.84343">
        <ele>1584</ele>
        <time>2018-04-02T09:53:11.000Z</time>
      </trkpt>
      <trkpt lat="42.96087" lon="0.84343">
        <ele>1584</ele>
        <time>2018-04-02T09:53:13.000Z</time>
      </trkpt>
      <trkpt lat="42.96087" lon="0.84344">
        <ele>1584</ele>
        <time>2018-04-02T09:53:15.000Z</time>
      </trkpt>
      <trkpt lat="42.96087" lon="0.84345">
        <ele>1584</ele>
        <time>2018-04-02T09:53:17.000Z</time>
      </trkpt>
      <trkpt lat="42.96087" lon="0.84344">
        <ele>1584</ele>
        <time>2018-04-02T09:53:19.000Z</time>
      </trkpt>
      <trkpt lat="42.96087" lon="0.84344">
        <ele>1584</ele>
        <time>2018-04-02T09:53:21.000Z</time>
      </trkpt>
      <trkpt lat="42.96086" lon="0.84345">
        <ele>1584</ele>
        <time>2018-04-02T09:53:23.000Z</time>
      </trkpt>
      <trkpt lat="42.96085" lon="0.84345">
        <ele>1584</ele>
        <time>2018-04-02T09:53:25.000Z</time>
      </trkpt>
      <trkpt lat="42.96085" lon="0.84345">
        <ele>1584</ele>
        <time>2018-04-02T09:53:27.000Z</time>
      </trkpt>
      <trkpt lat="42.96085" lon="0.84345">
        <ele>1584</ele>
        <time>2018-04-02T09:53:29.000Z</time>
      </trkpt>
      <trkpt lat="42.96085" lon="0.84345">
        <ele>1584</ele>
        <time>2018-04-02T09:53:31.000Z</time>
      </trkpt>
      <trkpt lat="42.96084" lon="0.84345">
        <ele>1584</ele>
        <time>2018-04-02T09:53:33.000Z</time>
      </trkpt>
      <trkpt lat="42.96084" lon="0.84345">
        <ele>1584</ele>
        <time>2018-04-02T09:53:35.000Z</time>
      </trkpt>
      <trkpt lat="42.96084" lon="0.84345">
        <ele>1584</ele>
        <time>2018-04-02T09:53:37.000Z</time>
      </trkpt>
      <trkpt lat="42.96083" lon="0.84345">
        <ele>1584</ele>
        <time>2018-04-02T09:53:39.000Z</time>
      </trkpt>
      <trkpt lat="42.96083" lon="0.84344">
        <ele>1584</ele>
        <time>2018-04-02T09:53:41.000Z</time>
      </trkpt>
      <trkpt lat="42.96083" lon="0.84345">
        <ele>1584</ele>
        <time>2018-04-02T09:53:43.000Z</time>
      </trkpt>
      <trkpt lat="42.96082" lon="0.84345">
        <ele>1584</ele>
        <time>2018-04-02T09:53:45.000Z</time>
      </trkpt>
      <trkpt lat="42.96082" lon="0.84344">
        <ele>1584</ele>
        <time>2018-04-02T09:53:47.000Z</time>
      </trkpt>
      <trkpt lat="42.96082" lon="0.84344">
        <ele>1584</ele>
        <time>2018-04-02T09:53:49.000Z</time>
      </trkpt>
      <trkpt lat="42.96082" lon="0.84344">
        <ele>1584</ele>
        <time>2018-04-02T09:53:51.000Z</time>
      </trkpt>
      <trkpt lat="42.96081" lon="0.84344">
        <ele>1583</ele>
        <time>2018-04-02T09:53:53.000Z</time>
      </trkpt>
      <trkpt lat="42.96081" lon="0.84344">
        <ele>1583</ele>
        <time>2018-04-02T09:53:55.000Z</time>
      </trkpt>
      <trkpt lat="42.9608" lon="0.84344">
        <ele>1583</ele>
        <time>2018-04-02T09:53:57.000Z</time>
      </trkpt>
      <trkpt lat="42.9608" lon="0.84343">
        <ele>1583</ele>
        <time>2018-04-02T09:53:59.000Z</time>
      </trkpt>
      <trkpt lat="42.9608" lon="0.84343">
        <ele>1583</ele>
        <time>2018-04-02T09:54:01.000Z</time>
      </trkpt>
      <trkpt lat="42.9608" lon="0.84344">
        <ele>1583</ele>
        <time>2018-04-02T09:54:03.000Z</time>
      </trkpt>
      <trkpt lat="42.9608" lon="0.84343">
        <ele>1583</ele>
        <time>2018-04-02T09:54:05.000Z</time>
      </trkpt>
      <trkpt lat="42.96079" lon="0.84343">
        <ele>1583</ele>
        <time>2018-04-02T09:54:07.000Z</time>
      </trkpt>
      <trkpt lat="42.96079" lon="0.84342">
        <ele>1583</ele>
        <time>2018-04-02T09:54:09.000Z</time>
      </trkpt>
      <trkpt lat="42.96078" lon="0.84342">
        <ele>1584</ele>
        <time>2018-04-02T09:54:11.000Z</time>
      </trkpt>
      <trkpt lat="42.96078" lon="0.84341">
        <ele>1584</ele>
        <time>2018-04-02T09:54:13.000Z</time>
      </trkpt>
      <trkpt lat="42.96077" lon="0.84341">
        <ele>1584</ele>
        <time>2018-04-02T09:54:15.000Z</time>
      </trkpt>
      <trkpt lat="42.96077" lon="0.84341">
        <ele>1584</ele>
        <time>2018-04-02T09:54:17.000Z</time>
      </trkpt>
      <trkpt lat="42.96077" lon="0.8434">
        <ele>1584</ele>
        <time>2018-04-02T09:54:19.000Z</time>
      </trkpt>
      <trkpt lat="42.96077" lon="0.8434">
        <ele>1584</ele>
        <time>2018-04-02T09:54:21.000Z</time>
      </trkpt>
      <trkpt lat="42.96076" lon="0.84339">
        <ele>1584</ele>
        <time>2018-04-02T09:54:23.000Z</time>
      </trkpt>
      <trkpt lat="42.96076" lon="0.84339">
        <ele>1584</ele>
        <time>2018-04-02T09:54:25.000Z</time>
      </trkpt>
      <trkpt lat="42.96075" lon="0.84339">
        <ele>1584</ele>
        <time>2018-04-02T09:54:27.000Z</time>
      </trkpt>
      <trkpt lat="42.96075" lon="0.84338">
        <ele>1584</ele>
        <time>2018-04-02T09:54:29.000Z</time>
      </trkpt>
      <trkpt lat="42.96075" lon="0.84337">
        <ele>1584</ele>
        <time>2018-04-02T09:54:31.000Z</time>
      </trkpt>
      <trkpt lat="42.96075" lon="0.84337">
        <ele>1584</ele>
        <time>2018-04-02T09:54:33.000Z</time>
      </trkpt>
      <trkpt lat="42.96075" lon="0.84337">
        <ele>1584</ele>
        <time>2018-04-02T09:54:35.000Z</time>
      </trkpt>
      <trkpt lat="42.96074" lon="0.84336">
        <ele>1584</ele>
        <time>2018-04-02T09:54:37.000Z</time>
      </trkpt>
      <trkpt lat="42.96074" lon="0.84335">
        <ele>1584</ele>
        <time>2018-04-02T09:54:39.000Z</time>
      </trkpt>
      <trkpt lat="42.96073" lon="0.84334">
        <ele>1584</ele>
        <time>2018-04-02T09:54:41.000Z</time>
      </trkpt>
      <trkpt lat="42.96072" lon="0.84333">
        <ele>1584</ele>
        <time>2018-04-02T09:54:43.000Z</time>
      </trkpt>
      <trkpt lat="42.96072" lon="0.84332">
        <ele>1585</ele>
        <time>2018-04-02T09:54:45.000Z</time>
      </trkpt>
      <trkpt lat="42.96071" lon="0.84331">
        <ele>1585</ele>
        <time>2018-04-02T09:54:47.000Z</time>
      </trkpt>
      <trkpt lat="42.9607" lon="0.8433">
        <ele>1585</ele>
        <time>2018-04-02T09:54:49.000Z</time>
      </trkpt>
      <trkpt lat="42.9607" lon="0.8433">
        <ele>1585</ele>
        <time>2018-04-02T09:54:51.000Z</time>
      </trkpt>
      <trkpt lat="42.96068" lon="0.8433">
        <ele>1585</ele>
        <time>2018-04-02T09:54:53.000Z</time>
      </trkpt>
      <trkpt lat="42.96067" lon="0.84331">
        <ele>1584</ele>
        <time>2018-04-02T09:54:55.000Z</time>
      </trkpt>
      <trkpt lat="42.96065" lon="0.84331">
        <ele>1584</ele>
        <time>2018-04-02T09:54:57.000Z</time>
      </trkpt>
      <trkpt lat="42.96064" lon="0.84332">
        <ele>1584</ele>
        <time>2018-04-02T09:54:59.000Z</time>
      </trkpt>
      <trkpt lat="42.96062" lon="0.84332">
        <ele>1583</ele>
        <time>2018-04-02T09:55:01.000Z</time>
      </trkpt>
      <trkpt lat="42.96061" lon="0.84333">
        <ele>1583</ele>
        <time>2018-04-02T09:55:03.000Z</time>
      </trkpt>
      <trkpt lat="42.96059" lon="0.84332">
        <ele>1583</ele>
        <time>2018-04-02T09:55:05.000Z</time>
      </trkpt>
      <trkpt lat="42.96058" lon="0.84331">
        <ele>1583</ele>
        <time>2018-04-02T09:55:07.000Z</time>
      </trkpt>
      <trkpt lat="42.96057" lon="0.84329">
        <ele>1583</ele>
        <time>2018-04-02T09:55:09.000Z</time>
      </trkpt>
      <trkpt lat="42.96056" lon="0.84328">
        <ele>1584</ele>
        <time>2018-04-02T09:55:11.000Z</time>
      </trkpt>
      <trkpt lat="42.96055" lon="0.84326">
        <ele>1584</ele>
        <time>2018-04-02T09:55:13.000Z</time>
      </trkpt>
      <trkpt lat="42.96054" lon="0.84325">
        <ele>1584</ele>
        <time>2018-04-02T09:55:15.000Z</time>
      </trkpt>
      <trkpt lat="42.96053" lon="0.84324">
        <ele>1584</ele>
        <time>2018-04-02T09:55:17.000Z</time>
      </trkpt>
      <trkpt lat="42.96052" lon="0.84323">
        <ele>1584</ele>
        <time>2018-04-02T09:55:19.000Z</time>
      </trkpt>
      <trkpt lat="42.96051" lon="0.84322">
        <ele>1584</ele>
        <time>2018-04-02T09:55:21.000Z</time>
      </trkpt>
      <trkpt lat="42.9605" lon="0.84321">
        <ele>1584</ele>
        <time>2018-04-02T09:55:23.000Z</time>
      </trkpt>
      <trkpt lat="42.96049" lon="0.8432">
        <ele>1584</ele>
        <time>2018-04-02T09:55:25.000Z</time>
      </trkpt>
      <trkpt lat="42.96048" lon="0.84318">
        <ele>1584</ele>
        <time>2018-04-02T09:55:27.000Z</time>
      </trkpt>
      <trkpt lat="42.96047" lon="0.84317">
        <ele>1585</ele>
        <time>2018-04-02T09:55:29.000Z</time>
      </trkpt>
      <trkpt lat="42.96046" lon="0.84315">
        <ele>1585</ele>
        <time>2018-04-02T09:55:31.000Z</time>
      </trkpt>
      <trkpt lat="42.96045" lon="0.84314">
        <ele>1585</ele>
        <time>2018-04-02T09:55:33.000Z</time>
      </trkpt>
      <trkpt lat="42.96044" lon="0.84313">
        <ele>1585</ele>
        <time>2018-04-02T09:55:35.000Z</time>
      </trkpt>
      <trkpt lat="42.96043" lon="0.84311">
        <ele>1585</ele>
        <time>2018-04-02T09:55:37.000Z</time>
      </trkpt>
      <trkpt lat="42.96042" lon="0.8431">
        <ele>1585</ele>
        <time>2018-04-02T09:55:39.000Z</time>
      </trkpt>
      <trkpt lat="42.96041" lon="0.84308">
        <ele>1585</ele>
        <time>2018-04-02T09:55:41.000Z</time>
      </trkpt>
      <trkpt lat="42.9604" lon="0.84307">
        <ele>1586</ele>
        <time>2018-04-02T09:55:43.000Z</time>
      </trkpt>
      <trkpt lat="42.96038" lon="0.84305">
        <ele>1586</ele>
        <time>2018-04-02T09:55:45.000Z</time>
      </trkpt>
      <trkpt lat="42.96038" lon="0.84303">
        <ele>1586</ele>
        <time>2018-04-02T09:55:47.000Z</time>
      </trkpt>
      <trkpt lat="42.96037" lon="0.84302">
        <ele>1586</ele>
        <time>2018-04-02T09:55:49.000Z</time>
      </trkpt>
      <trkpt lat="42.96036" lon="0.843">
        <ele>1586</ele>
        <time>2018-04-02T09:55:51.000Z</time>
      </trkpt>
      <trkpt lat="42.96035" lon="0.84299">
        <ele>1586</ele>
        <time>2018-04-02T09:55:53.000Z</time>
      </trkpt>
      <trkpt lat="42.96034" lon="0.84297">
        <ele>1586</ele>
        <time>2018-04-02T09:55:55.000Z</time>
      </trkpt>
      <trkpt lat="42.96033" lon="0.84296">
        <ele>1586</ele>
        <time>2018-04-02T09:55:57.000Z</time>
      </trkpt>
      <trkpt lat="42.96031" lon="0.84294">
        <ele>1586</ele>
        <time>2018-04-02T09:55:59.000Z</time>
      </trkpt>
      <trkpt lat="42.9603" lon="0.84293">
        <ele>1585</ele>
        <time>2018-04-02T09:56:01.000Z</time>
      </trkpt>
      <trkpt lat="42.96029" lon="0.84291">
        <ele>1585</ele>
        <time>2018-04-02T09:56:03.000Z</time>
      </trkpt>
      <trkpt lat="42.96028" lon="0.84289">
        <ele>1585</ele>
        <time>2018-04-02T09:56:05.000Z</time>
      </trkpt>
      <trkpt lat="42.96027" lon="0.84288">
        <ele>1585</ele>
        <time>2018-04-02T09:56:07.000Z</time>
      </trkpt>
      <trkpt lat="42.96026" lon="0.84286">
        <ele>1585</ele>
        <time>2018-04-02T09:56:09.000Z</time>
      </trkpt>
      <trkpt lat="42.96025" lon="0.84284">
        <ele>1585</ele>
        <time>2018-04-02T09:56:11.000Z</time>
      </trkpt>
      <trkpt lat="42.96024" lon="0.84282">
        <ele>1585</ele>
        <time>2018-04-02T09:56:13.000Z</time>
      </trkpt>
      <trkpt lat="42.96024" lon="0.84281">
        <ele>1585</ele>
        <time>2018-04-02T09:56:15.000Z</time>
      </trkpt>
      <trkpt lat="42.96023" lon="0.84279">
        <ele>1585</ele>
        <time>2018-04-02T09:56:17.000Z</time>
      </trkpt>
      <trkpt lat="42.96022" lon="0.84278">
        <ele>1585</ele>
        <time>2018-04-02T09:56:19.000Z</time>
      </trkpt>
      <trkpt lat="42.96021" lon="0.84276">
        <ele>1585</ele>
        <time>2018-04-02T09:56:21.000Z</time>
      </trkpt>
      <trkpt lat="42.9602" lon="0.84274">
        <ele>1585</ele>
        <time>2018-04-02T09:56:23.000Z</time>
      </trkpt>
      <trkpt lat="42.96019" lon="0.84273">
        <ele>1585</ele>
        <time>2018-04-02T09:56:25.000Z</time>
      </trkpt>
      <trkpt lat="42.96018" lon="0.84271">
        <ele>1585</ele>
        <time>2018-04-02T09:56:27.000Z</time>
      </trkpt>
      <trkpt lat="42.96017" lon="0.84269">
        <ele>1585</ele>
        <time>2018-04-02T09:56:29.000Z</time>
      </trkpt>
      <trkpt lat="42.96016" lon="0.84268">
        <ele>1585</ele>
        <time>2018-04-02T09:56:31.000Z</time>
      </trkpt>
      <trkpt lat="42.96016" lon="0.84266">
        <ele>1585</ele>
        <time>2018-04-02T09:56:33.000Z</time>
      </trkpt>
      <trkpt lat="42.96015" lon="0.84264">
        <ele>1585</ele>
        <time>2018-04-02T09:56:35.000Z</time>
      </trkpt>
      <trkpt lat="42.96014" lon="0.84262">
        <ele>1585</ele>
        <time>2018-04-02T09:56:37.000Z</time>
      </trkpt>
      <trkpt lat="42.96013" lon="0.8426">
        <ele>1585</ele>
        <time>2018-04-02T09:56:39.000Z</time>
      </trkpt>
      <trkpt lat="42.96012" lon="0.84259">
        <ele>1585</ele>
        <time>2018-04-02T09:56:41.000Z</time>
      </trkpt>
      <trkpt lat="42.96011" lon="0.84257">
        <ele>1585</ele>
        <time>2018-04-02T09:56:43.000Z</time>
      </trkpt>
      <trkpt lat="42.9601" lon="0.84256">
        <ele>1585</ele>
        <time>2018-04-02T09:56:45.000Z</time>
      </trkpt>
      <trkpt lat="42.96009" lon="0.84254">
        <ele>1585</ele>
        <time>2018-04-02T09:56:47.000Z</time>
      </trkpt>
      <trkpt lat="42.96008" lon="0.84252">
        <ele>1585</ele>
        <time>2018-04-02T09:56:49.000Z</time>
      </trkpt>
      <trkpt lat="42.96007" lon="0.8425">
        <ele>1585</ele>
        <time>2018-04-02T09:56:51.000Z</time>
      </trkpt>
      <trkpt lat="42.96007" lon="0.84249">
        <ele>1585</ele>
        <time>2018-04-02T09:56:53.000Z</time>
      </trkpt>
      <trkpt lat="42.96006" lon="0.84247">
        <ele>1585</ele>
        <time>2018-04-02T09:56:55.000Z</time>
      </trkpt>
      <trkpt lat="42.96004" lon="0.84246">
        <ele>1585</ele>
        <time>2018-04-02T09:56:57.000Z</time>
      </trkpt>
      <trkpt lat="42.96004" lon="0.84244">
        <ele>1585</ele>
        <time>2018-04-02T09:56:59.000Z</time>
      </trkpt>
      <trkpt lat="42.96003" lon="0.84242">
        <ele>1584</ele>
        <time>2018-04-02T09:57:01.000Z</time>
      </trkpt>
      <trkpt lat="42.96002" lon="0.8424">
        <ele>1584</ele>
        <time>2018-04-02T09:57:03.000Z</time>
      </trkpt>
      <trkpt lat="42.96001" lon="0.84239">
        <ele>1584</ele>
        <time>2018-04-02T09:57:05.000Z</time>
      </trkpt>
      <trkpt lat="42.96" lon="0.84237">
        <ele>1584</ele>
        <time>2018-04-02T09:57:07.000Z</time>
      </trkpt>
      <trkpt lat="42.95999" lon="0.84235">
        <ele>1584</ele>
        <time>2018-04-02T09:57:09.000Z</time>
      </trkpt>
      <trkpt lat="42.95998" lon="0.84233">
        <ele>1584</ele>
        <time>2018-04-02T09:57:11.000Z</time>
      </trkpt>
      <trkpt lat="42.95997" lon="0.84231">
        <ele>1583</ele>
        <time>2018-04-02T09:57:13.000Z</time>
      </trkpt>
      <trkpt lat="42.95996" lon="0.84229">
        <ele>1583</ele>
        <time>2018-04-02T09:57:15.000Z</time>
      </trkpt>
      <trkpt lat="42.95995" lon="0.84227">
        <ele>1583</ele>
        <time>2018-04-02T09:57:17.000Z</time>
      </trkpt>
      <trkpt lat="42.95994" lon="0.84225">
        <ele>1583</ele>
        <time>2018-04-02T09:57:19.000Z</time>
      </trkpt>
      <trkpt lat="42.95993" lon="0.84223">
        <ele>1583</ele>
        <time>2018-04-02T09:57:21.000Z</time>
      </trkpt>
      <trkpt lat="42.95992" lon="0.84222">
        <ele>1583</ele>
        <time>2018-04-02T09:57:23.000Z</time>
      </trkpt>
      <trkpt lat="42.95991" lon="0.8422">
        <ele>1583</ele>
        <time>2018-04-02T09:57:25.000Z</time>
      </trkpt>
      <trkpt lat="42.9599" lon="0.84218">
        <ele>1583</ele>
        <time>2018-04-02T09:57:27.000Z</time>
      </trkpt>
      <trkpt lat="42.9599" lon="0.84216">
        <ele>1583</ele>
        <time>2018-04-02T09:57:29.000Z</time>
      </trkpt>
      <trkpt lat="42.95989" lon="0.84214">
        <ele>1583</ele>
        <time>2018-04-02T09:57:31.000Z</time>
      </trkpt>
      <trkpt lat="42.95988" lon="0.84212">
        <ele>1583</ele>
        <time>2018-04-02T09:57:33.000Z</time>
      </trkpt>
      <trkpt lat="42.95988" lon="0.8421">
        <ele>1583</ele>
        <time>2018-04-02T09:57:35.000Z</time>
      </trkpt>
      <trkpt lat="42.95987" lon="0.84208">
        <ele>1583</ele>
        <time>2018-04-02T09:57:37.000Z</time>
      </trkpt>
      <trkpt lat="42.95986" lon="0.84206">
        <ele>1583</ele>
        <time>2018-04-02T09:57:39.000Z</time>
      </trkpt>
      <trkpt lat="42.95986" lon="0.84205">
        <ele>1583</ele>
        <time>2018-04-02T09:57:41.000Z</time>
      </trkpt>
      <trkpt lat="42.95985" lon="0.84203">
        <ele>1583</ele>
        <time>2018-04-02T09:57:43.000Z</time>
      </trkpt>
      <trkpt lat="42.95984" lon="0.84201">
        <ele>1583</ele>
        <time>2018-04-02T09:57:45.000Z</time>
      </trkpt>
      <trkpt lat="42.95983" lon="0.842">
        <ele>1583</ele>
        <time>2018-04-02T09:57:47.000Z</time>
      </trkpt>
      <trkpt lat="42.95981" lon="0.84199">
        <ele>1582</ele>
        <time>2018-04-02T09:57:49.000Z</time>
      </trkpt>
      <trkpt lat="42.9598" lon="0.84197">
        <ele>1582</ele>
        <time>2018-04-02T09:57:51.000Z</time>
      </trkpt>
      <trkpt lat="42.95979" lon="0.84196">
        <ele>1582</ele>
        <time>2018-04-02T09:57:53.000Z</time>
      </trkpt>
      <trkpt lat="42.95978" lon="0.84194">
        <ele>1582</ele>
        <time>2018-04-02T09:57:55.000Z</time>
      </trkpt>
      <trkpt lat="42.95976" lon="0.84193">
        <ele>1582</ele>
        <time>2018-04-02T09:57:57.000Z</time>
      </trkpt>
      <trkpt lat="42.95975" lon="0.84192">
        <ele>1582</ele>
        <time>2018-04-02T09:57:59.000Z</time>
      </trkpt>
      <trkpt lat="42.95974" lon="0.84191">
        <ele>1582</ele>
        <time>2018-04-02T09:58:01.000Z</time>
      </trkpt>
      <trkpt lat="42.95974" lon="0.84189">
        <ele>1582</ele>
        <time>2018-04-02T09:58:03.000Z</time>
      </trkpt>
      <trkpt lat="42.95973" lon="0.84187">
        <ele>1582</ele>
        <time>2018-04-02T09:58:05.000Z</time>
      </trkpt>
      <trkpt lat="42.95972" lon="0.84186">
        <ele>1581</ele>
        <time>2018-04-02T09:58:07.000Z</time>
      </trkpt>
      <trkpt lat="42.95972" lon="0.84185">
        <ele>1581</ele>
        <time>2018-04-02T09:58:09.000Z</time>
      </trkpt>
      <trkpt lat="42.95971" lon="0.84184">
        <ele>1581</ele>
        <time>2018-04-02T09:58:11.000Z</time>
      </trkpt>
      <trkpt lat="42.95971" lon="0.84182">
        <ele>1581</ele>
        <time>2018-04-02T09:58:13.000Z</time>
      </trkpt>
      <trkpt lat="42.9597" lon="0.84181">
        <ele>1581</ele>
        <time>2018-04-02T09:58:15.000Z</time>
      </trkpt>
      <trkpt lat="42.95969" lon="0.84179">
        <ele>1581</ele>
        <time>2018-04-02T09:58:17.000Z</time>
      </trkpt>
      <trkpt lat="42.95969" lon="0.84178">
        <ele>1581</ele>
        <time>2018-04-02T09:58:19.000Z</time>
      </trkpt>
      <trkpt lat="42.95968" lon="0.84176">
        <ele>1580</ele>
        <time>2018-04-02T09:58:21.000Z</time>
      </trkpt>
      <trkpt lat="42.95968" lon="0.84175">
        <ele>1580</ele>
        <time>2018-04-02T09:58:23.000Z</time>
      </trkpt>
      <trkpt lat="42.95967" lon="0.84173">
        <ele>1580</ele>
        <time>2018-04-02T09:58:25.000Z</time>
      </trkpt>
      <trkpt lat="42.95967" lon="0.84171">
        <ele>1580</ele>
        <time>2018-04-02T09:58:27.000Z</time>
      </trkpt>
      <trkpt lat="42.95966" lon="0.8417">
        <ele>1580</ele>
        <time>2018-04-02T09:58:29.000Z</time>
      </trkpt>
      <trkpt lat="42.95965" lon="0.84169">
        <ele>1580</ele>
        <time>2018-04-02T09:58:31.000Z</time>
      </trkpt>
      <trkpt lat="42.95965" lon="0.84167">
        <ele>1579</ele>
        <time>2018-04-02T09:58:33.000Z</time>
      </trkpt>
      <trkpt lat="42.95964" lon="0.84165">
        <ele>1579</ele>
        <time>2018-04-02T09:58:35.000Z</time>
      </trkpt>
      <trkpt lat="42.95964" lon="0.84163">
        <ele>1579</ele>
        <time>2018-04-02T09:58:37.000Z</time>
      </trkpt>
      <trkpt lat="42.95963" lon="0.84162">
        <ele>1579</ele>
        <time>2018-04-02T09:58:39.000Z</time>
      </trkpt>
      <trkpt lat="42.95963" lon="0.84161">
        <ele>1579</ele>
        <time>2018-04-02T09:58:41.000Z</time>
      </trkpt>
      <trkpt lat="42.95962" lon="0.8416">
        <ele>1579</ele>
        <time>2018-04-02T09:58:43.000Z</time>
      </trkpt>
      <trkpt lat="42.95962" lon="0.84159">
        <ele>1579</ele>
        <time>2018-04-02T09:58:45.000Z</time>
      </trkpt>
      <trkpt lat="42.95961" lon="0.84158">
        <ele>1578</ele>
        <time>2018-04-02T09:58:47.000Z</time>
      </trkpt>
      <trkpt lat="42.95961" lon="0.84157">
        <ele>1578</ele>
        <time>2018-04-02T09:58:49.000Z</time>
      </trkpt>
      <trkpt lat="42.9596" lon="0.84155">
        <ele>1578</ele>
        <time>2018-04-02T09:58:51.000Z</time>
      </trkpt>
      <trkpt lat="42.95959" lon="0.84154">
        <ele>1578</ele>
        <time>2018-04-02T09:58:53.000Z</time>
      </trkpt>
      <trkpt lat="42.95957" lon="0.84153">
        <ele>1578</ele>
        <time>2018-04-02T09:58:55.000Z</time>
      </trkpt>
      <trkpt lat="42.95956" lon="0.84152">
        <ele>1578</ele>
        <time>2018-04-02T09:58:57.000Z</time>
      </trkpt>
      <trkpt lat="42.95955" lon="0.84151">
        <ele>1577</ele>
        <time>2018-04-02T09:58:59.000Z</time>
      </trkpt>
      <trkpt lat="42.95953" lon="0.8415">
        <ele>1577</ele>
        <time>2018-04-02T09:59:01.000Z</time>
      </trkpt>
      <trkpt lat="42.95952" lon="0.84149">
        <ele>1577</ele>
        <time>2018-04-02T09:59:03.000Z</time>
      </trkpt>
      <trkpt lat="42.95952" lon="0.84148">
        <ele>1577</ele>
        <time>2018-04-02T09:59:05.000Z</time>
      </trkpt>
      <trkpt lat="42.95951" lon="0.84147">
        <ele>1577</ele>
        <time>2018-04-02T09:59:07.000Z</time>
      </trkpt>
      <trkpt lat="42.95949" lon="0.84147">
        <ele>1577</ele>
        <time>2018-04-02T09:59:09.000Z</time>
      </trkpt>
      <trkpt lat="42.95948" lon="0.84146">
        <ele>1576</ele>
        <time>2018-04-02T09:59:11.000Z</time>
      </trkpt>
      <trkpt lat="42.95946" lon="0.84146">
        <ele>1576</ele>
        <time>2018-04-02T09:59:13.000Z</time>
      </trkpt>
      <trkpt lat="42.95945" lon="0.84145">
        <ele>1576</ele>
        <time>2018-04-02T09:59:15.000Z</time>
      </trkpt>
      <trkpt lat="42.95944" lon="0.84144">
        <ele>1576</ele>
        <time>2018-04-02T09:59:17.000Z</time>
      </trkpt>
      <trkpt lat="42.95942" lon="0.84143">
        <ele>1576</ele>
        <time>2018-04-02T09:59:19.000Z</time>
      </trkpt>
      <trkpt lat="42.95941" lon="0.84143">
        <ele>1576</ele>
        <time>2018-04-02T09:59:21.000Z</time>
      </trkpt>
      <trkpt lat="42.95939" lon="0.84143">
        <ele>1576</ele>
        <time>2018-04-02T09:59:23.000Z</time>
      </trkpt>
      <trkpt lat="42.95938" lon="0.84143">
        <ele>1575</ele>
        <time>2018-04-02T09:59:25.000Z</time>
      </trkpt>
      <trkpt lat="42.95936" lon="0.84143">
        <ele>1575</ele>
        <time>2018-04-02T09:59:27.000Z</time>
      </trkpt>
      <trkpt lat="42.95935" lon="0.84142">
        <ele>1575</ele>
        <time>2018-04-02T09:59:29.000Z</time>
      </trkpt>
      <trkpt lat="42.95934" lon="0.84142">
        <ele>1575</ele>
        <time>2018-04-02T09:59:31.000Z</time>
      </trkpt>
      <trkpt lat="42.95933" lon="0.84142">
        <ele>1575</ele>
        <time>2018-04-02T09:59:33.000Z</time>
      </trkpt>
      <trkpt lat="42.95932" lon="0.84141">
        <ele>1575</ele>
        <time>2018-04-02T09:59:35.000Z</time>
      </trkpt>
      <trkpt lat="42.95931" lon="0.8414">
        <ele>1575</ele>
        <time>2018-04-02T09:59:37.000Z</time>
      </trkpt>
      <trkpt lat="42.9593" lon="0.8414">
        <ele>1574</ele>
        <time>2018-04-02T09:59:39.000Z</time>
      </trkpt>
      <trkpt lat="42.95928" lon="0.8414">
        <ele>1574</ele>
        <time>2018-04-02T09:59:41.000Z</time>
      </trkpt>
      <trkpt lat="42.95928" lon="0.84139">
        <ele>1574</ele>
        <time>2018-04-02T09:59:43.000Z</time>
      </trkpt>
      <trkpt lat="42.95927" lon="0.84138">
        <ele>1574</ele>
        <time>2018-04-02T09:59:45.000Z</time>
      </trkpt>
      <trkpt lat="42.95926" lon="0.84136">
        <ele>1574</ele>
        <time>2018-04-02T09:59:47.000Z</time>
      </trkpt>
      <trkpt lat="42.95925" lon="0.84135">
        <ele>1574</ele>
        <time>2018-04-02T09:59:49.000Z</time>
      </trkpt>
      <trkpt lat="42.95924" lon="0.84134">
        <ele>1574</ele>
        <time>2018-04-02T09:59:51.000Z</time>
      </trkpt>
      <trkpt lat="42.95923" lon="0.84132">
        <ele>1574</ele>
        <time>2018-04-02T09:59:53.000Z</time>
      </trkpt>
      <trkpt lat="42.95922" lon="0.84131">
        <ele>1573</ele>
        <time>2018-04-02T09:59:55.000Z</time>
      </trkpt>
      <trkpt lat="42.95921" lon="0.8413">
        <ele>1573</ele>
        <time>2018-04-02T09:59:57.000Z</time>
      </trkpt>
      <trkpt lat="42.9592" lon="0.84129">
        <ele>1573</ele>
        <time>2018-04-02T09:59:59.000Z</time>
      </trkpt>
      <trkpt lat="42.95919" lon="0.84128">
        <ele>1573</ele>
        <time>2018-04-02T10:00:01.000Z</time>
      </trkpt>
      <trkpt lat="42.95918" lon="0.84126">
        <ele>1572</ele>
        <time>2018-04-02T10:00:03.000Z</time>
      </trkpt>
      <trkpt lat="42.95917" lon="0.84125">
        <ele>1572</ele>
        <time>2018-04-02T10:00:05.000Z</time>
      </trkpt>
      <trkpt lat="42.95916" lon="0.84124">
        <ele>1572</ele>
        <time>2018-04-02T10:00:07.000Z</time>
      </trkpt>
      <trkpt lat="42.95915" lon="0.84123">
        <ele>1572</ele>
        <time>2018-04-02T10:00:09.000Z</time>
      </trkpt>
      <trkpt lat="42.95913" lon="0.84123">
        <ele>1571</ele>
        <time>2018-04-02T10:00:11.000Z</time>
      </trkpt>
      <trkpt lat="42.95912" lon="0.84121">
        <ele>1571</ele>
        <time>2018-04-02T10:00:13.000Z</time>
      </trkpt>
      <trkpt lat="42.95911" lon="0.84121">
        <ele>1571</ele>
        <time>2018-04-02T10:00:15.000Z</time>
      </trkpt>
      <trkpt lat="42.9591" lon="0.8412">
        <ele>1571</ele>
        <time>2018-04-02T10:00:17.000Z</time>
      </trkpt>
      <trkpt lat="42.95908" lon="0.8412">
        <ele>1570</ele>
        <time>2018-04-02T10:00:19.000Z</time>
      </trkpt>
      <trkpt lat="42.95907" lon="0.84119">
        <ele>1570</ele>
        <time>2018-04-02T10:00:21.000Z</time>
      </trkpt>
      <trkpt lat="42.95906" lon="0.84119">
        <ele>1570</ele>
        <time>2018-04-02T10:00:23.000Z</time>
      </trkpt>
      <trkpt lat="42.95905" lon="0.84118">
        <ele>1569</ele>
        <time>2018-04-02T10:00:25.000Z</time>
      </trkpt>
      <trkpt lat="42.95904" lon="0.84117">
        <ele>1569</ele>
        <time>2018-04-02T10:00:27.000Z</time>
      </trkpt>
      <trkpt lat="42.95903" lon="0.84116">
        <ele>1569</ele>
        <time>2018-04-02T10:00:29.000Z</time>
      </trkpt>
      <trkpt lat="42.95904" lon="0.84116">
        <ele>1569</ele>
        <time>2018-04-02T10:00:31.000Z</time>
      </trkpt>
      <trkpt lat="42.95904" lon="0.84116">
        <ele>1569</ele>
        <time>2018-04-02T10:00:33.000Z</time>
      </trkpt>
      <trkpt lat="42.95904" lon="0.84116">
        <ele>1569</ele>
        <time>2018-04-02T10:00:35.000Z</time>
      </trkpt>
      <trkpt lat="42.95904" lon="0.84116">
        <ele>1569</ele>
        <time>2018-04-02T10:00:37.000Z</time>
      </trkpt>
      <trkpt lat="42.95905" lon="0.84116">
        <ele>1569</ele>
        <time>2018-04-02T10:00:39.000Z</time>
      </trkpt>
      <trkpt lat="42.95905" lon="0.84116">
        <ele>1569</ele>
        <time>2018-04-02T10:00:41.000Z</time>
      </trkpt>
      <trkpt lat="42.95904" lon="0.84117">
        <ele>1569</ele>
        <time>2018-04-02T10:00:43.000Z</time>
      </trkpt>
      <trkpt lat="42.95904" lon="0.84117">
        <ele>1569</ele>
        <time>2018-04-02T10:00:45.000Z</time>
      </trkpt>
      <trkpt lat="42.95902" lon="0.84116">
        <ele>1569</ele>
        <time>2018-04-02T10:00:47.000Z</time>
      </trkpt>
      <trkpt lat="42.95901" lon="0.84116">
        <ele>1569</ele>
        <time>2018-04-02T10:00:49.000Z</time>
      </trkpt>
      <trkpt lat="42.95899" lon="0.84115">
        <ele>1568</ele>
        <time>2018-04-02T10:00:51.000Z</time>
      </trkpt>
      <trkpt lat="42.95897" lon="0.84115">
        <ele>1568</ele>
        <time>2018-04-02T10:00:53.000Z</time>
      </trkpt>
      <trkpt lat="42.95896" lon="0.84114">
        <ele>1567</ele>
        <time>2018-04-02T10:00:55.000Z</time>
      </trkpt>
      <trkpt lat="42.95894" lon="0.84113">
        <ele>1567</ele>
        <time>2018-04-02T10:00:57.000Z</time>
      </trkpt>
      <trkpt lat="42.95892" lon="0.84113">
        <ele>1566</ele>
        <time>2018-04-02T10:00:59.000Z</time>
      </trkpt>
      <trkpt lat="42.95891" lon="0.84112">
        <ele>1566</ele>
        <time>2018-04-02T10:01:01.000Z</time>
      </trkpt>
      <trkpt lat="42.9589" lon="0.84112">
        <ele>1566</ele>
        <time>2018-04-02T10:01:03.000Z</time>
      </trkpt>
      <trkpt lat="42.95888" lon="0.84112">
        <ele>1565</ele>
        <time>2018-04-02T10:01:05.000Z</time>
      </trkpt>
      <trkpt lat="42.95887" lon="0.84111">
        <ele>1565</ele>
        <time>2018-04-02T10:01:07.000Z</time>
      </trkpt>
      <trkpt lat="42.95886" lon="0.84111">
        <ele>1565</ele>
        <time>2018-04-02T10:01:09.000Z</time>
      </trkpt>
      <trkpt lat="42.95886" lon="0.84111">
        <ele>1565</ele>
        <time>2018-04-02T10:01:11.000Z</time>
      </trkpt>
      <trkpt lat="42.95885" lon="0.84111">
        <ele>1564</ele>
        <time>2018-04-02T10:01:13.000Z</time>
      </trkpt>
      <trkpt lat="42.95886" lon="0.84111">
        <ele>1565</ele>
        <time>2018-04-02T10:01:15.000Z</time>
      </trkpt>
      <trkpt lat="42.95886" lon="0.84111">
        <ele>1565</ele>
        <time>2018-04-02T10:01:17.000Z</time>
      </trkpt>
      <trkpt lat="42.95885" lon="0.84111">
        <ele>1564</ele>
        <time>2018-04-02T10:01:19.000Z</time>
      </trkpt>
      <trkpt lat="42.95886" lon="0.84111">
        <ele>1565</ele>
        <time>2018-04-02T10:01:21.000Z</time>
      </trkpt>
      <trkpt lat="42.95886" lon="0.84111">
        <ele>1565</ele>
        <time>2018-04-02T10:01:23.000Z</time>
      </trkpt>
      <trkpt lat="42.95886" lon="0.84111">
        <ele>1565</ele>
        <time>2018-04-02T10:01:25.000Z</time>
      </trkpt>
      <trkpt lat="42.95886" lon="0.84111">
        <ele>1565</ele>
        <time>2018-04-02T10:01:27.000Z</time>
      </trkpt>
      <trkpt lat="42.95885" lon="0.84111">
        <ele>1564</ele>
        <time>2018-04-02T10:01:29.000Z</time>
      </trkpt>
      <trkpt lat="42.95884" lon="0.84112">
        <ele>1564</ele>
        <time>2018-04-02T10:01:31.000Z</time>
      </trkpt>
      <trkpt lat="42.95884" lon="0.84113">
        <ele>1564</ele>
        <time>2018-04-02T10:01:33.000Z</time>
      </trkpt>
      <trkpt lat="42.95883" lon="0.84114">
        <ele>1564</ele>
        <time>2018-04-02T10:01:35.000Z</time>
      </trkpt>
      <trkpt lat="42.95884" lon="0.84116">
        <ele>1564</ele>
        <time>2018-04-02T10:01:37.000Z</time>
      </trkpt>
      <trkpt lat="42.95883" lon="0.84118">
        <ele>1563</ele>
        <time>2018-04-02T10:01:39.000Z</time>
      </trkpt>
      <trkpt lat="42.95883" lon="0.84119">
        <ele>1563</ele>
        <time>2018-04-02T10:01:41.000Z</time>
      </trkpt>
      <trkpt lat="42.95883" lon="0.84121">
        <ele>1563</ele>
        <time>2018-04-02T10:01:43.000Z</time>
      </trkpt>
      <trkpt lat="42.95883" lon="0.84123">
        <ele>1563</ele>
        <time>2018-04-02T10:01:45.000Z</time>
      </trkpt>
      <trkpt lat="42.95882" lon="0.84125">
        <ele>1563</ele>
        <time>2018-04-02T10:01:47.000Z</time>
      </trkpt>
      <trkpt lat="42.95881" lon="0.84126">
        <ele>1562</ele>
        <time>2018-04-02T10:01:49.000Z</time>
      </trkpt>
      <trkpt lat="42.95879" lon="0.84127">
        <ele>1562</ele>
        <time>2018-04-02T10:01:51.000Z</time>
      </trkpt>
      <trkpt lat="42.95878" lon="0.84128">
        <ele>1561</ele>
        <time>2018-04-02T10:01:53.000Z</time>
      </trkpt>
      <trkpt lat="42.95877" lon="0.84127">
        <ele>1561</ele>
        <time>2018-04-02T10:01:55.000Z</time>
      </trkpt>
      <trkpt lat="42.95876" lon="0.84127">
        <ele>1561</ele>
        <time>2018-04-02T10:01:57.000Z</time>
      </trkpt>
      <trkpt lat="42.95875" lon="0.84127">
        <ele>1561</ele>
        <time>2018-04-02T10:01:59.000Z</time>
      </trkpt>
      <trkpt lat="42.95874" lon="0.84126">
        <ele>1560</ele>
        <time>2018-04-02T10:02:01.000Z</time>
      </trkpt>
      <trkpt lat="42.95875" lon="0.84126">
        <ele>1560</ele>
        <time>2018-04-02T10:02:03.000Z</time>
      </trkpt>
      <trkpt lat="42.95875" lon="0.84125">
        <ele>1561</ele>
        <time>2018-04-02T10:02:05.000Z</time>
      </trkpt>
      <trkpt lat="42.95875" lon="0.84125">
        <ele>1561</ele>
        <time>2018-04-02T10:02:07.000Z</time>
      </trkpt>
      <trkpt lat="42.95874" lon="0.84125">
        <ele>1560</ele>
        <time>2018-04-02T10:02:09.000Z</time>
      </trkpt>
      <trkpt lat="42.95873" lon="0.84125">
        <ele>1560</ele>
        <time>2018-04-02T10:02:11.000Z</time>
      </trkpt>
      <trkpt lat="42.95873" lon="0.84124">
        <ele>1560</ele>
        <time>2018-04-02T10:02:13.000Z</time>
      </trkpt>
      <trkpt lat="42.95872" lon="0.84124">
        <ele>1560</ele>
        <time>2018-04-02T10:02:15.000Z</time>
      </trkpt>
      <trkpt lat="42.95872" lon="0.84124">
        <ele>1560</ele>
        <time>2018-04-02T10:02:17.000Z</time>
      </trkpt>
      <trkpt lat="42.95871" lon="0.84124">
        <ele>1560</ele>
        <time>2018-04-02T10:02:19.000Z</time>
      </trkpt>
      <trkpt lat="42.95871" lon="0.84125">
        <ele>1559</ele>
        <time>2018-04-02T10:02:21.000Z</time>
      </trkpt>
      <trkpt lat="42.9587" lon="0.84125">
        <ele>1559</ele>
        <time>2018-04-02T10:02:23.000Z</time>
      </trkpt>
      <trkpt lat="42.95869" lon="0.84124">
        <ele>1559</ele>
        <time>2018-04-02T10:02:25.000Z</time>
      </trkpt>
      <trkpt lat="42.95868" lon="0.84124">
        <ele>1559</ele>
        <time>2018-04-02T10:02:27.000Z</time>
      </trkpt>
      <trkpt lat="42.95867" lon="0.84124">
        <ele>1558</ele>
        <time>2018-04-02T10:02:29.000Z</time>
      </trkpt>
      <trkpt lat="42.95866" lon="0.84124">
        <ele>1558</ele>
        <time>2018-04-02T10:02:31.000Z</time>
      </trkpt>
      <trkpt lat="42.95864" lon="0.84125">
        <ele>1558</ele>
        <time>2018-04-02T10:02:33.000Z</time>
      </trkpt>
      <trkpt lat="42.95863" lon="0.84125">
        <ele>1557</ele>
        <time>2018-04-02T10:02:35.000Z</time>
      </trkpt>
      <trkpt lat="42.95862" lon="0.84125">
        <ele>1557</ele>
        <time>2018-04-02T10:02:37.000Z</time>
      </trkpt>
      <trkpt lat="42.9586" lon="0.84124">
        <ele>1556</ele>
        <time>2018-04-02T10:02:39.000Z</time>
      </trkpt>
      <trkpt lat="42.95859" lon="0.84124">
        <ele>1556</ele>
        <time>2018-04-02T10:02:41.000Z</time>
      </trkpt>
      <trkpt lat="42.95858" lon="0.84123">
        <ele>1556</ele>
        <time>2018-04-02T10:02:43.000Z</time>
      </trkpt>
      <trkpt lat="42.95856" lon="0.84122">
        <ele>1555</ele>
        <time>2018-04-02T10:02:45.000Z</time>
      </trkpt>
      <trkpt lat="42.95855" lon="0.84122">
        <ele>1555</ele>
        <time>2018-04-02T10:02:47.000Z</time>
      </trkpt>
      <trkpt lat="42.95853" lon="0.84121">
        <ele>1554</ele>
        <time>2018-04-02T10:02:49.000Z</time>
      </trkpt>
      <trkpt lat="42.95851" lon="0.84121">
        <ele>1554</ele>
        <time>2018-04-02T10:02:51.000Z</time>
      </trkpt>
      <trkpt lat="42.9585" lon="0.84121">
        <ele>1554</ele>
        <time>2018-04-02T10:02:53.000Z</time>
      </trkpt>
      <trkpt lat="42.95848" lon="0.84121">
        <ele>1553</ele>
        <time>2018-04-02T10:02:55.000Z</time>
      </trkpt>
      <trkpt lat="42.95847" lon="0.84121">
        <ele>1553</ele>
        <time>2018-04-02T10:02:57.000Z</time>
      </trkpt>
      <trkpt lat="42.95846" lon="0.84122">
        <ele>1552</ele>
        <time>2018-04-02T10:02:59.000Z</time>
      </trkpt>
      <trkpt lat="42.95845" lon="0.84121">
        <ele>1552</ele>
        <time>2018-04-02T10:03:01.000Z</time>
      </trkpt>
      <trkpt lat="42.95844" lon="0.84121">
        <ele>1552</ele>
        <time>2018-04-02T10:03:03.000Z</time>
      </trkpt>
      <trkpt lat="42.95842" lon="0.84121">
        <ele>1551</ele>
        <time>2018-04-02T10:03:05.000Z</time>
      </trkpt>
      <trkpt lat="42.95842" lon="0.84121">
        <ele>1551</ele>
        <time>2018-04-02T10:03:07.000Z</time>
      </trkpt>
      <trkpt lat="42.95841" lon="0.84121">
        <ele>1551</ele>
        <time>2018-04-02T10:03:09.000Z</time>
      </trkpt>
      <trkpt lat="42.9584" lon="0.84121">
        <ele>1551</ele>
        <time>2018-04-02T10:03:11.000Z</time>
      </trkpt>
      <trkpt lat="42.95839" lon="0.84121">
        <ele>1550</ele>
        <time>2018-04-02T10:03:13.000Z</time>
      </trkpt>
      <trkpt lat="42.95838" lon="0.84122">
        <ele>1550</ele>
        <time>2018-04-02T10:03:15.000Z</time>
      </trkpt>
      <trkpt lat="42.95838" lon="0.84121">
        <ele>1550</ele>
        <time>2018-04-02T10:03:17.000Z</time>
      </trkpt>
      <trkpt lat="42.95837" lon="0.84122">
        <ele>1549</ele>
        <time>2018-04-02T10:03:19.000Z</time>
      </trkpt>
      <trkpt lat="42.95837" lon="0.84122">
        <ele>1549</ele>
        <time>2018-04-02T10:03:21.000Z</time>
      </trkpt>
      <trkpt lat="42.95836" lon="0.84122">
        <ele>1549</ele>
        <time>2018-04-02T10:03:23.000Z</time>
      </trkpt>
      <trkpt lat="42.95836" lon="0.84122">
        <ele>1549</ele>
        <time>2018-04-02T10:03:25.000Z</time>
      </trkpt>
      <trkpt lat="42.95836" lon="0.84122">
        <ele>1549</ele>
        <time>2018-04-02T10:03:27.000Z</time>
      </trkpt>
      <trkpt lat="42.95836" lon="0.84123">
        <ele>1549</ele>
        <time>2018-04-02T10:03:29.000Z</time>
      </trkpt>
      <trkpt lat="42.95836" lon="0.84123">
        <ele>1549</ele>
        <time>2018-04-02T10:03:31.000Z</time>
      </trkpt>
      <trkpt lat="42.95836" lon="0.84124">
        <ele>1549</ele>
        <time>2018-04-02T10:03:33.000Z</time>
      </trkpt>
      <trkpt lat="42.95836" lon="0.84124">
        <ele>1549</ele>
        <time>2018-04-02T10:03:35.000Z</time>
      </trkpt>
      <trkpt lat="42.95836" lon="0.84125">
        <ele>1549</ele>
        <time>2018-04-02T10:03:37.000Z</time>
      </trkpt>
      <trkpt lat="42.95836" lon="0.84126">
        <ele>1549</ele>
        <time>2018-04-02T10:03:39.000Z</time>
      </trkpt>
      <trkpt lat="42.95835" lon="0.84126">
        <ele>1548</ele>
        <time>2018-04-02T10:03:41.000Z</time>
      </trkpt>
      <trkpt lat="42.95833" lon="0.84126">
        <ele>1548</ele>
        <time>2018-04-02T10:03:43.000Z</time>
      </trkpt>
      <trkpt lat="42.95832" lon="0.84126">
        <ele>1547</ele>
        <time>2018-04-02T10:03:45.000Z</time>
      </trkpt>
      <trkpt lat="42.95831" lon="0.84126">
        <ele>1547</ele>
        <time>2018-04-02T10:03:47.000Z</time>
      </trkpt>
      <trkpt lat="42.9583" lon="0.84127">
        <ele>1547</ele>
        <time>2018-04-02T10:03:49.000Z</time>
      </trkpt>
      <trkpt lat="42.95829" lon="0.84127">
        <ele>1546</ele>
        <time>2018-04-02T10:03:51.000Z</time>
      </trkpt>
      <trkpt lat="42.95828" lon="0.84128">
        <ele>1546</ele>
        <time>2018-04-02T10:03:53.000Z</time>
      </trkpt>
      <trkpt lat="42.95827" lon="0.84129">
        <ele>1545</ele>
        <time>2018-04-02T10:03:55.000Z</time>
      </trkpt>
      <trkpt lat="42.95826" lon="0.8413">
        <ele>1545</ele>
        <time>2018-04-02T10:03:57.000Z</time>
      </trkpt>
      <trkpt lat="42.95825" lon="0.84131">
        <ele>1545</ele>
        <time>2018-04-02T10:03:59.000Z</time>
      </trkpt>
      <trkpt lat="42.95824" lon="0.84132">
        <ele>1544</ele>
        <time>2018-04-02T10:04:01.000Z</time>
      </trkpt>
      <trkpt lat="42.95822" lon="0.84133">
        <ele>1544</ele>
        <time>2018-04-02T10:04:03.000Z</time>
      </trkpt>
      <trkpt lat="42.95821" lon="0.84134">
        <ele>1543</ele>
        <time>2018-04-02T10:04:05.000Z</time>
      </trkpt>
      <trkpt lat="42.9582" lon="0.84134">
        <ele>1543</ele>
        <time>2018-04-02T10:04:07.000Z</time>
      </trkpt>
      <trkpt lat="42.95819" lon="0.84135">
        <ele>1543</ele>
        <time>2018-04-02T10:04:09.000Z</time>
      </trkpt>
      <trkpt lat="42.95817" lon="0.84136">
        <ele>1542</ele>
        <time>2018-04-02T10:04:11.000Z</time>
      </trkpt>
      <trkpt lat="42.95816" lon="0.84137">
        <ele>1542</ele>
        <time>2018-04-02T10:04:13.000Z</time>
      </trkpt>
      <trkpt lat="42.95815" lon="0.84138">
        <ele>1541</ele>
        <time>2018-04-02T10:04:15.000Z</time>
      </trkpt>
      <trkpt lat="42.95813" lon="0.84139">
        <ele>1541</ele>
        <time>2018-04-02T10:04:17.000Z</time>
      </trkpt>
      <trkpt lat="42.95812" lon="0.8414">
        <ele>1540</ele>
        <time>2018-04-02T10:04:19.000Z</time>
      </trkpt>
      <trkpt lat="42.9581" lon="0.8414">
        <ele>1539</ele>
        <time>2018-04-02T10:04:21.000Z</time>
      </trkpt>
      <trkpt lat="42.95809" lon="0.84141">
        <ele>1539</ele>
        <time>2018-04-02T10:04:23.000Z</time>
      </trkpt>
      <trkpt lat="42.95807" lon="0.84142">
        <ele>1538</ele>
        <time>2018-04-02T10:04:25.000Z</time>
      </trkpt>
      <trkpt lat="42.95805" lon="0.84143">
        <ele>1537</ele>
        <time>2018-04-02T10:04:27.000Z</time>
      </trkpt>
      <trkpt lat="42.95803" lon="0.84143">
        <ele>1536</ele>
        <time>2018-04-02T10:04:29.000Z</time>
      </trkpt>
      <trkpt lat="42.95802" lon="0.84145">
        <ele>1536</ele>
        <time>2018-04-02T10:04:31.000Z</time>
      </trkpt>
      <trkpt lat="42.958" lon="0.84146">
        <ele>1535</ele>
        <time>2018-04-02T10:04:33.000Z</time>
      </trkpt>
      <trkpt lat="42.95798" lon="0.84148">
        <ele>1534</ele>
        <time>2018-04-02T10:04:35.000Z</time>
      </trkpt>
      <trkpt lat="42.95797" lon="0.8415">
        <ele>1533</ele>
        <time>2018-04-02T10:04:37.000Z</time>
      </trkpt>
      <trkpt lat="42.95796" lon="0.84151">
        <ele>1532</ele>
        <time>2018-04-02T10:04:39.000Z</time>
      </trkpt>
      <trkpt lat="42.95795" lon="0.84153">
        <ele>1532</ele>
        <time>2018-04-02T10:04:41.000Z</time>
      </trkpt>
      <trkpt lat="42.95794" lon="0.84154">
        <ele>1531</ele>
        <time>2018-04-02T10:04:43.000Z</time>
      </trkpt>
      <trkpt lat="42.95794" lon="0.84155">
        <ele>1531</ele>
        <time>2018-04-02T10:04:45.000Z</time>
      </trkpt>
      <trkpt lat="42.95793" lon="0.84157">
        <ele>1530</ele>
        <time>2018-04-02T10:04:47.000Z</time>
      </trkpt>
      <trkpt lat="42.95792" lon="0.84158">
        <ele>1529</ele>
        <time>2018-04-02T10:04:49.000Z</time>
      </trkpt>
      <trkpt lat="42.95791" lon="0.8416">
        <ele>1529</ele>
        <time>2018-04-02T10:04:51.000Z</time>
      </trkpt>
      <trkpt lat="42.9579" lon="0.84162">
        <ele>1528</ele>
        <time>2018-04-02T10:04:53.000Z</time>
      </trkpt>
      <trkpt lat="42.9579" lon="0.84164">
        <ele>1527</ele>
        <time>2018-04-02T10:04:55.000Z</time>
      </trkpt>
      <trkpt lat="42.95789" lon="0.84166">
        <ele>1527</ele>
        <time>2018-04-02T10:04:57.000Z</time>
      </trkpt>
      <trkpt lat="42.95789" lon="0.84168">
        <ele>1526</ele>
        <time>2018-04-02T10:04:59.000Z</time>
      </trkpt>
      <trkpt lat="42.95788" lon="0.8417">
        <ele>1526</ele>
        <time>2018-04-02T10:05:01.000Z</time>
      </trkpt>
      <trkpt lat="42.95788" lon="0.84172">
        <ele>1526</ele>
        <time>2018-04-02T10:05:03.000Z</time>
      </trkpt>
      <trkpt lat="42.95788" lon="0.84174">
        <ele>1525</ele>
        <time>2018-04-02T10:05:05.000Z</time>
      </trkpt>
      <trkpt lat="42.95787" lon="0.84176">
        <ele>1525</ele>
        <time>2018-04-02T10:05:07.000Z</time>
      </trkpt>
      <trkpt lat="42.95787" lon="0.84179">
        <ele>1525</ele>
        <time>2018-04-02T10:05:09.000Z</time>
      </trkpt>
      <trkpt lat="42.95786" lon="0.84181">
        <ele>1525</ele>
        <time>2018-04-02T10:05:11.000Z</time>
      </trkpt>
      <trkpt lat="42.95785" lon="0.84183">
        <ele>1525</ele>
        <time>2018-04-02T10:05:13.000Z</time>
      </trkpt>
      <trkpt lat="42.95785" lon="0.84185">
        <ele>1525</ele>
        <time>2018-04-02T10:05:15.000Z</time>
      </trkpt>
      <trkpt lat="42.95784" lon="0.84187">
        <ele>1524</ele>
        <time>2018-04-02T10:05:17.000Z</time>
      </trkpt>
      <trkpt lat="42.95784" lon="0.8419">
        <ele>1524</ele>
        <time>2018-04-02T10:05:19.000Z</time>
      </trkpt>
      <trkpt lat="42.95783" lon="0.84191">
        <ele>1524</ele>
        <time>2018-04-02T10:05:21.000Z</time>
      </trkpt>
      <trkpt lat="42.95782" lon="0.84193">
        <ele>1524</ele>
        <time>2018-04-02T10:05:23.000Z</time>
      </trkpt>
      <trkpt lat="42.95782" lon="0.84195">
        <ele>1524</ele>
        <time>2018-04-02T10:05:25.000Z</time>
      </trkpt>
      <trkpt lat="42.95782" lon="0.84197">
        <ele>1524</ele>
        <time>2018-04-02T10:05:27.000Z</time>
      </trkpt>
      <trkpt lat="42.95782" lon="0.84199">
        <ele>1524</ele>
        <time>2018-04-02T10:05:29.000Z</time>
      </trkpt>
      <trkpt lat="42.95781" lon="0.842">
        <ele>1523</ele>
        <time>2018-04-02T10:05:31.000Z</time>
      </trkpt>
      <trkpt lat="42.95781" lon="0.84202">
        <ele>1523</ele>
        <time>2018-04-02T10:05:33.000Z</time>
      </trkpt>
      <trkpt lat="42.9578" lon="0.84203">
        <ele>1523</ele>
        <time>2018-04-02T10:05:35.000Z</time>
      </trkpt>
      <trkpt lat="42.9578" lon="0.84205">
        <ele>1523</ele>
        <time>2018-04-02T10:05:37.000Z</time>
      </trkpt>
      <trkpt lat="42.9578" lon="0.84206">
        <ele>1523</ele>
        <time>2018-04-02T10:05:39.000Z</time>
      </trkpt>
      <trkpt lat="42.95779" lon="0.84207">
        <ele>1523</ele>
        <time>2018-04-02T10:05:41.000Z</time>
      </trkpt>
      <trkpt lat="42.95779" lon="0.84208">
        <ele>1523</ele>
        <time>2018-04-02T10:05:43.000Z</time>
      </trkpt>
      <trkpt lat="42.95779" lon="0.84209">
        <ele>1523</ele>
        <time>2018-04-02T10:05:45.000Z</time>
      </trkpt>
      <trkpt lat="42.95779" lon="0.84209">
        <ele>1523</ele>
        <time>2018-04-02T10:05:47.000Z</time>
      </trkpt>
      <trkpt lat="42.95779" lon="0.84209">
        <ele>1523</ele>
        <time>2018-04-02T10:05:49.000Z</time>
      </trkpt>
      <trkpt lat="42.95779" lon="0.84209">
        <ele>1523</ele>
        <time>2018-04-02T10:05:51.000Z</time>
      </trkpt>
      <trkpt lat="42.95779" lon="0.84209">
        <ele>1523</ele>
        <time>2018-04-02T10:05:53.000Z</time>
      </trkpt>
      <trkpt lat="42.95779" lon="0.8421">
        <ele>1523</ele>
        <time>2018-04-02T10:05:55.000Z</time>
      </trkpt>
      <trkpt lat="42.95778" lon="0.84211">
        <ele>1523</ele>
        <time>2018-04-02T10:05:57.000Z</time>
      </trkpt>
      <trkpt lat="42.95778" lon="0.84212">
        <ele>1523</ele>
        <time>2018-04-02T10:05:59.000Z</time>
      </trkpt>
      <trkpt lat="42.95778" lon="0.84213">
        <ele>1522</ele>
        <time>2018-04-02T10:06:01.000Z</time>
      </trkpt>
      <trkpt lat="42.95777" lon="0.84214">
        <ele>1522</ele>
        <time>2018-04-02T10:06:03.000Z</time>
      </trkpt>
      <trkpt lat="42.95777" lon="0.84214">
        <ele>1522</ele>
        <time>2018-04-02T10:06:05.000Z</time>
      </trkpt>
      <trkpt lat="42.95777" lon="0.84215">
        <ele>1522</ele>
        <time>2018-04-02T10:06:07.000Z</time>
      </trkpt>
      <trkpt lat="42.95777" lon="0.84216">
        <ele>1522</ele>
        <time>2018-04-02T10:06:09.000Z</time>
      </trkpt>
      <trkpt lat="42.95777" lon="0.84217">
        <ele>1522</ele>
        <time>2018-04-02T10:06:11.000Z</time>
      </trkpt>
      <trkpt lat="42.95777" lon="0.84217">
        <ele>1522</ele>
        <time>2018-04-02T10:06:13.000Z</time>
      </trkpt>
      <trkpt lat="42.95777" lon="0.84218">
        <ele>1522</ele>
        <time>2018-04-02T10:06:15.000Z</time>
      </trkpt>
      <trkpt lat="42.95777" lon="0.84219">
        <ele>1522</ele>
        <time>2018-04-02T10:06:17.000Z</time>
      </trkpt>
      <trkpt lat="42.95777" lon="0.84219">
        <ele>1522</ele>
        <time>2018-04-02T10:06:19.000Z</time>
      </trkpt>
      <trkpt lat="42.95778" lon="0.84219">
        <ele>1522</ele>
        <time>2018-04-02T10:06:21.000Z</time>
      </trkpt>
      <trkpt lat="42.95778" lon="0.84219">
        <ele>1522</ele>
        <time>2018-04-02T10:06:23.000Z</time>
      </trkpt>
      <trkpt lat="42.95778" lon="0.84218">
        <ele>1522</ele>
        <time>2018-04-02T10:06:25.000Z</time>
      </trkpt>
      <trkpt lat="42.95778" lon="0.84218">
        <ele>1522</ele>
        <time>2018-04-02T10:06:27.000Z</time>
      </trkpt>
      <trkpt lat="42.95778" lon="0.84218">
        <ele>1522</ele>
        <time>2018-04-02T10:06:29.000Z</time>
      </trkpt>
      <trkpt lat="42.95778" lon="0.84219">
        <ele>1522</ele>
        <time>2018-04-02T10:06:31.000Z</time>
      </trkpt>
      <trkpt lat="42.95778" lon="0.84219">
        <ele>1522</ele>
        <time>2018-04-02T10:06:33.000Z</time>
      </trkpt>
      <trkpt lat="42.95778" lon="0.8422">
        <ele>1522</ele>
        <time>2018-04-02T10:06:35.000Z</time>
      </trkpt>
      <trkpt lat="42.95778" lon="0.84221">
        <ele>1522</ele>
        <time>2018-04-02T10:06:37.000Z</time>
      </trkpt>
      <trkpt lat="42.95778" lon="0.84222">
        <ele>1522</ele>
        <time>2018-04-02T10:06:39.000Z</time>
      </trkpt>
      <trkpt lat="42.95778" lon="0.84223">
        <ele>1522</ele>
        <time>2018-04-02T10:06:41.000Z</time>
      </trkpt>
      <trkpt lat="42.95777" lon="0.84223">
        <ele>1522</ele>
        <time>2018-04-02T10:06:43.000Z</time>
      </trkpt>
      <trkpt lat="42.95777" lon="0.84224">
        <ele>1522</ele>
        <time>2018-04-02T10:06:45.000Z</time>
      </trkpt>
      <trkpt lat="42.95777" lon="0.84225">
        <ele>1521</ele>
        <time>2018-04-02T10:06:47.000Z</time>
      </trkpt>
      <trkpt lat="42.95777" lon="0.84226">
        <ele>1521</ele>
        <time>2018-04-02T10:06:49.000Z</time>
      </trkpt>
      <trkpt lat="42.95777" lon="0.84227">
        <ele>1521</ele>
        <time>2018-04-02T10:06:51.000Z</time>
      </trkpt>
      <trkpt lat="42.95777" lon="0.84228">
        <ele>1521</ele>
        <time>2018-04-02T10:06:53.000Z</time>
      </trkpt>
      <trkpt lat="42.95776" lon="0.84229">
        <ele>1520</ele>
        <time>2018-04-02T10:06:55.000Z</time>
      </trkpt>
      <trkpt lat="42.95776" lon="0.84231">
        <ele>1520</ele>
        <time>2018-04-02T10:06:57.000Z</time>
      </trkpt>
      <trkpt lat="42.95776" lon="0.84232">
        <ele>1520</ele>
        <time>2018-04-02T10:06:59.000Z</time>
      </trkpt>
      <trkpt lat="42.95776" lon="0.84232">
        <ele>1520</ele>
        <time>2018-04-02T10:07:01.000Z</time>
      </trkpt>
      <trkpt lat="42.95775" lon="0.84233">
        <ele>1519</ele>
        <time>2018-04-02T10:07:03.000Z</time>
      </trkpt>
      <trkpt lat="42.95775" lon="0.84234">
        <ele>1519</ele>
        <time>2018-04-02T10:07:05.000Z</time>
      </trkpt>
      <trkpt lat="42.95775" lon="0.84235">
        <ele>1519</ele>
        <time>2018-04-02T10:07:07.000Z</time>
      </trkpt>
      <trkpt lat="42.95775" lon="0.84236">
        <ele>1519</ele>
        <time>2018-04-02T10:07:09.000Z</time>
      </trkpt>
      <trkpt lat="42.95774" lon="0.84237">
        <ele>1518</ele>
        <time>2018-04-02T10:07:11.000Z</time>
      </trkpt>
      <trkpt lat="42.95773" lon="0.84238">
        <ele>1518</ele>
        <time>2018-04-02T10:07:13.000Z</time>
      </trkpt>
      <trkpt lat="42.95774" lon="0.84239">
        <ele>1518</ele>
        <time>2018-04-02T10:07:15.000Z</time>
      </trkpt>
      <trkpt lat="42.95773" lon="0.8424">
        <ele>1517</ele>
        <time>2018-04-02T10:07:17.000Z</time>
      </trkpt>
      <trkpt lat="42.95773" lon="0.84241">
        <ele>1517</ele>
        <time>2018-04-02T10:07:19.000Z</time>
      </trkpt>
      <trkpt lat="42.95772" lon="0.84242">
        <ele>1516</ele>
        <time>2018-04-02T10:07:21.000Z</time>
      </trkpt>
      <trkpt lat="42.95772" lon="0.84243">
        <ele>1516</ele>
        <time>2018-04-02T10:07:23.000Z</time>
      </trkpt>
      <trkpt lat="42.95772" lon="0.84243">
        <ele>1516</ele>
        <time>2018-04-02T10:07:25.000Z</time>
      </trkpt>
      <trkpt lat="42.95772" lon="0.84243">
        <ele>1516</ele>
        <time>2018-04-02T10:07:27.000Z</time>
      </trkpt>
      <trkpt lat="42.95771" lon="0.84244">
        <ele>1515</ele>
        <time>2018-04-02T10:07:29.000Z</time>
      </trkpt>
      <trkpt lat="42.95771" lon="0.84245">
        <ele>1515</ele>
        <time>2018-04-02T10:07:31.000Z</time>
      </trkpt>
      <trkpt lat="42.9577" lon="0.84246">
        <ele>1515</ele>
        <time>2018-04-02T10:07:33.000Z</time>
      </trkpt>
      <trkpt lat="42.95769" lon="0.84247">
        <ele>1514</ele>
        <time>2018-04-02T10:07:35.000Z</time>
      </trkpt>
      <trkpt lat="42.95769" lon="0.84248">
        <ele>1514</ele>
        <time>2018-04-02T10:07:37.000Z</time>
      </trkpt>
      <trkpt lat="42.95768" lon="0.84248">
        <ele>1514</ele>
        <time>2018-04-02T10:07:39.000Z</time>
      </trkpt>
      <trkpt lat="42.95767" lon="0.84249">
        <ele>1513</ele>
        <time>2018-04-02T10:07:41.000Z</time>
      </trkpt>
      <trkpt lat="42.95767" lon="0.8425">
        <ele>1513</ele>
        <time>2018-04-02T10:07:43.000Z</time>
      </trkpt>
      <trkpt lat="42.95766" lon="0.8425">
        <ele>1513</ele>
        <time>2018-04-02T10:07:45.000Z</time>
      </trkpt>
      <trkpt lat="42.95766" lon="0.8425">
        <ele>1512</ele>
        <time>2018-04-02T10:07:47.000Z</time>
      </trkpt>
      <trkpt lat="42.95765" lon="0.84251">
        <ele>1512</ele>
        <time>2018-04-02T10:07:49.000Z</time>
      </trkpt>
      <trkpt lat="42.95764" lon="0.84251">
        <ele>1512</ele>
        <time>2018-04-02T10:07:51.000Z</time>
      </trkpt>
      <trkpt lat="42.95764" lon="0.84251">
        <ele>1512</ele>
        <time>2018-04-02T10:07:53.000Z</time>
      </trkpt>
      <trkpt lat="42.95763" lon="0.84252">
        <ele>1512</ele>
        <time>2018-04-02T10:07:55.000Z</time>
      </trkpt>
      <trkpt lat="42.95763" lon="0.84252">
        <ele>1511</ele>
        <time>2018-04-02T10:07:57.000Z</time>
      </trkpt>
      <trkpt lat="42.95763" lon="0.84253">
        <ele>1511</ele>
        <time>2018-04-02T10:07:59.000Z</time>
      </trkpt>
      <trkpt lat="42.95762" lon="0.84253">
        <ele>1511</ele>
        <time>2018-04-02T10:08:01.000Z</time>
      </trkpt>
      <trkpt lat="42.95762" lon="0.84253">
        <ele>1511</ele>
        <time>2018-04-02T10:08:03.000Z</time>
      </trkpt>
      <trkpt lat="42.95762" lon="0.84255">
        <ele>1510</ele>
        <time>2018-04-02T10:08:05.000Z</time>
      </trkpt>
      <trkpt lat="42.95762" lon="0.84254">
        <ele>1510</ele>
        <time>2018-04-02T10:08:07.000Z</time>
      </trkpt>
      <trkpt lat="42.95762" lon="0.84254">
        <ele>1510</ele>
        <time>2018-04-02T10:08:09.000Z</time>
      </trkpt>
      <trkpt lat="42.95761" lon="0.84255">
        <ele>1510</ele>
        <time>2018-04-02T10:08:11.000Z</time>
      </trkpt>
      <trkpt lat="42.95761" lon="0.84256">
        <ele>1510</ele>
        <time>2018-04-02T10:08:13.000Z</time>
      </trkpt>
      <trkpt lat="42.9576" lon="0.84256">
        <ele>1509</ele>
        <time>2018-04-02T10:08:15.000Z</time>
      </trkpt>
      <trkpt lat="42.9576" lon="0.84257">
        <ele>1509</ele>
        <time>2018-04-02T10:08:17.000Z</time>
      </trkpt>
      <trkpt lat="42.9576" lon="0.84257">
        <ele>1509</ele>
        <time>2018-04-02T10:08:19.000Z</time>
      </trkpt>
      <trkpt lat="42.95759" lon="0.84258">
        <ele>1509</ele>
        <time>2018-04-02T10:08:21.000Z</time>
      </trkpt>
      <trkpt lat="42.95759" lon="0.84258">
        <ele>1509</ele>
        <time>2018-04-02T10:08:23.000Z</time>
      </trkpt>
      <trkpt lat="42.95758" lon="0.84258">
        <ele>1508</ele>
        <time>2018-04-02T10:08:25.000Z</time>
      </trkpt>
      <trkpt lat="42.95758" lon="0.84259">
        <ele>1508</ele>
        <time>2018-04-02T10:08:27.000Z</time>
      </trkpt>
      <trkpt lat="42.95758" lon="0.84259">
        <ele>1508</ele>
        <time>2018-04-02T10:08:29.000Z</time>
      </trkpt>
      <trkpt lat="42.95758" lon="0.84259">
        <ele>1508</ele>
        <time>2018-04-02T10:08:31.000Z</time>
      </trkpt>
      <trkpt lat="42.95758" lon="0.84259">
        <ele>1508</ele>
        <time>2018-04-02T10:08:33.000Z</time>
      </trkpt>
      <trkpt lat="42.95758" lon="0.84259">
        <ele>1508</ele>
        <time>2018-04-02T10:08:35.000Z</time>
      </trkpt>
      <trkpt lat="42.95758" lon="0.84259">
        <ele>1508</ele>
        <time>2018-04-02T10:08:37.000Z</time>
      </trkpt>
      <trkpt lat="42.95758" lon="0.84259">
        <ele>1508</ele>
        <time>2018-04-02T10:08:39.000Z</time>
      </trkpt>
      <trkpt lat="42.95757" lon="0.84259">
        <ele>1508</ele>
        <time>2018-04-02T10:08:41.000Z</time>
      </trkpt>
      <trkpt lat="42.95757" lon="0.8426">
        <ele>1508</ele>
        <time>2018-04-02T10:08:43.000Z</time>
      </trkpt>
      <trkpt lat="42.95757" lon="0.84261">
        <ele>1507</ele>
        <time>2018-04-02T10:08:45.000Z</time>
      </trkpt>
      <trkpt lat="42.95756" lon="0.84261">
        <ele>1507</ele>
        <time>2018-04-02T10:08:47.000Z</time>
      </trkpt>
      <trkpt lat="42.95756" lon="0.84261">
        <ele>1507</ele>
        <time>2018-04-02T10:08:49.000Z</time>
      </trkpt>
      <trkpt lat="42.95755" lon="0.84262">
        <ele>1507</ele>
        <time>2018-04-02T10:08:51.000Z</time>
      </trkpt>
      <trkpt lat="42.95755" lon="0.84262">
        <ele>1507</ele>
        <time>2018-04-02T10:08:53.000Z</time>
      </trkpt>
      <trkpt lat="42.95754" lon="0.84263">
        <ele>1506</ele>
        <time>2018-04-02T10:08:55.000Z</time>
      </trkpt>
      <trkpt lat="42.95754" lon="0.84263">
        <ele>1506</ele>
        <time>2018-04-02T10:08:57.000Z</time>
      </trkpt>
      <trkpt lat="42.95754" lon="0.84264">
        <ele>1506</ele>
        <time>2018-04-02T10:08:59.000Z</time>
      </trkpt>
      <trkpt lat="42.95754" lon="0.84264">
        <ele>1506</ele>
        <time>2018-04-02T10:09:01.000Z</time>
      </trkpt>
      <trkpt lat="42.95753" lon="0.84264">
        <ele>1506</ele>
        <time>2018-04-02T10:09:03.000Z</time>
      </trkpt>
      <trkpt lat="42.95752" lon="0.84264">
        <ele>1506</ele>
        <time>2018-04-02T10:09:05.000Z</time>
      </trkpt>
      <trkpt lat="42.95751" lon="0.84264">
        <ele>1506</ele>
        <time>2018-04-02T10:09:07.000Z</time>
      </trkpt>
      <trkpt lat="42.9575" lon="0.84264">
        <ele>1506</ele>
        <time>2018-04-02T10:09:09.000Z</time>
      </trkpt>
      <trkpt lat="42.95749" lon="0.84264">
        <ele>1506</ele>
        <time>2018-04-02T10:09:11.000Z</time>
      </trkpt>
      <trkpt lat="42.95747" lon="0.84264">
        <ele>1505</ele>
        <time>2018-04-02T10:09:13.000Z</time>
      </trkpt>
      <trkpt lat="42.95746" lon="0.84264">
        <ele>1505</ele>
        <time>2018-04-02T10:09:15.000Z</time>
      </trkpt>
      <trkpt lat="42.95746" lon="0.84264">
        <ele>1505</ele>
        <time>2018-04-02T10:09:17.000Z</time>
      </trkpt>
      <trkpt lat="42.95746" lon="0.84264">
        <ele>1505</ele>
        <time>2018-04-02T10:09:19.000Z</time>
      </trkpt>
      <trkpt lat="42.95746" lon="0.84264">
        <ele>1505</ele>
        <time>2018-04-02T10:09:21.000Z</time>
      </trkpt>
      <trkpt lat="42.95745" lon="0.84264">
        <ele>1505</ele>
        <time>2018-04-02T10:09:23.000Z</time>
      </trkpt>
      <trkpt lat="42.95744" lon="0.84264">
        <ele>1505</ele>
        <time>2018-04-02T10:09:25.000Z</time>
      </trkpt>
      <trkpt lat="42.95744" lon="0.84264">
        <ele>1505</ele>
        <time>2018-04-02T10:09:27.000Z</time>
      </trkpt>
      <trkpt lat="42.95743" lon="0.84264">
        <ele>1505</ele>
        <time>2018-04-02T10:09:29.000Z</time>
      </trkpt>
      <trkpt lat="42.95742" lon="0.84264">
        <ele>1505</ele>
        <time>2018-04-02T10:09:31.000Z</time>
      </trkpt>
      <trkpt lat="42.95741" lon="0.84265">
        <ele>1504</ele>
        <time>2018-04-02T10:09:33.000Z</time>
      </trkpt>
      <trkpt lat="42.9574" lon="0.84265">
        <ele>1504</ele>
        <time>2018-04-02T10:09:35.000Z</time>
      </trkpt>
      <trkpt lat="42.95739" lon="0.84265">
        <ele>1504</ele>
        <time>2018-04-02T10:09:37.000Z</time>
      </trkpt>
      <trkpt lat="42.95738" lon="0.84265">
        <ele>1504</ele>
        <time>2018-04-02T10:09:39.000Z</time>
      </trkpt>
      <trkpt lat="42.95737" lon="0.84265">
        <ele>1504</ele>
        <time>2018-04-02T10:09:41.000Z</time>
      </trkpt>
      <trkpt lat="42.95736" lon="0.84266">
        <ele>1503</ele>
        <time>2018-04-02T10:09:43.000Z</time>
      </trkpt>
      <trkpt lat="42.95735" lon="0.84266">
        <ele>1503</ele>
        <time>2018-04-02T10:09:45.000Z</time>
      </trkpt>
      <trkpt lat="42.95734" lon="0.84266">
        <ele>1503</ele>
        <time>2018-04-02T10:09:47.000Z</time>
      </trkpt>
      <trkpt lat="42.95733" lon="0.84266">
        <ele>1503</ele>
        <time>2018-04-02T10:09:49.000Z</time>
      </trkpt>
      <trkpt lat="42.95731" lon="0.84267">
        <ele>1503</ele>
        <time>2018-04-02T10:09:51.000Z</time>
      </trkpt>
      <trkpt lat="42.9573" lon="0.84267">
        <ele>1502</ele>
        <time>2018-04-02T10:09:53.000Z</time>
      </trkpt>
      <trkpt lat="42.95728" lon="0.84267">
        <ele>1502</ele>
        <time>2018-04-02T10:09:55.000Z</time>
      </trkpt>
      <trkpt lat="42.95726" lon="0.84267">
        <ele>1502</ele>
        <time>2018-04-02T10:09:57.000Z</time>
      </trkpt>
      <trkpt lat="42.95724" lon="0.84267">
        <ele>1502</ele>
        <time>2018-04-02T10:09:59.000Z</time>
      </trkpt>
      <trkpt lat="42.95722" lon="0.84266">
        <ele>1502</ele>
        <time>2018-04-02T10:10:01.000Z</time>
      </trkpt>
      <trkpt lat="42.9572" lon="0.84266">
        <ele>1501</ele>
        <time>2018-04-02T10:10:03.000Z</time>
      </trkpt>
      <trkpt lat="42.95719" lon="0.84266">
        <ele>1501</ele>
        <time>2018-04-02T10:10:05.000Z</time>
      </trkpt>
      <trkpt lat="42.95717" lon="0.84267">
        <ele>1502</ele>
        <time>2018-04-02T10:10:07.000Z</time>
      </trkpt>
      <trkpt lat="42.95714" lon="0.84268">
        <ele>1502</ele>
        <time>2018-04-02T10:10:09.000Z</time>
      </trkpt>
      <trkpt lat="42.95712" lon="0.84268">
        <ele>1503</ele>
        <time>2018-04-02T10:10:11.000Z</time>
      </trkpt>
      <trkpt lat="42.95711" lon="0.84269">
        <ele>1503</ele>
        <time>2018-04-02T10:10:13.000Z</time>
      </trkpt>
      <trkpt lat="42.95709" lon="0.8427">
        <ele>1503</ele>
        <time>2018-04-02T10:10:15.000Z</time>
      </trkpt>
      <trkpt lat="42.95709" lon="0.8427">
        <ele>1504</ele>
        <time>2018-04-02T10:10:17.000Z</time>
      </trkpt>
      <trkpt lat="42.95709" lon="0.8427">
        <ele>1504</ele>
        <time>2018-04-02T10:10:19.000Z</time>
      </trkpt>
      <trkpt lat="42.95709" lon="0.8427">
        <ele>1504</ele>
        <time>2018-04-02T10:10:21.000Z</time>
      </trkpt>
      <trkpt lat="42.95709" lon="0.8427">
        <ele>1504</ele>
        <time>2018-04-02T10:10:23.000Z</time>
      </trkpt>
      <trkpt lat="42.95709" lon="0.8427">
        <ele>1504</ele>
        <time>2018-04-02T10:10:25.000Z</time>
      </trkpt>
      <trkpt lat="42.95709" lon="0.8427">
        <ele>1504</ele>
        <time>2018-04-02T10:10:27.000Z</time>
      </trkpt>
      <trkpt lat="42.95709" lon="0.8427">
        <ele>1503</ele>
        <time>2018-04-02T10:10:29.000Z</time>
      </trkpt>
      <trkpt lat="42.95709" lon="0.8427">
        <ele>1504</ele>
        <time>2018-04-02T10:10:31.000Z</time>
      </trkpt>
      <trkpt lat="42.95709" lon="0.8427">
        <ele>1504</ele>
        <time>2018-04-02T10:10:33.000Z</time>
      </trkpt>
      <trkpt lat="42.95709" lon="0.8427">
        <ele>1503</ele>
        <time>2018-04-02T10:10:35.000Z</time>
      </trkpt>
      <trkpt lat="42.9571" lon="0.8427">
        <ele>1503</ele>
        <time>2018-04-02T10:10:37.000Z</time>
      </trkpt>
      <trkpt lat="42.9571" lon="0.8427">
        <ele>1503</ele>
        <time>2018-04-02T10:10:39.000Z</time>
      </trkpt>
      <trkpt lat="42.9571" lon="0.8427">
        <ele>1503</ele>
        <time>2018-04-02T10:10:41.000Z</time>
      </trkpt>
      <trkpt lat="42.9571" lon="0.84269">
        <ele>1503</ele>
        <time>2018-04-02T10:10:43.000Z</time>
      </trkpt>
      <trkpt lat="42.9571" lon="0.84269">
        <ele>1503</ele>
        <time>2018-04-02T10:10:45.000Z</time>
      </trkpt>
      <trkpt lat="42.9571" lon="0.84269">
        <ele>1503</ele>
        <time>2018-04-02T10:10:47.000Z</time>
      </trkpt>
      <trkpt lat="42.9571" lon="0.8427">
        <ele>1503</ele>
        <time>2018-04-02T10:10:49.000Z</time>
      </trkpt>
      <trkpt lat="42.9571" lon="0.8427">
        <ele>1503</ele>
        <time>2018-04-02T10:10:51.000Z</time>
      </trkpt>
      <trkpt lat="42.9571" lon="0.84269">
        <ele>1503</ele>
        <time>2018-04-02T10:10:53.000Z</time>
      </trkpt>
      <trkpt lat="42.95711" lon="0.8427">
        <ele>1503</ele>
        <time>2018-04-02T10:10:55.000Z</time>
      </trkpt>
      <trkpt lat="42.95711" lon="0.8427">
        <ele>1503</ele>
        <time>2018-04-02T10:10:57.000Z</time>
      </trkpt>
      <trkpt lat="42.95711" lon="0.84269">
        <ele>1503</ele>
        <time>2018-04-02T10:10:59.000Z</time>
      </trkpt>
      <trkpt lat="42.95711" lon="0.8427">
        <ele>1503</ele>
        <time>2018-04-02T10:11:01.000Z</time>
      </trkpt>
      <trkpt lat="42.95711" lon="0.84269">
        <ele>1503</ele>
        <time>2018-04-02T10:11:03.000Z</time>
      </trkpt>
      <trkpt lat="42.95711" lon="0.84269">
        <ele>1503</ele>
        <time>2018-04-02T10:11:05.000Z</time>
      </trkpt>
      <trkpt lat="42.95711" lon="0.84269">
        <ele>1503</ele>
        <time>2018-04-02T10:11:07.000Z</time>
      </trkpt>
      <trkpt lat="42.95711" lon="0.84268">
        <ele>1503</ele>
        <time>2018-04-02T10:11:09.000Z</time>
      </trkpt>
      <trkpt lat="42.9571" lon="0.84268">
        <ele>1503</ele>
        <time>2018-04-02T10:11:11.000Z</time>
      </trkpt>
      <trkpt lat="42.95711" lon="0.84268">
        <ele>1503</ele>
        <time>2018-04-02T10:11:13.000Z</time>
      </trkpt>
      <trkpt lat="42.95711" lon="0.84267">
        <ele>1503</ele>
        <time>2018-04-02T10:11:15.000Z</time>
      </trkpt>
      <trkpt lat="42.95711" lon="0.84267">
        <ele>1503</ele>
        <time>2018-04-02T10:11:17.000Z</time>
      </trkpt>
      <trkpt lat="42.9571" lon="0.84267">
        <ele>1503</ele>
        <time>2018-04-02T10:11:19.000Z</time>
      </trkpt>
      <trkpt lat="42.9571" lon="0.84268">
        <ele>1503</ele>
        <time>2018-04-02T10:11:21.000Z</time>
      </trkpt>
      <trkpt lat="42.9571" lon="0.84268">
        <ele>1503</ele>
        <time>2018-04-02T10:11:23.000Z</time>
      </trkpt>
      <trkpt lat="42.9571" lon="0.84268">
        <ele>1503</ele>
        <time>2018-04-02T10:11:25.000Z</time>
      </trkpt>
      <trkpt lat="42.9571" lon="0.84268">
        <ele>1503</ele>
        <time>2018-04-02T10:11:27.000Z</time>
      </trkpt>
      <trkpt lat="42.9571" lon="0.84269">
        <ele>1503</ele>
        <time>2018-04-02T10:11:29.000Z</time>
      </trkpt>
      <trkpt lat="42.9571" lon="0.84269">
        <ele>1503</ele>
        <time>2018-04-02T10:11:31.000Z</time>
      </trkpt>
      <trkpt lat="42.9571" lon="0.84269">
        <ele>1503</ele>
        <time>2018-04-02T10:11:33.000Z</time>
      </trkpt>
      <trkpt lat="42.9571" lon="0.84269">
        <ele>1503</ele>
        <time>2018-04-02T10:11:35.000Z</time>
      </trkpt>
      <trkpt lat="42.9571" lon="0.84269">
        <ele>1503</ele>
        <time>2018-04-02T10:11:37.000Z</time>
      </trkpt>
      <trkpt lat="42.9571" lon="0.84269">
        <ele>1503</ele>
        <time>2018-04-02T10:11:39.000Z</time>
      </trkpt>
      <trkpt lat="42.9571" lon="0.84269">
        <ele>1503</ele>
        <time>2018-04-02T10:11:41.000Z</time>
      </trkpt>
      <trkpt lat="42.95711" lon="0.84269">
        <ele>1503</ele>
        <time>2018-04-02T10:11:43.000Z</time>
      </trkpt>
      <trkpt lat="42.9571" lon="0.84269">
        <ele>1503</ele>
        <time>2018-04-02T10:11:45.000Z</time>
      </trkpt>
      <trkpt lat="42.9571" lon="0.84269">
        <ele>1503</ele>
        <time>2018-04-02T10:11:47.000Z</time>
      </trkpt>
      <trkpt lat="42.9571" lon="0.84269">
        <ele>1503</ele>
        <time>2018-04-02T10:11:49.000Z</time>
      </trkpt>
      <trkpt lat="42.9571" lon="0.84269">
        <ele>1503</ele>
        <time>2018-04-02T10:11:51.000Z</time>
      </trkpt>
      <trkpt lat="42.9571" lon="0.84269">
        <ele>1503</ele>
        <time>2018-04-02T10:11:53.000Z</time>
      </trkpt>
      <trkpt lat="42.9571" lon="0.8427">
        <ele>1503</ele>
        <time>2018-04-02T10:11:55.000Z</time>
      </trkpt>
      <trkpt lat="42.9571" lon="0.84269">
        <ele>1503</ele>
        <time>2018-04-02T10:11:57.000Z</time>
      </trkpt>
      <trkpt lat="42.95711" lon="0.84269">
        <ele>1503</ele>
        <time>2018-04-02T10:11:59.000Z</time>
      </trkpt>
      <trkpt lat="42.9571" lon="0.8427">
        <ele>1503</ele>
        <time>2018-04-02T10:12:01.000Z</time>
      </trkpt>
      <trkpt lat="42.9571" lon="0.8427">
        <ele>1503</ele>
        <time>2018-04-02T10:12:03.000Z</time>
      </trkpt>
      <trkpt lat="42.9571" lon="0.84269">
        <ele>1503</ele>
        <time>2018-04-02T10:12:05.000Z</time>
      </trkpt>
      <trkpt lat="42.9571" lon="0.8427">
        <ele>1503</ele>
        <time>2018-04-02T10:12:07.000Z</time>
      </trkpt>
      <trkpt lat="42.9571" lon="0.8427">
        <ele>1503</ele>
        <time>2018-04-02T10:12:09.000Z</time>
      </trkpt>
      <trkpt lat="42.9571" lon="0.84269">
        <ele>1503</ele>
        <time>2018-04-02T10:12:11.000Z</time>
      </trkpt>
      <trkpt lat="42.9571" lon="0.84269">
        <ele>1503</ele>
        <time>2018-04-02T10:12:13.000Z</time>
      </trkpt>
      <trkpt lat="42.9571" lon="0.84269">
        <ele>1503</ele>
        <time>2018-04-02T10:12:15.000Z</time>
      </trkpt>
      <trkpt lat="42.9571" lon="0.8427">
        <ele>1503</ele>
        <time>2018-04-02T10:12:17.000Z</time>
      </trkpt>
      <trkpt lat="42.95711" lon="0.84269">
        <ele>1503</ele>
        <time>2018-04-02T10:12:19.000Z</time>
      </trkpt>
      <trkpt lat="42.95711" lon="0.84269">
        <ele>1503</ele>
        <time>2018-04-02T10:12:21.000Z</time>
      </trkpt>
      <trkpt lat="42.95711" lon="0.8427">
        <ele>1503</ele>
        <time>2018-04-02T10:12:23.000Z</time>
      </trkpt>
      <trkpt lat="42.9571" lon="0.8427">
        <ele>1503</ele>
        <time>2018-04-02T10:12:25.000Z</time>
      </trkpt>
      <trkpt lat="42.9571" lon="0.8427">
        <ele>1503</ele>
        <time>2018-04-02T10:12:27.000Z</time>
      </trkpt>
      <trkpt lat="42.9571" lon="0.8427">
        <ele>1503</ele>
        <time>2018-04-02T10:12:29.000Z</time>
      </trkpt>
      <trkpt lat="42.95711" lon="0.8427">
        <ele>1503</ele>
        <time>2018-04-02T10:12:31.000Z</time>
      </trkpt>
      <trkpt lat="42.9571" lon="0.8427">
        <ele>1503</ele>
        <time>2018-04-02T10:12:33.000Z</time>
      </trkpt>
      <trkpt lat="42.9571" lon="0.8427">
        <ele>1503</ele>
        <time>2018-04-02T10:12:35.000Z</time>
      </trkpt>
      <trkpt lat="42.9571" lon="0.8427">
        <ele>1503</ele>
        <time>2018-04-02T10:12:37.000Z</time>
      </trkpt>
      <trkpt lat="42.9571" lon="0.8427">
        <ele>1503</ele>
        <time>2018-04-02T10:12:39.000Z</time>
      </trkpt>
      <trkpt lat="42.9571" lon="0.8427">
        <ele>1503</ele>
        <time>2018-04-02T10:12:41.000Z</time>
      </trkpt>
      <trkpt lat="42.9571" lon="0.8427">
        <ele>1503</ele>
        <time>2018-04-02T10:12:43.000Z</time>
      </trkpt>
      <trkpt lat="42.95711" lon="0.8427">
        <ele>1503</ele>
        <time>2018-04-02T10:12:45.000Z</time>
      </trkpt>
      <trkpt lat="42.9571" lon="0.8427">
        <ele>1503</ele>
        <time>2018-04-02T10:12:47.000Z</time>
      </trkpt>
      <trkpt lat="42.9571" lon="0.8427">
        <ele>1503</ele>
        <time>2018-04-02T10:12:49.000Z</time>
      </trkpt>
      <trkpt lat="42.95711" lon="0.8427">
        <ele>1503</ele>
        <time>2018-04-02T10:12:51.000Z</time>
      </trkpt>
      <trkpt lat="42.95711" lon="0.8427">
        <ele>1503</ele>
        <time>2018-04-02T10:12:53.000Z</time>
      </trkpt>
      <trkpt lat="42.95711" lon="0.8427">
        <ele>1503</ele>
        <time>2018-04-02T10:12:55.000Z</time>
      </trkpt>
      <trkpt lat="42.95711" lon="0.84269">
        <ele>1503</ele>
        <time>2018-04-02T10:12:57.000Z</time>
      </trkpt>
      <trkpt lat="42.95712" lon="0.84269">
        <ele>1503</ele>
        <time>2018-04-02T10:12:59.000Z</time>
      </trkpt>
      <trkpt lat="42.95712" lon="0.84269">
        <ele>1503</ele>
        <time>2018-04-02T10:13:01.000Z</time>
      </trkpt>
      <trkpt lat="42.95711" lon="0.84269">
        <ele>1503</ele>
        <time>2018-04-02T10:13:03.000Z</time>
      </trkpt>
      <trkpt lat="42.95711" lon="0.84269">
        <ele>1503</ele>
        <time>2018-04-02T10:13:05.000Z</time>
      </trkpt>
      <trkpt lat="42.9571" lon="0.84269">
        <ele>1503</ele>
        <time>2018-04-02T10:13:07.000Z</time>
      </trkpt>
      <trkpt lat="42.95709" lon="0.8427">
        <ele>1504</ele>
        <time>2018-04-02T10:13:09.000Z</time>
      </trkpt>
      <trkpt lat="42.95708" lon="0.84271">
        <ele>1504</ele>
        <time>2018-04-02T10:13:11.000Z</time>
      </trkpt>
      <trkpt lat="42.95707" lon="0.84272">
        <ele>1504</ele>
        <time>2018-04-02T10:13:13.000Z</time>
      </trkpt>
      <trkpt lat="42.95706" lon="0.84272">
        <ele>1504</ele>
        <time>2018-04-02T10:13:15.000Z</time>
      </trkpt>
      <trkpt lat="42.95704" lon="0.84273">
        <ele>1505</ele>
        <time>2018-04-02T10:13:17.000Z</time>
      </trkpt>
      <trkpt lat="42.95703" lon="0.84274">
        <ele>1505</ele>
        <time>2018-04-02T10:13:19.000Z</time>
      </trkpt>
      <trkpt lat="42.95702" lon="0.84275">
        <ele>1506</ele>
        <time>2018-04-02T10:13:21.000Z</time>
      </trkpt>
      <trkpt lat="42.95701" lon="0.84276">
        <ele>1506</ele>
        <time>2018-04-02T10:13:23.000Z</time>
      </trkpt>
      <trkpt lat="42.957" lon="0.84278">
        <ele>1506</ele>
        <time>2018-04-02T10:13:25.000Z</time>
      </trkpt>
      <trkpt lat="42.957" lon="0.84279">
        <ele>1506</ele>
        <time>2018-04-02T10:13:27.000Z</time>
      </trkpt>
      <trkpt lat="42.95699" lon="0.84279">
        <ele>1506</ele>
        <time>2018-04-02T10:13:29.000Z</time>
      </trkpt>
      <trkpt lat="42.95699" lon="0.84279">
        <ele>1507</ele>
        <time>2018-04-02T10:13:31.000Z</time>
      </trkpt>
      <trkpt lat="42.95699" lon="0.84279">
        <ele>1506</ele>
        <time>2018-04-02T10:13:33.000Z</time>
      </trkpt>
      <trkpt lat="42.95698" lon="0.84279">
        <ele>1507</ele>
        <time>2018-04-02T10:13:35.000Z</time>
      </trkpt>
      <trkpt lat="42.95698" lon="0.84279">
        <ele>1507</ele>
        <time>2018-04-02T10:13:37.000Z</time>
      </trkpt>
      <trkpt lat="42.95698" lon="0.84279">
        <ele>1507</ele>
        <time>2018-04-02T10:13:39.000Z</time>
      </trkpt>
      <trkpt lat="42.95698" lon="0.84279">
        <ele>1507</ele>
        <time>2018-04-02T10:13:41.000Z</time>
      </trkpt>
      <trkpt lat="42.95698" lon="0.84279">
        <ele>1507</ele>
        <time>2018-04-02T10:13:43.000Z</time>
      </trkpt>
      <trkpt lat="42.95698" lon="0.84279">
        <ele>1507</ele>
        <time>2018-04-02T10:13:45.000Z</time>
      </trkpt>
      <trkpt lat="42.95698" lon="0.8428">
        <ele>1507</ele>
        <time>2018-04-02T10:13:47.000Z</time>
      </trkpt>
      <trkpt lat="42.95698" lon="0.8428">
        <ele>1507</ele>
        <time>2018-04-02T10:13:49.000Z</time>
      </trkpt>
      <trkpt lat="42.95698" lon="0.84279">
        <ele>1507</ele>
        <time>2018-04-02T10:13:51.000Z</time>
      </trkpt>
      <trkpt lat="42.95698" lon="0.8428">
        <ele>1507</ele>
        <time>2018-04-02T10:13:53.000Z</time>
      </trkpt>
      <trkpt lat="42.95699" lon="0.84279">
        <ele>1507</ele>
        <time>2018-04-02T10:13:55.000Z</time>
      </trkpt>
      <trkpt lat="42.95699" lon="0.84279">
        <ele>1507</ele>
        <time>2018-04-02T10:13:57.000Z</time>
      </trkpt>
      <trkpt lat="42.95699" lon="0.84279">
        <ele>1506</ele>
        <time>2018-04-02T10:13:59.000Z</time>
      </trkpt>
      <trkpt lat="42.95699" lon="0.84279">
        <ele>1506</ele>
        <time>2018-04-02T10:14:01.000Z</time>
      </trkpt>
      <trkpt lat="42.957" lon="0.84279">
        <ele>1506</ele>
        <time>2018-04-02T10:14:03.000Z</time>
      </trkpt>
      <trkpt lat="42.957" lon="0.8428">
        <ele>1506</ele>
        <time>2018-04-02T10:14:05.000Z</time>
      </trkpt>
      <trkpt lat="42.95699" lon="0.8428">
        <ele>1506</ele>
        <time>2018-04-02T10:14:07.000Z</time>
      </trkpt>
      <trkpt lat="42.95699" lon="0.84279">
        <ele>1506</ele>
        <time>2018-04-02T10:14:09.000Z</time>
      </trkpt>
      <trkpt lat="42.957" lon="0.8428">
        <ele>1506</ele>
        <time>2018-04-02T10:14:11.000Z</time>
      </trkpt>
      <trkpt lat="42.957" lon="0.8428">
        <ele>1506</ele>
        <time>2018-04-02T10:14:13.000Z</time>
      </trkpt>
      <trkpt lat="42.957" lon="0.8428">
        <ele>1506</ele>
        <time>2018-04-02T10:14:15.000Z</time>
      </trkpt>
      <trkpt lat="42.957" lon="0.84281">
        <ele>1506</ele>
        <time>2018-04-02T10:14:17.000Z</time>
      </trkpt>
      <trkpt lat="42.95699" lon="0.84281">
        <ele>1507</ele>
        <time>2018-04-02T10:14:19.000Z</time>
      </trkpt>
      <trkpt lat="42.95698" lon="0.84282">
        <ele>1507</ele>
        <time>2018-04-02T10:14:21.000Z</time>
      </trkpt>
      <trkpt lat="42.95697" lon="0.84282">
        <ele>1507</ele>
        <time>2018-04-02T10:14:23.000Z</time>
      </trkpt>
      <trkpt lat="42.95696" lon="0.84282">
        <ele>1507</ele>
        <time>2018-04-02T10:14:25.000Z</time>
      </trkpt>
      <trkpt lat="42.95695" lon="0.84282">
        <ele>1508</ele>
        <time>2018-04-02T10:14:27.000Z</time>
      </trkpt>
      <trkpt lat="42.95694" lon="0.84282">
        <ele>1508</ele>
        <time>2018-04-02T10:14:29.000Z</time>
      </trkpt>
      <trkpt lat="42.95694" lon="0.84283">
        <ele>1508</ele>
        <time>2018-04-02T10:14:31.000Z</time>
      </trkpt>
      <trkpt lat="42.95693" lon="0.84283">
        <ele>1508</ele>
        <time>2018-04-02T10:14:33.000Z</time>
      </trkpt>
      <trkpt lat="42.95692" lon="0.84283">
        <ele>1508</ele>
        <time>2018-04-02T10:14:35.000Z</time>
      </trkpt>
      <trkpt lat="42.95692" lon="0.84284">
        <ele>1509</ele>
        <time>2018-04-02T10:14:37.000Z</time>
      </trkpt>
      <trkpt lat="42.9569" lon="0.84283">
        <ele>1509</ele>
        <time>2018-04-02T10:14:39.000Z</time>
      </trkpt>
      <trkpt lat="42.9569" lon="0.84283">
        <ele>1509</ele>
        <time>2018-04-02T10:14:41.000Z</time>
      </trkpt>
      <trkpt lat="42.95688" lon="0.84283">
        <ele>1509</ele>
        <time>2018-04-02T10:14:43.000Z</time>
      </trkpt>
      <trkpt lat="42.95687" lon="0.84283">
        <ele>1510</ele>
        <time>2018-04-02T10:14:45.000Z</time>
      </trkpt>
      <trkpt lat="42.95686" lon="0.84283">
        <ele>1510</ele>
        <time>2018-04-02T10:14:47.000Z</time>
      </trkpt>
      <trkpt lat="42.95686" lon="0.84284">
        <ele>1510</ele>
        <time>2018-04-02T10:14:49.000Z</time>
      </trkpt>
      <trkpt lat="42.95685" lon="0.84285">
        <ele>1510</ele>
        <time>2018-04-02T10:14:51.000Z</time>
      </trkpt>
      <trkpt lat="42.95685" lon="0.84286">
        <ele>1510</ele>
        <time>2018-04-02T10:14:53.000Z</time>
      </trkpt>
      <trkpt lat="42.95684" lon="0.84287">
        <ele>1511</ele>
        <time>2018-04-02T10:14:55.000Z</time>
      </trkpt>
      <trkpt lat="42.95684" lon="0.84288">
        <ele>1511</ele>
        <time>2018-04-02T10:14:57.000Z</time>
      </trkpt>
      <trkpt lat="42.95683" lon="0.84289">
        <ele>1511</ele>
        <time>2018-04-02T10:14:59.000Z</time>
      </trkpt>
      <trkpt lat="42.95683" lon="0.8429">
        <ele>1511</ele>
        <time>2018-04-02T10:15:01.000Z</time>
      </trkpt>
      <trkpt lat="42.95682" lon="0.84291">
        <ele>1511</ele>
        <time>2018-04-02T10:15:03.000Z</time>
      </trkpt>
      <trkpt lat="42.95681" lon="0.84292">
        <ele>1511</ele>
        <time>2018-04-02T10:15:05.000Z</time>
      </trkpt>
      <trkpt lat="42.95681" lon="0.84291">
        <ele>1512</ele>
        <time>2018-04-02T10:15:07.000Z</time>
      </trkpt>
      <trkpt lat="42.9568" lon="0.8429">
        <ele>1512</ele>
        <time>2018-04-02T10:15:09.000Z</time>
      </trkpt>
      <trkpt lat="42.9568" lon="0.8429">
        <ele>1512</ele>
        <time>2018-04-02T10:15:11.000Z</time>
      </trkpt>
      <trkpt lat="42.9568" lon="0.84291">
        <ele>1512</ele>
        <time>2018-04-02T10:15:13.000Z</time>
      </trkpt>
      <trkpt lat="42.9568" lon="0.84291">
        <ele>1512</ele>
        <time>2018-04-02T10:15:15.000Z</time>
      </trkpt>
      <trkpt lat="42.95679" lon="0.84291">
        <ele>1512</ele>
        <time>2018-04-02T10:15:17.000Z</time>
      </trkpt>
      <trkpt lat="42.95679" lon="0.84291">
        <ele>1512</ele>
        <time>2018-04-02T10:15:19.000Z</time>
      </trkpt>
      <trkpt lat="42.95679" lon="0.84291">
        <ele>1512</ele>
        <time>2018-04-02T10:15:21.000Z</time>
      </trkpt>
      <trkpt lat="42.95678" lon="0.84291">
        <ele>1512</ele>
        <time>2018-04-02T10:15:23.000Z</time>
      </trkpt>
      <trkpt lat="42.95677" lon="0.8429">
        <ele>1512</ele>
        <time>2018-04-02T10:15:25.000Z</time>
      </trkpt>
      <trkpt lat="42.95676" lon="0.84289">
        <ele>1513</ele>
        <time>2018-04-02T10:15:27.000Z</time>
      </trkpt>
      <trkpt lat="42.95675" lon="0.84289">
        <ele>1513</ele>
        <time>2018-04-02T10:15:29.000Z</time>
      </trkpt>
      <trkpt lat="42.95675" lon="0.84289">
        <ele>1513</ele>
        <time>2018-04-02T10:15:31.000Z</time>
      </trkpt>
      <trkpt lat="42.95674" lon="0.84289">
        <ele>1513</ele>
        <time>2018-04-02T10:15:33.000Z</time>
      </trkpt>
      <trkpt lat="42.95674" lon="0.8429">
        <ele>1513</ele>
        <time>2018-04-02T10:15:35.000Z</time>
      </trkpt>
      <trkpt lat="42.95674" lon="0.84291">
        <ele>1513</ele>
        <time>2018-04-02T10:15:37.000Z</time>
      </trkpt>
      <trkpt lat="42.95674" lon="0.84292">
        <ele>1513</ele>
        <time>2018-04-02T10:15:39.000Z</time>
      </trkpt>
      <trkpt lat="42.95673" lon="0.84293">
        <ele>1513</ele>
        <time>2018-04-02T10:15:41.000Z</time>
      </trkpt>
      <trkpt lat="42.95673" lon="0.84294">
        <ele>1513</ele>
        <time>2018-04-02T10:15:43.000Z</time>
      </trkpt>
      <trkpt lat="42.95672" lon="0.84295">
        <ele>1513</ele>
        <time>2018-04-02T10:15:45.000Z</time>
      </trkpt>
      <trkpt lat="42.95672" lon="0.84295">
        <ele>1513</ele>
        <time>2018-04-02T10:15:47.000Z</time>
      </trkpt>
      <trkpt lat="42.95672" lon="0.84296">
        <ele>1513</ele>
        <time>2018-04-02T10:15:49.000Z</time>
      </trkpt>
      <trkpt lat="42.95671" lon="0.84296">
        <ele>1513</ele>
        <time>2018-04-02T10:15:51.000Z</time>
      </trkpt>
      <trkpt lat="42.95671" lon="0.84296">
        <ele>1513</ele>
        <time>2018-04-02T10:15:53.000Z</time>
      </trkpt>
      <trkpt lat="42.9567" lon="0.84295">
        <ele>1513</ele>
        <time>2018-04-02T10:15:55.000Z</time>
      </trkpt>
      <trkpt lat="42.95669" lon="0.84296">
        <ele>1513</ele>
        <time>2018-04-02T10:15:57.000Z</time>
      </trkpt>
      <trkpt lat="42.95669" lon="0.84296">
        <ele>1513</ele>
        <time>2018-04-02T10:15:59.000Z</time>
      </trkpt>
      <trkpt lat="42.95668" lon="0.84296">
        <ele>1513</ele>
        <time>2018-04-02T10:16:01.000Z</time>
      </trkpt>
      <trkpt lat="42.95667" lon="0.84296">
        <ele>1513</ele>
        <time>2018-04-02T10:16:03.000Z</time>
      </trkpt>
      <trkpt lat="42.95667" lon="0.84296">
        <ele>1513</ele>
        <time>2018-04-02T10:16:05.000Z</time>
      </trkpt>
      <trkpt lat="42.95667" lon="0.84296">
        <ele>1513</ele>
        <time>2018-04-02T10:16:07.000Z</time>
      </trkpt>
      <trkpt lat="42.95666" lon="0.84296">
        <ele>1513</ele>
        <time>2018-04-02T10:16:09.000Z</time>
      </trkpt>
      <trkpt lat="42.95666" lon="0.84297">
        <ele>1513</ele>
        <time>2018-04-02T10:16:11.000Z</time>
      </trkpt>
      <trkpt lat="42.95665" lon="0.84297">
        <ele>1513</ele>
        <time>2018-04-02T10:16:13.000Z</time>
      </trkpt>
      <trkpt lat="42.95664" lon="0.84297">
        <ele>1513</ele>
        <time>2018-04-02T10:16:15.000Z</time>
      </trkpt>
      <trkpt lat="42.95663" lon="0.84297">
        <ele>1513</ele>
        <time>2018-04-02T10:16:17.000Z</time>
      </trkpt>
      <trkpt lat="42.95663" lon="0.84297">
        <ele>1513</ele>
        <time>2018-04-02T10:16:19.000Z</time>
      </trkpt>
      <trkpt lat="42.95662" lon="0.84297">
        <ele>1513</ele>
        <time>2018-04-02T10:16:21.000Z</time>
      </trkpt>
      <trkpt lat="42.95662" lon="0.84298">
        <ele>1513</ele>
        <time>2018-04-02T10:16:23.000Z</time>
      </trkpt>
      <trkpt lat="42.95661" lon="0.84298">
        <ele>1513</ele>
        <time>2018-04-02T10:16:25.000Z</time>
      </trkpt>
      <trkpt lat="42.9566" lon="0.84298">
        <ele>1513</ele>
        <time>2018-04-02T10:16:27.000Z</time>
      </trkpt>
      <trkpt lat="42.9566" lon="0.84299">
        <ele>1513</ele>
        <time>2018-04-02T10:16:29.000Z</time>
      </trkpt>
      <trkpt lat="42.95659" lon="0.84299">
        <ele>1513</ele>
        <time>2018-04-02T10:16:31.000Z</time>
      </trkpt>
      <trkpt lat="42.95658" lon="0.843">
        <ele>1513</ele>
        <time>2018-04-02T10:16:33.000Z</time>
      </trkpt>
      <trkpt lat="42.95657" lon="0.843">
        <ele>1513</ele>
        <time>2018-04-02T10:16:35.000Z</time>
      </trkpt>
      <trkpt lat="42.95656" lon="0.843">
        <ele>1513</ele>
        <time>2018-04-02T10:16:37.000Z</time>
      </trkpt>
      <trkpt lat="42.95656" lon="0.84301">
        <ele>1513</ele>
        <time>2018-04-02T10:16:39.000Z</time>
      </trkpt>
      <trkpt lat="42.95655" lon="0.84302">
        <ele>1513</ele>
        <time>2018-04-02T10:16:41.000Z</time>
      </trkpt>
      <trkpt lat="42.95655" lon="0.84302">
        <ele>1513</ele>
        <time>2018-04-02T10:16:43.000Z</time>
      </trkpt>
      <trkpt lat="42.95655" lon="0.84303">
        <ele>1513</ele>
        <time>2018-04-02T10:16:45.000Z</time>
      </trkpt>
      <trkpt lat="42.95655" lon="0.84303">
        <ele>1513</ele>
        <time>2018-04-02T10:16:47.000Z</time>
      </trkpt>
      <trkpt lat="42.95655" lon="0.84304">
        <ele>1513</ele>
        <time>2018-04-02T10:16:49.000Z</time>
      </trkpt>
      <trkpt lat="42.95654" lon="0.84305">
        <ele>1513</ele>
        <time>2018-04-02T10:16:51.000Z</time>
      </trkpt>
      <trkpt lat="42.95654" lon="0.84306">
        <ele>1513</ele>
        <time>2018-04-02T10:16:53.000Z</time>
      </trkpt>
      <trkpt lat="42.95653" lon="0.84307">
        <ele>1513</ele>
        <time>2018-04-02T10:16:55.000Z</time>
      </trkpt>
      <trkpt lat="42.95652" lon="0.84307">
        <ele>1513</ele>
        <time>2018-04-02T10:16:57.000Z</time>
      </trkpt>
      <trkpt lat="42.95652" lon="0.84307">
        <ele>1513</ele>
        <time>2018-04-02T10:16:59.000Z</time>
      </trkpt>
      <trkpt lat="42.95653" lon="0.84308">
        <ele>1513</ele>
        <time>2018-04-02T10:17:01.000Z</time>
      </trkpt>
      <trkpt lat="42.95653" lon="0.84308">
        <ele>1513</ele>
        <time>2018-04-02T10:17:03.000Z</time>
      </trkpt>
      <trkpt lat="42.95653" lon="0.84308">
        <ele>1513</ele>
        <time>2018-04-02T10:17:05.000Z</time>
      </trkpt>
      <trkpt lat="42.95652" lon="0.84308">
        <ele>1513</ele>
        <time>2018-04-02T10:17:07.000Z</time>
      </trkpt>
      <trkpt lat="42.95652" lon="0.84309">
        <ele>1513</ele>
        <time>2018-04-02T10:17:09.000Z</time>
      </trkpt>
      <trkpt lat="42.95651" lon="0.84309">
        <ele>1513</ele>
        <time>2018-04-02T10:17:11.000Z</time>
      </trkpt>
      <trkpt lat="42.95651" lon="0.8431">
        <ele>1513</ele>
        <time>2018-04-02T10:17:13.000Z</time>
      </trkpt>
      <trkpt lat="42.9565" lon="0.8431">
        <ele>1513</ele>
        <time>2018-04-02T10:17:15.000Z</time>
      </trkpt>
      <trkpt lat="42.9565" lon="0.84311">
        <ele>1513</ele>
        <time>2018-04-02T10:17:17.000Z</time>
      </trkpt>
      <trkpt lat="42.9565" lon="0.84312">
        <ele>1513</ele>
        <time>2018-04-02T10:17:19.000Z</time>
      </trkpt>
      <trkpt lat="42.95649" lon="0.84313">
        <ele>1513</ele>
        <time>2018-04-02T10:17:21.000Z</time>
      </trkpt>
      <trkpt lat="42.95649" lon="0.84313">
        <ele>1513</ele>
        <time>2018-04-02T10:17:23.000Z</time>
      </trkpt>
      <trkpt lat="42.95649" lon="0.84314">
        <ele>1513</ele>
        <time>2018-04-02T10:17:25.000Z</time>
      </trkpt>
      <trkpt lat="42.95649" lon="0.84314">
        <ele>1513</ele>
        <time>2018-04-02T10:17:27.000Z</time>
      </trkpt>
      <trkpt lat="42.95649" lon="0.84314">
        <ele>1513</ele>
        <time>2018-04-02T10:17:29.000Z</time>
      </trkpt>
      <trkpt lat="42.95648" lon="0.84315">
        <ele>1513</ele>
        <time>2018-04-02T10:17:31.000Z</time>
      </trkpt>
      <trkpt lat="42.95648" lon="0.84316">
        <ele>1512</ele>
        <time>2018-04-02T10:17:33.000Z</time>
      </trkpt>
      <trkpt lat="42.95647" lon="0.84317">
        <ele>1512</ele>
        <time>2018-04-02T10:17:35.000Z</time>
      </trkpt>
      <trkpt lat="42.95646" lon="0.84318">
        <ele>1512</ele>
        <time>2018-04-02T10:17:37.000Z</time>
      </trkpt>
      <trkpt lat="42.95646" lon="0.84319">
        <ele>1512</ele>
        <time>2018-04-02T10:17:39.000Z</time>
      </trkpt>
      <trkpt lat="42.95645" lon="0.8432">
        <ele>1512</ele>
        <time>2018-04-02T10:17:41.000Z</time>
      </trkpt>
      <trkpt lat="42.95644" lon="0.84321">
        <ele>1512</ele>
        <time>2018-04-02T10:17:43.000Z</time>
      </trkpt>
      <trkpt lat="42.95644" lon="0.84322">
        <ele>1512</ele>
        <time>2018-04-02T10:17:45.000Z</time>
      </trkpt>
      <trkpt lat="42.95643" lon="0.84322">
        <ele>1512</ele>
        <time>2018-04-02T10:17:47.000Z</time>
      </trkpt>
      <trkpt lat="42.95642" lon="0.84322">
        <ele>1512</ele>
        <time>2018-04-02T10:17:49.000Z</time>
      </trkpt>
      <trkpt lat="42.95643" lon="0.84322">
        <ele>1512</ele>
        <time>2018-04-02T10:17:51.000Z</time>
      </trkpt>
      <trkpt lat="42.95643" lon="0.84322">
        <ele>1512</ele>
        <time>2018-04-02T10:17:53.000Z</time>
      </trkpt>
      <trkpt lat="42.95643" lon="0.84322">
        <ele>1512</ele>
        <time>2018-04-02T10:17:55.000Z</time>
      </trkpt>
      <trkpt lat="42.95642" lon="0.84322">
        <ele>1512</ele>
        <time>2018-04-02T10:17:57.000Z</time>
      </trkpt>
      <trkpt lat="42.95642" lon="0.84322">
        <ele>1512</ele>
        <time>2018-04-02T10:17:59.000Z</time>
      </trkpt>
      <trkpt lat="42.95642" lon="0.84323">
        <ele>1512</ele>
        <time>2018-04-02T10:18:01.000Z</time>
      </trkpt>
      <trkpt lat="42.95642" lon="0.84324">
        <ele>1512</ele>
        <time>2018-04-02T10:18:03.000Z</time>
      </trkpt>
      <trkpt lat="42.95642" lon="0.84325">
        <ele>1512</ele>
        <time>2018-04-02T10:18:05.000Z</time>
      </trkpt>
      <trkpt lat="42.95642" lon="0.84325">
        <ele>1512</ele>
        <time>2018-04-02T10:18:07.000Z</time>
      </trkpt>
      <trkpt lat="42.95642" lon="0.84325">
        <ele>1512</ele>
        <time>2018-04-02T10:18:09.000Z</time>
      </trkpt>
      <trkpt lat="42.95641" lon="0.84325">
        <ele>1512</ele>
        <time>2018-04-02T10:18:11.000Z</time>
      </trkpt>
      <trkpt lat="42.95642" lon="0.84325">
        <ele>1512</ele>
        <time>2018-04-02T10:18:13.000Z</time>
      </trkpt>
      <trkpt lat="42.95641" lon="0.84325">
        <ele>1512</ele>
        <time>2018-04-02T10:18:15.000Z</time>
      </trkpt>
      <trkpt lat="42.95642" lon="0.84325">
        <ele>1512</ele>
        <time>2018-04-02T10:18:17.000Z</time>
      </trkpt>
      <trkpt lat="42.95643" lon="0.84325">
        <ele>1512</ele>
        <time>2018-04-02T10:18:19.000Z</time>
      </trkpt>
      <trkpt lat="42.95643" lon="0.84325">
        <ele>1512</ele>
        <time>2018-04-02T10:18:21.000Z</time>
      </trkpt>
      <trkpt lat="42.95643" lon="0.84325">
        <ele>1512</ele>
        <time>2018-04-02T10:18:23.000Z</time>
      </trkpt>
      <trkpt lat="42.95643" lon="0.84326">
        <ele>1512</ele>
        <time>2018-04-02T10:18:25.000Z</time>
      </trkpt>
      <trkpt lat="42.95643" lon="0.84326">
        <ele>1512</ele>
        <time>2018-04-02T10:18:27.000Z</time>
      </trkpt>
      <trkpt lat="42.95644" lon="0.84327">
        <ele>1512</ele>
        <time>2018-04-02T10:18:29.000Z</time>
      </trkpt>
      <trkpt lat="42.95644" lon="0.84329">
        <ele>1512</ele>
        <time>2018-04-02T10:18:31.000Z</time>
      </trkpt>
      <trkpt lat="42.95643" lon="0.8433">
        <ele>1512</ele>
        <time>2018-04-02T10:18:33.000Z</time>
      </trkpt>
      <trkpt lat="42.95643" lon="0.8433">
        <ele>1512</ele>
        <time>2018-04-02T10:18:35.000Z</time>
      </trkpt>
      <trkpt lat="42.95643" lon="0.84331">
        <ele>1512</ele>
        <time>2018-04-02T10:18:37.000Z</time>
      </trkpt>
      <trkpt lat="42.95644" lon="0.84331">
        <ele>1512</ele>
        <time>2018-04-02T10:18:39.000Z</time>
      </trkpt>
      <trkpt lat="42.95644" lon="0.84332">
        <ele>1512</ele>
        <time>2018-04-02T10:18:41.000Z</time>
      </trkpt>
      <trkpt lat="42.95644" lon="0.84334">
        <ele>1512</ele>
        <time>2018-04-02T10:18:43.000Z</time>
      </trkpt>
      <trkpt lat="42.95644" lon="0.84335">
        <ele>1512</ele>
        <time>2018-04-02T10:18:45.000Z</time>
      </trkpt>
      <trkpt lat="42.95645" lon="0.84337">
        <ele>1512</ele>
        <time>2018-04-02T10:18:47.000Z</time>
      </trkpt>
      <trkpt lat="42.95644" lon="0.84339">
        <ele>1512</ele>
        <time>2018-04-02T10:18:49.000Z</time>
      </trkpt>
      <trkpt lat="42.95644" lon="0.84341">
        <ele>1512</ele>
        <time>2018-04-02T10:18:51.000Z</time>
      </trkpt>
      <trkpt lat="42.95644" lon="0.84342">
        <ele>1512</ele>
        <time>2018-04-02T10:18:53.000Z</time>
      </trkpt>
      <trkpt lat="42.95644" lon="0.84344">
        <ele>1512</ele>
        <time>2018-04-02T10:18:55.000Z</time>
      </trkpt>
      <trkpt lat="42.95644" lon="0.84346">
        <ele>1512</ele>
        <time>2018-04-02T10:18:57.000Z</time>
      </trkpt>
      <trkpt lat="42.95644" lon="0.84348">
        <ele>1512</ele>
        <time>2018-04-02T10:18:59.000Z</time>
      </trkpt>
      <trkpt lat="42.95643" lon="0.8435">
        <ele>1511</ele>
        <time>2018-04-02T10:19:01.000Z</time>
      </trkpt>
      <trkpt lat="42.95643" lon="0.84352">
        <ele>1511</ele>
        <time>2018-04-02T10:19:03.000Z</time>
      </trkpt>
      <trkpt lat="42.95642" lon="0.84355">
        <ele>1511</ele>
        <time>2018-04-02T10:19:05.000Z</time>
      </trkpt>
      <trkpt lat="42.95642" lon="0.84357">
        <ele>1511</ele>
        <time>2018-04-02T10:19:07.000Z</time>
      </trkpt>
      <trkpt lat="42.95642" lon="0.8436">
        <ele>1511</ele>
        <time>2018-04-02T10:19:09.000Z</time>
      </trkpt>
      <trkpt lat="42.95642" lon="0.84363">
        <ele>1510</ele>
        <time>2018-04-02T10:19:11.000Z</time>
      </trkpt>
      <trkpt lat="42.95642" lon="0.84366">
        <ele>1510</ele>
        <time>2018-04-02T10:19:13.000Z</time>
      </trkpt>
      <trkpt lat="42.95642" lon="0.84369">
        <ele>1509</ele>
        <time>2018-04-02T10:19:15.000Z</time>
      </trkpt>
      <trkpt lat="42.95641" lon="0.84373">
        <ele>1509</ele>
        <time>2018-04-02T10:19:17.000Z</time>
      </trkpt>
      <trkpt lat="42.95642" lon="0.84375">
        <ele>1508</ele>
        <time>2018-04-02T10:19:19.000Z</time>
      </trkpt>
      <trkpt lat="42.95642" lon="0.84378">
        <ele>1508</ele>
        <time>2018-04-02T10:19:21.000Z</time>
      </trkpt>
      <trkpt lat="42.95642" lon="0.84381">
        <ele>1507</ele>
        <time>2018-04-02T10:19:23.000Z</time>
      </trkpt>
      <trkpt lat="42.95642" lon="0.84384">
        <ele>1507</ele>
        <time>2018-04-02T10:19:25.000Z</time>
      </trkpt>
      <trkpt lat="42.95642" lon="0.84386">
        <ele>1507</ele>
        <time>2018-04-02T10:19:27.000Z</time>
      </trkpt>
      <trkpt lat="42.95642" lon="0.84389">
        <ele>1506</ele>
        <time>2018-04-02T10:19:29.000Z</time>
      </trkpt>
      <trkpt lat="42.95642" lon="0.84392">
        <ele>1506</ele>
        <time>2018-04-02T10:19:31.000Z</time>
      </trkpt>
      <trkpt lat="42.95642" lon="0.84395">
        <ele>1506</ele>
        <time>2018-04-02T10:19:33.000Z</time>
      </trkpt>
      <trkpt lat="42.95642" lon="0.84397">
        <ele>1506</ele>
        <time>2018-04-02T10:19:35.000Z</time>
      </trkpt>
      <trkpt lat="42.95641" lon="0.844">
        <ele>1505</ele>
        <time>2018-04-02T10:19:37.000Z</time>
      </trkpt>
      <trkpt lat="42.95641" lon="0.84402">
        <ele>1505</ele>
        <time>2018-04-02T10:19:39.000Z</time>
      </trkpt>
      <trkpt lat="42.95641" lon="0.84404">
        <ele>1505</ele>
        <time>2018-04-02T10:19:41.000Z</time>
      </trkpt>
      <trkpt lat="42.95639" lon="0.84406">
        <ele>1505</ele>
        <time>2018-04-02T10:19:43.000Z</time>
      </trkpt>
      <trkpt lat="42.95639" lon="0.84408">
        <ele>1504</ele>
        <time>2018-04-02T10:19:45.000Z</time>
      </trkpt>
      <trkpt lat="42.95638" lon="0.8441">
        <ele>1504</ele>
        <time>2018-04-02T10:19:47.000Z</time>
      </trkpt>
      <trkpt lat="42.95638" lon="0.84412">
        <ele>1504</ele>
        <time>2018-04-02T10:19:49.000Z</time>
      </trkpt>
      <trkpt lat="42.95637" lon="0.84413">
        <ele>1504</ele>
        <time>2018-04-02T10:19:51.000Z</time>
      </trkpt>
      <trkpt lat="42.95637" lon="0.84415">
        <ele>1504</ele>
        <time>2018-04-02T10:19:53.000Z</time>
      </trkpt>
      <trkpt lat="42.95638" lon="0.84417">
        <ele>1504</ele>
        <time>2018-04-02T10:19:55.000Z</time>
      </trkpt>
      <trkpt lat="42.95639" lon="0.84419">
        <ele>1504</ele>
        <time>2018-04-02T10:19:57.000Z</time>
      </trkpt>
      <trkpt lat="42.9564" lon="0.84421">
        <ele>1504</ele>
        <time>2018-04-02T10:19:59.000Z</time>
      </trkpt>
      <trkpt lat="42.9564" lon="0.84423">
        <ele>1504</ele>
        <time>2018-04-02T10:20:01.000Z</time>
      </trkpt>
      <trkpt lat="42.9564" lon="0.84425">
        <ele>1504</ele>
        <time>2018-04-02T10:20:03.000Z</time>
      </trkpt>
      <trkpt lat="42.95642" lon="0.84427">
        <ele>1504</ele>
        <time>2018-04-02T10:20:05.000Z</time>
      </trkpt>
      <trkpt lat="42.95642" lon="0.84429">
        <ele>1504</ele>
        <time>2018-04-02T10:20:07.000Z</time>
      </trkpt>
      <trkpt lat="42.95643" lon="0.84431">
        <ele>1504</ele>
        <time>2018-04-02T10:20:09.000Z</time>
      </trkpt>
      <trkpt lat="42.95644" lon="0.84433">
        <ele>1504</ele>
        <time>2018-04-02T10:20:11.000Z</time>
      </trkpt>
      <trkpt lat="42.95645" lon="0.84434">
        <ele>1504</ele>
        <time>2018-04-02T10:20:13.000Z</time>
      </trkpt>
      <trkpt lat="42.95645" lon="0.84437">
        <ele>1504</ele>
        <time>2018-04-02T10:20:15.000Z</time>
      </trkpt>
      <trkpt lat="42.95646" lon="0.84439">
        <ele>1504</ele>
        <time>2018-04-02T10:20:17.000Z</time>
      </trkpt>
      <trkpt lat="42.95646" lon="0.84442">
        <ele>1504</ele>
        <time>2018-04-02T10:20:19.000Z</time>
      </trkpt>
      <trkpt lat="42.95647" lon="0.84444">
        <ele>1504</ele>
        <time>2018-04-02T10:20:21.000Z</time>
      </trkpt>
      <trkpt lat="42.95646" lon="0.84446">
        <ele>1503</ele>
        <time>2018-04-02T10:20:23.000Z</time>
      </trkpt>
      <trkpt lat="42.95646" lon="0.84448">
        <ele>1503</ele>
        <time>2018-04-02T10:20:25.000Z</time>
      </trkpt>
      <trkpt lat="42.95645" lon="0.84449">
        <ele>1503</ele>
        <time>2018-04-02T10:20:27.000Z</time>
      </trkpt>
      <trkpt lat="42.95646" lon="0.84451">
        <ele>1503</ele>
        <time>2018-04-02T10:20:29.000Z</time>
      </trkpt>
      <trkpt lat="42.95647" lon="0.84454">
        <ele>1503</ele>
        <time>2018-04-02T10:20:31.000Z</time>
      </trkpt>
      <trkpt lat="42.95647" lon="0.84457">
        <ele>1502</ele>
        <time>2018-04-02T10:20:33.000Z</time>
      </trkpt>
      <trkpt lat="42.95647" lon="0.84459">
        <ele>1502</ele>
        <time>2018-04-02T10:20:35.000Z</time>
      </trkpt>
      <trkpt lat="42.95648" lon="0.84462">
        <ele>1502</ele>
        <time>2018-04-02T10:20:37.000Z</time>
      </trkpt>
      <trkpt lat="42.95648" lon="0.84464">
        <ele>1502</ele>
        <time>2018-04-02T10:20:39.000Z</time>
      </trkpt>
      <trkpt lat="42.95649" lon="0.84466">
        <ele>1502</ele>
        <time>2018-04-02T10:20:41.000Z</time>
      </trkpt>
      <trkpt lat="42.95649" lon="0.84467">
        <ele>1501</ele>
        <time>2018-04-02T10:20:43.000Z</time>
      </trkpt>
      <trkpt lat="42.9565" lon="0.84469">
        <ele>1501</ele>
        <time>2018-04-02T10:20:45.000Z</time>
      </trkpt>
      <trkpt lat="42.9565" lon="0.84471">
        <ele>1501</ele>
        <time>2018-04-02T10:20:47.000Z</time>
      </trkpt>
      <trkpt lat="42.95651" lon="0.84473">
        <ele>1501</ele>
        <time>2018-04-02T10:20:49.000Z</time>
      </trkpt>
      <trkpt lat="42.95652" lon="0.84476">
        <ele>1502</ele>
        <time>2018-04-02T10:20:51.000Z</time>
      </trkpt>
      <trkpt lat="42.95652" lon="0.84477">
        <ele>1502</ele>
        <time>2018-04-02T10:20:53.000Z</time>
      </trkpt>
      <trkpt lat="42.95652" lon="0.8448">
        <ele>1501</ele>
        <time>2018-04-02T10:20:55.000Z</time>
      </trkpt>
      <trkpt lat="42.95651" lon="0.84483">
        <ele>1501</ele>
        <time>2018-04-02T10:20:57.000Z</time>
      </trkpt>
      <trkpt lat="42.95651" lon="0.84486">
        <ele>1501</ele>
        <time>2018-04-02T10:20:59.000Z</time>
      </trkpt>
      <trkpt lat="42.95652" lon="0.84489">
        <ele>1501</ele>
        <time>2018-04-02T10:21:01.000Z</time>
      </trkpt>
      <trkpt lat="42.95652" lon="0.84492">
        <ele>1501</ele>
        <time>2018-04-02T10:21:03.000Z</time>
      </trkpt>
      <trkpt lat="42.95652" lon="0.84493">
        <ele>1501</ele>
        <time>2018-04-02T10:21:05.000Z</time>
      </trkpt>
      <trkpt lat="42.95652" lon="0.84496">
        <ele>1501</ele>
        <time>2018-04-02T10:21:07.000Z</time>
      </trkpt>
      <trkpt lat="42.95652" lon="0.84498">
        <ele>1501</ele>
        <time>2018-04-02T10:21:09.000Z</time>
      </trkpt>
      <trkpt lat="42.95652" lon="0.84501">
        <ele>1501</ele>
        <time>2018-04-02T10:21:11.000Z</time>
      </trkpt>
      <trkpt lat="42.95653" lon="0.84504">
        <ele>1501</ele>
        <time>2018-04-02T10:21:13.000Z</time>
      </trkpt>
      <trkpt lat="42.95653" lon="0.84506">
        <ele>1501</ele>
        <time>2018-04-02T10:21:15.000Z</time>
      </trkpt>
      <trkpt lat="42.95653" lon="0.84507">
        <ele>1501</ele>
        <time>2018-04-02T10:21:17.000Z</time>
      </trkpt>
      <trkpt lat="42.95653" lon="0.84509">
        <ele>1501</ele>
        <time>2018-04-02T10:21:19.000Z</time>
      </trkpt>
      <trkpt lat="42.95652" lon="0.84512">
        <ele>1501</ele>
        <time>2018-04-02T10:21:21.000Z</time>
      </trkpt>
      <trkpt lat="42.95653" lon="0.84515">
        <ele>1501</ele>
        <time>2018-04-02T10:21:23.000Z</time>
      </trkpt>
      <trkpt lat="42.95653" lon="0.84517">
        <ele>1501</ele>
        <time>2018-04-02T10:21:25.000Z</time>
      </trkpt>
      <trkpt lat="42.95653" lon="0.84519">
        <ele>1501</ele>
        <time>2018-04-02T10:21:27.000Z</time>
      </trkpt>
      <trkpt lat="42.95652" lon="0.84522">
        <ele>1501</ele>
        <time>2018-04-02T10:21:29.000Z</time>
      </trkpt>
      <trkpt lat="42.95652" lon="0.84524">
        <ele>1501</ele>
        <time>2018-04-02T10:21:31.000Z</time>
      </trkpt>
      <trkpt lat="42.95653" lon="0.84526">
        <ele>1501</ele>
        <time>2018-04-02T10:21:33.000Z</time>
      </trkpt>
      <trkpt lat="42.95653" lon="0.84529">
        <ele>1501</ele>
        <time>2018-04-02T10:21:35.000Z</time>
      </trkpt>
      <trkpt lat="42.95653" lon="0.84531">
        <ele>1501</ele>
        <time>2018-04-02T10:21:37.000Z</time>
      </trkpt>
      <trkpt lat="42.95653" lon="0.84532">
        <ele>1501</ele>
        <time>2018-04-02T10:21:39.000Z</time>
      </trkpt>
      <trkpt lat="42.95652" lon="0.84535">
        <ele>1501</ele>
        <time>2018-04-02T10:21:41.000Z</time>
      </trkpt>
      <trkpt lat="42.95652" lon="0.84537">
        <ele>1501</ele>
        <time>2018-04-02T10:21:43.000Z</time>
      </trkpt>
      <trkpt lat="42.95651" lon="0.84538">
        <ele>1501</ele>
        <time>2018-04-02T10:21:45.000Z</time>
      </trkpt>
      <trkpt lat="42.9565" lon="0.84541">
        <ele>1500</ele>
        <time>2018-04-02T10:21:47.000Z</time>
      </trkpt>
      <trkpt lat="42.95651" lon="0.84543">
        <ele>1500</ele>
        <time>2018-04-02T10:21:49.000Z</time>
      </trkpt>
      <trkpt lat="42.9565" lon="0.84545">
        <ele>1500</ele>
        <time>2018-04-02T10:21:51.000Z</time>
      </trkpt>
      <trkpt lat="42.9565" lon="0.84547">
        <ele>1500</ele>
        <time>2018-04-02T10:21:53.000Z</time>
      </trkpt>
      <trkpt lat="42.95651" lon="0.84549">
        <ele>1500</ele>
        <time>2018-04-02T10:21:55.000Z</time>
      </trkpt>
      <trkpt lat="42.95651" lon="0.84552">
        <ele>1500</ele>
        <time>2018-04-02T10:21:57.000Z</time>
      </trkpt>
      <trkpt lat="42.95651" lon="0.84554">
        <ele>1500</ele>
        <time>2018-04-02T10:21:59.000Z</time>
      </trkpt>
      <trkpt lat="42.95651" lon="0.84556">
        <ele>1500</ele>
        <time>2018-04-02T10:22:01.000Z</time>
      </trkpt>
      <trkpt lat="42.95651" lon="0.84558">
        <ele>1500</ele>
        <time>2018-04-02T10:22:03.000Z</time>
      </trkpt>
      <trkpt lat="42.9565" lon="0.8456">
        <ele>1500</ele>
        <time>2018-04-02T10:22:05.000Z</time>
      </trkpt>
      <trkpt lat="42.9565" lon="0.84562">
        <ele>1500</ele>
        <time>2018-04-02T10:22:07.000Z</time>
      </trkpt>
      <trkpt lat="42.9565" lon="0.84564">
        <ele>1500</ele>
        <time>2018-04-02T10:22:09.000Z</time>
      </trkpt>
      <trkpt lat="42.95649" lon="0.84565">
        <ele>1500</ele>
        <time>2018-04-02T10:22:11.000Z</time>
      </trkpt>
      <trkpt lat="42.95649" lon="0.84566">
        <ele>1499</ele>
        <time>2018-04-02T10:22:13.000Z</time>
      </trkpt>
      <trkpt lat="42.9565" lon="0.84568">
        <ele>1500</ele>
        <time>2018-04-02T10:22:15.000Z</time>
      </trkpt>
      <trkpt lat="42.9565" lon="0.8457">
        <ele>1499</ele>
        <time>2018-04-02T10:22:17.000Z</time>
      </trkpt>
      <trkpt lat="42.95649" lon="0.84572">
        <ele>1499</ele>
        <time>2018-04-02T10:22:19.000Z</time>
      </trkpt>
      <trkpt lat="42.95649" lon="0.84574">
        <ele>1499</ele>
        <time>2018-04-02T10:22:21.000Z</time>
      </trkpt>
      <trkpt lat="42.95649" lon="0.84576">
        <ele>1499</ele>
        <time>2018-04-02T10:22:23.000Z</time>
      </trkpt>
      <trkpt lat="42.95649" lon="0.84579">
        <ele>1499</ele>
        <time>2018-04-02T10:22:25.000Z</time>
      </trkpt>
      <trkpt lat="42.95649" lon="0.8458">
        <ele>1499</ele>
        <time>2018-04-02T10:22:27.000Z</time>
      </trkpt>
      <trkpt lat="42.95648" lon="0.84581">
        <ele>1498</ele>
        <time>2018-04-02T10:22:29.000Z</time>
      </trkpt>
      <trkpt lat="42.95648" lon="0.84583">
        <ele>1498</ele>
        <time>2018-04-02T10:22:31.000Z</time>
      </trkpt>
      <trkpt lat="42.95648" lon="0.84585">
        <ele>1498</ele>
        <time>2018-04-02T10:22:33.000Z</time>
      </trkpt>
      <trkpt lat="42.95648" lon="0.84587">
        <ele>1498</ele>
        <time>2018-04-02T10:22:35.000Z</time>
      </trkpt>
      <trkpt lat="42.95649" lon="0.84589">
        <ele>1498</ele>
        <time>2018-04-02T10:22:37.000Z</time>
      </trkpt>
      <trkpt lat="42.9565" lon="0.84591">
        <ele>1499</ele>
        <time>2018-04-02T10:22:39.000Z</time>
      </trkpt>
      <trkpt lat="42.95651" lon="0.84594">
        <ele>1499</ele>
        <time>2018-04-02T10:22:41.000Z</time>
      </trkpt>
      <trkpt lat="42.95652" lon="0.84596">
        <ele>1499</ele>
        <time>2018-04-02T10:22:43.000Z</time>
      </trkpt>
      <trkpt lat="42.95652" lon="0.84598">
        <ele>1499</ele>
        <time>2018-04-02T10:22:45.000Z</time>
      </trkpt>
      <trkpt lat="42.95652" lon="0.84599">
        <ele>1498</ele>
        <time>2018-04-02T10:22:47.000Z</time>
      </trkpt>
      <trkpt lat="42.95651" lon="0.84602">
        <ele>1498</ele>
        <time>2018-04-02T10:22:49.000Z</time>
      </trkpt>
      <trkpt lat="42.9565" lon="0.84605">
        <ele>1498</ele>
        <time>2018-04-02T10:22:51.000Z</time>
      </trkpt>
      <trkpt lat="42.9565" lon="0.84607">
        <ele>1498</ele>
        <time>2018-04-02T10:22:53.000Z</time>
      </trkpt>
      <trkpt lat="42.95649" lon="0.8461">
        <ele>1497</ele>
        <time>2018-04-02T10:22:55.000Z</time>
      </trkpt>
      <trkpt lat="42.95648" lon="0.84612">
        <ele>1497</ele>
        <time>2018-04-02T10:22:57.000Z</time>
      </trkpt>
      <trkpt lat="42.95648" lon="0.84615">
        <ele>1497</ele>
        <time>2018-04-02T10:22:59.000Z</time>
      </trkpt>
      <trkpt lat="42.95648" lon="0.84617">
        <ele>1497</ele>
        <time>2018-04-02T10:23:01.000Z</time>
      </trkpt>
      <trkpt lat="42.95647" lon="0.84619">
        <ele>1497</ele>
        <time>2018-04-02T10:23:03.000Z</time>
      </trkpt>
      <trkpt lat="42.95647" lon="0.84621">
        <ele>1496</ele>
        <time>2018-04-02T10:23:05.000Z</time>
      </trkpt>
      <trkpt lat="42.95646" lon="0.84623">
        <ele>1496</ele>
        <time>2018-04-02T10:23:07.000Z</time>
      </trkpt>
      <trkpt lat="42.95647" lon="0.84625">
        <ele>1496</ele>
        <time>2018-04-02T10:23:09.000Z</time>
      </trkpt>
      <trkpt lat="42.95646" lon="0.84628">
        <ele>1496</ele>
        <time>2018-04-02T10:23:11.000Z</time>
      </trkpt>
      <trkpt lat="42.95647" lon="0.8463">
        <ele>1496</ele>
        <time>2018-04-02T10:23:13.000Z</time>
      </trkpt>
      <trkpt lat="42.95647" lon="0.84632">
        <ele>1496</ele>
        <time>2018-04-02T10:23:15.000Z</time>
      </trkpt>
      <trkpt lat="42.95647" lon="0.84634">
        <ele>1496</ele>
        <time>2018-04-02T10:23:17.000Z</time>
      </trkpt>
      <trkpt lat="42.95647" lon="0.84636">
        <ele>1496</ele>
        <time>2018-04-02T10:23:19.000Z</time>
      </trkpt>
      <trkpt lat="42.95647" lon="0.84638">
        <ele>1496</ele>
        <time>2018-04-02T10:23:21.000Z</time>
      </trkpt>
      <trkpt lat="42.95648" lon="0.8464">
        <ele>1496</ele>
        <time>2018-04-02T10:23:23.000Z</time>
      </trkpt>
      <trkpt lat="42.95648" lon="0.84642">
        <ele>1496</ele>
        <time>2018-04-02T10:23:25.000Z</time>
      </trkpt>
      <trkpt lat="42.95649" lon="0.84644">
        <ele>1496</ele>
        <time>2018-04-02T10:23:27.000Z</time>
      </trkpt>
      <trkpt lat="42.9565" lon="0.84647">
        <ele>1496</ele>
        <time>2018-04-02T10:23:29.000Z</time>
      </trkpt>
      <trkpt lat="42.9565" lon="0.84649">
        <ele>1495</ele>
        <time>2018-04-02T10:23:31.000Z</time>
      </trkpt>
      <trkpt lat="42.95649" lon="0.84651">
        <ele>1495</ele>
        <time>2018-04-02T10:23:33.000Z</time>
      </trkpt>
      <trkpt lat="42.95649" lon="0.84653">
        <ele>1495</ele>
        <time>2018-04-02T10:23:35.000Z</time>
      </trkpt>
      <trkpt lat="42.95649" lon="0.84655">
        <ele>1495</ele>
        <time>2018-04-02T10:23:37.000Z</time>
      </trkpt>
      <trkpt lat="42.95649" lon="0.84657">
        <ele>1495</ele>
        <time>2018-04-02T10:23:39.000Z</time>
      </trkpt>
      <trkpt lat="42.95649" lon="0.84659">
        <ele>1494</ele>
        <time>2018-04-02T10:23:41.000Z</time>
      </trkpt>
      <trkpt lat="42.95648" lon="0.84661">
        <ele>1494</ele>
        <time>2018-04-02T10:23:43.000Z</time>
      </trkpt>
      <trkpt lat="42.95648" lon="0.84663">
        <ele>1494</ele>
        <time>2018-04-02T10:23:45.000Z</time>
      </trkpt>
      <trkpt lat="42.95649" lon="0.84665">
        <ele>1494</ele>
        <time>2018-04-02T10:23:47.000Z</time>
      </trkpt>
      <trkpt lat="42.95649" lon="0.84667">
        <ele>1494</ele>
        <time>2018-04-02T10:23:49.000Z</time>
      </trkpt>
      <trkpt lat="42.9565" lon="0.84669">
        <ele>1493</ele>
        <time>2018-04-02T10:23:51.000Z</time>
      </trkpt>
      <trkpt lat="42.95649" lon="0.84671">
        <ele>1493</ele>
        <time>2018-04-02T10:23:53.000Z</time>
      </trkpt>
      <trkpt lat="42.9565" lon="0.84674">
        <ele>1493</ele>
        <time>2018-04-02T10:23:55.000Z</time>
      </trkpt>
      <trkpt lat="42.95649" lon="0.84676">
        <ele>1493</ele>
        <time>2018-04-02T10:23:57.000Z</time>
      </trkpt>
      <trkpt lat="42.95649" lon="0.84677">
        <ele>1493</ele>
        <time>2018-04-02T10:23:59.000Z</time>
      </trkpt>
      <trkpt lat="42.95649" lon="0.84678">
        <ele>1493</ele>
        <time>2018-04-02T10:24:01.000Z</time>
      </trkpt>
      <trkpt lat="42.95649" lon="0.84681">
        <ele>1492</ele>
        <time>2018-04-02T10:24:03.000Z</time>
      </trkpt>
      <trkpt lat="42.95649" lon="0.84682">
        <ele>1492</ele>
        <time>2018-04-02T10:24:05.000Z</time>
      </trkpt>
      <trkpt lat="42.9565" lon="0.84684">
        <ele>1492</ele>
        <time>2018-04-02T10:24:07.000Z</time>
      </trkpt>
      <trkpt lat="42.95649" lon="0.84686">
        <ele>1492</ele>
        <time>2018-04-02T10:24:09.000Z</time>
      </trkpt>
      <trkpt lat="42.95649" lon="0.84687">
        <ele>1492</ele>
        <time>2018-04-02T10:24:11.000Z</time>
      </trkpt>
      <trkpt lat="42.95649" lon="0.84689">
        <ele>1492</ele>
        <time>2018-04-02T10:24:13.000Z</time>
      </trkpt>
      <trkpt lat="42.95649" lon="0.8469">
        <ele>1491</ele>
        <time>2018-04-02T10:24:15.000Z</time>
      </trkpt>
      <trkpt lat="42.95649" lon="0.8469">
        <ele>1491</ele>
        <time>2018-04-02T10:24:17.000Z</time>
      </trkpt>
      <trkpt lat="42.95649" lon="0.84691">
        <ele>1491</ele>
        <time>2018-04-02T10:24:19.000Z</time>
      </trkpt>
      <trkpt lat="42.95648" lon="0.84692">
        <ele>1491</ele>
        <time>2018-04-02T10:24:21.000Z</time>
      </trkpt>
      <trkpt lat="42.95647" lon="0.84693">
        <ele>1491</ele>
        <time>2018-04-02T10:24:23.000Z</time>
      </trkpt>
      <trkpt lat="42.95647" lon="0.84694">
        <ele>1491</ele>
        <time>2018-04-02T10:24:25.000Z</time>
      </trkpt>
      <trkpt lat="42.95647" lon="0.84695">
        <ele>1490</ele>
        <time>2018-04-02T10:24:27.000Z</time>
      </trkpt>
      <trkpt lat="42.95646" lon="0.84696">
        <ele>1490</ele>
        <time>2018-04-02T10:24:29.000Z</time>
      </trkpt>
      <trkpt lat="42.95647" lon="0.84697">
        <ele>1490</ele>
        <time>2018-04-02T10:24:31.000Z</time>
      </trkpt>
      <trkpt lat="42.95647" lon="0.84699">
        <ele>1490</ele>
        <time>2018-04-02T10:24:33.000Z</time>
      </trkpt>
      <trkpt lat="42.95647" lon="0.847">
        <ele>1490</ele>
        <time>2018-04-02T10:24:35.000Z</time>
      </trkpt>
      <trkpt lat="42.95647" lon="0.84702">
        <ele>1490</ele>
        <time>2018-04-02T10:24:37.000Z</time>
      </trkpt>
      <trkpt lat="42.95648" lon="0.84703">
        <ele>1489</ele>
        <time>2018-04-02T10:24:39.000Z</time>
      </trkpt>
      <trkpt lat="42.95647" lon="0.84703">
        <ele>1489</ele>
        <time>2018-04-02T10:24:41.000Z</time>
      </trkpt>
      <trkpt lat="42.95647" lon="0.84704">
        <ele>1489</ele>
        <time>2018-04-02T10:24:43.000Z</time>
      </trkpt>
      <trkpt lat="42.95647" lon="0.84705">
        <ele>1489</ele>
        <time>2018-04-02T10:24:45.000Z</time>
      </trkpt>
      <trkpt lat="42.95647" lon="0.84706">
        <ele>1489</ele>
        <time>2018-04-02T10:24:47.000Z</time>
      </trkpt>
      <trkpt lat="42.95646" lon="0.84706">
        <ele>1489</ele>
        <time>2018-04-02T10:24:49.000Z</time>
      </trkpt>
      <trkpt lat="42.95646" lon="0.84706">
        <ele>1488</ele>
        <time>2018-04-02T10:24:51.000Z</time>
      </trkpt>
      <trkpt lat="42.95645" lon="0.84706">
        <ele>1488</ele>
        <time>2018-04-02T10:24:53.000Z</time>
      </trkpt>
      <trkpt lat="42.95645" lon="0.84707">
        <ele>1488</ele>
        <time>2018-04-02T10:24:55.000Z</time>
      </trkpt>
      <trkpt lat="42.95644" lon="0.84707">
        <ele>1488</ele>
        <time>2018-04-02T10:24:57.000Z</time>
      </trkpt>
      <trkpt lat="42.95644" lon="0.84707">
        <ele>1488</ele>
        <time>2018-04-02T10:24:59.000Z</time>
      </trkpt>
      <trkpt lat="42.95644" lon="0.84707">
        <ele>1488</ele>
        <time>2018-04-02T10:25:01.000Z</time>
      </trkpt>
      <trkpt lat="42.95644" lon="0.84707">
        <ele>1488</ele>
        <time>2018-04-02T10:25:03.000Z</time>
      </trkpt>
      <trkpt lat="42.95645" lon="0.84707">
        <ele>1488</ele>
        <time>2018-04-02T10:25:05.000Z</time>
      </trkpt>
      <trkpt lat="42.95646" lon="0.84708">
        <ele>1488</ele>
        <time>2018-04-02T10:25:07.000Z</time>
      </trkpt>
      <trkpt lat="42.95646" lon="0.84709">
        <ele>1488</ele>
        <time>2018-04-02T10:25:09.000Z</time>
      </trkpt>
      <trkpt lat="42.95646" lon="0.8471">
        <ele>1488</ele>
        <time>2018-04-02T10:25:11.000Z</time>
      </trkpt>
      <trkpt lat="42.95646" lon="0.8471">
        <ele>1488</ele>
        <time>2018-04-02T10:25:13.000Z</time>
      </trkpt>
      <trkpt lat="42.95645" lon="0.8471">
        <ele>1488</ele>
        <time>2018-04-02T10:25:15.000Z</time>
      </trkpt>
      <trkpt lat="42.95645" lon="0.8471">
        <ele>1488</ele>
        <time>2018-04-02T10:25:17.000Z</time>
      </trkpt>
      <trkpt lat="42.95645" lon="0.8471">
        <ele>1488</ele>
        <time>2018-04-02T10:25:19.000Z</time>
      </trkpt>
      <trkpt lat="42.95644" lon="0.84709">
        <ele>1488</ele>
        <time>2018-04-02T10:25:21.000Z</time>
      </trkpt>
      <trkpt lat="42.95644" lon="0.84709">
        <ele>1487</ele>
        <time>2018-04-02T10:25:23.000Z</time>
      </trkpt>
      <trkpt lat="42.95643" lon="0.84709">
        <ele>1487</ele>
        <time>2018-04-02T10:25:25.000Z</time>
      </trkpt>
      <trkpt lat="42.95643" lon="0.84709">
        <ele>1487</ele>
        <time>2018-04-02T10:25:27.000Z</time>
      </trkpt>
      <trkpt lat="42.95644" lon="0.8471">
        <ele>1487</ele>
        <time>2018-04-02T10:25:29.000Z</time>
      </trkpt>
      <trkpt lat="42.95643" lon="0.84711">
        <ele>1487</ele>
        <time>2018-04-02T10:25:31.000Z</time>
      </trkpt>
      <trkpt lat="42.95644" lon="0.84711">
        <ele>1487</ele>
        <time>2018-04-02T10:25:33.000Z</time>
      </trkpt>
      <trkpt lat="42.95644" lon="0.84712">
        <ele>1487</ele>
        <time>2018-04-02T10:25:35.000Z</time>
      </trkpt>
      <trkpt lat="42.95645" lon="0.84712">
        <ele>1487</ele>
        <time>2018-04-02T10:25:37.000Z</time>
      </trkpt>
      <trkpt lat="42.95645" lon="0.84713">
        <ele>1487</ele>
        <time>2018-04-02T10:25:39.000Z</time>
      </trkpt>
      <trkpt lat="42.95645" lon="0.84713">
        <ele>1487</ele>
        <time>2018-04-02T10:25:41.000Z</time>
      </trkpt>
      <trkpt lat="42.95645" lon="0.84713">
        <ele>1487</ele>
        <time>2018-04-02T10:25:43.000Z</time>
      </trkpt>
      <trkpt lat="42.95645" lon="0.84713">
        <ele>1487</ele>
        <time>2018-04-02T10:25:45.000Z</time>
      </trkpt>
      <trkpt lat="42.95645" lon="0.84714">
        <ele>1487</ele>
        <time>2018-04-02T10:25:47.000Z</time>
      </trkpt>
      <trkpt lat="42.95646" lon="0.84714">
        <ele>1487</ele>
        <time>2018-04-02T10:25:49.000Z</time>
      </trkpt>
      <trkpt lat="42.95646" lon="0.84714">
        <ele>1487</ele>
        <time>2018-04-02T10:25:51.000Z</time>
      </trkpt>
      <trkpt lat="42.95646" lon="0.84715">
        <ele>1487</ele>
        <time>2018-04-02T10:25:53.000Z</time>
      </trkpt>
      <trkpt lat="42.95646" lon="0.84716">
        <ele>1487</ele>
        <time>2018-04-02T10:25:55.000Z</time>
      </trkpt>
      <trkpt lat="42.95646" lon="0.84716">
        <ele>1487</ele>
        <time>2018-04-02T10:25:57.000Z</time>
      </trkpt>
      <trkpt lat="42.95646" lon="0.84716">
        <ele>1487</ele>
        <time>2018-04-02T10:25:59.000Z</time>
      </trkpt>
      <trkpt lat="42.95645" lon="0.84716">
        <ele>1487</ele>
        <time>2018-04-02T10:26:01.000Z</time>
      </trkpt>
      <trkpt lat="42.95645" lon="0.84716">
        <ele>1487</ele>
        <time>2018-04-02T10:26:03.000Z</time>
      </trkpt>
      <trkpt lat="42.95645" lon="0.84716">
        <ele>1487</ele>
        <time>2018-04-02T10:26:05.000Z</time>
      </trkpt>
      <trkpt lat="42.95645" lon="0.84715">
        <ele>1487</ele>
        <time>2018-04-02T10:26:07.000Z</time>
      </trkpt>
      <trkpt lat="42.95646" lon="0.84715">
        <ele>1487</ele>
        <time>2018-04-02T10:26:09.000Z</time>
      </trkpt>
      <trkpt lat="42.95646" lon="0.84715">
        <ele>1487</ele>
        <time>2018-04-02T10:26:11.000Z</time>
      </trkpt>
      <trkpt lat="42.95647" lon="0.84715">
        <ele>1487</ele>
        <time>2018-04-02T10:26:13.000Z</time>
      </trkpt>
      <trkpt lat="42.95647" lon="0.84715">
        <ele>1488</ele>
        <time>2018-04-02T10:26:15.000Z</time>
      </trkpt>
      <trkpt lat="42.95648" lon="0.84716">
        <ele>1488</ele>
        <time>2018-04-02T10:26:17.000Z</time>
      </trkpt>
      <trkpt lat="42.95648" lon="0.84716">
        <ele>1488</ele>
        <time>2018-04-02T10:26:19.000Z</time>
      </trkpt>
      <trkpt lat="42.95647" lon="0.84716">
        <ele>1487</ele>
        <time>2018-04-02T10:26:21.000Z</time>
      </trkpt>
      <trkpt lat="42.95647" lon="0.84716">
        <ele>1487</ele>
        <time>2018-04-02T10:26:23.000Z</time>
      </trkpt>
      <trkpt lat="42.95647" lon="0.84717">
        <ele>1487</ele>
        <time>2018-04-02T10:26:25.000Z</time>
      </trkpt>
      <trkpt lat="42.95647" lon="0.84717">
        <ele>1487</ele>
        <time>2018-04-02T10:26:27.000Z</time>
      </trkpt>
      <trkpt lat="42.95647" lon="0.84717">
        <ele>1487</ele>
        <time>2018-04-02T10:26:29.000Z</time>
      </trkpt>
      <trkpt lat="42.95647" lon="0.84717">
        <ele>1487</ele>
        <time>2018-04-02T10:26:31.000Z</time>
      </trkpt>
      <trkpt lat="42.95645" lon="0.84717">
        <ele>1487</ele>
        <time>2018-04-02T10:26:33.000Z</time>
      </trkpt>
      <trkpt lat="42.95645" lon="0.84717">
        <ele>1487</ele>
        <time>2018-04-02T10:26:35.000Z</time>
      </trkpt>
      <trkpt lat="42.95646" lon="0.84717">
        <ele>1487</ele>
        <time>2018-04-02T10:26:37.000Z</time>
      </trkpt>
      <trkpt lat="42.95646" lon="0.84717">
        <ele>1487</ele>
        <time>2018-04-02T10:26:39.000Z</time>
      </trkpt>
      <trkpt lat="42.95647" lon="0.84718">
        <ele>1487</ele>
        <time>2018-04-02T10:26:41.000Z</time>
      </trkpt>
      <trkpt lat="42.95648" lon="0.84717">
        <ele>1487</ele>
        <time>2018-04-02T10:26:43.000Z</time>
      </trkpt>
      <trkpt lat="42.95648" lon="0.84718">
        <ele>1487</ele>
        <time>2018-04-02T10:26:45.000Z</time>
      </trkpt>
      <trkpt lat="42.95648" lon="0.84717">
        <ele>1488</ele>
        <time>2018-04-02T10:26:47.000Z</time>
      </trkpt>
      <trkpt lat="42.95649" lon="0.84716">
        <ele>1488</ele>
        <time>2018-04-02T10:26:49.000Z</time>
      </trkpt>
      <trkpt lat="42.95649" lon="0.84715">
        <ele>1488</ele>
        <time>2018-04-02T10:26:51.000Z</time>
      </trkpt>
      <trkpt lat="42.95648" lon="0.84714">
        <ele>1488</ele>
        <time>2018-04-02T10:26:53.000Z</time>
      </trkpt>
      <trkpt lat="42.95647" lon="0.84714">
        <ele>1488</ele>
        <time>2018-04-02T10:26:55.000Z</time>
      </trkpt>
      <trkpt lat="42.95646" lon="0.84713">
        <ele>1488</ele>
        <time>2018-04-02T10:26:57.000Z</time>
      </trkpt>
      <trkpt lat="42.95646" lon="0.84712">
        <ele>1488</ele>
        <time>2018-04-02T10:26:59.000Z</time>
      </trkpt>
      <trkpt lat="42.95646" lon="0.84712">
        <ele>1488</ele>
        <time>2018-04-02T10:27:01.000Z</time>
      </trkpt>
      <trkpt lat="42.95646" lon="0.84711">
        <ele>1488</ele>
        <time>2018-04-02T10:27:03.000Z</time>
      </trkpt>
      <trkpt lat="42.95645" lon="0.84711">
        <ele>1488</ele>
        <time>2018-04-02T10:27:05.000Z</time>
      </trkpt>
      <trkpt lat="42.95645" lon="0.8471">
        <ele>1488</ele>
        <time>2018-04-02T10:27:07.000Z</time>
      </trkpt>
      <trkpt lat="42.95645" lon="0.8471">
        <ele>1488</ele>
        <time>2018-04-02T10:27:09.000Z</time>
      </trkpt>
      <trkpt lat="42.95645" lon="0.8471">
        <ele>1488</ele>
        <time>2018-04-02T10:27:11.000Z</time>
      </trkpt>
      <trkpt lat="42.95645" lon="0.8471">
        <ele>1488</ele>
        <time>2018-04-02T10:27:13.000Z</time>
      </trkpt>
      <trkpt lat="42.95645" lon="0.84709">
        <ele>1488</ele>
        <time>2018-04-02T10:27:15.000Z</time>
      </trkpt>
      <trkpt lat="42.95645" lon="0.8471">
        <ele>1488</ele>
        <time>2018-04-02T10:27:17.000Z</time>
      </trkpt>
      <trkpt lat="42.95645" lon="0.8471">
        <ele>1488</ele>
        <time>2018-04-02T10:27:19.000Z</time>
      </trkpt>
      <trkpt lat="42.95645" lon="0.84711">
        <ele>1487</ele>
        <time>2018-04-02T10:27:21.000Z</time>
      </trkpt>
      <trkpt lat="42.95645" lon="0.84711">
        <ele>1487</ele>
        <time>2018-04-02T10:27:23.000Z</time>
      </trkpt>
      <trkpt lat="42.95645" lon="0.84711">
        <ele>1488</ele>
        <time>2018-04-02T10:27:25.000Z</time>
      </trkpt>
      <trkpt lat="42.95645" lon="0.84711">
        <ele>1488</ele>
        <time>2018-04-02T10:27:27.000Z</time>
      </trkpt>
      <trkpt lat="42.95645" lon="0.84711">
        <ele>1488</ele>
        <time>2018-04-02T10:27:29.000Z</time>
      </trkpt>
      <trkpt lat="42.95645" lon="0.84712">
        <ele>1487</ele>
        <time>2018-04-02T10:27:31.000Z</time>
      </trkpt>
      <trkpt lat="42.95644" lon="0.84712">
        <ele>1487</ele>
        <time>2018-04-02T10:27:33.000Z</time>
      </trkpt>
      <trkpt lat="42.95644" lon="0.84713">
        <ele>1487</ele>
        <time>2018-04-02T10:27:35.000Z</time>
      </trkpt>
      <trkpt lat="42.95644" lon="0.84714">
        <ele>1487</ele>
        <time>2018-04-02T10:27:37.000Z</time>
      </trkpt>
      <trkpt lat="42.95644" lon="0.84715">
        <ele>1487</ele>
        <time>2018-04-02T10:27:39.000Z</time>
      </trkpt>
      <trkpt lat="42.95644" lon="0.84716">
        <ele>1487</ele>
        <time>2018-04-02T10:27:41.000Z</time>
      </trkpt>
      <trkpt lat="42.95646" lon="0.84715">
        <ele>1487</ele>
        <time>2018-04-02T10:27:43.000Z</time>
      </trkpt>
      <trkpt lat="42.95647" lon="0.84713">
        <ele>1488</ele>
        <time>2018-04-02T10:27:45.000Z</time>
      </trkpt>
      <trkpt lat="42.95647" lon="0.84712">
        <ele>1488</ele>
        <time>2018-04-02T10:27:47.000Z</time>
      </trkpt>
      <trkpt lat="42.95647" lon="0.84711">
        <ele>1488</ele>
        <time>2018-04-02T10:27:49.000Z</time>
      </trkpt>
      <trkpt lat="42.95647" lon="0.84712">
        <ele>1488</ele>
        <time>2018-04-02T10:27:51.000Z</time>
      </trkpt>
      <trkpt lat="42.95646" lon="0.84712">
        <ele>1488</ele>
        <time>2018-04-02T10:27:53.000Z</time>
      </trkpt>
      <trkpt lat="42.95646" lon="0.84712">
        <ele>1488</ele>
        <time>2018-04-02T10:27:55.000Z</time>
      </trkpt>
      <trkpt lat="42.95646" lon="0.84713">
        <ele>1488</ele>
        <time>2018-04-02T10:27:57.000Z</time>
      </trkpt>
      <trkpt lat="42.95646" lon="0.84713">
        <ele>1488</ele>
        <time>2018-04-02T10:27:59.000Z</time>
      </trkpt>
      <trkpt lat="42.95647" lon="0.84714">
        <ele>1488</ele>
        <time>2018-04-02T10:28:01.000Z</time>
      </trkpt>
      <trkpt lat="42.95647" lon="0.84714">
        <ele>1488</ele>
        <time>2018-04-02T10:28:03.000Z</time>
      </trkpt>
      <trkpt lat="42.95647" lon="0.84714">
        <ele>1488</ele>
        <time>2018-04-02T10:28:05.000Z</time>
      </trkpt>
      <trkpt lat="42.95648" lon="0.84715">
        <ele>1488</ele>
        <time>2018-04-02T10:28:07.000Z</time>
      </trkpt>
      <trkpt lat="42.95647" lon="0.84715">
        <ele>1488</ele>
        <time>2018-04-02T10:28:09.000Z</time>
      </trkpt>
      <trkpt lat="42.95647" lon="0.84715">
        <ele>1488</ele>
        <time>2018-04-02T10:28:11.000Z</time>
      </trkpt>
      <trkpt lat="42.95647" lon="0.84714">
        <ele>1488</ele>
        <time>2018-04-02T10:28:13.000Z</time>
      </trkpt>
      <trkpt lat="42.95646" lon="0.84713">
        <ele>1488</ele>
        <time>2018-04-02T10:28:15.000Z</time>
      </trkpt>
      <trkpt lat="42.95646" lon="0.84713">
        <ele>1488</ele>
        <time>2018-04-02T10:28:17.000Z</time>
      </trkpt>
      <trkpt lat="42.95647" lon="0.84713">
        <ele>1488</ele>
        <time>2018-04-02T10:28:19.000Z</time>
      </trkpt>
      <trkpt lat="42.95647" lon="0.84713">
        <ele>1488</ele>
        <time>2018-04-02T10:28:21.000Z</time>
      </trkpt>
      <trkpt lat="42.95647" lon="0.84713">
        <ele>1488</ele>
        <time>2018-04-02T10:28:23.000Z</time>
      </trkpt>
      <trkpt lat="42.95647" lon="0.84713">
        <ele>1488</ele>
        <time>2018-04-02T10:28:25.000Z</time>
      </trkpt>
      <trkpt lat="42.95648" lon="0.84713">
        <ele>1488</ele>
        <time>2018-04-02T10:28:27.000Z</time>
      </trkpt>
      <trkpt lat="42.95648" lon="0.84713">
        <ele>1488</ele>
        <time>2018-04-02T10:28:29.000Z</time>
      </trkpt>
      <trkpt lat="42.95648" lon="0.84713">
        <ele>1488</ele>
        <time>2018-04-02T10:28:31.000Z</time>
      </trkpt>
      <trkpt lat="42.95648" lon="0.84713">
        <ele>1488</ele>
        <time>2018-04-02T10:28:33.000Z</time>
      </trkpt>
      <trkpt lat="42.95648" lon="0.84713">
        <ele>1488</ele>
        <time>2018-04-02T10:28:35.000Z</time>
      </trkpt>
      <trkpt lat="42.95648" lon="0.84713">
        <ele>1488</ele>
        <time>2018-04-02T10:28:37.000Z</time>
      </trkpt>
      <trkpt lat="42.95648" lon="0.84714">
        <ele>1488</ele>
        <time>2018-04-02T10:28:39.000Z</time>
      </trkpt>
      <trkpt lat="42.95647" lon="0.84715">
        <ele>1488</ele>
        <time>2018-04-02T10:28:41.000Z</time>
      </trkpt>
      <trkpt lat="42.95647" lon="0.84715">
        <ele>1487</ele>
        <time>2018-04-02T10:28:43.000Z</time>
      </trkpt>
      <trkpt lat="42.95646" lon="0.84716">
        <ele>1487</ele>
        <time>2018-04-02T10:28:45.000Z</time>
      </trkpt>
      <trkpt lat="42.95646" lon="0.84717">
        <ele>1487</ele>
        <time>2018-04-02T10:28:47.000Z</time>
      </trkpt>
      <trkpt lat="42.95646" lon="0.84718">
        <ele>1487</ele>
        <time>2018-04-02T10:28:49.000Z</time>
      </trkpt>
      <trkpt lat="42.95646" lon="0.84718">
        <ele>1487</ele>
        <time>2018-04-02T10:28:51.000Z</time>
      </trkpt>
      <trkpt lat="42.95646" lon="0.84718">
        <ele>1487</ele>
        <time>2018-04-02T10:28:53.000Z</time>
      </trkpt>
      <trkpt lat="42.95646" lon="0.84718">
        <ele>1487</ele>
        <time>2018-04-02T10:28:55.000Z</time>
      </trkpt>
      <trkpt lat="42.95646" lon="0.84718">
        <ele>1487</ele>
        <time>2018-04-02T10:28:57.000Z</time>
      </trkpt>
      <trkpt lat="42.95646" lon="0.84718">
        <ele>1487</ele>
        <time>2018-04-02T10:28:59.000Z</time>
      </trkpt>
      <trkpt lat="42.95646" lon="0.84719">
        <ele>1487</ele>
        <time>2018-04-02T10:29:01.000Z</time>
      </trkpt>
      <trkpt lat="42.95647" lon="0.84719">
        <ele>1487</ele>
        <time>2018-04-02T10:29:03.000Z</time>
      </trkpt>
      <trkpt lat="42.95648" lon="0.84719">
        <ele>1487</ele>
        <time>2018-04-02T10:29:05.000Z</time>
      </trkpt>
      <trkpt lat="42.95648" lon="0.84719">
        <ele>1487</ele>
        <time>2018-04-02T10:29:07.000Z</time>
      </trkpt>
      <trkpt lat="42.95648" lon="0.84719">
        <ele>1487</ele>
        <time>2018-04-02T10:29:09.000Z</time>
      </trkpt>
      <trkpt lat="42.95649" lon="0.84719">
        <ele>1488</ele>
        <time>2018-04-02T10:29:11.000Z</time>
      </trkpt>
      <trkpt lat="42.9565" lon="0.84719">
        <ele>1488</ele>
        <time>2018-04-02T10:29:13.000Z</time>
      </trkpt>
      <trkpt lat="42.9565" lon="0.84719">
        <ele>1488</ele>
        <time>2018-04-02T10:29:15.000Z</time>
      </trkpt>
      <trkpt lat="42.95651" lon="0.84719">
        <ele>1488</ele>
        <time>2018-04-02T10:29:17.000Z</time>
      </trkpt>
      <trkpt lat="42.95652" lon="0.8472">
        <ele>1488</ele>
        <time>2018-04-02T10:29:19.000Z</time>
      </trkpt>
      <trkpt lat="42.95652" lon="0.8472">
        <ele>1488</ele>
        <time>2018-04-02T10:29:21.000Z</time>
      </trkpt>
      <trkpt lat="42.95652" lon="0.8472">
        <ele>1488</ele>
        <time>2018-04-02T10:29:23.000Z</time>
      </trkpt>
      <trkpt lat="42.95652" lon="0.8472">
        <ele>1488</ele>
        <time>2018-04-02T10:29:25.000Z</time>
      </trkpt>
      <trkpt lat="42.95651" lon="0.8472">
        <ele>1488</ele>
        <time>2018-04-02T10:29:27.000Z</time>
      </trkpt>
      <trkpt lat="42.95651" lon="0.84719">
        <ele>1488</ele>
        <time>2018-04-02T10:29:29.000Z</time>
      </trkpt>
      <trkpt lat="42.95651" lon="0.84719">
        <ele>1488</ele>
        <time>2018-04-02T10:29:31.000Z</time>
      </trkpt>
      <trkpt lat="42.9565" lon="0.84719">
        <ele>1488</ele>
        <time>2018-04-02T10:29:33.000Z</time>
      </trkpt>
      <trkpt lat="42.95651" lon="0.84718">
        <ele>1488</ele>
        <time>2018-04-02T10:29:35.000Z</time>
      </trkpt>
      <trkpt lat="42.95651" lon="0.84718">
        <ele>1488</ele>
        <time>2018-04-02T10:29:37.000Z</time>
      </trkpt>
      <trkpt lat="42.95651" lon="0.84717">
        <ele>1488</ele>
        <time>2018-04-02T10:29:39.000Z</time>
      </trkpt>
      <trkpt lat="42.95652" lon="0.84717">
        <ele>1489</ele>
        <time>2018-04-02T10:29:41.000Z</time>
      </trkpt>
      <trkpt lat="42.95652" lon="0.84716">
        <ele>1489</ele>
        <time>2018-04-02T10:29:43.000Z</time>
      </trkpt>
      <trkpt lat="42.95652" lon="0.84716">
        <ele>1489</ele>
        <time>2018-04-02T10:29:45.000Z</time>
      </trkpt>
      <trkpt lat="42.95652" lon="0.84716">
        <ele>1489</ele>
        <time>2018-04-02T10:29:47.000Z</time>
      </trkpt>
      <trkpt lat="42.95652" lon="0.84716">
        <ele>1489</ele>
        <time>2018-04-02T10:29:49.000Z</time>
      </trkpt>
      <trkpt lat="42.95651" lon="0.84716">
        <ele>1489</ele>
        <time>2018-04-02T10:29:51.000Z</time>
      </trkpt>
      <trkpt lat="42.95652" lon="0.84716">
        <ele>1489</ele>
        <time>2018-04-02T10:29:53.000Z</time>
      </trkpt>
      <trkpt lat="42.95652" lon="0.84715">
        <ele>1489</ele>
        <time>2018-04-02T10:29:55.000Z</time>
      </trkpt>
      <trkpt lat="42.95652" lon="0.84716">
        <ele>1489</ele>
        <time>2018-04-02T10:29:57.000Z</time>
      </trkpt>
      <trkpt lat="42.95652" lon="0.84716">
        <ele>1489</ele>
        <time>2018-04-02T10:29:59.000Z</time>
      </trkpt>
      <trkpt lat="42.95652" lon="0.84716">
        <ele>1489</ele>
        <time>2018-04-02T10:30:01.000Z</time>
      </trkpt>
      <trkpt lat="42.95652" lon="0.84717">
        <ele>1489</ele>
        <time>2018-04-02T10:30:03.000Z</time>
      </trkpt>
      <trkpt lat="42.95652" lon="0.84717">
        <ele>1489</ele>
        <time>2018-04-02T10:30:05.000Z</time>
      </trkpt>
      <trkpt lat="42.95652" lon="0.84718">
        <ele>1488</ele>
        <time>2018-04-02T10:30:07.000Z</time>
      </trkpt>
      <trkpt lat="42.95652" lon="0.84719">
        <ele>1488</ele>
        <time>2018-04-02T10:30:09.000Z</time>
      </trkpt>
      <trkpt lat="42.95652" lon="0.8472">
        <ele>1488</ele>
        <time>2018-04-02T10:30:11.000Z</time>
      </trkpt>
      <trkpt lat="42.95651" lon="0.84721">
        <ele>1488</ele>
        <time>2018-04-02T10:30:13.000Z</time>
      </trkpt>
      <trkpt lat="42.95651" lon="0.84721">
        <ele>1488</ele>
        <time>2018-04-02T10:30:15.000Z</time>
      </trkpt>
      <trkpt lat="42.95651" lon="0.84722">
        <ele>1488</ele>
        <time>2018-04-02T10:30:17.000Z</time>
      </trkpt>
      <trkpt lat="42.95651" lon="0.84722">
        <ele>1488</ele>
        <time>2018-04-02T10:30:19.000Z</time>
      </trkpt>
      <trkpt lat="42.95651" lon="0.84722">
        <ele>1488</ele>
        <time>2018-04-02T10:30:21.000Z</time>
      </trkpt>
      <trkpt lat="42.9565" lon="0.84722">
        <ele>1487</ele>
        <time>2018-04-02T10:30:23.000Z</time>
      </trkpt>
      <trkpt lat="42.9565" lon="0.84723">
        <ele>1487</ele>
        <time>2018-04-02T10:30:25.000Z</time>
      </trkpt>
      <trkpt lat="42.95651" lon="0.84724">
        <ele>1487</ele>
        <time>2018-04-02T10:30:27.000Z</time>
      </trkpt>
      <trkpt lat="42.95651" lon="0.84724">
        <ele>1487</ele>
        <time>2018-04-02T10:30:29.000Z</time>
      </trkpt>
      <trkpt lat="42.95652" lon="0.84724">
        <ele>1488</ele>
        <time>2018-04-02T10:30:31.000Z</time>
      </trkpt>
      <trkpt lat="42.95652" lon="0.84723">
        <ele>1488</ele>
        <time>2018-04-02T10:30:33.000Z</time>
      </trkpt>
      <trkpt lat="42.95651" lon="0.84724">
        <ele>1487</ele>
        <time>2018-04-02T10:30:35.000Z</time>
      </trkpt>
      <trkpt lat="42.95651" lon="0.84724">
        <ele>1487</ele>
        <time>2018-04-02T10:30:37.000Z</time>
      </trkpt>
      <trkpt lat="42.95651" lon="0.84724">
        <ele>1487</ele>
        <time>2018-04-02T10:30:39.000Z</time>
      </trkpt>
      <trkpt lat="42.95651" lon="0.84724">
        <ele>1487</ele>
        <time>2018-04-02T10:30:41.000Z</time>
      </trkpt>
      <trkpt lat="42.95651" lon="0.84724">
        <ele>1487</ele>
        <time>2018-04-02T10:30:43.000Z</time>
      </trkpt>
      <trkpt lat="42.95651" lon="0.84724">
        <ele>1487</ele>
        <time>2018-04-02T10:30:45.000Z</time>
      </trkpt>
      <trkpt lat="42.95651" lon="0.84725">
        <ele>1487</ele>
        <time>2018-04-02T10:30:47.000Z</time>
      </trkpt>
      <trkpt lat="42.95651" lon="0.84726">
        <ele>1487</ele>
        <time>2018-04-02T10:30:49.000Z</time>
      </trkpt>
      <trkpt lat="42.95651" lon="0.84726">
        <ele>1487</ele>
        <time>2018-04-02T10:30:51.000Z</time>
      </trkpt>
      <trkpt lat="42.9565" lon="0.84727">
        <ele>1487</ele>
        <time>2018-04-02T10:30:53.000Z</time>
      </trkpt>
      <trkpt lat="42.9565" lon="0.84727">
        <ele>1487</ele>
        <time>2018-04-02T10:30:55.000Z</time>
      </trkpt>
      <trkpt lat="42.9565" lon="0.84727">
        <ele>1487</ele>
        <time>2018-04-02T10:30:57.000Z</time>
      </trkpt>
      <trkpt lat="42.9565" lon="0.84727">
        <ele>1487</ele>
        <time>2018-04-02T10:30:59.000Z</time>
      </trkpt>
      <trkpt lat="42.9565" lon="0.84728">
        <ele>1487</ele>
        <time>2018-04-02T10:31:01.000Z</time>
      </trkpt>
      <trkpt lat="42.9565" lon="0.84729">
        <ele>1487</ele>
        <time>2018-04-02T10:31:03.000Z</time>
      </trkpt>
      <trkpt lat="42.95651" lon="0.84729">
        <ele>1487</ele>
        <time>2018-04-02T10:31:05.000Z</time>
      </trkpt>
      <trkpt lat="42.95651" lon="0.84729">
        <ele>1487</ele>
        <time>2018-04-02T10:31:07.000Z</time>
      </trkpt>
      <trkpt lat="42.95651" lon="0.84729">
        <ele>1487</ele>
        <time>2018-04-02T10:31:09.000Z</time>
      </trkpt>
      <trkpt lat="42.9565" lon="0.84731">
        <ele>1487</ele>
        <time>2018-04-02T10:31:11.000Z</time>
      </trkpt>
      <trkpt lat="42.95651" lon="0.84731">
        <ele>1487</ele>
        <time>2018-04-02T10:31:13.000Z</time>
      </trkpt>
      <trkpt lat="42.95651" lon="0.84731">
        <ele>1487</ele>
        <time>2018-04-02T10:31:15.000Z</time>
      </trkpt>
      <trkpt lat="42.95651" lon="0.8473">
        <ele>1487</ele>
        <time>2018-04-02T10:31:17.000Z</time>
      </trkpt>
      <trkpt lat="42.95651" lon="0.8473">
        <ele>1487</ele>
        <time>2018-04-02T10:31:19.000Z</time>
      </trkpt>
      <trkpt lat="42.95651" lon="0.84729">
        <ele>1487</ele>
        <time>2018-04-02T10:31:21.000Z</time>
      </trkpt>
      <trkpt lat="42.9565" lon="0.84729">
        <ele>1487</ele>
        <time>2018-04-02T10:31:23.000Z</time>
      </trkpt>
      <trkpt lat="42.9565" lon="0.84729">
        <ele>1487</ele>
        <time>2018-04-02T10:31:25.000Z</time>
      </trkpt>
      <trkpt lat="42.95649" lon="0.84729">
        <ele>1487</ele>
        <time>2018-04-02T10:31:27.000Z</time>
      </trkpt>
      <trkpt lat="42.9565" lon="0.84729">
        <ele>1487</ele>
        <time>2018-04-02T10:31:29.000Z</time>
      </trkpt>
      <trkpt lat="42.9565" lon="0.8473">
        <ele>1487</ele>
        <time>2018-04-02T10:31:31.000Z</time>
      </trkpt>
      <trkpt lat="42.9565" lon="0.8473">
        <ele>1487</ele>
        <time>2018-04-02T10:31:33.000Z</time>
      </trkpt>
      <trkpt lat="42.95652" lon="0.8473">
        <ele>1487</ele>
        <time>2018-04-02T10:31:35.000Z</time>
      </trkpt>
      <trkpt lat="42.95652" lon="0.8473">
        <ele>1487</ele>
        <time>2018-04-02T10:31:37.000Z</time>
      </trkpt>
      <trkpt lat="42.95653" lon="0.84732">
        <ele>1487</ele>
        <time>2018-04-02T10:31:39.000Z</time>
      </trkpt>
      <trkpt lat="42.95653" lon="0.84731">
        <ele>1487</ele>
        <time>2018-04-02T10:31:41.000Z</time>
      </trkpt>
      <trkpt lat="42.95654" lon="0.84732">
        <ele>1488</ele>
        <time>2018-04-02T10:31:43.000Z</time>
      </trkpt>
      <trkpt lat="42.95654" lon="0.84733">
        <ele>1488</ele>
        <time>2018-04-02T10:31:45.000Z</time>
      </trkpt>
      <trkpt lat="42.95654" lon="0.84733">
        <ele>1488</ele>
        <time>2018-04-02T10:31:47.000Z</time>
      </trkpt>
      <trkpt lat="42.95653" lon="0.84733">
        <ele>1487</ele>
        <time>2018-04-02T10:31:49.000Z</time>
      </trkpt>
      <trkpt lat="42.95652" lon="0.84734">
        <ele>1487</ele>
        <time>2018-04-02T10:31:51.000Z</time>
      </trkpt>
      <trkpt lat="42.95652" lon="0.84734">
        <ele>1487</ele>
        <time>2018-04-02T10:31:53.000Z</time>
      </trkpt>
      <trkpt lat="42.95651" lon="0.84735">
        <ele>1487</ele>
        <time>2018-04-02T10:31:55.000Z</time>
      </trkpt>
      <trkpt lat="42.95651" lon="0.84736">
        <ele>1487</ele>
        <time>2018-04-02T10:31:57.000Z</time>
      </trkpt>
      <trkpt lat="42.95651" lon="0.84736">
        <ele>1487</ele>
        <time>2018-04-02T10:31:59.000Z</time>
      </trkpt>
      <trkpt lat="42.95652" lon="0.84736">
        <ele>1487</ele>
        <time>2018-04-02T10:32:01.000Z</time>
      </trkpt>
      <trkpt lat="42.95652" lon="0.84737">
        <ele>1487</ele>
        <time>2018-04-02T10:32:03.000Z</time>
      </trkpt>
      <trkpt lat="42.95652" lon="0.84737">
        <ele>1487</ele>
        <time>2018-04-02T10:32:05.000Z</time>
      </trkpt>
      <trkpt lat="42.95653" lon="0.84736">
        <ele>1487</ele>
        <time>2018-04-02T10:32:07.000Z</time>
      </trkpt>
      <trkpt lat="42.95653" lon="0.84736">
        <ele>1487</ele>
        <time>2018-04-02T10:32:09.000Z</time>
      </trkpt>
      <trkpt lat="42.95653" lon="0.84736">
        <ele>1487</ele>
        <time>2018-04-02T10:32:11.000Z</time>
      </trkpt>
      <trkpt lat="42.95652" lon="0.84736">
        <ele>1487</ele>
        <time>2018-04-02T10:32:13.000Z</time>
      </trkpt>
      <trkpt lat="42.95652" lon="0.84736">
        <ele>1487</ele>
        <time>2018-04-02T10:32:15.000Z</time>
      </trkpt>
      <trkpt lat="42.95652" lon="0.84736">
        <ele>1487</ele>
        <time>2018-04-02T10:32:17.000Z</time>
      </trkpt>
      <trkpt lat="42.95652" lon="0.84736">
        <ele>1487</ele>
        <time>2018-04-02T10:32:19.000Z</time>
      </trkpt>
      <trkpt lat="42.95653" lon="0.84735">
        <ele>1487</ele>
        <time>2018-04-02T10:32:21.000Z</time>
      </trkpt>
      <trkpt lat="42.95654" lon="0.84735">
        <ele>1487</ele>
        <time>2018-04-02T10:32:23.000Z</time>
      </trkpt>
      <trkpt lat="42.95654" lon="0.84735">
        <ele>1488</ele>
        <time>2018-04-02T10:32:25.000Z</time>
      </trkpt>
      <trkpt lat="42.95654" lon="0.84736">
        <ele>1488</ele>
        <time>2018-04-02T10:32:27.000Z</time>
      </trkpt>
      <trkpt lat="42.95654" lon="0.84735">
        <ele>1488</ele>
        <time>2018-04-02T10:32:29.000Z</time>
      </trkpt>
      <trkpt lat="42.95655" lon="0.84734">
        <ele>1488</ele>
        <time>2018-04-02T10:32:31.000Z</time>
      </trkpt>
      <trkpt lat="42.95655" lon="0.84733">
        <ele>1488</ele>
        <time>2018-04-02T10:32:33.000Z</time>
      </trkpt>
      <trkpt lat="42.95655" lon="0.84733">
        <ele>1488</ele>
        <time>2018-04-02T10:32:35.000Z</time>
      </trkpt>
      <trkpt lat="42.95654" lon="0.84734">
        <ele>1488</ele>
        <time>2018-04-02T10:32:37.000Z</time>
      </trkpt>
      <trkpt lat="42.95654" lon="0.84734">
        <ele>1488</ele>
        <time>2018-04-02T10:32:39.000Z</time>
      </trkpt>
      <trkpt lat="42.95653" lon="0.84734">
        <ele>1487</ele>
        <time>2018-04-02T10:32:41.000Z</time>
      </trkpt>
      <trkpt lat="42.95652" lon="0.84733">
        <ele>1487</ele>
        <time>2018-04-02T10:32:43.000Z</time>
      </trkpt>
      <trkpt lat="42.95653" lon="0.84734">
        <ele>1487</ele>
        <time>2018-04-02T10:32:45.000Z</time>
      </trkpt>
      <trkpt lat="42.95653" lon="0.84733">
        <ele>1487</ele>
        <time>2018-04-02T10:32:47.000Z</time>
      </trkpt>
      <trkpt lat="42.95653" lon="0.84733">
        <ele>1487</ele>
        <time>2018-04-02T10:32:49.000Z</time>
      </trkpt>
      <trkpt lat="42.95653" lon="0.84732">
        <ele>1487</ele>
        <time>2018-04-02T10:32:51.000Z</time>
      </trkpt>
      <trkpt lat="42.95653" lon="0.84732">
        <ele>1487</ele>
        <time>2018-04-02T10:32:53.000Z</time>
      </trkpt>
      <trkpt lat="42.95653" lon="0.84733">
        <ele>1487</ele>
        <time>2018-04-02T10:32:55.000Z</time>
      </trkpt>
      <trkpt lat="42.95653" lon="0.84733">
        <ele>1487</ele>
        <time>2018-04-02T10:32:57.000Z</time>
      </trkpt>
      <trkpt lat="42.95654" lon="0.84732">
        <ele>1488</ele>
        <time>2018-04-02T10:32:59.000Z</time>
      </trkpt>
      <trkpt lat="42.95654" lon="0.84732">
        <ele>1488</ele>
        <time>2018-04-02T10:33:01.000Z</time>
      </trkpt>
      <trkpt lat="42.95653" lon="0.84732">
        <ele>1487</ele>
        <time>2018-04-02T10:33:03.000Z</time>
      </trkpt>
      <trkpt lat="42.95653" lon="0.84731">
        <ele>1487</ele>
        <time>2018-04-02T10:33:05.000Z</time>
      </trkpt>
      <trkpt lat="42.95652" lon="0.84732">
        <ele>1487</ele>
        <time>2018-04-02T10:33:07.000Z</time>
      </trkpt>
      <trkpt lat="42.95653" lon="0.84731">
        <ele>1487</ele>
        <time>2018-04-02T10:33:09.000Z</time>
      </trkpt>
      <trkpt lat="42.95654" lon="0.8473">
        <ele>1488</ele>
        <time>2018-04-02T10:33:11.000Z</time>
      </trkpt>
      <trkpt lat="42.95654" lon="0.84731">
        <ele>1488</ele>
        <time>2018-04-02T10:33:13.000Z</time>
      </trkpt>
      <trkpt lat="42.95655" lon="0.8473">
        <ele>1488</ele>
        <time>2018-04-02T10:33:15.000Z</time>
      </trkpt>
      <trkpt lat="42.95655" lon="0.8473">
        <ele>1488</ele>
        <time>2018-04-02T10:33:17.000Z</time>
      </trkpt>
      <trkpt lat="42.95656" lon="0.8473">
        <ele>1488</ele>
        <time>2018-04-02T10:33:19.000Z</time>
      </trkpt>
      <trkpt lat="42.95656" lon="0.8473">
        <ele>1488</ele>
        <time>2018-04-02T10:33:21.000Z</time>
      </trkpt>
      <trkpt lat="42.95657" lon="0.84731">
        <ele>1489</ele>
        <time>2018-04-02T10:33:23.000Z</time>
      </trkpt>
      <trkpt lat="42.95657" lon="0.84731">
        <ele>1489</ele>
        <time>2018-04-02T10:33:25.000Z</time>
      </trkpt>
      <trkpt lat="42.95657" lon="0.84731">
        <ele>1489</ele>
        <time>2018-04-02T10:33:27.000Z</time>
      </trkpt>
      <trkpt lat="42.95657" lon="0.8473">
        <ele>1489</ele>
        <time>2018-04-02T10:33:29.000Z</time>
      </trkpt>
      <trkpt lat="42.95657" lon="0.8473">
        <ele>1489</ele>
        <time>2018-04-02T10:33:31.000Z</time>
      </trkpt>
      <trkpt lat="42.95658" lon="0.8473">
        <ele>1489</ele>
        <time>2018-04-02T10:33:33.000Z</time>
      </trkpt>
      <trkpt lat="42.95658" lon="0.84731">
        <ele>1489</ele>
        <time>2018-04-02T10:33:35.000Z</time>
      </trkpt>
      <trkpt lat="42.95658" lon="0.84732">
        <ele>1489</ele>
        <time>2018-04-02T10:33:37.000Z</time>
      </trkpt>
      <trkpt lat="42.95659" lon="0.84733">
        <ele>1489</ele>
        <time>2018-04-02T10:33:39.000Z</time>
      </trkpt>
      <trkpt lat="42.95659" lon="0.84734">
        <ele>1489</ele>
        <time>2018-04-02T10:33:41.000Z</time>
      </trkpt>
      <trkpt lat="42.95659" lon="0.84735">
        <ele>1489</ele>
        <time>2018-04-02T10:33:43.000Z</time>
      </trkpt>
      <trkpt lat="42.9566" lon="0.84737">
        <ele>1489</ele>
        <time>2018-04-02T10:33:45.000Z</time>
      </trkpt>
      <trkpt lat="42.9566" lon="0.84738">
        <ele>1489</ele>
        <time>2018-04-02T10:33:47.000Z</time>
      </trkpt>
      <trkpt lat="42.95661" lon="0.8474">
        <ele>1489</ele>
        <time>2018-04-02T10:33:49.000Z</time>
      </trkpt>
      <trkpt lat="42.95661" lon="0.84742">
        <ele>1489</ele>
        <time>2018-04-02T10:33:51.000Z</time>
      </trkpt>
      <trkpt lat="42.95661" lon="0.84744">
        <ele>1489</ele>
        <time>2018-04-02T10:33:53.000Z</time>
      </trkpt>
      <trkpt lat="42.95661" lon="0.84746">
        <ele>1489</ele>
        <time>2018-04-02T10:33:55.000Z</time>
      </trkpt>
      <trkpt lat="42.95662" lon="0.84748">
        <ele>1489</ele>
        <time>2018-04-02T10:33:57.000Z</time>
      </trkpt>
      <trkpt lat="42.95662" lon="0.84749">
        <ele>1489</ele>
        <time>2018-04-02T10:33:59.000Z</time>
      </trkpt>
      <trkpt lat="42.95663" lon="0.8475">
        <ele>1489</ele>
        <time>2018-04-02T10:34:01.000Z</time>
      </trkpt>
      <trkpt lat="42.95662" lon="0.84752">
        <ele>1489</ele>
        <time>2018-04-02T10:34:03.000Z</time>
      </trkpt>
      <trkpt lat="42.95663" lon="0.84755">
        <ele>1489</ele>
        <time>2018-04-02T10:34:05.000Z</time>
      </trkpt>
      <trkpt lat="42.95663" lon="0.84758">
        <ele>1488</ele>
        <time>2018-04-02T10:34:07.000Z</time>
      </trkpt>
      <trkpt lat="42.95664" lon="0.8476">
        <ele>1488</ele>
        <time>2018-04-02T10:34:09.000Z</time>
      </trkpt>
      <trkpt lat="42.95663" lon="0.84762">
        <ele>1488</ele>
        <time>2018-04-02T10:34:11.000Z</time>
      </trkpt>
      <trkpt lat="42.95664" lon="0.84765">
        <ele>1488</ele>
        <time>2018-04-02T10:34:13.000Z</time>
      </trkpt>
      <trkpt lat="42.95666" lon="0.84768">
        <ele>1489</ele>
        <time>2018-04-02T10:34:15.000Z</time>
      </trkpt>
      <trkpt lat="42.95667" lon="0.84769">
        <ele>1489</ele>
        <time>2018-04-02T10:34:17.000Z</time>
      </trkpt>
      <trkpt lat="42.95667" lon="0.84771">
        <ele>1489</ele>
        <time>2018-04-02T10:34:19.000Z</time>
      </trkpt>
      <trkpt lat="42.95667" lon="0.84774">
        <ele>1488</ele>
        <time>2018-04-02T10:34:21.000Z</time>
      </trkpt>
      <trkpt lat="42.95667" lon="0.84776">
        <ele>1488</ele>
        <time>2018-04-02T10:34:23.000Z</time>
      </trkpt>
      <trkpt lat="42.95668" lon="0.84778">
        <ele>1488</ele>
        <time>2018-04-02T10:34:25.000Z</time>
      </trkpt>
      <trkpt lat="42.95668" lon="0.84781">
        <ele>1488</ele>
        <time>2018-04-02T10:34:27.000Z</time>
      </trkpt>
      <trkpt lat="42.9567" lon="0.84784">
        <ele>1488</ele>
        <time>2018-04-02T10:34:29.000Z</time>
      </trkpt>
      <trkpt lat="42.95669" lon="0.84787">
        <ele>1488</ele>
        <time>2018-04-02T10:34:31.000Z</time>
      </trkpt>
      <trkpt lat="42.9567" lon="0.84789">
        <ele>1488</ele>
        <time>2018-04-02T10:34:33.000Z</time>
      </trkpt>
      <trkpt lat="42.9567" lon="0.84792">
        <ele>1488</ele>
        <time>2018-04-02T10:34:35.000Z</time>
      </trkpt>
      <trkpt lat="42.9567" lon="0.84795">
        <ele>1488</ele>
        <time>2018-04-02T10:34:37.000Z</time>
      </trkpt>
      <trkpt lat="42.95671" lon="0.84797">
        <ele>1488</ele>
        <time>2018-04-02T10:34:39.000Z</time>
      </trkpt>
      <trkpt lat="42.95672" lon="0.84799">
        <ele>1488</ele>
        <time>2018-04-02T10:34:41.000Z</time>
      </trkpt>
      <trkpt lat="42.95672" lon="0.84801">
        <ele>1488</ele>
        <time>2018-04-02T10:34:43.000Z</time>
      </trkpt>
      <trkpt lat="42.95672" lon="0.84803">
        <ele>1487</ele>
        <time>2018-04-02T10:34:45.000Z</time>
      </trkpt>
      <trkpt lat="42.95671" lon="0.84806">
        <ele>1487</ele>
        <time>2018-04-02T10:34:47.000Z</time>
      </trkpt>
      <trkpt lat="42.9567" lon="0.84809">
        <ele>1486</ele>
        <time>2018-04-02T10:34:49.000Z</time>
      </trkpt>
      <trkpt lat="42.95669" lon="0.84811">
        <ele>1486</ele>
        <time>2018-04-02T10:34:51.000Z</time>
      </trkpt>
      <trkpt lat="42.95669" lon="0.84813">
        <ele>1486</ele>
        <time>2018-04-02T10:34:53.000Z</time>
      </trkpt>
      <trkpt lat="42.95668" lon="0.84814">
        <ele>1485</ele>
        <time>2018-04-02T10:34:55.000Z</time>
      </trkpt>
      <trkpt lat="42.95668" lon="0.84815">
        <ele>1485</ele>
        <time>2018-04-02T10:34:57.000Z</time>
      </trkpt>
      <trkpt lat="42.95667" lon="0.84816">
        <ele>1485</ele>
        <time>2018-04-02T10:34:59.000Z</time>
      </trkpt>
      <trkpt lat="42.95667" lon="0.84817">
        <ele>1485</ele>
        <time>2018-04-02T10:35:01.000Z</time>
      </trkpt>
      <trkpt lat="42.95667" lon="0.84819">
        <ele>1484</ele>
        <time>2018-04-02T10:35:03.000Z</time>
      </trkpt>
      <trkpt lat="42.95666" lon="0.84821">
        <ele>1484</ele>
        <time>2018-04-02T10:35:05.000Z</time>
      </trkpt>
      <trkpt lat="42.95666" lon="0.84822">
        <ele>1484</ele>
        <time>2018-04-02T10:35:07.000Z</time>
      </trkpt>
      <trkpt lat="42.95665" lon="0.84824">
        <ele>1483</ele>
        <time>2018-04-02T10:35:09.000Z</time>
      </trkpt>
      <trkpt lat="42.95665" lon="0.84825">
        <ele>1483</ele>
        <time>2018-04-02T10:35:11.000Z</time>
      </trkpt>
      <trkpt lat="42.95664" lon="0.84826">
        <ele>1483</ele>
        <time>2018-04-02T10:35:13.000Z</time>
      </trkpt>
      <trkpt lat="42.95664" lon="0.84826">
        <ele>1483</ele>
        <time>2018-04-02T10:35:15.000Z</time>
      </trkpt>
      <trkpt lat="42.95663" lon="0.84826">
        <ele>1482</ele>
        <time>2018-04-02T10:35:17.000Z</time>
      </trkpt>
      <trkpt lat="42.95663" lon="0.84826">
        <ele>1482</ele>
        <time>2018-04-02T10:35:19.000Z</time>
      </trkpt>
      <trkpt lat="42.95663" lon="0.84827">
        <ele>1482</ele>
        <time>2018-04-02T10:35:21.000Z</time>
      </trkpt>
      <trkpt lat="42.95662" lon="0.84827">
        <ele>1482</ele>
        <time>2018-04-02T10:35:23.000Z</time>
      </trkpt>
      <trkpt lat="42.95662" lon="0.84829">
        <ele>1482</ele>
        <time>2018-04-02T10:35:25.000Z</time>
      </trkpt>
      <trkpt lat="42.95662" lon="0.8483">
        <ele>1482</ele>
        <time>2018-04-02T10:35:27.000Z</time>
      </trkpt>
      <trkpt lat="42.95662" lon="0.84832">
        <ele>1481</ele>
        <time>2018-04-02T10:35:29.000Z</time>
      </trkpt>
      <trkpt lat="42.95662" lon="0.84834">
        <ele>1481</ele>
        <time>2018-04-02T10:35:31.000Z</time>
      </trkpt>
      <trkpt lat="42.95662" lon="0.84835">
        <ele>1481</ele>
        <time>2018-04-02T10:35:33.000Z</time>
      </trkpt>
      <trkpt lat="42.95661" lon="0.84837">
        <ele>1480</ele>
        <time>2018-04-02T10:35:35.000Z</time>
      </trkpt>
      <trkpt lat="42.95661" lon="0.84838">
        <ele>1480</ele>
        <time>2018-04-02T10:35:37.000Z</time>
      </trkpt>
      <trkpt lat="42.9566" lon="0.8484">
        <ele>1480</ele>
        <time>2018-04-02T10:35:39.000Z</time>
      </trkpt>
      <trkpt lat="42.95659" lon="0.84841">
        <ele>1479</ele>
        <time>2018-04-02T10:35:41.000Z</time>
      </trkpt>
      <trkpt lat="42.95658" lon="0.84842">
        <ele>1479</ele>
        <time>2018-04-02T10:35:43.000Z</time>
      </trkpt>
      <trkpt lat="42.95658" lon="0.84843">
        <ele>1479</ele>
        <time>2018-04-02T10:35:45.000Z</time>
      </trkpt>
      <trkpt lat="42.95657" lon="0.84845">
        <ele>1478</ele>
        <time>2018-04-02T10:35:47.000Z</time>
      </trkpt>
      <trkpt lat="42.95657" lon="0.84847">
        <ele>1478</ele>
        <time>2018-04-02T10:35:49.000Z</time>
      </trkpt>
      <trkpt lat="42.95658" lon="0.8485">
        <ele>1478</ele>
        <time>2018-04-02T10:35:51.000Z</time>
      </trkpt>
      <trkpt lat="42.95658" lon="0.84852">
        <ele>1477</ele>
        <time>2018-04-02T10:35:53.000Z</time>
      </trkpt>
      <trkpt lat="42.95658" lon="0.84855">
        <ele>1477</ele>
        <time>2018-04-02T10:35:55.000Z</time>
      </trkpt>
      <trkpt lat="42.95658" lon="0.84857">
        <ele>1477</ele>
        <time>2018-04-02T10:35:57.000Z</time>
      </trkpt>
      <trkpt lat="42.95659" lon="0.84859">
        <ele>1477</ele>
        <time>2018-04-02T10:35:59.000Z</time>
      </trkpt>
      <trkpt lat="42.95659" lon="0.8486">
        <ele>1476</ele>
        <time>2018-04-02T10:36:01.000Z</time>
      </trkpt>
      <trkpt lat="42.95658" lon="0.84862">
        <ele>1476</ele>
        <time>2018-04-02T10:36:03.000Z</time>
      </trkpt>
      <trkpt lat="42.95657" lon="0.84862">
        <ele>1476</ele>
        <time>2018-04-02T10:36:05.000Z</time>
      </trkpt>
      <trkpt lat="42.95656" lon="0.84862">
        <ele>1475</ele>
        <time>2018-04-02T10:36:07.000Z</time>
      </trkpt>
      <trkpt lat="42.95655" lon="0.84862">
        <ele>1475</ele>
        <time>2018-04-02T10:36:09.000Z</time>
      </trkpt>
      <trkpt lat="42.95655" lon="0.84862">
        <ele>1475</ele>
        <time>2018-04-02T10:36:11.000Z</time>
      </trkpt>
      <trkpt lat="42.95654" lon="0.84862">
        <ele>1475</ele>
        <time>2018-04-02T10:36:13.000Z</time>
      </trkpt>
      <trkpt lat="42.95653" lon="0.84863">
        <ele>1475</ele>
        <time>2018-04-02T10:36:15.000Z</time>
      </trkpt>
      <trkpt lat="42.95653" lon="0.84863">
        <ele>1475</ele>
        <time>2018-04-02T10:36:17.000Z</time>
      </trkpt>
      <trkpt lat="42.95653" lon="0.84863">
        <ele>1475</ele>
        <time>2018-04-02T10:36:19.000Z</time>
      </trkpt>
      <trkpt lat="42.95653" lon="0.84864">
        <ele>1475</ele>
        <time>2018-04-02T10:36:21.000Z</time>
      </trkpt>
      <trkpt lat="42.95653" lon="0.84865">
        <ele>1474</ele>
        <time>2018-04-02T10:36:23.000Z</time>
      </trkpt>
      <trkpt lat="42.95653" lon="0.84866">
        <ele>1474</ele>
        <time>2018-04-02T10:36:25.000Z</time>
      </trkpt>
      <trkpt lat="42.95653" lon="0.84867">
        <ele>1474</ele>
        <time>2018-04-02T10:36:27.000Z</time>
      </trkpt>
      <trkpt lat="42.95653" lon="0.84868">
        <ele>1474</ele>
        <time>2018-04-02T10:36:29.000Z</time>
      </trkpt>
      <trkpt lat="42.95652" lon="0.84869">
        <ele>1474</ele>
        <time>2018-04-02T10:36:31.000Z</time>
      </trkpt>
      <trkpt lat="42.95652" lon="0.8487">
        <ele>1474</ele>
        <time>2018-04-02T10:36:33.000Z</time>
      </trkpt>
      <trkpt lat="42.95651" lon="0.8487">
        <ele>1474</ele>
        <time>2018-04-02T10:36:35.000Z</time>
      </trkpt>
      <trkpt lat="42.95651" lon="0.84872">
        <ele>1473</ele>
        <time>2018-04-02T10:36:37.000Z</time>
      </trkpt>
      <trkpt lat="42.95651" lon="0.84873">
        <ele>1473</ele>
        <time>2018-04-02T10:36:39.000Z</time>
      </trkpt>
      <trkpt lat="42.9565" lon="0.84874">
        <ele>1473</ele>
        <time>2018-04-02T10:36:41.000Z</time>
      </trkpt>
      <trkpt lat="42.9565" lon="0.84875">
        <ele>1473</ele>
        <time>2018-04-02T10:36:43.000Z</time>
      </trkpt>
      <trkpt lat="42.9565" lon="0.84875">
        <ele>1473</ele>
        <time>2018-04-02T10:36:45.000Z</time>
      </trkpt>
      <trkpt lat="42.9565" lon="0.84876">
        <ele>1473</ele>
        <time>2018-04-02T10:36:47.000Z</time>
      </trkpt>
      <trkpt lat="42.95649" lon="0.84877">
        <ele>1473</ele>
        <time>2018-04-02T10:36:49.000Z</time>
      </trkpt>
      <trkpt lat="42.95648" lon="0.84879">
        <ele>1473</ele>
        <time>2018-04-02T10:36:51.000Z</time>
      </trkpt>
      <trkpt lat="42.95648" lon="0.84879">
        <ele>1472</ele>
        <time>2018-04-02T10:36:53.000Z</time>
      </trkpt>
      <trkpt lat="42.95647" lon="0.8488">
        <ele>1472</ele>
        <time>2018-04-02T10:36:55.000Z</time>
      </trkpt>
      <trkpt lat="42.95647" lon="0.84881">
        <ele>1472</ele>
        <time>2018-04-02T10:36:57.000Z</time>
      </trkpt>
      <trkpt lat="42.95647" lon="0.84882">
        <ele>1472</ele>
        <time>2018-04-02T10:36:59.000Z</time>
      </trkpt>
      <trkpt lat="42.95648" lon="0.84884">
        <ele>1472</ele>
        <time>2018-04-02T10:37:01.000Z</time>
      </trkpt>
      <trkpt lat="42.95649" lon="0.84884">
        <ele>1472</ele>
        <time>2018-04-02T10:37:03.000Z</time>
      </trkpt>
      <trkpt lat="42.95648" lon="0.84884">
        <ele>1472</ele>
        <time>2018-04-02T10:37:05.000Z</time>
      </trkpt>
      <trkpt lat="42.95647" lon="0.84883">
        <ele>1472</ele>
        <time>2018-04-02T10:37:07.000Z</time>
      </trkpt>
      <trkpt lat="42.95646" lon="0.84884">
        <ele>1472</ele>
        <time>2018-04-02T10:37:09.000Z</time>
      </trkpt>
      <trkpt lat="42.95646" lon="0.84884">
        <ele>1472</ele>
        <time>2018-04-02T10:37:11.000Z</time>
      </trkpt>
      <trkpt lat="42.95645" lon="0.84884">
        <ele>1472</ele>
        <time>2018-04-02T10:37:13.000Z</time>
      </trkpt>
      <trkpt lat="42.95645" lon="0.84884">
        <ele>1472</ele>
        <time>2018-04-02T10:37:15.000Z</time>
      </trkpt>
      <trkpt lat="42.95645" lon="0.84884">
        <ele>1472</ele>
        <time>2018-04-02T10:37:17.000Z</time>
      </trkpt>
      <trkpt lat="42.95645" lon="0.84884">
        <ele>1472</ele>
        <time>2018-04-02T10:37:19.000Z</time>
      </trkpt>
      <trkpt lat="42.95645" lon="0.84884">
        <ele>1472</ele>
        <time>2018-04-02T10:37:21.000Z</time>
      </trkpt>
      <trkpt lat="42.95644" lon="0.84884">
        <ele>1472</ele>
        <time>2018-04-02T10:37:23.000Z</time>
      </trkpt>
      <trkpt lat="42.95643" lon="0.84884">
        <ele>1471</ele>
        <time>2018-04-02T10:37:25.000Z</time>
      </trkpt>
      <trkpt lat="42.95643" lon="0.84883">
        <ele>1471</ele>
        <time>2018-04-02T10:37:27.000Z</time>
      </trkpt>
      <trkpt lat="42.95643" lon="0.84883">
        <ele>1471</ele>
        <time>2018-04-02T10:37:29.000Z</time>
      </trkpt>
      <trkpt lat="42.95643" lon="0.84883">
        <ele>1472</ele>
        <time>2018-04-02T10:37:31.000Z</time>
      </trkpt>
      <trkpt lat="42.95643" lon="0.84883">
        <ele>1472</ele>
        <time>2018-04-02T10:37:33.000Z</time>
      </trkpt>
      <trkpt lat="42.95643" lon="0.84883">
        <ele>1471</ele>
        <time>2018-04-02T10:37:35.000Z</time>
      </trkpt>
      <trkpt lat="42.95644" lon="0.84882">
        <ele>1472</ele>
        <time>2018-04-02T10:37:37.000Z</time>
      </trkpt>
      <trkpt lat="42.95645" lon="0.84882">
        <ele>1472</ele>
        <time>2018-04-02T10:37:39.000Z</time>
      </trkpt>
      <trkpt lat="42.95645" lon="0.84882">
        <ele>1472</ele>
        <time>2018-04-02T10:37:41.000Z</time>
      </trkpt>
      <trkpt lat="42.95645" lon="0.84882">
        <ele>1472</ele>
        <time>2018-04-02T10:37:43.000Z</time>
      </trkpt>
      <trkpt lat="42.95646" lon="0.84882">
        <ele>1472</ele>
        <time>2018-04-02T10:37:45.000Z</time>
      </trkpt>
      <trkpt lat="42.95645" lon="0.84882">
        <ele>1472</ele>
        <time>2018-04-02T10:37:47.000Z</time>
      </trkpt>
      <trkpt lat="42.95645" lon="0.84882">
        <ele>1472</ele>
        <time>2018-04-02T10:37:49.000Z</time>
      </trkpt>
      <trkpt lat="42.95645" lon="0.84882">
        <ele>1472</ele>
        <time>2018-04-02T10:37:51.000Z</time>
      </trkpt>
      <trkpt lat="42.95645" lon="0.84881">
        <ele>1472</ele>
        <time>2018-04-02T10:37:53.000Z</time>
      </trkpt>
      <trkpt lat="42.95645" lon="0.84881">
        <ele>1472</ele>
        <time>2018-04-02T10:37:55.000Z</time>
      </trkpt>
      <trkpt lat="42.95646" lon="0.84881">
        <ele>1472</ele>
        <time>2018-04-02T10:37:57.000Z</time>
      </trkpt>
      <trkpt lat="42.95646" lon="0.84881">
        <ele>1472</ele>
        <time>2018-04-02T10:37:59.000Z</time>
      </trkpt>
      <trkpt lat="42.95646" lon="0.84883">
        <ele>1472</ele>
        <time>2018-04-02T10:38:01.000Z</time>
      </trkpt>
      <trkpt lat="42.95646" lon="0.84885">
        <ele>1472</ele>
        <time>2018-04-02T10:38:03.000Z</time>
      </trkpt>
      <trkpt lat="42.95646" lon="0.84887">
        <ele>1472</ele>
        <time>2018-04-02T10:38:05.000Z</time>
      </trkpt>
      <trkpt lat="42.95646" lon="0.84889">
        <ele>1472</ele>
        <time>2018-04-02T10:38:07.000Z</time>
      </trkpt>
      <trkpt lat="42.95646" lon="0.8489">
        <ele>1472</ele>
        <time>2018-04-02T10:38:09.000Z</time>
      </trkpt>
      <trkpt lat="42.95646" lon="0.84892">
        <ele>1471</ele>
        <time>2018-04-02T10:38:11.000Z</time>
      </trkpt>
      <trkpt lat="42.95646" lon="0.84893">
        <ele>1471</ele>
        <time>2018-04-02T10:38:13.000Z</time>
      </trkpt>
      <trkpt lat="42.95647" lon="0.84895">
        <ele>1471</ele>
        <time>2018-04-02T10:38:15.000Z</time>
      </trkpt>
      <trkpt lat="42.95647" lon="0.84896">
        <ele>1471</ele>
        <time>2018-04-02T10:38:17.000Z</time>
      </trkpt>
      <trkpt lat="42.95647" lon="0.84898">
        <ele>1471</ele>
        <time>2018-04-02T10:38:19.000Z</time>
      </trkpt>
      <trkpt lat="42.95647" lon="0.84899">
        <ele>1471</ele>
        <time>2018-04-02T10:38:21.000Z</time>
      </trkpt>
      <trkpt lat="42.95647" lon="0.849">
        <ele>1471</ele>
        <time>2018-04-02T10:38:23.000Z</time>
      </trkpt>
      <trkpt lat="42.95647" lon="0.849">
        <ele>1471</ele>
        <time>2018-04-02T10:38:25.000Z</time>
      </trkpt>
      <trkpt lat="42.95647" lon="0.84901">
        <ele>1471</ele>
        <time>2018-04-02T10:38:27.000Z</time>
      </trkpt>
      <trkpt lat="42.95647" lon="0.84901">
        <ele>1471</ele>
        <time>2018-04-02T10:38:29.000Z</time>
      </trkpt>
      <trkpt lat="42.95647" lon="0.84902">
        <ele>1471</ele>
        <time>2018-04-02T10:38:31.000Z</time>
      </trkpt>
      <trkpt lat="42.95647" lon="0.84902">
        <ele>1471</ele>
        <time>2018-04-02T10:38:33.000Z</time>
      </trkpt>
      <trkpt lat="42.95648" lon="0.84902">
        <ele>1471</ele>
        <time>2018-04-02T10:38:35.000Z</time>
      </trkpt>
      <trkpt lat="42.95647" lon="0.84903">
        <ele>1471</ele>
        <time>2018-04-02T10:38:37.000Z</time>
      </trkpt>
      <trkpt lat="42.95647" lon="0.84904">
        <ele>1471</ele>
        <time>2018-04-02T10:38:39.000Z</time>
      </trkpt>
      <trkpt lat="42.95647" lon="0.84904">
        <ele>1471</ele>
        <time>2018-04-02T10:38:41.000Z</time>
      </trkpt>
      <trkpt lat="42.95647" lon="0.84905">
        <ele>1471</ele>
        <time>2018-04-02T10:38:43.000Z</time>
      </trkpt>
      <trkpt lat="42.95647" lon="0.84905">
        <ele>1471</ele>
        <time>2018-04-02T10:38:45.000Z</time>
      </trkpt>
      <trkpt lat="42.95646" lon="0.84906">
        <ele>1470</ele>
        <time>2018-04-02T10:38:47.000Z</time>
      </trkpt>
      <trkpt lat="42.95646" lon="0.84906">
        <ele>1470</ele>
        <time>2018-04-02T10:38:49.000Z</time>
      </trkpt>
      <trkpt lat="42.95645" lon="0.84906">
        <ele>1470</ele>
        <time>2018-04-02T10:38:51.000Z</time>
      </trkpt>
      <trkpt lat="42.95645" lon="0.84907">
        <ele>1470</ele>
        <time>2018-04-02T10:38:53.000Z</time>
      </trkpt>
      <trkpt lat="42.95645" lon="0.84908">
        <ele>1470</ele>
        <time>2018-04-02T10:38:55.000Z</time>
      </trkpt>
      <trkpt lat="42.95644" lon="0.84908">
        <ele>1470</ele>
        <time>2018-04-02T10:38:57.000Z</time>
      </trkpt>
      <trkpt lat="42.95644" lon="0.84908">
        <ele>1470</ele>
        <time>2018-04-02T10:38:59.000Z</time>
      </trkpt>
      <trkpt lat="42.95644" lon="0.84909">
        <ele>1470</ele>
        <time>2018-04-02T10:39:01.000Z</time>
      </trkpt>
      <trkpt lat="42.95644" lon="0.8491">
        <ele>1470</ele>
        <time>2018-04-02T10:39:03.000Z</time>
      </trkpt>
      <trkpt lat="42.95644" lon="0.8491">
        <ele>1470</ele>
        <time>2018-04-02T10:39:05.000Z</time>
      </trkpt>
      <trkpt lat="42.95643" lon="0.84911">
        <ele>1470</ele>
        <time>2018-04-02T10:39:07.000Z</time>
      </trkpt>
      <trkpt lat="42.95643" lon="0.84912">
        <ele>1469</ele>
        <time>2018-04-02T10:39:09.000Z</time>
      </trkpt>
      <trkpt lat="42.95642" lon="0.84912">
        <ele>1469</ele>
        <time>2018-04-02T10:39:11.000Z</time>
      </trkpt>
      <trkpt lat="42.95643" lon="0.84913">
        <ele>1469</ele>
        <time>2018-04-02T10:39:13.000Z</time>
      </trkpt>
      <trkpt lat="42.95642" lon="0.84914">
        <ele>1469</ele>
        <time>2018-04-02T10:39:15.000Z</time>
      </trkpt>
      <trkpt lat="42.95642" lon="0.84915">
        <ele>1469</ele>
        <time>2018-04-02T10:39:17.000Z</time>
      </trkpt>
      <trkpt lat="42.95642" lon="0.84915">
        <ele>1469</ele>
        <time>2018-04-02T10:39:19.000Z</time>
      </trkpt>
      <trkpt lat="42.95642" lon="0.84916">
        <ele>1469</ele>
        <time>2018-04-02T10:39:21.000Z</time>
      </trkpt>
      <trkpt lat="42.95642" lon="0.84918">
        <ele>1469</ele>
        <time>2018-04-02T10:39:23.000Z</time>
      </trkpt>
      <trkpt lat="42.95642" lon="0.84919">
        <ele>1469</ele>
        <time>2018-04-02T10:39:25.000Z</time>
      </trkpt>
      <trkpt lat="42.95642" lon="0.8492">
        <ele>1469</ele>
        <time>2018-04-02T10:39:27.000Z</time>
      </trkpt>
      <trkpt lat="42.95642" lon="0.84921">
        <ele>1469</ele>
        <time>2018-04-02T10:39:29.000Z</time>
      </trkpt>
      <trkpt lat="42.95641" lon="0.84922">
        <ele>1468</ele>
        <time>2018-04-02T10:39:31.000Z</time>
      </trkpt>
      <trkpt lat="42.95641" lon="0.84923">
        <ele>1468</ele>
        <time>2018-04-02T10:39:33.000Z</time>
      </trkpt>
      <trkpt lat="42.95641" lon="0.84924">
        <ele>1468</ele>
        <time>2018-04-02T10:39:35.000Z</time>
      </trkpt>
      <trkpt lat="42.95641" lon="0.84925">
        <ele>1468</ele>
        <time>2018-04-02T10:39:37.000Z</time>
      </trkpt>
      <trkpt lat="42.9564" lon="0.84926">
        <ele>1468</ele>
        <time>2018-04-02T10:39:39.000Z</time>
      </trkpt>
      <trkpt lat="42.9564" lon="0.84928">
        <ele>1468</ele>
        <time>2018-04-02T10:39:41.000Z</time>
      </trkpt>
      <trkpt lat="42.9564" lon="0.84929">
        <ele>1468</ele>
        <time>2018-04-02T10:39:43.000Z</time>
      </trkpt>
      <trkpt lat="42.9564" lon="0.8493">
        <ele>1468</ele>
        <time>2018-04-02T10:39:45.000Z</time>
      </trkpt>
      <trkpt lat="42.95639" lon="0.84932">
        <ele>1468</ele>
        <time>2018-04-02T10:39:47.000Z</time>
      </trkpt>
      <trkpt lat="42.95639" lon="0.84933">
        <ele>1467</ele>
        <time>2018-04-02T10:39:49.000Z</time>
      </trkpt>
      <trkpt lat="42.95639" lon="0.84934">
        <ele>1467</ele>
        <time>2018-04-02T10:39:51.000Z</time>
      </trkpt>
      <trkpt lat="42.95639" lon="0.84934">
        <ele>1467</ele>
        <time>2018-04-02T10:39:53.000Z</time>
      </trkpt>
      <trkpt lat="42.95639" lon="0.84936">
        <ele>1467</ele>
        <time>2018-04-02T10:39:55.000Z</time>
      </trkpt>
      <trkpt lat="42.95639" lon="0.84937">
        <ele>1467</ele>
        <time>2018-04-02T10:39:57.000Z</time>
      </trkpt>
      <trkpt lat="42.95639" lon="0.84938">
        <ele>1467</ele>
        <time>2018-04-02T10:39:59.000Z</time>
      </trkpt>
      <trkpt lat="42.95638" lon="0.84939">
        <ele>1467</ele>
        <time>2018-04-02T10:40:01.000Z</time>
      </trkpt>
      <trkpt lat="42.95638" lon="0.84941">
        <ele>1467</ele>
        <time>2018-04-02T10:40:03.000Z</time>
      </trkpt>
      <trkpt lat="42.95638" lon="0.84942">
        <ele>1467</ele>
        <time>2018-04-02T10:40:05.000Z</time>
      </trkpt>
      <trkpt lat="42.95638" lon="0.84943">
        <ele>1467</ele>
        <time>2018-04-02T10:40:07.000Z</time>
      </trkpt>
      <trkpt lat="42.95638" lon="0.84945">
        <ele>1467</ele>
        <time>2018-04-02T10:40:09.000Z</time>
      </trkpt>
      <trkpt lat="42.95638" lon="0.84945">
        <ele>1467</ele>
        <time>2018-04-02T10:40:11.000Z</time>
      </trkpt>
      <trkpt lat="42.95638" lon="0.84945">
        <ele>1467</ele>
        <time>2018-04-02T10:40:13.000Z</time>
      </trkpt>
      <trkpt lat="42.95638" lon="0.84946">
        <ele>1468</ele>
        <time>2018-04-02T10:40:15.000Z</time>
      </trkpt>
      <trkpt lat="42.95638" lon="0.84945">
        <ele>1467</ele>
        <time>2018-04-02T10:40:17.000Z</time>
      </trkpt>
      <trkpt lat="42.95638" lon="0.84945">
        <ele>1467</ele>
        <time>2018-04-02T10:40:19.000Z</time>
      </trkpt>
      <trkpt lat="42.95638" lon="0.84946">
        <ele>1468</ele>
        <time>2018-04-02T10:40:21.000Z</time>
      </trkpt>
      <trkpt lat="42.95638" lon="0.84946">
        <ele>1468</ele>
        <time>2018-04-02T10:40:23.000Z</time>
      </trkpt>
      <trkpt lat="42.95638" lon="0.84946">
        <ele>1468</ele>
        <time>2018-04-02T10:40:25.000Z</time>
      </trkpt>
      <trkpt lat="42.95638" lon="0.84945">
        <ele>1468</ele>
        <time>2018-04-02T10:40:27.000Z</time>
      </trkpt>
      <trkpt lat="42.95639" lon="0.84945">
        <ele>1467</ele>
        <time>2018-04-02T10:40:29.000Z</time>
      </trkpt>
      <trkpt lat="42.95639" lon="0.84945">
        <ele>1467</ele>
        <time>2018-04-02T10:40:31.000Z</time>
      </trkpt>
      <trkpt lat="42.95639" lon="0.84946">
        <ele>1468</ele>
        <time>2018-04-02T10:40:33.000Z</time>
      </trkpt>
      <trkpt lat="42.95639" lon="0.84946">
        <ele>1468</ele>
        <time>2018-04-02T10:40:35.000Z</time>
      </trkpt>
      <trkpt lat="42.95638" lon="0.84946">
        <ele>1468</ele>
        <time>2018-04-02T10:40:37.000Z</time>
      </trkpt>
      <trkpt lat="42.95639" lon="0.84946">
        <ele>1468</ele>
        <time>2018-04-02T10:40:39.000Z</time>
      </trkpt>
      <trkpt lat="42.95638" lon="0.84947">
        <ele>1468</ele>
        <time>2018-04-02T10:40:41.000Z</time>
      </trkpt>
      <trkpt lat="42.95638" lon="0.84948">
        <ele>1468</ele>
        <time>2018-04-02T10:40:43.000Z</time>
      </trkpt>
      <trkpt lat="42.95639" lon="0.8495">
        <ele>1468</ele>
        <time>2018-04-02T10:40:45.000Z</time>
      </trkpt>
      <trkpt lat="42.95639" lon="0.84952">
        <ele>1468</ele>
        <time>2018-04-02T10:40:47.000Z</time>
      </trkpt>
      <trkpt lat="42.95639" lon="0.84954">
        <ele>1468</ele>
        <time>2018-04-02T10:40:49.000Z</time>
      </trkpt>
      <trkpt lat="42.95638" lon="0.84955">
        <ele>1468</ele>
        <time>2018-04-02T10:40:51.000Z</time>
      </trkpt>
      <trkpt lat="42.95639" lon="0.84957">
        <ele>1468</ele>
        <time>2018-04-02T10:40:53.000Z</time>
      </trkpt>
      <trkpt lat="42.95639" lon="0.84958">
        <ele>1468</ele>
        <time>2018-04-02T10:40:55.000Z</time>
      </trkpt>
      <trkpt lat="42.95639" lon="0.8496">
        <ele>1468</ele>
        <time>2018-04-02T10:40:57.000Z</time>
      </trkpt>
      <trkpt lat="42.95639" lon="0.84962">
        <ele>1468</ele>
        <time>2018-04-02T10:40:59.000Z</time>
      </trkpt>
      <trkpt lat="42.95639" lon="0.84963">
        <ele>1469</ele>
        <time>2018-04-02T10:41:01.000Z</time>
      </trkpt>
      <trkpt lat="42.95639" lon="0.84964">
        <ele>1469</ele>
        <time>2018-04-02T10:41:03.000Z</time>
      </trkpt>
      <trkpt lat="42.95639" lon="0.84965">
        <ele>1469</ele>
        <time>2018-04-02T10:41:05.000Z</time>
      </trkpt>
      <trkpt lat="42.95639" lon="0.84966">
        <ele>1469</ele>
        <time>2018-04-02T10:41:07.000Z</time>
      </trkpt>
      <trkpt lat="42.95639" lon="0.84968">
        <ele>1469</ele>
        <time>2018-04-02T10:41:09.000Z</time>
      </trkpt>
      <trkpt lat="42.9564" lon="0.8497">
        <ele>1469</ele>
        <time>2018-04-02T10:41:11.000Z</time>
      </trkpt>
      <trkpt lat="42.9564" lon="0.84972">
        <ele>1469</ele>
        <time>2018-04-02T10:41:13.000Z</time>
      </trkpt>
      <trkpt lat="42.9564" lon="0.84974">
        <ele>1469</ele>
        <time>2018-04-02T10:41:15.000Z</time>
      </trkpt>
      <trkpt lat="42.95641" lon="0.84976">
        <ele>1469</ele>
        <time>2018-04-02T10:41:17.000Z</time>
      </trkpt>
      <trkpt lat="42.95641" lon="0.84978">
        <ele>1470</ele>
        <time>2018-04-02T10:41:19.000Z</time>
      </trkpt>
      <trkpt lat="42.9564" lon="0.8498">
        <ele>1470</ele>
        <time>2018-04-02T10:41:21.000Z</time>
      </trkpt>
      <trkpt lat="42.95641" lon="0.84982">
        <ele>1470</ele>
        <time>2018-04-02T10:41:23.000Z</time>
      </trkpt>
      <trkpt lat="42.95641" lon="0.84984">
        <ele>1470</ele>
        <time>2018-04-02T10:41:25.000Z</time>
      </trkpt>
      <trkpt lat="42.95641" lon="0.84985">
        <ele>1470</ele>
        <time>2018-04-02T10:41:27.000Z</time>
      </trkpt>
      <trkpt lat="42.95641" lon="0.84988">
        <ele>1470</ele>
        <time>2018-04-02T10:41:29.000Z</time>
      </trkpt>
      <trkpt lat="42.95642" lon="0.8499">
        <ele>1470</ele>
        <time>2018-04-02T10:41:31.000Z</time>
      </trkpt>
      <trkpt lat="42.95642" lon="0.84993">
        <ele>1471</ele>
        <time>2018-04-02T10:41:33.000Z</time>
      </trkpt>
      <trkpt lat="42.95642" lon="0.84995">
        <ele>1471</ele>
        <time>2018-04-02T10:41:35.000Z</time>
      </trkpt>
      <trkpt lat="42.95641" lon="0.84996">
        <ele>1471</ele>
        <time>2018-04-02T10:41:37.000Z</time>
      </trkpt>
      <trkpt lat="42.95641" lon="0.84998">
        <ele>1471</ele>
        <time>2018-04-02T10:41:39.000Z</time>
      </trkpt>
      <trkpt lat="42.95641" lon="0.85">
        <ele>1471</ele>
        <time>2018-04-02T10:41:41.000Z</time>
      </trkpt>
      <trkpt lat="42.9564" lon="0.85002">
        <ele>1471</ele>
        <time>2018-04-02T10:41:43.000Z</time>
      </trkpt>
      <trkpt lat="42.9564" lon="0.85004">
        <ele>1471</ele>
        <time>2018-04-02T10:41:45.000Z</time>
      </trkpt>
      <trkpt lat="42.95639" lon="0.85006">
        <ele>1472</ele>
        <time>2018-04-02T10:41:47.000Z</time>
      </trkpt>
      <trkpt lat="42.95639" lon="0.85007">
        <ele>1472</ele>
        <time>2018-04-02T10:41:49.000Z</time>
      </trkpt>
      <trkpt lat="42.95639" lon="0.85007">
        <ele>1472</ele>
        <time>2018-04-02T10:41:51.000Z</time>
      </trkpt>
      <trkpt lat="42.9564" lon="0.85007">
        <ele>1472</ele>
        <time>2018-04-02T10:41:53.000Z</time>
      </trkpt>
      <trkpt lat="42.95639" lon="0.85007">
        <ele>1472</ele>
        <time>2018-04-02T10:41:55.000Z</time>
      </trkpt>
      <trkpt lat="42.95639" lon="0.85007">
        <ele>1472</ele>
        <time>2018-04-02T10:41:57.000Z</time>
      </trkpt>
      <trkpt lat="42.95639" lon="0.85006">
        <ele>1472</ele>
        <time>2018-04-02T10:41:59.000Z</time>
      </trkpt>
      <trkpt lat="42.95639" lon="0.85007">
        <ele>1472</ele>
        <time>2018-04-02T10:42:01.000Z</time>
      </trkpt>
      <trkpt lat="42.95639" lon="0.85007">
        <ele>1472</ele>
        <time>2018-04-02T10:42:03.000Z</time>
      </trkpt>
      <trkpt lat="42.95638" lon="0.85006">
        <ele>1472</ele>
        <time>2018-04-02T10:42:05.000Z</time>
      </trkpt>
      <trkpt lat="42.95638" lon="0.85006">
        <ele>1472</ele>
        <time>2018-04-02T10:42:07.000Z</time>
      </trkpt>
      <trkpt lat="42.95639" lon="0.85006">
        <ele>1472</ele>
        <time>2018-04-02T10:42:09.000Z</time>
      </trkpt>
      <trkpt lat="42.95639" lon="0.85006">
        <ele>1472</ele>
        <time>2018-04-02T10:42:11.000Z</time>
      </trkpt>
      <trkpt lat="42.95638" lon="0.85007">
        <ele>1472</ele>
        <time>2018-04-02T10:42:13.000Z</time>
      </trkpt>
      <trkpt lat="42.95638" lon="0.85009">
        <ele>1472</ele>
        <time>2018-04-02T10:42:15.000Z</time>
      </trkpt>
      <trkpt lat="42.95637" lon="0.85011">
        <ele>1472</ele>
        <time>2018-04-02T10:42:17.000Z</time>
      </trkpt>
      <trkpt lat="42.95637" lon="0.85012">
        <ele>1472</ele>
        <time>2018-04-02T10:42:19.000Z</time>
      </trkpt>
      <trkpt lat="42.95637" lon="0.85014">
        <ele>1472</ele>
        <time>2018-04-02T10:42:21.000Z</time>
      </trkpt>
      <trkpt lat="42.95637" lon="0.85014">
        <ele>1472</ele>
        <time>2018-04-02T10:42:23.000Z</time>
      </trkpt>
      <trkpt lat="42.95637" lon="0.85015">
        <ele>1472</ele>
        <time>2018-04-02T10:42:25.000Z</time>
      </trkpt>
      <trkpt lat="42.95637" lon="0.85016">
        <ele>1472</ele>
        <time>2018-04-02T10:42:27.000Z</time>
      </trkpt>
      <trkpt lat="42.95637" lon="0.85018">
        <ele>1472</ele>
        <time>2018-04-02T10:42:29.000Z</time>
      </trkpt>
      <trkpt lat="42.95637" lon="0.85019">
        <ele>1472</ele>
        <time>2018-04-02T10:42:31.000Z</time>
      </trkpt>
      <trkpt lat="42.95636" lon="0.85019">
        <ele>1473</ele>
        <time>2018-04-02T10:42:33.000Z</time>
      </trkpt>
      <trkpt lat="42.95636" lon="0.8502">
        <ele>1473</ele>
        <time>2018-04-02T10:42:35.000Z</time>
      </trkpt>
      <trkpt lat="42.95635" lon="0.85021">
        <ele>1473</ele>
        <time>2018-04-02T10:42:37.000Z</time>
      </trkpt>
      <trkpt lat="42.95634" lon="0.85022">
        <ele>1473</ele>
        <time>2018-04-02T10:42:39.000Z</time>
      </trkpt>
      <trkpt lat="42.95633" lon="0.85025">
        <ele>1474</ele>
        <time>2018-04-02T10:42:41.000Z</time>
      </trkpt>
      <trkpt lat="42.95632" lon="0.85026">
        <ele>1474</ele>
        <time>2018-04-02T10:42:43.000Z</time>
      </trkpt>
      <trkpt lat="42.95631" lon="0.85028">
        <ele>1475</ele>
        <time>2018-04-02T10:42:45.000Z</time>
      </trkpt>
      <trkpt lat="42.95629" lon="0.8503">
        <ele>1475</ele>
        <time>2018-04-02T10:42:47.000Z</time>
      </trkpt>
      <trkpt lat="42.95628" lon="0.85032">
        <ele>1476</ele>
        <time>2018-04-02T10:42:49.000Z</time>
      </trkpt>
      <trkpt lat="42.95627" lon="0.85034">
        <ele>1476</ele>
        <time>2018-04-02T10:42:51.000Z</time>
      </trkpt>
      <trkpt lat="42.95626" lon="0.85035">
        <ele>1476</ele>
        <time>2018-04-02T10:42:53.000Z</time>
      </trkpt>
      <trkpt lat="42.95626" lon="0.85037">
        <ele>1477</ele>
        <time>2018-04-02T10:42:55.000Z</time>
      </trkpt>
      <trkpt lat="42.95625" lon="0.85039">
        <ele>1477</ele>
        <time>2018-04-02T10:42:57.000Z</time>
      </trkpt>
      <trkpt lat="42.95624" lon="0.85041">
        <ele>1478</ele>
        <time>2018-04-02T10:42:59.000Z</time>
      </trkpt>
      <trkpt lat="42.95624" lon="0.85043">
        <ele>1478</ele>
        <time>2018-04-02T10:43:01.000Z</time>
      </trkpt>
      <trkpt lat="42.95623" lon="0.85045">
        <ele>1478</ele>
        <time>2018-04-02T10:43:03.000Z</time>
      </trkpt>
      <trkpt lat="42.95622" lon="0.85047">
        <ele>1479</ele>
        <time>2018-04-02T10:43:05.000Z</time>
      </trkpt>
      <trkpt lat="42.95622" lon="0.85049">
        <ele>1479</ele>
        <time>2018-04-02T10:43:07.000Z</time>
      </trkpt>
      <trkpt lat="42.95622" lon="0.8505">
        <ele>1479</ele>
        <time>2018-04-02T10:43:09.000Z</time>
      </trkpt>
      <trkpt lat="42.95621" lon="0.85052">
        <ele>1480</ele>
        <time>2018-04-02T10:43:11.000Z</time>
      </trkpt>
      <trkpt lat="42.95621" lon="0.85054">
        <ele>1480</ele>
        <time>2018-04-02T10:43:13.000Z</time>
      </trkpt>
      <trkpt lat="42.95621" lon="0.85055">
        <ele>1480</ele>
        <time>2018-04-02T10:43:15.000Z</time>
      </trkpt>
      <trkpt lat="42.95621" lon="0.85057">
        <ele>1480</ele>
        <time>2018-04-02T10:43:17.000Z</time>
      </trkpt>
      <trkpt lat="42.95622" lon="0.85059">
        <ele>1480</ele>
        <time>2018-04-02T10:43:19.000Z</time>
      </trkpt>
      <trkpt lat="42.95622" lon="0.85061">
        <ele>1480</ele>
        <time>2018-04-02T10:43:21.000Z</time>
      </trkpt>
      <trkpt lat="42.95621" lon="0.85063">
        <ele>1480</ele>
        <time>2018-04-02T10:43:23.000Z</time>
      </trkpt>
      <trkpt lat="42.95622" lon="0.85066">
        <ele>1480</ele>
        <time>2018-04-02T10:43:25.000Z</time>
      </trkpt>
      <trkpt lat="42.95621" lon="0.85068">
        <ele>1480</ele>
        <time>2018-04-02T10:43:27.000Z</time>
      </trkpt>
      <trkpt lat="42.95621" lon="0.8507">
        <ele>1480</ele>
        <time>2018-04-02T10:43:29.000Z</time>
      </trkpt>
      <trkpt lat="42.95622" lon="0.85072">
        <ele>1480</ele>
        <time>2018-04-02T10:43:31.000Z</time>
      </trkpt>
      <trkpt lat="42.95622" lon="0.85075">
        <ele>1480</ele>
        <time>2018-04-02T10:43:33.000Z</time>
      </trkpt>
      <trkpt lat="42.95622" lon="0.85077">
        <ele>1480</ele>
        <time>2018-04-02T10:43:35.000Z</time>
      </trkpt>
      <trkpt lat="42.95621" lon="0.8508">
        <ele>1480</ele>
        <time>2018-04-02T10:43:37.000Z</time>
      </trkpt>
      <trkpt lat="42.95621" lon="0.85081">
        <ele>1480</ele>
        <time>2018-04-02T10:43:39.000Z</time>
      </trkpt>
      <trkpt lat="42.9562" lon="0.85084">
        <ele>1481</ele>
        <time>2018-04-02T10:43:41.000Z</time>
      </trkpt>
      <trkpt lat="42.95619" lon="0.85086">
        <ele>1481</ele>
        <time>2018-04-02T10:43:43.000Z</time>
      </trkpt>
      <trkpt lat="42.95618" lon="0.85087">
        <ele>1482</ele>
        <time>2018-04-02T10:43:45.000Z</time>
      </trkpt>
      <trkpt lat="42.95617" lon="0.85089">
        <ele>1482</ele>
        <time>2018-04-02T10:43:47.000Z</time>
      </trkpt>
      <trkpt lat="42.95616" lon="0.8509">
        <ele>1482</ele>
        <time>2018-04-02T10:43:49.000Z</time>
      </trkpt>
      <trkpt lat="42.95615" lon="0.85092">
        <ele>1483</ele>
        <time>2018-04-02T10:43:51.000Z</time>
      </trkpt>
      <trkpt lat="42.95615" lon="0.85093">
        <ele>1483</ele>
        <time>2018-04-02T10:43:53.000Z</time>
      </trkpt>
      <trkpt lat="42.95613" lon="0.85094">
        <ele>1484</ele>
        <time>2018-04-02T10:43:55.000Z</time>
      </trkpt>
      <trkpt lat="42.95613" lon="0.85095">
        <ele>1484</ele>
        <time>2018-04-02T10:43:57.000Z</time>
      </trkpt>
      <trkpt lat="42.95612" lon="0.85096">
        <ele>1484</ele>
        <time>2018-04-02T10:43:59.000Z</time>
      </trkpt>
      <trkpt lat="42.95611" lon="0.85097">
        <ele>1485</ele>
        <time>2018-04-02T10:44:01.000Z</time>
      </trkpt>
      <trkpt lat="42.9561" lon="0.85098">
        <ele>1485</ele>
        <time>2018-04-02T10:44:03.000Z</time>
      </trkpt>
      <trkpt lat="42.9561" lon="0.85099">
        <ele>1485</ele>
        <time>2018-04-02T10:44:05.000Z</time>
      </trkpt>
      <trkpt lat="42.9561" lon="0.851">
        <ele>1486</ele>
        <time>2018-04-02T10:44:07.000Z</time>
      </trkpt>
      <trkpt lat="42.95609" lon="0.85101">
        <ele>1486</ele>
        <time>2018-04-02T10:44:09.000Z</time>
      </trkpt>
      <trkpt lat="42.95609" lon="0.85102">
        <ele>1486</ele>
        <time>2018-04-02T10:44:11.000Z</time>
      </trkpt>
      <trkpt lat="42.95609" lon="0.85103">
        <ele>1486</ele>
        <time>2018-04-02T10:44:13.000Z</time>
      </trkpt>
      <trkpt lat="42.95608" lon="0.85103">
        <ele>1487</ele>
        <time>2018-04-02T10:44:15.000Z</time>
      </trkpt>
      <trkpt lat="42.95608" lon="0.85105">
        <ele>1487</ele>
        <time>2018-04-02T10:44:17.000Z</time>
      </trkpt>
      <trkpt lat="42.95608" lon="0.85106">
        <ele>1487</ele>
        <time>2018-04-02T10:44:19.000Z</time>
      </trkpt>
      <trkpt lat="42.95607" lon="0.85107">
        <ele>1488</ele>
        <time>2018-04-02T10:44:21.000Z</time>
      </trkpt>
      <trkpt lat="42.95607" lon="0.85109">
        <ele>1488</ele>
        <time>2018-04-02T10:44:23.000Z</time>
      </trkpt>
      <trkpt lat="42.95606" lon="0.8511">
        <ele>1488</ele>
        <time>2018-04-02T10:44:25.000Z</time>
      </trkpt>
      <trkpt lat="42.95606" lon="0.85111">
        <ele>1489</ele>
        <time>2018-04-02T10:44:27.000Z</time>
      </trkpt>
      <trkpt lat="42.95605" lon="0.85113">
        <ele>1489</ele>
        <time>2018-04-02T10:44:29.000Z</time>
      </trkpt>
      <trkpt lat="42.95604" lon="0.85115">
        <ele>1490</ele>
        <time>2018-04-02T10:44:31.000Z</time>
      </trkpt>
      <trkpt lat="42.95604" lon="0.85116">
        <ele>1490</ele>
        <time>2018-04-02T10:44:33.000Z</time>
      </trkpt>
      <trkpt lat="42.95604" lon="0.85117">
        <ele>1490</ele>
        <time>2018-04-02T10:44:35.000Z</time>
      </trkpt>
      <trkpt lat="42.95603" lon="0.85119">
        <ele>1490</ele>
        <time>2018-04-02T10:44:37.000Z</time>
      </trkpt>
      <trkpt lat="42.95603" lon="0.8512">
        <ele>1491</ele>
        <time>2018-04-02T10:44:39.000Z</time>
      </trkpt>
      <trkpt lat="42.95603" lon="0.85121">
        <ele>1491</ele>
        <time>2018-04-02T10:44:41.000Z</time>
      </trkpt>
      <trkpt lat="42.95603" lon="0.85123">
        <ele>1491</ele>
        <time>2018-04-02T10:44:43.000Z</time>
      </trkpt>
      <trkpt lat="42.95603" lon="0.85125">
        <ele>1492</ele>
        <time>2018-04-02T10:44:45.000Z</time>
      </trkpt>
      <trkpt lat="42.95602" lon="0.85126">
        <ele>1492</ele>
        <time>2018-04-02T10:44:47.000Z</time>
      </trkpt>
      <trkpt lat="42.95602" lon="0.85127">
        <ele>1492</ele>
        <time>2018-04-02T10:44:49.000Z</time>
      </trkpt>
      <trkpt lat="42.95603" lon="0.85129">
        <ele>1492</ele>
        <time>2018-04-02T10:44:51.000Z</time>
      </trkpt>
      <trkpt lat="42.95603" lon="0.8513">
        <ele>1492</ele>
        <time>2018-04-02T10:44:53.000Z</time>
      </trkpt>
      <trkpt lat="42.95603" lon="0.85132">
        <ele>1493</ele>
        <time>2018-04-02T10:44:55.000Z</time>
      </trkpt>
      <trkpt lat="42.95604" lon="0.85134">
        <ele>1493</ele>
        <time>2018-04-02T10:44:57.000Z</time>
      </trkpt>
      <trkpt lat="42.95604" lon="0.85135">
        <ele>1493</ele>
        <time>2018-04-02T10:44:59.000Z</time>
      </trkpt>
      <trkpt lat="42.95604" lon="0.85137">
        <ele>1493</ele>
        <time>2018-04-02T10:45:01.000Z</time>
      </trkpt>
      <trkpt lat="42.95605" lon="0.85138">
        <ele>1493</ele>
        <time>2018-04-02T10:45:03.000Z</time>
      </trkpt>
      <trkpt lat="42.95605" lon="0.8514">
        <ele>1494</ele>
        <time>2018-04-02T10:45:05.000Z</time>
      </trkpt>
      <trkpt lat="42.95604" lon="0.85141">
        <ele>1493</ele>
        <time>2018-04-02T10:45:07.000Z</time>
      </trkpt>
      <trkpt lat="42.95604" lon="0.85142">
        <ele>1493</ele>
        <time>2018-04-02T10:45:09.000Z</time>
      </trkpt>
      <trkpt lat="42.95603" lon="0.85143">
        <ele>1493</ele>
        <time>2018-04-02T10:45:11.000Z</time>
      </trkpt>
      <trkpt lat="42.95603" lon="0.85144">
        <ele>1493</ele>
        <time>2018-04-02T10:45:13.000Z</time>
      </trkpt>
      <trkpt lat="42.95603" lon="0.85145">
        <ele>1493</ele>
        <time>2018-04-02T10:45:15.000Z</time>
      </trkpt>
      <trkpt lat="42.95603" lon="0.85147">
        <ele>1493</ele>
        <time>2018-04-02T10:45:17.000Z</time>
      </trkpt>
      <trkpt lat="42.95602" lon="0.85148">
        <ele>1493</ele>
        <time>2018-04-02T10:45:19.000Z</time>
      </trkpt>
      <trkpt lat="42.95602" lon="0.85149">
        <ele>1493</ele>
        <time>2018-04-02T10:45:21.000Z</time>
      </trkpt>
      <trkpt lat="42.95601" lon="0.85151">
        <ele>1493</ele>
        <time>2018-04-02T10:45:23.000Z</time>
      </trkpt>
      <trkpt lat="42.956" lon="0.85152">
        <ele>1494</ele>
        <time>2018-04-02T10:45:25.000Z</time>
      </trkpt>
      <trkpt lat="42.95599" lon="0.85153">
        <ele>1495</ele>
        <time>2018-04-02T10:45:27.000Z</time>
      </trkpt>
      <trkpt lat="42.95597" lon="0.85154">
        <ele>1496</ele>
        <time>2018-04-02T10:45:29.000Z</time>
      </trkpt>
      <trkpt lat="42.95596" lon="0.85155">
        <ele>1497</ele>
        <time>2018-04-02T10:45:31.000Z</time>
      </trkpt>
      <trkpt lat="42.95596" lon="0.85155">
        <ele>1497</ele>
        <time>2018-04-02T10:45:33.000Z</time>
      </trkpt>
      <trkpt lat="42.95596" lon="0.85155">
        <ele>1497</ele>
        <time>2018-04-02T10:45:35.000Z</time>
      </trkpt>
      <trkpt lat="42.95596" lon="0.85155">
        <ele>1497</ele>
        <time>2018-04-02T10:45:37.000Z</time>
      </trkpt>
      <trkpt lat="42.95596" lon="0.85155">
        <ele>1497</ele>
        <time>2018-04-02T10:45:39.000Z</time>
      </trkpt>
      <trkpt lat="42.95595" lon="0.85155">
        <ele>1497</ele>
        <time>2018-04-02T10:45:41.000Z</time>
      </trkpt>
      <trkpt lat="42.95595" lon="0.85155">
        <ele>1497</ele>
        <time>2018-04-02T10:45:43.000Z</time>
      </trkpt>
      <trkpt lat="42.95595" lon="0.85155">
        <ele>1497</ele>
        <time>2018-04-02T10:45:45.000Z</time>
      </trkpt>
      <trkpt lat="42.95595" lon="0.85155">
        <ele>1497</ele>
        <time>2018-04-02T10:45:47.000Z</time>
      </trkpt>
      <trkpt lat="42.95595" lon="0.85155">
        <ele>1497</ele>
        <time>2018-04-02T10:45:49.000Z</time>
      </trkpt>
      <trkpt lat="42.95595" lon="0.85155">
        <ele>1497</ele>
        <time>2018-04-02T10:45:51.000Z</time>
      </trkpt>
      <trkpt lat="42.95595" lon="0.85155">
        <ele>1497</ele>
        <time>2018-04-02T10:45:53.000Z</time>
      </trkpt>
      <trkpt lat="42.95594" lon="0.85156">
        <ele>1497</ele>
        <time>2018-04-02T10:45:55.000Z</time>
      </trkpt>
      <trkpt lat="42.95593" lon="0.85156">
        <ele>1498</ele>
        <time>2018-04-02T10:45:57.000Z</time>
      </trkpt>
      <trkpt lat="42.95593" lon="0.85157">
        <ele>1498</ele>
        <time>2018-04-02T10:45:59.000Z</time>
      </trkpt>
      <trkpt lat="42.95593" lon="0.85157">
        <ele>1498</ele>
        <time>2018-04-02T10:46:01.000Z</time>
      </trkpt>
      <trkpt lat="42.95593" lon="0.85157">
        <ele>1498</ele>
        <time>2018-04-02T10:46:03.000Z</time>
      </trkpt>
      <trkpt lat="42.95592" lon="0.85158">
        <ele>1499</ele>
        <time>2018-04-02T10:46:05.000Z</time>
      </trkpt>
      <trkpt lat="42.95591" lon="0.85158">
        <ele>1499</ele>
        <time>2018-04-02T10:46:07.000Z</time>
      </trkpt>
      <trkpt lat="42.9559" lon="0.85158">
        <ele>1499</ele>
        <time>2018-04-02T10:46:09.000Z</time>
      </trkpt>
      <trkpt lat="42.95589" lon="0.85159">
        <ele>1499</ele>
        <time>2018-04-02T10:46:11.000Z</time>
      </trkpt>
      <trkpt lat="42.95588" lon="0.85159">
        <ele>1499</ele>
        <time>2018-04-02T10:46:13.000Z</time>
      </trkpt>
      <trkpt lat="42.95588" lon="0.8516">
        <ele>1498</ele>
        <time>2018-04-02T10:46:15.000Z</time>
      </trkpt>
      <trkpt lat="42.95588" lon="0.8516">
        <ele>1498</ele>
        <time>2018-04-02T10:46:17.000Z</time>
      </trkpt>
      <trkpt lat="42.95587" lon="0.8516">
        <ele>1498</ele>
        <time>2018-04-02T10:46:19.000Z</time>
      </trkpt>
      <trkpt lat="42.95587" lon="0.8516">
        <ele>1498</ele>
        <time>2018-04-02T10:46:21.000Z</time>
      </trkpt>
      <trkpt lat="42.95587" lon="0.85161">
        <ele>1498</ele>
        <time>2018-04-02T10:46:23.000Z</time>
      </trkpt>
      <trkpt lat="42.95587" lon="0.85161">
        <ele>1498</ele>
        <time>2018-04-02T10:46:25.000Z</time>
      </trkpt>
      <trkpt lat="42.95587" lon="0.85161">
        <ele>1498</ele>
        <time>2018-04-02T10:46:27.000Z</time>
      </trkpt>
      <trkpt lat="42.95587" lon="0.85161">
        <ele>1498</ele>
        <time>2018-04-02T10:46:29.000Z</time>
      </trkpt>
      <trkpt lat="42.95587" lon="0.85161">
        <ele>1498</ele>
        <time>2018-04-02T10:46:31.000Z</time>
      </trkpt>
      <trkpt lat="42.95587" lon="0.85161">
        <ele>1498</ele>
        <time>2018-04-02T10:46:33.000Z</time>
      </trkpt>
      <trkpt lat="42.95587" lon="0.85161">
        <ele>1498</ele>
        <time>2018-04-02T10:46:35.000Z</time>
      </trkpt>
      <trkpt lat="42.95587" lon="0.85162">
        <ele>1499</ele>
        <time>2018-04-02T10:46:37.000Z</time>
      </trkpt>
      <trkpt lat="42.95587" lon="0.85162">
        <ele>1499</ele>
        <time>2018-04-02T10:46:39.000Z</time>
      </trkpt>
      <trkpt lat="42.95587" lon="0.85163">
        <ele>1499</ele>
        <time>2018-04-02T10:46:41.000Z</time>
      </trkpt>
      <trkpt lat="42.95587" lon="0.85164">
        <ele>1499</ele>
        <time>2018-04-02T10:46:43.000Z</time>
      </trkpt>
      <trkpt lat="42.95587" lon="0.85165">
        <ele>1499</ele>
        <time>2018-04-02T10:46:45.000Z</time>
      </trkpt>
      <trkpt lat="42.95587" lon="0.85165">
        <ele>1499</ele>
        <time>2018-04-02T10:46:47.000Z</time>
      </trkpt>
      <trkpt lat="42.95587" lon="0.85166">
        <ele>1499</ele>
        <time>2018-04-02T10:46:49.000Z</time>
      </trkpt>
      <trkpt lat="42.95587" lon="0.85166">
        <ele>1499</ele>
        <time>2018-04-02T10:46:51.000Z</time>
      </trkpt>
      <trkpt lat="42.95587" lon="0.85166">
        <ele>1499</ele>
        <time>2018-04-02T10:46:53.000Z</time>
      </trkpt>
      <trkpt lat="42.95587" lon="0.85167">
        <ele>1499</ele>
        <time>2018-04-02T10:46:55.000Z</time>
      </trkpt>
      <trkpt lat="42.95587" lon="0.85167">
        <ele>1499</ele>
        <time>2018-04-02T10:46:57.000Z</time>
      </trkpt>
      <trkpt lat="42.95587" lon="0.85167">
        <ele>1499</ele>
        <time>2018-04-02T10:46:59.000Z</time>
      </trkpt>
      <trkpt lat="42.95588" lon="0.85168">
        <ele>1499</ele>
        <time>2018-04-02T10:47:01.000Z</time>
      </trkpt>
      <trkpt lat="42.95588" lon="0.85168">
        <ele>1500</ele>
        <time>2018-04-02T10:47:03.000Z</time>
      </trkpt>
      <trkpt lat="42.95588" lon="0.85168">
        <ele>1500</ele>
        <time>2018-04-02T10:47:05.000Z</time>
      </trkpt>
      <trkpt lat="42.95588" lon="0.85168">
        <ele>1500</ele>
        <time>2018-04-02T10:47:07.000Z</time>
      </trkpt>
      <trkpt lat="42.95588" lon="0.85168">
        <ele>1500</ele>
        <time>2018-04-02T10:47:09.000Z</time>
      </trkpt>
      <trkpt lat="42.95588" lon="0.85169">
        <ele>1500</ele>
        <time>2018-04-02T10:47:11.000Z</time>
      </trkpt>
      <trkpt lat="42.95588" lon="0.8517">
        <ele>1500</ele>
        <time>2018-04-02T10:47:13.000Z</time>
      </trkpt>
      <trkpt lat="42.95587" lon="0.85171">
        <ele>1500</ele>
        <time>2018-04-02T10:47:15.000Z</time>
      </trkpt>
      <trkpt lat="42.95587" lon="0.85171">
        <ele>1500</ele>
        <time>2018-04-02T10:47:17.000Z</time>
      </trkpt>
      <trkpt lat="42.95587" lon="0.85172">
        <ele>1500</ele>
        <time>2018-04-02T10:47:19.000Z</time>
      </trkpt>
      <trkpt lat="42.95587" lon="0.85172">
        <ele>1500</ele>
        <time>2018-04-02T10:47:21.000Z</time>
      </trkpt>
      <trkpt lat="42.95586" lon="0.85173">
        <ele>1500</ele>
        <time>2018-04-02T10:47:23.000Z</time>
      </trkpt>
      <trkpt lat="42.95587" lon="0.85173">
        <ele>1500</ele>
        <time>2018-04-02T10:47:25.000Z</time>
      </trkpt>
      <trkpt lat="42.95587" lon="0.85173">
        <ele>1500</ele>
        <time>2018-04-02T10:47:27.000Z</time>
      </trkpt>
      <trkpt lat="42.95587" lon="0.85173">
        <ele>1500</ele>
        <time>2018-04-02T10:47:29.000Z</time>
      </trkpt>
      <trkpt lat="42.95587" lon="0.85174">
        <ele>1500</ele>
        <time>2018-04-02T10:47:31.000Z</time>
      </trkpt>
      <trkpt lat="42.95586" lon="0.85174">
        <ele>1500</ele>
        <time>2018-04-02T10:47:33.000Z</time>
      </trkpt>
      <trkpt lat="42.95585" lon="0.85175">
        <ele>1500</ele>
        <time>2018-04-02T10:47:35.000Z</time>
      </trkpt>
      <trkpt lat="42.95585" lon="0.85175">
        <ele>1500</ele>
        <time>2018-04-02T10:47:37.000Z</time>
      </trkpt>
      <trkpt lat="42.95584" lon="0.85176">
        <ele>1499</ele>
        <time>2018-04-02T10:47:39.000Z</time>
      </trkpt>
      <trkpt lat="42.95584" lon="0.85176">
        <ele>1499</ele>
        <time>2018-04-02T10:47:41.000Z</time>
      </trkpt>
      <trkpt lat="42.95584" lon="0.85177">
        <ele>1499</ele>
        <time>2018-04-02T10:47:43.000Z</time>
      </trkpt>
      <trkpt lat="42.95584" lon="0.85177">
        <ele>1500</ele>
        <time>2018-04-02T10:47:45.000Z</time>
      </trkpt>
      <trkpt lat="42.95584" lon="0.85177">
        <ele>1500</ele>
        <time>2018-04-02T10:47:47.000Z</time>
      </trkpt>
      <trkpt lat="42.95584" lon="0.85177">
        <ele>1500</ele>
        <time>2018-04-02T10:47:49.000Z</time>
      </trkpt>
      <trkpt lat="42.95584" lon="0.85177">
        <ele>1500</ele>
        <time>2018-04-02T10:47:51.000Z</time>
      </trkpt>
      <trkpt lat="42.95584" lon="0.85178">
        <ele>1500</ele>
        <time>2018-04-02T10:47:53.000Z</time>
      </trkpt>
      <trkpt lat="42.95584" lon="0.85178">
        <ele>1500</ele>
        <time>2018-04-02T10:47:55.000Z</time>
      </trkpt>
      <trkpt lat="42.95583" lon="0.85178">
        <ele>1499</ele>
        <time>2018-04-02T10:47:57.000Z</time>
      </trkpt>
      <trkpt lat="42.95583" lon="0.85179">
        <ele>1499</ele>
        <time>2018-04-02T10:47:59.000Z</time>
      </trkpt>
      <trkpt lat="42.95583" lon="0.8518">
        <ele>1500</ele>
        <time>2018-04-02T10:48:01.000Z</time>
      </trkpt>
      <trkpt lat="42.95583" lon="0.8518">
        <ele>1500</ele>
        <time>2018-04-02T10:48:03.000Z</time>
      </trkpt>
      <trkpt lat="42.95583" lon="0.85181">
        <ele>1500</ele>
        <time>2018-04-02T10:48:05.000Z</time>
      </trkpt>
      <trkpt lat="42.95582" lon="0.85181">
        <ele>1500</ele>
        <time>2018-04-02T10:48:07.000Z</time>
      </trkpt>
      <trkpt lat="42.95582" lon="0.85182">
        <ele>1499</ele>
        <time>2018-04-02T10:48:09.000Z</time>
      </trkpt>
      <trkpt lat="42.95581" lon="0.85182">
        <ele>1499</ele>
        <time>2018-04-02T10:48:11.000Z</time>
      </trkpt>
      <trkpt lat="42.95581" lon="0.85182">
        <ele>1499</ele>
        <time>2018-04-02T10:48:13.000Z</time>
      </trkpt>
      <trkpt lat="42.95581" lon="0.85181">
        <ele>1499</ele>
        <time>2018-04-02T10:48:15.000Z</time>
      </trkpt>
      <trkpt lat="42.9558" lon="0.85181">
        <ele>1499</ele>
        <time>2018-04-02T10:48:17.000Z</time>
      </trkpt>
      <trkpt lat="42.9558" lon="0.85181">
        <ele>1499</ele>
        <time>2018-04-02T10:48:19.000Z</time>
      </trkpt>
      <trkpt lat="42.95579" lon="0.8518">
        <ele>1498</ele>
        <time>2018-04-02T10:48:21.000Z</time>
      </trkpt>
      <trkpt lat="42.95579" lon="0.85179">
        <ele>1498</ele>
        <time>2018-04-02T10:48:23.000Z</time>
      </trkpt>
      <trkpt lat="42.95578" lon="0.85178">
        <ele>1498</ele>
        <time>2018-04-02T10:48:25.000Z</time>
      </trkpt>
      <trkpt lat="42.95578" lon="0.85178">
        <ele>1498</ele>
        <time>2018-04-02T10:48:27.000Z</time>
      </trkpt>
      <trkpt lat="42.95577" lon="0.85178">
        <ele>1498</ele>
        <time>2018-04-02T10:48:29.000Z</time>
      </trkpt>
      <trkpt lat="42.95576" lon="0.85179">
        <ele>1498</ele>
        <time>2018-04-02T10:48:31.000Z</time>
      </trkpt>
      <trkpt lat="42.95576" lon="0.8518">
        <ele>1497</ele>
        <time>2018-04-02T10:48:33.000Z</time>
      </trkpt>
      <trkpt lat="42.95576" lon="0.85181">
        <ele>1498</ele>
        <time>2018-04-02T10:48:35.000Z</time>
      </trkpt>
      <trkpt lat="42.95575" lon="0.85182">
        <ele>1498</ele>
        <time>2018-04-02T10:48:37.000Z</time>
      </trkpt>
      <trkpt lat="42.95575" lon="0.85183">
        <ele>1498</ele>
        <time>2018-04-02T10:48:39.000Z</time>
      </trkpt>
      <trkpt lat="42.95575" lon="0.85185">
        <ele>1498</ele>
        <time>2018-04-02T10:48:41.000Z</time>
      </trkpt>
      <trkpt lat="42.95575" lon="0.85186">
        <ele>1498</ele>
        <time>2018-04-02T10:48:43.000Z</time>
      </trkpt>
      <trkpt lat="42.95575" lon="0.85187">
        <ele>1498</ele>
        <time>2018-04-02T10:48:45.000Z</time>
      </trkpt>
      <trkpt lat="42.95576" lon="0.85188">
        <ele>1498</ele>
        <time>2018-04-02T10:48:47.000Z</time>
      </trkpt>
      <trkpt lat="42.95576" lon="0.85189">
        <ele>1498</ele>
        <time>2018-04-02T10:48:49.000Z</time>
      </trkpt>
      <trkpt lat="42.95575" lon="0.8519">
        <ele>1498</ele>
        <time>2018-04-02T10:48:51.000Z</time>
      </trkpt>
      <trkpt lat="42.95574" lon="0.8519">
        <ele>1498</ele>
        <time>2018-04-02T10:48:53.000Z</time>
      </trkpt>
      <trkpt lat="42.95573" lon="0.85191">
        <ele>1498</ele>
        <time>2018-04-02T10:48:55.000Z</time>
      </trkpt>
      <trkpt lat="42.95572" lon="0.85192">
        <ele>1498</ele>
        <time>2018-04-02T10:48:57.000Z</time>
      </trkpt>
      <trkpt lat="42.95572" lon="0.85193">
        <ele>1498</ele>
        <time>2018-04-02T10:48:59.000Z</time>
      </trkpt>
      <trkpt lat="42.95571" lon="0.85195">
        <ele>1498</ele>
        <time>2018-04-02T10:49:01.000Z</time>
      </trkpt>
      <trkpt lat="42.9557" lon="0.85197">
        <ele>1498</ele>
        <time>2018-04-02T10:49:03.000Z</time>
      </trkpt>
      <trkpt lat="42.9557" lon="0.85199">
        <ele>1498</ele>
        <time>2018-04-02T10:49:05.000Z</time>
      </trkpt>
      <trkpt lat="42.9557" lon="0.852">
        <ele>1498</ele>
        <time>2018-04-02T10:49:07.000Z</time>
      </trkpt>
      <trkpt lat="42.9557" lon="0.85201">
        <ele>1498</ele>
        <time>2018-04-02T10:49:09.000Z</time>
      </trkpt>
      <trkpt lat="42.9557" lon="0.85201">
        <ele>1498</ele>
        <time>2018-04-02T10:49:11.000Z</time>
      </trkpt>
      <trkpt lat="42.9557" lon="0.85201">
        <ele>1498</ele>
        <time>2018-04-02T10:49:13.000Z</time>
      </trkpt>
      <trkpt lat="42.9557" lon="0.85201">
        <ele>1498</ele>
        <time>2018-04-02T10:49:15.000Z</time>
      </trkpt>
      <trkpt lat="42.9557" lon="0.85201">
        <ele>1498</ele>
        <time>2018-04-02T10:49:17.000Z</time>
      </trkpt>
      <trkpt lat="42.9557" lon="0.85201">
        <ele>1498</ele>
        <time>2018-04-02T10:49:19.000Z</time>
      </trkpt>
      <trkpt lat="42.9557" lon="0.85201">
        <ele>1498</ele>
        <time>2018-04-02T10:49:21.000Z</time>
      </trkpt>
      <trkpt lat="42.9557" lon="0.85201">
        <ele>1498</ele>
        <time>2018-04-02T10:49:23.000Z</time>
      </trkpt>
      <trkpt lat="42.9557" lon="0.85201">
        <ele>1498</ele>
        <time>2018-04-02T10:49:25.000Z</time>
      </trkpt>
      <trkpt lat="42.9557" lon="0.85203">
        <ele>1499</ele>
        <time>2018-04-02T10:49:27.000Z</time>
      </trkpt>
      <trkpt lat="42.95569" lon="0.85204">
        <ele>1499</ele>
        <time>2018-04-02T10:49:29.000Z</time>
      </trkpt>
      <trkpt lat="42.95569" lon="0.85206">
        <ele>1499</ele>
        <time>2018-04-02T10:49:31.000Z</time>
      </trkpt>
      <trkpt lat="42.95569" lon="0.85207">
        <ele>1499</ele>
        <time>2018-04-02T10:49:33.000Z</time>
      </trkpt>
      <trkpt lat="42.95569" lon="0.85209">
        <ele>1499</ele>
        <time>2018-04-02T10:49:35.000Z</time>
      </trkpt>
      <trkpt lat="42.95569" lon="0.8521">
        <ele>1500</ele>
        <time>2018-04-02T10:49:37.000Z</time>
      </trkpt>
      <trkpt lat="42.95569" lon="0.85212">
        <ele>1500</ele>
        <time>2018-04-02T10:49:39.000Z</time>
      </trkpt>
      <trkpt lat="42.95569" lon="0.85213">
        <ele>1500</ele>
        <time>2018-04-02T10:49:41.000Z</time>
      </trkpt>
      <trkpt lat="42.95569" lon="0.85215">
        <ele>1500</ele>
        <time>2018-04-02T10:49:43.000Z</time>
      </trkpt>
      <trkpt lat="42.95568" lon="0.85216">
        <ele>1500</ele>
        <time>2018-04-02T10:49:45.000Z</time>
      </trkpt>
      <trkpt lat="42.95568" lon="0.85218">
        <ele>1501</ele>
        <time>2018-04-02T10:49:47.000Z</time>
      </trkpt>
      <trkpt lat="42.95568" lon="0.85219">
        <ele>1501</ele>
        <time>2018-04-02T10:49:49.000Z</time>
      </trkpt>
      <trkpt lat="42.95568" lon="0.8522">
        <ele>1501</ele>
        <time>2018-04-02T10:49:51.000Z</time>
      </trkpt>
      <trkpt lat="42.95567" lon="0.85222">
        <ele>1501</ele>
        <time>2018-04-02T10:49:53.000Z</time>
      </trkpt>
      <trkpt lat="42.95567" lon="0.85224">
        <ele>1501</ele>
        <time>2018-04-02T10:49:55.000Z</time>
      </trkpt>
      <trkpt lat="42.95566" lon="0.85225">
        <ele>1502</ele>
        <time>2018-04-02T10:49:57.000Z</time>
      </trkpt>
      <trkpt lat="42.95566" lon="0.85226">
        <ele>1502</ele>
        <time>2018-04-02T10:49:59.000Z</time>
      </trkpt>
      <trkpt lat="42.95566" lon="0.85228">
        <ele>1502</ele>
        <time>2018-04-02T10:50:01.000Z</time>
      </trkpt>
      <trkpt lat="42.95566" lon="0.85229">
        <ele>1502</ele>
        <time>2018-04-02T10:50:03.000Z</time>
      </trkpt>
      <trkpt lat="42.95565" lon="0.85231">
        <ele>1502</ele>
        <time>2018-04-02T10:50:05.000Z</time>
      </trkpt>
      <trkpt lat="42.95565" lon="0.85232">
        <ele>1502</ele>
        <time>2018-04-02T10:50:07.000Z</time>
      </trkpt>
      <trkpt lat="42.95564" lon="0.85234">
        <ele>1503</ele>
        <time>2018-04-02T10:50:09.000Z</time>
      </trkpt>
      <trkpt lat="42.95564" lon="0.85235">
        <ele>1503</ele>
        <time>2018-04-02T10:50:11.000Z</time>
      </trkpt>
      <trkpt lat="42.95563" lon="0.85237">
        <ele>1503</ele>
        <time>2018-04-02T10:50:13.000Z</time>
      </trkpt>
      <trkpt lat="42.95563" lon="0.85238">
        <ele>1503</ele>
        <time>2018-04-02T10:50:15.000Z</time>
      </trkpt>
      <trkpt lat="42.95562" lon="0.8524">
        <ele>1503</ele>
        <time>2018-04-02T10:50:17.000Z</time>
      </trkpt>
      <trkpt lat="42.95562" lon="0.85242">
        <ele>1504</ele>
        <time>2018-04-02T10:50:19.000Z</time>
      </trkpt>
      <trkpt lat="42.95562" lon="0.85243">
        <ele>1504</ele>
        <time>2018-04-02T10:50:21.000Z</time>
      </trkpt>
      <trkpt lat="42.95562" lon="0.85244">
        <ele>1504</ele>
        <time>2018-04-02T10:50:23.000Z</time>
      </trkpt>
      <trkpt lat="42.95562" lon="0.85246">
        <ele>1504</ele>
        <time>2018-04-02T10:50:25.000Z</time>
      </trkpt>
      <trkpt lat="42.95562" lon="0.85247">
        <ele>1505</ele>
        <time>2018-04-02T10:50:27.000Z</time>
      </trkpt>
      <trkpt lat="42.95563" lon="0.85249">
        <ele>1505</ele>
        <time>2018-04-02T10:50:29.000Z</time>
      </trkpt>
      <trkpt lat="42.95563" lon="0.85249">
        <ele>1505</ele>
        <time>2018-04-02T10:50:31.000Z</time>
      </trkpt>
      <trkpt lat="42.95563" lon="0.85249">
        <ele>1505</ele>
        <time>2018-04-02T10:50:33.000Z</time>
      </trkpt>
      <trkpt lat="42.95563" lon="0.85249">
        <ele>1505</ele>
        <time>2018-04-02T10:50:35.000Z</time>
      </trkpt>
      <trkpt lat="42.95563" lon="0.85249">
        <ele>1505</ele>
        <time>2018-04-02T10:50:37.000Z</time>
      </trkpt>
      <trkpt lat="42.95563" lon="0.8525">
        <ele>1505</ele>
        <time>2018-04-02T10:50:39.000Z</time>
      </trkpt>
      <trkpt lat="42.95563" lon="0.85251">
        <ele>1506</ele>
        <time>2018-04-02T10:50:41.000Z</time>
      </trkpt>
      <trkpt lat="42.95564" lon="0.85251">
        <ele>1506</ele>
        <time>2018-04-02T10:50:43.000Z</time>
      </trkpt>
      <trkpt lat="42.95564" lon="0.85252">
        <ele>1506</ele>
        <time>2018-04-02T10:50:45.000Z</time>
      </trkpt>
      <trkpt lat="42.95564" lon="0.85253">
        <ele>1506</ele>
        <time>2018-04-02T10:50:47.000Z</time>
      </trkpt>
      <trkpt lat="42.95564" lon="0.85254">
        <ele>1506</ele>
        <time>2018-04-02T10:50:49.000Z</time>
      </trkpt>
      <trkpt lat="42.95565" lon="0.85255">
        <ele>1506</ele>
        <time>2018-04-02T10:50:51.000Z</time>
      </trkpt>
      <trkpt lat="42.95565" lon="0.85257">
        <ele>1507</ele>
        <time>2018-04-02T10:50:53.000Z</time>
      </trkpt>
      <trkpt lat="42.95565" lon="0.85259">
        <ele>1507</ele>
        <time>2018-04-02T10:50:55.000Z</time>
      </trkpt>
      <trkpt lat="42.95565" lon="0.85261">
        <ele>1508</ele>
        <time>2018-04-02T10:50:57.000Z</time>
      </trkpt>
      <trkpt lat="42.95565" lon="0.85263">
        <ele>1508</ele>
        <time>2018-04-02T10:50:59.000Z</time>
      </trkpt>
      <trkpt lat="42.95566" lon="0.85265">
        <ele>1508</ele>
        <time>2018-04-02T10:51:01.000Z</time>
      </trkpt>
      <trkpt lat="42.95566" lon="0.85267">
        <ele>1509</ele>
        <time>2018-04-02T10:51:03.000Z</time>
      </trkpt>
      <trkpt lat="42.95567" lon="0.85268">
        <ele>1509</ele>
        <time>2018-04-02T10:51:05.000Z</time>
      </trkpt>
      <trkpt lat="42.95567" lon="0.85269">
        <ele>1510</ele>
        <time>2018-04-02T10:51:07.000Z</time>
      </trkpt>
      <trkpt lat="42.95567" lon="0.85271">
        <ele>1510</ele>
        <time>2018-04-02T10:51:09.000Z</time>
      </trkpt>
      <trkpt lat="42.95567" lon="0.85272">
        <ele>1510</ele>
        <time>2018-04-02T10:51:11.000Z</time>
      </trkpt>
      <trkpt lat="42.95567" lon="0.85274">
        <ele>1510</ele>
        <time>2018-04-02T10:51:13.000Z</time>
      </trkpt>
      <trkpt lat="42.95567" lon="0.85275">
        <ele>1511</ele>
        <time>2018-04-02T10:51:15.000Z</time>
      </trkpt>
      <trkpt lat="42.95567" lon="0.85276">
        <ele>1511</ele>
        <time>2018-04-02T10:51:17.000Z</time>
      </trkpt>
      <trkpt lat="42.95567" lon="0.85278">
        <ele>1511</ele>
        <time>2018-04-02T10:51:19.000Z</time>
      </trkpt>
      <trkpt lat="42.95568" lon="0.85279">
        <ele>1511</ele>
        <time>2018-04-02T10:51:21.000Z</time>
      </trkpt>
      <trkpt lat="42.95568" lon="0.85279">
        <ele>1512</ele>
        <time>2018-04-02T10:51:23.000Z</time>
      </trkpt>
      <trkpt lat="42.95568" lon="0.85278">
        <ele>1512</ele>
        <time>2018-04-02T10:51:25.000Z</time>
      </trkpt>
      <trkpt lat="42.95568" lon="0.85278">
        <ele>1512</ele>
        <time>2018-04-02T10:51:27.000Z</time>
      </trkpt>
      <trkpt lat="42.95568" lon="0.85279">
        <ele>1512</ele>
        <time>2018-04-02T10:51:29.000Z</time>
      </trkpt>
      <trkpt lat="42.95568" lon="0.85279">
        <ele>1512</ele>
        <time>2018-04-02T10:51:31.000Z</time>
      </trkpt>
      <trkpt lat="42.95568" lon="0.85279">
        <ele>1512</ele>
        <time>2018-04-02T10:51:33.000Z</time>
      </trkpt>
      <trkpt lat="42.95568" lon="0.85279">
        <ele>1512</ele>
        <time>2018-04-02T10:51:35.000Z</time>
      </trkpt>
      <trkpt lat="42.95568" lon="0.85281">
        <ele>1512</ele>
        <time>2018-04-02T10:51:37.000Z</time>
      </trkpt>
      <trkpt lat="42.95568" lon="0.85282">
        <ele>1512</ele>
        <time>2018-04-02T10:51:39.000Z</time>
      </trkpt>
      <trkpt lat="42.95568" lon="0.85284">
        <ele>1512</ele>
        <time>2018-04-02T10:51:41.000Z</time>
      </trkpt>
      <trkpt lat="42.95567" lon="0.85286">
        <ele>1513</ele>
        <time>2018-04-02T10:51:43.000Z</time>
      </trkpt>
      <trkpt lat="42.95567" lon="0.85288">
        <ele>1513</ele>
        <time>2018-04-02T10:51:45.000Z</time>
      </trkpt>
      <trkpt lat="42.95567" lon="0.8529">
        <ele>1513</ele>
        <time>2018-04-02T10:51:47.000Z</time>
      </trkpt>
      <trkpt lat="42.95567" lon="0.85292">
        <ele>1514</ele>
        <time>2018-04-02T10:51:49.000Z</time>
      </trkpt>
      <trkpt lat="42.95568" lon="0.85294">
        <ele>1514</ele>
        <time>2018-04-02T10:51:51.000Z</time>
      </trkpt>
      <trkpt lat="42.95568" lon="0.85296">
        <ele>1514</ele>
        <time>2018-04-02T10:51:53.000Z</time>
      </trkpt>
      <trkpt lat="42.95568" lon="0.85298">
        <ele>1515</ele>
        <time>2018-04-02T10:51:55.000Z</time>
      </trkpt>
      <trkpt lat="42.95567" lon="0.853">
        <ele>1515</ele>
        <time>2018-04-02T10:51:57.000Z</time>
      </trkpt>
      <trkpt lat="42.95567" lon="0.85301">
        <ele>1515</ele>
        <time>2018-04-02T10:51:59.000Z</time>
      </trkpt>
      <trkpt lat="42.95566" lon="0.85302">
        <ele>1515</ele>
        <time>2018-04-02T10:52:01.000Z</time>
      </trkpt>
      <trkpt lat="42.95565" lon="0.85304">
        <ele>1515</ele>
        <time>2018-04-02T10:52:03.000Z</time>
      </trkpt>
      <trkpt lat="42.95564" lon="0.85305">
        <ele>1515</ele>
        <time>2018-04-02T10:52:05.000Z</time>
      </trkpt>
      <trkpt lat="42.95564" lon="0.85307">
        <ele>1515</ele>
        <time>2018-04-02T10:52:07.000Z</time>
      </trkpt>
      <trkpt lat="42.95564" lon="0.85309">
        <ele>1516</ele>
        <time>2018-04-02T10:52:09.000Z</time>
      </trkpt>
      <trkpt lat="42.95564" lon="0.8531">
        <ele>1516</ele>
        <time>2018-04-02T10:52:11.000Z</time>
      </trkpt>
      <trkpt lat="42.95563" lon="0.85311">
        <ele>1516</ele>
        <time>2018-04-02T10:52:13.000Z</time>
      </trkpt>
      <trkpt lat="42.95563" lon="0.85311">
        <ele>1516</ele>
        <time>2018-04-02T10:52:15.000Z</time>
      </trkpt>
      <trkpt lat="42.95563" lon="0.85312">
        <ele>1516</ele>
        <time>2018-04-02T10:52:17.000Z</time>
      </trkpt>
      <trkpt lat="42.95563" lon="0.85312">
        <ele>1516</ele>
        <time>2018-04-02T10:52:19.000Z</time>
      </trkpt>
      <trkpt lat="42.95563" lon="0.85312">
        <ele>1516</ele>
        <time>2018-04-02T10:52:21.000Z</time>
      </trkpt>
      <trkpt lat="42.95563" lon="0.85312">
        <ele>1516</ele>
        <time>2018-04-02T10:52:23.000Z</time>
      </trkpt>
      <trkpt lat="42.95564" lon="0.85312">
        <ele>1516</ele>
        <time>2018-04-02T10:52:25.000Z</time>
      </trkpt>
      <trkpt lat="42.95564" lon="0.85312">
        <ele>1516</ele>
        <time>2018-04-02T10:52:27.000Z</time>
      </trkpt>
      <trkpt lat="42.95564" lon="0.85312">
        <ele>1516</ele>
        <time>2018-04-02T10:52:29.000Z</time>
      </trkpt>
      <trkpt lat="42.95564" lon="0.85312">
        <ele>1516</ele>
        <time>2018-04-02T10:52:31.000Z</time>
      </trkpt>
      <trkpt lat="42.95564" lon="0.85314">
        <ele>1516</ele>
        <time>2018-04-02T10:52:33.000Z</time>
      </trkpt>
      <trkpt lat="42.95564" lon="0.85315">
        <ele>1516</ele>
        <time>2018-04-02T10:52:35.000Z</time>
      </trkpt>
      <trkpt lat="42.95563" lon="0.85317">
        <ele>1517</ele>
        <time>2018-04-02T10:52:37.000Z</time>
      </trkpt>
      <trkpt lat="42.95563" lon="0.85318">
        <ele>1517</ele>
        <time>2018-04-02T10:52:39.000Z</time>
      </trkpt>
      <trkpt lat="42.95563" lon="0.8532">
        <ele>1517</ele>
        <time>2018-04-02T10:52:41.000Z</time>
      </trkpt>
      <trkpt lat="42.95563" lon="0.85321">
        <ele>1517</ele>
        <time>2018-04-02T10:52:43.000Z</time>
      </trkpt>
      <trkpt lat="42.95563" lon="0.85322">
        <ele>1517</ele>
        <time>2018-04-02T10:52:45.000Z</time>
      </trkpt>
      <trkpt lat="42.95563" lon="0.85324">
        <ele>1518</ele>
        <time>2018-04-02T10:52:47.000Z</time>
      </trkpt>
      <trkpt lat="42.95563" lon="0.85325">
        <ele>1518</ele>
        <time>2018-04-02T10:52:49.000Z</time>
      </trkpt>
      <trkpt lat="42.95563" lon="0.85327">
        <ele>1518</ele>
        <time>2018-04-02T10:52:51.000Z</time>
      </trkpt>
      <trkpt lat="42.95563" lon="0.85328">
        <ele>1518</ele>
        <time>2018-04-02T10:52:53.000Z</time>
      </trkpt>
      <trkpt lat="42.95563" lon="0.8533">
        <ele>1518</ele>
        <time>2018-04-02T10:52:55.000Z</time>
      </trkpt>
      <trkpt lat="42.95563" lon="0.85331">
        <ele>1519</ele>
        <time>2018-04-02T10:52:57.000Z</time>
      </trkpt>
      <trkpt lat="42.95563" lon="0.85333">
        <ele>1519</ele>
        <time>2018-04-02T10:52:59.000Z</time>
      </trkpt>
      <trkpt lat="42.95564" lon="0.85334">
        <ele>1519</ele>
        <time>2018-04-02T10:53:01.000Z</time>
      </trkpt>
      <trkpt lat="42.95564" lon="0.85336">
        <ele>1519</ele>
        <time>2018-04-02T10:53:03.000Z</time>
      </trkpt>
      <trkpt lat="42.95564" lon="0.85337">
        <ele>1520</ele>
        <time>2018-04-02T10:53:05.000Z</time>
      </trkpt>
      <trkpt lat="42.95564" lon="0.85338">
        <ele>1520</ele>
        <time>2018-04-02T10:53:07.000Z</time>
      </trkpt>
      <trkpt lat="42.95564" lon="0.8534">
        <ele>1520</ele>
        <time>2018-04-02T10:53:09.000Z</time>
      </trkpt>
      <trkpt lat="42.95565" lon="0.85341">
        <ele>1520</ele>
        <time>2018-04-02T10:53:11.000Z</time>
      </trkpt>
      <trkpt lat="42.95565" lon="0.85343">
        <ele>1521</ele>
        <time>2018-04-02T10:53:13.000Z</time>
      </trkpt>
      <trkpt lat="42.95565" lon="0.85344">
        <ele>1521</ele>
        <time>2018-04-02T10:53:15.000Z</time>
      </trkpt>
      <trkpt lat="42.95565" lon="0.85345">
        <ele>1521</ele>
        <time>2018-04-02T10:53:17.000Z</time>
      </trkpt>
      <trkpt lat="42.95566" lon="0.85347">
        <ele>1521</ele>
        <time>2018-04-02T10:53:19.000Z</time>
      </trkpt>
      <trkpt lat="42.95566" lon="0.85348">
        <ele>1522</ele>
        <time>2018-04-02T10:53:21.000Z</time>
      </trkpt>
      <trkpt lat="42.95566" lon="0.85349">
        <ele>1522</ele>
        <time>2018-04-02T10:53:23.000Z</time>
      </trkpt>
      <trkpt lat="42.95567" lon="0.85349">
        <ele>1522</ele>
        <time>2018-04-02T10:53:25.000Z</time>
      </trkpt>
      <trkpt lat="42.95567" lon="0.85349">
        <ele>1522</ele>
        <time>2018-04-02T10:53:27.000Z</time>
      </trkpt>
      <trkpt lat="42.95567" lon="0.85349">
        <ele>1522</ele>
        <time>2018-04-02T10:53:29.000Z</time>
      </trkpt>
      <trkpt lat="42.95567" lon="0.8535">
        <ele>1522</ele>
        <time>2018-04-02T10:53:31.000Z</time>
      </trkpt>
      <trkpt lat="42.95567" lon="0.8535">
        <ele>1522</ele>
        <time>2018-04-02T10:53:33.000Z</time>
      </trkpt>
      <trkpt lat="42.95567" lon="0.85351">
        <ele>1523</ele>
        <time>2018-04-02T10:53:35.000Z</time>
      </trkpt>
      <trkpt lat="42.95568" lon="0.85353">
        <ele>1523</ele>
        <time>2018-04-02T10:53:37.000Z</time>
      </trkpt>
      <trkpt lat="42.95568" lon="0.85354">
        <ele>1523</ele>
        <time>2018-04-02T10:53:39.000Z</time>
      </trkpt>
      <trkpt lat="42.95569" lon="0.85356">
        <ele>1523</ele>
        <time>2018-04-02T10:53:41.000Z</time>
      </trkpt>
      <trkpt lat="42.95569" lon="0.85357">
        <ele>1524</ele>
        <time>2018-04-02T10:53:43.000Z</time>
      </trkpt>
      <trkpt lat="42.9557" lon="0.85358">
        <ele>1524</ele>
        <time>2018-04-02T10:53:45.000Z</time>
      </trkpt>
      <trkpt lat="42.9557" lon="0.85358">
        <ele>1524</ele>
        <time>2018-04-02T10:53:47.000Z</time>
      </trkpt>
      <trkpt lat="42.95571" lon="0.85359">
        <ele>1525</ele>
        <time>2018-04-02T10:53:49.000Z</time>
      </trkpt>
      <trkpt lat="42.95571" lon="0.85361">
        <ele>1525</ele>
        <time>2018-04-02T10:53:51.000Z</time>
      </trkpt>
      <trkpt lat="42.95572" lon="0.85362">
        <ele>1525</ele>
        <time>2018-04-02T10:53:53.000Z</time>
      </trkpt>
      <trkpt lat="42.95572" lon="0.85363">
        <ele>1525</ele>
        <time>2018-04-02T10:53:55.000Z</time>
      </trkpt>
      <trkpt lat="42.95573" lon="0.85364">
        <ele>1526</ele>
        <time>2018-04-02T10:53:57.000Z</time>
      </trkpt>
      <trkpt lat="42.95573" lon="0.85365">
        <ele>1526</ele>
        <time>2018-04-02T10:53:59.000Z</time>
      </trkpt>
      <trkpt lat="42.95573" lon="0.85367">
        <ele>1526</ele>
        <time>2018-04-02T10:54:01.000Z</time>
      </trkpt>
      <trkpt lat="42.95572" lon="0.85368">
        <ele>1526</ele>
        <time>2018-04-02T10:54:03.000Z</time>
      </trkpt>
      <trkpt lat="42.95572" lon="0.85369">
        <ele>1526</ele>
        <time>2018-04-02T10:54:05.000Z</time>
      </trkpt>
      <trkpt lat="42.95572" lon="0.8537">
        <ele>1527</ele>
        <time>2018-04-02T10:54:07.000Z</time>
      </trkpt>
      <trkpt lat="42.95573" lon="0.85371">
        <ele>1527</ele>
        <time>2018-04-02T10:54:09.000Z</time>
      </trkpt>
      <trkpt lat="42.95573" lon="0.85371">
        <ele>1527</ele>
        <time>2018-04-02T10:54:11.000Z</time>
      </trkpt>
      <trkpt lat="42.95575" lon="0.85371">
        <ele>1527</ele>
        <time>2018-04-02T10:54:13.000Z</time>
      </trkpt>
      <trkpt lat="42.95575" lon="0.85371">
        <ele>1527</ele>
        <time>2018-04-02T10:54:15.000Z</time>
      </trkpt>
      <trkpt lat="42.95576" lon="0.85371">
        <ele>1528</ele>
        <time>2018-04-02T10:54:17.000Z</time>
      </trkpt>
      <trkpt lat="42.95577" lon="0.85372">
        <ele>1528</ele>
        <time>2018-04-02T10:54:19.000Z</time>
      </trkpt>
      <trkpt lat="42.95577" lon="0.85373">
        <ele>1528</ele>
        <time>2018-04-02T10:54:21.000Z</time>
      </trkpt>
      <trkpt lat="42.95578" lon="0.85374">
        <ele>1528</ele>
        <time>2018-04-02T10:54:23.000Z</time>
      </trkpt>
      <trkpt lat="42.95578" lon="0.85374">
        <ele>1528</ele>
        <time>2018-04-02T10:54:25.000Z</time>
      </trkpt>
      <trkpt lat="42.95578" lon="0.85374">
        <ele>1528</ele>
        <time>2018-04-02T10:54:27.000Z</time>
      </trkpt>
      <trkpt lat="42.95578" lon="0.85374">
        <ele>1528</ele>
        <time>2018-04-02T10:54:29.000Z</time>
      </trkpt>
      <trkpt lat="42.95578" lon="0.85373">
        <ele>1528</ele>
        <time>2018-04-02T10:54:31.000Z</time>
      </trkpt>
      <trkpt lat="42.95578" lon="0.85374">
        <ele>1528</ele>
        <time>2018-04-02T10:54:33.000Z</time>
      </trkpt>
      <trkpt lat="42.95577" lon="0.85375">
        <ele>1529</ele>
        <time>2018-04-02T10:54:35.000Z</time>
      </trkpt>
      <trkpt lat="42.95578" lon="0.85376">
        <ele>1529</ele>
        <time>2018-04-02T10:54:37.000Z</time>
      </trkpt>
      <trkpt lat="42.95578" lon="0.85378">
        <ele>1529</ele>
        <time>2018-04-02T10:54:39.000Z</time>
      </trkpt>
      <trkpt lat="42.95578" lon="0.85379">
        <ele>1529</ele>
        <time>2018-04-02T10:54:41.000Z</time>
      </trkpt>
      <trkpt lat="42.95578" lon="0.85381">
        <ele>1529</ele>
        <time>2018-04-02T10:54:43.000Z</time>
      </trkpt>
      <trkpt lat="42.95579" lon="0.85382">
        <ele>1530</ele>
        <time>2018-04-02T10:54:45.000Z</time>
      </trkpt>
      <trkpt lat="42.95579" lon="0.85384">
        <ele>1530</ele>
        <time>2018-04-02T10:54:47.000Z</time>
      </trkpt>
      <trkpt lat="42.95579" lon="0.85385">
        <ele>1530</ele>
        <time>2018-04-02T10:54:49.000Z</time>
      </trkpt>
      <trkpt lat="42.9558" lon="0.85386">
        <ele>1531</ele>
        <time>2018-04-02T10:54:51.000Z</time>
      </trkpt>
      <trkpt lat="42.9558" lon="0.85388">
        <ele>1531</ele>
        <time>2018-04-02T10:54:53.000Z</time>
      </trkpt>
      <trkpt lat="42.9558" lon="0.8539">
        <ele>1531</ele>
        <time>2018-04-02T10:54:55.000Z</time>
      </trkpt>
      <trkpt lat="42.9558" lon="0.85391">
        <ele>1531</ele>
        <time>2018-04-02T10:54:57.000Z</time>
      </trkpt>
      <trkpt lat="42.95581" lon="0.85392">
        <ele>1531</ele>
        <time>2018-04-02T10:54:59.000Z</time>
      </trkpt>
      <trkpt lat="42.95581" lon="0.85393">
        <ele>1531</ele>
        <time>2018-04-02T10:55:01.000Z</time>
      </trkpt>
      <trkpt lat="42.95581" lon="0.85394">
        <ele>1531</ele>
        <time>2018-04-02T10:55:03.000Z</time>
      </trkpt>
      <trkpt lat="42.95582" lon="0.85394">
        <ele>1531</ele>
        <time>2018-04-02T10:55:05.000Z</time>
      </trkpt>
      <trkpt lat="42.95583" lon="0.85395">
        <ele>1532</ele>
        <time>2018-04-02T10:55:07.000Z</time>
      </trkpt>
      <trkpt lat="42.95583" lon="0.85396">
        <ele>1532</ele>
        <time>2018-04-02T10:55:09.000Z</time>
      </trkpt>
      <trkpt lat="42.95583" lon="0.85396">
        <ele>1532</ele>
        <time>2018-04-02T10:55:11.000Z</time>
      </trkpt>
      <trkpt lat="42.95584" lon="0.85396">
        <ele>1532</ele>
        <time>2018-04-02T10:55:13.000Z</time>
      </trkpt>
      <trkpt lat="42.95584" lon="0.85397">
        <ele>1532</ele>
        <time>2018-04-02T10:55:15.000Z</time>
      </trkpt>
      <trkpt lat="42.95584" lon="0.85398">
        <ele>1532</ele>
        <time>2018-04-02T10:55:17.000Z</time>
      </trkpt>
      <trkpt lat="42.95584" lon="0.85399">
        <ele>1532</ele>
        <time>2018-04-02T10:55:19.000Z</time>
      </trkpt>
      <trkpt lat="42.95584" lon="0.854">
        <ele>1532</ele>
        <time>2018-04-02T10:55:21.000Z</time>
      </trkpt>
      <trkpt lat="42.95585" lon="0.85401">
        <ele>1532</ele>
        <time>2018-04-02T10:55:23.000Z</time>
      </trkpt>
      <trkpt lat="42.95585" lon="0.85403">
        <ele>1532</ele>
        <time>2018-04-02T10:55:25.000Z</time>
      </trkpt>
      <trkpt lat="42.95585" lon="0.85404">
        <ele>1532</ele>
        <time>2018-04-02T10:55:27.000Z</time>
      </trkpt>
      <trkpt lat="42.95586" lon="0.85404">
        <ele>1532</ele>
        <time>2018-04-02T10:55:29.000Z</time>
      </trkpt>
      <trkpt lat="42.95586" lon="0.85405">
        <ele>1532</ele>
        <time>2018-04-02T10:55:31.000Z</time>
      </trkpt>
      <trkpt lat="42.95585" lon="0.85405">
        <ele>1532</ele>
        <time>2018-04-02T10:55:33.000Z</time>
      </trkpt>
      <trkpt lat="42.95586" lon="0.85406">
        <ele>1532</ele>
        <time>2018-04-02T10:55:35.000Z</time>
      </trkpt>
      <trkpt lat="42.95586" lon="0.85406">
        <ele>1532</ele>
        <time>2018-04-02T10:55:37.000Z</time>
      </trkpt>
      <trkpt lat="42.95586" lon="0.85406">
        <ele>1532</ele>
        <time>2018-04-02T10:55:39.000Z</time>
      </trkpt>
      <trkpt lat="42.95586" lon="0.85406">
        <ele>1532</ele>
        <time>2018-04-02T10:55:41.000Z</time>
      </trkpt>
      <trkpt lat="42.95586" lon="0.85406">
        <ele>1532</ele>
        <time>2018-04-02T10:55:43.000Z</time>
      </trkpt>
      <trkpt lat="42.95586" lon="0.85407">
        <ele>1532</ele>
        <time>2018-04-02T10:55:45.000Z</time>
      </trkpt>
      <trkpt lat="42.95586" lon="0.85407">
        <ele>1532</ele>
        <time>2018-04-02T10:55:47.000Z</time>
      </trkpt>
      <trkpt lat="42.95587" lon="0.85407">
        <ele>1532</ele>
        <time>2018-04-02T10:55:49.000Z</time>
      </trkpt>
      <trkpt lat="42.95587" lon="0.85407">
        <ele>1532</ele>
        <time>2018-04-02T10:55:51.000Z</time>
      </trkpt>
      <trkpt lat="42.95587" lon="0.85409">
        <ele>1532</ele>
        <time>2018-04-02T10:55:53.000Z</time>
      </trkpt>
      <trkpt lat="42.95587" lon="0.8541">
        <ele>1532</ele>
        <time>2018-04-02T10:55:55.000Z</time>
      </trkpt>
      <trkpt lat="42.95587" lon="0.85411">
        <ele>1532</ele>
        <time>2018-04-02T10:55:57.000Z</time>
      </trkpt>
      <trkpt lat="42.95587" lon="0.85412">
        <ele>1532</ele>
        <time>2018-04-02T10:55:59.000Z</time>
      </trkpt>
      <trkpt lat="42.95588" lon="0.85413">
        <ele>1533</ele>
        <time>2018-04-02T10:56:01.000Z</time>
      </trkpt>
      <trkpt lat="42.95588" lon="0.85415">
        <ele>1533</ele>
        <time>2018-04-02T10:56:03.000Z</time>
      </trkpt>
      <trkpt lat="42.95589" lon="0.85416">
        <ele>1533</ele>
        <time>2018-04-02T10:56:05.000Z</time>
      </trkpt>
      <trkpt lat="42.95589" lon="0.85416">
        <ele>1533</ele>
        <time>2018-04-02T10:56:07.000Z</time>
      </trkpt>
      <trkpt lat="42.95589" lon="0.85416">
        <ele>1533</ele>
        <time>2018-04-02T10:56:09.000Z</time>
      </trkpt>
      <trkpt lat="42.95589" lon="0.85417">
        <ele>1533</ele>
        <time>2018-04-02T10:56:11.000Z</time>
      </trkpt>
      <trkpt lat="42.95589" lon="0.85417">
        <ele>1533</ele>
        <time>2018-04-02T10:56:13.000Z</time>
      </trkpt>
      <trkpt lat="42.95589" lon="0.85417">
        <ele>1533</ele>
        <time>2018-04-02T10:56:15.000Z</time>
      </trkpt>
      <trkpt lat="42.95588" lon="0.85417">
        <ele>1533</ele>
        <time>2018-04-02T10:56:17.000Z</time>
      </trkpt>
      <trkpt lat="42.95588" lon="0.85418">
        <ele>1533</ele>
        <time>2018-04-02T10:56:19.000Z</time>
      </trkpt>
      <trkpt lat="42.95588" lon="0.85418">
        <ele>1532</ele>
        <time>2018-04-02T10:56:21.000Z</time>
      </trkpt>
      <trkpt lat="42.95588" lon="0.85418">
        <ele>1532</ele>
        <time>2018-04-02T10:56:23.000Z</time>
      </trkpt>
      <trkpt lat="42.95588" lon="0.85418">
        <ele>1532</ele>
        <time>2018-04-02T10:56:25.000Z</time>
      </trkpt>
      <trkpt lat="42.95588" lon="0.85418">
        <ele>1532</ele>
        <time>2018-04-02T10:56:27.000Z</time>
      </trkpt>
      <trkpt lat="42.95588" lon="0.85418">
        <ele>1532</ele>
        <time>2018-04-02T10:56:29.000Z</time>
      </trkpt>
      <trkpt lat="42.95588" lon="0.85418">
        <ele>1532</ele>
        <time>2018-04-02T10:56:31.000Z</time>
      </trkpt>
      <trkpt lat="42.95588" lon="0.85418">
        <ele>1532</ele>
        <time>2018-04-02T10:56:33.000Z</time>
      </trkpt>
      <trkpt lat="42.95588" lon="0.85418">
        <ele>1532</ele>
        <time>2018-04-02T10:56:35.000Z</time>
      </trkpt>
      <trkpt lat="42.95588" lon="0.85419">
        <ele>1532</ele>
        <time>2018-04-02T10:56:37.000Z</time>
      </trkpt>
      <trkpt lat="42.95588" lon="0.85419">
        <ele>1532</ele>
        <time>2018-04-02T10:56:39.000Z</time>
      </trkpt>
      <trkpt lat="42.95588" lon="0.85419">
        <ele>1532</ele>
        <time>2018-04-02T10:56:41.000Z</time>
      </trkpt>
      <trkpt lat="42.95588" lon="0.85419">
        <ele>1532</ele>
        <time>2018-04-02T10:56:43.000Z</time>
      </trkpt>
      <trkpt lat="42.95588" lon="0.85419">
        <ele>1532</ele>
        <time>2018-04-02T10:56:45.000Z</time>
      </trkpt>
      <trkpt lat="42.95588" lon="0.85419">
        <ele>1532</ele>
        <time>2018-04-02T10:56:47.000Z</time>
      </trkpt>
      <trkpt lat="42.95588" lon="0.85419">
        <ele>1532</ele>
        <time>2018-04-02T10:56:49.000Z</time>
      </trkpt>
      <trkpt lat="42.95588" lon="0.8542">
        <ele>1533</ele>
        <time>2018-04-02T10:56:51.000Z</time>
      </trkpt>
      <trkpt lat="42.95589" lon="0.8542">
        <ele>1533</ele>
        <time>2018-04-02T10:56:53.000Z</time>
      </trkpt>
      <trkpt lat="42.9559" lon="0.85421">
        <ele>1533</ele>
        <time>2018-04-02T10:56:55.000Z</time>
      </trkpt>
      <trkpt lat="42.9559" lon="0.85423">
        <ele>1533</ele>
        <time>2018-04-02T10:56:57.000Z</time>
      </trkpt>
      <trkpt lat="42.9559" lon="0.85423">
        <ele>1533</ele>
        <time>2018-04-02T10:56:59.000Z</time>
      </trkpt>
      <trkpt lat="42.9559" lon="0.85425">
        <ele>1533</ele>
        <time>2018-04-02T10:57:01.000Z</time>
      </trkpt>
      <trkpt lat="42.95591" lon="0.85426">
        <ele>1533</ele>
        <time>2018-04-02T10:57:03.000Z</time>
      </trkpt>
      <trkpt lat="42.95591" lon="0.85427">
        <ele>1533</ele>
        <time>2018-04-02T10:57:05.000Z</time>
      </trkpt>
      <trkpt lat="42.95592" lon="0.85429">
        <ele>1533</ele>
        <time>2018-04-02T10:57:07.000Z</time>
      </trkpt>
      <trkpt lat="42.95592" lon="0.8543">
        <ele>1533</ele>
        <time>2018-04-02T10:57:09.000Z</time>
      </trkpt>
      <trkpt lat="42.95592" lon="0.85431">
        <ele>1533</ele>
        <time>2018-04-02T10:57:11.000Z</time>
      </trkpt>
      <trkpt lat="42.95593" lon="0.85432">
        <ele>1533</ele>
        <time>2018-04-02T10:57:13.000Z</time>
      </trkpt>
      <trkpt lat="42.95594" lon="0.85433">
        <ele>1533</ele>
        <time>2018-04-02T10:57:15.000Z</time>
      </trkpt>
      <trkpt lat="42.95594" lon="0.85434">
        <ele>1532</ele>
        <time>2018-04-02T10:57:17.000Z</time>
      </trkpt>
      <trkpt lat="42.95595" lon="0.85435">
        <ele>1532</ele>
        <time>2018-04-02T10:57:19.000Z</time>
      </trkpt>
      <trkpt lat="42.95596" lon="0.85436">
        <ele>1532</ele>
        <time>2018-04-02T10:57:21.000Z</time>
      </trkpt>
      <trkpt lat="42.95597" lon="0.85437">
        <ele>1532</ele>
        <time>2018-04-02T10:57:23.000Z</time>
      </trkpt>
      <trkpt lat="42.95598" lon="0.85439">
        <ele>1532</ele>
        <time>2018-04-02T10:57:25.000Z</time>
      </trkpt>
      <trkpt lat="42.95599" lon="0.8544">
        <ele>1532</ele>
        <time>2018-04-02T10:57:27.000Z</time>
      </trkpt>
      <trkpt lat="42.95599" lon="0.85441">
        <ele>1532</ele>
        <time>2018-04-02T10:57:29.000Z</time>
      </trkpt>
      <trkpt lat="42.956" lon="0.85442">
        <ele>1531</ele>
        <time>2018-04-02T10:57:31.000Z</time>
      </trkpt>
      <trkpt lat="42.95601" lon="0.85444">
        <ele>1531</ele>
        <time>2018-04-02T10:57:33.000Z</time>
      </trkpt>
      <trkpt lat="42.95602" lon="0.85445">
        <ele>1531</ele>
        <time>2018-04-02T10:57:35.000Z</time>
      </trkpt>
      <trkpt lat="42.95603" lon="0.85446">
        <ele>1531</ele>
        <time>2018-04-02T10:57:37.000Z</time>
      </trkpt>
      <trkpt lat="42.95604" lon="0.85448">
        <ele>1531</ele>
        <time>2018-04-02T10:57:39.000Z</time>
      </trkpt>
      <trkpt lat="42.95604" lon="0.8545">
        <ele>1531</ele>
        <time>2018-04-02T10:57:41.000Z</time>
      </trkpt>
      <trkpt lat="42.95604" lon="0.85451">
        <ele>1531</ele>
        <time>2018-04-02T10:57:43.000Z</time>
      </trkpt>
      <trkpt lat="42.95603" lon="0.85453">
        <ele>1531</ele>
        <time>2018-04-02T10:57:45.000Z</time>
      </trkpt>
      <trkpt lat="42.95602" lon="0.85453">
        <ele>1531</ele>
        <time>2018-04-02T10:57:47.000Z</time>
      </trkpt>
      <trkpt lat="42.95601" lon="0.85453">
        <ele>1531</ele>
        <time>2018-04-02T10:57:49.000Z</time>
      </trkpt>
      <trkpt lat="42.95601" lon="0.85453">
        <ele>1531</ele>
        <time>2018-04-02T10:57:51.000Z</time>
      </trkpt>
      <trkpt lat="42.95601" lon="0.85453">
        <ele>1531</ele>
        <time>2018-04-02T10:57:53.000Z</time>
      </trkpt>
      <trkpt lat="42.95601" lon="0.85452">
        <ele>1531</ele>
        <time>2018-04-02T10:57:55.000Z</time>
      </trkpt>
      <trkpt lat="42.95601" lon="0.85453">
        <ele>1531</ele>
        <time>2018-04-02T10:57:57.000Z</time>
      </trkpt>
      <trkpt lat="42.95601" lon="0.85453">
        <ele>1531</ele>
        <time>2018-04-02T10:57:59.000Z</time>
      </trkpt>
      <trkpt lat="42.95601" lon="0.85452">
        <ele>1531</ele>
        <time>2018-04-02T10:58:01.000Z</time>
      </trkpt>
      <trkpt lat="42.95601" lon="0.85452">
        <ele>1531</ele>
        <time>2018-04-02T10:58:03.000Z</time>
      </trkpt>
      <trkpt lat="42.95601" lon="0.85452">
        <ele>1531</ele>
        <time>2018-04-02T10:58:05.000Z</time>
      </trkpt>
      <trkpt lat="42.95601" lon="0.85452">
        <ele>1531</ele>
        <time>2018-04-02T10:58:07.000Z</time>
      </trkpt>
      <trkpt lat="42.95601" lon="0.85452">
        <ele>1531</ele>
        <time>2018-04-02T10:58:09.000Z</time>
      </trkpt>
      <trkpt lat="42.95601" lon="0.85452">
        <ele>1531</ele>
        <time>2018-04-02T10:58:11.000Z</time>
      </trkpt>
      <trkpt lat="42.95601" lon="0.85451">
        <ele>1531</ele>
        <time>2018-04-02T10:58:13.000Z</time>
      </trkpt>
      <trkpt lat="42.95601" lon="0.85451">
        <ele>1531</ele>
        <time>2018-04-02T10:58:15.000Z</time>
      </trkpt>
      <trkpt lat="42.95601" lon="0.85451">
        <ele>1531</ele>
        <time>2018-04-02T10:58:17.000Z</time>
      </trkpt>
      <trkpt lat="42.95601" lon="0.85451">
        <ele>1531</ele>
        <time>2018-04-02T10:58:19.000Z</time>
      </trkpt>
      <trkpt lat="42.95601" lon="0.85451">
        <ele>1531</ele>
        <time>2018-04-02T10:58:21.000Z</time>
      </trkpt>
      <trkpt lat="42.956" lon="0.85451">
        <ele>1531</ele>
        <time>2018-04-02T10:58:23.000Z</time>
      </trkpt>
      <trkpt lat="42.956" lon="0.85451">
        <ele>1531</ele>
        <time>2018-04-02T10:58:25.000Z</time>
      </trkpt>
      <trkpt lat="42.956" lon="0.85451">
        <ele>1531</ele>
        <time>2018-04-02T10:58:27.000Z</time>
      </trkpt>
      <trkpt lat="42.956" lon="0.8545">
        <ele>1531</ele>
        <time>2018-04-02T10:58:29.000Z</time>
      </trkpt>
      <trkpt lat="42.956" lon="0.8545">
        <ele>1531</ele>
        <time>2018-04-02T10:58:31.000Z</time>
      </trkpt>
      <trkpt lat="42.956" lon="0.8545">
        <ele>1531</ele>
        <time>2018-04-02T10:58:33.000Z</time>
      </trkpt>
      <trkpt lat="42.956" lon="0.8545">
        <ele>1531</ele>
        <time>2018-04-02T10:58:35.000Z</time>
      </trkpt>
      <trkpt lat="42.956" lon="0.8545">
        <ele>1531</ele>
        <time>2018-04-02T10:58:37.000Z</time>
      </trkpt>
      <trkpt lat="42.956" lon="0.8545">
        <ele>1531</ele>
        <time>2018-04-02T10:58:39.000Z</time>
      </trkpt>
      <trkpt lat="42.956" lon="0.8545">
        <ele>1531</ele>
        <time>2018-04-02T10:58:41.000Z</time>
      </trkpt>
      <trkpt lat="42.956" lon="0.8545">
        <ele>1531</ele>
        <time>2018-04-02T10:58:43.000Z</time>
      </trkpt>
      <trkpt lat="42.956" lon="0.8545">
        <ele>1531</ele>
        <time>2018-04-02T10:58:45.000Z</time>
      </trkpt>
      <trkpt lat="42.956" lon="0.8545">
        <ele>1531</ele>
        <time>2018-04-02T10:58:47.000Z</time>
      </trkpt>
      <trkpt lat="42.95601" lon="0.8545">
        <ele>1531</ele>
        <time>2018-04-02T10:58:49.000Z</time>
      </trkpt>
      <trkpt lat="42.95601" lon="0.8545">
        <ele>1531</ele>
        <time>2018-04-02T10:58:51.000Z</time>
      </trkpt>
      <trkpt lat="42.95601" lon="0.8545">
        <ele>1531</ele>
        <time>2018-04-02T10:58:53.000Z</time>
      </trkpt>
      <trkpt lat="42.95601" lon="0.8545">
        <ele>1531</ele>
        <time>2018-04-02T10:58:55.000Z</time>
      </trkpt>
      <trkpt lat="42.95601" lon="0.8545">
        <ele>1531</ele>
        <time>2018-04-02T10:58:57.000Z</time>
      </trkpt>
      <trkpt lat="42.95601" lon="0.8545">
        <ele>1531</ele>
        <time>2018-04-02T10:58:59.000Z</time>
      </trkpt>
      <trkpt lat="42.95601" lon="0.8545">
        <ele>1531</ele>
        <time>2018-04-02T10:59:01.000Z</time>
      </trkpt>
      <trkpt lat="42.95601" lon="0.8545">
        <ele>1531</ele>
        <time>2018-04-02T10:59:03.000Z</time>
      </trkpt>
      <trkpt lat="42.95601" lon="0.85451">
        <ele>1531</ele>
        <time>2018-04-02T10:59:05.000Z</time>
      </trkpt>
      <trkpt lat="42.95601" lon="0.85451">
        <ele>1531</ele>
        <time>2018-04-02T10:59:07.000Z</time>
      </trkpt>
      <trkpt lat="42.95601" lon="0.85451">
        <ele>1531</ele>
        <time>2018-04-02T10:59:09.000Z</time>
      </trkpt>
      <trkpt lat="42.95601" lon="0.85451">
        <ele>1531</ele>
        <time>2018-04-02T10:59:11.000Z</time>
      </trkpt>
      <trkpt lat="42.95601" lon="0.85451">
        <ele>1531</ele>
        <time>2018-04-02T10:59:13.000Z</time>
      </trkpt>
      <trkpt lat="42.95601" lon="0.85451">
        <ele>1531</ele>
        <time>2018-04-02T10:59:15.000Z</time>
      </trkpt>
      <trkpt lat="42.95601" lon="0.85451">
        <ele>1531</ele>
        <time>2018-04-02T10:59:17.000Z</time>
      </trkpt>
      <trkpt lat="42.95601" lon="0.85451">
        <ele>1531</ele>
        <time>2018-04-02T10:59:19.000Z</time>
      </trkpt>
      <trkpt lat="42.95601" lon="0.85451">
        <ele>1531</ele>
        <time>2018-04-02T10:59:21.000Z</time>
      </trkpt>
      <trkpt lat="42.95601" lon="0.85451">
        <ele>1531</ele>
        <time>2018-04-02T10:59:23.000Z</time>
      </trkpt>
      <trkpt lat="42.95601" lon="0.85451">
        <ele>1531</ele>
        <time>2018-04-02T10:59:25.000Z</time>
      </trkpt>
      <trkpt lat="42.956" lon="0.85451">
        <ele>1531</ele>
        <time>2018-04-02T10:59:27.000Z</time>
      </trkpt>
      <trkpt lat="42.956" lon="0.85451">
        <ele>1531</ele>
        <time>2018-04-02T10:59:29.000Z</time>
      </trkpt>
      <trkpt lat="42.956" lon="0.85451">
        <ele>1531</ele>
        <time>2018-04-02T10:59:31.000Z</time>
      </trkpt>
      <trkpt lat="42.956" lon="0.85451">
        <ele>1531</ele>
        <time>2018-04-02T10:59:33.000Z</time>
      </trkpt>
      <trkpt lat="42.956" lon="0.85451">
        <ele>1531</ele>
        <time>2018-04-02T10:59:35.000Z</time>
      </trkpt>
      <trkpt lat="42.956" lon="0.85451">
        <ele>1531</ele>
        <time>2018-04-02T10:59:37.000Z</time>
      </trkpt>
      <trkpt lat="42.956" lon="0.85451">
        <ele>1531</ele>
        <time>2018-04-02T10:59:39.000Z</time>
      </trkpt>
      <trkpt lat="42.956" lon="0.8545">
        <ele>1531</ele>
        <time>2018-04-02T10:59:41.000Z</time>
      </trkpt>
      <trkpt lat="42.956" lon="0.8545">
        <ele>1531</ele>
        <time>2018-04-02T10:59:43.000Z</time>
      </trkpt>
      <trkpt lat="42.956" lon="0.85451">
        <ele>1531</ele>
        <time>2018-04-02T10:59:45.000Z</time>
      </trkpt>
      <trkpt lat="42.95601" lon="0.85451">
        <ele>1531</ele>
        <time>2018-04-02T10:59:47.000Z</time>
      </trkpt>
      <trkpt lat="42.95601" lon="0.85451">
        <ele>1531</ele>
        <time>2018-04-02T10:59:49.000Z</time>
      </trkpt>
      <trkpt lat="42.95602" lon="0.85452">
        <ele>1531</ele>
        <time>2018-04-02T10:59:51.000Z</time>
      </trkpt>
      <trkpt lat="42.95602" lon="0.85452">
        <ele>1531</ele>
        <time>2018-04-02T10:59:53.000Z</time>
      </trkpt>
      <trkpt lat="42.95602" lon="0.85451">
        <ele>1531</ele>
        <time>2018-04-02T10:59:55.000Z</time>
      </trkpt>
      <trkpt lat="42.95602" lon="0.85451">
        <ele>1531</ele>
        <time>2018-04-02T10:59:57.000Z</time>
      </trkpt>
      <trkpt lat="42.95602" lon="0.85452">
        <ele>1531</ele>
        <time>2018-04-02T10:59:59.000Z</time>
      </trkpt>
      <trkpt lat="42.95602" lon="0.85452">
        <ele>1531</ele>
        <time>2018-04-02T11:00:01.000Z</time>
      </trkpt>
      <trkpt lat="42.95602" lon="0.85452">
        <ele>1531</ele>
        <time>2018-04-02T11:00:03.000Z</time>
      </trkpt>
      <trkpt lat="42.95602" lon="0.85452">
        <ele>1531</ele>
        <time>2018-04-02T11:00:05.000Z</time>
      </trkpt>
      <trkpt lat="42.95602" lon="0.85452">
        <ele>1531</ele>
        <time>2018-04-02T11:00:07.000Z</time>
      </trkpt>
      <trkpt lat="42.95602" lon="0.85452">
        <ele>1531</ele>
        <time>2018-04-02T11:00:09.000Z</time>
      </trkpt>
      <trkpt lat="42.95602" lon="0.85452">
        <ele>1531</ele>
        <time>2018-04-02T11:00:11.000Z</time>
      </trkpt>
      <trkpt lat="42.95602" lon="0.85452">
        <ele>1531</ele>
        <time>2018-04-02T11:00:13.000Z</time>
      </trkpt>
      <trkpt lat="42.95602" lon="0.85452">
        <ele>1531</ele>
        <time>2018-04-02T11:00:15.000Z</time>
      </trkpt>
      <trkpt lat="42.95602" lon="0.85452">
        <ele>1531</ele>
        <time>2018-04-02T11:00:17.000Z</time>
      </trkpt>
      <trkpt lat="42.95602" lon="0.85452">
        <ele>1531</ele>
        <time>2018-04-02T11:00:19.000Z</time>
      </trkpt>
      <trkpt lat="42.95602" lon="0.85453">
        <ele>1531</ele>
        <time>2018-04-02T11:00:21.000Z</time>
      </trkpt>
      <trkpt lat="42.95602" lon="0.85453">
        <ele>1531</ele>
        <time>2018-04-02T11:00:23.000Z</time>
      </trkpt>
      <trkpt lat="42.95602" lon="0.85453">
        <ele>1531</ele>
        <time>2018-04-02T11:00:25.000Z</time>
      </trkpt>
      <trkpt lat="42.95602" lon="0.85453">
        <ele>1531</ele>
        <time>2018-04-02T11:00:27.000Z</time>
      </trkpt>
      <trkpt lat="42.95602" lon="0.85454">
        <ele>1531</ele>
        <time>2018-04-02T11:00:29.000Z</time>
      </trkpt>
      <trkpt lat="42.95602" lon="0.85455">
        <ele>1531</ele>
        <time>2018-04-02T11:00:31.000Z</time>
      </trkpt>
      <trkpt lat="42.95601" lon="0.85456">
        <ele>1531</ele>
        <time>2018-04-02T11:00:33.000Z</time>
      </trkpt>
      <trkpt lat="42.95601" lon="0.85457">
        <ele>1531</ele>
        <time>2018-04-02T11:00:35.000Z</time>
      </trkpt>
      <trkpt lat="42.95601" lon="0.85458">
        <ele>1531</ele>
        <time>2018-04-02T11:00:37.000Z</time>
      </trkpt>
      <trkpt lat="42.95601" lon="0.85459">
        <ele>1531</ele>
        <time>2018-04-02T11:00:39.000Z</time>
      </trkpt>
      <trkpt lat="42.95602" lon="0.8546">
        <ele>1531</ele>
        <time>2018-04-02T11:00:41.000Z</time>
      </trkpt>
      <trkpt lat="42.95602" lon="0.85461">
        <ele>1531</ele>
        <time>2018-04-02T11:00:43.000Z</time>
      </trkpt>
      <trkpt lat="42.95602" lon="0.85463">
        <ele>1531</ele>
        <time>2018-04-02T11:00:45.000Z</time>
      </trkpt>
      <trkpt lat="42.95602" lon="0.85464">
        <ele>1531</ele>
        <time>2018-04-02T11:00:47.000Z</time>
      </trkpt>
      <trkpt lat="42.95602" lon="0.85466">
        <ele>1531</ele>
        <time>2018-04-02T11:00:49.000Z</time>
      </trkpt>
      <trkpt lat="42.95601" lon="0.85467">
        <ele>1531</ele>
        <time>2018-04-02T11:00:51.000Z</time>
      </trkpt>
      <trkpt lat="42.956" lon="0.85468">
        <ele>1531</ele>
        <time>2018-04-02T11:00:53.000Z</time>
      </trkpt>
      <trkpt lat="42.956" lon="0.85469">
        <ele>1531</ele>
        <time>2018-04-02T11:00:55.000Z</time>
      </trkpt>
      <trkpt lat="42.956" lon="0.85469">
        <ele>1531</ele>
        <time>2018-04-02T11:00:57.000Z</time>
      </trkpt>
      <trkpt lat="42.95599" lon="0.85469">
        <ele>1531</ele>
        <time>2018-04-02T11:00:59.000Z</time>
      </trkpt>
      <trkpt lat="42.956" lon="0.85469">
        <ele>1531</ele>
        <time>2018-04-02T11:01:01.000Z</time>
      </trkpt>
      <trkpt lat="42.956" lon="0.85469">
        <ele>1531</ele>
        <time>2018-04-02T11:01:03.000Z</time>
      </trkpt>
      <trkpt lat="42.956" lon="0.85468">
        <ele>1531</ele>
        <time>2018-04-02T11:01:05.000Z</time>
      </trkpt>
      <trkpt lat="42.956" lon="0.85468">
        <ele>1531</ele>
        <time>2018-04-02T11:01:07.000Z</time>
      </trkpt>
      <trkpt lat="42.956" lon="0.85468">
        <ele>1531</ele>
        <time>2018-04-02T11:01:09.000Z</time>
      </trkpt>
      <trkpt lat="42.956" lon="0.85468">
        <ele>1531</ele>
        <time>2018-04-02T11:01:11.000Z</time>
      </trkpt>
      <trkpt lat="42.956" lon="0.85468">
        <ele>1531</ele>
        <time>2018-04-02T11:01:13.000Z</time>
      </trkpt>
      <trkpt lat="42.956" lon="0.85468">
        <ele>1531</ele>
        <time>2018-04-02T11:01:15.000Z</time>
      </trkpt>
      <trkpt lat="42.956" lon="0.85468">
        <ele>1531</ele>
        <time>2018-04-02T11:01:17.000Z</time>
      </trkpt>
      <trkpt lat="42.956" lon="0.85469">
        <ele>1531</ele>
        <time>2018-04-02T11:01:19.000Z</time>
      </trkpt>
      <trkpt lat="42.956" lon="0.85469">
        <ele>1531</ele>
        <time>2018-04-02T11:01:21.000Z</time>
      </trkpt>
      <trkpt lat="42.956" lon="0.8547">
        <ele>1531</ele>
        <time>2018-04-02T11:01:23.000Z</time>
      </trkpt>
      <trkpt lat="42.956" lon="0.85471">
        <ele>1531</ele>
        <time>2018-04-02T11:01:25.000Z</time>
      </trkpt>
      <trkpt lat="42.95599" lon="0.85473">
        <ele>1531</ele>
        <time>2018-04-02T11:01:27.000Z</time>
      </trkpt>
      <trkpt lat="42.95599" lon="0.85474">
        <ele>1530</ele>
        <time>2018-04-02T11:01:29.000Z</time>
      </trkpt>
      <trkpt lat="42.95598" lon="0.85476">
        <ele>1530</ele>
        <time>2018-04-02T11:01:31.000Z</time>
      </trkpt>
      <trkpt lat="42.95598" lon="0.85477">
        <ele>1530</ele>
        <time>2018-04-02T11:01:33.000Z</time>
      </trkpt>
      <trkpt lat="42.95598" lon="0.85478">
        <ele>1530</ele>
        <time>2018-04-02T11:01:35.000Z</time>
      </trkpt>
      <trkpt lat="42.95597" lon="0.85479">
        <ele>1530</ele>
        <time>2018-04-02T11:01:37.000Z</time>
      </trkpt>
      <trkpt lat="42.95597" lon="0.85479">
        <ele>1530</ele>
        <time>2018-04-02T11:01:39.000Z</time>
      </trkpt>
      <trkpt lat="42.95596" lon="0.8548">
        <ele>1530</ele>
        <time>2018-04-02T11:01:41.000Z</time>
      </trkpt>
      <trkpt lat="42.95596" lon="0.85481">
        <ele>1530</ele>
        <time>2018-04-02T11:01:43.000Z</time>
      </trkpt>
      <trkpt lat="42.95595" lon="0.85482">
        <ele>1529</ele>
        <time>2018-04-02T11:01:45.000Z</time>
      </trkpt>
      <trkpt lat="42.95595" lon="0.85483">
        <ele>1529</ele>
        <time>2018-04-02T11:01:47.000Z</time>
      </trkpt>
      <trkpt lat="42.95595" lon="0.85483">
        <ele>1529</ele>
        <time>2018-04-02T11:01:49.000Z</time>
      </trkpt>
      <trkpt lat="42.95594" lon="0.85483">
        <ele>1529</ele>
        <time>2018-04-02T11:01:51.000Z</time>
      </trkpt>
      <trkpt lat="42.95594" lon="0.85484">
        <ele>1529</ele>
        <time>2018-04-02T11:01:53.000Z</time>
      </trkpt>
      <trkpt lat="42.95594" lon="0.85485">
        <ele>1529</ele>
        <time>2018-04-02T11:01:55.000Z</time>
      </trkpt>
      <trkpt lat="42.95593" lon="0.85486">
        <ele>1529</ele>
        <time>2018-04-02T11:01:57.000Z</time>
      </trkpt>
      <trkpt lat="42.95593" lon="0.85486">
        <ele>1529</ele>
        <time>2018-04-02T11:01:59.000Z</time>
      </trkpt>
      <trkpt lat="42.95592" lon="0.85487">
        <ele>1529</ele>
        <time>2018-04-02T11:02:01.000Z</time>
      </trkpt>
      <trkpt lat="42.95592" lon="0.85488">
        <ele>1529</ele>
        <time>2018-04-02T11:02:03.000Z</time>
      </trkpt>
      <trkpt lat="42.95591" lon="0.85489">
        <ele>1529</ele>
        <time>2018-04-02T11:02:05.000Z</time>
      </trkpt>
      <trkpt lat="42.95591" lon="0.8549">
        <ele>1529</ele>
        <time>2018-04-02T11:02:07.000Z</time>
      </trkpt>
      <trkpt lat="42.9559" lon="0.85492">
        <ele>1528</ele>
        <time>2018-04-02T11:02:09.000Z</time>
      </trkpt>
      <trkpt lat="42.9559" lon="0.85494">
        <ele>1528</ele>
        <time>2018-04-02T11:02:11.000Z</time>
      </trkpt>
      <trkpt lat="42.95589" lon="0.85495">
        <ele>1527</ele>
        <time>2018-04-02T11:02:13.000Z</time>
      </trkpt>
      <trkpt lat="42.95589" lon="0.85497">
        <ele>1527</ele>
        <time>2018-04-02T11:02:15.000Z</time>
      </trkpt>
      <trkpt lat="42.95588" lon="0.85499">
        <ele>1527</ele>
        <time>2018-04-02T11:02:17.000Z</time>
      </trkpt>
      <trkpt lat="42.95588" lon="0.855">
        <ele>1526</ele>
        <time>2018-04-02T11:02:19.000Z</time>
      </trkpt>
      <trkpt lat="42.95587" lon="0.85502">
        <ele>1526</ele>
        <time>2018-04-02T11:02:21.000Z</time>
      </trkpt>
      <trkpt lat="42.95587" lon="0.85503">
        <ele>1525</ele>
        <time>2018-04-02T11:02:23.000Z</time>
      </trkpt>
      <trkpt lat="42.95586" lon="0.85505">
        <ele>1525</ele>
        <time>2018-04-02T11:02:25.000Z</time>
      </trkpt>
      <trkpt lat="42.95586" lon="0.85507">
        <ele>1524</ele>
        <time>2018-04-02T11:02:27.000Z</time>
      </trkpt>
      <trkpt lat="42.95585" lon="0.85508">
        <ele>1524</ele>
        <time>2018-04-02T11:02:29.000Z</time>
      </trkpt>
      <trkpt lat="42.95585" lon="0.8551">
        <ele>1524</ele>
        <time>2018-04-02T11:02:31.000Z</time>
      </trkpt>
      <trkpt lat="42.95585" lon="0.85511">
        <ele>1524</ele>
        <time>2018-04-02T11:02:33.000Z</time>
      </trkpt>
      <trkpt lat="42.95584" lon="0.85512">
        <ele>1523</ele>
        <time>2018-04-02T11:02:35.000Z</time>
      </trkpt>
      <trkpt lat="42.95584" lon="0.85513">
        <ele>1523</ele>
        <time>2018-04-02T11:02:37.000Z</time>
      </trkpt>
      <trkpt lat="42.95583" lon="0.85515">
        <ele>1522</ele>
        <time>2018-04-02T11:02:39.000Z</time>
      </trkpt>
      <trkpt lat="42.95582" lon="0.85516">
        <ele>1522</ele>
        <time>2018-04-02T11:02:41.000Z</time>
      </trkpt>
      <trkpt lat="42.95581" lon="0.85517">
        <ele>1521</ele>
        <time>2018-04-02T11:02:43.000Z</time>
      </trkpt>
      <trkpt lat="42.9558" lon="0.85519">
        <ele>1521</ele>
        <time>2018-04-02T11:02:45.000Z</time>
      </trkpt>
      <trkpt lat="42.95579" lon="0.8552">
        <ele>1521</ele>
        <time>2018-04-02T11:02:47.000Z</time>
      </trkpt>
      <trkpt lat="42.95579" lon="0.85522">
        <ele>1520</ele>
        <time>2018-04-02T11:02:49.000Z</time>
      </trkpt>
      <trkpt lat="42.95578" lon="0.85523">
        <ele>1520</ele>
        <time>2018-04-02T11:02:51.000Z</time>
      </trkpt>
      <trkpt lat="42.95577" lon="0.85525">
        <ele>1519</ele>
        <time>2018-04-02T11:02:53.000Z</time>
      </trkpt>
      <trkpt lat="42.95576" lon="0.85527">
        <ele>1519</ele>
        <time>2018-04-02T11:02:55.000Z</time>
      </trkpt>
      <trkpt lat="42.95576" lon="0.85528">
        <ele>1518</ele>
        <time>2018-04-02T11:02:57.000Z</time>
      </trkpt>
      <trkpt lat="42.95576" lon="0.8553">
        <ele>1518</ele>
        <time>2018-04-02T11:02:59.000Z</time>
      </trkpt>
      <trkpt lat="42.95575" lon="0.85532">
        <ele>1517</ele>
        <time>2018-04-02T11:03:01.000Z</time>
      </trkpt>
      <trkpt lat="42.95575" lon="0.85535">
        <ele>1517</ele>
        <time>2018-04-02T11:03:03.000Z</time>
      </trkpt>
      <trkpt lat="42.95575" lon="0.85536">
        <ele>1517</ele>
        <time>2018-04-02T11:03:05.000Z</time>
      </trkpt>
      <trkpt lat="42.95574" lon="0.85538">
        <ele>1516</ele>
        <time>2018-04-02T11:03:07.000Z</time>
      </trkpt>
      <trkpt lat="42.95574" lon="0.8554">
        <ele>1516</ele>
        <time>2018-04-02T11:03:09.000Z</time>
      </trkpt>
      <trkpt lat="42.95573" lon="0.85542">
        <ele>1516</ele>
        <time>2018-04-02T11:03:11.000Z</time>
      </trkpt>
      <trkpt lat="42.95573" lon="0.85544">
        <ele>1515</ele>
        <time>2018-04-02T11:03:13.000Z</time>
      </trkpt>
      <trkpt lat="42.95573" lon="0.85545">
        <ele>1515</ele>
        <time>2018-04-02T11:03:15.000Z</time>
      </trkpt>
      <trkpt lat="42.95573" lon="0.85546">
        <ele>1515</ele>
        <time>2018-04-02T11:03:17.000Z</time>
      </trkpt>
      <trkpt lat="42.95573" lon="0.85547">
        <ele>1515</ele>
        <time>2018-04-02T11:03:19.000Z</time>
      </trkpt>
      <trkpt lat="42.95573" lon="0.85548">
        <ele>1515</ele>
        <time>2018-04-02T11:03:21.000Z</time>
      </trkpt>
      <trkpt lat="42.95573" lon="0.85549">
        <ele>1515</ele>
        <time>2018-04-02T11:03:23.000Z</time>
      </trkpt>
      <trkpt lat="42.95574" lon="0.8555">
        <ele>1515</ele>
        <time>2018-04-02T11:03:25.000Z</time>
      </trkpt>
      <trkpt lat="42.95574" lon="0.85551">
        <ele>1515</ele>
        <time>2018-04-02T11:03:27.000Z</time>
      </trkpt>
      <trkpt lat="42.95574" lon="0.85552">
        <ele>1515</ele>
        <time>2018-04-02T11:03:29.000Z</time>
      </trkpt>
      <trkpt lat="42.95574" lon="0.85553">
        <ele>1515</ele>
        <time>2018-04-02T11:03:31.000Z</time>
      </trkpt>
      <trkpt lat="42.95574" lon="0.85555">
        <ele>1515</ele>
        <time>2018-04-02T11:03:33.000Z</time>
      </trkpt>
      <trkpt lat="42.95575" lon="0.85557">
        <ele>1514</ele>
        <time>2018-04-02T11:03:35.000Z</time>
      </trkpt>
      <trkpt lat="42.95575" lon="0.85558">
        <ele>1514</ele>
        <time>2018-04-02T11:03:37.000Z</time>
      </trkpt>
      <trkpt lat="42.95576" lon="0.8556">
        <ele>1514</ele>
        <time>2018-04-02T11:03:39.000Z</time>
      </trkpt>
      <trkpt lat="42.95576" lon="0.85561">
        <ele>1513</ele>
        <time>2018-04-02T11:03:41.000Z</time>
      </trkpt>
      <trkpt lat="42.95576" lon="0.85563">
        <ele>1513</ele>
        <time>2018-04-02T11:03:43.000Z</time>
      </trkpt>
      <trkpt lat="42.95577" lon="0.85564">
        <ele>1513</ele>
        <time>2018-04-02T11:03:45.000Z</time>
      </trkpt>
      <trkpt lat="42.95578" lon="0.85566">
        <ele>1512</ele>
        <time>2018-04-02T11:03:47.000Z</time>
      </trkpt>
      <trkpt lat="42.95578" lon="0.85567">
        <ele>1512</ele>
        <time>2018-04-02T11:03:49.000Z</time>
      </trkpt>
      <trkpt lat="42.95578" lon="0.85569">
        <ele>1512</ele>
        <time>2018-04-02T11:03:51.000Z</time>
      </trkpt>
      <trkpt lat="42.95578" lon="0.8557">
        <ele>1511</ele>
        <time>2018-04-02T11:03:53.000Z</time>
      </trkpt>
      <trkpt lat="42.95579" lon="0.85572">
        <ele>1511</ele>
        <time>2018-04-02T11:03:55.000Z</time>
      </trkpt>
      <trkpt lat="42.95579" lon="0.85573">
        <ele>1511</ele>
        <time>2018-04-02T11:03:57.000Z</time>
      </trkpt>
      <trkpt lat="42.95579" lon="0.85574">
        <ele>1510</ele>
        <time>2018-04-02T11:03:59.000Z</time>
      </trkpt>
      <trkpt lat="42.95579" lon="0.85575">
        <ele>1510</ele>
        <time>2018-04-02T11:04:01.000Z</time>
      </trkpt>
      <trkpt lat="42.9558" lon="0.85577">
        <ele>1510</ele>
        <time>2018-04-02T11:04:03.000Z</time>
      </trkpt>
      <trkpt lat="42.9558" lon="0.85579">
        <ele>1509</ele>
        <time>2018-04-02T11:04:05.000Z</time>
      </trkpt>
      <trkpt lat="42.9558" lon="0.8558">
        <ele>1509</ele>
        <time>2018-04-02T11:04:07.000Z</time>
      </trkpt>
      <trkpt lat="42.9558" lon="0.85582">
        <ele>1508</ele>
        <time>2018-04-02T11:04:09.000Z</time>
      </trkpt>
      <trkpt lat="42.9558" lon="0.85583">
        <ele>1508</ele>
        <time>2018-04-02T11:04:11.000Z</time>
      </trkpt>
      <trkpt lat="42.9558" lon="0.85584">
        <ele>1508</ele>
        <time>2018-04-02T11:04:13.000Z</time>
      </trkpt>
      <trkpt lat="42.95581" lon="0.85586">
        <ele>1508</ele>
        <time>2018-04-02T11:04:15.000Z</time>
      </trkpt>
      <trkpt lat="42.95581" lon="0.85587">
        <ele>1507</ele>
        <time>2018-04-02T11:04:17.000Z</time>
      </trkpt>
      <trkpt lat="42.95582" lon="0.85588">
        <ele>1507</ele>
        <time>2018-04-02T11:04:19.000Z</time>
      </trkpt>
      <trkpt lat="42.95582" lon="0.85589">
        <ele>1507</ele>
        <time>2018-04-02T11:04:21.000Z</time>
      </trkpt>
      <trkpt lat="42.95583" lon="0.85591">
        <ele>1506</ele>
        <time>2018-04-02T11:04:23.000Z</time>
      </trkpt>
      <trkpt lat="42.95583" lon="0.85592">
        <ele>1506</ele>
        <time>2018-04-02T11:04:25.000Z</time>
      </trkpt>
      <trkpt lat="42.95584" lon="0.85594">
        <ele>1506</ele>
        <time>2018-04-02T11:04:27.000Z</time>
      </trkpt>
      <trkpt lat="42.95584" lon="0.85595">
        <ele>1505</ele>
        <time>2018-04-02T11:04:29.000Z</time>
      </trkpt>
      <trkpt lat="42.95585" lon="0.85597">
        <ele>1505</ele>
        <time>2018-04-02T11:04:31.000Z</time>
      </trkpt>
      <trkpt lat="42.95585" lon="0.85598">
        <ele>1505</ele>
        <time>2018-04-02T11:04:33.000Z</time>
      </trkpt>
      <trkpt lat="42.95586" lon="0.856">
        <ele>1504</ele>
        <time>2018-04-02T11:04:35.000Z</time>
      </trkpt>
      <trkpt lat="42.95586" lon="0.85602">
        <ele>1504</ele>
        <time>2018-04-02T11:04:37.000Z</time>
      </trkpt>
      <trkpt lat="42.95587" lon="0.85603">
        <ele>1504</ele>
        <time>2018-04-02T11:04:39.000Z</time>
      </trkpt>
      <trkpt lat="42.95588" lon="0.85605">
        <ele>1503</ele>
        <time>2018-04-02T11:04:41.000Z</time>
      </trkpt>
      <trkpt lat="42.95589" lon="0.85607">
        <ele>1503</ele>
        <time>2018-04-02T11:04:43.000Z</time>
      </trkpt>
      <trkpt lat="42.9559" lon="0.85608">
        <ele>1503</ele>
        <time>2018-04-02T11:04:45.000Z</time>
      </trkpt>
      <trkpt lat="42.95591" lon="0.8561">
        <ele>1502</ele>
        <time>2018-04-02T11:04:47.000Z</time>
      </trkpt>
      <trkpt lat="42.95592" lon="0.85612">
        <ele>1502</ele>
        <time>2018-04-02T11:04:49.000Z</time>
      </trkpt>
      <trkpt lat="42.95593" lon="0.85614">
        <ele>1501</ele>
        <time>2018-04-02T11:04:51.000Z</time>
      </trkpt>
      <trkpt lat="42.95593" lon="0.85615">
        <ele>1501</ele>
        <time>2018-04-02T11:04:53.000Z</time>
      </trkpt>
      <trkpt lat="42.95594" lon="0.85616">
        <ele>1501</ele>
        <time>2018-04-02T11:04:55.000Z</time>
      </trkpt>
      <trkpt lat="42.95595" lon="0.85617">
        <ele>1500</ele>
        <time>2018-04-02T11:04:57.000Z</time>
      </trkpt>
      <trkpt lat="42.95597" lon="0.85619">
        <ele>1500</ele>
        <time>2018-04-02T11:04:59.000Z</time>
      </trkpt>
      <trkpt lat="42.95598" lon="0.8562">
        <ele>1499</ele>
        <time>2018-04-02T11:05:01.000Z</time>
      </trkpt>
      <trkpt lat="42.95598" lon="0.85621">
        <ele>1499</ele>
        <time>2018-04-02T11:05:03.000Z</time>
      </trkpt>
      <trkpt lat="42.95599" lon="0.85623">
        <ele>1499</ele>
        <time>2018-04-02T11:05:05.000Z</time>
      </trkpt>
      <trkpt lat="42.95601" lon="0.85624">
        <ele>1498</ele>
        <time>2018-04-02T11:05:07.000Z</time>
      </trkpt>
      <trkpt lat="42.95602" lon="0.85626">
        <ele>1498</ele>
        <time>2018-04-02T11:05:09.000Z</time>
      </trkpt>
      <trkpt lat="42.95603" lon="0.85627">
        <ele>1497</ele>
        <time>2018-04-02T11:05:11.000Z</time>
      </trkpt>
      <trkpt lat="42.95604" lon="0.85629">
        <ele>1497</ele>
        <time>2018-04-02T11:05:13.000Z</time>
      </trkpt>
      <trkpt lat="42.95605" lon="0.85631">
        <ele>1496</ele>
        <time>2018-04-02T11:05:15.000Z</time>
      </trkpt>
      <trkpt lat="42.95605" lon="0.85633">
        <ele>1496</ele>
        <time>2018-04-02T11:05:17.000Z</time>
      </trkpt>
      <trkpt lat="42.95606" lon="0.85634">
        <ele>1495</ele>
        <time>2018-04-02T11:05:19.000Z</time>
      </trkpt>
      <trkpt lat="42.95607" lon="0.85636">
        <ele>1495</ele>
        <time>2018-04-02T11:05:21.000Z</time>
      </trkpt>
      <trkpt lat="42.95608" lon="0.85638">
        <ele>1494</ele>
        <time>2018-04-02T11:05:23.000Z</time>
      </trkpt>
      <trkpt lat="42.95609" lon="0.8564">
        <ele>1494</ele>
        <time>2018-04-02T11:05:25.000Z</time>
      </trkpt>
      <trkpt lat="42.9561" lon="0.85642">
        <ele>1494</ele>
        <time>2018-04-02T11:05:27.000Z</time>
      </trkpt>
      <trkpt lat="42.95611" lon="0.85644">
        <ele>1494</ele>
        <time>2018-04-02T11:05:29.000Z</time>
      </trkpt>
      <trkpt lat="42.95613" lon="0.85647">
        <ele>1494</ele>
        <time>2018-04-02T11:05:31.000Z</time>
      </trkpt>
      <trkpt lat="42.95613" lon="0.8565">
        <ele>1495</ele>
        <time>2018-04-02T11:05:33.000Z</time>
      </trkpt>
      <trkpt lat="42.95614" lon="0.85652">
        <ele>1495</ele>
        <time>2018-04-02T11:05:35.000Z</time>
      </trkpt>
      <trkpt lat="42.95615" lon="0.85654">
        <ele>1495</ele>
        <time>2018-04-02T11:05:37.000Z</time>
      </trkpt>
      <trkpt lat="42.95615" lon="0.85656">
        <ele>1495</ele>
        <time>2018-04-02T11:05:39.000Z</time>
      </trkpt>
      <trkpt lat="42.95616" lon="0.85659">
        <ele>1495</ele>
        <time>2018-04-02T11:05:41.000Z</time>
      </trkpt>
      <trkpt lat="42.95617" lon="0.85661">
        <ele>1495</ele>
        <time>2018-04-02T11:05:43.000Z</time>
      </trkpt>
      <trkpt lat="42.95618" lon="0.85664">
        <ele>1495</ele>
        <time>2018-04-02T11:05:45.000Z</time>
      </trkpt>
      <trkpt lat="42.95619" lon="0.85666">
        <ele>1496</ele>
        <time>2018-04-02T11:05:47.000Z</time>
      </trkpt>
      <trkpt lat="42.9562" lon="0.85669">
        <ele>1495</ele>
        <time>2018-04-02T11:05:49.000Z</time>
      </trkpt>
      <trkpt lat="42.95621" lon="0.85672">
        <ele>1495</ele>
        <time>2018-04-02T11:05:51.000Z</time>
      </trkpt>
      <trkpt lat="42.95622" lon="0.85674">
        <ele>1495</ele>
        <time>2018-04-02T11:05:53.000Z</time>
      </trkpt>
      <trkpt lat="42.95622" lon="0.85677">
        <ele>1494</ele>
        <time>2018-04-02T11:05:55.000Z</time>
      </trkpt>
      <trkpt lat="42.95623" lon="0.85679">
        <ele>1494</ele>
        <time>2018-04-02T11:05:57.000Z</time>
      </trkpt>
      <trkpt lat="42.95624" lon="0.85681">
        <ele>1494</ele>
        <time>2018-04-02T11:05:59.000Z</time>
      </trkpt>
      <trkpt lat="42.95626" lon="0.85684">
        <ele>1494</ele>
        <time>2018-04-02T11:06:01.000Z</time>
      </trkpt>
      <trkpt lat="42.95627" lon="0.85686">
        <ele>1493</ele>
        <time>2018-04-02T11:06:03.000Z</time>
      </trkpt>
      <trkpt lat="42.95627" lon="0.85689">
        <ele>1493</ele>
        <time>2018-04-02T11:06:05.000Z</time>
      </trkpt>
      <trkpt lat="42.95628" lon="0.85691">
        <ele>1493</ele>
        <time>2018-04-02T11:06:07.000Z</time>
      </trkpt>
      <trkpt lat="42.95629" lon="0.85693">
        <ele>1492</ele>
        <time>2018-04-02T11:06:09.000Z</time>
      </trkpt>
      <trkpt lat="42.9563" lon="0.85696">
        <ele>1492</ele>
        <time>2018-04-02T11:06:11.000Z</time>
      </trkpt>
      <trkpt lat="42.95631" lon="0.85698">
        <ele>1492</ele>
        <time>2018-04-02T11:06:13.000Z</time>
      </trkpt>
      <trkpt lat="42.95632" lon="0.85699">
        <ele>1492</ele>
        <time>2018-04-02T11:06:15.000Z</time>
      </trkpt>
      <trkpt lat="42.95633" lon="0.85701">
        <ele>1492</ele>
        <time>2018-04-02T11:06:17.000Z</time>
      </trkpt>
      <trkpt lat="42.95634" lon="0.85702">
        <ele>1491</ele>
        <time>2018-04-02T11:06:19.000Z</time>
      </trkpt>
      <trkpt lat="42.95635" lon="0.85705">
        <ele>1491</ele>
        <time>2018-04-02T11:06:21.000Z</time>
      </trkpt>
      <trkpt lat="42.95635" lon="0.85706">
        <ele>1491</ele>
        <time>2018-04-02T11:06:23.000Z</time>
      </trkpt>
      <trkpt lat="42.95635" lon="0.85707">
        <ele>1491</ele>
        <time>2018-04-02T11:06:25.000Z</time>
      </trkpt>
      <trkpt lat="42.95635" lon="0.85708">
        <ele>1490</ele>
        <time>2018-04-02T11:06:27.000Z</time>
      </trkpt>
      <trkpt lat="42.95635" lon="0.85708">
        <ele>1490</ele>
        <time>2018-04-02T11:06:29.000Z</time>
      </trkpt>
      <trkpt lat="42.95635" lon="0.85708">
        <ele>1491</ele>
        <time>2018-04-02T11:06:31.000Z</time>
      </trkpt>
      <trkpt lat="42.95636" lon="0.85708">
        <ele>1491</ele>
        <time>2018-04-02T11:06:33.000Z</time>
      </trkpt>
      <trkpt lat="42.95636" lon="0.85708">
        <ele>1491</ele>
        <time>2018-04-02T11:06:35.000Z</time>
      </trkpt>
      <trkpt lat="42.95636" lon="0.85708">
        <ele>1491</ele>
        <time>2018-04-02T11:06:37.000Z</time>
      </trkpt>
      <trkpt lat="42.95636" lon="0.85708">
        <ele>1491</ele>
        <time>2018-04-02T11:06:39.000Z</time>
      </trkpt>
      <trkpt lat="42.95636" lon="0.85708">
        <ele>1491</ele>
        <time>2018-04-02T11:06:41.000Z</time>
      </trkpt>
      <trkpt lat="42.95636" lon="0.85707">
        <ele>1491</ele>
        <time>2018-04-02T11:06:43.000Z</time>
      </trkpt>
      <trkpt lat="42.95636" lon="0.85707">
        <ele>1491</ele>
        <time>2018-04-02T11:06:45.000Z</time>
      </trkpt>
      <trkpt lat="42.95636" lon="0.85706">
        <ele>1491</ele>
        <time>2018-04-02T11:06:47.000Z</time>
      </trkpt>
      <trkpt lat="42.95636" lon="0.85706">
        <ele>1491</ele>
        <time>2018-04-02T11:06:49.000Z</time>
      </trkpt>
      <trkpt lat="42.95635" lon="0.85706">
        <ele>1491</ele>
        <time>2018-04-02T11:06:51.000Z</time>
      </trkpt>
      <trkpt lat="42.95635" lon="0.85706">
        <ele>1491</ele>
        <time>2018-04-02T11:06:53.000Z</time>
      </trkpt>
      <trkpt lat="42.95635" lon="0.85706">
        <ele>1491</ele>
        <time>2018-04-02T11:06:55.000Z</time>
      </trkpt>
      <trkpt lat="42.95637" lon="0.85706">
        <ele>1492</ele>
        <time>2018-04-02T11:06:57.000Z</time>
      </trkpt>
      <trkpt lat="42.95639" lon="0.85705">
        <ele>1492</ele>
        <time>2018-04-02T11:06:59.000Z</time>
      </trkpt>
      <trkpt lat="42.95641" lon="0.85704">
        <ele>1493</ele>
        <time>2018-04-02T11:07:01.000Z</time>
      </trkpt>
      <trkpt lat="42.95643" lon="0.85704">
        <ele>1493</ele>
        <time>2018-04-02T11:07:03.000Z</time>
      </trkpt>
      <trkpt lat="42.95645" lon="0.85704">
        <ele>1494</ele>
        <time>2018-04-02T11:07:05.000Z</time>
      </trkpt>
      <trkpt lat="42.95646" lon="0.85704">
        <ele>1494</ele>
        <time>2018-04-02T11:07:07.000Z</time>
      </trkpt>
      <trkpt lat="42.95648" lon="0.85704">
        <ele>1495</ele>
        <time>2018-04-02T11:07:09.000Z</time>
      </trkpt>
      <trkpt lat="42.9565" lon="0.85703">
        <ele>1495</ele>
        <time>2018-04-02T11:07:11.000Z</time>
      </trkpt>
      <trkpt lat="42.95652" lon="0.85703">
        <ele>1496</ele>
        <time>2018-04-02T11:07:13.000Z</time>
      </trkpt>
      <trkpt lat="42.95653" lon="0.85703">
        <ele>1496</ele>
        <time>2018-04-02T11:07:15.000Z</time>
      </trkpt>
      <trkpt lat="42.95655" lon="0.85703">
        <ele>1497</ele>
        <time>2018-04-02T11:07:17.000Z</time>
      </trkpt>
      <trkpt lat="42.95657" lon="0.85703">
        <ele>1496</ele>
        <time>2018-04-02T11:07:19.000Z</time>
      </trkpt>
      <trkpt lat="42.95659" lon="0.85703">
        <ele>1496</ele>
        <time>2018-04-02T11:07:21.000Z</time>
      </trkpt>
      <trkpt lat="42.9566" lon="0.85702">
        <ele>1496</ele>
        <time>2018-04-02T11:07:23.000Z</time>
      </trkpt>
      <trkpt lat="42.95662" lon="0.85702">
        <ele>1496</ele>
        <time>2018-04-02T11:07:25.000Z</time>
      </trkpt>
      <trkpt lat="42.95664" lon="0.85702">
        <ele>1496</ele>
        <time>2018-04-02T11:07:27.000Z</time>
      </trkpt>
      <trkpt lat="42.95665" lon="0.85702">
        <ele>1496</ele>
        <time>2018-04-02T11:07:29.000Z</time>
      </trkpt>
      <trkpt lat="42.95667" lon="0.85702">
        <ele>1496</ele>
        <time>2018-04-02T11:07:31.000Z</time>
      </trkpt>
      <trkpt lat="42.95668" lon="0.85702">
        <ele>1496</ele>
        <time>2018-04-02T11:07:33.000Z</time>
      </trkpt>
      <trkpt lat="42.9567" lon="0.85701">
        <ele>1495</ele>
        <time>2018-04-02T11:07:35.000Z</time>
      </trkpt>
      <trkpt lat="42.95672" lon="0.85701">
        <ele>1495</ele>
        <time>2018-04-02T11:07:37.000Z</time>
      </trkpt>
      <trkpt lat="42.95673" lon="0.857">
        <ele>1495</ele>
        <time>2018-04-02T11:07:39.000Z</time>
      </trkpt>
      <trkpt lat="42.95675" lon="0.857">
        <ele>1495</ele>
        <time>2018-04-02T11:07:41.000Z</time>
      </trkpt>
      <trkpt lat="42.95676" lon="0.857">
        <ele>1495</ele>
        <time>2018-04-02T11:07:43.000Z</time>
      </trkpt>
      <trkpt lat="42.95678" lon="0.85701">
        <ele>1495</ele>
        <time>2018-04-02T11:07:45.000Z</time>
      </trkpt>
      <trkpt lat="42.95679" lon="0.857">
        <ele>1495</ele>
        <time>2018-04-02T11:07:47.000Z</time>
      </trkpt>
      <trkpt lat="42.95681" lon="0.857">
        <ele>1495</ele>
        <time>2018-04-02T11:07:49.000Z</time>
      </trkpt>
      <trkpt lat="42.95682" lon="0.857">
        <ele>1495</ele>
        <time>2018-04-02T11:07:51.000Z</time>
      </trkpt>
      <trkpt lat="42.95684" lon="0.857">
        <ele>1495</ele>
        <time>2018-04-02T11:07:53.000Z</time>
      </trkpt>
      <trkpt lat="42.95685" lon="0.857">
        <ele>1495</ele>
        <time>2018-04-02T11:07:55.000Z</time>
      </trkpt>
      <trkpt lat="42.95687" lon="0.857">
        <ele>1494</ele>
        <time>2018-04-02T11:07:57.000Z</time>
      </trkpt>
      <trkpt lat="42.95689" lon="0.85699">
        <ele>1494</ele>
        <time>2018-04-02T11:07:59.000Z</time>
      </trkpt>
      <trkpt lat="42.95691" lon="0.85699">
        <ele>1494</ele>
        <time>2018-04-02T11:08:01.000Z</time>
      </trkpt>
      <trkpt lat="42.95692" lon="0.85698">
        <ele>1494</ele>
        <time>2018-04-02T11:08:03.000Z</time>
      </trkpt>
      <trkpt lat="42.95694" lon="0.85698">
        <ele>1494</ele>
        <time>2018-04-02T11:08:05.000Z</time>
      </trkpt>
      <trkpt lat="42.95695" lon="0.85697">
        <ele>1494</ele>
        <time>2018-04-02T11:08:07.000Z</time>
      </trkpt>
      <trkpt lat="42.95697" lon="0.85696">
        <ele>1494</ele>
        <time>2018-04-02T11:08:09.000Z</time>
      </trkpt>
      <trkpt lat="42.95698" lon="0.85695">
        <ele>1494</ele>
        <time>2018-04-02T11:08:11.000Z</time>
      </trkpt>
      <trkpt lat="42.957" lon="0.85695">
        <ele>1493</ele>
        <time>2018-04-02T11:08:13.000Z</time>
      </trkpt>
      <trkpt lat="42.95701" lon="0.85694">
        <ele>1493</ele>
        <time>2018-04-02T11:08:15.000Z</time>
      </trkpt>
      <trkpt lat="42.95703" lon="0.85694">
        <ele>1493</ele>
        <time>2018-04-02T11:08:17.000Z</time>
      </trkpt>
      <trkpt lat="42.95704" lon="0.85694">
        <ele>1493</ele>
        <time>2018-04-02T11:08:19.000Z</time>
      </trkpt>
      <trkpt lat="42.95706" lon="0.85694">
        <ele>1493</ele>
        <time>2018-04-02T11:08:21.000Z</time>
      </trkpt>
      <trkpt lat="42.95707" lon="0.85693">
        <ele>1493</ele>
        <time>2018-04-02T11:08:23.000Z</time>
      </trkpt>
      <trkpt lat="42.95709" lon="0.85693">
        <ele>1493</ele>
        <time>2018-04-02T11:08:25.000Z</time>
      </trkpt>
      <trkpt lat="42.9571" lon="0.85693">
        <ele>1493</ele>
        <time>2018-04-02T11:08:27.000Z</time>
      </trkpt>
      <trkpt lat="42.95712" lon="0.85692">
        <ele>1493</ele>
        <time>2018-04-02T11:08:29.000Z</time>
      </trkpt>
      <trkpt lat="42.95713" lon="0.85692">
        <ele>1493</ele>
        <time>2018-04-02T11:08:31.000Z</time>
      </trkpt>
      <trkpt lat="42.95714" lon="0.85692">
        <ele>1493</ele>
        <time>2018-04-02T11:08:33.000Z</time>
      </trkpt>
      <trkpt lat="42.95716" lon="0.85692">
        <ele>1492</ele>
        <time>2018-04-02T11:08:35.000Z</time>
      </trkpt>
      <trkpt lat="42.95717" lon="0.85692">
        <ele>1492</ele>
        <time>2018-04-02T11:08:37.000Z</time>
      </trkpt>
      <trkpt lat="42.95718" lon="0.85691">
        <ele>1492</ele>
        <time>2018-04-02T11:08:39.000Z</time>
      </trkpt>
      <trkpt lat="42.95719" lon="0.85691">
        <ele>1492</ele>
        <time>2018-04-02T11:08:41.000Z</time>
      </trkpt>
      <trkpt lat="42.95721" lon="0.85691">
        <ele>1492</ele>
        <time>2018-04-02T11:08:43.000Z</time>
      </trkpt>
      <trkpt lat="42.95722" lon="0.8569">
        <ele>1492</ele>
        <time>2018-04-02T11:08:45.000Z</time>
      </trkpt>
      <trkpt lat="42.95724" lon="0.8569">
        <ele>1492</ele>
        <time>2018-04-02T11:08:47.000Z</time>
      </trkpt>
      <trkpt lat="42.95725" lon="0.85689">
        <ele>1492</ele>
        <time>2018-04-02T11:08:49.000Z</time>
      </trkpt>
      <trkpt lat="42.95726" lon="0.85689">
        <ele>1491</ele>
        <time>2018-04-02T11:08:51.000Z</time>
      </trkpt>
      <trkpt lat="42.95728" lon="0.85688">
        <ele>1491</ele>
        <time>2018-04-02T11:08:53.000Z</time>
      </trkpt>
      <trkpt lat="42.95729" lon="0.85688">
        <ele>1491</ele>
        <time>2018-04-02T11:08:55.000Z</time>
      </trkpt>
      <trkpt lat="42.95731" lon="0.85687">
        <ele>1490</ele>
        <time>2018-04-02T11:08:57.000Z</time>
      </trkpt>
      <trkpt lat="42.95732" lon="0.85687">
        <ele>1490</ele>
        <time>2018-04-02T11:08:59.000Z</time>
      </trkpt>
      <trkpt lat="42.95733" lon="0.85687">
        <ele>1490</ele>
        <time>2018-04-02T11:09:01.000Z</time>
      </trkpt>
      <trkpt lat="42.95735" lon="0.85686">
        <ele>1490</ele>
        <time>2018-04-02T11:09:03.000Z</time>
      </trkpt>
      <trkpt lat="42.95736" lon="0.85686">
        <ele>1489</ele>
        <time>2018-04-02T11:09:05.000Z</time>
      </trkpt>
      <trkpt lat="42.95738" lon="0.85685">
        <ele>1489</ele>
        <time>2018-04-02T11:09:07.000Z</time>
      </trkpt>
      <trkpt lat="42.95739" lon="0.85684">
        <ele>1489</ele>
        <time>2018-04-02T11:09:09.000Z</time>
      </trkpt>
      <trkpt lat="42.95741" lon="0.85684">
        <ele>1488</ele>
        <time>2018-04-02T11:09:11.000Z</time>
      </trkpt>
      <trkpt lat="42.95742" lon="0.85683">
        <ele>1488</ele>
        <time>2018-04-02T11:09:13.000Z</time>
      </trkpt>
      <trkpt lat="42.95744" lon="0.85683">
        <ele>1488</ele>
        <time>2018-04-02T11:09:15.000Z</time>
      </trkpt>
      <trkpt lat="42.95745" lon="0.85682">
        <ele>1487</ele>
        <time>2018-04-02T11:09:17.000Z</time>
      </trkpt>
      <trkpt lat="42.95747" lon="0.85682">
        <ele>1487</ele>
        <time>2018-04-02T11:09:19.000Z</time>
      </trkpt>
      <trkpt lat="42.95748" lon="0.85682">
        <ele>1487</ele>
        <time>2018-04-02T11:09:21.000Z</time>
      </trkpt>
      <trkpt lat="42.9575" lon="0.85681">
        <ele>1486</ele>
        <time>2018-04-02T11:09:23.000Z</time>
      </trkpt>
      <trkpt lat="42.95752" lon="0.8568">
        <ele>1486</ele>
        <time>2018-04-02T11:09:25.000Z</time>
      </trkpt>
      <trkpt lat="42.95754" lon="0.85679">
        <ele>1485</ele>
        <time>2018-04-02T11:09:27.000Z</time>
      </trkpt>
      <trkpt lat="42.95755" lon="0.85679">
        <ele>1485</ele>
        <time>2018-04-02T11:09:29.000Z</time>
      </trkpt>
      <trkpt lat="42.95757" lon="0.85678">
        <ele>1485</ele>
        <time>2018-04-02T11:09:31.000Z</time>
      </trkpt>
      <trkpt lat="42.95758" lon="0.85677">
        <ele>1484</ele>
        <time>2018-04-02T11:09:33.000Z</time>
      </trkpt>
      <trkpt lat="42.9576" lon="0.85677">
        <ele>1484</ele>
        <time>2018-04-02T11:09:35.000Z</time>
      </trkpt>
      <trkpt lat="42.95761" lon="0.85676">
        <ele>1483</ele>
        <time>2018-04-02T11:09:37.000Z</time>
      </trkpt>
      <trkpt lat="42.95763" lon="0.85676">
        <ele>1483</ele>
        <time>2018-04-02T11:09:39.000Z</time>
      </trkpt>
      <trkpt lat="42.95764" lon="0.85676">
        <ele>1483</ele>
        <time>2018-04-02T11:09:41.000Z</time>
      </trkpt>
      <trkpt lat="42.95766" lon="0.85675">
        <ele>1482</ele>
        <time>2018-04-02T11:09:43.000Z</time>
      </trkpt>
      <trkpt lat="42.95767" lon="0.85674">
        <ele>1482</ele>
        <time>2018-04-02T11:09:45.000Z</time>
      </trkpt>
      <trkpt lat="42.95769" lon="0.85674">
        <ele>1481</ele>
        <time>2018-04-02T11:09:47.000Z</time>
      </trkpt>
      <trkpt lat="42.9577" lon="0.85673">
        <ele>1481</ele>
        <time>2018-04-02T11:09:49.000Z</time>
      </trkpt>
      <trkpt lat="42.95772" lon="0.85673">
        <ele>1480</ele>
        <time>2018-04-02T11:09:51.000Z</time>
      </trkpt>
      <trkpt lat="42.95773" lon="0.85672">
        <ele>1480</ele>
        <time>2018-04-02T11:09:53.000Z</time>
      </trkpt>
      <trkpt lat="42.95775" lon="0.85671">
        <ele>1479</ele>
        <time>2018-04-02T11:09:55.000Z</time>
      </trkpt>
      <trkpt lat="42.95776" lon="0.85671">
        <ele>1479</ele>
        <time>2018-04-02T11:09:57.000Z</time>
      </trkpt>
      <trkpt lat="42.95776" lon="0.8567">
        <ele>1479</ele>
        <time>2018-04-02T11:09:59.000Z</time>
      </trkpt>
      <trkpt lat="42.95776" lon="0.8567">
        <ele>1479</ele>
        <time>2018-04-02T11:10:01.000Z</time>
      </trkpt>
      <trkpt lat="42.95776" lon="0.85671">
        <ele>1479</ele>
        <time>2018-04-02T11:10:03.000Z</time>
      </trkpt>
      <trkpt lat="42.95776" lon="0.85671">
        <ele>1479</ele>
        <time>2018-04-02T11:10:05.000Z</time>
      </trkpt>
      <trkpt lat="42.95777" lon="0.85671">
        <ele>1479</ele>
        <time>2018-04-02T11:10:07.000Z</time>
      </trkpt>
      <trkpt lat="42.95777" lon="0.85671">
        <ele>1479</ele>
        <time>2018-04-02T11:10:09.000Z</time>
      </trkpt>
      <trkpt lat="42.95778" lon="0.8567">
        <ele>1478</ele>
        <time>2018-04-02T11:10:11.000Z</time>
      </trkpt>
      <trkpt lat="42.9578" lon="0.85669">
        <ele>1478</ele>
        <time>2018-04-02T11:10:13.000Z</time>
      </trkpt>
      <trkpt lat="42.95781" lon="0.85668">
        <ele>1478</ele>
        <time>2018-04-02T11:10:15.000Z</time>
      </trkpt>
      <trkpt lat="42.95782" lon="0.85667">
        <ele>1477</ele>
        <time>2018-04-02T11:10:17.000Z</time>
      </trkpt>
      <trkpt lat="42.95784" lon="0.85666">
        <ele>1477</ele>
        <time>2018-04-02T11:10:19.000Z</time>
      </trkpt>
      <trkpt lat="42.95785" lon="0.85666">
        <ele>1476</ele>
        <time>2018-04-02T11:10:21.000Z</time>
      </trkpt>
      <trkpt lat="42.95787" lon="0.85665">
        <ele>1476</ele>
        <time>2018-04-02T11:10:23.000Z</time>
      </trkpt>
      <trkpt lat="42.95788" lon="0.85665">
        <ele>1475</ele>
        <time>2018-04-02T11:10:25.000Z</time>
      </trkpt>
      <trkpt lat="42.9579" lon="0.85664">
        <ele>1475</ele>
        <time>2018-04-02T11:10:27.000Z</time>
      </trkpt>
      <trkpt lat="42.95792" lon="0.85663">
        <ele>1474</ele>
        <time>2018-04-02T11:10:29.000Z</time>
      </trkpt>
      <trkpt lat="42.95794" lon="0.85663">
        <ele>1473</ele>
        <time>2018-04-02T11:10:31.000Z</time>
      </trkpt>
      <trkpt lat="42.95796" lon="0.85662">
        <ele>1473</ele>
        <time>2018-04-02T11:10:33.000Z</time>
      </trkpt>
      <trkpt lat="42.95797" lon="0.85662">
        <ele>1473</ele>
        <time>2018-04-02T11:10:35.000Z</time>
      </trkpt>
      <trkpt lat="42.95799" lon="0.85662">
        <ele>1472</ele>
        <time>2018-04-02T11:10:37.000Z</time>
      </trkpt>
      <trkpt lat="42.958" lon="0.85662">
        <ele>1472</ele>
        <time>2018-04-02T11:10:39.000Z</time>
      </trkpt>
      <trkpt lat="42.95801" lon="0.85661">
        <ele>1471</ele>
        <time>2018-04-02T11:10:41.000Z</time>
      </trkpt>
      <trkpt lat="42.95803" lon="0.8566">
        <ele>1471</ele>
        <time>2018-04-02T11:10:43.000Z</time>
      </trkpt>
      <trkpt lat="42.95804" lon="0.8566">
        <ele>1470</ele>
        <time>2018-04-02T11:10:45.000Z</time>
      </trkpt>
      <trkpt lat="42.95806" lon="0.85659">
        <ele>1470</ele>
        <time>2018-04-02T11:10:47.000Z</time>
      </trkpt>
      <trkpt lat="42.95807" lon="0.85659">
        <ele>1470</ele>
        <time>2018-04-02T11:10:49.000Z</time>
      </trkpt>
      <trkpt lat="42.95809" lon="0.85658">
        <ele>1469</ele>
        <time>2018-04-02T11:10:51.000Z</time>
      </trkpt>
      <trkpt lat="42.95811" lon="0.85658">
        <ele>1469</ele>
        <time>2018-04-02T11:10:53.000Z</time>
      </trkpt>
      <trkpt lat="42.95813" lon="0.85658">
        <ele>1468</ele>
        <time>2018-04-02T11:10:55.000Z</time>
      </trkpt>
      <trkpt lat="42.95815" lon="0.85658">
        <ele>1468</ele>
        <time>2018-04-02T11:10:57.000Z</time>
      </trkpt>
      <trkpt lat="42.95816" lon="0.85658">
        <ele>1467</ele>
        <time>2018-04-02T11:10:59.000Z</time>
      </trkpt>
      <trkpt lat="42.95818" lon="0.85658">
        <ele>1467</ele>
        <time>2018-04-02T11:11:01.000Z</time>
      </trkpt>
      <trkpt lat="42.9582" lon="0.85657">
        <ele>1466</ele>
        <time>2018-04-02T11:11:03.000Z</time>
      </trkpt>
      <trkpt lat="42.95822" lon="0.85657">
        <ele>1466</ele>
        <time>2018-04-02T11:11:05.000Z</time>
      </trkpt>
      <trkpt lat="42.95824" lon="0.85657">
        <ele>1466</ele>
        <time>2018-04-02T11:11:07.000Z</time>
      </trkpt>
      <trkpt lat="42.95825" lon="0.85657">
        <ele>1465</ele>
        <time>2018-04-02T11:11:09.000Z</time>
      </trkpt>
      <trkpt lat="42.95827" lon="0.85656">
        <ele>1465</ele>
        <time>2018-04-02T11:11:11.000Z</time>
      </trkpt>
      <trkpt lat="42.95829" lon="0.85656">
        <ele>1464</ele>
        <time>2018-04-02T11:11:13.000Z</time>
      </trkpt>
      <trkpt lat="42.95831" lon="0.85655">
        <ele>1464</ele>
        <time>2018-04-02T11:11:15.000Z</time>
      </trkpt>
      <trkpt lat="42.95833" lon="0.85655">
        <ele>1463</ele>
        <time>2018-04-02T11:11:17.000Z</time>
      </trkpt>
      <trkpt lat="42.95835" lon="0.85654">
        <ele>1462</ele>
        <time>2018-04-02T11:11:19.000Z</time>
      </trkpt>
      <trkpt lat="42.95837" lon="0.85653">
        <ele>1462</ele>
        <time>2018-04-02T11:11:21.000Z</time>
      </trkpt>
      <trkpt lat="42.95839" lon="0.85653">
        <ele>1461</ele>
        <time>2018-04-02T11:11:23.000Z</time>
      </trkpt>
      <trkpt lat="42.95841" lon="0.85652">
        <ele>1461</ele>
        <time>2018-04-02T11:11:25.000Z</time>
      </trkpt>
      <trkpt lat="42.95844" lon="0.85651">
        <ele>1460</ele>
        <time>2018-04-02T11:11:27.000Z</time>
      </trkpt>
      <trkpt lat="42.95845" lon="0.85651">
        <ele>1459</ele>
        <time>2018-04-02T11:11:29.000Z</time>
      </trkpt>
      <trkpt lat="42.95847" lon="0.8565">
        <ele>1459</ele>
        <time>2018-04-02T11:11:31.000Z</time>
      </trkpt>
      <trkpt lat="42.95849" lon="0.85649">
        <ele>1458</ele>
        <time>2018-04-02T11:11:33.000Z</time>
      </trkpt>
      <trkpt lat="42.9585" lon="0.85648">
        <ele>1458</ele>
        <time>2018-04-02T11:11:35.000Z</time>
      </trkpt>
      <trkpt lat="42.95852" lon="0.85648">
        <ele>1457</ele>
        <time>2018-04-02T11:11:37.000Z</time>
      </trkpt>
      <trkpt lat="42.95854" lon="0.85648">
        <ele>1457</ele>
        <time>2018-04-02T11:11:39.000Z</time>
      </trkpt>
      <trkpt lat="42.95856" lon="0.85647">
        <ele>1457</ele>
        <time>2018-04-02T11:11:41.000Z</time>
      </trkpt>
      <trkpt lat="42.95858" lon="0.85646">
        <ele>1456</ele>
        <time>2018-04-02T11:11:43.000Z</time>
      </trkpt>
      <trkpt lat="42.9586" lon="0.85645">
        <ele>1456</ele>
        <time>2018-04-02T11:11:45.000Z</time>
      </trkpt>
      <trkpt lat="42.95862" lon="0.85645">
        <ele>1455</ele>
        <time>2018-04-02T11:11:47.000Z</time>
      </trkpt>
      <trkpt lat="42.95863" lon="0.85644">
        <ele>1455</ele>
        <time>2018-04-02T11:11:49.000Z</time>
      </trkpt>
      <trkpt lat="42.95865" lon="0.85643">
        <ele>1455</ele>
        <time>2018-04-02T11:11:51.000Z</time>
      </trkpt>
      <trkpt lat="42.95867" lon="0.85642">
        <ele>1454</ele>
        <time>2018-04-02T11:11:53.000Z</time>
      </trkpt>
      <trkpt lat="42.95869" lon="0.85641">
        <ele>1454</ele>
        <time>2018-04-02T11:11:55.000Z</time>
      </trkpt>
      <trkpt lat="42.9587" lon="0.8564">
        <ele>1453</ele>
        <time>2018-04-02T11:11:57.000Z</time>
      </trkpt>
      <trkpt lat="42.95872" lon="0.8564">
        <ele>1453</ele>
        <time>2018-04-02T11:11:59.000Z</time>
      </trkpt>
      <trkpt lat="42.95874" lon="0.85639">
        <ele>1452</ele>
        <time>2018-04-02T11:12:01.000Z</time>
      </trkpt>
      <trkpt lat="42.95876" lon="0.85639">
        <ele>1452</ele>
        <time>2018-04-02T11:12:03.000Z</time>
      </trkpt>
      <trkpt lat="42.95878" lon="0.85638">
        <ele>1452</ele>
        <time>2018-04-02T11:12:05.000Z</time>
      </trkpt>
      <trkpt lat="42.95879" lon="0.85637">
        <ele>1452</ele>
        <time>2018-04-02T11:12:07.000Z</time>
      </trkpt>
      <trkpt lat="42.95881" lon="0.85637">
        <ele>1451</ele>
        <time>2018-04-02T11:12:09.000Z</time>
      </trkpt>
      <trkpt lat="42.95883" lon="0.85636">
        <ele>1451</ele>
        <time>2018-04-02T11:12:11.000Z</time>
      </trkpt>
      <trkpt lat="42.95885" lon="0.85635">
        <ele>1451</ele>
        <time>2018-04-02T11:12:13.000Z</time>
      </trkpt>
      <trkpt lat="42.95886" lon="0.85635">
        <ele>1450</ele>
        <time>2018-04-02T11:12:15.000Z</time>
      </trkpt>
      <trkpt lat="42.95888" lon="0.85635">
        <ele>1450</ele>
        <time>2018-04-02T11:12:17.000Z</time>
      </trkpt>
      <trkpt lat="42.9589" lon="0.85634">
        <ele>1450</ele>
        <time>2018-04-02T11:12:19.000Z</time>
      </trkpt>
      <trkpt lat="42.95891" lon="0.85633">
        <ele>1449</ele>
        <time>2018-04-02T11:12:21.000Z</time>
      </trkpt>
      <trkpt lat="42.95893" lon="0.85633">
        <ele>1449</ele>
        <time>2018-04-02T11:12:23.000Z</time>
      </trkpt>
      <trkpt lat="42.95895" lon="0.85632">
        <ele>1449</ele>
        <time>2018-04-02T11:12:25.000Z</time>
      </trkpt>
      <trkpt lat="42.95896" lon="0.85632">
        <ele>1449</ele>
        <time>2018-04-02T11:12:27.000Z</time>
      </trkpt>
      <trkpt lat="42.95898" lon="0.85632">
        <ele>1448</ele>
        <time>2018-04-02T11:12:29.000Z</time>
      </trkpt>
      <trkpt lat="42.95899" lon="0.85631">
        <ele>1448</ele>
        <time>2018-04-02T11:12:31.000Z</time>
      </trkpt>
      <trkpt lat="42.95901" lon="0.85631">
        <ele>1448</ele>
        <time>2018-04-02T11:12:33.000Z</time>
      </trkpt>
      <trkpt lat="42.95902" lon="0.85631">
        <ele>1448</ele>
        <time>2018-04-02T11:12:35.000Z</time>
      </trkpt>
      <trkpt lat="42.95903" lon="0.85631">
        <ele>1447</ele>
        <time>2018-04-02T11:12:37.000Z</time>
      </trkpt>
      <trkpt lat="42.95905" lon="0.8563">
        <ele>1447</ele>
        <time>2018-04-02T11:12:39.000Z</time>
      </trkpt>
      <trkpt lat="42.95907" lon="0.8563">
        <ele>1447</ele>
        <time>2018-04-02T11:12:41.000Z</time>
      </trkpt>
      <trkpt lat="42.95908" lon="0.8563">
        <ele>1447</ele>
        <time>2018-04-02T11:12:43.000Z</time>
      </trkpt>
      <trkpt lat="42.95909" lon="0.8563">
        <ele>1446</ele>
        <time>2018-04-02T11:12:45.000Z</time>
      </trkpt>
      <trkpt lat="42.95911" lon="0.8563">
        <ele>1446</ele>
        <time>2018-04-02T11:12:47.000Z</time>
      </trkpt>
      <trkpt lat="42.95912" lon="0.8563">
        <ele>1446</ele>
        <time>2018-04-02T11:12:49.000Z</time>
      </trkpt>
      <trkpt lat="42.95913" lon="0.85629">
        <ele>1446</ele>
        <time>2018-04-02T11:12:51.000Z</time>
      </trkpt>
      <trkpt lat="42.95914" lon="0.85629">
        <ele>1446</ele>
        <time>2018-04-02T11:12:53.000Z</time>
      </trkpt>
      <trkpt lat="42.95916" lon="0.85628">
        <ele>1445</ele>
        <time>2018-04-02T11:12:55.000Z</time>
      </trkpt>
      <trkpt lat="42.95917" lon="0.85628">
        <ele>1445</ele>
        <time>2018-04-02T11:12:57.000Z</time>
      </trkpt>
      <trkpt lat="42.95918" lon="0.85628">
        <ele>1445</ele>
        <time>2018-04-02T11:12:59.000Z</time>
      </trkpt>
      <trkpt lat="42.9592" lon="0.85628">
        <ele>1445</ele>
        <time>2018-04-02T11:13:01.000Z</time>
      </trkpt>
      <trkpt lat="42.95921" lon="0.85627">
        <ele>1444</ele>
        <time>2018-04-02T11:13:03.000Z</time>
      </trkpt>
      <trkpt lat="42.95923" lon="0.85627">
        <ele>1444</ele>
        <time>2018-04-02T11:13:05.000Z</time>
      </trkpt>
      <trkpt lat="42.95924" lon="0.85627">
        <ele>1444</ele>
        <time>2018-04-02T11:13:07.000Z</time>
      </trkpt>
      <trkpt lat="42.95925" lon="0.85626">
        <ele>1443</ele>
        <time>2018-04-02T11:13:09.000Z</time>
      </trkpt>
      <trkpt lat="42.95927" lon="0.85626">
        <ele>1443</ele>
        <time>2018-04-02T11:13:11.000Z</time>
      </trkpt>
      <trkpt lat="42.95928" lon="0.85626">
        <ele>1443</ele>
        <time>2018-04-02T11:13:13.000Z</time>
      </trkpt>
      <trkpt lat="42.9593" lon="0.85627">
        <ele>1442</ele>
        <time>2018-04-02T11:13:15.000Z</time>
      </trkpt>
      <trkpt lat="42.95931" lon="0.85626">
        <ele>1442</ele>
        <time>2018-04-02T11:13:17.000Z</time>
      </trkpt>
      <trkpt lat="42.95933" lon="0.85626">
        <ele>1441</ele>
        <time>2018-04-02T11:13:19.000Z</time>
      </trkpt>
      <trkpt lat="42.95934" lon="0.85626">
        <ele>1441</ele>
        <time>2018-04-02T11:13:21.000Z</time>
      </trkpt>
      <trkpt lat="42.95936" lon="0.85626">
        <ele>1440</ele>
        <time>2018-04-02T11:13:23.000Z</time>
      </trkpt>
      <trkpt lat="42.95937" lon="0.85626">
        <ele>1440</ele>
        <time>2018-04-02T11:13:25.000Z</time>
      </trkpt>
      <trkpt lat="42.95938" lon="0.85626">
        <ele>1440</ele>
        <time>2018-04-02T11:13:27.000Z</time>
      </trkpt>
      <trkpt lat="42.95939" lon="0.85627">
        <ele>1440</ele>
        <time>2018-04-02T11:13:29.000Z</time>
      </trkpt>
      <trkpt lat="42.95939" lon="0.85628">
        <ele>1440</ele>
        <time>2018-04-02T11:13:31.000Z</time>
      </trkpt>
      <trkpt lat="42.95939" lon="0.85628">
        <ele>1440</ele>
        <time>2018-04-02T11:13:33.000Z</time>
      </trkpt>
      <trkpt lat="42.95939" lon="0.85628">
        <ele>1439</ele>
        <time>2018-04-02T11:13:35.000Z</time>
      </trkpt>
      <trkpt lat="42.95939" lon="0.85628">
        <ele>1439</ele>
        <time>2018-04-02T11:13:37.000Z</time>
      </trkpt>
      <trkpt lat="42.95939" lon="0.85628">
        <ele>1439</ele>
        <time>2018-04-02T11:13:39.000Z</time>
      </trkpt>
      <trkpt lat="42.9594" lon="0.85628">
        <ele>1439</ele>
        <time>2018-04-02T11:13:41.000Z</time>
      </trkpt>
      <trkpt lat="42.9594" lon="0.85628">
        <ele>1439</ele>
        <time>2018-04-02T11:13:43.000Z</time>
      </trkpt>
      <trkpt lat="42.95939" lon="0.85628">
        <ele>1439</ele>
        <time>2018-04-02T11:13:45.000Z</time>
      </trkpt>
      <trkpt lat="42.95939" lon="0.85628">
        <ele>1439</ele>
        <time>2018-04-02T11:13:47.000Z</time>
      </trkpt>
      <trkpt lat="42.95939" lon="0.85628">
        <ele>1439</ele>
        <time>2018-04-02T11:13:49.000Z</time>
      </trkpt>
      <trkpt lat="42.95939" lon="0.85628">
        <ele>1439</ele>
        <time>2018-04-02T11:13:51.000Z</time>
      </trkpt>
      <trkpt lat="42.95939" lon="0.85628">
        <ele>1439</ele>
        <time>2018-04-02T11:13:53.000Z</time>
      </trkpt>
      <trkpt lat="42.95939" lon="0.85628">
        <ele>1440</ele>
        <time>2018-04-02T11:13:55.000Z</time>
      </trkpt>
      <trkpt lat="42.95939" lon="0.85629">
        <ele>1440</ele>
        <time>2018-04-02T11:13:57.000Z</time>
      </trkpt>
      <trkpt lat="42.95939" lon="0.85628">
        <ele>1440</ele>
        <time>2018-04-02T11:13:59.000Z</time>
      </trkpt>
      <trkpt lat="42.9594" lon="0.85629">
        <ele>1439</ele>
        <time>2018-04-02T11:14:01.000Z</time>
      </trkpt>
      <trkpt lat="42.95941" lon="0.85629">
        <ele>1439</ele>
        <time>2018-04-02T11:14:03.000Z</time>
      </trkpt>
      <trkpt lat="42.95942" lon="0.85629">
        <ele>1439</ele>
        <time>2018-04-02T11:14:05.000Z</time>
      </trkpt>
      <trkpt lat="42.95944" lon="0.85628">
        <ele>1438</ele>
        <time>2018-04-02T11:14:07.000Z</time>
      </trkpt>
      <trkpt lat="42.95946" lon="0.85629">
        <ele>1438</ele>
        <time>2018-04-02T11:14:09.000Z</time>
      </trkpt>
      <trkpt lat="42.95947" lon="0.85628">
        <ele>1437</ele>
        <time>2018-04-02T11:14:11.000Z</time>
      </trkpt>
      <trkpt lat="42.95948" lon="0.85628">
        <ele>1437</ele>
        <time>2018-04-02T11:14:13.000Z</time>
      </trkpt>
      <trkpt lat="42.95949" lon="0.85628">
        <ele>1437</ele>
        <time>2018-04-02T11:14:15.000Z</time>
      </trkpt>
      <trkpt lat="42.9595" lon="0.85627">
        <ele>1436</ele>
        <time>2018-04-02T11:14:17.000Z</time>
      </trkpt>
      <trkpt lat="42.95952" lon="0.85627">
        <ele>1436</ele>
        <time>2018-04-02T11:14:19.000Z</time>
      </trkpt>
      <trkpt lat="42.95954" lon="0.85627">
        <ele>1435</ele>
        <time>2018-04-02T11:14:21.000Z</time>
      </trkpt>
      <trkpt lat="42.95955" lon="0.85628">
        <ele>1435</ele>
        <time>2018-04-02T11:14:23.000Z</time>
      </trkpt>
      <trkpt lat="42.95957" lon="0.85629">
        <ele>1434</ele>
        <time>2018-04-02T11:14:25.000Z</time>
      </trkpt>
      <trkpt lat="42.95959" lon="0.85628">
        <ele>1434</ele>
        <time>2018-04-02T11:14:27.000Z</time>
      </trkpt>
      <trkpt lat="42.95961" lon="0.85628">
        <ele>1433</ele>
        <time>2018-04-02T11:14:29.000Z</time>
      </trkpt>
      <trkpt lat="42.95963" lon="0.85629">
        <ele>1433</ele>
        <time>2018-04-02T11:14:31.000Z</time>
      </trkpt>
      <trkpt lat="42.95965" lon="0.8563">
        <ele>1432</ele>
        <time>2018-04-02T11:14:33.000Z</time>
      </trkpt>
      <trkpt lat="42.95967" lon="0.85631">
        <ele>1432</ele>
        <time>2018-04-02T11:14:35.000Z</time>
      </trkpt>
      <trkpt lat="42.95969" lon="0.85631">
        <ele>1431</ele>
        <time>2018-04-02T11:14:37.000Z</time>
      </trkpt>
      <trkpt lat="42.95971" lon="0.8563">
        <ele>1430</ele>
        <time>2018-04-02T11:14:39.000Z</time>
      </trkpt>
      <trkpt lat="42.95973" lon="0.85629">
        <ele>1430</ele>
        <time>2018-04-02T11:14:41.000Z</time>
      </trkpt>
      <trkpt lat="42.95975" lon="0.85627">
        <ele>1429</ele>
        <time>2018-04-02T11:14:43.000Z</time>
      </trkpt>
      <trkpt lat="42.95976" lon="0.85626">
        <ele>1429</ele>
        <time>2018-04-02T11:14:45.000Z</time>
      </trkpt>
      <trkpt lat="42.95978" lon="0.85624">
        <ele>1428</ele>
        <time>2018-04-02T11:14:47.000Z</time>
      </trkpt>
      <trkpt lat="42.95979" lon="0.85623">
        <ele>1428</ele>
        <time>2018-04-02T11:14:49.000Z</time>
      </trkpt>
      <trkpt lat="42.95981" lon="0.85623">
        <ele>1427</ele>
        <time>2018-04-02T11:14:51.000Z</time>
      </trkpt>
      <trkpt lat="42.95984" lon="0.85623">
        <ele>1427</ele>
        <time>2018-04-02T11:14:53.000Z</time>
      </trkpt>
      <trkpt lat="42.95986" lon="0.85622">
        <ele>1426</ele>
        <time>2018-04-02T11:14:55.000Z</time>
      </trkpt>
      <trkpt lat="42.95987" lon="0.85622">
        <ele>1425</ele>
        <time>2018-04-02T11:14:57.000Z</time>
      </trkpt>
      <trkpt lat="42.95989" lon="0.85622">
        <ele>1425</ele>
        <time>2018-04-02T11:14:59.000Z</time>
      </trkpt>
      <trkpt lat="42.95991" lon="0.85622">
        <ele>1425</ele>
        <time>2018-04-02T11:15:01.000Z</time>
      </trkpt>
      <trkpt lat="42.95992" lon="0.85622">
        <ele>1424</ele>
        <time>2018-04-02T11:15:03.000Z</time>
      </trkpt>
      <trkpt lat="42.95993" lon="0.85622">
        <ele>1424</ele>
        <time>2018-04-02T11:15:05.000Z</time>
      </trkpt>
      <trkpt lat="42.95993" lon="0.85622">
        <ele>1424</ele>
        <time>2018-04-02T11:15:07.000Z</time>
      </trkpt>
      <trkpt lat="42.95994" lon="0.85621">
        <ele>1424</ele>
        <time>2018-04-02T11:15:09.000Z</time>
      </trkpt>
      <trkpt lat="42.95994" lon="0.85621">
        <ele>1424</ele>
        <time>2018-04-02T11:15:11.000Z</time>
      </trkpt>
      <trkpt lat="42.95996" lon="0.85621">
        <ele>1424</ele>
        <time>2018-04-02T11:15:13.000Z</time>
      </trkpt>
      <trkpt lat="42.95997" lon="0.85621">
        <ele>1423</ele>
        <time>2018-04-02T11:15:15.000Z</time>
      </trkpt>
      <trkpt lat="42.95998" lon="0.8562">
        <ele>1423</ele>
        <time>2018-04-02T11:15:17.000Z</time>
      </trkpt>
      <trkpt lat="42.95999" lon="0.8562">
        <ele>1423</ele>
        <time>2018-04-02T11:15:19.000Z</time>
      </trkpt>
      <trkpt lat="42.96" lon="0.8562">
        <ele>1423</ele>
        <time>2018-04-02T11:15:21.000Z</time>
      </trkpt>
      <trkpt lat="42.96001" lon="0.85618">
        <ele>1423</ele>
        <time>2018-04-02T11:15:23.000Z</time>
      </trkpt>
      <trkpt lat="42.96002" lon="0.85616">
        <ele>1423</ele>
        <time>2018-04-02T11:15:25.000Z</time>
      </trkpt>
      <trkpt lat="42.96003" lon="0.85616">
        <ele>1422</ele>
        <time>2018-04-02T11:15:27.000Z</time>
      </trkpt>
      <trkpt lat="42.96004" lon="0.85616">
        <ele>1422</ele>
        <time>2018-04-02T11:15:29.000Z</time>
      </trkpt>
      <trkpt lat="42.96005" lon="0.85616">
        <ele>1422</ele>
        <time>2018-04-02T11:15:31.000Z</time>
      </trkpt>
      <trkpt lat="42.96006" lon="0.85616">
        <ele>1422</ele>
        <time>2018-04-02T11:15:33.000Z</time>
      </trkpt>
      <trkpt lat="42.96007" lon="0.85617">
        <ele>1422</ele>
        <time>2018-04-02T11:15:35.000Z</time>
      </trkpt>
      <trkpt lat="42.96008" lon="0.85618">
        <ele>1421</ele>
        <time>2018-04-02T11:15:37.000Z</time>
      </trkpt>
      <trkpt lat="42.96009" lon="0.85619">
        <ele>1421</ele>
        <time>2018-04-02T11:15:39.000Z</time>
      </trkpt>
      <trkpt lat="42.96011" lon="0.8562">
        <ele>1421</ele>
        <time>2018-04-02T11:15:41.000Z</time>
      </trkpt>
      <trkpt lat="42.96012" lon="0.8562">
        <ele>1420</ele>
        <time>2018-04-02T11:15:43.000Z</time>
      </trkpt>
      <trkpt lat="42.96013" lon="0.8562">
        <ele>1420</ele>
        <time>2018-04-02T11:15:45.000Z</time>
      </trkpt>
      <trkpt lat="42.96015" lon="0.85619">
        <ele>1420</ele>
        <time>2018-04-02T11:15:47.000Z</time>
      </trkpt>
      <trkpt lat="42.96017" lon="0.85618">
        <ele>1419</ele>
        <time>2018-04-02T11:15:49.000Z</time>
      </trkpt>
      <trkpt lat="42.96018" lon="0.85618">
        <ele>1419</ele>
        <time>2018-04-02T11:15:51.000Z</time>
      </trkpt>
      <trkpt lat="42.9602" lon="0.85617">
        <ele>1419</ele>
        <time>2018-04-02T11:15:53.000Z</time>
      </trkpt>
      <trkpt lat="42.96021" lon="0.85616">
        <ele>1419</ele>
        <time>2018-04-02T11:15:55.000Z</time>
      </trkpt>
      <trkpt lat="42.96022" lon="0.85614">
        <ele>1419</ele>
        <time>2018-04-02T11:15:57.000Z</time>
      </trkpt>
      <trkpt lat="42.96023" lon="0.85613">
        <ele>1418</ele>
        <time>2018-04-02T11:15:59.000Z</time>
      </trkpt>
      <trkpt lat="42.96025" lon="0.85612">
        <ele>1418</ele>
        <time>2018-04-02T11:16:01.000Z</time>
      </trkpt>
      <trkpt lat="42.96027" lon="0.85611">
        <ele>1418</ele>
        <time>2018-04-02T11:16:03.000Z</time>
      </trkpt>
      <trkpt lat="42.96029" lon="0.8561">
        <ele>1417</ele>
        <time>2018-04-02T11:16:05.000Z</time>
      </trkpt>
      <trkpt lat="42.96031" lon="0.8561">
        <ele>1417</ele>
        <time>2018-04-02T11:16:07.000Z</time>
      </trkpt>
      <trkpt lat="42.96032" lon="0.8561">
        <ele>1417</ele>
        <time>2018-04-02T11:16:09.000Z</time>
      </trkpt>
      <trkpt lat="42.96034" lon="0.85609">
        <ele>1416</ele>
        <time>2018-04-02T11:16:11.000Z</time>
      </trkpt>
      <trkpt lat="42.96036" lon="0.85609">
        <ele>1416</ele>
        <time>2018-04-02T11:16:13.000Z</time>
      </trkpt>
      <trkpt lat="42.96037" lon="0.8561">
        <ele>1416</ele>
        <time>2018-04-02T11:16:15.000Z</time>
      </trkpt>
      <trkpt lat="42.96039" lon="0.8561">
        <ele>1415</ele>
        <time>2018-04-02T11:16:17.000Z</time>
      </trkpt>
      <trkpt lat="42.96041" lon="0.8561">
        <ele>1415</ele>
        <time>2018-04-02T11:16:19.000Z</time>
      </trkpt>
      <trkpt lat="42.96042" lon="0.8561">
        <ele>1415</ele>
        <time>2018-04-02T11:16:21.000Z</time>
      </trkpt>
      <trkpt lat="42.96044" lon="0.85611">
        <ele>1414</ele>
        <time>2018-04-02T11:16:23.000Z</time>
      </trkpt>
      <trkpt lat="42.96045" lon="0.85611">
        <ele>1414</ele>
        <time>2018-04-02T11:16:25.000Z</time>
      </trkpt>
      <trkpt lat="42.96047" lon="0.85612">
        <ele>1414</ele>
        <time>2018-04-02T11:16:27.000Z</time>
      </trkpt>
      <trkpt lat="42.96048" lon="0.85613">
        <ele>1413</ele>
        <time>2018-04-02T11:16:29.000Z</time>
      </trkpt>
      <trkpt lat="42.96049" lon="0.85614">
        <ele>1413</ele>
        <time>2018-04-02T11:16:31.000Z</time>
      </trkpt>
      <trkpt lat="42.96051" lon="0.85615">
        <ele>1413</ele>
        <time>2018-04-02T11:16:33.000Z</time>
      </trkpt>
      <trkpt lat="42.96052" lon="0.85617">
        <ele>1412</ele>
        <time>2018-04-02T11:16:35.000Z</time>
      </trkpt>
      <trkpt lat="42.96054" lon="0.85618">
        <ele>1412</ele>
        <time>2018-04-02T11:16:37.000Z</time>
      </trkpt>
      <trkpt lat="42.96055" lon="0.85619">
        <ele>1412</ele>
        <time>2018-04-02T11:16:39.000Z</time>
      </trkpt>
      <trkpt lat="42.96056" lon="0.85619">
        <ele>1411</ele>
        <time>2018-04-02T11:16:41.000Z</time>
      </trkpt>
      <trkpt lat="42.96058" lon="0.8562">
        <ele>1411</ele>
        <time>2018-04-02T11:16:43.000Z</time>
      </trkpt>
      <trkpt lat="42.96059" lon="0.8562">
        <ele>1411</ele>
        <time>2018-04-02T11:16:45.000Z</time>
      </trkpt>
      <trkpt lat="42.96061" lon="0.8562">
        <ele>1410</ele>
        <time>2018-04-02T11:16:47.000Z</time>
      </trkpt>
      <trkpt lat="42.96062" lon="0.8562">
        <ele>1410</ele>
        <time>2018-04-02T11:16:49.000Z</time>
      </trkpt>
      <trkpt lat="42.96063" lon="0.8562">
        <ele>1410</ele>
        <time>2018-04-02T11:16:51.000Z</time>
      </trkpt>
      <trkpt lat="42.96065" lon="0.8562">
        <ele>1410</ele>
        <time>2018-04-02T11:16:53.000Z</time>
      </trkpt>
      <trkpt lat="42.96066" lon="0.8562">
        <ele>1409</ele>
        <time>2018-04-02T11:16:55.000Z</time>
      </trkpt>
      <trkpt lat="42.96067" lon="0.85621">
        <ele>1409</ele>
        <time>2018-04-02T11:16:57.000Z</time>
      </trkpt>
      <trkpt lat="42.96069" lon="0.8562">
        <ele>1409</ele>
        <time>2018-04-02T11:16:59.000Z</time>
      </trkpt>
      <trkpt lat="42.9607" lon="0.85621">
        <ele>1408</ele>
        <time>2018-04-02T11:17:01.000Z</time>
      </trkpt>
      <trkpt lat="42.96072" lon="0.85621">
        <ele>1408</ele>
        <time>2018-04-02T11:17:03.000Z</time>
      </trkpt>
      <trkpt lat="42.96073" lon="0.85621">
        <ele>1408</ele>
        <time>2018-04-02T11:17:05.000Z</time>
      </trkpt>
      <trkpt lat="42.96074" lon="0.85621">
        <ele>1408</ele>
        <time>2018-04-02T11:17:07.000Z</time>
      </trkpt>
      <trkpt lat="42.96075" lon="0.8562">
        <ele>1407</ele>
        <time>2018-04-02T11:17:09.000Z</time>
      </trkpt>
      <trkpt lat="42.96076" lon="0.85621">
        <ele>1407</ele>
        <time>2018-04-02T11:17:11.000Z</time>
      </trkpt>
      <trkpt lat="42.96078" lon="0.85621">
        <ele>1407</ele>
        <time>2018-04-02T11:17:13.000Z</time>
      </trkpt>
      <trkpt lat="42.96079" lon="0.85621">
        <ele>1407</ele>
        <time>2018-04-02T11:17:15.000Z</time>
      </trkpt>
      <trkpt lat="42.9608" lon="0.85622">
        <ele>1407</ele>
        <time>2018-04-02T11:17:17.000Z</time>
      </trkpt>
      <trkpt lat="42.96081" lon="0.85623">
        <ele>1406</ele>
        <time>2018-04-02T11:17:19.000Z</time>
      </trkpt>
      <trkpt lat="42.96082" lon="0.85623">
        <ele>1406</ele>
        <time>2018-04-02T11:17:21.000Z</time>
      </trkpt>
      <trkpt lat="42.96083" lon="0.85624">
        <ele>1406</ele>
        <time>2018-04-02T11:17:23.000Z</time>
      </trkpt>
      <trkpt lat="42.96085" lon="0.85625">
        <ele>1405</ele>
        <time>2018-04-02T11:17:25.000Z</time>
      </trkpt>
      <trkpt lat="42.96086" lon="0.85626">
        <ele>1405</ele>
        <time>2018-04-02T11:17:27.000Z</time>
      </trkpt>
      <trkpt lat="42.96086" lon="0.85626">
        <ele>1405</ele>
        <time>2018-04-02T11:17:29.000Z</time>
      </trkpt>
      <trkpt lat="42.96087" lon="0.85627">
        <ele>1405</ele>
        <time>2018-04-02T11:17:31.000Z</time>
      </trkpt>
      <trkpt lat="42.96088" lon="0.85627">
        <ele>1405</ele>
        <time>2018-04-02T11:17:33.000Z</time>
      </trkpt>
      <trkpt lat="42.9609" lon="0.85628">
        <ele>1404</ele>
        <time>2018-04-02T11:17:35.000Z</time>
      </trkpt>
      <trkpt lat="42.96092" lon="0.85628">
        <ele>1404</ele>
        <time>2018-04-02T11:17:37.000Z</time>
      </trkpt>
      <trkpt lat="42.96094" lon="0.8563">
        <ele>1404</ele>
        <time>2018-04-02T11:17:39.000Z</time>
      </trkpt>
      <trkpt lat="42.96095" lon="0.85631">
        <ele>1404</ele>
        <time>2018-04-02T11:17:41.000Z</time>
      </trkpt>
      <trkpt lat="42.96097" lon="0.85632">
        <ele>1404</ele>
        <time>2018-04-02T11:17:43.000Z</time>
      </trkpt>
      <trkpt lat="42.96098" lon="0.85633">
        <ele>1404</ele>
        <time>2018-04-02T11:17:45.000Z</time>
      </trkpt>
      <trkpt lat="42.961" lon="0.85634">
        <ele>1404</ele>
        <time>2018-04-02T11:17:47.000Z</time>
      </trkpt>
      <trkpt lat="42.96101" lon="0.85635">
        <ele>1404</ele>
        <time>2018-04-02T11:17:49.000Z</time>
      </trkpt>
      <trkpt lat="42.96102" lon="0.85636">
        <ele>1404</ele>
        <time>2018-04-02T11:17:51.000Z</time>
      </trkpt>
      <trkpt lat="42.96104" lon="0.85637">
        <ele>1404</ele>
        <time>2018-04-02T11:17:53.000Z</time>
      </trkpt>
      <trkpt lat="42.96105" lon="0.85637">
        <ele>1404</ele>
        <time>2018-04-02T11:17:55.000Z</time>
      </trkpt>
      <trkpt lat="42.96107" lon="0.85638">
        <ele>1404</ele>
        <time>2018-04-02T11:17:57.000Z</time>
      </trkpt>
      <trkpt lat="42.96109" lon="0.85638">
        <ele>1404</ele>
        <time>2018-04-02T11:17:59.000Z</time>
      </trkpt>
      <trkpt lat="42.96111" lon="0.85638">
        <ele>1404</ele>
        <time>2018-04-02T11:18:01.000Z</time>
      </trkpt>
      <trkpt lat="42.96113" lon="0.85639">
        <ele>1404</ele>
        <time>2018-04-02T11:18:03.000Z</time>
      </trkpt>
      <trkpt lat="42.96115" lon="0.85641">
        <ele>1404</ele>
        <time>2018-04-02T11:18:05.000Z</time>
      </trkpt>
      <trkpt lat="42.96117" lon="0.85642">
        <ele>1404</ele>
        <time>2018-04-02T11:18:07.000Z</time>
      </trkpt>
      <trkpt lat="42.96118" lon="0.85643">
        <ele>1404</ele>
        <time>2018-04-02T11:18:09.000Z</time>
      </trkpt>
      <trkpt lat="42.9612" lon="0.85645">
        <ele>1404</ele>
        <time>2018-04-02T11:18:11.000Z</time>
      </trkpt>
      <trkpt lat="42.96121" lon="0.85646">
        <ele>1404</ele>
        <time>2018-04-02T11:18:13.000Z</time>
      </trkpt>
      <trkpt lat="42.96123" lon="0.85647">
        <ele>1404</ele>
        <time>2018-04-02T11:18:15.000Z</time>
      </trkpt>
      <trkpt lat="42.96124" lon="0.85648">
        <ele>1404</ele>
        <time>2018-04-02T11:18:17.000Z</time>
      </trkpt>
      <trkpt lat="42.96126" lon="0.85649">
        <ele>1404</ele>
        <time>2018-04-02T11:18:19.000Z</time>
      </trkpt>
      <trkpt lat="42.96127" lon="0.85649">
        <ele>1404</ele>
        <time>2018-04-02T11:18:21.000Z</time>
      </trkpt>
      <trkpt lat="42.96129" lon="0.8565">
        <ele>1404</ele>
        <time>2018-04-02T11:18:23.000Z</time>
      </trkpt>
      <trkpt lat="42.96131" lon="0.85651">
        <ele>1404</ele>
        <time>2018-04-02T11:18:25.000Z</time>
      </trkpt>
      <trkpt lat="42.96133" lon="0.85651">
        <ele>1404</ele>
        <time>2018-04-02T11:18:27.000Z</time>
      </trkpt>
      <trkpt lat="42.96134" lon="0.85652">
        <ele>1404</ele>
        <time>2018-04-02T11:18:29.000Z</time>
      </trkpt>
      <trkpt lat="42.96135" lon="0.85653">
        <ele>1404</ele>
        <time>2018-04-02T11:18:31.000Z</time>
      </trkpt>
      <trkpt lat="42.96137" lon="0.85654">
        <ele>1404</ele>
        <time>2018-04-02T11:18:33.000Z</time>
      </trkpt>
      <trkpt lat="42.96138" lon="0.85655">
        <ele>1404</ele>
        <time>2018-04-02T11:18:35.000Z</time>
      </trkpt>
      <trkpt lat="42.9614" lon="0.85655">
        <ele>1404</ele>
        <time>2018-04-02T11:18:37.000Z</time>
      </trkpt>
      <trkpt lat="42.96142" lon="0.85655">
        <ele>1404</ele>
        <time>2018-04-02T11:18:39.000Z</time>
      </trkpt>
      <trkpt lat="42.96144" lon="0.85655">
        <ele>1404</ele>
        <time>2018-04-02T11:18:41.000Z</time>
      </trkpt>
      <trkpt lat="42.96145" lon="0.85655">
        <ele>1404</ele>
        <time>2018-04-02T11:18:43.000Z</time>
      </trkpt>
      <trkpt lat="42.96147" lon="0.85656">
        <ele>1404</ele>
        <time>2018-04-02T11:18:45.000Z</time>
      </trkpt>
      <trkpt lat="42.96148" lon="0.85656">
        <ele>1404</ele>
        <time>2018-04-02T11:18:47.000Z</time>
      </trkpt>
      <trkpt lat="42.9615" lon="0.85657">
        <ele>1404</ele>
        <time>2018-04-02T11:18:49.000Z</time>
      </trkpt>
      <trkpt lat="42.96151" lon="0.85659">
        <ele>1404</ele>
        <time>2018-04-02T11:18:51.000Z</time>
      </trkpt>
      <trkpt lat="42.96152" lon="0.8566">
        <ele>1404</ele>
        <time>2018-04-02T11:18:53.000Z</time>
      </trkpt>
      <trkpt lat="42.96153" lon="0.8566">
        <ele>1404</ele>
        <time>2018-04-02T11:18:55.000Z</time>
      </trkpt>
      <trkpt lat="42.96154" lon="0.8566">
        <ele>1404</ele>
        <time>2018-04-02T11:18:57.000Z</time>
      </trkpt>
      <trkpt lat="42.96156" lon="0.8566">
        <ele>1404</ele>
        <time>2018-04-02T11:18:59.000Z</time>
      </trkpt>
      <trkpt lat="42.96157" lon="0.85659">
        <ele>1404</ele>
        <time>2018-04-02T11:19:01.000Z</time>
      </trkpt>
      <trkpt lat="42.96158" lon="0.85659">
        <ele>1404</ele>
        <time>2018-04-02T11:19:03.000Z</time>
      </trkpt>
      <trkpt lat="42.96159" lon="0.8566">
        <ele>1404</ele>
        <time>2018-04-02T11:19:05.000Z</time>
      </trkpt>
      <trkpt lat="42.96159" lon="0.85662">
        <ele>1404</ele>
        <time>2018-04-02T11:19:07.000Z</time>
      </trkpt>
      <trkpt lat="42.96159" lon="0.85664">
        <ele>1404</ele>
        <time>2018-04-02T11:19:09.000Z</time>
      </trkpt>
      <trkpt lat="42.9616" lon="0.85665">
        <ele>1403</ele>
        <time>2018-04-02T11:19:11.000Z</time>
      </trkpt>
      <trkpt lat="42.96161" lon="0.85667">
        <ele>1403</ele>
        <time>2018-04-02T11:19:13.000Z</time>
      </trkpt>
      <trkpt lat="42.96161" lon="0.85669">
        <ele>1403</ele>
        <time>2018-04-02T11:19:15.000Z</time>
      </trkpt>
      <trkpt lat="42.96162" lon="0.85672">
        <ele>1403</ele>
        <time>2018-04-02T11:19:17.000Z</time>
      </trkpt>
      <trkpt lat="42.96162" lon="0.85673">
        <ele>1403</ele>
        <time>2018-04-02T11:19:19.000Z</time>
      </trkpt>
      <trkpt lat="42.96162" lon="0.85675">
        <ele>1403</ele>
        <time>2018-04-02T11:19:21.000Z</time>
      </trkpt>
      <trkpt lat="42.96162" lon="0.85676">
        <ele>1402</ele>
        <time>2018-04-02T11:19:23.000Z</time>
      </trkpt>
      <trkpt lat="42.96162" lon="0.85677">
        <ele>1402</ele>
        <time>2018-04-02T11:19:25.000Z</time>
      </trkpt>
      <trkpt lat="42.96162" lon="0.85677">
        <ele>1402</ele>
        <time>2018-04-02T11:19:27.000Z</time>
      </trkpt>
      <trkpt lat="42.96162" lon="0.85677">
        <ele>1402</ele>
        <time>2018-04-02T11:19:29.000Z</time>
      </trkpt>
      <trkpt lat="42.96162" lon="0.85677">
        <ele>1402</ele>
        <time>2018-04-02T11:19:31.000Z</time>
      </trkpt>
      <trkpt lat="42.96162" lon="0.85677">
        <ele>1402</ele>
        <time>2018-04-02T11:19:33.000Z</time>
      </trkpt>
      <trkpt lat="42.96162" lon="0.85677">
        <ele>1402</ele>
        <time>2018-04-02T11:19:35.000Z</time>
      </trkpt>
      <trkpt lat="42.96162" lon="0.85677">
        <ele>1402</ele>
        <time>2018-04-02T11:19:37.000Z</time>
      </trkpt>
      <trkpt lat="42.96163" lon="0.85677">
        <ele>1402</ele>
        <time>2018-04-02T11:19:39.000Z</time>
      </trkpt>
      <trkpt lat="42.96163" lon="0.85677">
        <ele>1402</ele>
        <time>2018-04-02T11:19:41.000Z</time>
      </trkpt>
      <trkpt lat="42.96163" lon="0.85678">
        <ele>1402</ele>
        <time>2018-04-02T11:19:43.000Z</time>
      </trkpt>
      <trkpt lat="42.96163" lon="0.85678">
        <ele>1402</ele>
        <time>2018-04-02T11:19:45.000Z</time>
      </trkpt>
      <trkpt lat="42.96162" lon="0.85678">
        <ele>1402</ele>
        <time>2018-04-02T11:19:47.000Z</time>
      </trkpt>
      <trkpt lat="42.96162" lon="0.85679">
        <ele>1402</ele>
        <time>2018-04-02T11:19:49.000Z</time>
      </trkpt>
      <trkpt lat="42.96162" lon="0.85679">
        <ele>1402</ele>
        <time>2018-04-02T11:19:51.000Z</time>
      </trkpt>
      <trkpt lat="42.96162" lon="0.85679">
        <ele>1402</ele>
        <time>2018-04-02T11:19:53.000Z</time>
      </trkpt>
      <trkpt lat="42.96162" lon="0.8568">
        <ele>1402</ele>
        <time>2018-04-02T11:19:55.000Z</time>
      </trkpt>
      <trkpt lat="42.96162" lon="0.8568">
        <ele>1402</ele>
        <time>2018-04-02T11:19:57.000Z</time>
      </trkpt>
      <trkpt lat="42.96163" lon="0.8568">
        <ele>1402</ele>
        <time>2018-04-02T11:19:59.000Z</time>
      </trkpt>
      <trkpt lat="42.96163" lon="0.85679">
        <ele>1402</ele>
        <time>2018-04-02T11:20:01.000Z</time>
      </trkpt>
      <trkpt lat="42.96163" lon="0.85679">
        <ele>1402</ele>
        <time>2018-04-02T11:20:03.000Z</time>
      </trkpt>
      <trkpt lat="42.96163" lon="0.85679">
        <ele>1402</ele>
        <time>2018-04-02T11:20:05.000Z</time>
      </trkpt>
      <trkpt lat="42.96163" lon="0.85679">
        <ele>1402</ele>
        <time>2018-04-02T11:20:07.000Z</time>
      </trkpt>
      <trkpt lat="42.96163" lon="0.8568">
        <ele>1402</ele>
        <time>2018-04-02T11:20:09.000Z</time>
      </trkpt>
      <trkpt lat="42.96163" lon="0.8568">
        <ele>1402</ele>
        <time>2018-04-02T11:20:11.000Z</time>
      </trkpt>
      <trkpt lat="42.96163" lon="0.8568">
        <ele>1402</ele>
        <time>2018-04-02T11:20:13.000Z</time>
      </trkpt>
      <trkpt lat="42.96164" lon="0.85679">
        <ele>1402</ele>
        <time>2018-04-02T11:20:15.000Z</time>
      </trkpt>
      <trkpt lat="42.96164" lon="0.85679">
        <ele>1402</ele>
        <time>2018-04-02T11:20:17.000Z</time>
      </trkpt>
      <trkpt lat="42.96163" lon="0.85679">
        <ele>1402</ele>
        <time>2018-04-02T11:20:19.000Z</time>
      </trkpt>
      <trkpt lat="42.96164" lon="0.85678">
        <ele>1402</ele>
        <time>2018-04-02T11:20:21.000Z</time>
      </trkpt>
      <trkpt lat="42.96163" lon="0.85678">
        <ele>1402</ele>
        <time>2018-04-02T11:20:23.000Z</time>
      </trkpt>
      <trkpt lat="42.96163" lon="0.85678">
        <ele>1402</ele>
        <time>2018-04-02T11:20:25.000Z</time>
      </trkpt>
      <trkpt lat="42.96162" lon="0.85678">
        <ele>1402</ele>
        <time>2018-04-02T11:20:27.000Z</time>
      </trkpt>
      <trkpt lat="42.96162" lon="0.85678">
        <ele>1402</ele>
        <time>2018-04-02T11:20:29.000Z</time>
      </trkpt>
      <trkpt lat="42.96162" lon="0.85678">
        <ele>1402</ele>
        <time>2018-04-02T11:20:31.000Z</time>
      </trkpt>
      <trkpt lat="42.96162" lon="0.85678">
        <ele>1402</ele>
        <time>2018-04-02T11:20:33.000Z</time>
      </trkpt>
      <trkpt lat="42.96162" lon="0.85679">
        <ele>1402</ele>
        <time>2018-04-02T11:20:35.000Z</time>
      </trkpt>
      <trkpt lat="42.96161" lon="0.85678">
        <ele>1402</ele>
        <time>2018-04-02T11:20:37.000Z</time>
      </trkpt>
      <trkpt lat="42.9616" lon="0.85679">
        <ele>1402</ele>
        <time>2018-04-02T11:20:39.000Z</time>
      </trkpt>
      <trkpt lat="42.9616" lon="0.85679">
        <ele>1402</ele>
        <time>2018-04-02T11:20:41.000Z</time>
      </trkpt>
      <trkpt lat="42.9616" lon="0.85679">
        <ele>1402</ele>
        <time>2018-04-02T11:20:43.000Z</time>
      </trkpt>
      <trkpt lat="42.9616" lon="0.85679">
        <ele>1402</ele>
        <time>2018-04-02T11:20:45.000Z</time>
      </trkpt>
      <trkpt lat="42.96161" lon="0.8568">
        <ele>1402</ele>
        <time>2018-04-02T11:20:47.000Z</time>
      </trkpt>
      <trkpt lat="42.96161" lon="0.8568">
        <ele>1402</ele>
        <time>2018-04-02T11:20:49.000Z</time>
      </trkpt>
      <trkpt lat="42.96162" lon="0.8568">
        <ele>1402</ele>
        <time>2018-04-02T11:20:51.000Z</time>
      </trkpt>
      <trkpt lat="42.96162" lon="0.85679">
        <ele>1402</ele>
        <time>2018-04-02T11:20:53.000Z</time>
      </trkpt>
      <trkpt lat="42.96162" lon="0.8568">
        <ele>1402</ele>
        <time>2018-04-02T11:20:55.000Z</time>
      </trkpt>
      <trkpt lat="42.96162" lon="0.85679">
        <ele>1402</ele>
        <time>2018-04-02T11:20:57.000Z</time>
      </trkpt>
      <trkpt lat="42.96162" lon="0.85679">
        <ele>1402</ele>
        <time>2018-04-02T11:20:59.000Z</time>
      </trkpt>
      <trkpt lat="42.96162" lon="0.85679">
        <ele>1402</ele>
        <time>2018-04-02T11:21:01.000Z</time>
      </trkpt>
      <trkpt lat="42.96162" lon="0.85679">
        <ele>1402</ele>
        <time>2018-04-02T11:21:03.000Z</time>
      </trkpt>
      <trkpt lat="42.96162" lon="0.85679">
        <ele>1402</ele>
        <time>2018-04-02T11:21:05.000Z</time>
      </trkpt>
      <trkpt lat="42.96162" lon="0.85679">
        <ele>1402</ele>
        <time>2018-04-02T11:21:07.000Z</time>
      </trkpt>
      <trkpt lat="42.96162" lon="0.85679">
        <ele>1402</ele>
        <time>2018-04-02T11:21:09.000Z</time>
      </trkpt>
      <trkpt lat="42.96162" lon="0.85679">
        <ele>1402</ele>
        <time>2018-04-02T11:21:11.000Z</time>
      </trkpt>
      <trkpt lat="42.96162" lon="0.85679">
        <ele>1402</ele>
        <time>2018-04-02T11:21:13.000Z</time>
      </trkpt>
      <trkpt lat="42.96163" lon="0.85679">
        <ele>1402</ele>
        <time>2018-04-02T11:21:15.000Z</time>
      </trkpt>
      <trkpt lat="42.96163" lon="0.85679">
        <ele>1402</ele>
        <time>2018-04-02T11:21:17.000Z</time>
      </trkpt>
      <trkpt lat="42.96163" lon="0.85679">
        <ele>1402</ele>
        <time>2018-04-02T11:21:19.000Z</time>
      </trkpt>
      <trkpt lat="42.96163" lon="0.85679">
        <ele>1402</ele>
        <time>2018-04-02T11:21:21.000Z</time>
      </trkpt>
      <trkpt lat="42.96164" lon="0.85679">
        <ele>1402</ele>
        <time>2018-04-02T11:21:23.000Z</time>
      </trkpt>
      <trkpt lat="42.96164" lon="0.85679">
        <ele>1402</ele>
        <time>2018-04-02T11:21:25.000Z</time>
      </trkpt>
      <trkpt lat="42.96163" lon="0.85679">
        <ele>1402</ele>
        <time>2018-04-02T11:21:27.000Z</time>
      </trkpt>
      <trkpt lat="42.96163" lon="0.8568">
        <ele>1402</ele>
        <time>2018-04-02T11:21:29.000Z</time>
      </trkpt>
      <trkpt lat="42.96163" lon="0.85679">
        <ele>1402</ele>
        <time>2018-04-02T11:21:31.000Z</time>
      </trkpt>
      <trkpt lat="42.96162" lon="0.85679">
        <ele>1402</ele>
        <time>2018-04-02T11:21:33.000Z</time>
      </trkpt>
      <trkpt lat="42.96161" lon="0.8568">
        <ele>1402</ele>
        <time>2018-04-02T11:21:35.000Z</time>
      </trkpt>
      <trkpt lat="42.96161" lon="0.85679">
        <ele>1402</ele>
        <time>2018-04-02T11:21:37.000Z</time>
      </trkpt>
      <trkpt lat="42.9616" lon="0.85679">
        <ele>1402</ele>
        <time>2018-04-02T11:21:39.000Z</time>
      </trkpt>
      <trkpt lat="42.9616" lon="0.85679">
        <ele>1402</ele>
        <time>2018-04-02T11:21:41.000Z</time>
      </trkpt>
      <trkpt lat="42.96161" lon="0.85679">
        <ele>1402</ele>
        <time>2018-04-02T11:21:43.000Z</time>
      </trkpt>
      <trkpt lat="42.96161" lon="0.85679">
        <ele>1402</ele>
        <time>2018-04-02T11:21:45.000Z</time>
      </trkpt>
      <trkpt lat="42.96161" lon="0.85679">
        <ele>1402</ele>
        <time>2018-04-02T11:21:47.000Z</time>
      </trkpt>
      <trkpt lat="42.96161" lon="0.85678">
        <ele>1402</ele>
        <time>2018-04-02T11:21:49.000Z</time>
      </trkpt>
      <trkpt lat="42.96162" lon="0.85678">
        <ele>1402</ele>
        <time>2018-04-02T11:21:51.000Z</time>
      </trkpt>
      <trkpt lat="42.96162" lon="0.85677">
        <ele>1402</ele>
        <time>2018-04-02T11:21:53.000Z</time>
      </trkpt>
      <trkpt lat="42.96162" lon="0.85678">
        <ele>1402</ele>
        <time>2018-04-02T11:21:55.000Z</time>
      </trkpt>
      <trkpt lat="42.96162" lon="0.85678">
        <ele>1402</ele>
        <time>2018-04-02T11:21:57.000Z</time>
      </trkpt>
      <trkpt lat="42.96163" lon="0.85678">
        <ele>1402</ele>
        <time>2018-04-02T11:21:59.000Z</time>
      </trkpt>
      <trkpt lat="42.96163" lon="0.85678">
        <ele>1402</ele>
        <time>2018-04-02T11:22:01.000Z</time>
      </trkpt>
      <trkpt lat="42.96163" lon="0.85678">
        <ele>1402</ele>
        <time>2018-04-02T11:22:03.000Z</time>
      </trkpt>
      <trkpt lat="42.96162" lon="0.85679">
        <ele>1402</ele>
        <time>2018-04-02T11:22:05.000Z</time>
      </trkpt>
      <trkpt lat="42.96162" lon="0.85679">
        <ele>1402</ele>
        <time>2018-04-02T11:22:07.000Z</time>
      </trkpt>
      <trkpt lat="42.96162" lon="0.85679">
        <ele>1402</ele>
        <time>2018-04-02T11:22:09.000Z</time>
      </trkpt>
      <trkpt lat="42.96162" lon="0.85679">
        <ele>1402</ele>
        <time>2018-04-02T11:22:11.000Z</time>
      </trkpt>
      <trkpt lat="42.96162" lon="0.85679">
        <ele>1402</ele>
        <time>2018-04-02T11:22:13.000Z</time>
      </trkpt>
      <trkpt lat="42.96162" lon="0.85679">
        <ele>1402</ele>
        <time>2018-04-02T11:22:15.000Z</time>
      </trkpt>
      <trkpt lat="42.96162" lon="0.85679">
        <ele>1402</ele>
        <time>2018-04-02T11:22:17.000Z</time>
      </trkpt>
      <trkpt lat="42.96163" lon="0.85679">
        <ele>1402</ele>
        <time>2018-04-02T11:22:19.000Z</time>
      </trkpt>
      <trkpt lat="42.96163" lon="0.8568">
        <ele>1402</ele>
        <time>2018-04-02T11:22:21.000Z</time>
      </trkpt>
      <trkpt lat="42.96163" lon="0.8568">
        <ele>1402</ele>
        <time>2018-04-02T11:22:23.000Z</time>
      </trkpt>
      <trkpt lat="42.96163" lon="0.8568">
        <ele>1402</ele>
        <time>2018-04-02T11:22:25.000Z</time>
      </trkpt>
      <trkpt lat="42.96163" lon="0.8568">
        <ele>1402</ele>
        <time>2018-04-02T11:22:27.000Z</time>
      </trkpt>
      <trkpt lat="42.96163" lon="0.8568">
        <ele>1402</ele>
        <time>2018-04-02T11:22:29.000Z</time>
      </trkpt>
      <trkpt lat="42.96164" lon="0.85681">
        <ele>1402</ele>
        <time>2018-04-02T11:22:31.000Z</time>
      </trkpt>
      <trkpt lat="42.96164" lon="0.8568">
        <ele>1402</ele>
        <time>2018-04-02T11:22:33.000Z</time>
      </trkpt>
      <trkpt lat="42.96164" lon="0.85681">
        <ele>1402</ele>
        <time>2018-04-02T11:22:35.000Z</time>
      </trkpt>
      <trkpt lat="42.96164" lon="0.8568">
        <ele>1402</ele>
        <time>2018-04-02T11:22:37.000Z</time>
      </trkpt>
      <trkpt lat="42.96164" lon="0.8568">
        <ele>1402</ele>
        <time>2018-04-02T11:22:39.000Z</time>
      </trkpt>
      <trkpt lat="42.96163" lon="0.8568">
        <ele>1402</ele>
        <time>2018-04-02T11:22:41.000Z</time>
      </trkpt>
      <trkpt lat="42.96162" lon="0.85679">
        <ele>1402</ele>
        <time>2018-04-02T11:22:43.000Z</time>
      </trkpt>
      <trkpt lat="42.96162" lon="0.85679">
        <ele>1402</ele>
        <time>2018-04-02T11:22:45.000Z</time>
      </trkpt>
      <trkpt lat="42.96161" lon="0.85679">
        <ele>1402</ele>
        <time>2018-04-02T11:22:47.000Z</time>
      </trkpt>
      <trkpt lat="42.96161" lon="0.85679">
        <ele>1402</ele>
        <time>2018-04-02T11:22:49.000Z</time>
      </trkpt>
      <trkpt lat="42.96161" lon="0.85679">
        <ele>1402</ele>
        <time>2018-04-02T11:22:51.000Z</time>
      </trkpt>
      <trkpt lat="42.96161" lon="0.85679">
        <ele>1402</ele>
        <time>2018-04-02T11:22:53.000Z</time>
      </trkpt>
      <trkpt lat="42.96161" lon="0.85679">
        <ele>1402</ele>
        <time>2018-04-02T11:22:55.000Z</time>
      </trkpt>
      <trkpt lat="42.96161" lon="0.85679">
        <ele>1402</ele>
        <time>2018-04-02T11:22:57.000Z</time>
      </trkpt>
      <trkpt lat="42.96162" lon="0.85679">
        <ele>1402</ele>
        <time>2018-04-02T11:22:59.000Z</time>
      </trkpt>
      <trkpt lat="42.96161" lon="0.85679">
        <ele>1402</ele>
        <time>2018-04-02T11:23:01.000Z</time>
      </trkpt>
      <trkpt lat="42.96162" lon="0.85679">
        <ele>1402</ele>
        <time>2018-04-02T11:23:03.000Z</time>
      </trkpt>
      <trkpt lat="42.96161" lon="0.85679">
        <ele>1402</ele>
        <time>2018-04-02T11:23:05.000Z</time>
      </trkpt>
      <trkpt lat="42.96161" lon="0.85679">
        <ele>1402</ele>
        <time>2018-04-02T11:23:07.000Z</time>
      </trkpt>
      <trkpt lat="42.96161" lon="0.8568">
        <ele>1402</ele>
        <time>2018-04-02T11:23:09.000Z</time>
      </trkpt>
      <trkpt lat="42.96161" lon="0.8568">
        <ele>1402</ele>
        <time>2018-04-02T11:23:11.000Z</time>
      </trkpt>
      <trkpt lat="42.9616" lon="0.85679">
        <ele>1402</ele>
        <time>2018-04-02T11:23:13.000Z</time>
      </trkpt>
      <trkpt lat="42.96161" lon="0.85679">
        <ele>1402</ele>
        <time>2018-04-02T11:23:15.000Z</time>
      </trkpt>
      <trkpt lat="42.96161" lon="0.85679">
        <ele>1402</ele>
        <time>2018-04-02T11:23:17.000Z</time>
      </trkpt>
      <trkpt lat="42.96161" lon="0.85679">
        <ele>1402</ele>
        <time>2018-04-02T11:23:19.000Z</time>
      </trkpt>
      <trkpt lat="42.96161" lon="0.85679">
        <ele>1402</ele>
        <time>2018-04-02T11:23:21.000Z</time>
      </trkpt>
      <trkpt lat="42.96161" lon="0.85679">
        <ele>1402</ele>
        <time>2018-04-02T11:23:23.000Z</time>
      </trkpt>
      <trkpt lat="42.96161" lon="0.85679">
        <ele>1402</ele>
        <time>2018-04-02T11:23:25.000Z</time>
      </trkpt>
      <trkpt lat="42.96161" lon="0.85679">
        <ele>1402</ele>
        <time>2018-04-02T11:23:27.000Z</time>
      </trkpt>
      <trkpt lat="42.96161" lon="0.85678">
        <ele>1402</ele>
        <time>2018-04-02T11:23:29.000Z</time>
      </trkpt>
      <trkpt lat="42.96161" lon="0.85678">
        <ele>1402</ele>
        <time>2018-04-02T11:23:31.000Z</time>
      </trkpt>
      <trkpt lat="42.96162" lon="0.85677">
        <ele>1402</ele>
        <time>2018-04-02T11:23:33.000Z</time>
      </trkpt>
      <trkpt lat="42.96162" lon="0.85677">
        <ele>1402</ele>
        <time>2018-04-02T11:23:35.000Z</time>
      </trkpt>
      <trkpt lat="42.96163" lon="0.85677">
        <ele>1402</ele>
        <time>2018-04-02T11:23:37.000Z</time>
      </trkpt>
      <trkpt lat="42.96163" lon="0.85676">
        <ele>1402</ele>
        <time>2018-04-02T11:23:39.000Z</time>
      </trkpt>
      <trkpt lat="42.96163" lon="0.85677">
        <ele>1402</ele>
        <time>2018-04-02T11:23:41.000Z</time>
      </trkpt>
      <trkpt lat="42.96163" lon="0.85677">
        <ele>1402</ele>
        <time>2018-04-02T11:23:43.000Z</time>
      </trkpt>
      <trkpt lat="42.96163" lon="0.85677">
        <ele>1402</ele>
        <time>2018-04-02T11:23:45.000Z</time>
      </trkpt>
      <trkpt lat="42.96164" lon="0.85677">
        <ele>1402</ele>
        <time>2018-04-02T11:23:47.000Z</time>
      </trkpt>
      <trkpt lat="42.96164" lon="0.85677">
        <ele>1402</ele>
        <time>2018-04-02T11:23:49.000Z</time>
      </trkpt>
      <trkpt lat="42.96164" lon="0.85677">
        <ele>1402</ele>
        <time>2018-04-02T11:23:51.000Z</time>
      </trkpt>
      <trkpt lat="42.96164" lon="0.85677">
        <ele>1402</ele>
        <time>2018-04-02T11:23:53.000Z</time>
      </trkpt>
      <trkpt lat="42.96163" lon="0.85677">
        <ele>1402</ele>
        <time>2018-04-02T11:23:55.000Z</time>
      </trkpt>
      <trkpt lat="42.96163" lon="0.85678">
        <ele>1402</ele>
        <time>2018-04-02T11:23:57.000Z</time>
      </trkpt>
      <trkpt lat="42.96163" lon="0.85677">
        <ele>1402</ele>
        <time>2018-04-02T11:23:59.000Z</time>
      </trkpt>
      <trkpt lat="42.96163" lon="0.85678">
        <ele>1402</ele>
        <time>2018-04-02T11:24:01.000Z</time>
      </trkpt>
      <trkpt lat="42.96162" lon="0.85678">
        <ele>1402</ele>
        <time>2018-04-02T11:24:03.000Z</time>
      </trkpt>
      <trkpt lat="42.96162" lon="0.85678">
        <ele>1402</ele>
        <time>2018-04-02T11:24:05.000Z</time>
      </trkpt>
      <trkpt lat="42.96162" lon="0.85678">
        <ele>1402</ele>
        <time>2018-04-02T11:24:07.000Z</time>
      </trkpt>
      <trkpt lat="42.96162" lon="0.85679">
        <ele>1402</ele>
        <time>2018-04-02T11:24:09.000Z</time>
      </trkpt>
      <trkpt lat="42.96161" lon="0.85679">
        <ele>1402</ele>
        <time>2018-04-02T11:24:11.000Z</time>
      </trkpt>
      <trkpt lat="42.96161" lon="0.85678">
        <ele>1402</ele>
        <time>2018-04-02T11:24:13.000Z</time>
      </trkpt>
      <trkpt lat="42.9616" lon="0.85678">
        <ele>1402</ele>
        <time>2018-04-02T11:24:15.000Z</time>
      </trkpt>
      <trkpt lat="42.9616" lon="0.85678">
        <ele>1402</ele>
        <time>2018-04-02T11:24:17.000Z</time>
      </trkpt>
      <trkpt lat="42.96161" lon="0.85679">
        <ele>1402</ele>
        <time>2018-04-02T11:24:19.000Z</time>
      </trkpt>
      <trkpt lat="42.96161" lon="0.85678">
        <ele>1402</ele>
        <time>2018-04-02T11:24:21.000Z</time>
      </trkpt>
      <trkpt lat="42.9616" lon="0.85677">
        <ele>1402</ele>
        <time>2018-04-02T11:24:23.000Z</time>
      </trkpt>
      <trkpt lat="42.9616" lon="0.85678">
        <ele>1402</ele>
        <time>2018-04-02T11:24:25.000Z</time>
      </trkpt>
      <trkpt lat="42.9616" lon="0.85678">
        <ele>1402</ele>
        <time>2018-04-02T11:24:27.000Z</time>
      </trkpt>
      <trkpt lat="42.9616" lon="0.85678">
        <ele>1402</ele>
        <time>2018-04-02T11:24:29.000Z</time>
      </trkpt>
      <trkpt lat="42.9616" lon="0.85678">
        <ele>1402</ele>
        <time>2018-04-02T11:24:31.000Z</time>
      </trkpt>
      <trkpt lat="42.96161" lon="0.85677">
        <ele>1402</ele>
        <time>2018-04-02T11:24:33.000Z</time>
      </trkpt>
      <trkpt lat="42.96161" lon="0.85677">
        <ele>1402</ele>
        <time>2018-04-02T11:24:35.000Z</time>
      </trkpt>
      <trkpt lat="42.96162" lon="0.85677">
        <ele>1402</ele>
        <time>2018-04-02T11:24:37.000Z</time>
      </trkpt>
      <trkpt lat="42.96162" lon="0.85678">
        <ele>1402</ele>
        <time>2018-04-02T11:24:39.000Z</time>
      </trkpt>
      <trkpt lat="42.96163" lon="0.85679">
        <ele>1402</ele>
        <time>2018-04-02T11:24:41.000Z</time>
      </trkpt>
      <trkpt lat="42.96163" lon="0.85679">
        <ele>1402</ele>
        <time>2018-04-02T11:24:43.000Z</time>
      </trkpt>
      <trkpt lat="42.96163" lon="0.85679">
        <ele>1402</ele>
        <time>2018-04-02T11:24:45.000Z</time>
      </trkpt>
      <trkpt lat="42.96163" lon="0.85679">
        <ele>1402</ele>
        <time>2018-04-02T11:24:47.000Z</time>
      </trkpt>
      <trkpt lat="42.96164" lon="0.85679">
        <ele>1402</ele>
        <time>2018-04-02T11:24:49.000Z</time>
      </trkpt>
      <trkpt lat="42.96164" lon="0.85679">
        <ele>1402</ele>
        <time>2018-04-02T11:24:51.000Z</time>
      </trkpt>
      <trkpt lat="42.96164" lon="0.85679">
        <ele>1402</ele>
        <time>2018-04-02T11:24:53.000Z</time>
      </trkpt>
      <trkpt lat="42.96164" lon="0.85679">
        <ele>1402</ele>
        <time>2018-04-02T11:24:55.000Z</time>
      </trkpt>
      <trkpt lat="42.96164" lon="0.85679">
        <ele>1402</ele>
        <time>2018-04-02T11:24:57.000Z</time>
      </trkpt>
      <trkpt lat="42.96164" lon="0.85679">
        <ele>1402</ele>
        <time>2018-04-02T11:24:59.000Z</time>
      </trkpt>
      <trkpt lat="42.96164" lon="0.85679">
        <ele>1402</ele>
        <time>2018-04-02T11:25:01.000Z</time>
      </trkpt>
      <trkpt lat="42.96164" lon="0.85679">
        <ele>1402</ele>
        <time>2018-04-02T11:25:03.000Z</time>
      </trkpt>
      <trkpt lat="42.96164" lon="0.85679">
        <ele>1402</ele>
        <time>2018-04-02T11:25:05.000Z</time>
      </trkpt>
      <trkpt lat="42.96164" lon="0.85678">
        <ele>1402</ele>
        <time>2018-04-02T11:25:07.000Z</time>
      </trkpt>
      <trkpt lat="42.96164" lon="0.85678">
        <ele>1402</ele>
        <time>2018-04-02T11:25:09.000Z</time>
      </trkpt>
      <trkpt lat="42.96164" lon="0.85678">
        <ele>1402</ele>
        <time>2018-04-02T11:25:11.000Z</time>
      </trkpt>
      <trkpt lat="42.96163" lon="0.85678">
        <ele>1402</ele>
        <time>2018-04-02T11:25:13.000Z</time>
      </trkpt>
      <trkpt lat="42.96163" lon="0.85678">
        <ele>1402</ele>
        <time>2018-04-02T11:25:15.000Z</time>
      </trkpt>
      <trkpt lat="42.96162" lon="0.85679">
        <ele>1402</ele>
        <time>2018-04-02T11:25:17.000Z</time>
      </trkpt>
      <trkpt lat="42.96161" lon="0.85678">
        <ele>1402</ele>
        <time>2018-04-02T11:25:19.000Z</time>
      </trkpt>
      <trkpt lat="42.96161" lon="0.85679">
        <ele>1402</ele>
        <time>2018-04-02T11:25:21.000Z</time>
      </trkpt>
      <trkpt lat="42.9616" lon="0.85679">
        <ele>1402</ele>
        <time>2018-04-02T11:25:23.000Z</time>
      </trkpt>
      <trkpt lat="42.96159" lon="0.85679">
        <ele>1402</ele>
        <time>2018-04-02T11:25:25.000Z</time>
      </trkpt>
      <trkpt lat="42.96158" lon="0.85679">
        <ele>1402</ele>
        <time>2018-04-02T11:25:27.000Z</time>
      </trkpt>
      <trkpt lat="42.96158" lon="0.85679">
        <ele>1402</ele>
        <time>2018-04-02T11:25:29.000Z</time>
      </trkpt>
      <trkpt lat="42.96158" lon="0.85679">
        <ele>1402</ele>
        <time>2018-04-02T11:25:31.000Z</time>
      </trkpt>
      <trkpt lat="42.96159" lon="0.85678">
        <ele>1402</ele>
        <time>2018-04-02T11:25:33.000Z</time>
      </trkpt>
      <trkpt lat="42.96159" lon="0.85678">
        <ele>1402</ele>
        <time>2018-04-02T11:25:35.000Z</time>
      </trkpt>
      <trkpt lat="42.96159" lon="0.85678">
        <ele>1402</ele>
        <time>2018-04-02T11:25:37.000Z</time>
      </trkpt>
      <trkpt lat="42.96159" lon="0.85677">
        <ele>1402</ele>
        <time>2018-04-02T11:25:39.000Z</time>
      </trkpt>
      <trkpt lat="42.96159" lon="0.85677">
        <ele>1402</ele>
        <time>2018-04-02T11:25:41.000Z</time>
      </trkpt>
      <trkpt lat="42.96159" lon="0.85678">
        <ele>1402</ele>
        <time>2018-04-02T11:25:43.000Z</time>
      </trkpt>
      <trkpt lat="42.96159" lon="0.85678">
        <ele>1402</ele>
        <time>2018-04-02T11:25:45.000Z</time>
      </trkpt>
      <trkpt lat="42.96159" lon="0.85678">
        <ele>1402</ele>
        <time>2018-04-02T11:25:47.000Z</time>
      </trkpt>
      <trkpt lat="42.96159" lon="0.85679">
        <ele>1402</ele>
        <time>2018-04-02T11:25:49.000Z</time>
      </trkpt>
      <trkpt lat="42.96159" lon="0.85679">
        <ele>1402</ele>
        <time>2018-04-02T11:25:51.000Z</time>
      </trkpt>
      <trkpt lat="42.96159" lon="0.85679">
        <ele>1402</ele>
        <time>2018-04-02T11:25:53.000Z</time>
      </trkpt>
      <trkpt lat="42.96159" lon="0.85679">
        <ele>1402</ele>
        <time>2018-04-02T11:25:55.000Z</time>
      </trkpt>
      <trkpt lat="42.9616" lon="0.8568">
        <ele>1402</ele>
        <time>2018-04-02T11:25:57.000Z</time>
      </trkpt>
      <trkpt lat="42.9616" lon="0.85679">
        <ele>1402</ele>
        <time>2018-04-02T11:25:59.000Z</time>
      </trkpt>
      <trkpt lat="42.9616" lon="0.85679">
        <ele>1402</ele>
        <time>2018-04-02T11:26:01.000Z</time>
      </trkpt>
      <trkpt lat="42.9616" lon="0.85679">
        <ele>1402</ele>
        <time>2018-04-02T11:26:03.000Z</time>
      </trkpt>
      <trkpt lat="42.9616" lon="0.85677">
        <ele>1402</ele>
        <time>2018-04-02T11:26:05.000Z</time>
      </trkpt>
      <trkpt lat="42.96161" lon="0.85677">
        <ele>1402</ele>
        <time>2018-04-02T11:26:07.000Z</time>
      </trkpt>
      <trkpt lat="42.96161" lon="0.85677">
        <ele>1402</ele>
        <time>2018-04-02T11:26:09.000Z</time>
      </trkpt>
      <trkpt lat="42.96162" lon="0.85677">
        <ele>1402</ele>
        <time>2018-04-02T11:26:11.000Z</time>
      </trkpt>
      <trkpt lat="42.96162" lon="0.85678">
        <ele>1402</ele>
        <time>2018-04-02T11:26:13.000Z</time>
      </trkpt>
      <trkpt lat="42.96162" lon="0.85678">
        <ele>1402</ele>
        <time>2018-04-02T11:26:15.000Z</time>
      </trkpt>
      <trkpt lat="42.96162" lon="0.85678">
        <ele>1402</ele>
        <time>2018-04-02T11:26:17.000Z</time>
      </trkpt>
      <trkpt lat="42.96162" lon="0.85678">
        <ele>1402</ele>
        <time>2018-04-02T11:26:19.000Z</time>
      </trkpt>
      <trkpt lat="42.96162" lon="0.85678">
        <ele>1402</ele>
        <time>2018-04-02T11:26:21.000Z</time>
      </trkpt>
      <trkpt lat="42.96162" lon="0.85678">
        <ele>1402</ele>
        <time>2018-04-02T11:26:23.000Z</time>
      </trkpt>
      <trkpt lat="42.96163" lon="0.85678">
        <ele>1402</ele>
        <time>2018-04-02T11:26:25.000Z</time>
      </trkpt>
      <trkpt lat="42.96163" lon="0.85677">
        <ele>1402</ele>
        <time>2018-04-02T11:26:27.000Z</time>
      </trkpt>
      <trkpt lat="42.96163" lon="0.85677">
        <ele>1402</ele>
        <time>2018-04-02T11:26:29.000Z</time>
      </trkpt>
      <trkpt lat="42.96163" lon="0.85677">
        <ele>1402</ele>
        <time>2018-04-02T11:26:31.000Z</time>
      </trkpt>
      <trkpt lat="42.96162" lon="0.85678">
        <ele>1402</ele>
        <time>2018-04-02T11:26:33.000Z</time>
      </trkpt>
      <trkpt lat="42.96162" lon="0.85677">
        <ele>1402</ele>
        <time>2018-04-02T11:26:35.000Z</time>
      </trkpt>
      <trkpt lat="42.96162" lon="0.85678">
        <ele>1402</ele>
        <time>2018-04-02T11:26:37.000Z</time>
      </trkpt>
      <trkpt lat="42.96161" lon="0.85679">
        <ele>1402</ele>
        <time>2018-04-02T11:26:39.000Z</time>
      </trkpt>
      <trkpt lat="42.96161" lon="0.85679">
        <ele>1402</ele>
        <time>2018-04-02T11:26:41.000Z</time>
      </trkpt>
      <trkpt lat="42.96161" lon="0.85679">
        <ele>1402</ele>
        <time>2018-04-02T11:26:43.000Z</time>
      </trkpt>
      <trkpt lat="42.96161" lon="0.8568">
        <ele>1402</ele>
        <time>2018-04-02T11:26:45.000Z</time>
      </trkpt>
      <trkpt lat="42.96161" lon="0.8568">
        <ele>1402</ele>
        <time>2018-04-02T11:26:47.000Z</time>
      </trkpt>
      <trkpt lat="42.96161" lon="0.85681">
        <ele>1402</ele>
        <time>2018-04-02T11:26:49.000Z</time>
      </trkpt>
      <trkpt lat="42.96161" lon="0.85681">
        <ele>1402</ele>
        <time>2018-04-02T11:26:51.000Z</time>
      </trkpt>
      <trkpt lat="42.96162" lon="0.8568">
        <ele>1402</ele>
        <time>2018-04-02T11:26:53.000Z</time>
      </trkpt>
      <trkpt lat="42.96162" lon="0.85681">
        <ele>1402</ele>
        <time>2018-04-02T11:26:55.000Z</time>
      </trkpt>
      <trkpt lat="42.96162" lon="0.8568">
        <ele>1402</ele>
        <time>2018-04-02T11:26:57.000Z</time>
      </trkpt>
      <trkpt lat="42.96162" lon="0.85681">
        <ele>1402</ele>
        <time>2018-04-02T11:26:59.000Z</time>
      </trkpt>
      <trkpt lat="42.96162" lon="0.8568">
        <ele>1402</ele>
        <time>2018-04-02T11:27:01.000Z</time>
      </trkpt>
      <trkpt lat="42.96162" lon="0.8568">
        <ele>1402</ele>
        <time>2018-04-02T11:27:03.000Z</time>
      </trkpt>
      <trkpt lat="42.96162" lon="0.8568">
        <ele>1402</ele>
        <time>2018-04-02T11:27:05.000Z</time>
      </trkpt>
      <trkpt lat="42.96162" lon="0.8568">
        <ele>1402</ele>
        <time>2018-04-02T11:27:07.000Z</time>
      </trkpt>
      <trkpt lat="42.96162" lon="0.8568">
        <ele>1402</ele>
        <time>2018-04-02T11:27:09.000Z</time>
      </trkpt>
      <trkpt lat="42.96162" lon="0.8568">
        <ele>1402</ele>
        <time>2018-04-02T11:27:11.000Z</time>
      </trkpt>
      <trkpt lat="42.96162" lon="0.8568">
        <ele>1402</ele>
        <time>2018-04-02T11:27:13.000Z</time>
      </trkpt>
      <trkpt lat="42.96162" lon="0.8568">
        <ele>1402</ele>
        <time>2018-04-02T11:27:15.000Z</time>
      </trkpt>
      <trkpt lat="42.96162" lon="0.85679">
        <ele>1402</ele>
        <time>2018-04-02T11:27:17.000Z</time>
      </trkpt>
      <trkpt lat="42.96163" lon="0.85679">
        <ele>1402</ele>
        <time>2018-04-02T11:27:19.000Z</time>
      </trkpt>
      <trkpt lat="42.96163" lon="0.85679">
        <ele>1402</ele>
        <time>2018-04-02T11:27:21.000Z</time>
      </trkpt>
      <trkpt lat="42.96163" lon="0.85679">
        <ele>1402</ele>
        <time>2018-04-02T11:27:23.000Z</time>
      </trkpt>
      <trkpt lat="42.96163" lon="0.85679">
        <ele>1402</ele>
        <time>2018-04-02T11:27:25.000Z</time>
      </trkpt>
      <trkpt lat="42.96163" lon="0.85679">
        <ele>1402</ele>
        <time>2018-04-02T11:27:27.000Z</time>
      </trkpt>
      <trkpt lat="42.96164" lon="0.85679">
        <ele>1402</ele>
        <time>2018-04-02T11:27:29.000Z</time>
      </trkpt>
      <trkpt lat="42.96164" lon="0.85679">
        <ele>1402</ele>
        <time>2018-04-02T11:27:31.000Z</time>
      </trkpt>
      <trkpt lat="42.96164" lon="0.85678">
        <ele>1402</ele>
        <time>2018-04-02T11:27:33.000Z</time>
      </trkpt>
      <trkpt lat="42.96165" lon="0.85678">
        <ele>1402</ele>
        <time>2018-04-02T11:27:35.000Z</time>
      </trkpt>
      <trkpt lat="42.96165" lon="0.85677">
        <ele>1402</ele>
        <time>2018-04-02T11:27:37.000Z</time>
      </trkpt>
      <trkpt lat="42.96165" lon="0.85677">
        <ele>1403</ele>
        <time>2018-04-02T11:27:39.000Z</time>
      </trkpt>
      <trkpt lat="42.96165" lon="0.85677">
        <ele>1403</ele>
        <time>2018-04-02T11:27:41.000Z</time>
      </trkpt>
      <trkpt lat="42.96165" lon="0.85676">
        <ele>1403</ele>
        <time>2018-04-02T11:27:43.000Z</time>
      </trkpt>
      <trkpt lat="42.96165" lon="0.85676">
        <ele>1403</ele>
        <time>2018-04-02T11:27:45.000Z</time>
      </trkpt>
      <trkpt lat="42.96165" lon="0.85676">
        <ele>1403</ele>
        <time>2018-04-02T11:27:47.000Z</time>
      </trkpt>
      <trkpt lat="42.96165" lon="0.85675">
        <ele>1403</ele>
        <time>2018-04-02T11:27:49.000Z</time>
      </trkpt>
      <trkpt lat="42.96165" lon="0.85675">
        <ele>1403</ele>
        <time>2018-04-02T11:27:51.000Z</time>
      </trkpt>
      <trkpt lat="42.96165" lon="0.85675">
        <ele>1403</ele>
        <time>2018-04-02T11:27:53.000Z</time>
      </trkpt>
      <trkpt lat="42.96165" lon="0.85675">
        <ele>1403</ele>
        <time>2018-04-02T11:27:55.000Z</time>
      </trkpt>
      <trkpt lat="42.96166" lon="0.85675">
        <ele>1403</ele>
        <time>2018-04-02T11:27:57.000Z</time>
      </trkpt>
      <trkpt lat="42.96164" lon="0.85676">
        <ele>1403</ele>
        <time>2018-04-02T11:27:59.000Z</time>
      </trkpt>
      <trkpt lat="42.96163" lon="0.85676">
        <ele>1403</ele>
        <time>2018-04-02T11:28:01.000Z</time>
      </trkpt>
      <trkpt lat="42.96163" lon="0.85676">
        <ele>1403</ele>
        <time>2018-04-02T11:28:03.000Z</time>
      </trkpt>
      <trkpt lat="42.96163" lon="0.85676">
        <ele>1403</ele>
        <time>2018-04-02T11:28:05.000Z</time>
      </trkpt>
      <trkpt lat="42.96164" lon="0.85676">
        <ele>1403</ele>
        <time>2018-04-02T11:28:07.000Z</time>
      </trkpt>
      <trkpt lat="42.96164" lon="0.85676">
        <ele>1402</ele>
        <time>2018-04-02T11:28:09.000Z</time>
      </trkpt>
      <trkpt lat="42.96164" lon="0.85677">
        <ele>1403</ele>
        <time>2018-04-02T11:28:11.000Z</time>
      </trkpt>
      <trkpt lat="42.96165" lon="0.85677">
        <ele>1403</ele>
        <time>2018-04-02T11:28:13.000Z</time>
      </trkpt>
      <trkpt lat="42.96165" lon="0.85676">
        <ele>1403</ele>
        <time>2018-04-02T11:28:15.000Z</time>
      </trkpt>
      <trkpt lat="42.96165" lon="0.85676">
        <ele>1403</ele>
        <time>2018-04-02T11:28:17.000Z</time>
      </trkpt>
      <trkpt lat="42.96166" lon="0.85676">
        <ele>1403</ele>
        <time>2018-04-02T11:28:19.000Z</time>
      </trkpt>
      <trkpt lat="42.96165" lon="0.85676">
        <ele>1403</ele>
        <time>2018-04-02T11:28:21.000Z</time>
      </trkpt>
      <trkpt lat="42.96165" lon="0.85676">
        <ele>1403</ele>
        <time>2018-04-02T11:28:23.000Z</time>
      </trkpt>
      <trkpt lat="42.96164" lon="0.85678">
        <ele>1402</ele>
        <time>2018-04-02T11:28:25.000Z</time>
      </trkpt>
      <trkpt lat="42.96164" lon="0.85678">
        <ele>1402</ele>
        <time>2018-04-02T11:28:27.000Z</time>
      </trkpt>
      <trkpt lat="42.96164" lon="0.85678">
        <ele>1402</ele>
        <time>2018-04-02T11:28:29.000Z</time>
      </trkpt>
      <trkpt lat="42.96164" lon="0.85678">
        <ele>1402</ele>
        <time>2018-04-02T11:28:31.000Z</time>
      </trkpt>
      <trkpt lat="42.96164" lon="0.85678">
        <ele>1402</ele>
        <time>2018-04-02T11:28:33.000Z</time>
      </trkpt>
      <trkpt lat="42.96164" lon="0.85677">
        <ele>1402</ele>
        <time>2018-04-02T11:28:35.000Z</time>
      </trkpt>
      <trkpt lat="42.96163" lon="0.85677">
        <ele>1402</ele>
        <time>2018-04-02T11:28:37.000Z</time>
      </trkpt>
      <trkpt lat="42.96163" lon="0.85677">
        <ele>1402</ele>
        <time>2018-04-02T11:28:39.000Z</time>
      </trkpt>
      <trkpt lat="42.96163" lon="0.85677">
        <ele>1402</ele>
        <time>2018-04-02T11:28:41.000Z</time>
      </trkpt>
      <trkpt lat="42.96163" lon="0.85677">
        <ele>1402</ele>
        <time>2018-04-02T11:28:43.000Z</time>
      </trkpt>
      <trkpt lat="42.96163" lon="0.85677">
        <ele>1402</ele>
        <time>2018-04-02T11:28:45.000Z</time>
      </trkpt>
      <trkpt lat="42.96162" lon="0.85677">
        <ele>1402</ele>
        <time>2018-04-02T11:28:47.000Z</time>
      </trkpt>
      <trkpt lat="42.96162" lon="0.85678">
        <ele>1402</ele>
        <time>2018-04-02T11:28:49.000Z</time>
      </trkpt>
      <trkpt lat="42.96162" lon="0.85678">
        <ele>1402</ele>
        <time>2018-04-02T11:28:51.000Z</time>
      </trkpt>
      <trkpt lat="42.96163" lon="0.85678">
        <ele>1402</ele>
        <time>2018-04-02T11:28:53.000Z</time>
      </trkpt>
      <trkpt lat="42.96163" lon="0.85678">
        <ele>1402</ele>
        <time>2018-04-02T11:28:55.000Z</time>
      </trkpt>
      <trkpt lat="42.96163" lon="0.85678">
        <ele>1402</ele>
        <time>2018-04-02T11:28:57.000Z</time>
      </trkpt>
      <trkpt lat="42.96162" lon="0.85679">
        <ele>1402</ele>
        <time>2018-04-02T11:28:59.000Z</time>
      </trkpt>
      <trkpt lat="42.96161" lon="0.8568">
        <ele>1402</ele>
        <time>2018-04-02T11:29:01.000Z</time>
      </trkpt>
      <trkpt lat="42.96161" lon="0.85681">
        <ele>1402</ele>
        <time>2018-04-02T11:29:03.000Z</time>
      </trkpt>
      <trkpt lat="42.9616" lon="0.85681">
        <ele>1402</ele>
        <time>2018-04-02T11:29:05.000Z</time>
      </trkpt>
      <trkpt lat="42.96161" lon="0.85681">
        <ele>1402</ele>
        <time>2018-04-02T11:29:07.000Z</time>
      </trkpt>
      <trkpt lat="42.96161" lon="0.85681">
        <ele>1402</ele>
        <time>2018-04-02T11:29:09.000Z</time>
      </trkpt>
      <trkpt lat="42.96161" lon="0.85681">
        <ele>1402</ele>
        <time>2018-04-02T11:29:11.000Z</time>
      </trkpt>
      <trkpt lat="42.96162" lon="0.8568">
        <ele>1402</ele>
        <time>2018-04-02T11:29:13.000Z</time>
      </trkpt>
      <trkpt lat="42.96162" lon="0.8568">
        <ele>1402</ele>
        <time>2018-04-02T11:29:15.000Z</time>
      </trkpt>
      <trkpt lat="42.96161" lon="0.8568">
        <ele>1402</ele>
        <time>2018-04-02T11:29:17.000Z</time>
      </trkpt>
      <trkpt lat="42.96162" lon="0.8568">
        <ele>1402</ele>
        <time>2018-04-02T11:29:19.000Z</time>
      </trkpt>
      <trkpt lat="42.96162" lon="0.8568">
        <ele>1402</ele>
        <time>2018-04-02T11:29:21.000Z</time>
      </trkpt>
      <trkpt lat="42.96163" lon="0.8568">
        <ele>1402</ele>
        <time>2018-04-02T11:29:23.000Z</time>
      </trkpt>
      <trkpt lat="42.96163" lon="0.85679">
        <ele>1402</ele>
        <time>2018-04-02T11:29:25.000Z</time>
      </trkpt>
      <trkpt lat="42.96163" lon="0.8568">
        <ele>1402</ele>
        <time>2018-04-02T11:29:27.000Z</time>
      </trkpt>
      <trkpt lat="42.96163" lon="0.8568">
        <ele>1402</ele>
        <time>2018-04-02T11:29:29.000Z</time>
      </trkpt>
      <trkpt lat="42.96163" lon="0.8568">
        <ele>1402</ele>
        <time>2018-04-02T11:29:31.000Z</time>
      </trkpt>
      <trkpt lat="42.96163" lon="0.85681">
        <ele>1402</ele>
        <time>2018-04-02T11:29:33.000Z</time>
      </trkpt>
      <trkpt lat="42.96163" lon="0.85681">
        <ele>1402</ele>
        <time>2018-04-02T11:29:35.000Z</time>
      </trkpt>
      <trkpt lat="42.96162" lon="0.8568">
        <ele>1402</ele>
        <time>2018-04-02T11:29:37.000Z</time>
      </trkpt>
      <trkpt lat="42.96162" lon="0.8568">
        <ele>1402</ele>
        <time>2018-04-02T11:29:39.000Z</time>
      </trkpt>
      <trkpt lat="42.96163" lon="0.85679">
        <ele>1402</ele>
        <time>2018-04-02T11:29:41.000Z</time>
      </trkpt>
      <trkpt lat="42.96163" lon="0.85679">
        <ele>1402</ele>
        <time>2018-04-02T11:29:43.000Z</time>
      </trkpt>
      <trkpt lat="42.96163" lon="0.85678">
        <ele>1402</ele>
        <time>2018-04-02T11:29:45.000Z</time>
      </trkpt>
      <trkpt lat="42.96163" lon="0.85679">
        <ele>1402</ele>
        <time>2018-04-02T11:29:47.000Z</time>
      </trkpt>
      <trkpt lat="42.96164" lon="0.85678">
        <ele>1402</ele>
        <time>2018-04-02T11:29:49.000Z</time>
      </trkpt>
      <trkpt lat="42.96164" lon="0.85679">
        <ele>1402</ele>
        <time>2018-04-02T11:29:51.000Z</time>
      </trkpt>
      <trkpt lat="42.96164" lon="0.85679">
        <ele>1402</ele>
        <time>2018-04-02T11:29:53.000Z</time>
      </trkpt>
      <trkpt lat="42.96164" lon="0.85678">
        <ele>1402</ele>
        <time>2018-04-02T11:29:55.000Z</time>
      </trkpt>
      <trkpt lat="42.96165" lon="0.85678">
        <ele>1402</ele>
        <time>2018-04-02T11:29:57.000Z</time>
      </trkpt>
      <trkpt lat="42.96164" lon="0.85678">
        <ele>1402</ele>
        <time>2018-04-02T11:29:59.000Z</time>
      </trkpt>
      <trkpt lat="42.96164" lon="0.85677">
        <ele>1402</ele>
        <time>2018-04-02T11:30:01.000Z</time>
      </trkpt>
      <trkpt lat="42.96164" lon="0.85676">
        <ele>1402</ele>
        <time>2018-04-02T11:30:03.000Z</time>
      </trkpt>
      <trkpt lat="42.96164" lon="0.85676">
        <ele>1403</ele>
        <time>2018-04-02T11:30:05.000Z</time>
      </trkpt>
      <trkpt lat="42.96164" lon="0.85676">
        <ele>1403</ele>
        <time>2018-04-02T11:30:07.000Z</time>
      </trkpt>
      <trkpt lat="42.96164" lon="0.85675">
        <ele>1403</ele>
        <time>2018-04-02T11:30:09.000Z</time>
      </trkpt>
      <trkpt lat="42.96164" lon="0.85675">
        <ele>1403</ele>
        <time>2018-04-02T11:30:11.000Z</time>
      </trkpt>
      <trkpt lat="42.96165" lon="0.85675">
        <ele>1403</ele>
        <time>2018-04-02T11:30:13.000Z</time>
      </trkpt>
      <trkpt lat="42.96163" lon="0.85677">
        <ele>1402</ele>
        <time>2018-04-02T11:30:15.000Z</time>
      </trkpt>
      <trkpt lat="42.96162" lon="0.85677">
        <ele>1402</ele>
        <time>2018-04-02T11:30:17.000Z</time>
      </trkpt>
      <trkpt lat="42.96161" lon="0.85677">
        <ele>1402</ele>
        <time>2018-04-02T11:30:19.000Z</time>
      </trkpt>
      <trkpt lat="42.96161" lon="0.85677">
        <ele>1402</ele>
        <time>2018-04-02T11:30:21.000Z</time>
      </trkpt>
      <trkpt lat="42.96161" lon="0.85677">
        <ele>1402</ele>
        <time>2018-04-02T11:30:23.000Z</time>
      </trkpt>
      <trkpt lat="42.96162" lon="0.85677">
        <ele>1402</ele>
        <time>2018-04-02T11:30:25.000Z</time>
      </trkpt>
      <trkpt lat="42.96161" lon="0.85678">
        <ele>1402</ele>
        <time>2018-04-02T11:30:27.000Z</time>
      </trkpt>
      <trkpt lat="42.96161" lon="0.85678">
        <ele>1402</ele>
        <time>2018-04-02T11:30:29.000Z</time>
      </trkpt>
      <trkpt lat="42.96161" lon="0.85679">
        <ele>1402</ele>
        <time>2018-04-02T11:30:31.000Z</time>
      </trkpt>
      <trkpt lat="42.96161" lon="0.8568">
        <ele>1402</ele>
        <time>2018-04-02T11:30:33.000Z</time>
      </trkpt>
      <trkpt lat="42.96161" lon="0.8568">
        <ele>1402</ele>
        <time>2018-04-02T11:30:35.000Z</time>
      </trkpt>
      <trkpt lat="42.96162" lon="0.8568">
        <ele>1402</ele>
        <time>2018-04-02T11:30:37.000Z</time>
      </trkpt>
      <trkpt lat="42.96162" lon="0.85679">
        <ele>1402</ele>
        <time>2018-04-02T11:30:39.000Z</time>
      </trkpt>
      <trkpt lat="42.96162" lon="0.85679">
        <ele>1402</ele>
        <time>2018-04-02T11:30:41.000Z</time>
      </trkpt>
      <trkpt lat="42.96163" lon="0.85679">
        <ele>1402</ele>
        <time>2018-04-02T11:30:43.000Z</time>
      </trkpt>
      <trkpt lat="42.96164" lon="0.85678">
        <ele>1402</ele>
        <time>2018-04-02T11:30:45.000Z</time>
      </trkpt>
      <trkpt lat="42.96165" lon="0.85678">
        <ele>1402</ele>
        <time>2018-04-02T11:30:47.000Z</time>
      </trkpt>
      <trkpt lat="42.96165" lon="0.85678">
        <ele>1402</ele>
        <time>2018-04-02T11:30:49.000Z</time>
      </trkpt>
      <trkpt lat="42.96165" lon="0.85678">
        <ele>1402</ele>
        <time>2018-04-02T11:30:51.000Z</time>
      </trkpt>
      <trkpt lat="42.96165" lon="0.85679">
        <ele>1402</ele>
        <time>2018-04-02T11:30:53.000Z</time>
      </trkpt>
      <trkpt lat="42.96166" lon="0.85679">
        <ele>1402</ele>
        <time>2018-04-02T11:30:55.000Z</time>
      </trkpt>
      <trkpt lat="42.96166" lon="0.85679">
        <ele>1402</ele>
        <time>2018-04-02T11:30:57.000Z</time>
      </trkpt>
      <trkpt lat="42.96167" lon="0.85678">
        <ele>1402</ele>
        <time>2018-04-02T11:30:59.000Z</time>
      </trkpt>
      <trkpt lat="42.96167" lon="0.85678">
        <ele>1402</ele>
        <time>2018-04-02T11:31:01.000Z</time>
      </trkpt>
      <trkpt lat="42.96166" lon="0.85679">
        <ele>1402</ele>
        <time>2018-04-02T11:31:03.000Z</time>
      </trkpt>
      <trkpt lat="42.96165" lon="0.8568">
        <ele>1402</ele>
        <time>2018-04-02T11:31:05.000Z</time>
      </trkpt>
      <trkpt lat="42.96165" lon="0.8568">
        <ele>1402</ele>
        <time>2018-04-02T11:31:07.000Z</time>
      </trkpt>
      <trkpt lat="42.96165" lon="0.85679">
        <ele>1402</ele>
        <time>2018-04-02T11:31:09.000Z</time>
      </trkpt>
      <trkpt lat="42.96166" lon="0.85679">
        <ele>1402</ele>
        <time>2018-04-02T11:31:11.000Z</time>
      </trkpt>
      <trkpt lat="42.96166" lon="0.85679">
        <ele>1402</ele>
        <time>2018-04-02T11:31:13.000Z</time>
      </trkpt>
      <trkpt lat="42.96165" lon="0.85678">
        <ele>1402</ele>
        <time>2018-04-02T11:31:15.000Z</time>
      </trkpt>
      <trkpt lat="42.96163" lon="0.85679">
        <ele>1402</ele>
        <time>2018-04-02T11:31:17.000Z</time>
      </trkpt>
      <trkpt lat="42.96163" lon="0.85679">
        <ele>1402</ele>
        <time>2018-04-02T11:31:19.000Z</time>
      </trkpt>
      <trkpt lat="42.96163" lon="0.85679">
        <ele>1402</ele>
        <time>2018-04-02T11:31:21.000Z</time>
      </trkpt>
      <trkpt lat="42.96163" lon="0.85678">
        <ele>1402</ele>
        <time>2018-04-02T11:31:23.000Z</time>
      </trkpt>
      <trkpt lat="42.96164" lon="0.85678">
        <ele>1402</ele>
        <time>2018-04-02T11:31:25.000Z</time>
      </trkpt>
      <trkpt lat="42.96164" lon="0.85678">
        <ele>1402</ele>
        <time>2018-04-02T11:31:27.000Z</time>
      </trkpt>
      <trkpt lat="42.96164" lon="0.85677">
        <ele>1402</ele>
        <time>2018-04-02T11:31:29.000Z</time>
      </trkpt>
      <trkpt lat="42.96164" lon="0.85677">
        <ele>1402</ele>
        <time>2018-04-02T11:31:31.000Z</time>
      </trkpt>
      <trkpt lat="42.96164" lon="0.85677">
        <ele>1402</ele>
        <time>2018-04-02T11:31:33.000Z</time>
      </trkpt>
      <trkpt lat="42.96164" lon="0.85677">
        <ele>1402</ele>
        <time>2018-04-02T11:31:35.000Z</time>
      </trkpt>
      <trkpt lat="42.96163" lon="0.85678">
        <ele>1402</ele>
        <time>2018-04-02T11:31:37.000Z</time>
      </trkpt>
      <trkpt lat="42.96162" lon="0.85678">
        <ele>1402</ele>
        <time>2018-04-02T11:31:39.000Z</time>
      </trkpt>
      <trkpt lat="42.96163" lon="0.85678">
        <ele>1402</ele>
        <time>2018-04-02T11:31:41.000Z</time>
      </trkpt>
      <trkpt lat="42.96163" lon="0.85678">
        <ele>1402</ele>
        <time>2018-04-02T11:31:43.000Z</time>
      </trkpt>
      <trkpt lat="42.96163" lon="0.85678">
        <ele>1402</ele>
        <time>2018-04-02T11:31:45.000Z</time>
      </trkpt>
      <trkpt lat="42.96163" lon="0.85678">
        <ele>1402</ele>
        <time>2018-04-02T11:31:47.000Z</time>
      </trkpt>
      <trkpt lat="42.96162" lon="0.85678">
        <ele>1402</ele>
        <time>2018-04-02T11:31:49.000Z</time>
      </trkpt>
      <trkpt lat="42.96162" lon="0.85678">
        <ele>1402</ele>
        <time>2018-04-02T11:31:51.000Z</time>
      </trkpt>
      <trkpt lat="42.96162" lon="0.85678">
        <ele>1402</ele>
        <time>2018-04-02T11:31:53.000Z</time>
      </trkpt>
      <trkpt lat="42.96162" lon="0.85677">
        <ele>1402</ele>
        <time>2018-04-02T11:31:55.000Z</time>
      </trkpt>
      <trkpt lat="42.96162" lon="0.85678">
        <ele>1402</ele>
        <time>2018-04-02T11:31:57.000Z</time>
      </trkpt>
      <trkpt lat="42.96161" lon="0.85677">
        <ele>1402</ele>
        <time>2018-04-02T11:31:59.000Z</time>
      </trkpt>
      <trkpt lat="42.96162" lon="0.85677">
        <ele>1402</ele>
        <time>2018-04-02T11:32:01.000Z</time>
      </trkpt>
      <trkpt lat="42.96162" lon="0.85676">
        <ele>1402</ele>
        <time>2018-04-02T11:32:03.000Z</time>
      </trkpt>
      <trkpt lat="42.96162" lon="0.85676">
        <ele>1402</ele>
        <time>2018-04-02T11:32:05.000Z</time>
      </trkpt>
      <trkpt lat="42.96161" lon="0.85676">
        <ele>1402</ele>
        <time>2018-04-02T11:32:07.000Z</time>
      </trkpt>
      <trkpt lat="42.96161" lon="0.85676">
        <ele>1402</ele>
        <time>2018-04-02T11:32:09.000Z</time>
      </trkpt>
      <trkpt lat="42.96161" lon="0.85676">
        <ele>1402</ele>
        <time>2018-04-02T11:32:11.000Z</time>
      </trkpt>
      <trkpt lat="42.96161" lon="0.85676">
        <ele>1402</ele>
        <time>2018-04-02T11:32:13.000Z</time>
      </trkpt>
      <trkpt lat="42.96162" lon="0.85676">
        <ele>1402</ele>
        <time>2018-04-02T11:32:15.000Z</time>
      </trkpt>
      <trkpt lat="42.96162" lon="0.85675">
        <ele>1403</ele>
        <time>2018-04-02T11:32:17.000Z</time>
      </trkpt>
      <trkpt lat="42.96162" lon="0.85675">
        <ele>1403</ele>
        <time>2018-04-02T11:32:19.000Z</time>
      </trkpt>
      <trkpt lat="42.96162" lon="0.85675">
        <ele>1403</ele>
        <time>2018-04-02T11:32:21.000Z</time>
      </trkpt>
      <trkpt lat="42.96161" lon="0.85675">
        <ele>1403</ele>
        <time>2018-04-02T11:32:23.000Z</time>
      </trkpt>
      <trkpt lat="42.96161" lon="0.85675">
        <ele>1402</ele>
        <time>2018-04-02T11:32:25.000Z</time>
      </trkpt>
      <trkpt lat="42.96161" lon="0.85676">
        <ele>1402</ele>
        <time>2018-04-02T11:32:27.000Z</time>
      </trkpt>
      <trkpt lat="42.96161" lon="0.85676">
        <ele>1402</ele>
        <time>2018-04-02T11:32:29.000Z</time>
      </trkpt>
      <trkpt lat="42.96161" lon="0.85677">
        <ele>1402</ele>
        <time>2018-04-02T11:32:31.000Z</time>
      </trkpt>
      <trkpt lat="42.96161" lon="0.85677">
        <ele>1402</ele>
        <time>2018-04-02T11:32:33.000Z</time>
      </trkpt>
      <trkpt lat="42.96161" lon="0.85677">
        <ele>1402</ele>
        <time>2018-04-02T11:32:35.000Z</time>
      </trkpt>
      <trkpt lat="42.96161" lon="0.85677">
        <ele>1402</ele>
        <time>2018-04-02T11:32:37.000Z</time>
      </trkpt>
      <trkpt lat="42.96161" lon="0.85677">
        <ele>1402</ele>
        <time>2018-04-02T11:32:39.000Z</time>
      </trkpt>
      <trkpt lat="42.96162" lon="0.85677">
        <ele>1402</ele>
        <time>2018-04-02T11:32:41.000Z</time>
      </trkpt>
      <trkpt lat="42.96162" lon="0.85677">
        <ele>1402</ele>
        <time>2018-04-02T11:32:43.000Z</time>
      </trkpt>
      <trkpt lat="42.96162" lon="0.85677">
        <ele>1402</ele>
        <time>2018-04-02T11:32:45.000Z</time>
      </trkpt>
      <trkpt lat="42.96162" lon="0.85676">
        <ele>1402</ele>
        <time>2018-04-02T11:32:47.000Z</time>
      </trkpt>
      <trkpt lat="42.96162" lon="0.85676">
        <ele>1402</ele>
        <time>2018-04-02T11:32:49.000Z</time>
      </trkpt>
      <trkpt lat="42.96162" lon="0.85677">
        <ele>1402</ele>
        <time>2018-04-02T11:32:51.000Z</time>
      </trkpt>
      <trkpt lat="42.96162" lon="0.85678">
        <ele>1402</ele>
        <time>2018-04-02T11:32:53.000Z</time>
      </trkpt>
      <trkpt lat="42.96162" lon="0.85678">
        <ele>1402</ele>
        <time>2018-04-02T11:32:55.000Z</time>
      </trkpt>
      <trkpt lat="42.96162" lon="0.85678">
        <ele>1402</ele>
        <time>2018-04-02T11:32:57.000Z</time>
      </trkpt>
      <trkpt lat="42.96161" lon="0.85678">
        <ele>1402</ele>
        <time>2018-04-02T11:32:59.000Z</time>
      </trkpt>
      <trkpt lat="42.96162" lon="0.85678">
        <ele>1402</ele>
        <time>2018-04-02T11:33:01.000Z</time>
      </trkpt>
      <trkpt lat="42.96162" lon="0.85678">
        <ele>1402</ele>
        <time>2018-04-02T11:33:03.000Z</time>
      </trkpt>
      <trkpt lat="42.96163" lon="0.85678">
        <ele>1402</ele>
        <time>2018-04-02T11:33:05.000Z</time>
      </trkpt>
      <trkpt lat="42.96163" lon="0.85678">
        <ele>1402</ele>
        <time>2018-04-02T11:33:07.000Z</time>
      </trkpt>
      <trkpt lat="42.96163" lon="0.85678">
        <ele>1402</ele>
        <time>2018-04-02T11:33:09.000Z</time>
      </trkpt>
      <trkpt lat="42.96163" lon="0.85678">
        <ele>1402</ele>
        <time>2018-04-02T11:33:11.000Z</time>
      </trkpt>
      <trkpt lat="42.96163" lon="0.85679">
        <ele>1402</ele>
        <time>2018-04-02T11:33:13.000Z</time>
      </trkpt>
      <trkpt lat="42.96164" lon="0.85679">
        <ele>1402</ele>
        <time>2018-04-02T11:33:15.000Z</time>
      </trkpt>
      <trkpt lat="42.96164" lon="0.85679">
        <ele>1402</ele>
        <time>2018-04-02T11:33:17.000Z</time>
      </trkpt>
      <trkpt lat="42.96164" lon="0.85679">
        <ele>1402</ele>
        <time>2018-04-02T11:33:19.000Z</time>
      </trkpt>
      <trkpt lat="42.96164" lon="0.85679">
        <ele>1402</ele>
        <time>2018-04-02T11:33:21.000Z</time>
      </trkpt>
      <trkpt lat="42.96164" lon="0.85678">
        <ele>1402</ele>
        <time>2018-04-02T11:33:23.000Z</time>
      </trkpt>
      <trkpt lat="42.96164" lon="0.85678">
        <ele>1402</ele>
        <time>2018-04-02T11:33:25.000Z</time>
      </trkpt>
      <trkpt lat="42.96165" lon="0.85678">
        <ele>1402</ele>
        <time>2018-04-02T11:33:27.000Z</time>
      </trkpt>
      <trkpt lat="42.96165" lon="0.85679">
        <ele>1402</ele>
        <time>2018-04-02T11:33:29.000Z</time>
      </trkpt>
      <trkpt lat="42.96166" lon="0.85679">
        <ele>1402</ele>
        <time>2018-04-02T11:33:31.000Z</time>
      </trkpt>
      <trkpt lat="42.96166" lon="0.85678">
        <ele>1402</ele>
        <time>2018-04-02T11:33:33.000Z</time>
      </trkpt>
      <trkpt lat="42.96166" lon="0.85678">
        <ele>1402</ele>
        <time>2018-04-02T11:33:35.000Z</time>
      </trkpt>
      <trkpt lat="42.96167" lon="0.85678">
        <ele>1402</ele>
        <time>2018-04-02T11:33:37.000Z</time>
      </trkpt>
      <trkpt lat="42.96167" lon="0.85678">
        <ele>1402</ele>
        <time>2018-04-02T11:33:39.000Z</time>
      </trkpt>
      <trkpt lat="42.96167" lon="0.85678">
        <ele>1403</ele>
        <time>2018-04-02T11:33:41.000Z</time>
      </trkpt>
      <trkpt lat="42.96167" lon="0.85677">
        <ele>1403</ele>
        <time>2018-04-02T11:33:43.000Z</time>
      </trkpt>
      <trkpt lat="42.96168" lon="0.85676">
        <ele>1403</ele>
        <time>2018-04-02T11:33:45.000Z</time>
      </trkpt>
      <trkpt lat="42.96168" lon="0.85676">
        <ele>1403</ele>
        <time>2018-04-02T11:33:47.000Z</time>
      </trkpt>
      <trkpt lat="42.96168" lon="0.85676">
        <ele>1403</ele>
        <time>2018-04-02T11:33:49.000Z</time>
      </trkpt>
      <trkpt lat="42.96168" lon="0.85676">
        <ele>1403</ele>
        <time>2018-04-02T11:33:51.000Z</time>
      </trkpt>
      <trkpt lat="42.96167" lon="0.85677">
        <ele>1403</ele>
        <time>2018-04-02T11:33:53.000Z</time>
      </trkpt>
      <trkpt lat="42.96166" lon="0.85678">
        <ele>1402</ele>
        <time>2018-04-02T11:33:55.000Z</time>
      </trkpt>
      <trkpt lat="42.96167" lon="0.85677">
        <ele>1403</ele>
        <time>2018-04-02T11:33:57.000Z</time>
      </trkpt>
      <trkpt lat="42.96167" lon="0.85676">
        <ele>1403</ele>
        <time>2018-04-02T11:33:59.000Z</time>
      </trkpt>
      <trkpt lat="42.96168" lon="0.85676">
        <ele>1403</ele>
        <time>2018-04-02T11:34:01.000Z</time>
      </trkpt>
      <trkpt lat="42.96168" lon="0.85676">
        <ele>1403</ele>
        <time>2018-04-02T11:34:03.000Z</time>
      </trkpt>
      <trkpt lat="42.96167" lon="0.85676">
        <ele>1403</ele>
        <time>2018-04-02T11:34:05.000Z</time>
      </trkpt>
      <trkpt lat="42.96166" lon="0.85677">
        <ele>1403</ele>
        <time>2018-04-02T11:34:07.000Z</time>
      </trkpt>
      <trkpt lat="42.96165" lon="0.85676">
        <ele>1403</ele>
        <time>2018-04-02T11:34:09.000Z</time>
      </trkpt>
      <trkpt lat="42.96166" lon="0.85675">
        <ele>1403</ele>
        <time>2018-04-02T11:34:11.000Z</time>
      </trkpt>
      <trkpt lat="42.96166" lon="0.85675">
        <ele>1403</ele>
        <time>2018-04-02T11:34:13.000Z</time>
      </trkpt>
      <trkpt lat="42.96166" lon="0.85675">
        <ele>1403</ele>
        <time>2018-04-02T11:34:15.000Z</time>
      </trkpt>
      <trkpt lat="42.96166" lon="0.85675">
        <ele>1403</ele>
        <time>2018-04-02T11:34:17.000Z</time>
      </trkpt>
      <trkpt lat="42.96165" lon="0.85675">
        <ele>1403</ele>
        <time>2018-04-02T11:34:19.000Z</time>
      </trkpt>
      <trkpt lat="42.96165" lon="0.85675">
        <ele>1403</ele>
        <time>2018-04-02T11:34:21.000Z</time>
      </trkpt>
      <trkpt lat="42.96166" lon="0.85675">
        <ele>1403</ele>
        <time>2018-04-02T11:34:23.000Z</time>
      </trkpt>
      <trkpt lat="42.96166" lon="0.85674">
        <ele>1403</ele>
        <time>2018-04-02T11:34:25.000Z</time>
      </trkpt>
      <trkpt lat="42.96166" lon="0.85674">
        <ele>1403</ele>
        <time>2018-04-02T11:34:27.000Z</time>
      </trkpt>
      <trkpt lat="42.96165" lon="0.85675">
        <ele>1403</ele>
        <time>2018-04-02T11:34:29.000Z</time>
      </trkpt>
      <trkpt lat="42.96165" lon="0.85675">
        <ele>1403</ele>
        <time>2018-04-02T11:34:31.000Z</time>
      </trkpt>
      <trkpt lat="42.96165" lon="0.85675">
        <ele>1403</ele>
        <time>2018-04-02T11:34:33.000Z</time>
      </trkpt>
      <trkpt lat="42.96164" lon="0.85676">
        <ele>1403</ele>
        <time>2018-04-02T11:34:35.000Z</time>
      </trkpt>
      <trkpt lat="42.96165" lon="0.85676">
        <ele>1403</ele>
        <time>2018-04-02T11:34:37.000Z</time>
      </trkpt>
      <trkpt lat="42.96165" lon="0.85676">
        <ele>1403</ele>
        <time>2018-04-02T11:34:39.000Z</time>
      </trkpt>
      <trkpt lat="42.96164" lon="0.85677">
        <ele>1402</ele>
        <time>2018-04-02T11:34:41.000Z</time>
      </trkpt>
      <trkpt lat="42.96164" lon="0.85677">
        <ele>1402</ele>
        <time>2018-04-02T11:34:43.000Z</time>
      </trkpt>
      <trkpt lat="42.96163" lon="0.85678">
        <ele>1402</ele>
        <time>2018-04-02T11:34:45.000Z</time>
      </trkpt>
      <trkpt lat="42.96163" lon="0.85679">
        <ele>1402</ele>
        <time>2018-04-02T11:34:47.000Z</time>
      </trkpt>
      <trkpt lat="42.96164" lon="0.85679">
        <ele>1402</ele>
        <time>2018-04-02T11:34:49.000Z</time>
      </trkpt>
      <trkpt lat="42.96165" lon="0.85678">
        <ele>1402</ele>
        <time>2018-04-02T11:34:51.000Z</time>
      </trkpt>
      <trkpt lat="42.96164" lon="0.85678">
        <ele>1402</ele>
        <time>2018-04-02T11:34:53.000Z</time>
      </trkpt>
      <trkpt lat="42.96165" lon="0.85678">
        <ele>1402</ele>
        <time>2018-04-02T11:34:55.000Z</time>
      </trkpt>
      <trkpt lat="42.96165" lon="0.85677">
        <ele>1402</ele>
        <time>2018-04-02T11:34:57.000Z</time>
      </trkpt>
      <trkpt lat="42.96165" lon="0.85677">
        <ele>1402</ele>
        <time>2018-04-02T11:34:59.000Z</time>
      </trkpt>
      <trkpt lat="42.96165" lon="0.85677">
        <ele>1402</ele>
        <time>2018-04-02T11:35:01.000Z</time>
      </trkpt>
      <trkpt lat="42.96165" lon="0.85678">
        <ele>1402</ele>
        <time>2018-04-02T11:35:03.000Z</time>
      </trkpt>
      <trkpt lat="42.96164" lon="0.85679">
        <ele>1402</ele>
        <time>2018-04-02T11:35:05.000Z</time>
      </trkpt>
      <trkpt lat="42.96164" lon="0.8568">
        <ele>1402</ele>
        <time>2018-04-02T11:35:07.000Z</time>
      </trkpt>
      <trkpt lat="42.96165" lon="0.8568">
        <ele>1402</ele>
        <time>2018-04-02T11:35:09.000Z</time>
      </trkpt>
      <trkpt lat="42.96166" lon="0.8568">
        <ele>1402</ele>
        <time>2018-04-02T11:35:11.000Z</time>
      </trkpt>
      <trkpt lat="42.96166" lon="0.85681">
        <ele>1402</ele>
        <time>2018-04-02T11:35:13.000Z</time>
      </trkpt>
      <trkpt lat="42.96166" lon="0.85681">
        <ele>1402</ele>
        <time>2018-04-02T11:35:15.000Z</time>
      </trkpt>
      <trkpt lat="42.96166" lon="0.85681">
        <ele>1402</ele>
        <time>2018-04-02T11:35:17.000Z</time>
      </trkpt>
      <trkpt lat="42.96166" lon="0.85682">
        <ele>1402</ele>
        <time>2018-04-02T11:35:19.000Z</time>
      </trkpt>
      <trkpt lat="42.96165" lon="0.85682">
        <ele>1402</ele>
        <time>2018-04-02T11:35:21.000Z</time>
      </trkpt>
      <trkpt lat="42.96166" lon="0.85682">
        <ele>1402</ele>
        <time>2018-04-02T11:35:23.000Z</time>
      </trkpt>
      <trkpt lat="42.96166" lon="0.85681">
        <ele>1402</ele>
        <time>2018-04-02T11:35:25.000Z</time>
      </trkpt>
      <trkpt lat="42.96166" lon="0.85681">
        <ele>1402</ele>
        <time>2018-04-02T11:35:27.000Z</time>
      </trkpt>
      <trkpt lat="42.96167" lon="0.85681">
        <ele>1402</ele>
        <time>2018-04-02T11:35:29.000Z</time>
      </trkpt>
      <trkpt lat="42.96168" lon="0.8568">
        <ele>1402</ele>
        <time>2018-04-02T11:35:31.000Z</time>
      </trkpt>
      <trkpt lat="42.96169" lon="0.8568">
        <ele>1402</ele>
        <time>2018-04-02T11:35:33.000Z</time>
      </trkpt>
      <trkpt lat="42.96169" lon="0.8568">
        <ele>1402</ele>
        <time>2018-04-02T11:35:35.000Z</time>
      </trkpt>
      <trkpt lat="42.9617" lon="0.8568">
        <ele>1402</ele>
        <time>2018-04-02T11:35:37.000Z</time>
      </trkpt>
      <trkpt lat="42.9617" lon="0.8568">
        <ele>1402</ele>
        <time>2018-04-02T11:35:39.000Z</time>
      </trkpt>
      <trkpt lat="42.96171" lon="0.85679">
        <ele>1403</ele>
        <time>2018-04-02T11:35:41.000Z</time>
      </trkpt>
      <trkpt lat="42.96172" lon="0.85679">
        <ele>1403</ele>
        <time>2018-04-02T11:35:43.000Z</time>
      </trkpt>
      <trkpt lat="42.96172" lon="0.85679">
        <ele>1403</ele>
        <time>2018-04-02T11:35:45.000Z</time>
      </trkpt>
      <trkpt lat="42.96172" lon="0.85679">
        <ele>1403</ele>
        <time>2018-04-02T11:35:47.000Z</time>
      </trkpt>
      <trkpt lat="42.96172" lon="0.85679">
        <ele>1403</ele>
        <time>2018-04-02T11:35:49.000Z</time>
      </trkpt>
      <trkpt lat="42.96171" lon="0.85679">
        <ele>1403</ele>
        <time>2018-04-02T11:35:51.000Z</time>
      </trkpt>
      <trkpt lat="42.96171" lon="0.85679">
        <ele>1403</ele>
        <time>2018-04-02T11:35:53.000Z</time>
      </trkpt>
      <trkpt lat="42.96171" lon="0.85679">
        <ele>1402</ele>
        <time>2018-04-02T11:35:55.000Z</time>
      </trkpt>
      <trkpt lat="42.96171" lon="0.8568">
        <ele>1402</ele>
        <time>2018-04-02T11:35:57.000Z</time>
      </trkpt>
      <trkpt lat="42.9617" lon="0.8568">
        <ele>1402</ele>
        <time>2018-04-02T11:35:59.000Z</time>
      </trkpt>
      <trkpt lat="42.9617" lon="0.8568">
        <ele>1402</ele>
        <time>2018-04-02T11:36:01.000Z</time>
      </trkpt>
      <trkpt lat="42.9617" lon="0.85681">
        <ele>1402</ele>
        <time>2018-04-02T11:36:03.000Z</time>
      </trkpt>
      <trkpt lat="42.96171" lon="0.85682">
        <ele>1402</ele>
        <time>2018-04-02T11:36:05.000Z</time>
      </trkpt>
      <trkpt lat="42.96171" lon="0.85682">
        <ele>1402</ele>
        <time>2018-04-02T11:36:07.000Z</time>
      </trkpt>
      <trkpt lat="42.96172" lon="0.85682">
        <ele>1402</ele>
        <time>2018-04-02T11:36:09.000Z</time>
      </trkpt>
      <trkpt lat="42.96172" lon="0.85682">
        <ele>1402</ele>
        <time>2018-04-02T11:36:11.000Z</time>
      </trkpt>
      <trkpt lat="42.96173" lon="0.85681">
        <ele>1402</ele>
        <time>2018-04-02T11:36:13.000Z</time>
      </trkpt>
      <trkpt lat="42.96173" lon="0.8568">
        <ele>1403</ele>
        <time>2018-04-02T11:36:15.000Z</time>
      </trkpt>
      <trkpt lat="42.96175" lon="0.8568">
        <ele>1403</ele>
        <time>2018-04-02T11:36:17.000Z</time>
      </trkpt>
      <trkpt lat="42.96176" lon="0.8568">
        <ele>1403</ele>
        <time>2018-04-02T11:36:19.000Z</time>
      </trkpt>
      <trkpt lat="42.96177" lon="0.85679">
        <ele>1404</ele>
        <time>2018-04-02T11:36:21.000Z</time>
      </trkpt>
      <trkpt lat="42.96177" lon="0.8568">
        <ele>1404</ele>
        <time>2018-04-02T11:36:23.000Z</time>
      </trkpt>
      <trkpt lat="42.96176" lon="0.8568">
        <ele>1403</ele>
        <time>2018-04-02T11:36:25.000Z</time>
      </trkpt>
      <trkpt lat="42.96175" lon="0.85681">
        <ele>1403</ele>
        <time>2018-04-02T11:36:27.000Z</time>
      </trkpt>
      <trkpt lat="42.96174" lon="0.85681">
        <ele>1402</ele>
        <time>2018-04-02T11:36:29.000Z</time>
      </trkpt>
      <trkpt lat="42.96173" lon="0.85682">
        <ele>1402</ele>
        <time>2018-04-02T11:36:31.000Z</time>
      </trkpt>
      <trkpt lat="42.96173" lon="0.85682">
        <ele>1402</ele>
        <time>2018-04-02T11:36:33.000Z</time>
      </trkpt>
      <trkpt lat="42.96172" lon="0.85682">
        <ele>1402</ele>
        <time>2018-04-02T11:36:35.000Z</time>
      </trkpt>
      <trkpt lat="42.96172" lon="0.85683">
        <ele>1402</ele>
        <time>2018-04-02T11:36:37.000Z</time>
      </trkpt>
      <trkpt lat="42.96172" lon="0.85681">
        <ele>1402</ele>
        <time>2018-04-02T11:36:39.000Z</time>
      </trkpt>
      <trkpt lat="42.96172" lon="0.85682">
        <ele>1402</ele>
        <time>2018-04-02T11:36:41.000Z</time>
      </trkpt>
      <trkpt lat="42.96172" lon="0.85682">
        <ele>1402</ele>
        <time>2018-04-02T11:36:43.000Z</time>
      </trkpt>
      <trkpt lat="42.96172" lon="0.85682">
        <ele>1402</ele>
        <time>2018-04-02T11:36:45.000Z</time>
      </trkpt>
      <trkpt lat="42.96172" lon="0.85682">
        <ele>1402</ele>
        <time>2018-04-02T11:36:47.000Z</time>
      </trkpt>
      <trkpt lat="42.96172" lon="0.85682">
        <ele>1402</ele>
        <time>2018-04-02T11:36:49.000Z</time>
      </trkpt>
      <trkpt lat="42.96172" lon="0.85682">
        <ele>1402</ele>
        <time>2018-04-02T11:36:51.000Z</time>
      </trkpt>
      <trkpt lat="42.96172" lon="0.85682">
        <ele>1402</ele>
        <time>2018-04-02T11:36:53.000Z</time>
      </trkpt>
      <trkpt lat="42.96172" lon="0.85682">
        <ele>1402</ele>
        <time>2018-04-02T11:36:55.000Z</time>
      </trkpt>
      <trkpt lat="42.96172" lon="0.85683">
        <ele>1402</ele>
        <time>2018-04-02T11:36:57.000Z</time>
      </trkpt>
      <trkpt lat="42.9617" lon="0.85682">
        <ele>1402</ele>
        <time>2018-04-02T11:36:59.000Z</time>
      </trkpt>
      <trkpt lat="42.96169" lon="0.85682">
        <ele>1402</ele>
        <time>2018-04-02T11:37:01.000Z</time>
      </trkpt>
      <trkpt lat="42.96168" lon="0.85681">
        <ele>1402</ele>
        <time>2018-04-02T11:37:03.000Z</time>
      </trkpt>
      <trkpt lat="42.96167" lon="0.85681">
        <ele>1402</ele>
        <time>2018-04-02T11:37:05.000Z</time>
      </trkpt>
      <trkpt lat="42.96166" lon="0.85681">
        <ele>1402</ele>
        <time>2018-04-02T11:37:07.000Z</time>
      </trkpt>
      <trkpt lat="42.96165" lon="0.85681">
        <ele>1402</ele>
        <time>2018-04-02T11:37:09.000Z</time>
      </trkpt>
      <trkpt lat="42.96164" lon="0.85681">
        <ele>1402</ele>
        <time>2018-04-02T11:37:11.000Z</time>
      </trkpt>
      <trkpt lat="42.96163" lon="0.85681">
        <ele>1402</ele>
        <time>2018-04-02T11:37:13.000Z</time>
      </trkpt>
      <trkpt lat="42.96163" lon="0.85681">
        <ele>1402</ele>
        <time>2018-04-02T11:37:15.000Z</time>
      </trkpt>
      <trkpt lat="42.96163" lon="0.85681">
        <ele>1402</ele>
        <time>2018-04-02T11:37:17.000Z</time>
      </trkpt>
      <trkpt lat="42.96163" lon="0.85681">
        <ele>1402</ele>
        <time>2018-04-02T11:37:19.000Z</time>
      </trkpt>
      <trkpt lat="42.96163" lon="0.85682">
        <ele>1402</ele>
        <time>2018-04-02T11:37:21.000Z</time>
      </trkpt>
      <trkpt lat="42.96163" lon="0.85682">
        <ele>1402</ele>
        <time>2018-04-02T11:37:23.000Z</time>
      </trkpt>
      <trkpt lat="42.96163" lon="0.85681">
        <ele>1402</ele>
        <time>2018-04-02T11:37:25.000Z</time>
      </trkpt>
      <trkpt lat="42.96163" lon="0.85681">
        <ele>1402</ele>
        <time>2018-04-02T11:37:27.000Z</time>
      </trkpt>
      <trkpt lat="42.96163" lon="0.85681">
        <ele>1402</ele>
        <time>2018-04-02T11:37:29.000Z</time>
      </trkpt>
      <trkpt lat="42.96163" lon="0.85681">
        <ele>1402</ele>
        <time>2018-04-02T11:37:31.000Z</time>
      </trkpt>
      <trkpt lat="42.96163" lon="0.85681">
        <ele>1402</ele>
        <time>2018-04-02T11:37:33.000Z</time>
      </trkpt>
      <trkpt lat="42.96163" lon="0.85681">
        <ele>1402</ele>
        <time>2018-04-02T11:37:35.000Z</time>
      </trkpt>
      <trkpt lat="42.96163" lon="0.8568">
        <ele>1402</ele>
        <time>2018-04-02T11:37:37.000Z</time>
      </trkpt>
      <trkpt lat="42.96164" lon="0.8568">
        <ele>1402</ele>
        <time>2018-04-02T11:37:39.000Z</time>
      </trkpt>
      <trkpt lat="42.96164" lon="0.8568">
        <ele>1402</ele>
        <time>2018-04-02T11:37:41.000Z</time>
      </trkpt>
      <trkpt lat="42.96164" lon="0.8568">
        <ele>1402</ele>
        <time>2018-04-02T11:37:43.000Z</time>
      </trkpt>
      <trkpt lat="42.96164" lon="0.8568">
        <ele>1402</ele>
        <time>2018-04-02T11:37:45.000Z</time>
      </trkpt>
      <trkpt lat="42.96165" lon="0.8568">
        <ele>1402</ele>
        <time>2018-04-02T11:37:47.000Z</time>
      </trkpt>
      <trkpt lat="42.96165" lon="0.85681">
        <ele>1402</ele>
        <time>2018-04-02T11:37:49.000Z</time>
      </trkpt>
      <trkpt lat="42.96165" lon="0.85682">
        <ele>1402</ele>
        <time>2018-04-02T11:37:51.000Z</time>
      </trkpt>
      <trkpt lat="42.96165" lon="0.85682">
        <ele>1402</ele>
        <time>2018-04-02T11:37:53.000Z</time>
      </trkpt>
      <trkpt lat="42.96166" lon="0.85683">
        <ele>1402</ele>
        <time>2018-04-02T11:37:55.000Z</time>
      </trkpt>
      <trkpt lat="42.96166" lon="0.85683">
        <ele>1402</ele>
        <time>2018-04-02T11:37:57.000Z</time>
      </trkpt>
      <trkpt lat="42.96166" lon="0.85684">
        <ele>1402</ele>
        <time>2018-04-02T11:37:59.000Z</time>
      </trkpt>
      <trkpt lat="42.96167" lon="0.85684">
        <ele>1402</ele>
        <time>2018-04-02T11:38:01.000Z</time>
      </trkpt>
      <trkpt lat="42.96167" lon="0.85684">
        <ele>1402</ele>
        <time>2018-04-02T11:38:03.000Z</time>
      </trkpt>
      <trkpt lat="42.96168" lon="0.85684">
        <ele>1402</ele>
        <time>2018-04-02T11:38:05.000Z</time>
      </trkpt>
      <trkpt lat="42.96168" lon="0.85685">
        <ele>1402</ele>
        <time>2018-04-02T11:38:07.000Z</time>
      </trkpt>
      <trkpt lat="42.96168" lon="0.85685">
        <ele>1402</ele>
        <time>2018-04-02T11:38:09.000Z</time>
      </trkpt>
      <trkpt lat="42.96167" lon="0.85685">
        <ele>1402</ele>
        <time>2018-04-02T11:38:11.000Z</time>
      </trkpt>
      <trkpt lat="42.96167" lon="0.85685">
        <ele>1402</ele>
        <time>2018-04-02T11:38:13.000Z</time>
      </trkpt>
      <trkpt lat="42.96167" lon="0.85685">
        <ele>1402</ele>
        <time>2018-04-02T11:38:15.000Z</time>
      </trkpt>
      <trkpt lat="42.96166" lon="0.85685">
        <ele>1402</ele>
        <time>2018-04-02T11:38:17.000Z</time>
      </trkpt>
      <trkpt lat="42.96166" lon="0.85684">
        <ele>1402</ele>
        <time>2018-04-02T11:38:19.000Z</time>
      </trkpt>
      <trkpt lat="42.96165" lon="0.85684">
        <ele>1402</ele>
        <time>2018-04-02T11:38:21.000Z</time>
      </trkpt>
      <trkpt lat="42.96165" lon="0.85684">
        <ele>1402</ele>
        <time>2018-04-02T11:38:23.000Z</time>
      </trkpt>
      <trkpt lat="42.96164" lon="0.85684">
        <ele>1402</ele>
        <time>2018-04-02T11:38:25.000Z</time>
      </trkpt>
      <trkpt lat="42.96164" lon="0.85684">
        <ele>1402</ele>
        <time>2018-04-02T11:38:27.000Z</time>
      </trkpt>
      <trkpt lat="42.96163" lon="0.85684">
        <ele>1402</ele>
        <time>2018-04-02T11:38:29.000Z</time>
      </trkpt>
      <trkpt lat="42.96163" lon="0.85684">
        <ele>1402</ele>
        <time>2018-04-02T11:38:31.000Z</time>
      </trkpt>
      <trkpt lat="42.96163" lon="0.85684">
        <ele>1402</ele>
        <time>2018-04-02T11:38:33.000Z</time>
      </trkpt>
      <trkpt lat="42.96163" lon="0.85684">
        <ele>1402</ele>
        <time>2018-04-02T11:38:35.000Z</time>
      </trkpt>
      <trkpt lat="42.96162" lon="0.85684">
        <ele>1402</ele>
        <time>2018-04-02T11:38:37.000Z</time>
      </trkpt>
      <trkpt lat="42.96162" lon="0.85684">
        <ele>1402</ele>
        <time>2018-04-02T11:38:39.000Z</time>
      </trkpt>
      <trkpt lat="42.96163" lon="0.85684">
        <ele>1402</ele>
        <time>2018-04-02T11:38:41.000Z</time>
      </trkpt>
      <trkpt lat="42.96163" lon="0.85684">
        <ele>1402</ele>
        <time>2018-04-02T11:38:43.000Z</time>
      </trkpt>
      <trkpt lat="42.96163" lon="0.85684">
        <ele>1402</ele>
        <time>2018-04-02T11:38:45.000Z</time>
      </trkpt>
      <trkpt lat="42.96163" lon="0.85684">
        <ele>1402</ele>
        <time>2018-04-02T11:38:47.000Z</time>
      </trkpt>
      <trkpt lat="42.96163" lon="0.85684">
        <ele>1402</ele>
        <time>2018-04-02T11:38:49.000Z</time>
      </trkpt>
      <trkpt lat="42.96163" lon="0.85684">
        <ele>1402</ele>
        <time>2018-04-02T11:38:51.000Z</time>
      </trkpt>
      <trkpt lat="42.96163" lon="0.85683">
        <ele>1402</ele>
        <time>2018-04-02T11:38:53.000Z</time>
      </trkpt>
      <trkpt lat="42.96163" lon="0.85684">
        <ele>1402</ele>
        <time>2018-04-02T11:38:55.000Z</time>
      </trkpt>
      <trkpt lat="42.96162" lon="0.85684">
        <ele>1402</ele>
        <time>2018-04-02T11:38:57.000Z</time>
      </trkpt>
      <trkpt lat="42.96162" lon="0.85683">
        <ele>1402</ele>
        <time>2018-04-02T11:38:59.000Z</time>
      </trkpt>
      <trkpt lat="42.96162" lon="0.85683">
        <ele>1402</ele>
        <time>2018-04-02T11:39:01.000Z</time>
      </trkpt>
      <trkpt lat="42.96162" lon="0.85682">
        <ele>1402</ele>
        <time>2018-04-02T11:39:03.000Z</time>
      </trkpt>
      <trkpt lat="42.96161" lon="0.85682">
        <ele>1402</ele>
        <time>2018-04-02T11:39:05.000Z</time>
      </trkpt>
      <trkpt lat="42.96161" lon="0.85682">
        <ele>1402</ele>
        <time>2018-04-02T11:39:07.000Z</time>
      </trkpt>
      <trkpt lat="42.96161" lon="0.85681">
        <ele>1402</ele>
        <time>2018-04-02T11:39:09.000Z</time>
      </trkpt>
      <trkpt lat="42.96161" lon="0.85681">
        <ele>1402</ele>
        <time>2018-04-02T11:39:11.000Z</time>
      </trkpt>
      <trkpt lat="42.96161" lon="0.8568">
        <ele>1402</ele>
        <time>2018-04-02T11:39:13.000Z</time>
      </trkpt>
      <trkpt lat="42.96161" lon="0.8568">
        <ele>1402</ele>
        <time>2018-04-02T11:39:15.000Z</time>
      </trkpt>
      <trkpt lat="42.96161" lon="0.8568">
        <ele>1402</ele>
        <time>2018-04-02T11:39:17.000Z</time>
      </trkpt>
      <trkpt lat="42.96161" lon="0.8568">
        <ele>1402</ele>
        <time>2018-04-02T11:39:19.000Z</time>
      </trkpt>
      <trkpt lat="42.96161" lon="0.85681">
        <ele>1402</ele>
        <time>2018-04-02T11:39:21.000Z</time>
      </trkpt>
      <trkpt lat="42.96161" lon="0.85681">
        <ele>1402</ele>
        <time>2018-04-02T11:39:23.000Z</time>
      </trkpt>
      <trkpt lat="42.96161" lon="0.85681">
        <ele>1402</ele>
        <time>2018-04-02T11:39:25.000Z</time>
      </trkpt>
      <trkpt lat="42.96161" lon="0.85681">
        <ele>1402</ele>
        <time>2018-04-02T11:39:27.000Z</time>
      </trkpt>
      <trkpt lat="42.96161" lon="0.85681">
        <ele>1402</ele>
        <time>2018-04-02T11:39:29.000Z</time>
      </trkpt>
      <trkpt lat="42.96161" lon="0.85681">
        <ele>1402</ele>
        <time>2018-04-02T11:39:31.000Z</time>
      </trkpt>
      <trkpt lat="42.96161" lon="0.85681">
        <ele>1402</ele>
        <time>2018-04-02T11:39:33.000Z</time>
      </trkpt>
      <trkpt lat="42.96161" lon="0.8568">
        <ele>1402</ele>
        <time>2018-04-02T11:39:35.000Z</time>
      </trkpt>
      <trkpt lat="42.96161" lon="0.8568">
        <ele>1402</ele>
        <time>2018-04-02T11:39:37.000Z</time>
      </trkpt>
      <trkpt lat="42.96161" lon="0.8568">
        <ele>1402</ele>
        <time>2018-04-02T11:39:39.000Z</time>
      </trkpt>
      <trkpt lat="42.96162" lon="0.8568">
        <ele>1402</ele>
        <time>2018-04-02T11:39:41.000Z</time>
      </trkpt>
      <trkpt lat="42.96161" lon="0.85681">
        <ele>1402</ele>
        <time>2018-04-02T11:39:43.000Z</time>
      </trkpt>
      <trkpt lat="42.96161" lon="0.85681">
        <ele>1402</ele>
        <time>2018-04-02T11:39:45.000Z</time>
      </trkpt>
      <trkpt lat="42.96161" lon="0.85682">
        <ele>1402</ele>
        <time>2018-04-02T11:39:47.000Z</time>
      </trkpt>
      <trkpt lat="42.96161" lon="0.85682">
        <ele>1402</ele>
        <time>2018-04-02T11:39:49.000Z</time>
      </trkpt>
      <trkpt lat="42.96161" lon="0.85682">
        <ele>1402</ele>
        <time>2018-04-02T11:39:51.000Z</time>
      </trkpt>
      <trkpt lat="42.96161" lon="0.85683">
        <ele>1402</ele>
        <time>2018-04-02T11:39:53.000Z</time>
      </trkpt>
      <trkpt lat="42.96161" lon="0.85683">
        <ele>1402</ele>
        <time>2018-04-02T11:39:55.000Z</time>
      </trkpt>
      <trkpt lat="42.96161" lon="0.85683">
        <ele>1402</ele>
        <time>2018-04-02T11:39:57.000Z</time>
      </trkpt>
      <trkpt lat="42.96161" lon="0.85683">
        <ele>1402</ele>
        <time>2018-04-02T11:39:59.000Z</time>
      </trkpt>
      <trkpt lat="42.96161" lon="0.85683">
        <ele>1402</ele>
        <time>2018-04-02T11:40:01.000Z</time>
      </trkpt>
      <trkpt lat="42.96161" lon="0.85683">
        <ele>1402</ele>
        <time>2018-04-02T11:40:03.000Z</time>
      </trkpt>
      <trkpt lat="42.96162" lon="0.85683">
        <ele>1402</ele>
        <time>2018-04-02T11:40:05.000Z</time>
      </trkpt>
      <trkpt lat="42.96162" lon="0.85683">
        <ele>1402</ele>
        <time>2018-04-02T11:40:07.000Z</time>
      </trkpt>
      <trkpt lat="42.96163" lon="0.85683">
        <ele>1402</ele>
        <time>2018-04-02T11:40:09.000Z</time>
      </trkpt>
      <trkpt lat="42.96163" lon="0.85683">
        <ele>1402</ele>
        <time>2018-04-02T11:40:11.000Z</time>
      </trkpt>
      <trkpt lat="42.96163" lon="0.85683">
        <ele>1402</ele>
        <time>2018-04-02T11:40:13.000Z</time>
      </trkpt>
      <trkpt lat="42.96163" lon="0.85682">
        <ele>1402</ele>
        <time>2018-04-02T11:40:15.000Z</time>
      </trkpt>
      <trkpt lat="42.96163" lon="0.85682">
        <ele>1402</ele>
        <time>2018-04-02T11:40:17.000Z</time>
      </trkpt>
      <trkpt lat="42.96163" lon="0.85681">
        <ele>1402</ele>
        <time>2018-04-02T11:40:19.000Z</time>
      </trkpt>
      <trkpt lat="42.96164" lon="0.85681">
        <ele>1402</ele>
        <time>2018-04-02T11:40:21.000Z</time>
      </trkpt>
      <trkpt lat="42.96164" lon="0.85681">
        <ele>1402</ele>
        <time>2018-04-02T11:40:23.000Z</time>
      </trkpt>
      <trkpt lat="42.96164" lon="0.8568">
        <ele>1402</ele>
        <time>2018-04-02T11:40:25.000Z</time>
      </trkpt>
      <trkpt lat="42.96163" lon="0.85679">
        <ele>1402</ele>
        <time>2018-04-02T11:40:27.000Z</time>
      </trkpt>
      <trkpt lat="42.96163" lon="0.85678">
        <ele>1402</ele>
        <time>2018-04-02T11:40:29.000Z</time>
      </trkpt>
      <trkpt lat="42.96162" lon="0.85679">
        <ele>1402</ele>
        <time>2018-04-02T11:40:31.000Z</time>
      </trkpt>
      <trkpt lat="42.96162" lon="0.85679">
        <ele>1402</ele>
        <time>2018-04-02T11:40:33.000Z</time>
      </trkpt>
      <trkpt lat="42.96162" lon="0.85679">
        <ele>1402</ele>
        <time>2018-04-02T11:40:35.000Z</time>
      </trkpt>
      <trkpt lat="42.96162" lon="0.85679">
        <ele>1402</ele>
        <time>2018-04-02T11:40:37.000Z</time>
      </trkpt>
      <trkpt lat="42.96162" lon="0.85679">
        <ele>1402</ele>
        <time>2018-04-02T11:40:39.000Z</time>
      </trkpt>
      <trkpt lat="42.96162" lon="0.8568">
        <ele>1402</ele>
        <time>2018-04-02T11:40:41.000Z</time>
      </trkpt>
      <trkpt lat="42.96162" lon="0.8568">
        <ele>1402</ele>
        <time>2018-04-02T11:40:43.000Z</time>
      </trkpt>
      <trkpt lat="42.96162" lon="0.85681">
        <ele>1402</ele>
        <time>2018-04-02T11:40:45.000Z</time>
      </trkpt>
      <trkpt lat="42.96162" lon="0.85681">
        <ele>1402</ele>
        <time>2018-04-02T11:40:47.000Z</time>
      </trkpt>
      <trkpt lat="42.96162" lon="0.85681">
        <ele>1402</ele>
        <time>2018-04-02T11:40:49.000Z</time>
      </trkpt>
      <trkpt lat="42.96162" lon="0.85681">
        <ele>1402</ele>
        <time>2018-04-02T11:40:51.000Z</time>
      </trkpt>
      <trkpt lat="42.96162" lon="0.85681">
        <ele>1402</ele>
        <time>2018-04-02T11:40:53.000Z</time>
      </trkpt>
      <trkpt lat="42.96162" lon="0.85682">
        <ele>1402</ele>
        <time>2018-04-02T11:40:55.000Z</time>
      </trkpt>
      <trkpt lat="42.96162" lon="0.85682">
        <ele>1402</ele>
        <time>2018-04-02T11:40:57.000Z</time>
      </trkpt>
      <trkpt lat="42.96162" lon="0.85683">
        <ele>1402</ele>
        <time>2018-04-02T11:40:59.000Z</time>
      </trkpt>
      <trkpt lat="42.96162" lon="0.85684">
        <ele>1402</ele>
        <time>2018-04-02T11:41:01.000Z</time>
      </trkpt>
      <trkpt lat="42.96163" lon="0.85685">
        <ele>1401</ele>
        <time>2018-04-02T11:41:03.000Z</time>
      </trkpt>
      <trkpt lat="42.96163" lon="0.85686">
        <ele>1401</ele>
        <time>2018-04-02T11:41:05.000Z</time>
      </trkpt>
      <trkpt lat="42.96163" lon="0.85686">
        <ele>1401</ele>
        <time>2018-04-02T11:41:07.000Z</time>
      </trkpt>
      <trkpt lat="42.96164" lon="0.85686">
        <ele>1401</ele>
        <time>2018-04-02T11:41:09.000Z</time>
      </trkpt>
      <trkpt lat="42.96164" lon="0.85686">
        <ele>1401</ele>
        <time>2018-04-02T11:41:11.000Z</time>
      </trkpt>
      <trkpt lat="42.96164" lon="0.85686">
        <ele>1401</ele>
        <time>2018-04-02T11:41:13.000Z</time>
      </trkpt>
      <trkpt lat="42.96164" lon="0.85686">
        <ele>1401</ele>
        <time>2018-04-02T11:41:15.000Z</time>
      </trkpt>
      <trkpt lat="42.96165" lon="0.85687">
        <ele>1401</ele>
        <time>2018-04-02T11:41:17.000Z</time>
      </trkpt>
      <trkpt lat="42.96165" lon="0.85687">
        <ele>1401</ele>
        <time>2018-04-02T11:41:19.000Z</time>
      </trkpt>
      <trkpt lat="42.96165" lon="0.85686">
        <ele>1401</ele>
        <time>2018-04-02T11:41:21.000Z</time>
      </trkpt>
      <trkpt lat="42.96165" lon="0.85686">
        <ele>1401</ele>
        <time>2018-04-02T11:41:23.000Z</time>
      </trkpt>
      <trkpt lat="42.96165" lon="0.85686">
        <ele>1401</ele>
        <time>2018-04-02T11:41:25.000Z</time>
      </trkpt>
      <trkpt lat="42.96164" lon="0.85686">
        <ele>1401</ele>
        <time>2018-04-02T11:41:27.000Z</time>
      </trkpt>
      <trkpt lat="42.96164" lon="0.85686">
        <ele>1401</ele>
        <time>2018-04-02T11:41:29.000Z</time>
      </trkpt>
      <trkpt lat="42.96164" lon="0.85686">
        <ele>1401</ele>
        <time>2018-04-02T11:41:31.000Z</time>
      </trkpt>
      <trkpt lat="42.96164" lon="0.85686">
        <ele>1401</ele>
        <time>2018-04-02T11:41:33.000Z</time>
      </trkpt>
      <trkpt lat="42.96164" lon="0.85686">
        <ele>1401</ele>
        <time>2018-04-02T11:41:35.000Z</time>
      </trkpt>
      <trkpt lat="42.96164" lon="0.85686">
        <ele>1401</ele>
        <time>2018-04-02T11:41:37.000Z</time>
      </trkpt>
      <trkpt lat="42.96164" lon="0.85686">
        <ele>1401</ele>
        <time>2018-04-02T11:41:39.000Z</time>
      </trkpt>
      <trkpt lat="42.96163" lon="0.85686">
        <ele>1401</ele>
        <time>2018-04-02T11:41:41.000Z</time>
      </trkpt>
      <trkpt lat="42.96163" lon="0.85686">
        <ele>1401</ele>
        <time>2018-04-02T11:41:43.000Z</time>
      </trkpt>
      <trkpt lat="42.96162" lon="0.85685">
        <ele>1402</ele>
        <time>2018-04-02T11:41:45.000Z</time>
      </trkpt>
      <trkpt lat="42.96161" lon="0.85684">
        <ele>1402</ele>
        <time>2018-04-02T11:41:47.000Z</time>
      </trkpt>
      <trkpt lat="42.96161" lon="0.85684">
        <ele>1402</ele>
        <time>2018-04-02T11:41:49.000Z</time>
      </trkpt>
      <trkpt lat="42.96161" lon="0.85683">
        <ele>1402</ele>
        <time>2018-04-02T11:41:51.000Z</time>
      </trkpt>
      <trkpt lat="42.96161" lon="0.85683">
        <ele>1402</ele>
        <time>2018-04-02T11:41:53.000Z</time>
      </trkpt>
      <trkpt lat="42.96161" lon="0.85684">
        <ele>1402</ele>
        <time>2018-04-02T11:41:55.000Z</time>
      </trkpt>
      <trkpt lat="42.96161" lon="0.85684">
        <ele>1402</ele>
        <time>2018-04-02T11:41:57.000Z</time>
      </trkpt>
      <trkpt lat="42.9616" lon="0.85684">
        <ele>1402</ele>
        <time>2018-04-02T11:41:59.000Z</time>
      </trkpt>
      <trkpt lat="42.9616" lon="0.85684">
        <ele>1402</ele>
        <time>2018-04-02T11:42:01.000Z</time>
      </trkpt>
      <trkpt lat="42.9616" lon="0.85684">
        <ele>1401</ele>
        <time>2018-04-02T11:42:03.000Z</time>
      </trkpt>
      <trkpt lat="42.96159" lon="0.85684">
        <ele>1401</ele>
        <time>2018-04-02T11:42:05.000Z</time>
      </trkpt>
      <trkpt lat="42.96159" lon="0.85684">
        <ele>1401</ele>
        <time>2018-04-02T11:42:07.000Z</time>
      </trkpt>
      <trkpt lat="42.9616" lon="0.85684">
        <ele>1402</ele>
        <time>2018-04-02T11:42:09.000Z</time>
      </trkpt>
      <trkpt lat="42.9616" lon="0.85684">
        <ele>1402</ele>
        <time>2018-04-02T11:42:11.000Z</time>
      </trkpt>
      <trkpt lat="42.96161" lon="0.85684">
        <ele>1402</ele>
        <time>2018-04-02T11:42:13.000Z</time>
      </trkpt>
      <trkpt lat="42.96161" lon="0.85684">
        <ele>1402</ele>
        <time>2018-04-02T11:42:15.000Z</time>
      </trkpt>
      <trkpt lat="42.9616" lon="0.85685">
        <ele>1401</ele>
        <time>2018-04-02T11:42:17.000Z</time>
      </trkpt>
      <trkpt lat="42.9616" lon="0.85685">
        <ele>1401</ele>
        <time>2018-04-02T11:42:19.000Z</time>
      </trkpt>
      <trkpt lat="42.9616" lon="0.85685">
        <ele>1401</ele>
        <time>2018-04-02T11:42:21.000Z</time>
      </trkpt>
      <trkpt lat="42.96159" lon="0.85686">
        <ele>1401</ele>
        <time>2018-04-02T11:42:23.000Z</time>
      </trkpt>
      <trkpt lat="42.96159" lon="0.85686">
        <ele>1401</ele>
        <time>2018-04-02T11:42:25.000Z</time>
      </trkpt>
      <trkpt lat="42.96159" lon="0.85686">
        <ele>1401</ele>
        <time>2018-04-02T11:42:27.000Z</time>
      </trkpt>
      <trkpt lat="42.96158" lon="0.85686">
        <ele>1401</ele>
        <time>2018-04-02T11:42:29.000Z</time>
      </trkpt>
      <trkpt lat="42.96158" lon="0.85686">
        <ele>1401</ele>
        <time>2018-04-02T11:42:31.000Z</time>
      </trkpt>
      <trkpt lat="42.96158" lon="0.85685">
        <ele>1401</ele>
        <time>2018-04-02T11:42:33.000Z</time>
      </trkpt>
      <trkpt lat="42.96158" lon="0.85685">
        <ele>1401</ele>
        <time>2018-04-02T11:42:35.000Z</time>
      </trkpt>
      <trkpt lat="42.96158" lon="0.85685">
        <ele>1401</ele>
        <time>2018-04-02T11:42:37.000Z</time>
      </trkpt>
      <trkpt lat="42.96158" lon="0.85685">
        <ele>1401</ele>
        <time>2018-04-02T11:42:39.000Z</time>
      </trkpt>
      <trkpt lat="42.96158" lon="0.85685">
        <ele>1401</ele>
        <time>2018-04-02T11:42:41.000Z</time>
      </trkpt>
      <trkpt lat="42.96158" lon="0.85685">
        <ele>1401</ele>
        <time>2018-04-02T11:42:43.000Z</time>
      </trkpt>
      <trkpt lat="42.96158" lon="0.85684">
        <ele>1401</ele>
        <time>2018-04-02T11:42:45.000Z</time>
      </trkpt>
      <trkpt lat="42.96159" lon="0.85684">
        <ele>1401</ele>
        <time>2018-04-02T11:42:47.000Z</time>
      </trkpt>
      <trkpt lat="42.96159" lon="0.85684">
        <ele>1401</ele>
        <time>2018-04-02T11:42:49.000Z</time>
      </trkpt>
      <trkpt lat="42.96159" lon="0.85684">
        <ele>1401</ele>
        <time>2018-04-02T11:42:51.000Z</time>
      </trkpt>
      <trkpt lat="42.96159" lon="0.85684">
        <ele>1401</ele>
        <time>2018-04-02T11:42:53.000Z</time>
      </trkpt>
      <trkpt lat="42.96159" lon="0.85683">
        <ele>1401</ele>
        <time>2018-04-02T11:42:55.000Z</time>
      </trkpt>
      <trkpt lat="42.96159" lon="0.85683">
        <ele>1402</ele>
        <time>2018-04-02T11:42:57.000Z</time>
      </trkpt>
      <trkpt lat="42.96159" lon="0.85682">
        <ele>1402</ele>
        <time>2018-04-02T11:42:59.000Z</time>
      </trkpt>
      <trkpt lat="42.96159" lon="0.85681">
        <ele>1402</ele>
        <time>2018-04-02T11:43:01.000Z</time>
      </trkpt>
      <trkpt lat="42.9616" lon="0.85681">
        <ele>1402</ele>
        <time>2018-04-02T11:43:03.000Z</time>
      </trkpt>
      <trkpt lat="42.9616" lon="0.8568">
        <ele>1402</ele>
        <time>2018-04-02T11:43:05.000Z</time>
      </trkpt>
      <trkpt lat="42.9616" lon="0.8568">
        <ele>1402</ele>
        <time>2018-04-02T11:43:07.000Z</time>
      </trkpt>
      <trkpt lat="42.96161" lon="0.85679">
        <ele>1402</ele>
        <time>2018-04-02T11:43:09.000Z</time>
      </trkpt>
      <trkpt lat="42.96161" lon="0.85679">
        <ele>1402</ele>
        <time>2018-04-02T11:43:11.000Z</time>
      </trkpt>
      <trkpt lat="42.96161" lon="0.85679">
        <ele>1402</ele>
        <time>2018-04-02T11:43:13.000Z</time>
      </trkpt>
      <trkpt lat="42.96159" lon="0.85679">
        <ele>1402</ele>
        <time>2018-04-02T11:43:15.000Z</time>
      </trkpt>
      <trkpt lat="42.96159" lon="0.85679">
        <ele>1402</ele>
        <time>2018-04-02T11:43:17.000Z</time>
      </trkpt>
      <trkpt lat="42.96159" lon="0.85679">
        <ele>1402</ele>
        <time>2018-04-02T11:43:19.000Z</time>
      </trkpt>
      <trkpt lat="42.96159" lon="0.85679">
        <ele>1402</ele>
        <time>2018-04-02T11:43:21.000Z</time>
      </trkpt>
      <trkpt lat="42.96159" lon="0.85679">
        <ele>1402</ele>
        <time>2018-04-02T11:43:23.000Z</time>
      </trkpt>
      <trkpt lat="42.96159" lon="0.85679">
        <ele>1402</ele>
        <time>2018-04-02T11:43:25.000Z</time>
      </trkpt>
      <trkpt lat="42.96159" lon="0.85679">
        <ele>1402</ele>
        <time>2018-04-02T11:43:27.000Z</time>
      </trkpt>
      <trkpt lat="42.9616" lon="0.85679">
        <ele>1402</ele>
        <time>2018-04-02T11:43:29.000Z</time>
      </trkpt>
      <trkpt lat="42.9616" lon="0.85678">
        <ele>1402</ele>
        <time>2018-04-02T11:43:31.000Z</time>
      </trkpt>
      <trkpt lat="42.9616" lon="0.85678">
        <ele>1402</ele>
        <time>2018-04-02T11:43:33.000Z</time>
      </trkpt>
      <trkpt lat="42.9616" lon="0.85679">
        <ele>1402</ele>
        <time>2018-04-02T11:43:35.000Z</time>
      </trkpt>
      <trkpt lat="42.9616" lon="0.85679">
        <ele>1402</ele>
        <time>2018-04-02T11:43:37.000Z</time>
      </trkpt>
      <trkpt lat="42.9616" lon="0.85679">
        <ele>1402</ele>
        <time>2018-04-02T11:43:39.000Z</time>
      </trkpt>
      <trkpt lat="42.9616" lon="0.8568">
        <ele>1402</ele>
        <time>2018-04-02T11:43:41.000Z</time>
      </trkpt>
      <trkpt lat="42.96159" lon="0.8568">
        <ele>1402</ele>
        <time>2018-04-02T11:43:43.000Z</time>
      </trkpt>
      <trkpt lat="42.96159" lon="0.85681">
        <ele>1402</ele>
        <time>2018-04-02T11:43:45.000Z</time>
      </trkpt>
      <trkpt lat="42.96159" lon="0.85682">
        <ele>1402</ele>
        <time>2018-04-02T11:43:47.000Z</time>
      </trkpt>
      <trkpt lat="42.96159" lon="0.85682">
        <ele>1402</ele>
        <time>2018-04-02T11:43:49.000Z</time>
      </trkpt>
      <trkpt lat="42.96159" lon="0.85682">
        <ele>1402</ele>
        <time>2018-04-02T11:43:51.000Z</time>
      </trkpt>
      <trkpt lat="42.96159" lon="0.85683">
        <ele>1402</ele>
        <time>2018-04-02T11:43:53.000Z</time>
      </trkpt>
      <trkpt lat="42.9616" lon="0.85683">
        <ele>1402</ele>
        <time>2018-04-02T11:43:55.000Z</time>
      </trkpt>
      <trkpt lat="42.9616" lon="0.85682">
        <ele>1402</ele>
        <time>2018-04-02T11:43:57.000Z</time>
      </trkpt>
      <trkpt lat="42.9616" lon="0.85683">
        <ele>1402</ele>
        <time>2018-04-02T11:43:59.000Z</time>
      </trkpt>
      <trkpt lat="42.9616" lon="0.85683">
        <ele>1402</ele>
        <time>2018-04-02T11:44:01.000Z</time>
      </trkpt>
      <trkpt lat="42.9616" lon="0.85683">
        <ele>1402</ele>
        <time>2018-04-02T11:44:03.000Z</time>
      </trkpt>
      <trkpt lat="42.9616" lon="0.85683">
        <ele>1402</ele>
        <time>2018-04-02T11:44:05.000Z</time>
      </trkpt>
      <trkpt lat="42.96161" lon="0.85683">
        <ele>1402</ele>
        <time>2018-04-02T11:44:07.000Z</time>
      </trkpt>
      <trkpt lat="42.96161" lon="0.85682">
        <ele>1402</ele>
        <time>2018-04-02T11:44:09.000Z</time>
      </trkpt>
      <trkpt lat="42.96161" lon="0.85682">
        <ele>1402</ele>
        <time>2018-04-02T11:44:11.000Z</time>
      </trkpt>
      <trkpt lat="42.96161" lon="0.85682">
        <ele>1402</ele>
        <time>2018-04-02T11:44:13.000Z</time>
      </trkpt>
      <trkpt lat="42.96161" lon="0.85682">
        <ele>1402</ele>
        <time>2018-04-02T11:44:15.000Z</time>
      </trkpt>
      <trkpt lat="42.9616" lon="0.85682">
        <ele>1402</ele>
        <time>2018-04-02T11:44:17.000Z</time>
      </trkpt>
      <trkpt lat="42.9616" lon="0.85682">
        <ele>1402</ele>
        <time>2018-04-02T11:44:19.000Z</time>
      </trkpt>
      <trkpt lat="42.9616" lon="0.85681">
        <ele>1402</ele>
        <time>2018-04-02T11:44:21.000Z</time>
      </trkpt>
      <trkpt lat="42.96161" lon="0.85681">
        <ele>1402</ele>
        <time>2018-04-02T11:44:23.000Z</time>
      </trkpt>
      <trkpt lat="42.96161" lon="0.85681">
        <ele>1402</ele>
        <time>2018-04-02T11:44:25.000Z</time>
      </trkpt>
      <trkpt lat="42.96161" lon="0.85682">
        <ele>1402</ele>
        <time>2018-04-02T11:44:27.000Z</time>
      </trkpt>
      <trkpt lat="42.96161" lon="0.85682">
        <ele>1402</ele>
        <time>2018-04-02T11:44:29.000Z</time>
      </trkpt>
      <trkpt lat="42.96161" lon="0.85681">
        <ele>1402</ele>
        <time>2018-04-02T11:44:31.000Z</time>
      </trkpt>
      <trkpt lat="42.96161" lon="0.85681">
        <ele>1402</ele>
        <time>2018-04-02T11:44:33.000Z</time>
      </trkpt>
      <trkpt lat="42.96161" lon="0.85681">
        <ele>1402</ele>
        <time>2018-04-02T11:44:35.000Z</time>
      </trkpt>
      <trkpt lat="42.96161" lon="0.85681">
        <ele>1402</ele>
        <time>2018-04-02T11:44:37.000Z</time>
      </trkpt>
      <trkpt lat="42.9616" lon="0.8568">
        <ele>1402</ele>
        <time>2018-04-02T11:44:39.000Z</time>
      </trkpt>
      <trkpt lat="42.9616" lon="0.8568">
        <ele>1402</ele>
        <time>2018-04-02T11:44:41.000Z</time>
      </trkpt>
      <trkpt lat="42.9616" lon="0.8568">
        <ele>1402</ele>
        <time>2018-04-02T11:44:43.000Z</time>
      </trkpt>
      <trkpt lat="42.9616" lon="0.8568">
        <ele>1402</ele>
        <time>2018-04-02T11:44:45.000Z</time>
      </trkpt>
      <trkpt lat="42.9616" lon="0.8568">
        <ele>1402</ele>
        <time>2018-04-02T11:44:47.000Z</time>
      </trkpt>
      <trkpt lat="42.9616" lon="0.8568">
        <ele>1402</ele>
        <time>2018-04-02T11:44:49.000Z</time>
      </trkpt>
      <trkpt lat="42.9616" lon="0.8568">
        <ele>1402</ele>
        <time>2018-04-02T11:44:51.000Z</time>
      </trkpt>
      <trkpt lat="42.9616" lon="0.8568">
        <ele>1402</ele>
        <time>2018-04-02T11:44:53.000Z</time>
      </trkpt>
      <trkpt lat="42.9616" lon="0.8568">
        <ele>1402</ele>
        <time>2018-04-02T11:44:55.000Z</time>
      </trkpt>
      <trkpt lat="42.9616" lon="0.8568">
        <ele>1402</ele>
        <time>2018-04-02T11:44:57.000Z</time>
      </trkpt>
      <trkpt lat="42.9616" lon="0.8568">
        <ele>1402</ele>
        <time>2018-04-02T11:44:59.000Z</time>
      </trkpt>
      <trkpt lat="42.9616" lon="0.8568">
        <ele>1402</ele>
        <time>2018-04-02T11:45:01.000Z</time>
      </trkpt>
      <trkpt lat="42.96159" lon="0.85681">
        <ele>1402</ele>
        <time>2018-04-02T11:45:03.000Z</time>
      </trkpt>
      <trkpt lat="42.96159" lon="0.85681">
        <ele>1402</ele>
        <time>2018-04-02T11:45:05.000Z</time>
      </trkpt>
      <trkpt lat="42.96159" lon="0.85681">
        <ele>1402</ele>
        <time>2018-04-02T11:45:07.000Z</time>
      </trkpt>
      <trkpt lat="42.96159" lon="0.8568">
        <ele>1402</ele>
        <time>2018-04-02T11:45:09.000Z</time>
      </trkpt>
      <trkpt lat="42.9616" lon="0.8568">
        <ele>1402</ele>
        <time>2018-04-02T11:45:11.000Z</time>
      </trkpt>
      <trkpt lat="42.9616" lon="0.8568">
        <ele>1402</ele>
        <time>2018-04-02T11:45:13.000Z</time>
      </trkpt>
      <trkpt lat="42.9616" lon="0.8568">
        <ele>1402</ele>
        <time>2018-04-02T11:45:15.000Z</time>
      </trkpt>
      <trkpt lat="42.9616" lon="0.8568">
        <ele>1402</ele>
        <time>2018-04-02T11:45:17.000Z</time>
      </trkpt>
      <trkpt lat="42.9616" lon="0.8568">
        <ele>1402</ele>
        <time>2018-04-02T11:45:19.000Z</time>
      </trkpt>
      <trkpt lat="42.9616" lon="0.8568">
        <ele>1402</ele>
        <time>2018-04-02T11:45:21.000Z</time>
      </trkpt>
      <trkpt lat="42.9616" lon="0.8568">
        <ele>1402</ele>
        <time>2018-04-02T11:45:23.000Z</time>
      </trkpt>
      <trkpt lat="42.9616" lon="0.8568">
        <ele>1402</ele>
        <time>2018-04-02T11:45:25.000Z</time>
      </trkpt>
      <trkpt lat="42.9616" lon="0.8568">
        <ele>1402</ele>
        <time>2018-04-02T11:45:27.000Z</time>
      </trkpt>
      <trkpt lat="42.9616" lon="0.8568">
        <ele>1402</ele>
        <time>2018-04-02T11:45:29.000Z</time>
      </trkpt>
      <trkpt lat="42.9616" lon="0.8568">
        <ele>1402</ele>
        <time>2018-04-02T11:45:31.000Z</time>
      </trkpt>
      <trkpt lat="42.9616" lon="0.8568">
        <ele>1402</ele>
        <time>2018-04-02T11:45:33.000Z</time>
      </trkpt>
      <trkpt lat="42.9616" lon="0.85679">
        <ele>1402</ele>
        <time>2018-04-02T11:45:35.000Z</time>
      </trkpt>
      <trkpt lat="42.9616" lon="0.85679">
        <ele>1402</ele>
        <time>2018-04-02T11:45:37.000Z</time>
      </trkpt>
      <trkpt lat="42.9616" lon="0.85679">
        <ele>1402</ele>
        <time>2018-04-02T11:45:39.000Z</time>
      </trkpt>
      <trkpt lat="42.9616" lon="0.85679">
        <ele>1402</ele>
        <time>2018-04-02T11:45:41.000Z</time>
      </trkpt>
      <trkpt lat="42.96161" lon="0.85679">
        <ele>1402</ele>
        <time>2018-04-02T11:45:43.000Z</time>
      </trkpt>
      <trkpt lat="42.96161" lon="0.85678">
        <ele>1402</ele>
        <time>2018-04-02T11:45:45.000Z</time>
      </trkpt>
      <trkpt lat="42.96161" lon="0.85678">
        <ele>1402</ele>
        <time>2018-04-02T11:45:47.000Z</time>
      </trkpt>
      <trkpt lat="42.96161" lon="0.85678">
        <ele>1402</ele>
        <time>2018-04-02T11:45:49.000Z</time>
      </trkpt>
      <trkpt lat="42.96161" lon="0.85678">
        <ele>1402</ele>
        <time>2018-04-02T11:45:51.000Z</time>
      </trkpt>
      <trkpt lat="42.96161" lon="0.85678">
        <ele>1402</ele>
        <time>2018-04-02T11:45:53.000Z</time>
      </trkpt>
      <trkpt lat="42.96161" lon="0.85678">
        <ele>1402</ele>
        <time>2018-04-02T11:45:55.000Z</time>
      </trkpt>
      <trkpt lat="42.96161" lon="0.85679">
        <ele>1402</ele>
        <time>2018-04-02T11:45:57.000Z</time>
      </trkpt>
      <trkpt lat="42.96161" lon="0.85679">
        <ele>1402</ele>
        <time>2018-04-02T11:45:59.000Z</time>
      </trkpt>
      <trkpt lat="42.96161" lon="0.85678">
        <ele>1402</ele>
        <time>2018-04-02T11:46:01.000Z</time>
      </trkpt>
      <trkpt lat="42.96161" lon="0.85678">
        <ele>1402</ele>
        <time>2018-04-02T11:46:03.000Z</time>
      </trkpt>
      <trkpt lat="42.96161" lon="0.85678">
        <ele>1402</ele>
        <time>2018-04-02T11:46:05.000Z</time>
      </trkpt>
      <trkpt lat="42.96161" lon="0.85678">
        <ele>1402</ele>
        <time>2018-04-02T11:46:07.000Z</time>
      </trkpt>
      <trkpt lat="42.96161" lon="0.85678">
        <ele>1402</ele>
        <time>2018-04-02T11:46:09.000Z</time>
      </trkpt>
      <trkpt lat="42.96161" lon="0.85677">
        <ele>1402</ele>
        <time>2018-04-02T11:46:11.000Z</time>
      </trkpt>
      <trkpt lat="42.96162" lon="0.85677">
        <ele>1402</ele>
        <time>2018-04-02T11:46:13.000Z</time>
      </trkpt>
      <trkpt lat="42.96162" lon="0.85677">
        <ele>1402</ele>
        <time>2018-04-02T11:46:15.000Z</time>
      </trkpt>
      <trkpt lat="42.96162" lon="0.85677">
        <ele>1402</ele>
        <time>2018-04-02T11:46:17.000Z</time>
      </trkpt>
      <trkpt lat="42.96162" lon="0.85677">
        <ele>1402</ele>
        <time>2018-04-02T11:46:19.000Z</time>
      </trkpt>
      <trkpt lat="42.96162" lon="0.85677">
        <ele>1402</ele>
        <time>2018-04-02T11:46:21.000Z</time>
      </trkpt>
      <trkpt lat="42.96163" lon="0.85676">
        <ele>1402</ele>
        <time>2018-04-02T11:46:23.000Z</time>
      </trkpt>
      <trkpt lat="42.96163" lon="0.85676">
        <ele>1402</ele>
        <time>2018-04-02T11:46:25.000Z</time>
      </trkpt>
      <trkpt lat="42.96163" lon="0.85676">
        <ele>1402</ele>
        <time>2018-04-02T11:46:27.000Z</time>
      </trkpt>
      <trkpt lat="42.96163" lon="0.85676">
        <ele>1402</ele>
        <time>2018-04-02T11:46:29.000Z</time>
      </trkpt>
      <trkpt lat="42.96162" lon="0.85677">
        <ele>1402</ele>
        <time>2018-04-02T11:46:31.000Z</time>
      </trkpt>
      <trkpt lat="42.96162" lon="0.85677">
        <ele>1402</ele>
        <time>2018-04-02T11:46:33.000Z</time>
      </trkpt>
      <trkpt lat="42.96162" lon="0.85677">
        <ele>1402</ele>
        <time>2018-04-02T11:46:35.000Z</time>
      </trkpt>
      <trkpt lat="42.96162" lon="0.85678">
        <ele>1402</ele>
        <time>2018-04-02T11:46:37.000Z</time>
      </trkpt>
      <trkpt lat="42.96162" lon="0.85678">
        <ele>1402</ele>
        <time>2018-04-02T11:46:39.000Z</time>
      </trkpt>
      <trkpt lat="42.96161" lon="0.85678">
        <ele>1402</ele>
        <time>2018-04-02T11:46:41.000Z</time>
      </trkpt>
      <trkpt lat="42.96161" lon="0.85678">
        <ele>1402</ele>
        <time>2018-04-02T11:46:43.000Z</time>
      </trkpt>
      <trkpt lat="42.96161" lon="0.85678">
        <ele>1402</ele>
        <time>2018-04-02T11:46:45.000Z</time>
      </trkpt>
      <trkpt lat="42.96161" lon="0.85679">
        <ele>1402</ele>
        <time>2018-04-02T11:46:47.000Z</time>
      </trkpt>
      <trkpt lat="42.96161" lon="0.85679">
        <ele>1402</ele>
        <time>2018-04-02T11:46:49.000Z</time>
      </trkpt>
      <trkpt lat="42.96161" lon="0.85679">
        <ele>1402</ele>
        <time>2018-04-02T11:46:51.000Z</time>
      </trkpt>
      <trkpt lat="42.96161" lon="0.8568">
        <ele>1402</ele>
        <time>2018-04-02T11:46:53.000Z</time>
      </trkpt>
      <trkpt lat="42.96161" lon="0.8568">
        <ele>1402</ele>
        <time>2018-04-02T11:46:55.000Z</time>
      </trkpt>
      <trkpt lat="42.96161" lon="0.85679">
        <ele>1402</ele>
        <time>2018-04-02T11:46:57.000Z</time>
      </trkpt>
      <trkpt lat="42.96161" lon="0.85679">
        <ele>1402</ele>
        <time>2018-04-02T11:46:59.000Z</time>
      </trkpt>
      <trkpt lat="42.96161" lon="0.85679">
        <ele>1402</ele>
        <time>2018-04-02T11:47:01.000Z</time>
      </trkpt>
      <trkpt lat="42.96161" lon="0.85678">
        <ele>1402</ele>
        <time>2018-04-02T11:47:03.000Z</time>
      </trkpt>
      <trkpt lat="42.96161" lon="0.85678">
        <ele>1402</ele>
        <time>2018-04-02T11:47:05.000Z</time>
      </trkpt>
      <trkpt lat="42.96161" lon="0.85678">
        <ele>1402</ele>
        <time>2018-04-02T11:47:07.000Z</time>
      </trkpt>
      <trkpt lat="42.96161" lon="0.85678">
        <ele>1402</ele>
        <time>2018-04-02T11:47:09.000Z</time>
      </trkpt>
      <trkpt lat="42.96161" lon="0.85679">
        <ele>1402</ele>
        <time>2018-04-02T11:47:11.000Z</time>
      </trkpt>
      <trkpt lat="42.96161" lon="0.85679">
        <ele>1402</ele>
        <time>2018-04-02T11:47:13.000Z</time>
      </trkpt>
      <trkpt lat="42.96161" lon="0.85679">
        <ele>1402</ele>
        <time>2018-04-02T11:47:15.000Z</time>
      </trkpt>
      <trkpt lat="42.96161" lon="0.85679">
        <ele>1402</ele>
        <time>2018-04-02T11:47:17.000Z</time>
      </trkpt>
      <trkpt lat="42.96161" lon="0.85679">
        <ele>1402</ele>
        <time>2018-04-02T11:47:19.000Z</time>
      </trkpt>
      <trkpt lat="42.9616" lon="0.8568">
        <ele>1402</ele>
        <time>2018-04-02T11:47:21.000Z</time>
      </trkpt>
      <trkpt lat="42.9616" lon="0.8568">
        <ele>1402</ele>
        <time>2018-04-02T11:47:23.000Z</time>
      </trkpt>
      <trkpt lat="42.96161" lon="0.8568">
        <ele>1402</ele>
        <time>2018-04-02T11:47:25.000Z</time>
      </trkpt>
      <trkpt lat="42.9616" lon="0.8568">
        <ele>1402</ele>
        <time>2018-04-02T11:47:27.000Z</time>
      </trkpt>
      <trkpt lat="42.9616" lon="0.85679">
        <ele>1402</ele>
        <time>2018-04-02T11:47:29.000Z</time>
      </trkpt>
      <trkpt lat="42.9616" lon="0.85679">
        <ele>1402</ele>
        <time>2018-04-02T11:47:31.000Z</time>
      </trkpt>
      <trkpt lat="42.9616" lon="0.85679">
        <ele>1402</ele>
        <time>2018-04-02T11:47:33.000Z</time>
      </trkpt>
      <trkpt lat="42.9616" lon="0.85679">
        <ele>1402</ele>
        <time>2018-04-02T11:47:35.000Z</time>
      </trkpt>
      <trkpt lat="42.9616" lon="0.85679">
        <ele>1402</ele>
        <time>2018-04-02T11:47:37.000Z</time>
      </trkpt>
      <trkpt lat="42.96161" lon="0.85678">
        <ele>1402</ele>
        <time>2018-04-02T11:47:39.000Z</time>
      </trkpt>
      <trkpt lat="42.96161" lon="0.85678">
        <ele>1402</ele>
        <time>2018-04-02T11:47:41.000Z</time>
      </trkpt>
      <trkpt lat="42.96161" lon="0.85678">
        <ele>1402</ele>
        <time>2018-04-02T11:47:43.000Z</time>
      </trkpt>
      <trkpt lat="42.96161" lon="0.85678">
        <ele>1402</ele>
        <time>2018-04-02T11:47:45.000Z</time>
      </trkpt>
      <trkpt lat="42.96162" lon="0.85678">
        <ele>1402</ele>
        <time>2018-04-02T11:47:47.000Z</time>
      </trkpt>
      <trkpt lat="42.96162" lon="0.85677">
        <ele>1402</ele>
        <time>2018-04-02T11:47:49.000Z</time>
      </trkpt>
      <trkpt lat="42.96162" lon="0.85677">
        <ele>1402</ele>
        <time>2018-04-02T11:47:51.000Z</time>
      </trkpt>
      <trkpt lat="42.96162" lon="0.85677">
        <ele>1402</ele>
        <time>2018-04-02T11:47:53.000Z</time>
      </trkpt>
      <trkpt lat="42.96162" lon="0.85677">
        <ele>1402</ele>
        <time>2018-04-02T11:47:55.000Z</time>
      </trkpt>
      <trkpt lat="42.96162" lon="0.85677">
        <ele>1402</ele>
        <time>2018-04-02T11:47:57.000Z</time>
      </trkpt>
      <trkpt lat="42.96162" lon="0.85677">
        <ele>1402</ele>
        <time>2018-04-02T11:47:59.000Z</time>
      </trkpt>
      <trkpt lat="42.96162" lon="0.85677">
        <ele>1402</ele>
        <time>2018-04-02T11:48:01.000Z</time>
      </trkpt>
      <trkpt lat="42.96163" lon="0.85677">
        <ele>1402</ele>
        <time>2018-04-02T11:48:03.000Z</time>
      </trkpt>
      <trkpt lat="42.96163" lon="0.85677">
        <ele>1402</ele>
        <time>2018-04-02T11:48:05.000Z</time>
      </trkpt>
      <trkpt lat="42.96163" lon="0.85677">
        <ele>1402</ele>
        <time>2018-04-02T11:48:07.000Z</time>
      </trkpt>
      <trkpt lat="42.96163" lon="0.85677">
        <ele>1402</ele>
        <time>2018-04-02T11:48:09.000Z</time>
      </trkpt>
      <trkpt lat="42.96163" lon="0.85677">
        <ele>1402</ele>
        <time>2018-04-02T11:48:11.000Z</time>
      </trkpt>
      <trkpt lat="42.96163" lon="0.85677">
        <ele>1402</ele>
        <time>2018-04-02T11:48:13.000Z</time>
      </trkpt>
      <trkpt lat="42.96164" lon="0.85677">
        <ele>1402</ele>
        <time>2018-04-02T11:48:15.000Z</time>
      </trkpt>
      <trkpt lat="42.96164" lon="0.85677">
        <ele>1402</ele>
        <time>2018-04-02T11:48:17.000Z</time>
      </trkpt>
      <trkpt lat="42.96164" lon="0.85677">
        <ele>1402</ele>
        <time>2018-04-02T11:48:19.000Z</time>
      </trkpt>
      <trkpt lat="42.96164" lon="0.85676">
        <ele>1403</ele>
        <time>2018-04-02T11:48:21.000Z</time>
      </trkpt>
      <trkpt lat="42.96164" lon="0.85676">
        <ele>1403</ele>
        <time>2018-04-02T11:48:23.000Z</time>
      </trkpt>
      <trkpt lat="42.96163" lon="0.85677">
        <ele>1402</ele>
        <time>2018-04-02T11:48:25.000Z</time>
      </trkpt>
      <trkpt lat="42.96163" lon="0.85676">
        <ele>1402</ele>
        <time>2018-04-02T11:48:27.000Z</time>
      </trkpt>
      <trkpt lat="42.96163" lon="0.85677">
        <ele>1402</ele>
        <time>2018-04-02T11:48:29.000Z</time>
      </trkpt>
      <trkpt lat="42.96162" lon="0.85677">
        <ele>1402</ele>
        <time>2018-04-02T11:48:31.000Z</time>
      </trkpt>
      <trkpt lat="42.96162" lon="0.85678">
        <ele>1402</ele>
        <time>2018-04-02T11:48:33.000Z</time>
      </trkpt>
      <trkpt lat="42.96162" lon="0.85679">
        <ele>1402</ele>
        <time>2018-04-02T11:48:35.000Z</time>
      </trkpt>
      <trkpt lat="42.96161" lon="0.85679">
        <ele>1402</ele>
        <time>2018-04-02T11:48:37.000Z</time>
      </trkpt>
      <trkpt lat="42.96161" lon="0.85679">
        <ele>1402</ele>
        <time>2018-04-02T11:48:39.000Z</time>
      </trkpt>
      <trkpt lat="42.96161" lon="0.8568">
        <ele>1402</ele>
        <time>2018-04-02T11:48:41.000Z</time>
      </trkpt>
      <trkpt lat="42.96161" lon="0.8568">
        <ele>1402</ele>
        <time>2018-04-02T11:48:43.000Z</time>
      </trkpt>
      <trkpt lat="42.96162" lon="0.85679">
        <ele>1402</ele>
        <time>2018-04-02T11:48:45.000Z</time>
      </trkpt>
      <trkpt lat="42.96162" lon="0.85679">
        <ele>1402</ele>
        <time>2018-04-02T11:48:47.000Z</time>
      </trkpt>
      <trkpt lat="42.96163" lon="0.85679">
        <ele>1402</ele>
        <time>2018-04-02T11:48:49.000Z</time>
      </trkpt>
      <trkpt lat="42.96163" lon="0.85679">
        <ele>1402</ele>
        <time>2018-04-02T11:48:51.000Z</time>
      </trkpt>
      <trkpt lat="42.96162" lon="0.8568">
        <ele>1402</ele>
        <time>2018-04-02T11:48:53.000Z</time>
      </trkpt>
      <trkpt lat="42.96162" lon="0.85679">
        <ele>1402</ele>
        <time>2018-04-02T11:48:55.000Z</time>
      </trkpt>
      <trkpt lat="42.96162" lon="0.85679">
        <ele>1402</ele>
        <time>2018-04-02T11:48:57.000Z</time>
      </trkpt>
      <trkpt lat="42.96162" lon="0.85679">
        <ele>1402</ele>
        <time>2018-04-02T11:48:59.000Z</time>
      </trkpt>
      <trkpt lat="42.96162" lon="0.85679">
        <ele>1402</ele>
        <time>2018-04-02T11:49:01.000Z</time>
      </trkpt>
      <trkpt lat="42.96162" lon="0.85679">
        <ele>1402</ele>
        <time>2018-04-02T11:49:03.000Z</time>
      </trkpt>
      <trkpt lat="42.96162" lon="0.85678">
        <ele>1402</ele>
        <time>2018-04-02T11:49:05.000Z</time>
      </trkpt>
      <trkpt lat="42.96162" lon="0.85679">
        <ele>1402</ele>
        <time>2018-04-02T11:49:07.000Z</time>
      </trkpt>
      <trkpt lat="42.96162" lon="0.85678">
        <ele>1402</ele>
        <time>2018-04-02T11:49:09.000Z</time>
      </trkpt>
      <trkpt lat="42.96162" lon="0.85678">
        <ele>1402</ele>
        <time>2018-04-02T11:49:11.000Z</time>
      </trkpt>
      <trkpt lat="42.96163" lon="0.85678">
        <ele>1402</ele>
        <time>2018-04-02T11:49:13.000Z</time>
      </trkpt>
      <trkpt lat="42.96163" lon="0.85678">
        <ele>1402</ele>
        <time>2018-04-02T11:49:15.000Z</time>
      </trkpt>
      <trkpt lat="42.96163" lon="0.85678">
        <ele>1402</ele>
        <time>2018-04-02T11:49:17.000Z</time>
      </trkpt>
      <trkpt lat="42.96163" lon="0.85678">
        <ele>1402</ele>
        <time>2018-04-02T11:49:19.000Z</time>
      </trkpt>
      <trkpt lat="42.96163" lon="0.85677">
        <ele>1402</ele>
        <time>2018-04-02T11:49:21.000Z</time>
      </trkpt>
      <trkpt lat="42.96163" lon="0.85677">
        <ele>1402</ele>
        <time>2018-04-02T11:49:23.000Z</time>
      </trkpt>
      <trkpt lat="42.96163" lon="0.85677">
        <ele>1402</ele>
        <time>2018-04-02T11:49:25.000Z</time>
      </trkpt>
      <trkpt lat="42.96163" lon="0.85677">
        <ele>1402</ele>
        <time>2018-04-02T11:49:27.000Z</time>
      </trkpt>
      <trkpt lat="42.96163" lon="0.85677">
        <ele>1402</ele>
        <time>2018-04-02T11:49:29.000Z</time>
      </trkpt>
      <trkpt lat="42.96163" lon="0.85677">
        <ele>1402</ele>
        <time>2018-04-02T11:49:31.000Z</time>
      </trkpt>
      <trkpt lat="42.96163" lon="0.85677">
        <ele>1402</ele>
        <time>2018-04-02T11:49:33.000Z</time>
      </trkpt>
      <trkpt lat="42.96163" lon="0.85677">
        <ele>1402</ele>
        <time>2018-04-02T11:49:35.000Z</time>
      </trkpt>
      <trkpt lat="42.96163" lon="0.85677">
        <ele>1402</ele>
        <time>2018-04-02T11:49:37.000Z</time>
      </trkpt>
      <trkpt lat="42.96163" lon="0.85677">
        <ele>1402</ele>
        <time>2018-04-02T11:49:39.000Z</time>
      </trkpt>
      <trkpt lat="42.96163" lon="0.85677">
        <ele>1402</ele>
        <time>2018-04-02T11:49:41.000Z</time>
      </trkpt>
      <trkpt lat="42.96162" lon="0.85677">
        <ele>1402</ele>
        <time>2018-04-02T11:49:43.000Z</time>
      </trkpt>
      <trkpt lat="42.96163" lon="0.85677">
        <ele>1402</ele>
        <time>2018-04-02T11:49:45.000Z</time>
      </trkpt>
      <trkpt lat="42.96163" lon="0.85677">
        <ele>1402</ele>
        <time>2018-04-02T11:49:47.000Z</time>
      </trkpt>
      <trkpt lat="42.96163" lon="0.85677">
        <ele>1402</ele>
        <time>2018-04-02T11:49:49.000Z</time>
      </trkpt>
      <trkpt lat="42.96164" lon="0.85677">
        <ele>1402</ele>
        <time>2018-04-02T11:49:51.000Z</time>
      </trkpt>
      <trkpt lat="42.96164" lon="0.85677">
        <ele>1402</ele>
        <time>2018-04-02T11:49:53.000Z</time>
      </trkpt>
      <trkpt lat="42.96164" lon="0.85677">
        <ele>1402</ele>
        <time>2018-04-02T11:49:55.000Z</time>
      </trkpt>
      <trkpt lat="42.96163" lon="0.85678">
        <ele>1402</ele>
        <time>2018-04-02T11:49:57.000Z</time>
      </trkpt>
      <trkpt lat="42.96163" lon="0.85678">
        <ele>1402</ele>
        <time>2018-04-02T11:49:59.000Z</time>
      </trkpt>
      <trkpt lat="42.96162" lon="0.85679">
        <ele>1402</ele>
        <time>2018-04-02T11:50:01.000Z</time>
      </trkpt>
      <trkpt lat="42.96162" lon="0.8568">
        <ele>1402</ele>
        <time>2018-04-02T11:50:03.000Z</time>
      </trkpt>
      <trkpt lat="42.96161" lon="0.8568">
        <ele>1402</ele>
        <time>2018-04-02T11:50:05.000Z</time>
      </trkpt>
      <trkpt lat="42.96161" lon="0.8568">
        <ele>1402</ele>
        <time>2018-04-02T11:50:07.000Z</time>
      </trkpt>
      <trkpt lat="42.96161" lon="0.8568">
        <ele>1402</ele>
        <time>2018-04-02T11:50:09.000Z</time>
      </trkpt>
      <trkpt lat="42.96161" lon="0.85681">
        <ele>1402</ele>
        <time>2018-04-02T11:50:11.000Z</time>
      </trkpt>
      <trkpt lat="42.96161" lon="0.85681">
        <ele>1402</ele>
        <time>2018-04-02T11:50:13.000Z</time>
      </trkpt>
      <trkpt lat="42.96161" lon="0.85681">
        <ele>1402</ele>
        <time>2018-04-02T11:50:15.000Z</time>
      </trkpt>
      <trkpt lat="42.96161" lon="0.85681">
        <ele>1402</ele>
        <time>2018-04-02T11:50:17.000Z</time>
      </trkpt>
      <trkpt lat="42.96161" lon="0.85681">
        <ele>1402</ele>
        <time>2018-04-02T11:50:19.000Z</time>
      </trkpt>
      <trkpt lat="42.96161" lon="0.85681">
        <ele>1402</ele>
        <time>2018-04-02T11:50:21.000Z</time>
      </trkpt>
      <trkpt lat="42.96161" lon="0.85681">
        <ele>1402</ele>
        <time>2018-04-02T11:50:23.000Z</time>
      </trkpt>
      <trkpt lat="42.96161" lon="0.85681">
        <ele>1402</ele>
        <time>2018-04-02T11:50:25.000Z</time>
      </trkpt>
      <trkpt lat="42.96161" lon="0.85681">
        <ele>1402</ele>
        <time>2018-04-02T11:50:27.000Z</time>
      </trkpt>
      <trkpt lat="42.96161" lon="0.85682">
        <ele>1402</ele>
        <time>2018-04-02T11:50:29.000Z</time>
      </trkpt>
      <trkpt lat="42.96161" lon="0.85681">
        <ele>1402</ele>
        <time>2018-04-02T11:50:31.000Z</time>
      </trkpt>
      <trkpt lat="42.96161" lon="0.85681">
        <ele>1402</ele>
        <time>2018-04-02T11:50:33.000Z</time>
      </trkpt>
      <trkpt lat="42.96161" lon="0.85681">
        <ele>1402</ele>
        <time>2018-04-02T11:50:35.000Z</time>
      </trkpt>
      <trkpt lat="42.96161" lon="0.85681">
        <ele>1402</ele>
        <time>2018-04-02T11:50:37.000Z</time>
      </trkpt>
      <trkpt lat="42.96161" lon="0.85681">
        <ele>1402</ele>
        <time>2018-04-02T11:50:39.000Z</time>
      </trkpt>
      <trkpt lat="42.96161" lon="0.85681">
        <ele>1402</ele>
        <time>2018-04-02T11:50:41.000Z</time>
      </trkpt>
      <trkpt lat="42.96161" lon="0.85681">
        <ele>1402</ele>
        <time>2018-04-02T11:50:43.000Z</time>
      </trkpt>
      <trkpt lat="42.96161" lon="0.85681">
        <ele>1402</ele>
        <time>2018-04-02T11:50:45.000Z</time>
      </trkpt>
      <trkpt lat="42.96162" lon="0.85681">
        <ele>1402</ele>
        <time>2018-04-02T11:50:47.000Z</time>
      </trkpt>
      <trkpt lat="42.96162" lon="0.85681">
        <ele>1402</ele>
        <time>2018-04-02T11:50:49.000Z</time>
      </trkpt>
      <trkpt lat="42.96163" lon="0.85681">
        <ele>1402</ele>
        <time>2018-04-02T11:50:51.000Z</time>
      </trkpt>
      <trkpt lat="42.96163" lon="0.85682">
        <ele>1402</ele>
        <time>2018-04-02T11:50:53.000Z</time>
      </trkpt>
      <trkpt lat="42.96163" lon="0.85682">
        <ele>1402</ele>
        <time>2018-04-02T11:50:55.000Z</time>
      </trkpt>
      <trkpt lat="42.96163" lon="0.85682">
        <ele>1402</ele>
        <time>2018-04-02T11:50:57.000Z</time>
      </trkpt>
      <trkpt lat="42.96163" lon="0.85682">
        <ele>1402</ele>
        <time>2018-04-02T11:50:59.000Z</time>
      </trkpt>
      <trkpt lat="42.96163" lon="0.85682">
        <ele>1402</ele>
        <time>2018-04-02T11:51:01.000Z</time>
      </trkpt>
      <trkpt lat="42.96163" lon="0.85682">
        <ele>1402</ele>
        <time>2018-04-02T11:51:03.000Z</time>
      </trkpt>
      <trkpt lat="42.96162" lon="0.85682">
        <ele>1402</ele>
        <time>2018-04-02T11:51:05.000Z</time>
      </trkpt>
      <trkpt lat="42.96162" lon="0.85682">
        <ele>1402</ele>
        <time>2018-04-02T11:51:07.000Z</time>
      </trkpt>
      <trkpt lat="42.96162" lon="0.85682">
        <ele>1402</ele>
        <time>2018-04-02T11:51:09.000Z</time>
      </trkpt>
      <trkpt lat="42.96162" lon="0.85681">
        <ele>1402</ele>
        <time>2018-04-02T11:51:11.000Z</time>
      </trkpt>
      <trkpt lat="42.96162" lon="0.85682">
        <ele>1402</ele>
        <time>2018-04-02T11:51:13.000Z</time>
      </trkpt>
      <trkpt lat="42.96162" lon="0.85682">
        <ele>1402</ele>
        <time>2018-04-02T11:51:15.000Z</time>
      </trkpt>
      <trkpt lat="42.96163" lon="0.85682">
        <ele>1402</ele>
        <time>2018-04-02T11:51:17.000Z</time>
      </trkpt>
      <trkpt lat="42.96163" lon="0.85682">
        <ele>1402</ele>
        <time>2018-04-02T11:51:19.000Z</time>
      </trkpt>
      <trkpt lat="42.96163" lon="0.85682">
        <ele>1402</ele>
        <time>2018-04-02T11:51:21.000Z</time>
      </trkpt>
      <trkpt lat="42.96163" lon="0.85682">
        <ele>1402</ele>
        <time>2018-04-02T11:51:23.000Z</time>
      </trkpt>
      <trkpt lat="42.96163" lon="0.85682">
        <ele>1402</ele>
        <time>2018-04-02T11:51:25.000Z</time>
      </trkpt>
      <trkpt lat="42.96162" lon="0.85683">
        <ele>1402</ele>
        <time>2018-04-02T11:51:27.000Z</time>
      </trkpt>
      <trkpt lat="42.96161" lon="0.85682">
        <ele>1402</ele>
        <time>2018-04-02T11:51:29.000Z</time>
      </trkpt>
      <trkpt lat="42.96161" lon="0.85682">
        <ele>1402</ele>
        <time>2018-04-02T11:51:31.000Z</time>
      </trkpt>
      <trkpt lat="42.96161" lon="0.85682">
        <ele>1402</ele>
        <time>2018-04-02T11:51:33.000Z</time>
      </trkpt>
      <trkpt lat="42.96161" lon="0.85682">
        <ele>1402</ele>
        <time>2018-04-02T11:51:35.000Z</time>
      </trkpt>
      <trkpt lat="42.96161" lon="0.85682">
        <ele>1402</ele>
        <time>2018-04-02T11:51:37.000Z</time>
      </trkpt>
      <trkpt lat="42.96161" lon="0.85681">
        <ele>1402</ele>
        <time>2018-04-02T11:51:39.000Z</time>
      </trkpt>
      <trkpt lat="42.96162" lon="0.85681">
        <ele>1402</ele>
        <time>2018-04-02T11:51:41.000Z</time>
      </trkpt>
      <trkpt lat="42.96162" lon="0.85681">
        <ele>1402</ele>
        <time>2018-04-02T11:51:43.000Z</time>
      </trkpt>
      <trkpt lat="42.96162" lon="0.85681">
        <ele>1402</ele>
        <time>2018-04-02T11:51:45.000Z</time>
      </trkpt>
      <trkpt lat="42.96162" lon="0.85681">
        <ele>1402</ele>
        <time>2018-04-02T11:51:47.000Z</time>
      </trkpt>
      <trkpt lat="42.96162" lon="0.85681">
        <ele>1402</ele>
        <time>2018-04-02T11:51:49.000Z</time>
      </trkpt>
      <trkpt lat="42.96162" lon="0.85681">
        <ele>1402</ele>
        <time>2018-04-02T11:51:51.000Z</time>
      </trkpt>
      <trkpt lat="42.96162" lon="0.85681">
        <ele>1402</ele>
        <time>2018-04-02T11:51:53.000Z</time>
      </trkpt>
      <trkpt lat="42.96162" lon="0.85681">
        <ele>1402</ele>
        <time>2018-04-02T11:51:55.000Z</time>
      </trkpt>
      <trkpt lat="42.96161" lon="0.85681">
        <ele>1402</ele>
        <time>2018-04-02T11:51:57.000Z</time>
      </trkpt>
      <trkpt lat="42.9616" lon="0.85681">
        <ele>1402</ele>
        <time>2018-04-02T11:51:59.000Z</time>
      </trkpt>
      <trkpt lat="42.9616" lon="0.85681">
        <ele>1402</ele>
        <time>2018-04-02T11:52:01.000Z</time>
      </trkpt>
      <trkpt lat="42.9616" lon="0.85681">
        <ele>1402</ele>
        <time>2018-04-02T11:52:03.000Z</time>
      </trkpt>
      <trkpt lat="42.9616" lon="0.85681">
        <ele>1402</ele>
        <time>2018-04-02T11:52:05.000Z</time>
      </trkpt>
      <trkpt lat="42.9616" lon="0.85681">
        <ele>1402</ele>
        <time>2018-04-02T11:52:07.000Z</time>
      </trkpt>
      <trkpt lat="42.9616" lon="0.85681">
        <ele>1402</ele>
        <time>2018-04-02T11:52:09.000Z</time>
      </trkpt>
      <trkpt lat="42.9616" lon="0.85681">
        <ele>1402</ele>
        <time>2018-04-02T11:52:11.000Z</time>
      </trkpt>
      <trkpt lat="42.9616" lon="0.85681">
        <ele>1402</ele>
        <time>2018-04-02T11:52:13.000Z</time>
      </trkpt>
      <trkpt lat="42.9616" lon="0.85681">
        <ele>1402</ele>
        <time>2018-04-02T11:52:15.000Z</time>
      </trkpt>
      <trkpt lat="42.9616" lon="0.85681">
        <ele>1402</ele>
        <time>2018-04-02T11:52:17.000Z</time>
      </trkpt>
      <trkpt lat="42.9616" lon="0.85681">
        <ele>1402</ele>
        <time>2018-04-02T11:52:19.000Z</time>
      </trkpt>
      <trkpt lat="42.9616" lon="0.85681">
        <ele>1402</ele>
        <time>2018-04-02T11:52:21.000Z</time>
      </trkpt>
      <trkpt lat="42.9616" lon="0.85681">
        <ele>1402</ele>
        <time>2018-04-02T11:52:23.000Z</time>
      </trkpt>
      <trkpt lat="42.9616" lon="0.85681">
        <ele>1402</ele>
        <time>2018-04-02T11:52:25.000Z</time>
      </trkpt>
      <trkpt lat="42.9616" lon="0.85681">
        <ele>1402</ele>
        <time>2018-04-02T11:52:27.000Z</time>
      </trkpt>
      <trkpt lat="42.9616" lon="0.85681">
        <ele>1402</ele>
        <time>2018-04-02T11:52:29.000Z</time>
      </trkpt>
      <trkpt lat="42.96161" lon="0.85681">
        <ele>1402</ele>
        <time>2018-04-02T11:52:31.000Z</time>
      </trkpt>
      <trkpt lat="42.96161" lon="0.8568">
        <ele>1402</ele>
        <time>2018-04-02T11:52:33.000Z</time>
      </trkpt>
      <trkpt lat="42.96162" lon="0.8568">
        <ele>1402</ele>
        <time>2018-04-02T11:52:35.000Z</time>
      </trkpt>
      <trkpt lat="42.96162" lon="0.8568">
        <ele>1402</ele>
        <time>2018-04-02T11:52:37.000Z</time>
      </trkpt>
      <trkpt lat="42.96162" lon="0.8568">
        <ele>1402</ele>
        <time>2018-04-02T11:52:39.000Z</time>
      </trkpt>
      <trkpt lat="42.96162" lon="0.8568">
        <ele>1402</ele>
        <time>2018-04-02T11:52:41.000Z</time>
      </trkpt>
      <trkpt lat="42.96163" lon="0.8568">
        <ele>1402</ele>
        <time>2018-04-02T11:52:43.000Z</time>
      </trkpt>
      <trkpt lat="42.96163" lon="0.85681">
        <ele>1402</ele>
        <time>2018-04-02T11:52:45.000Z</time>
      </trkpt>
      <trkpt lat="42.96162" lon="0.85681">
        <ele>1402</ele>
        <time>2018-04-02T11:52:47.000Z</time>
      </trkpt>
      <trkpt lat="42.96162" lon="0.85681">
        <ele>1402</ele>
        <time>2018-04-02T11:52:49.000Z</time>
      </trkpt>
      <trkpt lat="42.96162" lon="0.85681">
        <ele>1402</ele>
        <time>2018-04-02T11:52:51.000Z</time>
      </trkpt>
      <trkpt lat="42.96162" lon="0.85681">
        <ele>1402</ele>
        <time>2018-04-02T11:52:53.000Z</time>
      </trkpt>
      <trkpt lat="42.96162" lon="0.85681">
        <ele>1402</ele>
        <time>2018-04-02T11:52:55.000Z</time>
      </trkpt>
      <trkpt lat="42.96162" lon="0.85682">
        <ele>1402</ele>
        <time>2018-04-02T11:52:57.000Z</time>
      </trkpt>
      <trkpt lat="42.96161" lon="0.85682">
        <ele>1402</ele>
        <time>2018-04-02T11:52:59.000Z</time>
      </trkpt>
      <trkpt lat="42.96162" lon="0.85682">
        <ele>1402</ele>
        <time>2018-04-02T11:53:01.000Z</time>
      </trkpt>
      <trkpt lat="42.96161" lon="0.85682">
        <ele>1402</ele>
        <time>2018-04-02T11:53:03.000Z</time>
      </trkpt>
      <trkpt lat="42.96161" lon="0.85682">
        <ele>1402</ele>
        <time>2018-04-02T11:53:05.000Z</time>
      </trkpt>
      <trkpt lat="42.96161" lon="0.85681">
        <ele>1402</ele>
        <time>2018-04-02T11:53:07.000Z</time>
      </trkpt>
      <trkpt lat="42.96161" lon="0.85681">
        <ele>1402</ele>
        <time>2018-04-02T11:53:09.000Z</time>
      </trkpt>
      <trkpt lat="42.96161" lon="0.85683">
        <ele>1402</ele>
        <time>2018-04-02T11:53:11.000Z</time>
      </trkpt>
      <trkpt lat="42.96161" lon="0.85683">
        <ele>1402</ele>
        <time>2018-04-02T11:53:13.000Z</time>
      </trkpt>
      <trkpt lat="42.96161" lon="0.85683">
        <ele>1402</ele>
        <time>2018-04-02T11:53:15.000Z</time>
      </trkpt>
      <trkpt lat="42.96161" lon="0.85684">
        <ele>1402</ele>
        <time>2018-04-02T11:53:17.000Z</time>
      </trkpt>
      <trkpt lat="42.96161" lon="0.85683">
        <ele>1402</ele>
        <time>2018-04-02T11:53:19.000Z</time>
      </trkpt>
      <trkpt lat="42.96161" lon="0.85684">
        <ele>1402</ele>
        <time>2018-04-02T11:53:21.000Z</time>
      </trkpt>
      <trkpt lat="42.96161" lon="0.85684">
        <ele>1402</ele>
        <time>2018-04-02T11:53:23.000Z</time>
      </trkpt>
      <trkpt lat="42.96161" lon="0.85684">
        <ele>1402</ele>
        <time>2018-04-02T11:53:25.000Z</time>
      </trkpt>
      <trkpt lat="42.96161" lon="0.85684">
        <ele>1402</ele>
        <time>2018-04-02T11:53:27.000Z</time>
      </trkpt>
      <trkpt lat="42.96161" lon="0.85684">
        <ele>1402</ele>
        <time>2018-04-02T11:53:29.000Z</time>
      </trkpt>
      <trkpt lat="42.96161" lon="0.85684">
        <ele>1402</ele>
        <time>2018-04-02T11:53:31.000Z</time>
      </trkpt>
      <trkpt lat="42.96161" lon="0.85683">
        <ele>1402</ele>
        <time>2018-04-02T11:53:33.000Z</time>
      </trkpt>
      <trkpt lat="42.96161" lon="0.85683">
        <ele>1402</ele>
        <time>2018-04-02T11:53:35.000Z</time>
      </trkpt>
      <trkpt lat="42.96161" lon="0.85682">
        <ele>1402</ele>
        <time>2018-04-02T11:53:37.000Z</time>
      </trkpt>
      <trkpt lat="42.96161" lon="0.85682">
        <ele>1402</ele>
        <time>2018-04-02T11:53:39.000Z</time>
      </trkpt>
      <trkpt lat="42.96161" lon="0.85682">
        <ele>1402</ele>
        <time>2018-04-02T11:53:41.000Z</time>
      </trkpt>
      <trkpt lat="42.96161" lon="0.85682">
        <ele>1402</ele>
        <time>2018-04-02T11:53:43.000Z</time>
      </trkpt>
      <trkpt lat="42.96161" lon="0.85682">
        <ele>1402</ele>
        <time>2018-04-02T11:53:45.000Z</time>
      </trkpt>
      <trkpt lat="42.96162" lon="0.85682">
        <ele>1402</ele>
        <time>2018-04-02T11:53:47.000Z</time>
      </trkpt>
      <trkpt lat="42.96162" lon="0.85681">
        <ele>1402</ele>
        <time>2018-04-02T11:53:49.000Z</time>
      </trkpt>
      <trkpt lat="42.96162" lon="0.85681">
        <ele>1402</ele>
        <time>2018-04-02T11:53:51.000Z</time>
      </trkpt>
      <trkpt lat="42.96162" lon="0.85681">
        <ele>1402</ele>
        <time>2018-04-02T11:53:53.000Z</time>
      </trkpt>
      <trkpt lat="42.96162" lon="0.85682">
        <ele>1402</ele>
        <time>2018-04-02T11:53:55.000Z</time>
      </trkpt>
      <trkpt lat="42.96161" lon="0.85681">
        <ele>1402</ele>
        <time>2018-04-02T11:53:57.000Z</time>
      </trkpt>
      <trkpt lat="42.96161" lon="0.85682">
        <ele>1402</ele>
        <time>2018-04-02T11:53:59.000Z</time>
      </trkpt>
      <trkpt lat="42.96161" lon="0.85682">
        <ele>1402</ele>
        <time>2018-04-02T11:54:01.000Z</time>
      </trkpt>
      <trkpt lat="42.96161" lon="0.85682">
        <ele>1402</ele>
        <time>2018-04-02T11:54:03.000Z</time>
      </trkpt>
      <trkpt lat="42.96161" lon="0.85682">
        <ele>1402</ele>
        <time>2018-04-02T11:54:05.000Z</time>
      </trkpt>
      <trkpt lat="42.9616" lon="0.85682">
        <ele>1402</ele>
        <time>2018-04-02T11:54:07.000Z</time>
      </trkpt>
      <trkpt lat="42.9616" lon="0.85682">
        <ele>1402</ele>
        <time>2018-04-02T11:54:09.000Z</time>
      </trkpt>
      <trkpt lat="42.9616" lon="0.85682">
        <ele>1402</ele>
        <time>2018-04-02T11:54:11.000Z</time>
      </trkpt>
      <trkpt lat="42.9616" lon="0.85682">
        <ele>1402</ele>
        <time>2018-04-02T11:54:13.000Z</time>
      </trkpt>
      <trkpt lat="42.9616" lon="0.85682">
        <ele>1402</ele>
        <time>2018-04-02T11:54:15.000Z</time>
      </trkpt>
      <trkpt lat="42.9616" lon="0.85682">
        <ele>1402</ele>
        <time>2018-04-02T11:54:17.000Z</time>
      </trkpt>
      <trkpt lat="42.9616" lon="0.85681">
        <ele>1402</ele>
        <time>2018-04-02T11:54:19.000Z</time>
      </trkpt>
      <trkpt lat="42.9616" lon="0.85681">
        <ele>1402</ele>
        <time>2018-04-02T11:54:21.000Z</time>
      </trkpt>
      <trkpt lat="42.9616" lon="0.85681">
        <ele>1402</ele>
        <time>2018-04-02T11:54:23.000Z</time>
      </trkpt>
      <trkpt lat="42.9616" lon="0.85681">
        <ele>1402</ele>
        <time>2018-04-02T11:54:25.000Z</time>
      </trkpt>
      <trkpt lat="42.96161" lon="0.85681">
        <ele>1402</ele>
        <time>2018-04-02T11:54:27.000Z</time>
      </trkpt>
      <trkpt lat="42.96161" lon="0.85681">
        <ele>1402</ele>
        <time>2018-04-02T11:54:29.000Z</time>
      </trkpt>
      <trkpt lat="42.96161" lon="0.85681">
        <ele>1402</ele>
        <time>2018-04-02T11:54:31.000Z</time>
      </trkpt>
      <trkpt lat="42.96161" lon="0.85681">
        <ele>1402</ele>
        <time>2018-04-02T11:54:33.000Z</time>
      </trkpt>
      <trkpt lat="42.96161" lon="0.85681">
        <ele>1402</ele>
        <time>2018-04-02T11:54:35.000Z</time>
      </trkpt>
      <trkpt lat="42.96161" lon="0.85681">
        <ele>1402</ele>
        <time>2018-04-02T11:54:37.000Z</time>
      </trkpt>
      <trkpt lat="42.96162" lon="0.8568">
        <ele>1402</ele>
        <time>2018-04-02T11:54:39.000Z</time>
      </trkpt>
      <trkpt lat="42.96162" lon="0.8568">
        <ele>1402</ele>
        <time>2018-04-02T11:54:41.000Z</time>
      </trkpt>
      <trkpt lat="42.96162" lon="0.8568">
        <ele>1402</ele>
        <time>2018-04-02T11:54:43.000Z</time>
      </trkpt>
      <trkpt lat="42.96162" lon="0.8568">
        <ele>1402</ele>
        <time>2018-04-02T11:54:45.000Z</time>
      </trkpt>
      <trkpt lat="42.96162" lon="0.8568">
        <ele>1402</ele>
        <time>2018-04-02T11:54:47.000Z</time>
      </trkpt>
      <trkpt lat="42.96162" lon="0.8568">
        <ele>1402</ele>
        <time>2018-04-02T11:54:49.000Z</time>
      </trkpt>
      <trkpt lat="42.96161" lon="0.8568">
        <ele>1402</ele>
        <time>2018-04-02T11:54:51.000Z</time>
      </trkpt>
      <trkpt lat="42.96161" lon="0.8568">
        <ele>1402</ele>
        <time>2018-04-02T11:54:53.000Z</time>
      </trkpt>
      <trkpt lat="42.96162" lon="0.8568">
        <ele>1402</ele>
        <time>2018-04-02T11:54:55.000Z</time>
      </trkpt>
      <trkpt lat="42.96162" lon="0.85679">
        <ele>1402</ele>
        <time>2018-04-02T11:54:57.000Z</time>
      </trkpt>
      <trkpt lat="42.96162" lon="0.85679">
        <ele>1402</ele>
        <time>2018-04-02T11:54:59.000Z</time>
      </trkpt>
      <trkpt lat="42.96162" lon="0.85679">
        <ele>1402</ele>
        <time>2018-04-02T11:55:01.000Z</time>
      </trkpt>
      <trkpt lat="42.96162" lon="0.85678">
        <ele>1402</ele>
        <time>2018-04-02T11:55:03.000Z</time>
      </trkpt>
      <trkpt lat="42.96162" lon="0.85678">
        <ele>1402</ele>
        <time>2018-04-02T11:55:05.000Z</time>
      </trkpt>
      <trkpt lat="42.96162" lon="0.85678">
        <ele>1402</ele>
        <time>2018-04-02T11:55:07.000Z</time>
      </trkpt>
      <trkpt lat="42.96162" lon="0.85679">
        <ele>1402</ele>
        <time>2018-04-02T11:55:09.000Z</time>
      </trkpt>
      <trkpt lat="42.96162" lon="0.85679">
        <ele>1402</ele>
        <time>2018-04-02T11:55:11.000Z</time>
      </trkpt>
      <trkpt lat="42.96162" lon="0.85679">
        <ele>1402</ele>
        <time>2018-04-02T11:55:13.000Z</time>
      </trkpt>
      <trkpt lat="42.96163" lon="0.85679">
        <ele>1402</ele>
        <time>2018-04-02T11:55:15.000Z</time>
      </trkpt>
      <trkpt lat="42.96162" lon="0.85678">
        <ele>1402</ele>
        <time>2018-04-02T11:55:17.000Z</time>
      </trkpt>
      <trkpt lat="42.96162" lon="0.85679">
        <ele>1402</ele>
        <time>2018-04-02T11:55:19.000Z</time>
      </trkpt>
      <trkpt lat="42.96162" lon="0.85679">
        <ele>1402</ele>
        <time>2018-04-02T11:55:21.000Z</time>
      </trkpt>
      <trkpt lat="42.96161" lon="0.8568">
        <ele>1402</ele>
        <time>2018-04-02T11:55:23.000Z</time>
      </trkpt>
      <trkpt lat="42.96161" lon="0.8568">
        <ele>1402</ele>
        <time>2018-04-02T11:55:25.000Z</time>
      </trkpt>
      <trkpt lat="42.96161" lon="0.8568">
        <ele>1402</ele>
        <time>2018-04-02T11:55:27.000Z</time>
      </trkpt>
      <trkpt lat="42.96161" lon="0.8568">
        <ele>1402</ele>
        <time>2018-04-02T11:55:29.000Z</time>
      </trkpt>
      <trkpt lat="42.96162" lon="0.8568">
        <ele>1402</ele>
        <time>2018-04-02T11:55:31.000Z</time>
      </trkpt>
      <trkpt lat="42.96162" lon="0.85679">
        <ele>1402</ele>
        <time>2018-04-02T11:55:33.000Z</time>
      </trkpt>
      <trkpt lat="42.96162" lon="0.85679">
        <ele>1402</ele>
        <time>2018-04-02T11:55:35.000Z</time>
      </trkpt>
      <trkpt lat="42.96162" lon="0.85679">
        <ele>1402</ele>
        <time>2018-04-02T11:55:37.000Z</time>
      </trkpt>
      <trkpt lat="42.96162" lon="0.85679">
        <ele>1402</ele>
        <time>2018-04-02T11:55:39.000Z</time>
      </trkpt>
      <trkpt lat="42.96162" lon="0.85679">
        <ele>1402</ele>
        <time>2018-04-02T11:55:41.000Z</time>
      </trkpt>
      <trkpt lat="42.96162" lon="0.85679">
        <ele>1402</ele>
        <time>2018-04-02T11:55:43.000Z</time>
      </trkpt>
      <trkpt lat="42.96162" lon="0.85678">
        <ele>1402</ele>
        <time>2018-04-02T11:55:45.000Z</time>
      </trkpt>
      <trkpt lat="42.96162" lon="0.85679">
        <ele>1402</ele>
        <time>2018-04-02T11:55:47.000Z</time>
      </trkpt>
      <trkpt lat="42.96161" lon="0.85679">
        <ele>1402</ele>
        <time>2018-04-02T11:55:49.000Z</time>
      </trkpt>
      <trkpt lat="42.96161" lon="0.8568">
        <ele>1402</ele>
        <time>2018-04-02T11:55:51.000Z</time>
      </trkpt>
      <trkpt lat="42.9616" lon="0.85681">
        <ele>1402</ele>
        <time>2018-04-02T11:55:53.000Z</time>
      </trkpt>
      <trkpt lat="42.9616" lon="0.85681">
        <ele>1402</ele>
        <time>2018-04-02T11:55:55.000Z</time>
      </trkpt>
      <trkpt lat="42.96159" lon="0.85681">
        <ele>1402</ele>
        <time>2018-04-02T11:55:57.000Z</time>
      </trkpt>
      <trkpt lat="42.96158" lon="0.85682">
        <ele>1402</ele>
        <time>2018-04-02T11:55:59.000Z</time>
      </trkpt>
      <trkpt lat="42.96157" lon="0.85682">
        <ele>1402</ele>
        <time>2018-04-02T11:56:01.000Z</time>
      </trkpt>
      <trkpt lat="42.96157" lon="0.85682">
        <ele>1402</ele>
        <time>2018-04-02T11:56:03.000Z</time>
      </trkpt>
      <trkpt lat="42.96157" lon="0.85682">
        <ele>1402</ele>
        <time>2018-04-02T11:56:05.000Z</time>
      </trkpt>
      <trkpt lat="42.96156" lon="0.85682">
        <ele>1402</ele>
        <time>2018-04-02T11:56:07.000Z</time>
      </trkpt>
      <trkpt lat="42.96156" lon="0.85682">
        <ele>1402</ele>
        <time>2018-04-02T11:56:09.000Z</time>
      </trkpt>
      <trkpt lat="42.96157" lon="0.85681">
        <ele>1402</ele>
        <time>2018-04-02T11:56:11.000Z</time>
      </trkpt>
      <trkpt lat="42.96157" lon="0.85681">
        <ele>1402</ele>
        <time>2018-04-02T11:56:13.000Z</time>
      </trkpt>
      <trkpt lat="42.96157" lon="0.85681">
        <ele>1402</ele>
        <time>2018-04-02T11:56:15.000Z</time>
      </trkpt>
      <trkpt lat="42.96157" lon="0.85681">
        <ele>1402</ele>
        <time>2018-04-02T11:56:17.000Z</time>
      </trkpt>
      <trkpt lat="42.96158" lon="0.85681">
        <ele>1402</ele>
        <time>2018-04-02T11:56:19.000Z</time>
      </trkpt>
      <trkpt lat="42.96158" lon="0.85681">
        <ele>1402</ele>
        <time>2018-04-02T11:56:21.000Z</time>
      </trkpt>
      <trkpt lat="42.96158" lon="0.85681">
        <ele>1402</ele>
        <time>2018-04-02T11:56:23.000Z</time>
      </trkpt>
      <trkpt lat="42.96159" lon="0.85681">
        <ele>1402</ele>
        <time>2018-04-02T11:56:25.000Z</time>
      </trkpt>
      <trkpt lat="42.96159" lon="0.85682">
        <ele>1402</ele>
        <time>2018-04-02T11:56:27.000Z</time>
      </trkpt>
      <trkpt lat="42.9616" lon="0.85682">
        <ele>1402</ele>
        <time>2018-04-02T11:56:29.000Z</time>
      </trkpt>
      <trkpt lat="42.9616" lon="0.85682">
        <ele>1402</ele>
        <time>2018-04-02T11:56:31.000Z</time>
      </trkpt>
      <trkpt lat="42.9616" lon="0.85682">
        <ele>1402</ele>
        <time>2018-04-02T11:56:33.000Z</time>
      </trkpt>
      <trkpt lat="42.9616" lon="0.85683">
        <ele>1402</ele>
        <time>2018-04-02T11:56:35.000Z</time>
      </trkpt>
      <trkpt lat="42.9616" lon="0.85683">
        <ele>1402</ele>
        <time>2018-04-02T11:56:37.000Z</time>
      </trkpt>
      <trkpt lat="42.9616" lon="0.85683">
        <ele>1402</ele>
        <time>2018-04-02T11:56:39.000Z</time>
      </trkpt>
      <trkpt lat="42.9616" lon="0.85684">
        <ele>1401</ele>
        <time>2018-04-02T11:56:41.000Z</time>
      </trkpt>
      <trkpt lat="42.9616" lon="0.85684">
        <ele>1401</ele>
        <time>2018-04-02T11:56:43.000Z</time>
      </trkpt>
      <trkpt lat="42.9616" lon="0.85684">
        <ele>1402</ele>
        <time>2018-04-02T11:56:45.000Z</time>
      </trkpt>
      <trkpt lat="42.9616" lon="0.85683">
        <ele>1402</ele>
        <time>2018-04-02T11:56:47.000Z</time>
      </trkpt>
      <trkpt lat="42.96159" lon="0.85683">
        <ele>1402</ele>
        <time>2018-04-02T11:56:49.000Z</time>
      </trkpt>
      <trkpt lat="42.96159" lon="0.85683">
        <ele>1402</ele>
        <time>2018-04-02T11:56:51.000Z</time>
      </trkpt>
      <trkpt lat="42.96159" lon="0.85683">
        <ele>1402</ele>
        <time>2018-04-02T11:56:53.000Z</time>
      </trkpt>
      <trkpt lat="42.96159" lon="0.85683">
        <ele>1402</ele>
        <time>2018-04-02T11:56:55.000Z</time>
      </trkpt>
      <trkpt lat="42.96159" lon="0.85683">
        <ele>1402</ele>
        <time>2018-04-02T11:56:57.000Z</time>
      </trkpt>
      <trkpt lat="42.96159" lon="0.85683">
        <ele>1401</ele>
        <time>2018-04-02T11:56:59.000Z</time>
      </trkpt>
      <trkpt lat="42.96159" lon="0.85684">
        <ele>1401</ele>
        <time>2018-04-02T11:57:01.000Z</time>
      </trkpt>
      <trkpt lat="42.96158" lon="0.85684">
        <ele>1401</ele>
        <time>2018-04-02T11:57:03.000Z</time>
      </trkpt>
      <trkpt lat="42.96158" lon="0.85684">
        <ele>1401</ele>
        <time>2018-04-02T11:57:05.000Z</time>
      </trkpt>
      <trkpt lat="42.96158" lon="0.85684">
        <ele>1401</ele>
        <time>2018-04-02T11:57:07.000Z</time>
      </trkpt>
      <trkpt lat="42.96158" lon="0.85684">
        <ele>1401</ele>
        <time>2018-04-02T11:57:09.000Z</time>
      </trkpt>
      <trkpt lat="42.96157" lon="0.85684">
        <ele>1401</ele>
        <time>2018-04-02T11:57:11.000Z</time>
      </trkpt>
      <trkpt lat="42.96157" lon="0.85684">
        <ele>1401</ele>
        <time>2018-04-02T11:57:13.000Z</time>
      </trkpt>
      <trkpt lat="42.96157" lon="0.85684">
        <ele>1401</ele>
        <time>2018-04-02T11:57:15.000Z</time>
      </trkpt>
      <trkpt lat="42.96157" lon="0.85684">
        <ele>1401</ele>
        <time>2018-04-02T11:57:17.000Z</time>
      </trkpt>
      <trkpt lat="42.96157" lon="0.85684">
        <ele>1401</ele>
        <time>2018-04-02T11:57:19.000Z</time>
      </trkpt>
      <trkpt lat="42.96157" lon="0.85684">
        <ele>1401</ele>
        <time>2018-04-02T11:57:21.000Z</time>
      </trkpt>
      <trkpt lat="42.96158" lon="0.85684">
        <ele>1401</ele>
        <time>2018-04-02T11:57:23.000Z</time>
      </trkpt>
      <trkpt lat="42.96158" lon="0.85684">
        <ele>1401</ele>
        <time>2018-04-02T11:57:25.000Z</time>
      </trkpt>
      <trkpt lat="42.96158" lon="0.85684">
        <ele>1401</ele>
        <time>2018-04-02T11:57:27.000Z</time>
      </trkpt>
      <trkpt lat="42.96157" lon="0.85684">
        <ele>1401</ele>
        <time>2018-04-02T11:57:29.000Z</time>
      </trkpt>
      <trkpt lat="42.96157" lon="0.85684">
        <ele>1401</ele>
        <time>2018-04-02T11:57:31.000Z</time>
      </trkpt>
      <trkpt lat="42.96157" lon="0.85684">
        <ele>1401</ele>
        <time>2018-04-02T11:57:33.000Z</time>
      </trkpt>
      <trkpt lat="42.96157" lon="0.85684">
        <ele>1401</ele>
        <time>2018-04-02T11:57:35.000Z</time>
      </trkpt>
      <trkpt lat="42.96157" lon="0.85684">
        <ele>1401</ele>
        <time>2018-04-02T11:57:37.000Z</time>
      </trkpt>
      <trkpt lat="42.96157" lon="0.85684">
        <ele>1401</ele>
        <time>2018-04-02T11:57:39.000Z</time>
      </trkpt>
      <trkpt lat="42.96157" lon="0.85684">
        <ele>1401</ele>
        <time>2018-04-02T11:57:41.000Z</time>
      </trkpt>
      <trkpt lat="42.96157" lon="0.85684">
        <ele>1401</ele>
        <time>2018-04-02T11:57:43.000Z</time>
      </trkpt>
      <trkpt lat="42.96157" lon="0.85684">
        <ele>1401</ele>
        <time>2018-04-02T11:57:45.000Z</time>
      </trkpt>
      <trkpt lat="42.96157" lon="0.85684">
        <ele>1401</ele>
        <time>2018-04-02T11:57:47.000Z</time>
      </trkpt>
      <trkpt lat="42.96157" lon="0.85684">
        <ele>1401</ele>
        <time>2018-04-02T11:57:49.000Z</time>
      </trkpt>
      <trkpt lat="42.96157" lon="0.85684">
        <ele>1401</ele>
        <time>2018-04-02T11:57:51.000Z</time>
      </trkpt>
      <trkpt lat="42.96157" lon="0.85683">
        <ele>1401</ele>
        <time>2018-04-02T11:57:53.000Z</time>
      </trkpt>
      <trkpt lat="42.96157" lon="0.85683">
        <ele>1401</ele>
        <time>2018-04-02T11:57:55.000Z</time>
      </trkpt>
      <trkpt lat="42.96157" lon="0.85683">
        <ele>1401</ele>
        <time>2018-04-02T11:57:57.000Z</time>
      </trkpt>
      <trkpt lat="42.96158" lon="0.85683">
        <ele>1401</ele>
        <time>2018-04-02T11:57:59.000Z</time>
      </trkpt>
      <trkpt lat="42.96158" lon="0.85683">
        <ele>1401</ele>
        <time>2018-04-02T11:58:01.000Z</time>
      </trkpt>
      <trkpt lat="42.96158" lon="0.85683">
        <ele>1402</ele>
        <time>2018-04-02T11:58:03.000Z</time>
      </trkpt>
      <trkpt lat="42.96158" lon="0.85683">
        <ele>1402</ele>
        <time>2018-04-02T11:58:05.000Z</time>
      </trkpt>
      <trkpt lat="42.96158" lon="0.85683">
        <ele>1402</ele>
        <time>2018-04-02T11:58:07.000Z</time>
      </trkpt>
      <trkpt lat="42.96159" lon="0.85682">
        <ele>1402</ele>
        <time>2018-04-02T11:58:09.000Z</time>
      </trkpt>
      <trkpt lat="42.96159" lon="0.85682">
        <ele>1402</ele>
        <time>2018-04-02T11:58:11.000Z</time>
      </trkpt>
      <trkpt lat="42.96159" lon="0.85681">
        <ele>1402</ele>
        <time>2018-04-02T11:58:13.000Z</time>
      </trkpt>
      <trkpt lat="42.96159" lon="0.85681">
        <ele>1402</ele>
        <time>2018-04-02T11:58:15.000Z</time>
      </trkpt>
      <trkpt lat="42.9616" lon="0.8568">
        <ele>1402</ele>
        <time>2018-04-02T11:58:17.000Z</time>
      </trkpt>
      <trkpt lat="42.9616" lon="0.8568">
        <ele>1402</ele>
        <time>2018-04-02T11:58:19.000Z</time>
      </trkpt>
      <trkpt lat="42.96161" lon="0.85679">
        <ele>1402</ele>
        <time>2018-04-02T11:58:21.000Z</time>
      </trkpt>
      <trkpt lat="42.96161" lon="0.85678">
        <ele>1402</ele>
        <time>2018-04-02T11:58:23.000Z</time>
      </trkpt>
      <trkpt lat="42.96162" lon="0.85677">
        <ele>1402</ele>
        <time>2018-04-02T11:58:25.000Z</time>
      </trkpt>
      <trkpt lat="42.96163" lon="0.85676">
        <ele>1402</ele>
        <time>2018-04-02T11:58:27.000Z</time>
      </trkpt>
      <trkpt lat="42.96163" lon="0.85676">
        <ele>1402</ele>
        <time>2018-04-02T11:58:29.000Z</time>
      </trkpt>
      <trkpt lat="42.96164" lon="0.85676">
        <ele>1403</ele>
        <time>2018-04-02T11:58:31.000Z</time>
      </trkpt>
      <trkpt lat="42.96164" lon="0.85676">
        <ele>1403</ele>
        <time>2018-04-02T11:58:33.000Z</time>
      </trkpt>
      <trkpt lat="42.96164" lon="0.85675">
        <ele>1403</ele>
        <time>2018-04-02T11:58:35.000Z</time>
      </trkpt>
      <trkpt lat="42.96164" lon="0.85675">
        <ele>1403</ele>
        <time>2018-04-02T11:58:37.000Z</time>
      </trkpt>
      <trkpt lat="42.96164" lon="0.85675">
        <ele>1403</ele>
        <time>2018-04-02T11:58:39.000Z</time>
      </trkpt>
      <trkpt lat="42.96165" lon="0.85675">
        <ele>1403</ele>
        <time>2018-04-02T11:58:41.000Z</time>
      </trkpt>
      <trkpt lat="42.96165" lon="0.85675">
        <ele>1403</ele>
        <time>2018-04-02T11:58:43.000Z</time>
      </trkpt>
      <trkpt lat="42.96165" lon="0.85675">
        <ele>1403</ele>
        <time>2018-04-02T11:58:45.000Z</time>
      </trkpt>
      <trkpt lat="42.96165" lon="0.85675">
        <ele>1403</ele>
        <time>2018-04-02T11:58:47.000Z</time>
      </trkpt>
      <trkpt lat="42.96165" lon="0.85674">
        <ele>1403</ele>
        <time>2018-04-02T11:58:49.000Z</time>
      </trkpt>
      <trkpt lat="42.96165" lon="0.85674">
        <ele>1403</ele>
        <time>2018-04-02T11:58:51.000Z</time>
      </trkpt>
      <trkpt lat="42.96165" lon="0.85675">
        <ele>1403</ele>
        <time>2018-04-02T11:58:53.000Z</time>
      </trkpt>
      <trkpt lat="42.96165" lon="0.85675">
        <ele>1403</ele>
        <time>2018-04-02T11:58:55.000Z</time>
      </trkpt>
      <trkpt lat="42.96166" lon="0.85674">
        <ele>1403</ele>
        <time>2018-04-02T11:58:57.000Z</time>
      </trkpt>
      <trkpt lat="42.96166" lon="0.85674">
        <ele>1403</ele>
        <time>2018-04-02T11:58:59.000Z</time>
      </trkpt>
      <trkpt lat="42.96166" lon="0.85674">
        <ele>1403</ele>
        <time>2018-04-02T11:59:01.000Z</time>
      </trkpt>
      <trkpt lat="42.96167" lon="0.85674">
        <ele>1403</ele>
        <time>2018-04-02T11:59:03.000Z</time>
      </trkpt>
      <trkpt lat="42.96167" lon="0.85674">
        <ele>1403</ele>
        <time>2018-04-02T11:59:05.000Z</time>
      </trkpt>
      <trkpt lat="42.96166" lon="0.85674">
        <ele>1403</ele>
        <time>2018-04-02T11:59:07.000Z</time>
      </trkpt>
      <trkpt lat="42.96166" lon="0.85674">
        <ele>1403</ele>
        <time>2018-04-02T11:59:09.000Z</time>
      </trkpt>
      <trkpt lat="42.96167" lon="0.85675">
        <ele>1403</ele>
        <time>2018-04-02T11:59:11.000Z</time>
      </trkpt>
      <trkpt lat="42.96167" lon="0.85675">
        <ele>1403</ele>
        <time>2018-04-02T11:59:13.000Z</time>
      </trkpt>
      <trkpt lat="42.96166" lon="0.85675">
        <ele>1403</ele>
        <time>2018-04-02T11:59:15.000Z</time>
      </trkpt>
      <trkpt lat="42.96167" lon="0.85675">
        <ele>1403</ele>
        <time>2018-04-02T11:59:17.000Z</time>
      </trkpt>
      <trkpt lat="42.96167" lon="0.85675">
        <ele>1403</ele>
        <time>2018-04-02T11:59:19.000Z</time>
      </trkpt>
      <trkpt lat="42.96167" lon="0.85675">
        <ele>1403</ele>
        <time>2018-04-02T11:59:21.000Z</time>
      </trkpt>
      <trkpt lat="42.96167" lon="0.85676">
        <ele>1403</ele>
        <time>2018-04-02T11:59:23.000Z</time>
      </trkpt>
      <trkpt lat="42.96167" lon="0.85677">
        <ele>1403</ele>
        <time>2018-04-02T11:59:25.000Z</time>
      </trkpt>
      <trkpt lat="42.96168" lon="0.85677">
        <ele>1403</ele>
        <time>2018-04-02T11:59:27.000Z</time>
      </trkpt>
      <trkpt lat="42.96169" lon="0.85677">
        <ele>1403</ele>
        <time>2018-04-02T11:59:29.000Z</time>
      </trkpt>
      <trkpt lat="42.96168" lon="0.85678">
        <ele>1403</ele>
        <time>2018-04-02T11:59:31.000Z</time>
      </trkpt>
      <trkpt lat="42.96169" lon="0.85679">
        <ele>1402</ele>
        <time>2018-04-02T11:59:33.000Z</time>
      </trkpt>
      <trkpt lat="42.96169" lon="0.85679">
        <ele>1403</ele>
        <time>2018-04-02T11:59:35.000Z</time>
      </trkpt>
      <trkpt lat="42.96167" lon="0.85678">
        <ele>1403</ele>
        <time>2018-04-02T11:59:37.000Z</time>
      </trkpt>
      <trkpt lat="42.96164" lon="0.85677">
        <ele>1402</ele>
        <time>2018-04-02T11:59:39.000Z</time>
      </trkpt>
      <trkpt lat="42.96164" lon="0.85677">
        <ele>1402</ele>
        <time>2018-04-02T11:59:41.000Z</time>
      </trkpt>
      <trkpt lat="42.96164" lon="0.85678">
        <ele>1402</ele>
        <time>2018-04-02T11:59:43.000Z</time>
      </trkpt>
      <trkpt lat="42.96164" lon="0.85679">
        <ele>1402</ele>
        <time>2018-04-02T11:59:45.000Z</time>
      </trkpt>
      <trkpt lat="42.96162" lon="0.8568">
        <ele>1402</ele>
        <time>2018-04-02T11:59:47.000Z</time>
      </trkpt>
      <trkpt lat="42.96162" lon="0.8568">
        <ele>1402</ele>
        <time>2018-04-02T11:59:49.000Z</time>
      </trkpt>
      <trkpt lat="42.96161" lon="0.85681">
        <ele>1402</ele>
        <time>2018-04-02T11:59:51.000Z</time>
      </trkpt>
      <trkpt lat="42.9616" lon="0.85681">
        <ele>1402</ele>
        <time>2018-04-02T11:59:53.000Z</time>
      </trkpt>
      <trkpt lat="42.9616" lon="0.85682">
        <ele>1402</ele>
        <time>2018-04-02T11:59:55.000Z</time>
      </trkpt>
      <trkpt lat="42.9616" lon="0.85682">
        <ele>1402</ele>
        <time>2018-04-02T11:59:57.000Z</time>
      </trkpt>
      <trkpt lat="42.96159" lon="0.85683">
        <ele>1402</ele>
        <time>2018-04-02T11:59:59.000Z</time>
      </trkpt>
      <trkpt lat="42.96159" lon="0.85684">
        <ele>1401</ele>
        <time>2018-04-02T12:00:01.000Z</time>
      </trkpt>
      <trkpt lat="42.96159" lon="0.85684">
        <ele>1401</ele>
        <time>2018-04-02T12:00:03.000Z</time>
      </trkpt>
      <trkpt lat="42.96159" lon="0.85684">
        <ele>1401</ele>
        <time>2018-04-02T12:00:05.000Z</time>
      </trkpt>
      <trkpt lat="42.96159" lon="0.85683">
        <ele>1402</ele>
        <time>2018-04-02T12:00:07.000Z</time>
      </trkpt>
      <trkpt lat="42.96159" lon="0.85682">
        <ele>1402</ele>
        <time>2018-04-02T12:00:09.000Z</time>
      </trkpt>
      <trkpt lat="42.96159" lon="0.85681">
        <ele>1402</ele>
        <time>2018-04-02T12:00:11.000Z</time>
      </trkpt>
      <trkpt lat="42.96159" lon="0.85681">
        <ele>1402</ele>
        <time>2018-04-02T12:00:13.000Z</time>
      </trkpt>
      <trkpt lat="42.96159" lon="0.85682">
        <ele>1402</ele>
        <time>2018-04-02T12:00:15.000Z</time>
      </trkpt>
      <trkpt lat="42.9616" lon="0.85682">
        <ele>1402</ele>
        <time>2018-04-02T12:00:17.000Z</time>
      </trkpt>
      <trkpt lat="42.9616" lon="0.85682">
        <ele>1402</ele>
        <time>2018-04-02T12:00:19.000Z</time>
      </trkpt>
      <trkpt lat="42.9616" lon="0.85683">
        <ele>1402</ele>
        <time>2018-04-02T12:00:21.000Z</time>
      </trkpt>
      <trkpt lat="42.96159" lon="0.85683">
        <ele>1402</ele>
        <time>2018-04-02T12:00:23.000Z</time>
      </trkpt>
      <trkpt lat="42.96159" lon="0.85683">
        <ele>1402</ele>
        <time>2018-04-02T12:00:25.000Z</time>
      </trkpt>
      <trkpt lat="42.96159" lon="0.85683">
        <ele>1402</ele>
        <time>2018-04-02T12:00:27.000Z</time>
      </trkpt>
      <trkpt lat="42.9616" lon="0.85683">
        <ele>1402</ele>
        <time>2018-04-02T12:00:29.000Z</time>
      </trkpt>
      <trkpt lat="42.9616" lon="0.85683">
        <ele>1402</ele>
        <time>2018-04-02T12:00:31.000Z</time>
      </trkpt>
      <trkpt lat="42.9616" lon="0.85683">
        <ele>1402</ele>
        <time>2018-04-02T12:00:33.000Z</time>
      </trkpt>
      <trkpt lat="42.9616" lon="0.85683">
        <ele>1402</ele>
        <time>2018-04-02T12:00:35.000Z</time>
      </trkpt>
      <trkpt lat="42.9616" lon="0.85682">
        <ele>1402</ele>
        <time>2018-04-02T12:00:37.000Z</time>
      </trkpt>
      <trkpt lat="42.9616" lon="0.85682">
        <ele>1402</ele>
        <time>2018-04-02T12:00:39.000Z</time>
      </trkpt>
      <trkpt lat="42.96159" lon="0.85681">
        <ele>1402</ele>
        <time>2018-04-02T12:00:41.000Z</time>
      </trkpt>
      <trkpt lat="42.96159" lon="0.85681">
        <ele>1402</ele>
        <time>2018-04-02T12:00:43.000Z</time>
      </trkpt>
      <trkpt lat="42.96159" lon="0.85682">
        <ele>1402</ele>
        <time>2018-04-02T12:00:45.000Z</time>
      </trkpt>
      <trkpt lat="42.96159" lon="0.85682">
        <ele>1402</ele>
        <time>2018-04-02T12:00:47.000Z</time>
      </trkpt>
      <trkpt lat="42.9616" lon="0.85682">
        <ele>1402</ele>
        <time>2018-04-02T12:00:49.000Z</time>
      </trkpt>
      <trkpt lat="42.9616" lon="0.85681">
        <ele>1402</ele>
        <time>2018-04-02T12:00:51.000Z</time>
      </trkpt>
      <trkpt lat="42.9616" lon="0.85682">
        <ele>1402</ele>
        <time>2018-04-02T12:00:53.000Z</time>
      </trkpt>
      <trkpt lat="42.9616" lon="0.85682">
        <ele>1402</ele>
        <time>2018-04-02T12:00:55.000Z</time>
      </trkpt>
      <trkpt lat="42.9616" lon="0.85683">
        <ele>1402</ele>
        <time>2018-04-02T12:00:57.000Z</time>
      </trkpt>
      <trkpt lat="42.9616" lon="0.85683">
        <ele>1402</ele>
        <time>2018-04-02T12:00:59.000Z</time>
      </trkpt>
      <trkpt lat="42.9616" lon="0.85684">
        <ele>1401</ele>
        <time>2018-04-02T12:01:01.000Z</time>
      </trkpt>
      <trkpt lat="42.9616" lon="0.85684">
        <ele>1401</ele>
        <time>2018-04-02T12:01:03.000Z</time>
      </trkpt>
      <trkpt lat="42.9616" lon="0.85684">
        <ele>1401</ele>
        <time>2018-04-02T12:01:05.000Z</time>
      </trkpt>
      <trkpt lat="42.9616" lon="0.85685">
        <ele>1401</ele>
        <time>2018-04-02T12:01:07.000Z</time>
      </trkpt>
      <trkpt lat="42.9616" lon="0.85685">
        <ele>1401</ele>
        <time>2018-04-02T12:01:09.000Z</time>
      </trkpt>
      <trkpt lat="42.96159" lon="0.85686">
        <ele>1401</ele>
        <time>2018-04-02T12:01:11.000Z</time>
      </trkpt>
      <trkpt lat="42.96159" lon="0.85687">
        <ele>1401</ele>
        <time>2018-04-02T12:01:13.000Z</time>
      </trkpt>
      <trkpt lat="42.96159" lon="0.85688">
        <ele>1401</ele>
        <time>2018-04-02T12:01:15.000Z</time>
      </trkpt>
      <trkpt lat="42.96159" lon="0.85689">
        <ele>1401</ele>
        <time>2018-04-02T12:01:17.000Z</time>
      </trkpt>
      <trkpt lat="42.96159" lon="0.85688">
        <ele>1401</ele>
        <time>2018-04-02T12:01:19.000Z</time>
      </trkpt>
      <trkpt lat="42.96159" lon="0.85688">
        <ele>1401</ele>
        <time>2018-04-02T12:01:21.000Z</time>
      </trkpt>
      <trkpt lat="42.96159" lon="0.85687">
        <ele>1401</ele>
        <time>2018-04-02T12:01:23.000Z</time>
      </trkpt>
      <trkpt lat="42.9616" lon="0.85687">
        <ele>1401</ele>
        <time>2018-04-02T12:01:25.000Z</time>
      </trkpt>
      <trkpt lat="42.9616" lon="0.85686">
        <ele>1401</ele>
        <time>2018-04-02T12:01:27.000Z</time>
      </trkpt>
      <trkpt lat="42.96161" lon="0.85686">
        <ele>1401</ele>
        <time>2018-04-02T12:01:29.000Z</time>
      </trkpt>
      <trkpt lat="42.96161" lon="0.85686">
        <ele>1401</ele>
        <time>2018-04-02T12:01:31.000Z</time>
      </trkpt>
      <trkpt lat="42.96161" lon="0.85686">
        <ele>1401</ele>
        <time>2018-04-02T12:01:33.000Z</time>
      </trkpt>
      <trkpt lat="42.96161" lon="0.85687">
        <ele>1401</ele>
        <time>2018-04-02T12:01:35.000Z</time>
      </trkpt>
      <trkpt lat="42.96161" lon="0.85687">
        <ele>1401</ele>
        <time>2018-04-02T12:01:37.000Z</time>
      </trkpt>
      <trkpt lat="42.96161" lon="0.85686">
        <ele>1401</ele>
        <time>2018-04-02T12:01:39.000Z</time>
      </trkpt>
      <trkpt lat="42.9616" lon="0.85686">
        <ele>1401</ele>
        <time>2018-04-02T12:01:41.000Z</time>
      </trkpt>
      <trkpt lat="42.9616" lon="0.85686">
        <ele>1401</ele>
        <time>2018-04-02T12:01:43.000Z</time>
      </trkpt>
      <trkpt lat="42.9616" lon="0.85686">
        <ele>1401</ele>
        <time>2018-04-02T12:01:45.000Z</time>
      </trkpt>
      <trkpt lat="42.9616" lon="0.85685">
        <ele>1401</ele>
        <time>2018-04-02T12:01:47.000Z</time>
      </trkpt>
      <trkpt lat="42.96159" lon="0.85685">
        <ele>1401</ele>
        <time>2018-04-02T12:01:49.000Z</time>
      </trkpt>
      <trkpt lat="42.96159" lon="0.85685">
        <ele>1401</ele>
        <time>2018-04-02T12:01:51.000Z</time>
      </trkpt>
      <trkpt lat="42.9616" lon="0.85684">
        <ele>1401</ele>
        <time>2018-04-02T12:01:53.000Z</time>
      </trkpt>
      <trkpt lat="42.9616" lon="0.85684">
        <ele>1401</ele>
        <time>2018-04-02T12:01:55.000Z</time>
      </trkpt>
      <trkpt lat="42.9616" lon="0.85683">
        <ele>1402</ele>
        <time>2018-04-02T12:01:57.000Z</time>
      </trkpt>
      <trkpt lat="42.9616" lon="0.85683">
        <ele>1402</ele>
        <time>2018-04-02T12:01:59.000Z</time>
      </trkpt>
      <trkpt lat="42.9616" lon="0.85683">
        <ele>1402</ele>
        <time>2018-04-02T12:02:01.000Z</time>
      </trkpt>
      <trkpt lat="42.96159" lon="0.85684">
        <ele>1402</ele>
        <time>2018-04-02T12:02:03.000Z</time>
      </trkpt>
      <trkpt lat="42.96159" lon="0.85683">
        <ele>1402</ele>
        <time>2018-04-02T12:02:05.000Z</time>
      </trkpt>
      <trkpt lat="42.96159" lon="0.85683">
        <ele>1402</ele>
        <time>2018-04-02T12:02:07.000Z</time>
      </trkpt>
      <trkpt lat="42.9616" lon="0.85683">
        <ele>1402</ele>
        <time>2018-04-02T12:02:09.000Z</time>
      </trkpt>
      <trkpt lat="42.9616" lon="0.85683">
        <ele>1402</ele>
        <time>2018-04-02T12:02:11.000Z</time>
      </trkpt>
      <trkpt lat="42.9616" lon="0.85683">
        <ele>1402</ele>
        <time>2018-04-02T12:02:13.000Z</time>
      </trkpt>
      <trkpt lat="42.96159" lon="0.85683">
        <ele>1402</ele>
        <time>2018-04-02T12:02:15.000Z</time>
      </trkpt>
      <trkpt lat="42.96159" lon="0.85683">
        <ele>1402</ele>
        <time>2018-04-02T12:02:17.000Z</time>
      </trkpt>
      <trkpt lat="42.96159" lon="0.85684">
        <ele>1402</ele>
        <time>2018-04-02T12:02:19.000Z</time>
      </trkpt>
      <trkpt lat="42.96159" lon="0.85683">
        <ele>1402</ele>
        <time>2018-04-02T12:02:21.000Z</time>
      </trkpt>
      <trkpt lat="42.96159" lon="0.85682">
        <ele>1402</ele>
        <time>2018-04-02T12:02:23.000Z</time>
      </trkpt>
      <trkpt lat="42.96159" lon="0.85682">
        <ele>1402</ele>
        <time>2018-04-02T12:02:25.000Z</time>
      </trkpt>
      <trkpt lat="42.96159" lon="0.85681">
        <ele>1402</ele>
        <time>2018-04-02T12:02:27.000Z</time>
      </trkpt>
      <trkpt lat="42.96158" lon="0.85681">
        <ele>1402</ele>
        <time>2018-04-02T12:02:29.000Z</time>
      </trkpt>
      <trkpt lat="42.96158" lon="0.85681">
        <ele>1402</ele>
        <time>2018-04-02T12:02:31.000Z</time>
      </trkpt>
      <trkpt lat="42.96158" lon="0.85681">
        <ele>1402</ele>
        <time>2018-04-02T12:02:33.000Z</time>
      </trkpt>
      <trkpt lat="42.96158" lon="0.85681">
        <ele>1402</ele>
        <time>2018-04-02T12:02:35.000Z</time>
      </trkpt>
      <trkpt lat="42.96159" lon="0.85681">
        <ele>1402</ele>
        <time>2018-04-02T12:02:37.000Z</time>
      </trkpt>
      <trkpt lat="42.96159" lon="0.85681">
        <ele>1402</ele>
        <time>2018-04-02T12:02:39.000Z</time>
      </trkpt>
      <trkpt lat="42.96159" lon="0.85681">
        <ele>1402</ele>
        <time>2018-04-02T12:02:41.000Z</time>
      </trkpt>
      <trkpt lat="42.96159" lon="0.85681">
        <ele>1402</ele>
        <time>2018-04-02T12:02:43.000Z</time>
      </trkpt>
      <trkpt lat="42.9616" lon="0.85681">
        <ele>1402</ele>
        <time>2018-04-02T12:02:45.000Z</time>
      </trkpt>
      <trkpt lat="42.9616" lon="0.85681">
        <ele>1402</ele>
        <time>2018-04-02T12:02:47.000Z</time>
      </trkpt>
      <trkpt lat="42.9616" lon="0.85681">
        <ele>1402</ele>
        <time>2018-04-02T12:02:49.000Z</time>
      </trkpt>
      <trkpt lat="42.9616" lon="0.85681">
        <ele>1402</ele>
        <time>2018-04-02T12:02:51.000Z</time>
      </trkpt>
      <trkpt lat="42.96161" lon="0.85681">
        <ele>1402</ele>
        <time>2018-04-02T12:02:53.000Z</time>
      </trkpt>
      <trkpt lat="42.96161" lon="0.8568">
        <ele>1402</ele>
        <time>2018-04-02T12:02:55.000Z</time>
      </trkpt>
      <trkpt lat="42.96161" lon="0.85681">
        <ele>1402</ele>
        <time>2018-04-02T12:02:57.000Z</time>
      </trkpt>
      <trkpt lat="42.96162" lon="0.85681">
        <ele>1402</ele>
        <time>2018-04-02T12:02:59.000Z</time>
      </trkpt>
      <trkpt lat="42.96162" lon="0.85681">
        <ele>1402</ele>
        <time>2018-04-02T12:03:01.000Z</time>
      </trkpt>
      <trkpt lat="42.96161" lon="0.85682">
        <ele>1402</ele>
        <time>2018-04-02T12:03:03.000Z</time>
      </trkpt>
      <trkpt lat="42.96161" lon="0.85682">
        <ele>1402</ele>
        <time>2018-04-02T12:03:05.000Z</time>
      </trkpt>
      <trkpt lat="42.96161" lon="0.85683">
        <ele>1402</ele>
        <time>2018-04-02T12:03:07.000Z</time>
      </trkpt>
      <trkpt lat="42.9616" lon="0.85684">
        <ele>1401</ele>
        <time>2018-04-02T12:03:09.000Z</time>
      </trkpt>
      <trkpt lat="42.9616" lon="0.85684">
        <ele>1401</ele>
        <time>2018-04-02T12:03:11.000Z</time>
      </trkpt>
      <trkpt lat="42.9616" lon="0.85685">
        <ele>1401</ele>
        <time>2018-04-02T12:03:13.000Z</time>
      </trkpt>
      <trkpt lat="42.96159" lon="0.85685">
        <ele>1401</ele>
        <time>2018-04-02T12:03:15.000Z</time>
      </trkpt>
      <trkpt lat="42.96159" lon="0.85685">
        <ele>1401</ele>
        <time>2018-04-02T12:03:17.000Z</time>
      </trkpt>
      <trkpt lat="42.96159" lon="0.85685">
        <ele>1401</ele>
        <time>2018-04-02T12:03:19.000Z</time>
      </trkpt>
      <trkpt lat="42.96159" lon="0.85686">
        <ele>1401</ele>
        <time>2018-04-02T12:03:21.000Z</time>
      </trkpt>
      <trkpt lat="42.96159" lon="0.85686">
        <ele>1401</ele>
        <time>2018-04-02T12:03:23.000Z</time>
      </trkpt>
      <trkpt lat="42.96159" lon="0.85687">
        <ele>1401</ele>
        <time>2018-04-02T12:03:25.000Z</time>
      </trkpt>
      <trkpt lat="42.96159" lon="0.85686">
        <ele>1401</ele>
        <time>2018-04-02T12:03:27.000Z</time>
      </trkpt>
      <trkpt lat="42.96159" lon="0.85686">
        <ele>1401</ele>
        <time>2018-04-02T12:03:29.000Z</time>
      </trkpt>
      <trkpt lat="42.96158" lon="0.85686">
        <ele>1401</ele>
        <time>2018-04-02T12:03:31.000Z</time>
      </trkpt>
      <trkpt lat="42.96158" lon="0.85686">
        <ele>1401</ele>
        <time>2018-04-02T12:03:33.000Z</time>
      </trkpt>
      <trkpt lat="42.96161" lon="0.85683">
        <ele>1402</ele>
        <time>2018-04-02T12:03:35.000Z</time>
      </trkpt>
      <trkpt lat="42.96163" lon="0.85682">
        <ele>1402</ele>
        <time>2018-04-02T12:03:37.000Z</time>
      </trkpt>
      <trkpt lat="42.96163" lon="0.85682">
        <ele>1402</ele>
        <time>2018-04-02T12:03:39.000Z</time>
      </trkpt>
      <trkpt lat="42.96163" lon="0.8568">
        <ele>1402</ele>
        <time>2018-04-02T12:03:41.000Z</time>
      </trkpt>
      <trkpt lat="42.96163" lon="0.8568">
        <ele>1402</ele>
        <time>2018-04-02T12:03:43.000Z</time>
      </trkpt>
      <trkpt lat="42.96163" lon="0.8568">
        <ele>1402</ele>
        <time>2018-04-02T12:03:45.000Z</time>
      </trkpt>
      <trkpt lat="42.96163" lon="0.85679">
        <ele>1402</ele>
        <time>2018-04-02T12:03:47.000Z</time>
      </trkpt>
      <trkpt lat="42.96163" lon="0.8568">
        <ele>1402</ele>
        <time>2018-04-02T12:03:49.000Z</time>
      </trkpt>
      <trkpt lat="42.96164" lon="0.8568">
        <ele>1402</ele>
        <time>2018-04-02T12:03:51.000Z</time>
      </trkpt>
      <trkpt lat="42.96164" lon="0.85681">
        <ele>1402</ele>
        <time>2018-04-02T12:03:53.000Z</time>
      </trkpt>
      <trkpt lat="42.96165" lon="0.85682">
        <ele>1402</ele>
        <time>2018-04-02T12:03:55.000Z</time>
      </trkpt>
      <trkpt lat="42.96165" lon="0.85683">
        <ele>1402</ele>
        <time>2018-04-02T12:03:57.000Z</time>
      </trkpt>
      <trkpt lat="42.96165" lon="0.85683">
        <ele>1402</ele>
        <time>2018-04-02T12:03:59.000Z</time>
      </trkpt>
      <trkpt lat="42.96165" lon="0.85684">
        <ele>1402</ele>
        <time>2018-04-02T12:04:01.000Z</time>
      </trkpt>
      <trkpt lat="42.96165" lon="0.85685">
        <ele>1402</ele>
        <time>2018-04-02T12:04:03.000Z</time>
      </trkpt>
      <trkpt lat="42.96165" lon="0.85685">
        <ele>1402</ele>
        <time>2018-04-02T12:04:05.000Z</time>
      </trkpt>
      <trkpt lat="42.96165" lon="0.85686">
        <ele>1402</ele>
        <time>2018-04-02T12:04:07.000Z</time>
      </trkpt>
      <trkpt lat="42.96165" lon="0.85686">
        <ele>1402</ele>
        <time>2018-04-02T12:04:09.000Z</time>
      </trkpt>
      <trkpt lat="42.96164" lon="0.85686">
        <ele>1402</ele>
        <time>2018-04-02T12:04:11.000Z</time>
      </trkpt>
      <trkpt lat="42.96164" lon="0.85685">
        <ele>1402</ele>
        <time>2018-04-02T12:04:13.000Z</time>
      </trkpt>
      <trkpt lat="42.96165" lon="0.85685">
        <ele>1402</ele>
        <time>2018-04-02T12:04:15.000Z</time>
      </trkpt>
      <trkpt lat="42.96165" lon="0.85683">
        <ele>1402</ele>
        <time>2018-04-02T12:04:17.000Z</time>
      </trkpt>
      <trkpt lat="42.96165" lon="0.85683">
        <ele>1402</ele>
        <time>2018-04-02T12:04:19.000Z</time>
      </trkpt>
      <trkpt lat="42.96165" lon="0.85681">
        <ele>1402</ele>
        <time>2018-04-02T12:04:21.000Z</time>
      </trkpt>
      <trkpt lat="42.96164" lon="0.85681">
        <ele>1402</ele>
        <time>2018-04-02T12:04:23.000Z</time>
      </trkpt>
      <trkpt lat="42.96164" lon="0.85681">
        <ele>1402</ele>
        <time>2018-04-02T12:04:25.000Z</time>
      </trkpt>
      <trkpt lat="42.96163" lon="0.85682">
        <ele>1402</ele>
        <time>2018-04-02T12:04:27.000Z</time>
      </trkpt>
      <trkpt lat="42.96162" lon="0.85682">
        <ele>1402</ele>
        <time>2018-04-02T12:04:29.000Z</time>
      </trkpt>
      <trkpt lat="42.96162" lon="0.85682">
        <ele>1402</ele>
        <time>2018-04-02T12:04:31.000Z</time>
      </trkpt>
      <trkpt lat="42.96162" lon="0.85682">
        <ele>1402</ele>
        <time>2018-04-02T12:04:33.000Z</time>
      </trkpt>
      <trkpt lat="42.96162" lon="0.85683">
        <ele>1402</ele>
        <time>2018-04-02T12:04:35.000Z</time>
      </trkpt>
      <trkpt lat="42.96161" lon="0.85683">
        <ele>1402</ele>
        <time>2018-04-02T12:04:37.000Z</time>
      </trkpt>
      <trkpt lat="42.96161" lon="0.85682">
        <ele>1402</ele>
        <time>2018-04-02T12:04:39.000Z</time>
      </trkpt>
      <trkpt lat="42.96161" lon="0.85683">
        <ele>1402</ele>
        <time>2018-04-02T12:04:41.000Z</time>
      </trkpt>
      <trkpt lat="42.96161" lon="0.85682">
        <ele>1402</ele>
        <time>2018-04-02T12:04:43.000Z</time>
      </trkpt>
      <trkpt lat="42.96161" lon="0.85682">
        <ele>1402</ele>
        <time>2018-04-02T12:04:45.000Z</time>
      </trkpt>
      <trkpt lat="42.96161" lon="0.85682">
        <ele>1402</ele>
        <time>2018-04-02T12:04:47.000Z</time>
      </trkpt>
      <trkpt lat="42.96161" lon="0.85682">
        <ele>1402</ele>
        <time>2018-04-02T12:04:49.000Z</time>
      </trkpt>
      <trkpt lat="42.96161" lon="0.85682">
        <ele>1402</ele>
        <time>2018-04-02T12:04:51.000Z</time>
      </trkpt>
      <trkpt lat="42.96161" lon="0.85682">
        <ele>1402</ele>
        <time>2018-04-02T12:04:53.000Z</time>
      </trkpt>
      <trkpt lat="42.96161" lon="0.85681">
        <ele>1402</ele>
        <time>2018-04-02T12:04:55.000Z</time>
      </trkpt>
      <trkpt lat="42.96161" lon="0.85681">
        <ele>1402</ele>
        <time>2018-04-02T12:04:57.000Z</time>
      </trkpt>
      <trkpt lat="42.96161" lon="0.8568">
        <ele>1402</ele>
        <time>2018-04-02T12:04:59.000Z</time>
      </trkpt>
      <trkpt lat="42.9616" lon="0.85681">
        <ele>1402</ele>
        <time>2018-04-02T12:05:01.000Z</time>
      </trkpt>
      <trkpt lat="42.96161" lon="0.8568">
        <ele>1402</ele>
        <time>2018-04-02T12:05:03.000Z</time>
      </trkpt>
      <trkpt lat="42.96161" lon="0.8568">
        <ele>1402</ele>
        <time>2018-04-02T12:05:05.000Z</time>
      </trkpt>
      <trkpt lat="42.96161" lon="0.8568">
        <ele>1402</ele>
        <time>2018-04-02T12:05:07.000Z</time>
      </trkpt>
      <trkpt lat="42.96161" lon="0.8568">
        <ele>1402</ele>
        <time>2018-04-02T12:05:09.000Z</time>
      </trkpt>
      <trkpt lat="42.96161" lon="0.8568">
        <ele>1402</ele>
        <time>2018-04-02T12:05:11.000Z</time>
      </trkpt>
      <trkpt lat="42.96162" lon="0.8568">
        <ele>1402</ele>
        <time>2018-04-02T12:05:13.000Z</time>
      </trkpt>
      <trkpt lat="42.96162" lon="0.85679">
        <ele>1402</ele>
        <time>2018-04-02T12:05:15.000Z</time>
      </trkpt>
      <trkpt lat="42.96162" lon="0.85678">
        <ele>1402</ele>
        <time>2018-04-02T12:05:17.000Z</time>
      </trkpt>
      <trkpt lat="42.96162" lon="0.85678">
        <ele>1402</ele>
        <time>2018-04-02T12:05:19.000Z</time>
      </trkpt>
      <trkpt lat="42.96161" lon="0.85678">
        <ele>1402</ele>
        <time>2018-04-02T12:05:21.000Z</time>
      </trkpt>
      <trkpt lat="42.96162" lon="0.85678">
        <ele>1402</ele>
        <time>2018-04-02T12:05:23.000Z</time>
      </trkpt>
      <trkpt lat="42.96164" lon="0.85677">
        <ele>1402</ele>
        <time>2018-04-02T12:05:25.000Z</time>
      </trkpt>
      <trkpt lat="42.96165" lon="0.85677">
        <ele>1402</ele>
        <time>2018-04-02T12:05:27.000Z</time>
      </trkpt>
      <trkpt lat="42.96165" lon="0.85676">
        <ele>1403</ele>
        <time>2018-04-02T12:05:29.000Z</time>
      </trkpt>
      <trkpt lat="42.96167" lon="0.85676">
        <ele>1403</ele>
        <time>2018-04-02T12:05:31.000Z</time>
      </trkpt>
      <trkpt lat="42.96168" lon="0.85676">
        <ele>1403</ele>
        <time>2018-04-02T12:05:33.000Z</time>
      </trkpt>
      <trkpt lat="42.96169" lon="0.85676">
        <ele>1403</ele>
        <time>2018-04-02T12:05:35.000Z</time>
      </trkpt>
      <trkpt lat="42.9617" lon="0.85676">
        <ele>1403</ele>
        <time>2018-04-02T12:05:37.000Z</time>
      </trkpt>
      <trkpt lat="42.96171" lon="0.85676">
        <ele>1403</ele>
        <time>2018-04-02T12:05:39.000Z</time>
      </trkpt>
      <trkpt lat="42.96172" lon="0.85676">
        <ele>1403</ele>
        <time>2018-04-02T12:05:41.000Z</time>
      </trkpt>
      <trkpt lat="42.96173" lon="0.85676">
        <ele>1403</ele>
        <time>2018-04-02T12:05:43.000Z</time>
      </trkpt>
      <trkpt lat="42.96173" lon="0.85676">
        <ele>1403</ele>
        <time>2018-04-02T12:05:45.000Z</time>
      </trkpt>
      <trkpt lat="42.96175" lon="0.85675">
        <ele>1403</ele>
        <time>2018-04-02T12:05:47.000Z</time>
      </trkpt>
      <trkpt lat="42.96174" lon="0.85674">
        <ele>1403</ele>
        <time>2018-04-02T12:05:49.000Z</time>
      </trkpt>
      <trkpt lat="42.96174" lon="0.85673">
        <ele>1403</ele>
        <time>2018-04-02T12:05:51.000Z</time>
      </trkpt>
      <trkpt lat="42.96174" lon="0.85674">
        <ele>1403</ele>
        <time>2018-04-02T12:05:53.000Z</time>
      </trkpt>
      <trkpt lat="42.96175" lon="0.85675">
        <ele>1403</ele>
        <time>2018-04-02T12:05:55.000Z</time>
      </trkpt>
      <trkpt lat="42.96175" lon="0.85674">
        <ele>1404</ele>
        <time>2018-04-02T12:05:57.000Z</time>
      </trkpt>
      <trkpt lat="42.96176" lon="0.85673">
        <ele>1404</ele>
        <time>2018-04-02T12:05:59.000Z</time>
      </trkpt>
      <trkpt lat="42.96177" lon="0.85673">
        <ele>1404</ele>
        <time>2018-04-02T12:06:01.000Z</time>
      </trkpt>
      <trkpt lat="42.96176" lon="0.85675">
        <ele>1404</ele>
        <time>2018-04-02T12:06:03.000Z</time>
      </trkpt>
      <trkpt lat="42.96176" lon="0.85677">
        <ele>1404</ele>
        <time>2018-04-02T12:06:05.000Z</time>
      </trkpt>
      <trkpt lat="42.96176" lon="0.85678">
        <ele>1403</ele>
        <time>2018-04-02T12:06:07.000Z</time>
      </trkpt>
      <trkpt lat="42.96175" lon="0.85676">
        <ele>1403</ele>
        <time>2018-04-02T12:06:09.000Z</time>
      </trkpt>
      <trkpt lat="42.96174" lon="0.85676">
        <ele>1403</ele>
        <time>2018-04-02T12:06:11.000Z</time>
      </trkpt>
      <trkpt lat="42.96173" lon="0.85677">
        <ele>1403</ele>
        <time>2018-04-02T12:06:13.000Z</time>
      </trkpt>
      <trkpt lat="42.96173" lon="0.85677">
        <ele>1403</ele>
        <time>2018-04-02T12:06:15.000Z</time>
      </trkpt>
      <trkpt lat="42.96174" lon="0.85677">
        <ele>1403</ele>
        <time>2018-04-02T12:06:17.000Z</time>
      </trkpt>
      <trkpt lat="42.96173" lon="0.85678">
        <ele>1403</ele>
        <time>2018-04-02T12:06:19.000Z</time>
      </trkpt>
      <trkpt lat="42.96172" lon="0.8568">
        <ele>1402</ele>
        <time>2018-04-02T12:06:21.000Z</time>
      </trkpt>
      <trkpt lat="42.96172" lon="0.8568">
        <ele>1403</ele>
        <time>2018-04-02T12:06:23.000Z</time>
      </trkpt>
      <trkpt lat="42.96174" lon="0.85675">
        <ele>1403</ele>
        <time>2018-04-02T12:06:25.000Z</time>
      </trkpt>
      <trkpt lat="42.96169" lon="0.85674">
        <ele>1403</ele>
        <time>2018-04-02T12:06:27.000Z</time>
      </trkpt>
      <trkpt lat="42.96167" lon="0.85674">
        <ele>1403</ele>
        <time>2018-04-02T12:06:29.000Z</time>
      </trkpt>
      <trkpt lat="42.96165" lon="0.85676">
        <ele>1403</ele>
        <time>2018-04-02T12:06:31.000Z</time>
      </trkpt>
      <trkpt lat="42.96164" lon="0.85679">
        <ele>1402</ele>
        <time>2018-04-02T12:06:33.000Z</time>
      </trkpt>
      <trkpt lat="42.96162" lon="0.85679">
        <ele>1402</ele>
        <time>2018-04-02T12:06:35.000Z</time>
      </trkpt>
      <trkpt lat="42.96161" lon="0.8568">
        <ele>1402</ele>
        <time>2018-04-02T12:06:37.000Z</time>
      </trkpt>
      <trkpt lat="42.96161" lon="0.85682">
        <ele>1402</ele>
        <time>2018-04-02T12:06:39.000Z</time>
      </trkpt>
      <trkpt lat="42.9616" lon="0.85682">
        <ele>1402</ele>
        <time>2018-04-02T12:06:41.000Z</time>
      </trkpt>
      <trkpt lat="42.9616" lon="0.85683">
        <ele>1402</ele>
        <time>2018-04-02T12:06:43.000Z</time>
      </trkpt>
      <trkpt lat="42.9616" lon="0.85684">
        <ele>1402</ele>
        <time>2018-04-02T12:06:45.000Z</time>
      </trkpt>
      <trkpt lat="42.9616" lon="0.85684">
        <ele>1402</ele>
        <time>2018-04-02T12:06:47.000Z</time>
      </trkpt>
      <trkpt lat="42.96161" lon="0.85683">
        <ele>1402</ele>
        <time>2018-04-02T12:06:49.000Z</time>
      </trkpt>
      <trkpt lat="42.96161" lon="0.85684">
        <ele>1402</ele>
        <time>2018-04-02T12:06:51.000Z</time>
      </trkpt>
      <trkpt lat="42.96161" lon="0.85683">
        <ele>1402</ele>
        <time>2018-04-02T12:06:53.000Z</time>
      </trkpt>
      <trkpt lat="42.96161" lon="0.85684">
        <ele>1402</ele>
        <time>2018-04-02T12:06:55.000Z</time>
      </trkpt>
      <trkpt lat="42.96161" lon="0.85683">
        <ele>1402</ele>
        <time>2018-04-02T12:06:57.000Z</time>
      </trkpt>
      <trkpt lat="42.96161" lon="0.85683">
        <ele>1402</ele>
        <time>2018-04-02T12:06:59.000Z</time>
      </trkpt>
      <trkpt lat="42.96161" lon="0.85683">
        <ele>1402</ele>
        <time>2018-04-02T12:07:01.000Z</time>
      </trkpt>
      <trkpt lat="42.96161" lon="0.85683">
        <ele>1402</ele>
        <time>2018-04-02T12:07:03.000Z</time>
      </trkpt>
      <trkpt lat="42.96161" lon="0.85683">
        <ele>1402</ele>
        <time>2018-04-02T12:07:05.000Z</time>
      </trkpt>
      <trkpt lat="42.96161" lon="0.85683">
        <ele>1402</ele>
        <time>2018-04-02T12:07:07.000Z</time>
      </trkpt>
      <trkpt lat="42.96161" lon="0.85682">
        <ele>1402</ele>
        <time>2018-04-02T12:07:09.000Z</time>
      </trkpt>
      <trkpt lat="42.96161" lon="0.85682">
        <ele>1402</ele>
        <time>2018-04-02T12:07:11.000Z</time>
      </trkpt>
      <trkpt lat="42.96161" lon="0.85682">
        <ele>1402</ele>
        <time>2018-04-02T12:07:13.000Z</time>
      </trkpt>
      <trkpt lat="42.96161" lon="0.85682">
        <ele>1402</ele>
        <time>2018-04-02T12:07:15.000Z</time>
      </trkpt>
      <trkpt lat="42.96161" lon="0.85681">
        <ele>1402</ele>
        <time>2018-04-02T12:07:17.000Z</time>
      </trkpt>
      <trkpt lat="42.96161" lon="0.85682">
        <ele>1402</ele>
        <time>2018-04-02T12:07:19.000Z</time>
      </trkpt>
      <trkpt lat="42.96161" lon="0.85683">
        <ele>1402</ele>
        <time>2018-04-02T12:07:21.000Z</time>
      </trkpt>
      <trkpt lat="42.96161" lon="0.85683">
        <ele>1402</ele>
        <time>2018-04-02T12:07:23.000Z</time>
      </trkpt>
      <trkpt lat="42.96161" lon="0.85684">
        <ele>1402</ele>
        <time>2018-04-02T12:07:25.000Z</time>
      </trkpt>
      <trkpt lat="42.96161" lon="0.85685">
        <ele>1401</ele>
        <time>2018-04-02T12:07:27.000Z</time>
      </trkpt>
      <trkpt lat="42.96161" lon="0.85685">
        <ele>1401</ele>
        <time>2018-04-02T12:07:29.000Z</time>
      </trkpt>
      <trkpt lat="42.96161" lon="0.85684">
        <ele>1402</ele>
        <time>2018-04-02T12:07:31.000Z</time>
      </trkpt>
      <trkpt lat="42.96161" lon="0.85684">
        <ele>1402</ele>
        <time>2018-04-02T12:07:33.000Z</time>
      </trkpt>
      <trkpt lat="42.96161" lon="0.85685">
        <ele>1401</ele>
        <time>2018-04-02T12:07:35.000Z</time>
      </trkpt>
      <trkpt lat="42.96161" lon="0.85686">
        <ele>1401</ele>
        <time>2018-04-02T12:07:37.000Z</time>
      </trkpt>
      <trkpt lat="42.96161" lon="0.85686">
        <ele>1401</ele>
        <time>2018-04-02T12:07:39.000Z</time>
      </trkpt>
      <trkpt lat="42.96161" lon="0.85687">
        <ele>1401</ele>
        <time>2018-04-02T12:07:41.000Z</time>
      </trkpt>
      <trkpt lat="42.96161" lon="0.85687">
        <ele>1401</ele>
        <time>2018-04-02T12:07:43.000Z</time>
      </trkpt>
      <trkpt lat="42.96161" lon="0.85686">
        <ele>1401</ele>
        <time>2018-04-02T12:07:45.000Z</time>
      </trkpt>
      <trkpt lat="42.96161" lon="0.85689">
        <ele>1401</ele>
        <time>2018-04-02T12:07:47.000Z</time>
      </trkpt>
      <trkpt lat="42.96161" lon="0.85689">
        <ele>1401</ele>
        <time>2018-04-02T12:07:49.000Z</time>
      </trkpt>
      <trkpt lat="42.96161" lon="0.85689">
        <ele>1401</ele>
        <time>2018-04-02T12:07:51.000Z</time>
      </trkpt>
      <trkpt lat="42.96161" lon="0.85689">
        <ele>1401</ele>
        <time>2018-04-02T12:07:53.000Z</time>
      </trkpt>
      <trkpt lat="42.96161" lon="0.85688">
        <ele>1401</ele>
        <time>2018-04-02T12:07:55.000Z</time>
      </trkpt>
      <trkpt lat="42.96161" lon="0.85688">
        <ele>1401</ele>
        <time>2018-04-02T12:07:57.000Z</time>
      </trkpt>
      <trkpt lat="42.96161" lon="0.85688">
        <ele>1401</ele>
        <time>2018-04-02T12:07:59.000Z</time>
      </trkpt>
      <trkpt lat="42.96162" lon="0.85687">
        <ele>1401</ele>
        <time>2018-04-02T12:08:01.000Z</time>
      </trkpt>
      <trkpt lat="42.96162" lon="0.85687">
        <ele>1401</ele>
        <time>2018-04-02T12:08:03.000Z</time>
      </trkpt>
      <trkpt lat="42.96162" lon="0.85686">
        <ele>1401</ele>
        <time>2018-04-02T12:08:05.000Z</time>
      </trkpt>
      <trkpt lat="42.96163" lon="0.85686">
        <ele>1401</ele>
        <time>2018-04-02T12:08:07.000Z</time>
      </trkpt>
      <trkpt lat="42.96163" lon="0.85685">
        <ele>1402</ele>
        <time>2018-04-02T12:08:09.000Z</time>
      </trkpt>
      <trkpt lat="42.96164" lon="0.85684">
        <ele>1402</ele>
        <time>2018-04-02T12:08:11.000Z</time>
      </trkpt>
      <trkpt lat="42.96164" lon="0.85684">
        <ele>1402</ele>
        <time>2018-04-02T12:08:13.000Z</time>
      </trkpt>
      <trkpt lat="42.96164" lon="0.85683">
        <ele>1402</ele>
        <time>2018-04-02T12:08:15.000Z</time>
      </trkpt>
      <trkpt lat="42.96164" lon="0.85683">
        <ele>1402</ele>
        <time>2018-04-02T12:08:17.000Z</time>
      </trkpt>
      <trkpt lat="42.96164" lon="0.85683">
        <ele>1402</ele>
        <time>2018-04-02T12:08:19.000Z</time>
      </trkpt>
      <trkpt lat="42.96164" lon="0.85683">
        <ele>1402</ele>
        <time>2018-04-02T12:08:21.000Z</time>
      </trkpt>
      <trkpt lat="42.96163" lon="0.85682">
        <ele>1402</ele>
        <time>2018-04-02T12:08:23.000Z</time>
      </trkpt>
      <trkpt lat="42.96163" lon="0.85683">
        <ele>1402</ele>
        <time>2018-04-02T12:08:25.000Z</time>
      </trkpt>
      <trkpt lat="42.96163" lon="0.85682">
        <ele>1402</ele>
        <time>2018-04-02T12:08:27.000Z</time>
      </trkpt>
      <trkpt lat="42.96164" lon="0.85681">
        <ele>1402</ele>
        <time>2018-04-02T12:08:29.000Z</time>
      </trkpt>
      <trkpt lat="42.96164" lon="0.8568">
        <ele>1402</ele>
        <time>2018-04-02T12:08:31.000Z</time>
      </trkpt>
      <trkpt lat="42.96163" lon="0.85681">
        <ele>1402</ele>
        <time>2018-04-02T12:08:33.000Z</time>
      </trkpt>
      <trkpt lat="42.96163" lon="0.85682">
        <ele>1402</ele>
        <time>2018-04-02T12:08:35.000Z</time>
      </trkpt>
      <trkpt lat="42.96162" lon="0.85683">
        <ele>1402</ele>
        <time>2018-04-02T12:08:37.000Z</time>
      </trkpt>
      <trkpt lat="42.9616" lon="0.85685">
        <ele>1401</ele>
        <time>2018-04-02T12:08:39.000Z</time>
      </trkpt>
      <trkpt lat="42.96159" lon="0.85686">
        <ele>1401</ele>
        <time>2018-04-02T12:08:41.000Z</time>
      </trkpt>
      <trkpt lat="42.96159" lon="0.85686">
        <ele>1401</ele>
        <time>2018-04-02T12:08:43.000Z</time>
      </trkpt>
      <trkpt lat="42.96159" lon="0.85686">
        <ele>1401</ele>
        <time>2018-04-02T12:08:45.000Z</time>
      </trkpt>
      <trkpt lat="42.96159" lon="0.85686">
        <ele>1401</ele>
        <time>2018-04-02T12:08:47.000Z</time>
      </trkpt>
      <trkpt lat="42.96159" lon="0.85687">
        <ele>1401</ele>
        <time>2018-04-02T12:08:49.000Z</time>
      </trkpt>
      <trkpt lat="42.9616" lon="0.85687">
        <ele>1401</ele>
        <time>2018-04-02T12:08:51.000Z</time>
      </trkpt>
      <trkpt lat="42.9616" lon="0.85686">
        <ele>1401</ele>
        <time>2018-04-02T12:08:53.000Z</time>
      </trkpt>
      <trkpt lat="42.9616" lon="0.85686">
        <ele>1401</ele>
        <time>2018-04-02T12:08:55.000Z</time>
      </trkpt>
      <trkpt lat="42.9616" lon="0.85687">
        <ele>1401</ele>
        <time>2018-04-02T12:08:57.000Z</time>
      </trkpt>
      <trkpt lat="42.96161" lon="0.85686">
        <ele>1401</ele>
        <time>2018-04-02T12:08:59.000Z</time>
      </trkpt>
      <trkpt lat="42.96161" lon="0.85686">
        <ele>1401</ele>
        <time>2018-04-02T12:09:01.000Z</time>
      </trkpt>
      <trkpt lat="42.96161" lon="0.85687">
        <ele>1401</ele>
        <time>2018-04-02T12:09:03.000Z</time>
      </trkpt>
      <trkpt lat="42.96161" lon="0.85687">
        <ele>1401</ele>
        <time>2018-04-02T12:09:05.000Z</time>
      </trkpt>
      <trkpt lat="42.9616" lon="0.85687">
        <ele>1401</ele>
        <time>2018-04-02T12:09:07.000Z</time>
      </trkpt>
      <trkpt lat="42.9616" lon="0.85687">
        <ele>1401</ele>
        <time>2018-04-02T12:09:09.000Z</time>
      </trkpt>
      <trkpt lat="42.9616" lon="0.85687">
        <ele>1401</ele>
        <time>2018-04-02T12:09:11.000Z</time>
      </trkpt>
      <trkpt lat="42.9616" lon="0.85686">
        <ele>1401</ele>
        <time>2018-04-02T12:09:13.000Z</time>
      </trkpt>
      <trkpt lat="42.96161" lon="0.85686">
        <ele>1401</ele>
        <time>2018-04-02T12:09:15.000Z</time>
      </trkpt>
      <trkpt lat="42.96161" lon="0.85685">
        <ele>1401</ele>
        <time>2018-04-02T12:09:17.000Z</time>
      </trkpt>
      <trkpt lat="42.96161" lon="0.85684">
        <ele>1402</ele>
        <time>2018-04-02T12:09:19.000Z</time>
      </trkpt>
      <trkpt lat="42.96162" lon="0.85684">
        <ele>1402</ele>
        <time>2018-04-02T12:09:21.000Z</time>
      </trkpt>
      <trkpt lat="42.96162" lon="0.85684">
        <ele>1402</ele>
        <time>2018-04-02T12:09:23.000Z</time>
      </trkpt>
      <trkpt lat="42.96163" lon="0.85684">
        <ele>1402</ele>
        <time>2018-04-02T12:09:25.000Z</time>
      </trkpt>
      <trkpt lat="42.96163" lon="0.85683">
        <ele>1402</ele>
        <time>2018-04-02T12:09:27.000Z</time>
      </trkpt>
      <trkpt lat="42.96163" lon="0.85683">
        <ele>1402</ele>
        <time>2018-04-02T12:09:29.000Z</time>
      </trkpt>
      <trkpt lat="42.96162" lon="0.85682">
        <ele>1402</ele>
        <time>2018-04-02T12:09:31.000Z</time>
      </trkpt>
      <trkpt lat="42.96163" lon="0.85682">
        <ele>1402</ele>
        <time>2018-04-02T12:09:33.000Z</time>
      </trkpt>
      <trkpt lat="42.96162" lon="0.85682">
        <ele>1402</ele>
        <time>2018-04-02T12:09:35.000Z</time>
      </trkpt>
      <trkpt lat="42.96161" lon="0.85682">
        <ele>1402</ele>
        <time>2018-04-02T12:09:37.000Z</time>
      </trkpt>
      <trkpt lat="42.9616" lon="0.85682">
        <ele>1402</ele>
        <time>2018-04-02T12:09:39.000Z</time>
      </trkpt>
      <trkpt lat="42.9616" lon="0.85682">
        <ele>1402</ele>
        <time>2018-04-02T12:09:41.000Z</time>
      </trkpt>
      <trkpt lat="42.96159" lon="0.85682">
        <ele>1402</ele>
        <time>2018-04-02T12:09:43.000Z</time>
      </trkpt>
      <trkpt lat="42.96159" lon="0.85683">
        <ele>1402</ele>
        <time>2018-04-02T12:09:45.000Z</time>
      </trkpt>
      <trkpt lat="42.9616" lon="0.85684">
        <ele>1401</ele>
        <time>2018-04-02T12:09:47.000Z</time>
      </trkpt>
      <trkpt lat="42.9616" lon="0.85685">
        <ele>1401</ele>
        <time>2018-04-02T12:09:49.000Z</time>
      </trkpt>
      <trkpt lat="42.96161" lon="0.85686">
        <ele>1401</ele>
        <time>2018-04-02T12:09:51.000Z</time>
      </trkpt>
      <trkpt lat="42.96162" lon="0.85685">
        <ele>1401</ele>
        <time>2018-04-02T12:09:53.000Z</time>
      </trkpt>
      <trkpt lat="42.96162" lon="0.85685">
        <ele>1401</ele>
        <time>2018-04-02T12:09:55.000Z</time>
      </trkpt>
      <trkpt lat="42.96162" lon="0.85684">
        <ele>1402</ele>
        <time>2018-04-02T12:09:57.000Z</time>
      </trkpt>
      <trkpt lat="42.96163" lon="0.85684">
        <ele>1402</ele>
        <time>2018-04-02T12:09:59.000Z</time>
      </trkpt>
      <trkpt lat="42.96163" lon="0.85684">
        <ele>1402</ele>
        <time>2018-04-02T12:10:01.000Z</time>
      </trkpt>
      <trkpt lat="42.96163" lon="0.85685">
        <ele>1402</ele>
        <time>2018-04-02T12:10:03.000Z</time>
      </trkpt>
      <trkpt lat="42.96163" lon="0.85684">
        <ele>1402</ele>
        <time>2018-04-02T12:10:05.000Z</time>
      </trkpt>
      <trkpt lat="42.96162" lon="0.85684">
        <ele>1402</ele>
        <time>2018-04-02T12:10:07.000Z</time>
      </trkpt>
      <trkpt lat="42.96162" lon="0.85684">
        <ele>1402</ele>
        <time>2018-04-02T12:10:09.000Z</time>
      </trkpt>
      <trkpt lat="42.96162" lon="0.85684">
        <ele>1402</ele>
        <time>2018-04-02T12:10:11.000Z</time>
      </trkpt>
      <trkpt lat="42.96162" lon="0.85683">
        <ele>1402</ele>
        <time>2018-04-02T12:10:13.000Z</time>
      </trkpt>
      <trkpt lat="42.96161" lon="0.85683">
        <ele>1402</ele>
        <time>2018-04-02T12:10:15.000Z</time>
      </trkpt>
      <trkpt lat="42.96161" lon="0.85682">
        <ele>1402</ele>
        <time>2018-04-02T12:10:17.000Z</time>
      </trkpt>
      <trkpt lat="42.96161" lon="0.85682">
        <ele>1402</ele>
        <time>2018-04-02T12:10:19.000Z</time>
      </trkpt>
      <trkpt lat="42.96161" lon="0.85681">
        <ele>1402</ele>
        <time>2018-04-02T12:10:21.000Z</time>
      </trkpt>
      <trkpt lat="42.96161" lon="0.8568">
        <ele>1402</ele>
        <time>2018-04-02T12:10:23.000Z</time>
      </trkpt>
      <trkpt lat="42.96161" lon="0.8568">
        <ele>1402</ele>
        <time>2018-04-02T12:10:25.000Z</time>
      </trkpt>
      <trkpt lat="42.96162" lon="0.8568">
        <ele>1402</ele>
        <time>2018-04-02T12:10:27.000Z</time>
      </trkpt>
      <trkpt lat="42.96162" lon="0.8568">
        <ele>1402</ele>
        <time>2018-04-02T12:10:29.000Z</time>
      </trkpt>
      <trkpt lat="42.96162" lon="0.85679">
        <ele>1402</ele>
        <time>2018-04-02T12:10:31.000Z</time>
      </trkpt>
      <trkpt lat="42.96163" lon="0.85679">
        <ele>1402</ele>
        <time>2018-04-02T12:10:33.000Z</time>
      </trkpt>
      <trkpt lat="42.96163" lon="0.85679">
        <ele>1402</ele>
        <time>2018-04-02T12:10:35.000Z</time>
      </trkpt>
      <trkpt lat="42.96164" lon="0.85678">
        <ele>1402</ele>
        <time>2018-04-02T12:10:37.000Z</time>
      </trkpt>
      <trkpt lat="42.96164" lon="0.85678">
        <ele>1402</ele>
        <time>2018-04-02T12:10:39.000Z</time>
      </trkpt>
      <trkpt lat="42.96164" lon="0.85677">
        <ele>1402</ele>
        <time>2018-04-02T12:10:41.000Z</time>
      </trkpt>
      <trkpt lat="42.96164" lon="0.85677">
        <ele>1402</ele>
        <time>2018-04-02T12:10:43.000Z</time>
      </trkpt>
      <trkpt lat="42.96164" lon="0.85676">
        <ele>1403</ele>
        <time>2018-04-02T12:10:45.000Z</time>
      </trkpt>
      <trkpt lat="42.96164" lon="0.85676">
        <ele>1403</ele>
        <time>2018-04-02T12:10:47.000Z</time>
      </trkpt>
      <trkpt lat="42.96164" lon="0.85676">
        <ele>1403</ele>
        <time>2018-04-02T12:10:49.000Z</time>
      </trkpt>
      <trkpt lat="42.96165" lon="0.85676">
        <ele>1403</ele>
        <time>2018-04-02T12:10:51.000Z</time>
      </trkpt>
      <trkpt lat="42.96165" lon="0.85675">
        <ele>1403</ele>
        <time>2018-04-02T12:10:53.000Z</time>
      </trkpt>
      <trkpt lat="42.96164" lon="0.85675">
        <ele>1403</ele>
        <time>2018-04-02T12:10:55.000Z</time>
      </trkpt>
      <trkpt lat="42.96164" lon="0.85676">
        <ele>1403</ele>
        <time>2018-04-02T12:10:57.000Z</time>
      </trkpt>
      <trkpt lat="42.96164" lon="0.85676">
        <ele>1403</ele>
        <time>2018-04-02T12:10:59.000Z</time>
      </trkpt>
      <trkpt lat="42.96164" lon="0.85676">
        <ele>1403</ele>
        <time>2018-04-02T12:11:01.000Z</time>
      </trkpt>
      <trkpt lat="42.96164" lon="0.85676">
        <ele>1403</ele>
        <time>2018-04-02T12:11:03.000Z</time>
      </trkpt>
      <trkpt lat="42.96164" lon="0.85677">
        <ele>1402</ele>
        <time>2018-04-02T12:11:05.000Z</time>
      </trkpt>
      <trkpt lat="42.96164" lon="0.85677">
        <ele>1402</ele>
        <time>2018-04-02T12:11:07.000Z</time>
      </trkpt>
      <trkpt lat="42.96165" lon="0.85677">
        <ele>1403</ele>
        <time>2018-04-02T12:11:09.000Z</time>
      </trkpt>
      <trkpt lat="42.96166" lon="0.85676">
        <ele>1403</ele>
        <time>2018-04-02T12:11:11.000Z</time>
      </trkpt>
      <trkpt lat="42.96166" lon="0.85675">
        <ele>1403</ele>
        <time>2018-04-02T12:11:13.000Z</time>
      </trkpt>
      <trkpt lat="42.96165" lon="0.85675">
        <ele>1403</ele>
        <time>2018-04-02T12:11:15.000Z</time>
      </trkpt>
      <trkpt lat="42.96165" lon="0.85675">
        <ele>1403</ele>
        <time>2018-04-02T12:11:17.000Z</time>
      </trkpt>
      <trkpt lat="42.96165" lon="0.85676">
        <ele>1403</ele>
        <time>2018-04-02T12:11:19.000Z</time>
      </trkpt>
      <trkpt lat="42.96165" lon="0.85676">
        <ele>1403</ele>
        <time>2018-04-02T12:11:21.000Z</time>
      </trkpt>
      <trkpt lat="42.96164" lon="0.85677">
        <ele>1402</ele>
        <time>2018-04-02T12:11:23.000Z</time>
      </trkpt>
      <trkpt lat="42.96163" lon="0.85678">
        <ele>1402</ele>
        <time>2018-04-02T12:11:25.000Z</time>
      </trkpt>
      <trkpt lat="42.96164" lon="0.85677">
        <ele>1402</ele>
        <time>2018-04-02T12:11:27.000Z</time>
      </trkpt>
      <trkpt lat="42.96164" lon="0.85677">
        <ele>1402</ele>
        <time>2018-04-02T12:11:29.000Z</time>
      </trkpt>
      <trkpt lat="42.96164" lon="0.85676">
        <ele>1403</ele>
        <time>2018-04-02T12:11:31.000Z</time>
      </trkpt>
      <trkpt lat="42.96165" lon="0.85677">
        <ele>1403</ele>
        <time>2018-04-02T12:11:33.000Z</time>
      </trkpt>
      <trkpt lat="42.96165" lon="0.85677">
        <ele>1403</ele>
        <time>2018-04-02T12:11:35.000Z</time>
      </trkpt>
      <trkpt lat="42.96165" lon="0.85676">
        <ele>1403</ele>
        <time>2018-04-02T12:11:37.000Z</time>
      </trkpt>
      <trkpt lat="42.96165" lon="0.85677">
        <ele>1403</ele>
        <time>2018-04-02T12:11:39.000Z</time>
      </trkpt>
      <trkpt lat="42.96165" lon="0.85677">
        <ele>1402</ele>
        <time>2018-04-02T12:11:41.000Z</time>
      </trkpt>
      <trkpt lat="42.96165" lon="0.85677">
        <ele>1402</ele>
        <time>2018-04-02T12:11:43.000Z</time>
      </trkpt>
      <trkpt lat="42.96164" lon="0.85678">
        <ele>1402</ele>
        <time>2018-04-02T12:11:45.000Z</time>
      </trkpt>
      <trkpt lat="42.96164" lon="0.85679">
        <ele>1402</ele>
        <time>2018-04-02T12:11:47.000Z</time>
      </trkpt>
      <trkpt lat="42.96164" lon="0.85679">
        <ele>1402</ele>
        <time>2018-04-02T12:11:49.000Z</time>
      </trkpt>
      <trkpt lat="42.96163" lon="0.8568">
        <ele>1402</ele>
        <time>2018-04-02T12:11:51.000Z</time>
      </trkpt>
      <trkpt lat="42.96162" lon="0.8568">
        <ele>1402</ele>
        <time>2018-04-02T12:11:53.000Z</time>
      </trkpt>
      <trkpt lat="42.96162" lon="0.85681">
        <ele>1402</ele>
        <time>2018-04-02T12:11:55.000Z</time>
      </trkpt>
      <trkpt lat="42.96162" lon="0.85682">
        <ele>1402</ele>
        <time>2018-04-02T12:11:57.000Z</time>
      </trkpt>
      <trkpt lat="42.96163" lon="0.85681">
        <ele>1402</ele>
        <time>2018-04-02T12:11:59.000Z</time>
      </trkpt>
      <trkpt lat="42.96163" lon="0.85682">
        <ele>1402</ele>
        <time>2018-04-02T12:12:01.000Z</time>
      </trkpt>
      <trkpt lat="42.96163" lon="0.85683">
        <ele>1402</ele>
        <time>2018-04-02T12:12:03.000Z</time>
      </trkpt>
      <trkpt lat="42.96164" lon="0.85683">
        <ele>1402</ele>
        <time>2018-04-02T12:12:05.000Z</time>
      </trkpt>
      <trkpt lat="42.96164" lon="0.85684">
        <ele>1402</ele>
        <time>2018-04-02T12:12:07.000Z</time>
      </trkpt>
      <trkpt lat="42.96164" lon="0.85684">
        <ele>1402</ele>
        <time>2018-04-02T12:12:09.000Z</time>
      </trkpt>
      <trkpt lat="42.96164" lon="0.85685">
        <ele>1402</ele>
        <time>2018-04-02T12:12:11.000Z</time>
      </trkpt>
      <trkpt lat="42.96164" lon="0.85685">
        <ele>1402</ele>
        <time>2018-04-02T12:12:13.000Z</time>
      </trkpt>
      <trkpt lat="42.96163" lon="0.85685">
        <ele>1401</ele>
        <time>2018-04-02T12:12:15.000Z</time>
      </trkpt>
      <trkpt lat="42.96163" lon="0.85686">
        <ele>1401</ele>
        <time>2018-04-02T12:12:17.000Z</time>
      </trkpt>
      <trkpt lat="42.96163" lon="0.85685">
        <ele>1401</ele>
        <time>2018-04-02T12:12:19.000Z</time>
      </trkpt>
      <trkpt lat="42.96162" lon="0.85685">
        <ele>1401</ele>
        <time>2018-04-02T12:12:21.000Z</time>
      </trkpt>
      <trkpt lat="42.96162" lon="0.85685">
        <ele>1401</ele>
        <time>2018-04-02T12:12:23.000Z</time>
      </trkpt>
      <trkpt lat="42.96162" lon="0.85685">
        <ele>1401</ele>
        <time>2018-04-02T12:12:25.000Z</time>
      </trkpt>
      <trkpt lat="42.96163" lon="0.85685">
        <ele>1402</ele>
        <time>2018-04-02T12:12:27.000Z</time>
      </trkpt>
      <trkpt lat="42.96163" lon="0.85685">
        <ele>1402</ele>
        <time>2018-04-02T12:12:29.000Z</time>
      </trkpt>
      <trkpt lat="42.96164" lon="0.85685">
        <ele>1402</ele>
        <time>2018-04-02T12:12:31.000Z</time>
      </trkpt>
      <trkpt lat="42.96164" lon="0.85685">
        <ele>1402</ele>
        <time>2018-04-02T12:12:33.000Z</time>
      </trkpt>
      <trkpt lat="42.96165" lon="0.85686">
        <ele>1402</ele>
        <time>2018-04-02T12:12:35.000Z</time>
      </trkpt>
      <trkpt lat="42.96165" lon="0.85685">
        <ele>1402</ele>
        <time>2018-04-02T12:12:37.000Z</time>
      </trkpt>
      <trkpt lat="42.96164" lon="0.85686">
        <ele>1401</ele>
        <time>2018-04-02T12:12:39.000Z</time>
      </trkpt>
      <trkpt lat="42.96164" lon="0.85686">
        <ele>1401</ele>
        <time>2018-04-02T12:12:41.000Z</time>
      </trkpt>
      <trkpt lat="42.96164" lon="0.85687">
        <ele>1401</ele>
        <time>2018-04-02T12:12:43.000Z</time>
      </trkpt>
      <trkpt lat="42.96165" lon="0.85688">
        <ele>1401</ele>
        <time>2018-04-02T12:12:45.000Z</time>
      </trkpt>
      <trkpt lat="42.96165" lon="0.85687">
        <ele>1401</ele>
        <time>2018-04-02T12:12:47.000Z</time>
      </trkpt>
      <trkpt lat="42.96165" lon="0.85687">
        <ele>1401</ele>
        <time>2018-04-02T12:12:49.000Z</time>
      </trkpt>
      <trkpt lat="42.96166" lon="0.85686">
        <ele>1402</ele>
        <time>2018-04-02T12:12:51.000Z</time>
      </trkpt>
      <trkpt lat="42.96165" lon="0.85686">
        <ele>1401</ele>
        <time>2018-04-02T12:12:53.000Z</time>
      </trkpt>
      <trkpt lat="42.96164" lon="0.85686">
        <ele>1401</ele>
        <time>2018-04-02T12:12:55.000Z</time>
      </trkpt>
      <trkpt lat="42.96164" lon="0.85686">
        <ele>1401</ele>
        <time>2018-04-02T12:12:57.000Z</time>
      </trkpt>
      <trkpt lat="42.96164" lon="0.85687">
        <ele>1401</ele>
        <time>2018-04-02T12:12:59.000Z</time>
      </trkpt>
      <trkpt lat="42.96163" lon="0.85688">
        <ele>1401</ele>
        <time>2018-04-02T12:13:01.000Z</time>
      </trkpt>
      <trkpt lat="42.96163" lon="0.85688">
        <ele>1401</ele>
        <time>2018-04-02T12:13:03.000Z</time>
      </trkpt>
      <trkpt lat="42.96163" lon="0.85688">
        <ele>1401</ele>
        <time>2018-04-02T12:13:05.000Z</time>
      </trkpt>
      <trkpt lat="42.96163" lon="0.85687">
        <ele>1401</ele>
        <time>2018-04-02T12:13:07.000Z</time>
      </trkpt>
      <trkpt lat="42.96163" lon="0.85687">
        <ele>1401</ele>
        <time>2018-04-02T12:13:09.000Z</time>
      </trkpt>
      <trkpt lat="42.96162" lon="0.85687">
        <ele>1401</ele>
        <time>2018-04-02T12:13:11.000Z</time>
      </trkpt>
      <trkpt lat="42.96161" lon="0.85687">
        <ele>1401</ele>
        <time>2018-04-02T12:13:13.000Z</time>
      </trkpt>
      <trkpt lat="42.96161" lon="0.85688">
        <ele>1401</ele>
        <time>2018-04-02T12:13:15.000Z</time>
      </trkpt>
      <trkpt lat="42.96161" lon="0.85688">
        <ele>1401</ele>
        <time>2018-04-02T12:13:17.000Z</time>
      </trkpt>
      <trkpt lat="42.9616" lon="0.85688">
        <ele>1401</ele>
        <time>2018-04-02T12:13:19.000Z</time>
      </trkpt>
      <trkpt lat="42.9616" lon="0.85688">
        <ele>1401</ele>
        <time>2018-04-02T12:13:21.000Z</time>
      </trkpt>
      <trkpt lat="42.96159" lon="0.85689">
        <ele>1401</ele>
        <time>2018-04-02T12:13:23.000Z</time>
      </trkpt>
      <trkpt lat="42.96158" lon="0.85689">
        <ele>1401</ele>
        <time>2018-04-02T12:13:25.000Z</time>
      </trkpt>
      <trkpt lat="42.96158" lon="0.85689">
        <ele>1401</ele>
        <time>2018-04-02T12:13:27.000Z</time>
      </trkpt>
      <trkpt lat="42.96159" lon="0.85688">
        <ele>1401</ele>
        <time>2018-04-02T12:13:29.000Z</time>
      </trkpt>
      <trkpt lat="42.96159" lon="0.85688">
        <ele>1401</ele>
        <time>2018-04-02T12:13:31.000Z</time>
      </trkpt>
      <trkpt lat="42.96159" lon="0.85688">
        <ele>1401</ele>
        <time>2018-04-02T12:13:33.000Z</time>
      </trkpt>
      <trkpt lat="42.96159" lon="0.85688">
        <ele>1401</ele>
        <time>2018-04-02T12:13:35.000Z</time>
      </trkpt>
      <trkpt lat="42.96159" lon="0.85688">
        <ele>1401</ele>
        <time>2018-04-02T12:13:37.000Z</time>
      </trkpt>
      <trkpt lat="42.96159" lon="0.85687">
        <ele>1401</ele>
        <time>2018-04-02T12:13:39.000Z</time>
      </trkpt>
      <trkpt lat="42.96159" lon="0.85687">
        <ele>1401</ele>
        <time>2018-04-02T12:13:41.000Z</time>
      </trkpt>
      <trkpt lat="42.96159" lon="0.85687">
        <ele>1401</ele>
        <time>2018-04-02T12:13:43.000Z</time>
      </trkpt>
      <trkpt lat="42.96159" lon="0.85687">
        <ele>1401</ele>
        <time>2018-04-02T12:13:45.000Z</time>
      </trkpt>
      <trkpt lat="42.9616" lon="0.85687">
        <ele>1401</ele>
        <time>2018-04-02T12:13:47.000Z</time>
      </trkpt>
      <trkpt lat="42.9616" lon="0.85687">
        <ele>1401</ele>
        <time>2018-04-02T12:13:49.000Z</time>
      </trkpt>
      <trkpt lat="42.9616" lon="0.85687">
        <ele>1401</ele>
        <time>2018-04-02T12:13:51.000Z</time>
      </trkpt>
      <trkpt lat="42.96159" lon="0.85686">
        <ele>1401</ele>
        <time>2018-04-02T12:13:53.000Z</time>
      </trkpt>
      <trkpt lat="42.96159" lon="0.85686">
        <ele>1401</ele>
        <time>2018-04-02T12:13:55.000Z</time>
      </trkpt>
      <trkpt lat="42.96159" lon="0.85685">
        <ele>1401</ele>
        <time>2018-04-02T12:13:57.000Z</time>
      </trkpt>
      <trkpt lat="42.96158" lon="0.85685">
        <ele>1401</ele>
        <time>2018-04-02T12:13:59.000Z</time>
      </trkpt>
      <trkpt lat="42.96158" lon="0.85684">
        <ele>1401</ele>
        <time>2018-04-02T12:14:01.000Z</time>
      </trkpt>
      <trkpt lat="42.96158" lon="0.85683">
        <ele>1401</ele>
        <time>2018-04-02T12:14:03.000Z</time>
      </trkpt>
      <trkpt lat="42.96157" lon="0.85683">
        <ele>1401</ele>
        <time>2018-04-02T12:14:05.000Z</time>
      </trkpt>
      <trkpt lat="42.96157" lon="0.85682">
        <ele>1402</ele>
        <time>2018-04-02T12:14:07.000Z</time>
      </trkpt>
      <trkpt lat="42.96158" lon="0.85682">
        <ele>1402</ele>
        <time>2018-04-02T12:14:09.000Z</time>
      </trkpt>
      <trkpt lat="42.96158" lon="0.85682">
        <ele>1402</ele>
        <time>2018-04-02T12:14:11.000Z</time>
      </trkpt>
      <trkpt lat="42.96158" lon="0.85682">
        <ele>1402</ele>
        <time>2018-04-02T12:14:13.000Z</time>
      </trkpt>
      <trkpt lat="42.96158" lon="0.85682">
        <ele>1402</ele>
        <time>2018-04-02T12:14:15.000Z</time>
      </trkpt>
      <trkpt lat="42.96158" lon="0.85682">
        <ele>1402</ele>
        <time>2018-04-02T12:14:17.000Z</time>
      </trkpt>
      <trkpt lat="42.96157" lon="0.85683">
        <ele>1402</ele>
        <time>2018-04-02T12:14:19.000Z</time>
      </trkpt>
      <trkpt lat="42.96158" lon="0.85683">
        <ele>1401</ele>
        <time>2018-04-02T12:14:21.000Z</time>
      </trkpt>
      <trkpt lat="42.96158" lon="0.85683">
        <ele>1401</ele>
        <time>2018-04-02T12:14:23.000Z</time>
      </trkpt>
      <trkpt lat="42.96158" lon="0.85684">
        <ele>1401</ele>
        <time>2018-04-02T12:14:25.000Z</time>
      </trkpt>
      <trkpt lat="42.96158" lon="0.85686">
        <ele>1401</ele>
        <time>2018-04-02T12:14:27.000Z</time>
      </trkpt>
      <trkpt lat="42.96158" lon="0.85688">
        <ele>1401</ele>
        <time>2018-04-02T12:14:29.000Z</time>
      </trkpt>
      <trkpt lat="42.96159" lon="0.85689">
        <ele>1401</ele>
        <time>2018-04-02T12:14:31.000Z</time>
      </trkpt>
      <trkpt lat="42.9616" lon="0.8569">
        <ele>1401</ele>
        <time>2018-04-02T12:14:33.000Z</time>
      </trkpt>
      <trkpt lat="42.9616" lon="0.85691">
        <ele>1401</ele>
        <time>2018-04-02T12:14:35.000Z</time>
      </trkpt>
      <trkpt lat="42.9616" lon="0.85691">
        <ele>1401</ele>
        <time>2018-04-02T12:14:37.000Z</time>
      </trkpt>
      <trkpt lat="42.96162" lon="0.85689">
        <ele>1401</ele>
        <time>2018-04-02T12:14:39.000Z</time>
      </trkpt>
      <trkpt lat="42.96163" lon="0.85688">
        <ele>1401</ele>
        <time>2018-04-02T12:14:41.000Z</time>
      </trkpt>
      <trkpt lat="42.96164" lon="0.85687">
        <ele>1401</ele>
        <time>2018-04-02T12:14:43.000Z</time>
      </trkpt>
      <trkpt lat="42.96164" lon="0.85685">
        <ele>1402</ele>
        <time>2018-04-02T12:14:45.000Z</time>
      </trkpt>
      <trkpt lat="42.96166" lon="0.85683">
        <ele>1402</ele>
        <time>2018-04-02T12:14:47.000Z</time>
      </trkpt>
      <trkpt lat="42.96166" lon="0.85683">
        <ele>1402</ele>
        <time>2018-04-02T12:14:49.000Z</time>
      </trkpt>
      <trkpt lat="42.96167" lon="0.85682">
        <ele>1402</ele>
        <time>2018-04-02T12:14:51.000Z</time>
      </trkpt>
      <trkpt lat="42.96168" lon="0.85681">
        <ele>1402</ele>
        <time>2018-04-02T12:14:53.000Z</time>
      </trkpt>
      <trkpt lat="42.96169" lon="0.85681">
        <ele>1402</ele>
        <time>2018-04-02T12:14:55.000Z</time>
      </trkpt>
      <trkpt lat="42.9617" lon="0.8568">
        <ele>1402</ele>
        <time>2018-04-02T12:14:57.000Z</time>
      </trkpt>
      <trkpt lat="42.96171" lon="0.85679">
        <ele>1403</ele>
        <time>2018-04-02T12:14:59.000Z</time>
      </trkpt>
      <trkpt lat="42.96172" lon="0.85678">
        <ele>1403</ele>
        <time>2018-04-02T12:15:01.000Z</time>
      </trkpt>
      <trkpt lat="42.96173" lon="0.85678">
        <ele>1403</ele>
        <time>2018-04-02T12:15:03.000Z</time>
      </trkpt>
      <trkpt lat="42.96174" lon="0.85678">
        <ele>1403</ele>
        <time>2018-04-02T12:15:05.000Z</time>
      </trkpt>
      <trkpt lat="42.96176" lon="0.85678">
        <ele>1403</ele>
        <time>2018-04-02T12:15:07.000Z</time>
      </trkpt>
      <trkpt lat="42.96177" lon="0.85677">
        <ele>1404</ele>
        <time>2018-04-02T12:15:09.000Z</time>
      </trkpt>
      <trkpt lat="42.96177" lon="0.85677">
        <ele>1404</ele>
        <time>2018-04-02T12:15:11.000Z</time>
      </trkpt>
      <trkpt lat="42.96178" lon="0.85676">
        <ele>1405</ele>
        <time>2018-04-02T12:15:13.000Z</time>
      </trkpt>
      <trkpt lat="42.96178" lon="0.85677">
        <ele>1405</ele>
        <time>2018-04-02T12:15:15.000Z</time>
      </trkpt>
      <trkpt lat="42.96178" lon="0.85677">
        <ele>1405</ele>
        <time>2018-04-02T12:15:17.000Z</time>
      </trkpt>
      <trkpt lat="42.96178" lon="0.85676">
        <ele>1405</ele>
        <time>2018-04-02T12:15:19.000Z</time>
      </trkpt>
      <trkpt lat="42.96178" lon="0.85676">
        <ele>1405</ele>
        <time>2018-04-02T12:15:21.000Z</time>
      </trkpt>
      <trkpt lat="42.96177" lon="0.85676">
        <ele>1404</ele>
        <time>2018-04-02T12:15:23.000Z</time>
      </trkpt>
      <trkpt lat="42.96176" lon="0.85676">
        <ele>1404</ele>
        <time>2018-04-02T12:15:25.000Z</time>
      </trkpt>
      <trkpt lat="42.96175" lon="0.85672">
        <ele>1404</ele>
        <time>2018-04-02T12:15:27.000Z</time>
      </trkpt>
      <trkpt lat="42.96174" lon="0.85669">
        <ele>1404</ele>
        <time>2018-04-02T12:15:29.000Z</time>
      </trkpt>
      <trkpt lat="42.96174" lon="0.85667">
        <ele>1404</ele>
        <time>2018-04-02T12:15:31.000Z</time>
      </trkpt>
      <trkpt lat="42.96175" lon="0.85666">
        <ele>1404</ele>
        <time>2018-04-02T12:15:33.000Z</time>
      </trkpt>
      <trkpt lat="42.96176" lon="0.85663">
        <ele>1405</ele>
        <time>2018-04-02T12:15:35.000Z</time>
      </trkpt>
      <trkpt lat="42.96177" lon="0.8566">
        <ele>1406</ele>
        <time>2018-04-02T12:15:37.000Z</time>
      </trkpt>
      <trkpt lat="42.96178" lon="0.85659">
        <ele>1406</ele>
        <time>2018-04-02T12:15:39.000Z</time>
      </trkpt>
      <trkpt lat="42.96178" lon="0.8566">
        <ele>1406</ele>
        <time>2018-04-02T12:15:41.000Z</time>
      </trkpt>
      <trkpt lat="42.96178" lon="0.8566">
        <ele>1406</ele>
        <time>2018-04-02T12:15:43.000Z</time>
      </trkpt>
      <trkpt lat="42.96178" lon="0.8566">
        <ele>1406</ele>
        <time>2018-04-02T12:15:45.000Z</time>
      </trkpt>
      <trkpt lat="42.96176" lon="0.8566">
        <ele>1406</ele>
        <time>2018-04-02T12:15:47.000Z</time>
      </trkpt>
      <trkpt lat="42.96175" lon="0.85662">
        <ele>1405</ele>
        <time>2018-04-02T12:15:49.000Z</time>
      </trkpt>
      <trkpt lat="42.96173" lon="0.85664">
        <ele>1404</ele>
        <time>2018-04-02T12:15:51.000Z</time>
      </trkpt>
      <trkpt lat="42.96172" lon="0.85668">
        <ele>1404</ele>
        <time>2018-04-02T12:15:53.000Z</time>
      </trkpt>
      <trkpt lat="42.96171" lon="0.85672">
        <ele>1403</ele>
        <time>2018-04-02T12:15:55.000Z</time>
      </trkpt>
      <trkpt lat="42.96171" lon="0.85675">
        <ele>1403</ele>
        <time>2018-04-02T12:15:57.000Z</time>
      </trkpt>
      <trkpt lat="42.9617" lon="0.85679">
        <ele>1403</ele>
        <time>2018-04-02T12:15:59.000Z</time>
      </trkpt>
      <trkpt lat="42.9617" lon="0.85683">
        <ele>1402</ele>
        <time>2018-04-02T12:16:01.000Z</time>
      </trkpt>
      <trkpt lat="42.96169" lon="0.85687">
        <ele>1402</ele>
        <time>2018-04-02T12:16:03.000Z</time>
      </trkpt>
      <trkpt lat="42.96168" lon="0.8569">
        <ele>1401</ele>
        <time>2018-04-02T12:16:05.000Z</time>
      </trkpt>
      <trkpt lat="42.96167" lon="0.85693">
        <ele>1401</ele>
        <time>2018-04-02T12:16:07.000Z</time>
      </trkpt>
      <trkpt lat="42.96167" lon="0.85694">
        <ele>1401</ele>
        <time>2018-04-02T12:16:09.000Z</time>
      </trkpt>
      <trkpt lat="42.96168" lon="0.85696">
        <ele>1401</ele>
        <time>2018-04-02T12:16:11.000Z</time>
      </trkpt>
      <trkpt lat="42.96168" lon="0.85697">
        <ele>1400</ele>
        <time>2018-04-02T12:16:13.000Z</time>
      </trkpt>
      <trkpt lat="42.96167" lon="0.85698">
        <ele>1400</ele>
        <time>2018-04-02T12:16:15.000Z</time>
      </trkpt>
      <trkpt lat="42.96166" lon="0.85701">
        <ele>1400</ele>
        <time>2018-04-02T12:16:17.000Z</time>
      </trkpt>
      <trkpt lat="42.96161" lon="0.85704">
        <ele>1399</ele>
        <time>2018-04-02T12:16:19.000Z</time>
      </trkpt>
      <trkpt lat="42.96157" lon="0.85706">
        <ele>1399</ele>
        <time>2018-04-02T12:16:21.000Z</time>
      </trkpt>
      <trkpt lat="42.96153" lon="0.85709">
        <ele>1399</ele>
        <time>2018-04-02T12:16:23.000Z</time>
      </trkpt>
      <trkpt lat="42.96149" lon="0.85712">
        <ele>1400</ele>
        <time>2018-04-02T12:16:25.000Z</time>
      </trkpt>
      <trkpt lat="42.96148" lon="0.85715">
        <ele>1400</ele>
        <time>2018-04-02T12:16:27.000Z</time>
      </trkpt>
      <trkpt lat="42.96148" lon="0.85716">
        <ele>1400</ele>
        <time>2018-04-02T12:16:29.000Z</time>
      </trkpt>
      <trkpt lat="42.96148" lon="0.85717">
        <ele>1400</ele>
        <time>2018-04-02T12:16:31.000Z</time>
      </trkpt>
      <trkpt lat="42.96148" lon="0.85717">
        <ele>1400</ele>
        <time>2018-04-02T12:16:33.000Z</time>
      </trkpt>
      <trkpt lat="42.96149" lon="0.8572">
        <ele>1400</ele>
        <time>2018-04-02T12:16:35.000Z</time>
      </trkpt>
      <trkpt lat="42.9615" lon="0.85721">
        <ele>1399</ele>
        <time>2018-04-02T12:16:37.000Z</time>
      </trkpt>
      <trkpt lat="42.96151" lon="0.85722">
        <ele>1399</ele>
        <time>2018-04-02T12:16:39.000Z</time>
      </trkpt>
      <trkpt lat="42.96152" lon="0.85724">
        <ele>1399</ele>
        <time>2018-04-02T12:16:41.000Z</time>
      </trkpt>
      <trkpt lat="42.96154" lon="0.85724">
        <ele>1399</ele>
        <time>2018-04-02T12:16:43.000Z</time>
      </trkpt>
      <trkpt lat="42.96156" lon="0.85724">
        <ele>1399</ele>
        <time>2018-04-02T12:16:45.000Z</time>
      </trkpt>
      <trkpt lat="42.96155" lon="0.85725">
        <ele>1399</ele>
        <time>2018-04-02T12:16:47.000Z</time>
      </trkpt>
      <trkpt lat="42.96154" lon="0.85726">
        <ele>1399</ele>
        <time>2018-04-02T12:16:49.000Z</time>
      </trkpt>
      <trkpt lat="42.96154" lon="0.85728">
        <ele>1399</ele>
        <time>2018-04-02T12:16:51.000Z</time>
      </trkpt>
      <trkpt lat="42.96153" lon="0.85728">
        <ele>1399</ele>
        <time>2018-04-02T12:16:53.000Z</time>
      </trkpt>
      <trkpt lat="42.96152" lon="0.85729">
        <ele>1399</ele>
        <time>2018-04-02T12:16:55.000Z</time>
      </trkpt>
      <trkpt lat="42.96151" lon="0.85731">
        <ele>1399</ele>
        <time>2018-04-02T12:16:57.000Z</time>
      </trkpt>
      <trkpt lat="42.96149" lon="0.85734">
        <ele>1399</ele>
        <time>2018-04-02T12:16:59.000Z</time>
      </trkpt>
      <trkpt lat="42.96149" lon="0.85736">
        <ele>1399</ele>
        <time>2018-04-02T12:17:01.000Z</time>
      </trkpt>
      <trkpt lat="42.96148" lon="0.85736">
        <ele>1399</ele>
        <time>2018-04-02T12:17:03.000Z</time>
      </trkpt>
      <trkpt lat="42.96147" lon="0.85736">
        <ele>1399</ele>
        <time>2018-04-02T12:17:05.000Z</time>
      </trkpt>
      <trkpt lat="42.96147" lon="0.85735">
        <ele>1399</ele>
        <time>2018-04-02T12:17:07.000Z</time>
      </trkpt>
      <trkpt lat="42.96145" lon="0.85734">
        <ele>1399</ele>
        <time>2018-04-02T12:17:09.000Z</time>
      </trkpt>
      <trkpt lat="42.96144" lon="0.85734">
        <ele>1399</ele>
        <time>2018-04-02T12:17:11.000Z</time>
      </trkpt>
      <trkpt lat="42.96144" lon="0.85736">
        <ele>1399</ele>
        <time>2018-04-02T12:17:13.000Z</time>
      </trkpt>
      <trkpt lat="42.96142" lon="0.85736">
        <ele>1399</ele>
        <time>2018-04-02T12:17:15.000Z</time>
      </trkpt>
      <trkpt lat="42.96141" lon="0.85737">
        <ele>1399</ele>
        <time>2018-04-02T12:17:17.000Z</time>
      </trkpt>
      <trkpt lat="42.96141" lon="0.85737">
        <ele>1399</ele>
        <time>2018-04-02T12:17:19.000Z</time>
      </trkpt>
      <trkpt lat="42.96141" lon="0.85738">
        <ele>1399</ele>
        <time>2018-04-02T12:17:21.000Z</time>
      </trkpt>
      <trkpt lat="42.96142" lon="0.85739">
        <ele>1399</ele>
        <time>2018-04-02T12:17:23.000Z</time>
      </trkpt>
      <trkpt lat="42.96142" lon="0.8574">
        <ele>1399</ele>
        <time>2018-04-02T12:17:25.000Z</time>
      </trkpt>
      <trkpt lat="42.96142" lon="0.85741">
        <ele>1399</ele>
        <time>2018-04-02T12:17:27.000Z</time>
      </trkpt>
      <trkpt lat="42.96146" lon="0.85739">
        <ele>1399</ele>
        <time>2018-04-02T12:17:29.000Z</time>
      </trkpt>
      <trkpt lat="42.9615" lon="0.85736">
        <ele>1399</ele>
        <time>2018-04-02T12:17:31.000Z</time>
      </trkpt>
      <trkpt lat="42.96154" lon="0.85735">
        <ele>1399</ele>
        <time>2018-04-02T12:17:33.000Z</time>
      </trkpt>
      <trkpt lat="42.96157" lon="0.85736">
        <ele>1398</ele>
        <time>2018-04-02T12:17:35.000Z</time>
      </trkpt>
      <trkpt lat="42.9616" lon="0.85738">
        <ele>1398</ele>
        <time>2018-04-02T12:17:37.000Z</time>
      </trkpt>
      <trkpt lat="42.96163" lon="0.85741">
        <ele>1398</ele>
        <time>2018-04-02T12:17:39.000Z</time>
      </trkpt>
      <trkpt lat="42.96166" lon="0.85742">
        <ele>1398</ele>
        <time>2018-04-02T12:17:41.000Z</time>
      </trkpt>
      <trkpt lat="42.96168" lon="0.85743">
        <ele>1397</ele>
        <time>2018-04-02T12:17:43.000Z</time>
      </trkpt>
      <trkpt lat="42.96171" lon="0.85742">
        <ele>1397</ele>
        <time>2018-04-02T12:17:45.000Z</time>
      </trkpt>
      <trkpt lat="42.96173" lon="0.85741">
        <ele>1397</ele>
        <time>2018-04-02T12:17:47.000Z</time>
      </trkpt>
      <trkpt lat="42.96175" lon="0.8574">
        <ele>1397</ele>
        <time>2018-04-02T12:17:49.000Z</time>
      </trkpt>
      <trkpt lat="42.96175" lon="0.8574">
        <ele>1397</ele>
        <time>2018-04-02T12:17:51.000Z</time>
      </trkpt>
      <trkpt lat="42.96174" lon="0.8574">
        <ele>1397</ele>
        <time>2018-04-02T12:17:53.000Z</time>
      </trkpt>
      <trkpt lat="42.96172" lon="0.85741">
        <ele>1397</ele>
        <time>2018-04-02T12:17:55.000Z</time>
      </trkpt>
      <trkpt lat="42.96168" lon="0.85743">
        <ele>1397</ele>
        <time>2018-04-02T12:17:57.000Z</time>
      </trkpt>
      <trkpt lat="42.96165" lon="0.85745">
        <ele>1397</ele>
        <time>2018-04-02T12:17:59.000Z</time>
      </trkpt>
      <trkpt lat="42.96161" lon="0.85748">
        <ele>1398</ele>
        <time>2018-04-02T12:18:01.000Z</time>
      </trkpt>
      <trkpt lat="42.96159" lon="0.85748">
        <ele>1398</ele>
        <time>2018-04-02T12:18:03.000Z</time>
      </trkpt>
      <trkpt lat="42.96159" lon="0.85747">
        <ele>1398</ele>
        <time>2018-04-02T12:18:05.000Z</time>
      </trkpt>
      <trkpt lat="42.96162" lon="0.85744">
        <ele>1398</ele>
        <time>2018-04-02T12:18:07.000Z</time>
      </trkpt>
      <trkpt lat="42.96164" lon="0.8574">
        <ele>1398</ele>
        <time>2018-04-02T12:18:09.000Z</time>
      </trkpt>
      <trkpt lat="42.96167" lon="0.85735">
        <ele>1398</ele>
        <time>2018-04-02T12:18:11.000Z</time>
      </trkpt>
      <trkpt lat="42.96171" lon="0.85729">
        <ele>1398</ele>
        <time>2018-04-02T12:18:13.000Z</time>
      </trkpt>
      <trkpt lat="42.96175" lon="0.85722">
        <ele>1398</ele>
        <time>2018-04-02T12:18:15.000Z</time>
      </trkpt>
      <trkpt lat="42.96179" lon="0.85717">
        <ele>1401</ele>
        <time>2018-04-02T12:18:17.000Z</time>
      </trkpt>
      <trkpt lat="42.96184" lon="0.85712">
        <ele>1404</ele>
        <time>2018-04-02T12:18:19.000Z</time>
      </trkpt>
      <trkpt lat="42.96188" lon="0.85707">
        <ele>1406</ele>
        <time>2018-04-02T12:18:21.000Z</time>
      </trkpt>
      <trkpt lat="42.96194" lon="0.857">
        <ele>1409</ele>
        <time>2018-04-02T12:18:23.000Z</time>
      </trkpt>
      <trkpt lat="42.96199" lon="0.85693">
        <ele>1413</ele>
        <time>2018-04-02T12:18:25.000Z</time>
      </trkpt>
      <trkpt lat="42.96203" lon="0.85686">
        <ele>1416</ele>
        <time>2018-04-02T12:18:27.000Z</time>
      </trkpt>
      <trkpt lat="42.96206" lon="0.85681">
        <ele>1417</ele>
        <time>2018-04-02T12:18:29.000Z</time>
      </trkpt>
      <trkpt lat="42.96208" lon="0.85676">
        <ele>1419</ele>
        <time>2018-04-02T12:18:31.000Z</time>
      </trkpt>
      <trkpt lat="42.96209" lon="0.85674">
        <ele>1419</ele>
        <time>2018-04-02T12:18:33.000Z</time>
      </trkpt>
      <trkpt lat="42.96208" lon="0.85672">
        <ele>1419</ele>
        <time>2018-04-02T12:18:35.000Z</time>
      </trkpt>
      <trkpt lat="42.96206" lon="0.85672">
        <ele>1418</ele>
        <time>2018-04-02T12:18:37.000Z</time>
      </trkpt>
      <trkpt lat="42.96204" lon="0.85672">
        <ele>1417</ele>
        <time>2018-04-02T12:18:39.000Z</time>
      </trkpt>
      <trkpt lat="42.96204" lon="0.85671">
        <ele>1418</ele>
        <time>2018-04-02T12:18:41.000Z</time>
      </trkpt>
      <trkpt lat="42.96205" lon="0.85672">
        <ele>1418</ele>
        <time>2018-04-02T12:18:43.000Z</time>
      </trkpt>
      <trkpt lat="42.96203" lon="0.85675">
        <ele>1417</ele>
        <time>2018-04-02T12:18:45.000Z</time>
      </trkpt>
      <trkpt lat="42.96199" lon="0.85681">
        <ele>1414</ele>
        <time>2018-04-02T12:18:47.000Z</time>
      </trkpt>
      <trkpt lat="42.96195" lon="0.85686">
        <ele>1412</ele>
        <time>2018-04-02T12:18:49.000Z</time>
      </trkpt>
      <trkpt lat="42.96191" lon="0.85692">
        <ele>1409</ele>
        <time>2018-04-02T12:18:51.000Z</time>
      </trkpt>
      <trkpt lat="42.96187" lon="0.85696">
        <ele>1407</ele>
        <time>2018-04-02T12:18:53.000Z</time>
      </trkpt>
      <trkpt lat="42.96183" lon="0.85697">
        <ele>1405</ele>
        <time>2018-04-02T12:18:55.000Z</time>
      </trkpt>
      <trkpt lat="42.9618" lon="0.85699">
        <ele>1403</ele>
        <time>2018-04-02T12:18:57.000Z</time>
      </trkpt>
      <trkpt lat="42.96178" lon="0.85699">
        <ele>1402</ele>
        <time>2018-04-02T12:18:59.000Z</time>
      </trkpt>
      <trkpt lat="42.96177" lon="0.857">
        <ele>1402</ele>
        <time>2018-04-02T12:19:01.000Z</time>
      </trkpt>
      <trkpt lat="42.96177" lon="0.85702">
        <ele>1401</ele>
        <time>2018-04-02T12:19:03.000Z</time>
      </trkpt>
      <trkpt lat="42.96176" lon="0.85704">
        <ele>1401</ele>
        <time>2018-04-02T12:19:05.000Z</time>
      </trkpt>
      <trkpt lat="42.96175" lon="0.85705">
        <ele>1400</ele>
        <time>2018-04-02T12:19:07.000Z</time>
      </trkpt>
      <trkpt lat="42.96175" lon="0.85707">
        <ele>1400</ele>
        <time>2018-04-02T12:19:09.000Z</time>
      </trkpt>
      <trkpt lat="42.96176" lon="0.85708">
        <ele>1400</ele>
        <time>2018-04-02T12:19:11.000Z</time>
      </trkpt>
      <trkpt lat="42.96177" lon="0.8571">
        <ele>1401</ele>
        <time>2018-04-02T12:19:13.000Z</time>
      </trkpt>
      <trkpt lat="42.96178" lon="0.8571">
        <ele>1401</ele>
        <time>2018-04-02T12:19:15.000Z</time>
      </trkpt>
      <trkpt lat="42.96177" lon="0.85711">
        <ele>1401</ele>
        <time>2018-04-02T12:19:17.000Z</time>
      </trkpt>
      <trkpt lat="42.96176" lon="0.85712">
        <ele>1400</ele>
        <time>2018-04-02T12:19:19.000Z</time>
      </trkpt>
      <trkpt lat="42.96175" lon="0.85714">
        <ele>1399</ele>
        <time>2018-04-02T12:19:21.000Z</time>
      </trkpt>
      <trkpt lat="42.96175" lon="0.85714">
        <ele>1399</ele>
        <time>2018-04-02T12:19:23.000Z</time>
      </trkpt>
      <trkpt lat="42.96175" lon="0.85714">
        <ele>1399</ele>
        <time>2018-04-02T12:19:25.000Z</time>
      </trkpt>
      <trkpt lat="42.96176" lon="0.85712">
        <ele>1400</ele>
        <time>2018-04-02T12:19:27.000Z</time>
      </trkpt>
      <trkpt lat="42.96176" lon="0.85712">
        <ele>1400</ele>
        <time>2018-04-02T12:19:29.000Z</time>
      </trkpt>
      <trkpt lat="42.96175" lon="0.85712">
        <ele>1400</ele>
        <time>2018-04-02T12:19:31.000Z</time>
      </trkpt>
      <trkpt lat="42.96175" lon="0.8571">
        <ele>1400</ele>
        <time>2018-04-02T12:19:33.000Z</time>
      </trkpt>
      <trkpt lat="42.96177" lon="0.85708">
        <ele>1401</ele>
        <time>2018-04-02T12:19:35.000Z</time>
      </trkpt>
      <trkpt lat="42.96178" lon="0.85705">
        <ele>1402</ele>
        <time>2018-04-02T12:19:37.000Z</time>
      </trkpt>
      <trkpt lat="42.96179" lon="0.85702">
        <ele>1403</ele>
        <time>2018-04-02T12:19:39.000Z</time>
      </trkpt>
      <trkpt lat="42.9618" lon="0.85699">
        <ele>1403</ele>
        <time>2018-04-02T12:19:41.000Z</time>
      </trkpt>
      <trkpt lat="42.96179" lon="0.85697">
        <ele>1403</ele>
        <time>2018-04-02T12:19:43.000Z</time>
      </trkpt>
      <trkpt lat="42.96179" lon="0.85694">
        <ele>1403</ele>
        <time>2018-04-02T12:19:45.000Z</time>
      </trkpt>
      <trkpt lat="42.96179" lon="0.8569">
        <ele>1404</ele>
        <time>2018-04-02T12:19:47.000Z</time>
      </trkpt>
      <trkpt lat="42.96178" lon="0.85687">
        <ele>1403</ele>
        <time>2018-04-02T12:19:49.000Z</time>
      </trkpt>
      <trkpt lat="42.96177" lon="0.85683">
        <ele>1403</ele>
        <time>2018-04-02T12:19:51.000Z</time>
      </trkpt>
      <trkpt lat="42.96177" lon="0.8568">
        <ele>1404</ele>
        <time>2018-04-02T12:19:53.000Z</time>
      </trkpt>
      <trkpt lat="42.96176" lon="0.85678">
        <ele>1403</ele>
        <time>2018-04-02T12:19:55.000Z</time>
      </trkpt>
      <trkpt lat="42.96175" lon="0.85677">
        <ele>1403</ele>
        <time>2018-04-02T12:19:57.000Z</time>
      </trkpt>
      <trkpt lat="42.96175" lon="0.85674">
        <ele>1403</ele>
        <time>2018-04-02T12:19:59.000Z</time>
      </trkpt>
      <trkpt lat="42.96174" lon="0.85675">
        <ele>1403</ele>
        <time>2018-04-02T12:20:01.000Z</time>
      </trkpt>
      <trkpt lat="42.96171" lon="0.85677">
        <ele>1403</ele>
        <time>2018-04-02T12:20:03.000Z</time>
      </trkpt>
      <trkpt lat="42.9617" lon="0.85677">
        <ele>1403</ele>
        <time>2018-04-02T12:20:05.000Z</time>
      </trkpt>
      <trkpt lat="42.96169" lon="0.85675">
        <ele>1403</ele>
        <time>2018-04-02T12:20:07.000Z</time>
      </trkpt>
      <trkpt lat="42.96168" lon="0.85674">
        <ele>1403</ele>
        <time>2018-04-02T12:20:09.000Z</time>
      </trkpt>
      <trkpt lat="42.96168" lon="0.85673">
        <ele>1403</ele>
        <time>2018-04-02T12:20:11.000Z</time>
      </trkpt>
      <trkpt lat="42.9617" lon="0.85671">
        <ele>1403</ele>
        <time>2018-04-02T12:20:13.000Z</time>
      </trkpt>
      <trkpt lat="42.96174" lon="0.85669">
        <ele>1404</ele>
        <time>2018-04-02T12:20:15.000Z</time>
      </trkpt>
      <trkpt lat="42.96179" lon="0.85667">
        <ele>1406</ele>
        <time>2018-04-02T12:20:17.000Z</time>
      </trkpt>
      <trkpt lat="42.96181" lon="0.85666">
        <ele>1407</ele>
        <time>2018-04-02T12:20:19.000Z</time>
      </trkpt>
      <trkpt lat="42.96181" lon="0.85666">
        <ele>1407</ele>
        <time>2018-04-02T12:20:21.000Z</time>
      </trkpt>
      <trkpt lat="42.96182" lon="0.85667">
        <ele>1407</ele>
        <time>2018-04-02T12:20:23.000Z</time>
      </trkpt>
      <trkpt lat="42.96182" lon="0.85667">
        <ele>1408</ele>
        <time>2018-04-02T12:20:25.000Z</time>
      </trkpt>
      <trkpt lat="42.96183" lon="0.85668">
        <ele>1408</ele>
        <time>2018-04-02T12:20:27.000Z</time>
      </trkpt>
      <trkpt lat="42.96183" lon="0.85669">
        <ele>1408</ele>
        <time>2018-04-02T12:20:29.000Z</time>
      </trkpt>
      <trkpt lat="42.96183" lon="0.85672">
        <ele>1408</ele>
        <time>2018-04-02T12:20:31.000Z</time>
      </trkpt>
      <trkpt lat="42.96178" lon="0.85677">
        <ele>1405</ele>
        <time>2018-04-02T12:20:33.000Z</time>
      </trkpt>
      <trkpt lat="42.9617" lon="0.85684">
        <ele>1402</ele>
        <time>2018-04-02T12:20:35.000Z</time>
      </trkpt>
      <trkpt lat="42.96163" lon="0.8569">
        <ele>1401</ele>
        <time>2018-04-02T12:20:37.000Z</time>
      </trkpt>
      <trkpt lat="42.96157" lon="0.85695">
        <ele>1400</ele>
        <time>2018-04-02T12:20:39.000Z</time>
      </trkpt>
      <trkpt lat="42.9615" lon="0.85697">
        <ele>1400</ele>
        <time>2018-04-02T12:20:41.000Z</time>
      </trkpt>
      <trkpt lat="42.9615" lon="0.85697">
        <ele>1400</ele>
        <time>2018-04-02T12:20:43.000Z</time>
      </trkpt>
      <trkpt lat="42.96156" lon="0.85693">
        <ele>1400</ele>
        <time>2018-04-02T12:20:45.000Z</time>
      </trkpt>
      <trkpt lat="42.96161" lon="0.85689">
        <ele>1401</ele>
        <time>2018-04-02T12:20:47.000Z</time>
      </trkpt>
      <trkpt lat="42.96169" lon="0.85683">
        <ele>1402</ele>
        <time>2018-04-02T12:20:49.000Z</time>
      </trkpt>
      <trkpt lat="42.96173" lon="0.85678">
        <ele>1403</ele>
        <time>2018-04-02T12:20:51.000Z</time>
      </trkpt>
      <trkpt lat="42.96173" lon="0.85675">
        <ele>1403</ele>
        <time>2018-04-02T12:20:53.000Z</time>
      </trkpt>
      <trkpt lat="42.96173" lon="0.85672">
        <ele>1403</ele>
        <time>2018-04-02T12:20:55.000Z</time>
      </trkpt>
      <trkpt lat="42.9618" lon="0.85661">
        <ele>1408</ele>
        <time>2018-04-02T12:20:57.000Z</time>
      </trkpt>
      <trkpt lat="42.96178" lon="0.85656">
        <ele>1407</ele>
        <time>2018-04-02T12:20:59.000Z</time>
      </trkpt>
      <trkpt lat="42.96178" lon="0.8565">
        <ele>1407</ele>
        <time>2018-04-02T12:21:01.000Z</time>
      </trkpt>
      <trkpt lat="42.96177" lon="0.85648">
        <ele>1407</ele>
        <time>2018-04-02T12:21:03.000Z</time>
      </trkpt>
      <trkpt lat="42.96174" lon="0.85655">
        <ele>1405</ele>
        <time>2018-04-02T12:21:05.000Z</time>
      </trkpt>
      <trkpt lat="42.96174" lon="0.85663">
        <ele>1404</ele>
        <time>2018-04-02T12:21:07.000Z</time>
      </trkpt>
      <trkpt lat="42.96174" lon="0.85668">
        <ele>1404</ele>
        <time>2018-04-02T12:21:09.000Z</time>
      </trkpt>
      <trkpt lat="42.96173" lon="0.85669">
        <ele>1404</ele>
        <time>2018-04-02T12:21:11.000Z</time>
      </trkpt>
      <trkpt lat="42.96173" lon="0.8567">
        <ele>1404</ele>
        <time>2018-04-02T12:21:13.000Z</time>
      </trkpt>
      <trkpt lat="42.96172" lon="0.85674">
        <ele>1403</ele>
        <time>2018-04-02T12:21:15.000Z</time>
      </trkpt>
      <trkpt lat="42.96172" lon="0.85676">
        <ele>1403</ele>
        <time>2018-04-02T12:21:17.000Z</time>
      </trkpt>
      <trkpt lat="42.96171" lon="0.85678">
        <ele>1403</ele>
        <time>2018-04-02T12:21:19.000Z</time>
      </trkpt>
      <trkpt lat="42.96171" lon="0.85678">
        <ele>1403</ele>
        <time>2018-04-02T12:21:21.000Z</time>
      </trkpt>
      <trkpt lat="42.96171" lon="0.85678">
        <ele>1403</ele>
        <time>2018-04-02T12:21:23.000Z</time>
      </trkpt>
      <trkpt lat="42.96171" lon="0.85679">
        <ele>1403</ele>
        <time>2018-04-02T12:21:25.000Z</time>
      </trkpt>
      <trkpt lat="42.96171" lon="0.85679">
        <ele>1403</ele>
        <time>2018-04-02T12:21:27.000Z</time>
      </trkpt>
      <trkpt lat="42.96171" lon="0.85679">
        <ele>1403</ele>
        <time>2018-04-02T12:21:29.000Z</time>
      </trkpt>
      <trkpt lat="42.96172" lon="0.85679">
        <ele>1403</ele>
        <time>2018-04-02T12:21:31.000Z</time>
      </trkpt>
      <trkpt lat="42.96171" lon="0.85678">
        <ele>1403</ele>
        <time>2018-04-02T12:21:33.000Z</time>
      </trkpt>
      <trkpt lat="42.96171" lon="0.85676">
        <ele>1403</ele>
        <time>2018-04-02T12:21:35.000Z</time>
      </trkpt>
      <trkpt lat="42.96171" lon="0.85674">
        <ele>1403</ele>
        <time>2018-04-02T12:21:37.000Z</time>
      </trkpt>
      <trkpt lat="42.9617" lon="0.85673">
        <ele>1403</ele>
        <time>2018-04-02T12:21:39.000Z</time>
      </trkpt>
      <trkpt lat="42.96169" lon="0.85675">
        <ele>1403</ele>
        <time>2018-04-02T12:21:41.000Z</time>
      </trkpt>
      <trkpt lat="42.96169" lon="0.85676">
        <ele>1403</ele>
        <time>2018-04-02T12:21:43.000Z</time>
      </trkpt>
      <trkpt lat="42.96169" lon="0.85677">
        <ele>1403</ele>
        <time>2018-04-02T12:21:45.000Z</time>
      </trkpt>
      <trkpt lat="42.96169" lon="0.85677">
        <ele>1403</ele>
        <time>2018-04-02T12:21:47.000Z</time>
      </trkpt>
      <trkpt lat="42.96168" lon="0.85679">
        <ele>1402</ele>
        <time>2018-04-02T12:21:49.000Z</time>
      </trkpt>
      <trkpt lat="42.96166" lon="0.85679">
        <ele>1402</ele>
        <time>2018-04-02T12:21:51.000Z</time>
      </trkpt>
      <trkpt lat="42.96164" lon="0.85678">
        <ele>1402</ele>
        <time>2018-04-02T12:21:53.000Z</time>
      </trkpt>
      <trkpt lat="42.96162" lon="0.85677">
        <ele>1402</ele>
        <time>2018-04-02T12:21:55.000Z</time>
      </trkpt>
      <trkpt lat="42.96161" lon="0.85677">
        <ele>1402</ele>
        <time>2018-04-02T12:21:57.000Z</time>
      </trkpt>
      <trkpt lat="42.96159" lon="0.85677">
        <ele>1402</ele>
        <time>2018-04-02T12:21:59.000Z</time>
      </trkpt>
      <trkpt lat="42.96159" lon="0.85677">
        <ele>1402</ele>
        <time>2018-04-02T12:22:01.000Z</time>
      </trkpt>
      <trkpt lat="42.96159" lon="0.85681">
        <ele>1402</ele>
        <time>2018-04-02T12:22:03.000Z</time>
      </trkpt>
      <trkpt lat="42.96158" lon="0.85686">
        <ele>1401</ele>
        <time>2018-04-02T12:22:05.000Z</time>
      </trkpt>
      <trkpt lat="42.96157" lon="0.8569">
        <ele>1401</ele>
        <time>2018-04-02T12:22:07.000Z</time>
      </trkpt>
      <trkpt lat="42.96152" lon="0.85696">
        <ele>1400</ele>
        <time>2018-04-02T12:22:09.000Z</time>
      </trkpt>
      <trkpt lat="42.96147" lon="0.85707">
        <ele>1400</ele>
        <time>2018-04-02T12:22:11.000Z</time>
      </trkpt>
      <trkpt lat="42.96142" lon="0.85716">
        <ele>1400</ele>
        <time>2018-04-02T12:22:13.000Z</time>
      </trkpt>
      <trkpt lat="42.96138" lon="0.85728">
        <ele>1400</ele>
        <time>2018-04-02T12:22:15.000Z</time>
      </trkpt>
      <trkpt lat="42.96136" lon="0.85742">
        <ele>1399</ele>
        <time>2018-04-02T12:22:17.000Z</time>
      </trkpt>
      <trkpt lat="42.96146" lon="0.85746">
        <ele>1399</ele>
        <time>2018-04-02T12:22:19.000Z</time>
      </trkpt>
      <trkpt lat="42.96154" lon="0.85755">
        <ele>1398</ele>
        <time>2018-04-02T12:22:21.000Z</time>
      </trkpt>
      <trkpt lat="42.96162" lon="0.85762">
        <ele>1397</ele>
        <time>2018-04-02T12:22:23.000Z</time>
      </trkpt>
      <trkpt lat="42.96171" lon="0.85769">
        <ele>1396</ele>
        <time>2018-04-02T12:22:25.000Z</time>
      </trkpt>
      <trkpt lat="42.96173" lon="0.85779">
        <ele>1395</ele>
        <time>2018-04-02T12:22:27.000Z</time>
      </trkpt>
      <trkpt lat="42.9618" lon="0.85789">
        <ele>1397</ele>
        <time>2018-04-02T12:22:29.000Z</time>
      </trkpt>
      <trkpt lat="42.96185" lon="0.85796">
        <ele>1398</ele>
        <time>2018-04-02T12:22:31.000Z</time>
      </trkpt>
      <trkpt lat="42.9619" lon="0.85799">
        <ele>1399</ele>
        <time>2018-04-02T12:22:33.000Z</time>
      </trkpt>
      <trkpt lat="42.96194" lon="0.85804">
        <ele>1401</ele>
        <time>2018-04-02T12:22:35.000Z</time>
      </trkpt>
      <trkpt lat="42.96197" lon="0.85809">
        <ele>1401</ele>
        <time>2018-04-02T12:22:37.000Z</time>
      </trkpt>
      <trkpt lat="42.96203" lon="0.85819">
        <ele>1400</ele>
        <time>2018-04-02T12:22:39.000Z</time>
      </trkpt>
      <trkpt lat="42.96208" lon="0.85831">
        <ele>1398</ele>
        <time>2018-04-02T12:22:41.000Z</time>
      </trkpt>
      <trkpt lat="42.96211" lon="0.85845">
        <ele>1396</ele>
        <time>2018-04-02T12:22:43.000Z</time>
      </trkpt>
      <trkpt lat="42.96216" lon="0.85858">
        <ele>1396</ele>
        <time>2018-04-02T12:22:45.000Z</time>
      </trkpt>
      <trkpt lat="42.96227" lon="0.85869">
        <ele>1397</ele>
        <time>2018-04-02T12:22:47.000Z</time>
      </trkpt>
      <trkpt lat="42.96239" lon="0.85863">
        <ele>1401</ele>
        <time>2018-04-02T12:22:49.000Z</time>
      </trkpt>
      <trkpt lat="42.96226" lon="0.85833">
        <ele>1404</ele>
        <time>2018-04-02T12:22:51.000Z</time>
      </trkpt>
      <trkpt lat="42.96194" lon="0.85766">
        <ele>1403</ele>
        <time>2018-04-02T12:22:53.000Z</time>
      </trkpt>
      <trkpt lat="42.96185" lon="0.85732">
        <ele>1401</ele>
        <time>2018-04-02T12:22:55.000Z</time>
      </trkpt>
      <trkpt lat="42.96183" lon="0.85746">
        <ele>1400</ele>
        <time>2018-04-02T12:22:57.000Z</time>
      </trkpt>
      <trkpt lat="42.96176" lon="0.85727">
        <ele>1398</ele>
        <time>2018-04-02T12:22:59.000Z</time>
      </trkpt>
      <trkpt lat="42.96172" lon="0.85722">
        <ele>1398</ele>
        <time>2018-04-02T12:23:01.000Z</time>
      </trkpt>
      <trkpt lat="42.96169" lon="0.85719">
        <ele>1398</ele>
        <time>2018-04-02T12:23:03.000Z</time>
      </trkpt>
      <trkpt lat="42.96167" lon="0.85713">
        <ele>1399</ele>
        <time>2018-04-02T12:23:05.000Z</time>
      </trkpt>
      <trkpt lat="42.96164" lon="0.85701">
        <ele>1400</ele>
        <time>2018-04-02T12:23:07.000Z</time>
      </trkpt>
      <trkpt lat="42.96163" lon="0.85693">
        <ele>1401</ele>
        <time>2018-04-02T12:23:09.000Z</time>
      </trkpt>
      <trkpt lat="42.96162" lon="0.85689">
        <ele>1401</ele>
        <time>2018-04-02T12:23:11.000Z</time>
      </trkpt>
      <trkpt lat="42.96161" lon="0.85685">
        <ele>1401</ele>
        <time>2018-04-02T12:23:13.000Z</time>
      </trkpt>
      <trkpt lat="42.96161" lon="0.85683">
        <ele>1402</ele>
        <time>2018-04-02T12:23:15.000Z</time>
      </trkpt>
      <trkpt lat="42.9616" lon="0.85682">
        <ele>1402</ele>
        <time>2018-04-02T12:23:17.000Z</time>
      </trkpt>
      <trkpt lat="42.9616" lon="0.85682">
        <ele>1402</ele>
        <time>2018-04-02T12:23:19.000Z</time>
      </trkpt>
      <trkpt lat="42.9616" lon="0.85682">
        <ele>1402</ele>
        <time>2018-04-02T12:23:21.000Z</time>
      </trkpt>
      <trkpt lat="42.9616" lon="0.85682">
        <ele>1402</ele>
        <time>2018-04-02T12:23:23.000Z</time>
      </trkpt>
      <trkpt lat="42.9616" lon="0.85682">
        <ele>1402</ele>
        <time>2018-04-02T12:23:25.000Z</time>
      </trkpt>
      <trkpt lat="42.9616" lon="0.85682">
        <ele>1402</ele>
        <time>2018-04-02T12:23:27.000Z</time>
      </trkpt>
      <trkpt lat="42.9616" lon="0.85681">
        <ele>1402</ele>
        <time>2018-04-02T12:23:29.000Z</time>
      </trkpt>
      <trkpt lat="42.9616" lon="0.8568">
        <ele>1402</ele>
        <time>2018-04-02T12:23:31.000Z</time>
      </trkpt>
      <trkpt lat="42.9616" lon="0.8568">
        <ele>1402</ele>
        <time>2018-04-02T12:23:33.000Z</time>
      </trkpt>
      <trkpt lat="42.9616" lon="0.85679">
        <ele>1402</ele>
        <time>2018-04-02T12:23:35.000Z</time>
      </trkpt>
      <trkpt lat="42.9616" lon="0.8568">
        <ele>1402</ele>
        <time>2018-04-02T12:23:37.000Z</time>
      </trkpt>
      <trkpt lat="42.96159" lon="0.85679">
        <ele>1402</ele>
        <time>2018-04-02T12:23:39.000Z</time>
      </trkpt>
      <trkpt lat="42.96159" lon="0.85679">
        <ele>1402</ele>
        <time>2018-04-02T12:23:41.000Z</time>
      </trkpt>
      <trkpt lat="42.96159" lon="0.85679">
        <ele>1402</ele>
        <time>2018-04-02T12:23:43.000Z</time>
      </trkpt>
      <trkpt lat="42.96159" lon="0.85679">
        <ele>1402</ele>
        <time>2018-04-02T12:23:45.000Z</time>
      </trkpt>
      <trkpt lat="42.96158" lon="0.8568">
        <ele>1402</ele>
        <time>2018-04-02T12:23:47.000Z</time>
      </trkpt>
      <trkpt lat="42.96158" lon="0.8568">
        <ele>1402</ele>
        <time>2018-04-02T12:23:49.000Z</time>
      </trkpt>
      <trkpt lat="42.96159" lon="0.8568">
        <ele>1402</ele>
        <time>2018-04-02T12:23:51.000Z</time>
      </trkpt>
      <trkpt lat="42.96159" lon="0.8568">
        <ele>1402</ele>
        <time>2018-04-02T12:23:53.000Z</time>
      </trkpt>
      <trkpt lat="42.9616" lon="0.85681">
        <ele>1402</ele>
        <time>2018-04-02T12:23:55.000Z</time>
      </trkpt>
      <trkpt lat="42.9616" lon="0.8568">
        <ele>1402</ele>
        <time>2018-04-02T12:23:57.000Z</time>
      </trkpt>
      <trkpt lat="42.96161" lon="0.85681">
        <ele>1402</ele>
        <time>2018-04-02T12:23:59.000Z</time>
      </trkpt>
      <trkpt lat="42.96162" lon="0.85681">
        <ele>1402</ele>
        <time>2018-04-02T12:24:01.000Z</time>
      </trkpt>
      <trkpt lat="42.96163" lon="0.85679">
        <ele>1402</ele>
        <time>2018-04-02T12:24:03.000Z</time>
      </trkpt>
      <trkpt lat="42.96163" lon="0.85679">
        <ele>1402</ele>
        <time>2018-04-02T12:24:05.000Z</time>
      </trkpt>
      <trkpt lat="42.96163" lon="0.85679">
        <ele>1402</ele>
        <time>2018-04-02T12:24:07.000Z</time>
      </trkpt>
      <trkpt lat="42.96163" lon="0.85679">
        <ele>1402</ele>
        <time>2018-04-02T12:24:09.000Z</time>
      </trkpt>
      <trkpt lat="42.96163" lon="0.85678">
        <ele>1402</ele>
        <time>2018-04-02T12:24:11.000Z</time>
      </trkpt>
      <trkpt lat="42.96163" lon="0.85678">
        <ele>1402</ele>
        <time>2018-04-02T12:24:13.000Z</time>
      </trkpt>
      <trkpt lat="42.96163" lon="0.85679">
        <ele>1402</ele>
        <time>2018-04-02T12:24:15.000Z</time>
      </trkpt>
      <trkpt lat="42.96163" lon="0.85679">
        <ele>1402</ele>
        <time>2018-04-02T12:24:17.000Z</time>
      </trkpt>
      <trkpt lat="42.96163" lon="0.85679">
        <ele>1402</ele>
        <time>2018-04-02T12:24:19.000Z</time>
      </trkpt>
      <trkpt lat="42.96163" lon="0.85679">
        <ele>1402</ele>
        <time>2018-04-02T12:24:21.000Z</time>
      </trkpt>
      <trkpt lat="42.96163" lon="0.85678">
        <ele>1402</ele>
        <time>2018-04-02T12:24:23.000Z</time>
      </trkpt>
      <trkpt lat="42.96163" lon="0.85678">
        <ele>1402</ele>
        <time>2018-04-02T12:24:25.000Z</time>
      </trkpt>
      <trkpt lat="42.96163" lon="0.85678">
        <ele>1402</ele>
        <time>2018-04-02T12:24:27.000Z</time>
      </trkpt>
      <trkpt lat="42.96164" lon="0.85677">
        <ele>1402</ele>
        <time>2018-04-02T12:24:29.000Z</time>
      </trkpt>
      <trkpt lat="42.96164" lon="0.85676">
        <ele>1403</ele>
        <time>2018-04-02T12:24:31.000Z</time>
      </trkpt>
      <trkpt lat="42.96164" lon="0.85676">
        <ele>1403</ele>
        <time>2018-04-02T12:24:33.000Z</time>
      </trkpt>
      <trkpt lat="42.96164" lon="0.85676">
        <ele>1403</ele>
        <time>2018-04-02T12:24:35.000Z</time>
      </trkpt>
      <trkpt lat="42.96164" lon="0.85677">
        <ele>1402</ele>
        <time>2018-04-02T12:24:37.000Z</time>
      </trkpt>
      <trkpt lat="42.96164" lon="0.85677">
        <ele>1402</ele>
        <time>2018-04-02T12:24:39.000Z</time>
      </trkpt>
      <trkpt lat="42.96164" lon="0.85678">
        <ele>1402</ele>
        <time>2018-04-02T12:24:41.000Z</time>
      </trkpt>
      <trkpt lat="42.96164" lon="0.85678">
        <ele>1402</ele>
        <time>2018-04-02T12:24:43.000Z</time>
      </trkpt>
      <trkpt lat="42.96164" lon="0.85678">
        <ele>1402</ele>
        <time>2018-04-02T12:24:45.000Z</time>
      </trkpt>
      <trkpt lat="42.96163" lon="0.85679">
        <ele>1402</ele>
        <time>2018-04-02T12:24:47.000Z</time>
      </trkpt>
      <trkpt lat="42.96163" lon="0.85679">
        <ele>1402</ele>
        <time>2018-04-02T12:24:49.000Z</time>
      </trkpt>
      <trkpt lat="42.96163" lon="0.85679">
        <ele>1402</ele>
        <time>2018-04-02T12:24:51.000Z</time>
      </trkpt>
      <trkpt lat="42.96163" lon="0.8568">
        <ele>1402</ele>
        <time>2018-04-02T12:24:53.000Z</time>
      </trkpt>
      <trkpt lat="42.96163" lon="0.85681">
        <ele>1402</ele>
        <time>2018-04-02T12:24:55.000Z</time>
      </trkpt>
      <trkpt lat="42.96163" lon="0.85681">
        <ele>1402</ele>
        <time>2018-04-02T12:24:57.000Z</time>
      </trkpt>
      <trkpt lat="42.96163" lon="0.8568">
        <ele>1402</ele>
        <time>2018-04-02T12:24:59.000Z</time>
      </trkpt>
      <trkpt lat="42.96163" lon="0.8568">
        <ele>1402</ele>
        <time>2018-04-02T12:25:01.000Z</time>
      </trkpt>
      <trkpt lat="42.96163" lon="0.8568">
        <ele>1402</ele>
        <time>2018-04-02T12:25:03.000Z</time>
      </trkpt>
      <trkpt lat="42.96163" lon="0.85679">
        <ele>1402</ele>
        <time>2018-04-02T12:25:05.000Z</time>
      </trkpt>
      <trkpt lat="42.96163" lon="0.8568">
        <ele>1402</ele>
        <time>2018-04-02T12:25:07.000Z</time>
      </trkpt>
      <trkpt lat="42.96163" lon="0.8568">
        <ele>1402</ele>
        <time>2018-04-02T12:25:09.000Z</time>
      </trkpt>
      <trkpt lat="42.96163" lon="0.85681">
        <ele>1402</ele>
        <time>2018-04-02T12:25:11.000Z</time>
      </trkpt>
      <trkpt lat="42.96163" lon="0.85682">
        <ele>1402</ele>
        <time>2018-04-02T12:25:13.000Z</time>
      </trkpt>
      <trkpt lat="42.96162" lon="0.85681">
        <ele>1402</ele>
        <time>2018-04-02T12:25:15.000Z</time>
      </trkpt>
      <trkpt lat="42.96162" lon="0.8568">
        <ele>1402</ele>
        <time>2018-04-02T12:25:17.000Z</time>
      </trkpt>
      <trkpt lat="42.96161" lon="0.8568">
        <ele>1402</ele>
        <time>2018-04-02T12:25:19.000Z</time>
      </trkpt>
      <trkpt lat="42.96161" lon="0.8568">
        <ele>1402</ele>
        <time>2018-04-02T12:25:21.000Z</time>
      </trkpt>
      <trkpt lat="42.96162" lon="0.85679">
        <ele>1402</ele>
        <time>2018-04-02T12:25:23.000Z</time>
      </trkpt>
      <trkpt lat="42.96162" lon="0.85679">
        <ele>1402</ele>
        <time>2018-04-02T12:25:25.000Z</time>
      </trkpt>
      <trkpt lat="42.96162" lon="0.85679">
        <ele>1402</ele>
        <time>2018-04-02T12:25:27.000Z</time>
      </trkpt>
      <trkpt lat="42.96162" lon="0.8568">
        <ele>1402</ele>
        <time>2018-04-02T12:25:29.000Z</time>
      </trkpt>
      <trkpt lat="42.96162" lon="0.8568">
        <ele>1402</ele>
        <time>2018-04-02T12:25:31.000Z</time>
      </trkpt>
      <trkpt lat="42.96162" lon="0.8568">
        <ele>1402</ele>
        <time>2018-04-02T12:25:33.000Z</time>
      </trkpt>
      <trkpt lat="42.96162" lon="0.85679">
        <ele>1402</ele>
        <time>2018-04-02T12:25:35.000Z</time>
      </trkpt>
      <trkpt lat="42.96162" lon="0.85678">
        <ele>1402</ele>
        <time>2018-04-02T12:25:37.000Z</time>
      </trkpt>
      <trkpt lat="42.96163" lon="0.85678">
        <ele>1402</ele>
        <time>2018-04-02T12:25:39.000Z</time>
      </trkpt>
      <trkpt lat="42.96163" lon="0.85678">
        <ele>1402</ele>
        <time>2018-04-02T12:25:41.000Z</time>
      </trkpt>
      <trkpt lat="42.96163" lon="0.85677">
        <ele>1402</ele>
        <time>2018-04-02T12:25:43.000Z</time>
      </trkpt>
      <trkpt lat="42.96162" lon="0.85677">
        <ele>1402</ele>
        <time>2018-04-02T12:25:45.000Z</time>
      </trkpt>
      <trkpt lat="42.96162" lon="0.85676">
        <ele>1402</ele>
        <time>2018-04-02T12:25:47.000Z</time>
      </trkpt>
      <trkpt lat="42.96162" lon="0.85676">
        <ele>1402</ele>
        <time>2018-04-02T12:25:49.000Z</time>
      </trkpt>
      <trkpt lat="42.96161" lon="0.85677">
        <ele>1402</ele>
        <time>2018-04-02T12:25:51.000Z</time>
      </trkpt>
      <trkpt lat="42.96161" lon="0.85677">
        <ele>1402</ele>
        <time>2018-04-02T12:25:53.000Z</time>
      </trkpt>
      <trkpt lat="42.96161" lon="0.85678">
        <ele>1402</ele>
        <time>2018-04-02T12:25:55.000Z</time>
      </trkpt>
      <trkpt lat="42.9616" lon="0.85678">
        <ele>1402</ele>
        <time>2018-04-02T12:25:57.000Z</time>
      </trkpt>
      <trkpt lat="42.9616" lon="0.85678">
        <ele>1402</ele>
        <time>2018-04-02T12:25:59.000Z</time>
      </trkpt>
      <trkpt lat="42.96161" lon="0.85678">
        <ele>1402</ele>
        <time>2018-04-02T12:26:01.000Z</time>
      </trkpt>
      <trkpt lat="42.96161" lon="0.85679">
        <ele>1402</ele>
        <time>2018-04-02T12:26:03.000Z</time>
      </trkpt>
      <trkpt lat="42.96161" lon="0.85679">
        <ele>1402</ele>
        <time>2018-04-02T12:26:05.000Z</time>
      </trkpt>
      <trkpt lat="42.96161" lon="0.85678">
        <ele>1402</ele>
        <time>2018-04-02T12:26:07.000Z</time>
      </trkpt>
      <trkpt lat="42.96161" lon="0.85678">
        <ele>1402</ele>
        <time>2018-04-02T12:26:09.000Z</time>
      </trkpt>
      <trkpt lat="42.96161" lon="0.85678">
        <ele>1402</ele>
        <time>2018-04-02T12:26:11.000Z</time>
      </trkpt>
      <trkpt lat="42.96162" lon="0.85678">
        <ele>1402</ele>
        <time>2018-04-02T12:26:13.000Z</time>
      </trkpt>
      <trkpt lat="42.96162" lon="0.85678">
        <ele>1402</ele>
        <time>2018-04-02T12:26:15.000Z</time>
      </trkpt>
      <trkpt lat="42.96163" lon="0.85677">
        <ele>1402</ele>
        <time>2018-04-02T12:26:17.000Z</time>
      </trkpt>
      <trkpt lat="42.96163" lon="0.85677">
        <ele>1402</ele>
        <time>2018-04-02T12:26:19.000Z</time>
      </trkpt>
      <trkpt lat="42.96163" lon="0.85677">
        <ele>1402</ele>
        <time>2018-04-02T12:26:21.000Z</time>
      </trkpt>
      <trkpt lat="42.96163" lon="0.85677">
        <ele>1402</ele>
        <time>2018-04-02T12:26:23.000Z</time>
      </trkpt>
      <trkpt lat="42.96163" lon="0.85676">
        <ele>1402</ele>
        <time>2018-04-02T12:26:25.000Z</time>
      </trkpt>
      <trkpt lat="42.96162" lon="0.85677">
        <ele>1402</ele>
        <time>2018-04-02T12:26:27.000Z</time>
      </trkpt>
      <trkpt lat="42.96163" lon="0.85677">
        <ele>1402</ele>
        <time>2018-04-02T12:26:29.000Z</time>
      </trkpt>
      <trkpt lat="42.96163" lon="0.85677">
        <ele>1402</ele>
        <time>2018-04-02T12:26:31.000Z</time>
      </trkpt>
      <trkpt lat="42.96163" lon="0.85678">
        <ele>1402</ele>
        <time>2018-04-02T12:26:33.000Z</time>
      </trkpt>
      <trkpt lat="42.96163" lon="0.85678">
        <ele>1402</ele>
        <time>2018-04-02T12:26:35.000Z</time>
      </trkpt>
      <trkpt lat="42.96163" lon="0.85679">
        <ele>1402</ele>
        <time>2018-04-02T12:26:37.000Z</time>
      </trkpt>
      <trkpt lat="42.96162" lon="0.85681">
        <ele>1402</ele>
        <time>2018-04-02T12:26:39.000Z</time>
      </trkpt>
      <trkpt lat="42.96162" lon="0.85681">
        <ele>1402</ele>
        <time>2018-04-02T12:26:41.000Z</time>
      </trkpt>
      <trkpt lat="42.96162" lon="0.85682">
        <ele>1402</ele>
        <time>2018-04-02T12:26:43.000Z</time>
      </trkpt>
      <trkpt lat="42.96162" lon="0.85683">
        <ele>1402</ele>
        <time>2018-04-02T12:26:45.000Z</time>
      </trkpt>
      <trkpt lat="42.96162" lon="0.85684">
        <ele>1402</ele>
        <time>2018-04-02T12:26:47.000Z</time>
      </trkpt>
      <trkpt lat="42.96162" lon="0.85684">
        <ele>1402</ele>
        <time>2018-04-02T12:26:49.000Z</time>
      </trkpt>
      <trkpt lat="42.96162" lon="0.85685">
        <ele>1401</ele>
        <time>2018-04-02T12:26:51.000Z</time>
      </trkpt>
      <trkpt lat="42.96162" lon="0.85684">
        <ele>1402</ele>
        <time>2018-04-02T12:26:53.000Z</time>
      </trkpt>
      <trkpt lat="42.96162" lon="0.85683">
        <ele>1402</ele>
        <time>2018-04-02T12:26:55.000Z</time>
      </trkpt>
      <trkpt lat="42.96161" lon="0.85682">
        <ele>1402</ele>
        <time>2018-04-02T12:26:57.000Z</time>
      </trkpt>
      <trkpt lat="42.96161" lon="0.85682">
        <ele>1402</ele>
        <time>2018-04-02T12:26:59.000Z</time>
      </trkpt>
      <trkpt lat="42.96161" lon="0.85682">
        <ele>1402</ele>
        <time>2018-04-02T12:27:01.000Z</time>
      </trkpt>
      <trkpt lat="42.96161" lon="0.85682">
        <ele>1402</ele>
        <time>2018-04-02T12:27:03.000Z</time>
      </trkpt>
      <trkpt lat="42.96161" lon="0.85682">
        <ele>1402</ele>
        <time>2018-04-02T12:27:05.000Z</time>
      </trkpt>
      <trkpt lat="42.96161" lon="0.85681">
        <ele>1402</ele>
        <time>2018-04-02T12:27:07.000Z</time>
      </trkpt>
      <trkpt lat="42.9616" lon="0.85682">
        <ele>1402</ele>
        <time>2018-04-02T12:27:09.000Z</time>
      </trkpt>
      <trkpt lat="42.9616" lon="0.85681">
        <ele>1402</ele>
        <time>2018-04-02T12:27:11.000Z</time>
      </trkpt>
      <trkpt lat="42.9616" lon="0.85681">
        <ele>1402</ele>
        <time>2018-04-02T12:27:13.000Z</time>
      </trkpt>
      <trkpt lat="42.9616" lon="0.8568">
        <ele>1402</ele>
        <time>2018-04-02T12:27:15.000Z</time>
      </trkpt>
      <trkpt lat="42.9616" lon="0.8568">
        <ele>1402</ele>
        <time>2018-04-02T12:27:17.000Z</time>
      </trkpt>
      <trkpt lat="42.96161" lon="0.8568">
        <ele>1402</ele>
        <time>2018-04-02T12:27:19.000Z</time>
      </trkpt>
      <trkpt lat="42.96161" lon="0.8568">
        <ele>1402</ele>
        <time>2018-04-02T12:27:21.000Z</time>
      </trkpt>
      <trkpt lat="42.96161" lon="0.8568">
        <ele>1402</ele>
        <time>2018-04-02T12:27:23.000Z</time>
      </trkpt>
      <trkpt lat="42.96161" lon="0.8568">
        <ele>1402</ele>
        <time>2018-04-02T12:27:25.000Z</time>
      </trkpt>
      <trkpt lat="42.96161" lon="0.8568">
        <ele>1402</ele>
        <time>2018-04-02T12:27:27.000Z</time>
      </trkpt>
      <trkpt lat="42.96161" lon="0.8568">
        <ele>1402</ele>
        <time>2018-04-02T12:27:29.000Z</time>
      </trkpt>
      <trkpt lat="42.96161" lon="0.85681">
        <ele>1402</ele>
        <time>2018-04-02T12:27:31.000Z</time>
      </trkpt>
      <trkpt lat="42.96161" lon="0.85681">
        <ele>1402</ele>
        <time>2018-04-02T12:27:33.000Z</time>
      </trkpt>
      <trkpt lat="42.96161" lon="0.85681">
        <ele>1402</ele>
        <time>2018-04-02T12:27:35.000Z</time>
      </trkpt>
      <trkpt lat="42.96161" lon="0.85684">
        <ele>1402</ele>
        <time>2018-04-02T12:27:37.000Z</time>
      </trkpt>
      <trkpt lat="42.9616" lon="0.85687">
        <ele>1401</ele>
        <time>2018-04-02T12:27:39.000Z</time>
      </trkpt>
      <trkpt lat="42.9616" lon="0.85688">
        <ele>1401</ele>
        <time>2018-04-02T12:27:41.000Z</time>
      </trkpt>
      <trkpt lat="42.9616" lon="0.85689">
        <ele>1401</ele>
        <time>2018-04-02T12:27:43.000Z</time>
      </trkpt>
      <trkpt lat="42.9616" lon="0.85689">
        <ele>1401</ele>
        <time>2018-04-02T12:27:45.000Z</time>
      </trkpt>
      <trkpt lat="42.9616" lon="0.85689">
        <ele>1401</ele>
        <time>2018-04-02T12:27:47.000Z</time>
      </trkpt>
      <trkpt lat="42.96159" lon="0.85689">
        <ele>1401</ele>
        <time>2018-04-02T12:27:49.000Z</time>
      </trkpt>
      <trkpt lat="42.96159" lon="0.85689">
        <ele>1401</ele>
        <time>2018-04-02T12:27:51.000Z</time>
      </trkpt>
      <trkpt lat="42.96159" lon="0.85689">
        <ele>1401</ele>
        <time>2018-04-02T12:27:53.000Z</time>
      </trkpt>
      <trkpt lat="42.96159" lon="0.85689">
        <ele>1401</ele>
        <time>2018-04-02T12:27:55.000Z</time>
      </trkpt>
      <trkpt lat="42.96159" lon="0.85689">
        <ele>1401</ele>
        <time>2018-04-02T12:27:57.000Z</time>
      </trkpt>
      <trkpt lat="42.96159" lon="0.85689">
        <ele>1401</ele>
        <time>2018-04-02T12:27:59.000Z</time>
      </trkpt>
      <trkpt lat="42.96159" lon="0.85689">
        <ele>1401</ele>
        <time>2018-04-02T12:28:01.000Z</time>
      </trkpt>
      <trkpt lat="42.96159" lon="0.85689">
        <ele>1401</ele>
        <time>2018-04-02T12:28:03.000Z</time>
      </trkpt>
      <trkpt lat="42.96158" lon="0.8569">
        <ele>1401</ele>
        <time>2018-04-02T12:28:05.000Z</time>
      </trkpt>
      <trkpt lat="42.96158" lon="0.8569">
        <ele>1401</ele>
        <time>2018-04-02T12:28:07.000Z</time>
      </trkpt>
      <trkpt lat="42.96158" lon="0.8569">
        <ele>1401</ele>
        <time>2018-04-02T12:28:09.000Z</time>
      </trkpt>
      <trkpt lat="42.96158" lon="0.8569">
        <ele>1401</ele>
        <time>2018-04-02T12:28:11.000Z</time>
      </trkpt>
      <trkpt lat="42.96158" lon="0.85689">
        <ele>1401</ele>
        <time>2018-04-02T12:28:13.000Z</time>
      </trkpt>
      <trkpt lat="42.96158" lon="0.85689">
        <ele>1401</ele>
        <time>2018-04-02T12:28:15.000Z</time>
      </trkpt>
      <trkpt lat="42.96158" lon="0.85689">
        <ele>1401</ele>
        <time>2018-04-02T12:28:17.000Z</time>
      </trkpt>
      <trkpt lat="42.96158" lon="0.8569">
        <ele>1401</ele>
        <time>2018-04-02T12:28:19.000Z</time>
      </trkpt>
      <trkpt lat="42.96158" lon="0.8569">
        <ele>1401</ele>
        <time>2018-04-02T12:28:21.000Z</time>
      </trkpt>
      <trkpt lat="42.96158" lon="0.8569">
        <ele>1401</ele>
        <time>2018-04-02T12:28:23.000Z</time>
      </trkpt>
      <trkpt lat="42.96159" lon="0.8569">
        <ele>1401</ele>
        <time>2018-04-02T12:28:25.000Z</time>
      </trkpt>
      <trkpt lat="42.96159" lon="0.85691">
        <ele>1401</ele>
        <time>2018-04-02T12:28:27.000Z</time>
      </trkpt>
      <trkpt lat="42.96159" lon="0.8569">
        <ele>1401</ele>
        <time>2018-04-02T12:28:29.000Z</time>
      </trkpt>
      <trkpt lat="42.96158" lon="0.8569">
        <ele>1401</ele>
        <time>2018-04-02T12:28:31.000Z</time>
      </trkpt>
      <trkpt lat="42.96159" lon="0.8569">
        <ele>1401</ele>
        <time>2018-04-02T12:28:33.000Z</time>
      </trkpt>
      <trkpt lat="42.96159" lon="0.85689">
        <ele>1401</ele>
        <time>2018-04-02T12:28:35.000Z</time>
      </trkpt>
      <trkpt lat="42.96159" lon="0.85688">
        <ele>1401</ele>
        <time>2018-04-02T12:28:37.000Z</time>
      </trkpt>
      <trkpt lat="42.96159" lon="0.85688">
        <ele>1401</ele>
        <time>2018-04-02T12:28:39.000Z</time>
      </trkpt>
      <trkpt lat="42.9616" lon="0.85687">
        <ele>1401</ele>
        <time>2018-04-02T12:28:41.000Z</time>
      </trkpt>
      <trkpt lat="42.9616" lon="0.85686">
        <ele>1401</ele>
        <time>2018-04-02T12:28:43.000Z</time>
      </trkpt>
      <trkpt lat="42.96161" lon="0.85684">
        <ele>1402</ele>
        <time>2018-04-02T12:28:45.000Z</time>
      </trkpt>
      <trkpt lat="42.96162" lon="0.85682">
        <ele>1402</ele>
        <time>2018-04-02T12:28:47.000Z</time>
      </trkpt>
      <trkpt lat="42.96163" lon="0.85681">
        <ele>1402</ele>
        <time>2018-04-02T12:28:49.000Z</time>
      </trkpt>
      <trkpt lat="42.96164" lon="0.8568">
        <ele>1402</ele>
        <time>2018-04-02T12:28:51.000Z</time>
      </trkpt>
      <trkpt lat="42.96166" lon="0.85678">
        <ele>1402</ele>
        <time>2018-04-02T12:28:53.000Z</time>
      </trkpt>
      <trkpt lat="42.96167" lon="0.85677">
        <ele>1403</ele>
        <time>2018-04-02T12:28:55.000Z</time>
      </trkpt>
      <trkpt lat="42.96168" lon="0.85676">
        <ele>1403</ele>
        <time>2018-04-02T12:28:57.000Z</time>
      </trkpt>
      <trkpt lat="42.96169" lon="0.85675">
        <ele>1403</ele>
        <time>2018-04-02T12:28:59.000Z</time>
      </trkpt>
      <trkpt lat="42.96169" lon="0.85674">
        <ele>1403</ele>
        <time>2018-04-02T12:29:01.000Z</time>
      </trkpt>
      <trkpt lat="42.9617" lon="0.85673">
        <ele>1403</ele>
        <time>2018-04-02T12:29:03.000Z</time>
      </trkpt>
      <trkpt lat="42.9617" lon="0.85672">
        <ele>1403</ele>
        <time>2018-04-02T12:29:05.000Z</time>
      </trkpt>
      <trkpt lat="42.96171" lon="0.85672">
        <ele>1403</ele>
        <time>2018-04-02T12:29:07.000Z</time>
      </trkpt>
      <trkpt lat="42.96168" lon="0.85674">
        <ele>1403</ele>
        <time>2018-04-02T12:29:09.000Z</time>
      </trkpt>
      <trkpt lat="42.96167" lon="0.85675">
        <ele>1403</ele>
        <time>2018-04-02T12:29:11.000Z</time>
      </trkpt>
      <trkpt lat="42.96165" lon="0.85676">
        <ele>1403</ele>
        <time>2018-04-02T12:29:13.000Z</time>
      </trkpt>
      <trkpt lat="42.96164" lon="0.85677">
        <ele>1402</ele>
        <time>2018-04-02T12:29:15.000Z</time>
      </trkpt>
      <trkpt lat="42.96164" lon="0.85678">
        <ele>1402</ele>
        <time>2018-04-02T12:29:17.000Z</time>
      </trkpt>
      <trkpt lat="42.96163" lon="0.85678">
        <ele>1402</ele>
        <time>2018-04-02T12:29:19.000Z</time>
      </trkpt>
      <trkpt lat="42.96162" lon="0.85679">
        <ele>1402</ele>
        <time>2018-04-02T12:29:21.000Z</time>
      </trkpt>
      <trkpt lat="42.96161" lon="0.8568">
        <ele>1402</ele>
        <time>2018-04-02T12:29:23.000Z</time>
      </trkpt>
      <trkpt lat="42.9616" lon="0.85681">
        <ele>1402</ele>
        <time>2018-04-02T12:29:25.000Z</time>
      </trkpt>
      <trkpt lat="42.96159" lon="0.85682">
        <ele>1402</ele>
        <time>2018-04-02T12:29:27.000Z</time>
      </trkpt>
      <trkpt lat="42.96159" lon="0.85682">
        <ele>1402</ele>
        <time>2018-04-02T12:29:29.000Z</time>
      </trkpt>
      <trkpt lat="42.9616" lon="0.85682">
        <ele>1402</ele>
        <time>2018-04-02T12:29:31.000Z</time>
      </trkpt>
      <trkpt lat="42.9616" lon="0.85682">
        <ele>1402</ele>
        <time>2018-04-02T12:29:33.000Z</time>
      </trkpt>
      <trkpt lat="42.9616" lon="0.85683">
        <ele>1402</ele>
        <time>2018-04-02T12:29:35.000Z</time>
      </trkpt>
      <trkpt lat="42.9616" lon="0.85684">
        <ele>1401</ele>
        <time>2018-04-02T12:29:37.000Z</time>
      </trkpt>
      <trkpt lat="42.9616" lon="0.85685">
        <ele>1401</ele>
        <time>2018-04-02T12:29:39.000Z</time>
      </trkpt>
      <trkpt lat="42.9616" lon="0.85686">
        <ele>1401</ele>
        <time>2018-04-02T12:29:41.000Z</time>
      </trkpt>
      <trkpt lat="42.9616" lon="0.85687">
        <ele>1401</ele>
        <time>2018-04-02T12:29:43.000Z</time>
      </trkpt>
      <trkpt lat="42.96159" lon="0.85688">
        <ele>1401</ele>
        <time>2018-04-02T12:29:45.000Z</time>
      </trkpt>
      <trkpt lat="42.96158" lon="0.8569">
        <ele>1401</ele>
        <time>2018-04-02T12:29:47.000Z</time>
      </trkpt>
      <trkpt lat="42.96158" lon="0.85691">
        <ele>1401</ele>
        <time>2018-04-02T12:29:49.000Z</time>
      </trkpt>
      <trkpt lat="42.96158" lon="0.85692">
        <ele>1401</ele>
        <time>2018-04-02T12:29:51.000Z</time>
      </trkpt>
      <trkpt lat="42.96158" lon="0.85692">
        <ele>1401</ele>
        <time>2018-04-02T12:29:53.000Z</time>
      </trkpt>
      <trkpt lat="42.96157" lon="0.85693">
        <ele>1400</ele>
        <time>2018-04-02T12:29:55.000Z</time>
      </trkpt>
      <trkpt lat="42.96155" lon="0.85695">
        <ele>1400</ele>
        <time>2018-04-02T12:29:57.000Z</time>
      </trkpt>
      <trkpt lat="42.96155" lon="0.85695">
        <ele>1400</ele>
        <time>2018-04-02T12:29:59.000Z</time>
      </trkpt>
      <trkpt lat="42.96154" lon="0.85697">
        <ele>1400</ele>
        <time>2018-04-02T12:30:01.000Z</time>
      </trkpt>
      <trkpt lat="42.96153" lon="0.85697">
        <ele>1400</ele>
        <time>2018-04-02T12:30:03.000Z</time>
      </trkpt>
      <trkpt lat="42.96154" lon="0.85698">
        <ele>1400</ele>
        <time>2018-04-02T12:30:05.000Z</time>
      </trkpt>
      <trkpt lat="42.96154" lon="0.85697">
        <ele>1400</ele>
        <time>2018-04-02T12:30:07.000Z</time>
      </trkpt>
      <trkpt lat="42.96154" lon="0.85698">
        <ele>1400</ele>
        <time>2018-04-02T12:30:09.000Z</time>
      </trkpt>
      <trkpt lat="42.96154" lon="0.85698">
        <ele>1400</ele>
        <time>2018-04-02T12:30:11.000Z</time>
      </trkpt>
      <trkpt lat="42.96154" lon="0.85698">
        <ele>1400</ele>
        <time>2018-04-02T12:30:13.000Z</time>
      </trkpt>
      <trkpt lat="42.96154" lon="0.85699">
        <ele>1400</ele>
        <time>2018-04-02T12:30:15.000Z</time>
      </trkpt>
      <trkpt lat="42.96154" lon="0.857">
        <ele>1400</ele>
        <time>2018-04-02T12:30:17.000Z</time>
      </trkpt>
      <trkpt lat="42.96154" lon="0.85699">
        <ele>1400</ele>
        <time>2018-04-02T12:30:19.000Z</time>
      </trkpt>
      <trkpt lat="42.96156" lon="0.85698">
        <ele>1400</ele>
        <time>2018-04-02T12:30:21.000Z</time>
      </trkpt>
      <trkpt lat="42.96157" lon="0.85694">
        <ele>1400</ele>
        <time>2018-04-02T12:30:23.000Z</time>
      </trkpt>
      <trkpt lat="42.96157" lon="0.85693">
        <ele>1400</ele>
        <time>2018-04-02T12:30:25.000Z</time>
      </trkpt>
      <trkpt lat="42.96157" lon="0.85692">
        <ele>1401</ele>
        <time>2018-04-02T12:30:27.000Z</time>
      </trkpt>
      <trkpt lat="42.96157" lon="0.85691">
        <ele>1401</ele>
        <time>2018-04-02T12:30:29.000Z</time>
      </trkpt>
      <trkpt lat="42.96157" lon="0.85691">
        <ele>1401</ele>
        <time>2018-04-02T12:30:31.000Z</time>
      </trkpt>
      <trkpt lat="42.96157" lon="0.85691">
        <ele>1401</ele>
        <time>2018-04-02T12:30:33.000Z</time>
      </trkpt>
      <trkpt lat="42.96158" lon="0.8569">
        <ele>1401</ele>
        <time>2018-04-02T12:30:35.000Z</time>
      </trkpt>
      <trkpt lat="42.96158" lon="0.85689">
        <ele>1401</ele>
        <time>2018-04-02T12:30:37.000Z</time>
      </trkpt>
      <trkpt lat="42.96159" lon="0.85688">
        <ele>1401</ele>
        <time>2018-04-02T12:30:39.000Z</time>
      </trkpt>
      <trkpt lat="42.96158" lon="0.85687">
        <ele>1401</ele>
        <time>2018-04-02T12:30:41.000Z</time>
      </trkpt>
      <trkpt lat="42.96157" lon="0.85688">
        <ele>1401</ele>
        <time>2018-04-02T12:30:43.000Z</time>
      </trkpt>
      <trkpt lat="42.96157" lon="0.85688">
        <ele>1401</ele>
        <time>2018-04-02T12:30:45.000Z</time>
      </trkpt>
      <trkpt lat="42.96158" lon="0.85688">
        <ele>1401</ele>
        <time>2018-04-02T12:30:47.000Z</time>
      </trkpt>
      <trkpt lat="42.96158" lon="0.85688">
        <ele>1401</ele>
        <time>2018-04-02T12:30:49.000Z</time>
      </trkpt>
      <trkpt lat="42.96159" lon="0.85687">
        <ele>1401</ele>
        <time>2018-04-02T12:30:51.000Z</time>
      </trkpt>
      <trkpt lat="42.9616" lon="0.85687">
        <ele>1401</ele>
        <time>2018-04-02T12:30:53.000Z</time>
      </trkpt>
      <trkpt lat="42.96161" lon="0.85687">
        <ele>1401</ele>
        <time>2018-04-02T12:30:55.000Z</time>
      </trkpt>
      <trkpt lat="42.96161" lon="0.85686">
        <ele>1401</ele>
        <time>2018-04-02T12:30:57.000Z</time>
      </trkpt>
      <trkpt lat="42.96161" lon="0.85685">
        <ele>1401</ele>
        <time>2018-04-02T12:30:59.000Z</time>
      </trkpt>
      <trkpt lat="42.96163" lon="0.85682">
        <ele>1402</ele>
        <time>2018-04-02T12:31:01.000Z</time>
      </trkpt>
      <trkpt lat="42.96164" lon="0.8568">
        <ele>1402</ele>
        <time>2018-04-02T12:31:03.000Z</time>
      </trkpt>
      <trkpt lat="42.96164" lon="0.85679">
        <ele>1402</ele>
        <time>2018-04-02T12:31:05.000Z</time>
      </trkpt>
      <trkpt lat="42.96164" lon="0.85679">
        <ele>1402</ele>
        <time>2018-04-02T12:31:07.000Z</time>
      </trkpt>
      <trkpt lat="42.96165" lon="0.85678">
        <ele>1402</ele>
        <time>2018-04-02T12:31:09.000Z</time>
      </trkpt>
      <trkpt lat="42.96165" lon="0.85678">
        <ele>1402</ele>
        <time>2018-04-02T12:31:11.000Z</time>
      </trkpt>
      <trkpt lat="42.96164" lon="0.85678">
        <ele>1402</ele>
        <time>2018-04-02T12:31:13.000Z</time>
      </trkpt>
      <trkpt lat="42.96164" lon="0.85679">
        <ele>1402</ele>
        <time>2018-04-02T12:31:15.000Z</time>
      </trkpt>
      <trkpt lat="42.96163" lon="0.85679">
        <ele>1402</ele>
        <time>2018-04-02T12:31:17.000Z</time>
      </trkpt>
      <trkpt lat="42.96162" lon="0.85679">
        <ele>1402</ele>
        <time>2018-04-02T12:31:19.000Z</time>
      </trkpt>
      <trkpt lat="42.96162" lon="0.8568">
        <ele>1402</ele>
        <time>2018-04-02T12:31:21.000Z</time>
      </trkpt>
      <trkpt lat="42.96162" lon="0.8568">
        <ele>1402</ele>
        <time>2018-04-02T12:31:23.000Z</time>
      </trkpt>
      <trkpt lat="42.96162" lon="0.85681">
        <ele>1402</ele>
        <time>2018-04-02T12:31:25.000Z</time>
      </trkpt>
      <trkpt lat="42.96162" lon="0.8568">
        <ele>1402</ele>
        <time>2018-04-02T12:31:27.000Z</time>
      </trkpt>
      <trkpt lat="42.96161" lon="0.8568">
        <ele>1402</ele>
        <time>2018-04-02T12:31:29.000Z</time>
      </trkpt>
      <trkpt lat="42.96161" lon="0.8568">
        <ele>1402</ele>
        <time>2018-04-02T12:31:31.000Z</time>
      </trkpt>
      <trkpt lat="42.96162" lon="0.85679">
        <ele>1402</ele>
        <time>2018-04-02T12:31:33.000Z</time>
      </trkpt>
      <trkpt lat="42.96162" lon="0.8568">
        <ele>1402</ele>
        <time>2018-04-02T12:31:35.000Z</time>
      </trkpt>
      <trkpt lat="42.96162" lon="0.8568">
        <ele>1402</ele>
        <time>2018-04-02T12:31:37.000Z</time>
      </trkpt>
      <trkpt lat="42.96162" lon="0.85681">
        <ele>1402</ele>
        <time>2018-04-02T12:31:39.000Z</time>
      </trkpt>
      <trkpt lat="42.96162" lon="0.85682">
        <ele>1402</ele>
        <time>2018-04-02T12:31:41.000Z</time>
      </trkpt>
      <trkpt lat="42.96162" lon="0.85683">
        <ele>1402</ele>
        <time>2018-04-02T12:31:43.000Z</time>
      </trkpt>
      <trkpt lat="42.96162" lon="0.85684">
        <ele>1402</ele>
        <time>2018-04-02T12:31:45.000Z</time>
      </trkpt>
      <trkpt lat="42.96161" lon="0.85684">
        <ele>1402</ele>
        <time>2018-04-02T12:31:47.000Z</time>
      </trkpt>
      <trkpt lat="42.96161" lon="0.85684">
        <ele>1402</ele>
        <time>2018-04-02T12:31:49.000Z</time>
      </trkpt>
      <trkpt lat="42.96161" lon="0.85685">
        <ele>1401</ele>
        <time>2018-04-02T12:31:51.000Z</time>
      </trkpt>
      <trkpt lat="42.9616" lon="0.85685">
        <ele>1401</ele>
        <time>2018-04-02T12:31:53.000Z</time>
      </trkpt>
      <trkpt lat="42.9616" lon="0.85684">
        <ele>1401</ele>
        <time>2018-04-02T12:31:55.000Z</time>
      </trkpt>
      <trkpt lat="42.9616" lon="0.85685">
        <ele>1401</ele>
        <time>2018-04-02T12:31:57.000Z</time>
      </trkpt>
      <trkpt lat="42.9616" lon="0.85685">
        <ele>1401</ele>
        <time>2018-04-02T12:31:59.000Z</time>
      </trkpt>
      <trkpt lat="42.96159" lon="0.85686">
        <ele>1401</ele>
        <time>2018-04-02T12:32:01.000Z</time>
      </trkpt>
      <trkpt lat="42.96159" lon="0.85686">
        <ele>1401</ele>
        <time>2018-04-02T12:32:03.000Z</time>
      </trkpt>
      <trkpt lat="42.96159" lon="0.85686">
        <ele>1401</ele>
        <time>2018-04-02T12:32:05.000Z</time>
      </trkpt>
      <trkpt lat="42.96159" lon="0.85687">
        <ele>1401</ele>
        <time>2018-04-02T12:32:07.000Z</time>
      </trkpt>
      <trkpt lat="42.96159" lon="0.85687">
        <ele>1401</ele>
        <time>2018-04-02T12:32:09.000Z</time>
      </trkpt>
      <trkpt lat="42.96159" lon="0.85688">
        <ele>1401</ele>
        <time>2018-04-02T12:32:11.000Z</time>
      </trkpt>
      <trkpt lat="42.96158" lon="0.85689">
        <ele>1401</ele>
        <time>2018-04-02T12:32:13.000Z</time>
      </trkpt>
      <trkpt lat="42.96157" lon="0.8569">
        <ele>1401</ele>
        <time>2018-04-02T12:32:15.000Z</time>
      </trkpt>
      <trkpt lat="42.96157" lon="0.85691">
        <ele>1401</ele>
        <time>2018-04-02T12:32:17.000Z</time>
      </trkpt>
      <trkpt lat="42.96157" lon="0.85691">
        <ele>1401</ele>
        <time>2018-04-02T12:32:19.000Z</time>
      </trkpt>
      <trkpt lat="42.96158" lon="0.8569">
        <ele>1401</ele>
        <time>2018-04-02T12:32:21.000Z</time>
      </trkpt>
      <trkpt lat="42.96158" lon="0.85689">
        <ele>1401</ele>
        <time>2018-04-02T12:32:23.000Z</time>
      </trkpt>
      <trkpt lat="42.96159" lon="0.85688">
        <ele>1401</ele>
        <time>2018-04-02T12:32:25.000Z</time>
      </trkpt>
      <trkpt lat="42.96161" lon="0.85687">
        <ele>1401</ele>
        <time>2018-04-02T12:32:27.000Z</time>
      </trkpt>
      <trkpt lat="42.96162" lon="0.85686">
        <ele>1401</ele>
        <time>2018-04-02T12:32:29.000Z</time>
      </trkpt>
      <trkpt lat="42.96162" lon="0.85687">
        <ele>1401</ele>
        <time>2018-04-02T12:32:31.000Z</time>
      </trkpt>
      <trkpt lat="42.96162" lon="0.85687">
        <ele>1401</ele>
        <time>2018-04-02T12:32:33.000Z</time>
      </trkpt>
      <trkpt lat="42.96162" lon="0.85688">
        <ele>1401</ele>
        <time>2018-04-02T12:32:35.000Z</time>
      </trkpt>
      <trkpt lat="42.96162" lon="0.85688">
        <ele>1401</ele>
        <time>2018-04-02T12:32:37.000Z</time>
      </trkpt>
      <trkpt lat="42.96162" lon="0.85689">
        <ele>1401</ele>
        <time>2018-04-02T12:32:39.000Z</time>
      </trkpt>
      <trkpt lat="42.96161" lon="0.85689">
        <ele>1401</ele>
        <time>2018-04-02T12:32:41.000Z</time>
      </trkpt>
      <trkpt lat="42.96161" lon="0.85689">
        <ele>1401</ele>
        <time>2018-04-02T12:32:43.000Z</time>
      </trkpt>
      <trkpt lat="42.96161" lon="0.85688">
        <ele>1401</ele>
        <time>2018-04-02T12:32:45.000Z</time>
      </trkpt>
      <trkpt lat="42.96161" lon="0.85687">
        <ele>1401</ele>
        <time>2018-04-02T12:32:47.000Z</time>
      </trkpt>
      <trkpt lat="42.96161" lon="0.85687">
        <ele>1401</ele>
        <time>2018-04-02T12:32:49.000Z</time>
      </trkpt>
      <trkpt lat="42.96161" lon="0.85688">
        <ele>1401</ele>
        <time>2018-04-02T12:32:51.000Z</time>
      </trkpt>
      <trkpt lat="42.9616" lon="0.85688">
        <ele>1401</ele>
        <time>2018-04-02T12:32:53.000Z</time>
      </trkpt>
      <trkpt lat="42.96161" lon="0.85688">
        <ele>1401</ele>
        <time>2018-04-02T12:32:55.000Z</time>
      </trkpt>
      <trkpt lat="42.96161" lon="0.85687">
        <ele>1401</ele>
        <time>2018-04-02T12:32:57.000Z</time>
      </trkpt>
      <trkpt lat="42.96161" lon="0.85686">
        <ele>1401</ele>
        <time>2018-04-02T12:32:59.000Z</time>
      </trkpt>
      <trkpt lat="42.96162" lon="0.85685">
        <ele>1401</ele>
        <time>2018-04-02T12:33:01.000Z</time>
      </trkpt>
      <trkpt lat="42.96161" lon="0.85685">
        <ele>1401</ele>
        <time>2018-04-02T12:33:03.000Z</time>
      </trkpt>
      <trkpt lat="42.96161" lon="0.85685">
        <ele>1401</ele>
        <time>2018-04-02T12:33:05.000Z</time>
      </trkpt>
      <trkpt lat="42.96161" lon="0.85686">
        <ele>1401</ele>
        <time>2018-04-02T12:33:07.000Z</time>
      </trkpt>
      <trkpt lat="42.96161" lon="0.85686">
        <ele>1401</ele>
        <time>2018-04-02T12:33:09.000Z</time>
      </trkpt>
      <trkpt lat="42.96161" lon="0.85687">
        <ele>1401</ele>
        <time>2018-04-02T12:33:11.000Z</time>
      </trkpt>
      <trkpt lat="42.9616" lon="0.85689">
        <ele>1401</ele>
        <time>2018-04-02T12:33:13.000Z</time>
      </trkpt>
      <trkpt lat="42.9616" lon="0.85685">
        <ele>1401</ele>
        <time>2018-04-02T12:33:15.000Z</time>
      </trkpt>
      <trkpt lat="42.9616" lon="0.85686">
        <ele>1401</ele>
        <time>2018-04-02T12:33:17.000Z</time>
      </trkpt>
      <trkpt lat="42.9616" lon="0.85684">
        <ele>1401</ele>
        <time>2018-04-02T12:33:19.000Z</time>
      </trkpt>
      <trkpt lat="42.96161" lon="0.85683">
        <ele>1402</ele>
        <time>2018-04-02T12:33:21.000Z</time>
      </trkpt>
      <trkpt lat="42.96161" lon="0.85683">
        <ele>1402</ele>
        <time>2018-04-02T12:33:23.000Z</time>
      </trkpt>
      <trkpt lat="42.96162" lon="0.85684">
        <ele>1402</ele>
        <time>2018-04-02T12:33:25.000Z</time>
      </trkpt>
      <trkpt lat="42.96162" lon="0.85685">
        <ele>1401</ele>
        <time>2018-04-02T12:33:27.000Z</time>
      </trkpt>
      <trkpt lat="42.96163" lon="0.85685">
        <ele>1401</ele>
        <time>2018-04-02T12:33:29.000Z</time>
      </trkpt>
      <trkpt lat="42.96163" lon="0.85685">
        <ele>1402</ele>
        <time>2018-04-02T12:33:31.000Z</time>
      </trkpt>
      <trkpt lat="42.96163" lon="0.85685">
        <ele>1402</ele>
        <time>2018-04-02T12:33:33.000Z</time>
      </trkpt>
      <trkpt lat="42.96163" lon="0.85683">
        <ele>1402</ele>
        <time>2018-04-02T12:33:35.000Z</time>
      </trkpt>
      <trkpt lat="42.96162" lon="0.85683">
        <ele>1402</ele>
        <time>2018-04-02T12:33:37.000Z</time>
      </trkpt>
      <trkpt lat="42.96162" lon="0.85682">
        <ele>1402</ele>
        <time>2018-04-02T12:33:39.000Z</time>
      </trkpt>
      <trkpt lat="42.96161" lon="0.85682">
        <ele>1402</ele>
        <time>2018-04-02T12:33:41.000Z</time>
      </trkpt>
      <trkpt lat="42.96161" lon="0.85682">
        <ele>1402</ele>
        <time>2018-04-02T12:33:43.000Z</time>
      </trkpt>
      <trkpt lat="42.96162" lon="0.85683">
        <ele>1402</ele>
        <time>2018-04-02T12:33:45.000Z</time>
      </trkpt>
      <trkpt lat="42.96162" lon="0.85683">
        <ele>1402</ele>
        <time>2018-04-02T12:33:47.000Z</time>
      </trkpt>
      <trkpt lat="42.96162" lon="0.85683">
        <ele>1402</ele>
        <time>2018-04-02T12:33:49.000Z</time>
      </trkpt>
      <trkpt lat="42.96162" lon="0.85683">
        <ele>1402</ele>
        <time>2018-04-02T12:33:51.000Z</time>
      </trkpt>
      <trkpt lat="42.96162" lon="0.85682">
        <ele>1402</ele>
        <time>2018-04-02T12:33:53.000Z</time>
      </trkpt>
      <trkpt lat="42.96162" lon="0.85682">
        <ele>1402</ele>
        <time>2018-04-02T12:33:55.000Z</time>
      </trkpt>
      <trkpt lat="42.96163" lon="0.85681">
        <ele>1402</ele>
        <time>2018-04-02T12:33:57.000Z</time>
      </trkpt>
      <trkpt lat="42.96163" lon="0.85681">
        <ele>1402</ele>
        <time>2018-04-02T12:33:59.000Z</time>
      </trkpt>
      <trkpt lat="42.96163" lon="0.85682">
        <ele>1402</ele>
        <time>2018-04-02T12:34:01.000Z</time>
      </trkpt>
      <trkpt lat="42.96162" lon="0.85683">
        <ele>1402</ele>
        <time>2018-04-02T12:34:03.000Z</time>
      </trkpt>
      <trkpt lat="42.96162" lon="0.85684">
        <ele>1402</ele>
        <time>2018-04-02T12:34:05.000Z</time>
      </trkpt>
      <trkpt lat="42.96162" lon="0.85685">
        <ele>1401</ele>
        <time>2018-04-02T12:34:07.000Z</time>
      </trkpt>
      <trkpt lat="42.96162" lon="0.85685">
        <ele>1401</ele>
        <time>2018-04-02T12:34:09.000Z</time>
      </trkpt>
      <trkpt lat="42.96162" lon="0.85685">
        <ele>1401</ele>
        <time>2018-04-02T12:34:11.000Z</time>
      </trkpt>
      <trkpt lat="42.96162" lon="0.85685">
        <ele>1401</ele>
        <time>2018-04-02T12:34:13.000Z</time>
      </trkpt>
      <trkpt lat="42.96161" lon="0.85685">
        <ele>1401</ele>
        <time>2018-04-02T12:34:15.000Z</time>
      </trkpt>
      <trkpt lat="42.9616" lon="0.85687">
        <ele>1401</ele>
        <time>2018-04-02T12:34:17.000Z</time>
      </trkpt>
      <trkpt lat="42.9616" lon="0.85687">
        <ele>1401</ele>
        <time>2018-04-02T12:34:19.000Z</time>
      </trkpt>
      <trkpt lat="42.9616" lon="0.85688">
        <ele>1401</ele>
        <time>2018-04-02T12:34:21.000Z</time>
      </trkpt>
      <trkpt lat="42.9616" lon="0.85686">
        <ele>1401</ele>
        <time>2018-04-02T12:34:23.000Z</time>
      </trkpt>
      <trkpt lat="42.9616" lon="0.85686">
        <ele>1401</ele>
        <time>2018-04-02T12:34:25.000Z</time>
      </trkpt>
      <trkpt lat="42.9616" lon="0.85689">
        <ele>1401</ele>
        <time>2018-04-02T12:34:27.000Z</time>
      </trkpt>
      <trkpt lat="42.9616" lon="0.85689">
        <ele>1401</ele>
        <time>2018-04-02T12:34:29.000Z</time>
      </trkpt>
      <trkpt lat="42.9616" lon="0.85689">
        <ele>1401</ele>
        <time>2018-04-02T12:34:31.000Z</time>
      </trkpt>
      <trkpt lat="42.9616" lon="0.85687">
        <ele>1401</ele>
        <time>2018-04-02T12:34:33.000Z</time>
      </trkpt>
      <trkpt lat="42.9616" lon="0.85687">
        <ele>1401</ele>
        <time>2018-04-02T12:34:35.000Z</time>
      </trkpt>
      <trkpt lat="42.96161" lon="0.85685">
        <ele>1401</ele>
        <time>2018-04-02T12:34:37.000Z</time>
      </trkpt>
      <trkpt lat="42.96161" lon="0.85684">
        <ele>1402</ele>
        <time>2018-04-02T12:34:39.000Z</time>
      </trkpt>
      <trkpt lat="42.96161" lon="0.85683">
        <ele>1402</ele>
        <time>2018-04-02T12:34:41.000Z</time>
      </trkpt>
      <trkpt lat="42.96162" lon="0.85684">
        <ele>1402</ele>
        <time>2018-04-02T12:34:43.000Z</time>
      </trkpt>
      <trkpt lat="42.96161" lon="0.85684">
        <ele>1402</ele>
        <time>2018-04-02T12:34:45.000Z</time>
      </trkpt>
      <trkpt lat="42.96161" lon="0.85685">
        <ele>1401</ele>
        <time>2018-04-02T12:34:47.000Z</time>
      </trkpt>
      <trkpt lat="42.9616" lon="0.85686">
        <ele>1401</ele>
        <time>2018-04-02T12:34:49.000Z</time>
      </trkpt>
      <trkpt lat="42.9616" lon="0.85686">
        <ele>1401</ele>
        <time>2018-04-02T12:34:51.000Z</time>
      </trkpt>
      <trkpt lat="42.96159" lon="0.85688">
        <ele>1401</ele>
        <time>2018-04-02T12:34:53.000Z</time>
      </trkpt>
      <trkpt lat="42.96159" lon="0.85688">
        <ele>1401</ele>
        <time>2018-04-02T12:34:55.000Z</time>
      </trkpt>
      <trkpt lat="42.96159" lon="0.85688">
        <ele>1401</ele>
        <time>2018-04-02T12:34:57.000Z</time>
      </trkpt>
      <trkpt lat="42.96159" lon="0.85687">
        <ele>1401</ele>
        <time>2018-04-02T12:34:59.000Z</time>
      </trkpt>
      <trkpt lat="42.96159" lon="0.85686">
        <ele>1401</ele>
        <time>2018-04-02T12:35:01.000Z</time>
      </trkpt>
      <trkpt lat="42.96159" lon="0.85687">
        <ele>1401</ele>
        <time>2018-04-02T12:35:03.000Z</time>
      </trkpt>
      <trkpt lat="42.96158" lon="0.85687">
        <ele>1401</ele>
        <time>2018-04-02T12:35:05.000Z</time>
      </trkpt>
      <trkpt lat="42.96158" lon="0.85689">
        <ele>1401</ele>
        <time>2018-04-02T12:35:07.000Z</time>
      </trkpt>
      <trkpt lat="42.96158" lon="0.8569">
        <ele>1401</ele>
        <time>2018-04-02T12:35:09.000Z</time>
      </trkpt>
      <trkpt lat="42.96158" lon="0.8569">
        <ele>1401</ele>
        <time>2018-04-02T12:35:11.000Z</time>
      </trkpt>
      <trkpt lat="42.96158" lon="0.8569">
        <ele>1401</ele>
        <time>2018-04-02T12:35:13.000Z</time>
      </trkpt>
      <trkpt lat="42.96158" lon="0.8569">
        <ele>1401</ele>
        <time>2018-04-02T12:35:15.000Z</time>
      </trkpt>
      <trkpt lat="42.96157" lon="0.8569">
        <ele>1401</ele>
        <time>2018-04-02T12:35:17.000Z</time>
      </trkpt>
      <trkpt lat="42.96157" lon="0.85691">
        <ele>1401</ele>
        <time>2018-04-02T12:35:19.000Z</time>
      </trkpt>
      <trkpt lat="42.96156" lon="0.85691">
        <ele>1401</ele>
        <time>2018-04-02T12:35:21.000Z</time>
      </trkpt>
      <trkpt lat="42.96156" lon="0.85691">
        <ele>1401</ele>
        <time>2018-04-02T12:35:23.000Z</time>
      </trkpt>
      <trkpt lat="42.96156" lon="0.8569">
        <ele>1401</ele>
        <time>2018-04-02T12:35:25.000Z</time>
      </trkpt>
      <trkpt lat="42.96156" lon="0.85689">
        <ele>1401</ele>
        <time>2018-04-02T12:35:27.000Z</time>
      </trkpt>
      <trkpt lat="42.96156" lon="0.85688">
        <ele>1401</ele>
        <time>2018-04-02T12:35:29.000Z</time>
      </trkpt>
      <trkpt lat="42.96156" lon="0.85687">
        <ele>1401</ele>
        <time>2018-04-02T12:35:31.000Z</time>
      </trkpt>
      <trkpt lat="42.96156" lon="0.85688">
        <ele>1401</ele>
        <time>2018-04-02T12:35:33.000Z</time>
      </trkpt>
      <trkpt lat="42.96157" lon="0.85688">
        <ele>1401</ele>
        <time>2018-04-02T12:35:35.000Z</time>
      </trkpt>
      <trkpt lat="42.96157" lon="0.85688">
        <ele>1401</ele>
        <time>2018-04-02T12:35:37.000Z</time>
      </trkpt>
      <trkpt lat="42.96157" lon="0.85687">
        <ele>1401</ele>
        <time>2018-04-02T12:35:39.000Z</time>
      </trkpt>
      <trkpt lat="42.96157" lon="0.85687">
        <ele>1401</ele>
        <time>2018-04-02T12:35:41.000Z</time>
      </trkpt>
      <trkpt lat="42.96158" lon="0.85686">
        <ele>1401</ele>
        <time>2018-04-02T12:35:43.000Z</time>
      </trkpt>
      <trkpt lat="42.96158" lon="0.85685">
        <ele>1401</ele>
        <time>2018-04-02T12:35:45.000Z</time>
      </trkpt>
      <trkpt lat="42.96158" lon="0.85685">
        <ele>1401</ele>
        <time>2018-04-02T12:35:47.000Z</time>
      </trkpt>
      <trkpt lat="42.96158" lon="0.85685">
        <ele>1401</ele>
        <time>2018-04-02T12:35:49.000Z</time>
      </trkpt>
      <trkpt lat="42.96158" lon="0.85685">
        <ele>1401</ele>
        <time>2018-04-02T12:35:51.000Z</time>
      </trkpt>
      <trkpt lat="42.96158" lon="0.85685">
        <ele>1401</ele>
        <time>2018-04-02T12:35:53.000Z</time>
      </trkpt>
      <trkpt lat="42.96158" lon="0.85685">
        <ele>1401</ele>
        <time>2018-04-02T12:35:55.000Z</time>
      </trkpt>
      <trkpt lat="42.96159" lon="0.85686">
        <ele>1401</ele>
        <time>2018-04-02T12:35:57.000Z</time>
      </trkpt>
      <trkpt lat="42.96159" lon="0.85686">
        <ele>1401</ele>
        <time>2018-04-02T12:35:59.000Z</time>
      </trkpt>
      <trkpt lat="42.96159" lon="0.85685">
        <ele>1401</ele>
        <time>2018-04-02T12:36:01.000Z</time>
      </trkpt>
      <trkpt lat="42.9616" lon="0.85685">
        <ele>1401</ele>
        <time>2018-04-02T12:36:03.000Z</time>
      </trkpt>
      <trkpt lat="42.9616" lon="0.85685">
        <ele>1401</ele>
        <time>2018-04-02T12:36:05.000Z</time>
      </trkpt>
      <trkpt lat="42.9616" lon="0.85684">
        <ele>1401</ele>
        <time>2018-04-02T12:36:07.000Z</time>
      </trkpt>
      <trkpt lat="42.9616" lon="0.85683">
        <ele>1402</ele>
        <time>2018-04-02T12:36:09.000Z</time>
      </trkpt>
      <trkpt lat="42.96161" lon="0.85682">
        <ele>1402</ele>
        <time>2018-04-02T12:36:11.000Z</time>
      </trkpt>
      <trkpt lat="42.96162" lon="0.85681">
        <ele>1402</ele>
        <time>2018-04-02T12:36:13.000Z</time>
      </trkpt>
      <trkpt lat="42.96163" lon="0.85681">
        <ele>1402</ele>
        <time>2018-04-02T12:36:15.000Z</time>
      </trkpt>
      <trkpt lat="42.96164" lon="0.8568">
        <ele>1402</ele>
        <time>2018-04-02T12:36:17.000Z</time>
      </trkpt>
      <trkpt lat="42.96163" lon="0.85681">
        <ele>1402</ele>
        <time>2018-04-02T12:36:19.000Z</time>
      </trkpt>
      <trkpt lat="42.96163" lon="0.85681">
        <ele>1402</ele>
        <time>2018-04-02T12:36:21.000Z</time>
      </trkpt>
      <trkpt lat="42.96162" lon="0.8568">
        <ele>1402</ele>
        <time>2018-04-02T12:36:23.000Z</time>
      </trkpt>
      <trkpt lat="42.96162" lon="0.85681">
        <ele>1402</ele>
        <time>2018-04-02T12:36:25.000Z</time>
      </trkpt>
      <trkpt lat="42.96162" lon="0.85681">
        <ele>1402</ele>
        <time>2018-04-02T12:36:27.000Z</time>
      </trkpt>
      <trkpt lat="42.96162" lon="0.8568">
        <ele>1402</ele>
        <time>2018-04-02T12:36:29.000Z</time>
      </trkpt>
      <trkpt lat="42.96162" lon="0.85679">
        <ele>1402</ele>
        <time>2018-04-02T12:36:31.000Z</time>
      </trkpt>
      <trkpt lat="42.96163" lon="0.85679">
        <ele>1402</ele>
        <time>2018-04-02T12:36:33.000Z</time>
      </trkpt>
      <trkpt lat="42.96163" lon="0.85679">
        <ele>1402</ele>
        <time>2018-04-02T12:36:35.000Z</time>
      </trkpt>
      <trkpt lat="42.96163" lon="0.85679">
        <ele>1402</ele>
        <time>2018-04-02T12:36:37.000Z</time>
      </trkpt>
      <trkpt lat="42.96163" lon="0.8568">
        <ele>1402</ele>
        <time>2018-04-02T12:36:39.000Z</time>
      </trkpt>
      <trkpt lat="42.96163" lon="0.85679">
        <ele>1402</ele>
        <time>2018-04-02T12:36:41.000Z</time>
      </trkpt>
      <trkpt lat="42.96163" lon="0.85679">
        <ele>1402</ele>
        <time>2018-04-02T12:36:43.000Z</time>
      </trkpt>
      <trkpt lat="42.96163" lon="0.85679">
        <ele>1402</ele>
        <time>2018-04-02T12:36:45.000Z</time>
      </trkpt>
      <trkpt lat="42.96163" lon="0.8568">
        <ele>1402</ele>
        <time>2018-04-02T12:36:47.000Z</time>
      </trkpt>
      <trkpt lat="42.96162" lon="0.85681">
        <ele>1402</ele>
        <time>2018-04-02T12:36:49.000Z</time>
      </trkpt>
      <trkpt lat="42.96162" lon="0.85681">
        <ele>1402</ele>
        <time>2018-04-02T12:36:51.000Z</time>
      </trkpt>
      <trkpt lat="42.96162" lon="0.85681">
        <ele>1402</ele>
        <time>2018-04-02T12:36:53.000Z</time>
      </trkpt>
      <trkpt lat="42.96162" lon="0.8568">
        <ele>1402</ele>
        <time>2018-04-02T12:36:55.000Z</time>
      </trkpt>
      <trkpt lat="42.96161" lon="0.8568">
        <ele>1402</ele>
        <time>2018-04-02T12:36:57.000Z</time>
      </trkpt>
      <trkpt lat="42.96162" lon="0.8568">
        <ele>1402</ele>
        <time>2018-04-02T12:36:59.000Z</time>
      </trkpt>
      <trkpt lat="42.96162" lon="0.8568">
        <ele>1402</ele>
        <time>2018-04-02T12:37:01.000Z</time>
      </trkpt>
      <trkpt lat="42.96162" lon="0.8568">
        <ele>1402</ele>
        <time>2018-04-02T12:37:03.000Z</time>
      </trkpt>
      <trkpt lat="42.96162" lon="0.85679">
        <ele>1402</ele>
        <time>2018-04-02T12:37:05.000Z</time>
      </trkpt>
      <trkpt lat="42.96162" lon="0.8568">
        <ele>1402</ele>
        <time>2018-04-02T12:37:07.000Z</time>
      </trkpt>
      <trkpt lat="42.96162" lon="0.8568">
        <ele>1402</ele>
        <time>2018-04-02T12:37:09.000Z</time>
      </trkpt>
      <trkpt lat="42.96162" lon="0.8568">
        <ele>1402</ele>
        <time>2018-04-02T12:37:11.000Z</time>
      </trkpt>
      <trkpt lat="42.96162" lon="0.8568">
        <ele>1402</ele>
        <time>2018-04-02T12:37:13.000Z</time>
      </trkpt>
      <trkpt lat="42.96162" lon="0.85679">
        <ele>1402</ele>
        <time>2018-04-02T12:37:15.000Z</time>
      </trkpt>
      <trkpt lat="42.96163" lon="0.85679">
        <ele>1402</ele>
        <time>2018-04-02T12:37:17.000Z</time>
      </trkpt>
      <trkpt lat="42.96163" lon="0.85678">
        <ele>1402</ele>
        <time>2018-04-02T12:37:19.000Z</time>
      </trkpt>
      <trkpt lat="42.96163" lon="0.85677">
        <ele>1402</ele>
        <time>2018-04-02T12:37:21.000Z</time>
      </trkpt>
      <trkpt lat="42.96162" lon="0.85677">
        <ele>1402</ele>
        <time>2018-04-02T12:37:23.000Z</time>
      </trkpt>
      <trkpt lat="42.96162" lon="0.85676">
        <ele>1402</ele>
        <time>2018-04-02T12:37:25.000Z</time>
      </trkpt>
      <trkpt lat="42.96162" lon="0.85675">
        <ele>1403</ele>
        <time>2018-04-02T12:37:27.000Z</time>
      </trkpt>
      <trkpt lat="42.96162" lon="0.85675">
        <ele>1403</ele>
        <time>2018-04-02T12:37:29.000Z</time>
      </trkpt>
      <trkpt lat="42.96162" lon="0.85675">
        <ele>1403</ele>
        <time>2018-04-02T12:37:31.000Z</time>
      </trkpt>
      <trkpt lat="42.96161" lon="0.85675">
        <ele>1402</ele>
        <time>2018-04-02T12:37:33.000Z</time>
      </trkpt>
      <trkpt lat="42.96162" lon="0.85677">
        <ele>1402</ele>
        <time>2018-04-02T12:37:35.000Z</time>
      </trkpt>
      <trkpt lat="42.96162" lon="0.85677">
        <ele>1402</ele>
        <time>2018-04-02T12:37:37.000Z</time>
      </trkpt>
      <trkpt lat="42.96162" lon="0.85678">
        <ele>1402</ele>
        <time>2018-04-02T12:37:39.000Z</time>
      </trkpt>
      <trkpt lat="42.96162" lon="0.85677">
        <ele>1402</ele>
        <time>2018-04-02T12:37:41.000Z</time>
      </trkpt>
      <trkpt lat="42.96162" lon="0.85676">
        <ele>1402</ele>
        <time>2018-04-02T12:37:43.000Z</time>
      </trkpt>
      <trkpt lat="42.96162" lon="0.85676">
        <ele>1402</ele>
        <time>2018-04-02T12:37:45.000Z</time>
      </trkpt>
      <trkpt lat="42.96162" lon="0.85675">
        <ele>1403</ele>
        <time>2018-04-02T12:37:47.000Z</time>
      </trkpt>
      <trkpt lat="42.96162" lon="0.85674">
        <ele>1403</ele>
        <time>2018-04-02T12:37:49.000Z</time>
      </trkpt>
      <trkpt lat="42.96164" lon="0.85673">
        <ele>1403</ele>
        <time>2018-04-02T12:37:51.000Z</time>
      </trkpt>
      <trkpt lat="42.96164" lon="0.85673">
        <ele>1403</ele>
        <time>2018-04-02T12:37:53.000Z</time>
      </trkpt>
      <trkpt lat="42.96165" lon="0.85673">
        <ele>1403</ele>
        <time>2018-04-02T12:37:55.000Z</time>
      </trkpt>
      <trkpt lat="42.96165" lon="0.85672">
        <ele>1403</ele>
        <time>2018-04-02T12:37:57.000Z</time>
      </trkpt>
      <trkpt lat="42.96165" lon="0.85672">
        <ele>1403</ele>
        <time>2018-04-02T12:37:59.000Z</time>
      </trkpt>
      <trkpt lat="42.96164" lon="0.85673">
        <ele>1403</ele>
        <time>2018-04-02T12:38:01.000Z</time>
      </trkpt>
      <trkpt lat="42.96164" lon="0.85673">
        <ele>1403</ele>
        <time>2018-04-02T12:38:03.000Z</time>
      </trkpt>
      <trkpt lat="42.96163" lon="0.85674">
        <ele>1403</ele>
        <time>2018-04-02T12:38:05.000Z</time>
      </trkpt>
      <trkpt lat="42.96163" lon="0.85674">
        <ele>1403</ele>
        <time>2018-04-02T12:38:07.000Z</time>
      </trkpt>
      <trkpt lat="42.96163" lon="0.85674">
        <ele>1403</ele>
        <time>2018-04-02T12:38:09.000Z</time>
      </trkpt>
      <trkpt lat="42.96163" lon="0.85675">
        <ele>1403</ele>
        <time>2018-04-02T12:38:11.000Z</time>
      </trkpt>
      <trkpt lat="42.96164" lon="0.85675">
        <ele>1403</ele>
        <time>2018-04-02T12:38:13.000Z</time>
      </trkpt>
      <trkpt lat="42.96164" lon="0.85675">
        <ele>1403</ele>
        <time>2018-04-02T12:38:15.000Z</time>
      </trkpt>
      <trkpt lat="42.96163" lon="0.85676">
        <ele>1403</ele>
        <time>2018-04-02T12:38:17.000Z</time>
      </trkpt>
      <trkpt lat="42.96163" lon="0.85676">
        <ele>1402</ele>
        <time>2018-04-02T12:38:19.000Z</time>
      </trkpt>
      <trkpt lat="42.96162" lon="0.85676">
        <ele>1402</ele>
        <time>2018-04-02T12:38:21.000Z</time>
      </trkpt>
      <trkpt lat="42.96162" lon="0.85676">
        <ele>1402</ele>
        <time>2018-04-02T12:38:23.000Z</time>
      </trkpt>
      <trkpt lat="42.96163" lon="0.85676">
        <ele>1403</ele>
        <time>2018-04-02T12:38:25.000Z</time>
      </trkpt>
      <trkpt lat="42.96163" lon="0.85678">
        <ele>1402</ele>
        <time>2018-04-02T12:38:27.000Z</time>
      </trkpt>
      <trkpt lat="42.96164" lon="0.85678">
        <ele>1402</ele>
        <time>2018-04-02T12:38:29.000Z</time>
      </trkpt>
      <trkpt lat="42.96165" lon="0.85679">
        <ele>1402</ele>
        <time>2018-04-02T12:38:31.000Z</time>
      </trkpt>
      <trkpt lat="42.96166" lon="0.85679">
        <ele>1402</ele>
        <time>2018-04-02T12:38:33.000Z</time>
      </trkpt>
      <trkpt lat="42.96165" lon="0.85679">
        <ele>1402</ele>
        <time>2018-04-02T12:38:35.000Z</time>
      </trkpt>
      <trkpt lat="42.96166" lon="0.8568">
        <ele>1402</ele>
        <time>2018-04-02T12:38:37.000Z</time>
      </trkpt>
      <trkpt lat="42.96167" lon="0.85681">
        <ele>1402</ele>
        <time>2018-04-02T12:38:39.000Z</time>
      </trkpt>
      <trkpt lat="42.96167" lon="0.85682">
        <ele>1402</ele>
        <time>2018-04-02T12:38:41.000Z</time>
      </trkpt>
      <trkpt lat="42.96166" lon="0.85682">
        <ele>1402</ele>
        <time>2018-04-02T12:38:43.000Z</time>
      </trkpt>
      <trkpt lat="42.96165" lon="0.85684">
        <ele>1402</ele>
        <time>2018-04-02T12:38:45.000Z</time>
      </trkpt>
      <trkpt lat="42.96164" lon="0.85685">
        <ele>1402</ele>
        <time>2018-04-02T12:38:47.000Z</time>
      </trkpt>
      <trkpt lat="42.96164" lon="0.85686">
        <ele>1401</ele>
        <time>2018-04-02T12:38:49.000Z</time>
      </trkpt>
      <trkpt lat="42.96163" lon="0.85688">
        <ele>1401</ele>
        <time>2018-04-02T12:38:51.000Z</time>
      </trkpt>
      <trkpt lat="42.96163" lon="0.8569">
        <ele>1401</ele>
        <time>2018-04-02T12:38:53.000Z</time>
      </trkpt>
      <trkpt lat="42.96163" lon="0.85691">
        <ele>1401</ele>
        <time>2018-04-02T12:38:55.000Z</time>
      </trkpt>
      <trkpt lat="42.96162" lon="0.85691">
        <ele>1401</ele>
        <time>2018-04-02T12:38:57.000Z</time>
      </trkpt>
      <trkpt lat="42.96161" lon="0.85691">
        <ele>1401</ele>
        <time>2018-04-02T12:38:59.000Z</time>
      </trkpt>
      <trkpt lat="42.96161" lon="0.85691">
        <ele>1401</ele>
        <time>2018-04-02T12:39:01.000Z</time>
      </trkpt>
      <trkpt lat="42.96161" lon="0.85691">
        <ele>1401</ele>
        <time>2018-04-02T12:39:03.000Z</time>
      </trkpt>
      <trkpt lat="42.96161" lon="0.8569">
        <ele>1401</ele>
        <time>2018-04-02T12:39:05.000Z</time>
      </trkpt>
      <trkpt lat="42.96162" lon="0.85689">
        <ele>1401</ele>
        <time>2018-04-02T12:39:07.000Z</time>
      </trkpt>
      <trkpt lat="42.96162" lon="0.85686">
        <ele>1401</ele>
        <time>2018-04-02T12:39:09.000Z</time>
      </trkpt>
      <trkpt lat="42.96163" lon="0.85685">
        <ele>1402</ele>
        <time>2018-04-02T12:39:11.000Z</time>
      </trkpt>
      <trkpt lat="42.96164" lon="0.85683">
        <ele>1402</ele>
        <time>2018-04-02T12:39:13.000Z</time>
      </trkpt>
      <trkpt lat="42.96164" lon="0.85682">
        <ele>1402</ele>
        <time>2018-04-02T12:39:15.000Z</time>
      </trkpt>
      <trkpt lat="42.96164" lon="0.85681">
        <ele>1402</ele>
        <time>2018-04-02T12:39:17.000Z</time>
      </trkpt>
      <trkpt lat="42.96164" lon="0.8568">
        <ele>1402</ele>
        <time>2018-04-02T12:39:19.000Z</time>
      </trkpt>
      <trkpt lat="42.96164" lon="0.8568">
        <ele>1402</ele>
        <time>2018-04-02T12:39:21.000Z</time>
      </trkpt>
      <trkpt lat="42.96163" lon="0.8568">
        <ele>1402</ele>
        <time>2018-04-02T12:39:23.000Z</time>
      </trkpt>
      <trkpt lat="42.96163" lon="0.85682">
        <ele>1402</ele>
        <time>2018-04-02T12:39:25.000Z</time>
      </trkpt>
      <trkpt lat="42.96162" lon="0.85682">
        <ele>1402</ele>
        <time>2018-04-02T12:39:27.000Z</time>
      </trkpt>
      <trkpt lat="42.96162" lon="0.85682">
        <ele>1402</ele>
        <time>2018-04-02T12:39:29.000Z</time>
      </trkpt>
      <trkpt lat="42.96161" lon="0.85682">
        <ele>1402</ele>
        <time>2018-04-02T12:39:31.000Z</time>
      </trkpt>
      <trkpt lat="42.96161" lon="0.85681">
        <ele>1402</ele>
        <time>2018-04-02T12:39:33.000Z</time>
      </trkpt>
      <trkpt lat="42.96161" lon="0.85681">
        <ele>1402</ele>
        <time>2018-04-02T12:39:35.000Z</time>
      </trkpt>
      <trkpt lat="42.9616" lon="0.85682">
        <ele>1402</ele>
        <time>2018-04-02T12:39:37.000Z</time>
      </trkpt>
      <trkpt lat="42.9616" lon="0.85682">
        <ele>1402</ele>
        <time>2018-04-02T12:39:39.000Z</time>
      </trkpt>
      <trkpt lat="42.9616" lon="0.85682">
        <ele>1402</ele>
        <time>2018-04-02T12:39:41.000Z</time>
      </trkpt>
      <trkpt lat="42.96159" lon="0.85683">
        <ele>1402</ele>
        <time>2018-04-02T12:39:43.000Z</time>
      </trkpt>
      <trkpt lat="42.96159" lon="0.85684">
        <ele>1401</ele>
        <time>2018-04-02T12:39:45.000Z</time>
      </trkpt>
      <trkpt lat="42.96159" lon="0.85683">
        <ele>1402</ele>
        <time>2018-04-02T12:39:47.000Z</time>
      </trkpt>
      <trkpt lat="42.96159" lon="0.85683">
        <ele>1401</ele>
        <time>2018-04-02T12:39:49.000Z</time>
      </trkpt>
      <trkpt lat="42.96158" lon="0.85683">
        <ele>1401</ele>
        <time>2018-04-02T12:39:51.000Z</time>
      </trkpt>
      <trkpt lat="42.96158" lon="0.85683">
        <ele>1401</ele>
        <time>2018-04-02T12:39:53.000Z</time>
      </trkpt>
      <trkpt lat="42.96159" lon="0.85683">
        <ele>1402</ele>
        <time>2018-04-02T12:39:55.000Z</time>
      </trkpt>
      <trkpt lat="42.96158" lon="0.85683">
        <ele>1402</ele>
        <time>2018-04-02T12:39:57.000Z</time>
      </trkpt>
      <trkpt lat="42.96158" lon="0.85683">
        <ele>1402</ele>
        <time>2018-04-02T12:39:59.000Z</time>
      </trkpt>
      <trkpt lat="42.96159" lon="0.85684">
        <ele>1401</ele>
        <time>2018-04-02T12:40:01.000Z</time>
      </trkpt>
      <trkpt lat="42.96159" lon="0.85684">
        <ele>1401</ele>
        <time>2018-04-02T12:40:03.000Z</time>
      </trkpt>
      <trkpt lat="42.96158" lon="0.85685">
        <ele>1401</ele>
        <time>2018-04-02T12:40:05.000Z</time>
      </trkpt>
      <trkpt lat="42.96159" lon="0.85684">
        <ele>1401</ele>
        <time>2018-04-02T12:40:07.000Z</time>
      </trkpt>
      <trkpt lat="42.9616" lon="0.85684">
        <ele>1401</ele>
        <time>2018-04-02T12:40:09.000Z</time>
      </trkpt>
      <trkpt lat="42.96159" lon="0.85685">
        <ele>1401</ele>
        <time>2018-04-02T12:40:11.000Z</time>
      </trkpt>
      <trkpt lat="42.9616" lon="0.85684">
        <ele>1401</ele>
        <time>2018-04-02T12:40:13.000Z</time>
      </trkpt>
      <trkpt lat="42.9616" lon="0.85684">
        <ele>1401</ele>
        <time>2018-04-02T12:40:15.000Z</time>
      </trkpt>
      <trkpt lat="42.96161" lon="0.85684">
        <ele>1401</ele>
        <time>2018-04-02T12:40:17.000Z</time>
      </trkpt>
      <trkpt lat="42.96161" lon="0.85684">
        <ele>1402</ele>
        <time>2018-04-02T12:40:19.000Z</time>
      </trkpt>
      <trkpt lat="42.96161" lon="0.85684">
        <ele>1402</ele>
        <time>2018-04-02T12:40:21.000Z</time>
      </trkpt>
      <trkpt lat="42.96161" lon="0.85684">
        <ele>1402</ele>
        <time>2018-04-02T12:40:23.000Z</time>
      </trkpt>
      <trkpt lat="42.96161" lon="0.85683">
        <ele>1402</ele>
        <time>2018-04-02T12:40:25.000Z</time>
      </trkpt>
      <trkpt lat="42.96162" lon="0.85683">
        <ele>1402</ele>
        <time>2018-04-02T12:40:27.000Z</time>
      </trkpt>
      <trkpt lat="42.96162" lon="0.85682">
        <ele>1402</ele>
        <time>2018-04-02T12:40:29.000Z</time>
      </trkpt>
      <trkpt lat="42.96162" lon="0.85681">
        <ele>1402</ele>
        <time>2018-04-02T12:40:31.000Z</time>
      </trkpt>
      <trkpt lat="42.96162" lon="0.85681">
        <ele>1402</ele>
        <time>2018-04-02T12:40:33.000Z</time>
      </trkpt>
      <trkpt lat="42.96162" lon="0.85679">
        <ele>1402</ele>
        <time>2018-04-02T12:40:35.000Z</time>
      </trkpt>
      <trkpt lat="42.96163" lon="0.85677">
        <ele>1402</ele>
        <time>2018-04-02T12:40:37.000Z</time>
      </trkpt>
      <trkpt lat="42.96163" lon="0.85678">
        <ele>1402</ele>
        <time>2018-04-02T12:40:39.000Z</time>
      </trkpt>
      <trkpt lat="42.96162" lon="0.85678">
        <ele>1402</ele>
        <time>2018-04-02T12:40:41.000Z</time>
      </trkpt>
      <trkpt lat="42.96162" lon="0.85679">
        <ele>1402</ele>
        <time>2018-04-02T12:40:43.000Z</time>
      </trkpt>
      <trkpt lat="42.96161" lon="0.85679">
        <ele>1402</ele>
        <time>2018-04-02T12:40:45.000Z</time>
      </trkpt>
      <trkpt lat="42.96161" lon="0.85679">
        <ele>1402</ele>
        <time>2018-04-02T12:40:47.000Z</time>
      </trkpt>
      <trkpt lat="42.96161" lon="0.85679">
        <ele>1402</ele>
        <time>2018-04-02T12:40:49.000Z</time>
      </trkpt>
      <trkpt lat="42.9616" lon="0.85679">
        <ele>1402</ele>
        <time>2018-04-02T12:40:51.000Z</time>
      </trkpt>
      <trkpt lat="42.96161" lon="0.85679">
        <ele>1402</ele>
        <time>2018-04-02T12:40:53.000Z</time>
      </trkpt>
      <trkpt lat="42.96161" lon="0.85679">
        <ele>1402</ele>
        <time>2018-04-02T12:40:55.000Z</time>
      </trkpt>
      <trkpt lat="42.96161" lon="0.85678">
        <ele>1402</ele>
        <time>2018-04-02T12:40:57.000Z</time>
      </trkpt>
      <trkpt lat="42.96161" lon="0.85677">
        <ele>1402</ele>
        <time>2018-04-02T12:40:59.000Z</time>
      </trkpt>
      <trkpt lat="42.96161" lon="0.85678">
        <ele>1402</ele>
        <time>2018-04-02T12:41:01.000Z</time>
      </trkpt>
      <trkpt lat="42.9616" lon="0.85678">
        <ele>1402</ele>
        <time>2018-04-02T12:41:03.000Z</time>
      </trkpt>
      <trkpt lat="42.9616" lon="0.85679">
        <ele>1402</ele>
        <time>2018-04-02T12:41:05.000Z</time>
      </trkpt>
      <trkpt lat="42.9616" lon="0.85679">
        <ele>1402</ele>
        <time>2018-04-02T12:41:07.000Z</time>
      </trkpt>
      <trkpt lat="42.96159" lon="0.85679">
        <ele>1402</ele>
        <time>2018-04-02T12:41:09.000Z</time>
      </trkpt>
      <trkpt lat="42.96159" lon="0.85679">
        <ele>1402</ele>
        <time>2018-04-02T12:41:11.000Z</time>
      </trkpt>
      <trkpt lat="42.9616" lon="0.85679">
        <ele>1402</ele>
        <time>2018-04-02T12:41:13.000Z</time>
      </trkpt>
      <trkpt lat="42.9616" lon="0.85679">
        <ele>1402</ele>
        <time>2018-04-02T12:41:15.000Z</time>
      </trkpt>
      <trkpt lat="42.9616" lon="0.85679">
        <ele>1402</ele>
        <time>2018-04-02T12:41:17.000Z</time>
      </trkpt>
      <trkpt lat="42.96161" lon="0.85678">
        <ele>1402</ele>
        <time>2018-04-02T12:41:19.000Z</time>
      </trkpt>
      <trkpt lat="42.96161" lon="0.8568">
        <ele>1402</ele>
        <time>2018-04-02T12:41:21.000Z</time>
      </trkpt>
      <trkpt lat="42.96161" lon="0.8568">
        <ele>1402</ele>
        <time>2018-04-02T12:41:23.000Z</time>
      </trkpt>
      <trkpt lat="42.96162" lon="0.85681">
        <ele>1402</ele>
        <time>2018-04-02T12:41:25.000Z</time>
      </trkpt>
      <trkpt lat="42.96163" lon="0.85682">
        <ele>1402</ele>
        <time>2018-04-02T12:41:27.000Z</time>
      </trkpt>
      <trkpt lat="42.96162" lon="0.85682">
        <ele>1402</ele>
        <time>2018-04-02T12:41:29.000Z</time>
      </trkpt>
      <trkpt lat="42.96162" lon="0.85682">
        <ele>1402</ele>
        <time>2018-04-02T12:41:31.000Z</time>
      </trkpt>
      <trkpt lat="42.96161" lon="0.85681">
        <ele>1402</ele>
        <time>2018-04-02T12:41:33.000Z</time>
      </trkpt>
      <trkpt lat="42.96161" lon="0.85682">
        <ele>1402</ele>
        <time>2018-04-02T12:41:35.000Z</time>
      </trkpt>
      <trkpt lat="42.96161" lon="0.85682">
        <ele>1402</ele>
        <time>2018-04-02T12:41:37.000Z</time>
      </trkpt>
      <trkpt lat="42.96161" lon="0.85683">
        <ele>1402</ele>
        <time>2018-04-02T12:41:39.000Z</time>
      </trkpt>
      <trkpt lat="42.96161" lon="0.85683">
        <ele>1402</ele>
        <time>2018-04-02T12:41:41.000Z</time>
      </trkpt>
      <trkpt lat="42.96161" lon="0.85684">
        <ele>1401</ele>
        <time>2018-04-02T12:41:43.000Z</time>
      </trkpt>
      <trkpt lat="42.9616" lon="0.85684">
        <ele>1401</ele>
        <time>2018-04-02T12:41:45.000Z</time>
      </trkpt>
      <trkpt lat="42.9616" lon="0.85685">
        <ele>1401</ele>
        <time>2018-04-02T12:41:47.000Z</time>
      </trkpt>
      <trkpt lat="42.96159" lon="0.85685">
        <ele>1401</ele>
        <time>2018-04-02T12:41:49.000Z</time>
      </trkpt>
      <trkpt lat="42.96159" lon="0.85685">
        <ele>1401</ele>
        <time>2018-04-02T12:41:51.000Z</time>
      </trkpt>
      <trkpt lat="42.96159" lon="0.85686">
        <ele>1401</ele>
        <time>2018-04-02T12:41:53.000Z</time>
      </trkpt>
      <trkpt lat="42.96159" lon="0.85686">
        <ele>1401</ele>
        <time>2018-04-02T12:41:55.000Z</time>
      </trkpt>
      <trkpt lat="42.96159" lon="0.85686">
        <ele>1401</ele>
        <time>2018-04-02T12:41:57.000Z</time>
      </trkpt>
      <trkpt lat="42.9616" lon="0.85686">
        <ele>1401</ele>
        <time>2018-04-02T12:41:59.000Z</time>
      </trkpt>
      <trkpt lat="42.9616" lon="0.85685">
        <ele>1401</ele>
        <time>2018-04-02T12:42:01.000Z</time>
      </trkpt>
      <trkpt lat="42.9616" lon="0.85684">
        <ele>1401</ele>
        <time>2018-04-02T12:42:03.000Z</time>
      </trkpt>
      <trkpt lat="42.9616" lon="0.85684">
        <ele>1401</ele>
        <time>2018-04-02T12:42:05.000Z</time>
      </trkpt>
      <trkpt lat="42.96161" lon="0.85684">
        <ele>1402</ele>
        <time>2018-04-02T12:42:07.000Z</time>
      </trkpt>
      <trkpt lat="42.9616" lon="0.85684">
        <ele>1402</ele>
        <time>2018-04-02T12:42:09.000Z</time>
      </trkpt>
      <trkpt lat="42.96161" lon="0.85684">
        <ele>1402</ele>
        <time>2018-04-02T12:42:11.000Z</time>
      </trkpt>
      <trkpt lat="42.9616" lon="0.85684">
        <ele>1402</ele>
        <time>2018-04-02T12:42:13.000Z</time>
      </trkpt>
      <trkpt lat="42.96161" lon="0.85685">
        <ele>1401</ele>
        <time>2018-04-02T12:42:15.000Z</time>
      </trkpt>
      <trkpt lat="42.96161" lon="0.85684">
        <ele>1402</ele>
        <time>2018-04-02T12:42:17.000Z</time>
      </trkpt>
      <trkpt lat="42.96161" lon="0.85683">
        <ele>1402</ele>
        <time>2018-04-02T12:42:19.000Z</time>
      </trkpt>
      <trkpt lat="42.96161" lon="0.85683">
        <ele>1402</ele>
        <time>2018-04-02T12:42:21.000Z</time>
      </trkpt>
      <trkpt lat="42.96162" lon="0.85682">
        <ele>1402</ele>
        <time>2018-04-02T12:42:23.000Z</time>
      </trkpt>
      <trkpt lat="42.96162" lon="0.85682">
        <ele>1402</ele>
        <time>2018-04-02T12:42:25.000Z</time>
      </trkpt>
      <trkpt lat="42.96162" lon="0.85682">
        <ele>1402</ele>
        <time>2018-04-02T12:42:27.000Z</time>
      </trkpt>
      <trkpt lat="42.96162" lon="0.85682">
        <ele>1402</ele>
        <time>2018-04-02T12:42:29.000Z</time>
      </trkpt>
      <trkpt lat="42.96161" lon="0.85681">
        <ele>1402</ele>
        <time>2018-04-02T12:42:31.000Z</time>
      </trkpt>
      <trkpt lat="42.96161" lon="0.85681">
        <ele>1402</ele>
        <time>2018-04-02T12:42:33.000Z</time>
      </trkpt>
      <trkpt lat="42.9616" lon="0.85681">
        <ele>1402</ele>
        <time>2018-04-02T12:42:35.000Z</time>
      </trkpt>
      <trkpt lat="42.9616" lon="0.85681">
        <ele>1402</ele>
        <time>2018-04-02T12:42:37.000Z</time>
      </trkpt>
      <trkpt lat="42.9616" lon="0.85681">
        <ele>1402</ele>
        <time>2018-04-02T12:42:39.000Z</time>
      </trkpt>
      <trkpt lat="42.96159" lon="0.85681">
        <ele>1402</ele>
        <time>2018-04-02T12:42:41.000Z</time>
      </trkpt>
      <trkpt lat="42.96159" lon="0.85682">
        <ele>1402</ele>
        <time>2018-04-02T12:42:43.000Z</time>
      </trkpt>
      <trkpt lat="42.96159" lon="0.85681">
        <ele>1402</ele>
        <time>2018-04-02T12:42:45.000Z</time>
      </trkpt>
      <trkpt lat="42.96159" lon="0.8568">
        <ele>1402</ele>
        <time>2018-04-02T12:42:47.000Z</time>
      </trkpt>
      <trkpt lat="42.9616" lon="0.85679">
        <ele>1402</ele>
        <time>2018-04-02T12:42:49.000Z</time>
      </trkpt>
      <trkpt lat="42.9616" lon="0.85681">
        <ele>1402</ele>
        <time>2018-04-02T12:42:51.000Z</time>
      </trkpt>
      <trkpt lat="42.9616" lon="0.85681">
        <ele>1402</ele>
        <time>2018-04-02T12:42:53.000Z</time>
      </trkpt>
      <trkpt lat="42.9616" lon="0.8568">
        <ele>1402</ele>
        <time>2018-04-02T12:42:55.000Z</time>
      </trkpt>
      <trkpt lat="42.96161" lon="0.8568">
        <ele>1402</ele>
        <time>2018-04-02T12:42:57.000Z</time>
      </trkpt>
      <trkpt lat="42.96161" lon="0.8568">
        <ele>1402</ele>
        <time>2018-04-02T12:42:59.000Z</time>
      </trkpt>
      <trkpt lat="42.96161" lon="0.8568">
        <ele>1402</ele>
        <time>2018-04-02T12:43:01.000Z</time>
      </trkpt>
      <trkpt lat="42.96161" lon="0.85679">
        <ele>1402</ele>
        <time>2018-04-02T12:43:03.000Z</time>
      </trkpt>
      <trkpt lat="42.96162" lon="0.85678">
        <ele>1402</ele>
        <time>2018-04-02T12:43:05.000Z</time>
      </trkpt>
      <trkpt lat="42.96161" lon="0.85678">
        <ele>1402</ele>
        <time>2018-04-02T12:43:07.000Z</time>
      </trkpt>
      <trkpt lat="42.96161" lon="0.85676">
        <ele>1402</ele>
        <time>2018-04-02T12:43:09.000Z</time>
      </trkpt>
      <trkpt lat="42.96161" lon="0.85676">
        <ele>1402</ele>
        <time>2018-04-02T12:43:11.000Z</time>
      </trkpt>
      <trkpt lat="42.96161" lon="0.85675">
        <ele>1402</ele>
        <time>2018-04-02T12:43:13.000Z</time>
      </trkpt>
      <trkpt lat="42.96161" lon="0.85675">
        <ele>1403</ele>
        <time>2018-04-02T12:43:15.000Z</time>
      </trkpt>
      <trkpt lat="42.96161" lon="0.85676">
        <ele>1402</ele>
        <time>2018-04-02T12:43:17.000Z</time>
      </trkpt>
      <trkpt lat="42.96161" lon="0.85676">
        <ele>1402</ele>
        <time>2018-04-02T12:43:19.000Z</time>
      </trkpt>
      <trkpt lat="42.96161" lon="0.85675">
        <ele>1403</ele>
        <time>2018-04-02T12:43:21.000Z</time>
      </trkpt>
      <trkpt lat="42.96162" lon="0.85675">
        <ele>1403</ele>
        <time>2018-04-02T12:43:23.000Z</time>
      </trkpt>
      <trkpt lat="42.96162" lon="0.85674">
        <ele>1403</ele>
        <time>2018-04-02T12:43:25.000Z</time>
      </trkpt>
      <trkpt lat="42.96162" lon="0.85674">
        <ele>1403</ele>
        <time>2018-04-02T12:43:27.000Z</time>
      </trkpt>
      <trkpt lat="42.96162" lon="0.85675">
        <ele>1403</ele>
        <time>2018-04-02T12:43:29.000Z</time>
      </trkpt>
      <trkpt lat="42.96162" lon="0.85675">
        <ele>1403</ele>
        <time>2018-04-02T12:43:31.000Z</time>
      </trkpt>
      <trkpt lat="42.96162" lon="0.85675">
        <ele>1403</ele>
        <time>2018-04-02T12:43:33.000Z</time>
      </trkpt>
      <trkpt lat="42.96162" lon="0.85677">
        <ele>1402</ele>
        <time>2018-04-02T12:43:35.000Z</time>
      </trkpt>
      <trkpt lat="42.96163" lon="0.85677">
        <ele>1402</ele>
        <time>2018-04-02T12:43:37.000Z</time>
      </trkpt>
      <trkpt lat="42.96163" lon="0.85678">
        <ele>1402</ele>
        <time>2018-04-02T12:43:39.000Z</time>
      </trkpt>
      <trkpt lat="42.96163" lon="0.85678">
        <ele>1402</ele>
        <time>2018-04-02T12:43:41.000Z</time>
      </trkpt>
      <trkpt lat="42.96163" lon="0.85679">
        <ele>1402</ele>
        <time>2018-04-02T12:43:43.000Z</time>
      </trkpt>
      <trkpt lat="42.96163" lon="0.85679">
        <ele>1402</ele>
        <time>2018-04-02T12:43:45.000Z</time>
      </trkpt>
      <trkpt lat="42.96164" lon="0.85679">
        <ele>1402</ele>
        <time>2018-04-02T12:43:47.000Z</time>
      </trkpt>
      <trkpt lat="42.96163" lon="0.85679">
        <ele>1402</ele>
        <time>2018-04-02T12:43:49.000Z</time>
      </trkpt>
      <trkpt lat="42.96163" lon="0.85679">
        <ele>1402</ele>
        <time>2018-04-02T12:43:51.000Z</time>
      </trkpt>
      <trkpt lat="42.96163" lon="0.85679">
        <ele>1402</ele>
        <time>2018-04-02T12:43:53.000Z</time>
      </trkpt>
      <trkpt lat="42.96164" lon="0.85679">
        <ele>1402</ele>
        <time>2018-04-02T12:43:55.000Z</time>
      </trkpt>
      <trkpt lat="42.96166" lon="0.85678">
        <ele>1402</ele>
        <time>2018-04-02T12:43:57.000Z</time>
      </trkpt>
      <trkpt lat="42.96166" lon="0.85677">
        <ele>1402</ele>
        <time>2018-04-02T12:43:59.000Z</time>
      </trkpt>
      <trkpt lat="42.96167" lon="0.85677">
        <ele>1403</ele>
        <time>2018-04-02T12:44:01.000Z</time>
      </trkpt>
      <trkpt lat="42.96167" lon="0.85677">
        <ele>1403</ele>
        <time>2018-04-02T12:44:03.000Z</time>
      </trkpt>
      <trkpt lat="42.96168" lon="0.85677">
        <ele>1403</ele>
        <time>2018-04-02T12:44:05.000Z</time>
      </trkpt>
      <trkpt lat="42.96169" lon="0.85676">
        <ele>1403</ele>
        <time>2018-04-02T12:44:07.000Z</time>
      </trkpt>
      <trkpt lat="42.9617" lon="0.85676">
        <ele>1403</ele>
        <time>2018-04-02T12:44:09.000Z</time>
      </trkpt>
      <trkpt lat="42.96171" lon="0.85675">
        <ele>1403</ele>
        <time>2018-04-02T12:44:11.000Z</time>
      </trkpt>
      <trkpt lat="42.96172" lon="0.85674">
        <ele>1403</ele>
        <time>2018-04-02T12:44:13.000Z</time>
      </trkpt>
      <trkpt lat="42.96172" lon="0.85674">
        <ele>1403</ele>
        <time>2018-04-02T12:44:15.000Z</time>
      </trkpt>
      <trkpt lat="42.96172" lon="0.85674">
        <ele>1403</ele>
        <time>2018-04-02T12:44:17.000Z</time>
      </trkpt>
      <trkpt lat="42.96172" lon="0.85673">
        <ele>1403</ele>
        <time>2018-04-02T12:44:19.000Z</time>
      </trkpt>
      <trkpt lat="42.96171" lon="0.85674">
        <ele>1403</ele>
        <time>2018-04-02T12:44:21.000Z</time>
      </trkpt>
      <trkpt lat="42.9617" lon="0.85675">
        <ele>1403</ele>
        <time>2018-04-02T12:44:23.000Z</time>
      </trkpt>
      <trkpt lat="42.96169" lon="0.85675">
        <ele>1403</ele>
        <time>2018-04-02T12:44:25.000Z</time>
      </trkpt>
      <trkpt lat="42.96169" lon="0.85675">
        <ele>1403</ele>
        <time>2018-04-02T12:44:27.000Z</time>
      </trkpt>
      <trkpt lat="42.96168" lon="0.85675">
        <ele>1403</ele>
        <time>2018-04-02T12:44:29.000Z</time>
      </trkpt>
      <trkpt lat="42.96168" lon="0.85675">
        <ele>1403</ele>
        <time>2018-04-02T12:44:31.000Z</time>
      </trkpt>
      <trkpt lat="42.96168" lon="0.85675">
        <ele>1403</ele>
        <time>2018-04-02T12:44:33.000Z</time>
      </trkpt>
      <trkpt lat="42.96168" lon="0.85675">
        <ele>1403</ele>
        <time>2018-04-02T12:44:35.000Z</time>
      </trkpt>
      <trkpt lat="42.96167" lon="0.85676">
        <ele>1403</ele>
        <time>2018-04-02T12:44:37.000Z</time>
      </trkpt>
      <trkpt lat="42.96166" lon="0.85677">
        <ele>1403</ele>
        <time>2018-04-02T12:44:39.000Z</time>
      </trkpt>
      <trkpt lat="42.96166" lon="0.85677">
        <ele>1402</ele>
        <time>2018-04-02T12:44:41.000Z</time>
      </trkpt>
      <trkpt lat="42.96165" lon="0.85678">
        <ele>1402</ele>
        <time>2018-04-02T12:44:43.000Z</time>
      </trkpt>
      <trkpt lat="42.96165" lon="0.85679">
        <ele>1402</ele>
        <time>2018-04-02T12:44:45.000Z</time>
      </trkpt>
      <trkpt lat="42.96164" lon="0.85679">
        <ele>1402</ele>
        <time>2018-04-02T12:44:47.000Z</time>
      </trkpt>
      <trkpt lat="42.96164" lon="0.8568">
        <ele>1402</ele>
        <time>2018-04-02T12:44:49.000Z</time>
      </trkpt>
      <trkpt lat="42.96164" lon="0.8568">
        <ele>1402</ele>
        <time>2018-04-02T12:44:51.000Z</time>
      </trkpt>
      <trkpt lat="42.96164" lon="0.8568">
        <ele>1402</ele>
        <time>2018-04-02T12:44:53.000Z</time>
      </trkpt>
      <trkpt lat="42.96164" lon="0.8568">
        <ele>1402</ele>
        <time>2018-04-02T12:44:55.000Z</time>
      </trkpt>
      <trkpt lat="42.96164" lon="0.85681">
        <ele>1402</ele>
        <time>2018-04-02T12:44:57.000Z</time>
      </trkpt>
      <trkpt lat="42.96163" lon="0.85681">
        <ele>1402</ele>
        <time>2018-04-02T12:44:59.000Z</time>
      </trkpt>
      <trkpt lat="42.96163" lon="0.85682">
        <ele>1402</ele>
        <time>2018-04-02T12:45:01.000Z</time>
      </trkpt>
      <trkpt lat="42.96162" lon="0.85683">
        <ele>1402</ele>
        <time>2018-04-02T12:45:03.000Z</time>
      </trkpt>
      <trkpt lat="42.96162" lon="0.85683">
        <ele>1402</ele>
        <time>2018-04-02T12:45:05.000Z</time>
      </trkpt>
      <trkpt lat="42.9616" lon="0.85683">
        <ele>1402</ele>
        <time>2018-04-02T12:45:07.000Z</time>
      </trkpt>
      <trkpt lat="42.9616" lon="0.85683">
        <ele>1402</ele>
        <time>2018-04-02T12:45:09.000Z</time>
      </trkpt>
      <trkpt lat="42.9616" lon="0.85682">
        <ele>1402</ele>
        <time>2018-04-02T12:45:11.000Z</time>
      </trkpt>
      <trkpt lat="42.96161" lon="0.85682">
        <ele>1402</ele>
        <time>2018-04-02T12:45:13.000Z</time>
      </trkpt>
      <trkpt lat="42.9616" lon="0.85681">
        <ele>1402</ele>
        <time>2018-04-02T12:45:15.000Z</time>
      </trkpt>
      <trkpt lat="42.9616" lon="0.85681">
        <ele>1402</ele>
        <time>2018-04-02T12:45:17.000Z</time>
      </trkpt>
      <trkpt lat="42.9616" lon="0.85681">
        <ele>1402</ele>
        <time>2018-04-02T12:45:19.000Z</time>
      </trkpt>
      <trkpt lat="42.9616" lon="0.8568">
        <ele>1402</ele>
        <time>2018-04-02T12:45:21.000Z</time>
      </trkpt>
      <trkpt lat="42.9616" lon="0.8568">
        <ele>1402</ele>
        <time>2018-04-02T12:45:23.000Z</time>
      </trkpt>
      <trkpt lat="42.9616" lon="0.85679">
        <ele>1402</ele>
        <time>2018-04-02T12:45:25.000Z</time>
      </trkpt>
      <trkpt lat="42.96161" lon="0.85679">
        <ele>1402</ele>
        <time>2018-04-02T12:45:27.000Z</time>
      </trkpt>
      <trkpt lat="42.96161" lon="0.8568">
        <ele>1402</ele>
        <time>2018-04-02T12:45:29.000Z</time>
      </trkpt>
      <trkpt lat="42.96161" lon="0.85682">
        <ele>1402</ele>
        <time>2018-04-02T12:45:31.000Z</time>
      </trkpt>
      <trkpt lat="42.96161" lon="0.85682">
        <ele>1402</ele>
        <time>2018-04-02T12:45:33.000Z</time>
      </trkpt>
      <trkpt lat="42.96161" lon="0.85682">
        <ele>1402</ele>
        <time>2018-04-02T12:45:35.000Z</time>
      </trkpt>
      <trkpt lat="42.96161" lon="0.85682">
        <ele>1402</ele>
        <time>2018-04-02T12:45:37.000Z</time>
      </trkpt>
      <trkpt lat="42.96162" lon="0.85682">
        <ele>1402</ele>
        <time>2018-04-02T12:45:39.000Z</time>
      </trkpt>
      <trkpt lat="42.96164" lon="0.85681">
        <ele>1402</ele>
        <time>2018-04-02T12:45:41.000Z</time>
      </trkpt>
      <trkpt lat="42.96164" lon="0.85682">
        <ele>1402</ele>
        <time>2018-04-02T12:45:43.000Z</time>
      </trkpt>
      <trkpt lat="42.96165" lon="0.85681">
        <ele>1402</ele>
        <time>2018-04-02T12:45:45.000Z</time>
      </trkpt>
      <trkpt lat="42.96165" lon="0.85681">
        <ele>1402</ele>
        <time>2018-04-02T12:45:47.000Z</time>
      </trkpt>
      <trkpt lat="42.96165" lon="0.8568">
        <ele>1402</ele>
        <time>2018-04-02T12:45:49.000Z</time>
      </trkpt>
      <trkpt lat="42.96164" lon="0.8568">
        <ele>1402</ele>
        <time>2018-04-02T12:45:51.000Z</time>
      </trkpt>
      <trkpt lat="42.96164" lon="0.8568">
        <ele>1402</ele>
        <time>2018-04-02T12:45:53.000Z</time>
      </trkpt>
      <trkpt lat="42.96163" lon="0.8568">
        <ele>1402</ele>
        <time>2018-04-02T12:45:55.000Z</time>
      </trkpt>
      <trkpt lat="42.96163" lon="0.85681">
        <ele>1402</ele>
        <time>2018-04-02T12:45:57.000Z</time>
      </trkpt>
      <trkpt lat="42.96163" lon="0.8568">
        <ele>1402</ele>
        <time>2018-04-02T12:45:59.000Z</time>
      </trkpt>
      <trkpt lat="42.96163" lon="0.8568">
        <ele>1402</ele>
        <time>2018-04-02T12:46:01.000Z</time>
      </trkpt>
      <trkpt lat="42.96163" lon="0.85679">
        <ele>1402</ele>
        <time>2018-04-02T12:46:03.000Z</time>
      </trkpt>
      <trkpt lat="42.96163" lon="0.8568">
        <ele>1402</ele>
        <time>2018-04-02T12:46:05.000Z</time>
      </trkpt>
      <trkpt lat="42.96164" lon="0.85679">
        <ele>1402</ele>
        <time>2018-04-02T12:46:07.000Z</time>
      </trkpt>
      <trkpt lat="42.96163" lon="0.8568">
        <ele>1402</ele>
        <time>2018-04-02T12:46:09.000Z</time>
      </trkpt>
      <trkpt lat="42.96163" lon="0.8568">
        <ele>1402</ele>
        <time>2018-04-02T12:46:11.000Z</time>
      </trkpt>
      <trkpt lat="42.96163" lon="0.8568">
        <ele>1402</ele>
        <time>2018-04-02T12:46:13.000Z</time>
      </trkpt>
      <trkpt lat="42.96162" lon="0.8568">
        <ele>1402</ele>
        <time>2018-04-02T12:46:15.000Z</time>
      </trkpt>
      <trkpt lat="42.96162" lon="0.8568">
        <ele>1402</ele>
        <time>2018-04-02T12:46:17.000Z</time>
      </trkpt>
      <trkpt lat="42.96162" lon="0.85681">
        <ele>1402</ele>
        <time>2018-04-02T12:46:19.000Z</time>
      </trkpt>
      <trkpt lat="42.96162" lon="0.85682">
        <ele>1402</ele>
        <time>2018-04-02T12:46:21.000Z</time>
      </trkpt>
      <trkpt lat="42.96161" lon="0.85682">
        <ele>1402</ele>
        <time>2018-04-02T12:46:23.000Z</time>
      </trkpt>
      <trkpt lat="42.96161" lon="0.85682">
        <ele>1402</ele>
        <time>2018-04-02T12:46:25.000Z</time>
      </trkpt>
      <trkpt lat="42.96161" lon="0.85681">
        <ele>1402</ele>
        <time>2018-04-02T12:46:27.000Z</time>
      </trkpt>
      <trkpt lat="42.96161" lon="0.85681">
        <ele>1402</ele>
        <time>2018-04-02T12:46:29.000Z</time>
      </trkpt>
      <trkpt lat="42.96161" lon="0.85682">
        <ele>1402</ele>
        <time>2018-04-02T12:46:31.000Z</time>
      </trkpt>
      <trkpt lat="42.96161" lon="0.85682">
        <ele>1402</ele>
        <time>2018-04-02T12:46:33.000Z</time>
      </trkpt>
      <trkpt lat="42.96161" lon="0.85681">
        <ele>1402</ele>
        <time>2018-04-02T12:46:35.000Z</time>
      </trkpt>
      <trkpt lat="42.96161" lon="0.85682">
        <ele>1402</ele>
        <time>2018-04-02T12:46:37.000Z</time>
      </trkpt>
      <trkpt lat="42.96161" lon="0.85681">
        <ele>1402</ele>
        <time>2018-04-02T12:46:39.000Z</time>
      </trkpt>
      <trkpt lat="42.96161" lon="0.85681">
        <ele>1402</ele>
        <time>2018-04-02T12:46:41.000Z</time>
      </trkpt>
      <trkpt lat="42.9616" lon="0.85681">
        <ele>1402</ele>
        <time>2018-04-02T12:46:43.000Z</time>
      </trkpt>
      <trkpt lat="42.9616" lon="0.85682">
        <ele>1402</ele>
        <time>2018-04-02T12:46:45.000Z</time>
      </trkpt>
      <trkpt lat="42.9616" lon="0.85681">
        <ele>1402</ele>
        <time>2018-04-02T12:46:47.000Z</time>
      </trkpt>
      <trkpt lat="42.96159" lon="0.85682">
        <ele>1402</ele>
        <time>2018-04-02T12:46:49.000Z</time>
      </trkpt>
      <trkpt lat="42.96159" lon="0.85682">
        <ele>1402</ele>
        <time>2018-04-02T12:46:51.000Z</time>
      </trkpt>
      <trkpt lat="42.9616" lon="0.85682">
        <ele>1402</ele>
        <time>2018-04-02T12:46:53.000Z</time>
      </trkpt>
      <trkpt lat="42.9616" lon="0.85682">
        <ele>1402</ele>
        <time>2018-04-02T12:46:55.000Z</time>
      </trkpt>
      <trkpt lat="42.9616" lon="0.85682">
        <ele>1402</ele>
        <time>2018-04-02T12:46:57.000Z</time>
      </trkpt>
      <trkpt lat="42.9616" lon="0.85683">
        <ele>1402</ele>
        <time>2018-04-02T12:46:59.000Z</time>
      </trkpt>
      <trkpt lat="42.9616" lon="0.85683">
        <ele>1402</ele>
        <time>2018-04-02T12:47:01.000Z</time>
      </trkpt>
      <trkpt lat="42.96159" lon="0.85683">
        <ele>1402</ele>
        <time>2018-04-02T12:47:03.000Z</time>
      </trkpt>
      <trkpt lat="42.96159" lon="0.85682">
        <ele>1402</ele>
        <time>2018-04-02T12:47:05.000Z</time>
      </trkpt>
      <trkpt lat="42.96159" lon="0.85681">
        <ele>1402</ele>
        <time>2018-04-02T12:47:07.000Z</time>
      </trkpt>
      <trkpt lat="42.96159" lon="0.8568">
        <ele>1402</ele>
        <time>2018-04-02T12:47:09.000Z</time>
      </trkpt>
      <trkpt lat="42.96159" lon="0.8568">
        <ele>1402</ele>
        <time>2018-04-02T12:47:11.000Z</time>
      </trkpt>
      <trkpt lat="42.96159" lon="0.8568">
        <ele>1402</ele>
        <time>2018-04-02T12:47:13.000Z</time>
      </trkpt>
      <trkpt lat="42.96159" lon="0.8568">
        <ele>1402</ele>
        <time>2018-04-02T12:47:15.000Z</time>
      </trkpt>
      <trkpt lat="42.96159" lon="0.8568">
        <ele>1402</ele>
        <time>2018-04-02T12:47:17.000Z</time>
      </trkpt>
      <trkpt lat="42.96159" lon="0.8568">
        <ele>1402</ele>
        <time>2018-04-02T12:47:19.000Z</time>
      </trkpt>
      <trkpt lat="42.9616" lon="0.8568">
        <ele>1402</ele>
        <time>2018-04-02T12:47:21.000Z</time>
      </trkpt>
      <trkpt lat="42.96159" lon="0.8568">
        <ele>1402</ele>
        <time>2018-04-02T12:47:23.000Z</time>
      </trkpt>
      <trkpt lat="42.96159" lon="0.8568">
        <ele>1402</ele>
        <time>2018-04-02T12:47:25.000Z</time>
      </trkpt>
      <trkpt lat="42.9616" lon="0.85681">
        <ele>1402</ele>
        <time>2018-04-02T12:47:27.000Z</time>
      </trkpt>
      <trkpt lat="42.96159" lon="0.85681">
        <ele>1402</ele>
        <time>2018-04-02T12:47:29.000Z</time>
      </trkpt>
      <trkpt lat="42.9616" lon="0.85681">
        <ele>1402</ele>
        <time>2018-04-02T12:47:31.000Z</time>
      </trkpt>
      <trkpt lat="42.9616" lon="0.85682">
        <ele>1402</ele>
        <time>2018-04-02T12:47:33.000Z</time>
      </trkpt>
      <trkpt lat="42.9616" lon="0.85682">
        <ele>1402</ele>
        <time>2018-04-02T12:47:35.000Z</time>
      </trkpt>
      <trkpt lat="42.9616" lon="0.85682">
        <ele>1402</ele>
        <time>2018-04-02T12:47:37.000Z</time>
      </trkpt>
      <trkpt lat="42.96161" lon="0.85682">
        <ele>1402</ele>
        <time>2018-04-02T12:47:39.000Z</time>
      </trkpt>
      <trkpt lat="42.9616" lon="0.85683">
        <ele>1402</ele>
        <time>2018-04-02T12:47:41.000Z</time>
      </trkpt>
      <trkpt lat="42.96161" lon="0.85683">
        <ele>1402</ele>
        <time>2018-04-02T12:47:43.000Z</time>
      </trkpt>
      <trkpt lat="42.96161" lon="0.85683">
        <ele>1402</ele>
        <time>2018-04-02T12:47:45.000Z</time>
      </trkpt>
      <trkpt lat="42.96161" lon="0.85683">
        <ele>1402</ele>
        <time>2018-04-02T12:47:47.000Z</time>
      </trkpt>
      <trkpt lat="42.96161" lon="0.85684">
        <ele>1402</ele>
        <time>2018-04-02T12:47:49.000Z</time>
      </trkpt>
      <trkpt lat="42.96162" lon="0.85683">
        <ele>1402</ele>
        <time>2018-04-02T12:47:51.000Z</time>
      </trkpt>
      <trkpt lat="42.96162" lon="0.85682">
        <ele>1402</ele>
        <time>2018-04-02T12:47:53.000Z</time>
      </trkpt>
      <trkpt lat="42.96162" lon="0.85682">
        <ele>1402</ele>
        <time>2018-04-02T12:47:55.000Z</time>
      </trkpt>
      <trkpt lat="42.96161" lon="0.85682">
        <ele>1402</ele>
        <time>2018-04-02T12:47:57.000Z</time>
      </trkpt>
      <trkpt lat="42.96161" lon="0.85682">
        <ele>1402</ele>
        <time>2018-04-02T12:47:59.000Z</time>
      </trkpt>
      <trkpt lat="42.96161" lon="0.85681">
        <ele>1402</ele>
        <time>2018-04-02T12:48:01.000Z</time>
      </trkpt>
      <trkpt lat="42.96161" lon="0.85681">
        <ele>1402</ele>
        <time>2018-04-02T12:48:03.000Z</time>
      </trkpt>
      <trkpt lat="42.96161" lon="0.85681">
        <ele>1402</ele>
        <time>2018-04-02T12:48:05.000Z</time>
      </trkpt>
      <trkpt lat="42.9616" lon="0.85681">
        <ele>1402</ele>
        <time>2018-04-02T12:48:07.000Z</time>
      </trkpt>
      <trkpt lat="42.9616" lon="0.85681">
        <ele>1402</ele>
        <time>2018-04-02T12:48:09.000Z</time>
      </trkpt>
      <trkpt lat="42.9616" lon="0.85681">
        <ele>1402</ele>
        <time>2018-04-02T12:48:11.000Z</time>
      </trkpt>
      <trkpt lat="42.9616" lon="0.8568">
        <ele>1402</ele>
        <time>2018-04-02T12:48:13.000Z</time>
      </trkpt>
      <trkpt lat="42.96161" lon="0.85679">
        <ele>1402</ele>
        <time>2018-04-02T12:48:15.000Z</time>
      </trkpt>
      <trkpt lat="42.96161" lon="0.85679">
        <ele>1402</ele>
        <time>2018-04-02T12:48:17.000Z</time>
      </trkpt>
      <trkpt lat="42.9616" lon="0.85679">
        <ele>1402</ele>
        <time>2018-04-02T12:48:19.000Z</time>
      </trkpt>
      <trkpt lat="42.9616" lon="0.85679">
        <ele>1402</ele>
        <time>2018-04-02T12:48:21.000Z</time>
      </trkpt>
      <trkpt lat="42.96159" lon="0.85679">
        <ele>1402</ele>
        <time>2018-04-02T12:48:23.000Z</time>
      </trkpt>
      <trkpt lat="42.96159" lon="0.85679">
        <ele>1402</ele>
        <time>2018-04-02T12:48:25.000Z</time>
      </trkpt>
      <trkpt lat="42.96159" lon="0.85679">
        <ele>1402</ele>
        <time>2018-04-02T12:48:27.000Z</time>
      </trkpt>
      <trkpt lat="42.96159" lon="0.85679">
        <ele>1402</ele>
        <time>2018-04-02T12:48:29.000Z</time>
      </trkpt>
      <trkpt lat="42.96159" lon="0.85679">
        <ele>1402</ele>
        <time>2018-04-02T12:48:31.000Z</time>
      </trkpt>
      <trkpt lat="42.96159" lon="0.85678">
        <ele>1402</ele>
        <time>2018-04-02T12:48:33.000Z</time>
      </trkpt>
      <trkpt lat="42.96159" lon="0.85679">
        <ele>1402</ele>
        <time>2018-04-02T12:48:35.000Z</time>
      </trkpt>
      <trkpt lat="42.96159" lon="0.85679">
        <ele>1402</ele>
        <time>2018-04-02T12:48:37.000Z</time>
      </trkpt>
      <trkpt lat="42.9616" lon="0.85679">
        <ele>1402</ele>
        <time>2018-04-02T12:48:39.000Z</time>
      </trkpt>
      <trkpt lat="42.96161" lon="0.85678">
        <ele>1402</ele>
        <time>2018-04-02T12:48:41.000Z</time>
      </trkpt>
      <trkpt lat="42.96162" lon="0.85677">
        <ele>1402</ele>
        <time>2018-04-02T12:48:43.000Z</time>
      </trkpt>
      <trkpt lat="42.96163" lon="0.85676">
        <ele>1403</ele>
        <time>2018-04-02T12:48:45.000Z</time>
      </trkpt>
      <trkpt lat="42.96164" lon="0.85675">
        <ele>1403</ele>
        <time>2018-04-02T12:48:47.000Z</time>
      </trkpt>
      <trkpt lat="42.96164" lon="0.85675">
        <ele>1403</ele>
        <time>2018-04-02T12:48:49.000Z</time>
      </trkpt>
      <trkpt lat="42.96165" lon="0.85675">
        <ele>1403</ele>
        <time>2018-04-02T12:48:51.000Z</time>
      </trkpt>
      <trkpt lat="42.96165" lon="0.85675">
        <ele>1403</ele>
        <time>2018-04-02T12:48:53.000Z</time>
      </trkpt>
      <trkpt lat="42.96165" lon="0.85676">
        <ele>1403</ele>
        <time>2018-04-02T12:48:55.000Z</time>
      </trkpt>
      <trkpt lat="42.96165" lon="0.85677">
        <ele>1403</ele>
        <time>2018-04-02T12:48:57.000Z</time>
      </trkpt>
      <trkpt lat="42.96165" lon="0.85676">
        <ele>1403</ele>
        <time>2018-04-02T12:48:59.000Z</time>
      </trkpt>
      <trkpt lat="42.96165" lon="0.85675">
        <ele>1403</ele>
        <time>2018-04-02T12:49:01.000Z</time>
      </trkpt>
      <trkpt lat="42.96165" lon="0.85675">
        <ele>1403</ele>
        <time>2018-04-02T12:49:03.000Z</time>
      </trkpt>
      <trkpt lat="42.96165" lon="0.85674">
        <ele>1403</ele>
        <time>2018-04-02T12:49:05.000Z</time>
      </trkpt>
      <trkpt lat="42.96164" lon="0.85674">
        <ele>1403</ele>
        <time>2018-04-02T12:49:07.000Z</time>
      </trkpt>
      <trkpt lat="42.96164" lon="0.85674">
        <ele>1403</ele>
        <time>2018-04-02T12:49:09.000Z</time>
      </trkpt>
      <trkpt lat="42.96162" lon="0.85674">
        <ele>1403</ele>
        <time>2018-04-02T12:49:11.000Z</time>
      </trkpt>
      <trkpt lat="42.96161" lon="0.85674">
        <ele>1403</ele>
        <time>2018-04-02T12:49:13.000Z</time>
      </trkpt>
      <trkpt lat="42.9616" lon="0.85673">
        <ele>1403</ele>
        <time>2018-04-02T12:49:15.000Z</time>
      </trkpt>
      <trkpt lat="42.96161" lon="0.85675">
        <ele>1403</ele>
        <time>2018-04-02T12:49:17.000Z</time>
      </trkpt>
      <trkpt lat="42.96162" lon="0.85675">
        <ele>1403</ele>
        <time>2018-04-02T12:49:19.000Z</time>
      </trkpt>
      <trkpt lat="42.96163" lon="0.85676">
        <ele>1403</ele>
        <time>2018-04-02T12:49:21.000Z</time>
      </trkpt>
      <trkpt lat="42.96164" lon="0.85676">
        <ele>1403</ele>
        <time>2018-04-02T12:49:23.000Z</time>
      </trkpt>
      <trkpt lat="42.96165" lon="0.85675">
        <ele>1403</ele>
        <time>2018-04-02T12:49:25.000Z</time>
      </trkpt>
      <trkpt lat="42.96166" lon="0.85675">
        <ele>1403</ele>
        <time>2018-04-02T12:49:27.000Z</time>
      </trkpt>
      <trkpt lat="42.96166" lon="0.85675">
        <ele>1403</ele>
        <time>2018-04-02T12:49:29.000Z</time>
      </trkpt>
      <trkpt lat="42.96166" lon="0.85675">
        <ele>1403</ele>
        <time>2018-04-02T12:49:31.000Z</time>
      </trkpt>
      <trkpt lat="42.96166" lon="0.85675">
        <ele>1403</ele>
        <time>2018-04-02T12:49:33.000Z</time>
      </trkpt>
      <trkpt lat="42.96166" lon="0.85675">
        <ele>1403</ele>
        <time>2018-04-02T12:49:35.000Z</time>
      </trkpt>
      <trkpt lat="42.96167" lon="0.85674">
        <ele>1403</ele>
        <time>2018-04-02T12:49:37.000Z</time>
      </trkpt>
      <trkpt lat="42.96167" lon="0.85673">
        <ele>1403</ele>
        <time>2018-04-02T12:49:39.000Z</time>
      </trkpt>
      <trkpt lat="42.96166" lon="0.85674">
        <ele>1403</ele>
        <time>2018-04-02T12:49:41.000Z</time>
      </trkpt>
      <trkpt lat="42.96167" lon="0.85674">
        <ele>1403</ele>
        <time>2018-04-02T12:49:43.000Z</time>
      </trkpt>
      <trkpt lat="42.96165" lon="0.85673">
        <ele>1403</ele>
        <time>2018-04-02T12:49:45.000Z</time>
      </trkpt>
      <trkpt lat="42.96164" lon="0.85674">
        <ele>1403</ele>
        <time>2018-04-02T12:49:47.000Z</time>
      </trkpt>
      <trkpt lat="42.96164" lon="0.85674">
        <ele>1403</ele>
        <time>2018-04-02T12:49:49.000Z</time>
      </trkpt>
      <trkpt lat="42.96165" lon="0.85673">
        <ele>1403</ele>
        <time>2018-04-02T12:49:51.000Z</time>
      </trkpt>
      <trkpt lat="42.96165" lon="0.85674">
        <ele>1403</ele>
        <time>2018-04-02T12:49:53.000Z</time>
      </trkpt>
      <trkpt lat="42.96165" lon="0.85675">
        <ele>1403</ele>
        <time>2018-04-02T12:49:55.000Z</time>
      </trkpt>
      <trkpt lat="42.96165" lon="0.85674">
        <ele>1403</ele>
        <time>2018-04-02T12:49:57.000Z</time>
      </trkpt>
      <trkpt lat="42.96165" lon="0.85673">
        <ele>1403</ele>
        <time>2018-04-02T12:49:59.000Z</time>
      </trkpt>
      <trkpt lat="42.96165" lon="0.85673">
        <ele>1403</ele>
        <time>2018-04-02T12:50:01.000Z</time>
      </trkpt>
      <trkpt lat="42.96165" lon="0.85673">
        <ele>1403</ele>
        <time>2018-04-02T12:50:03.000Z</time>
      </trkpt>
      <trkpt lat="42.96165" lon="0.85673">
        <ele>1403</ele>
        <time>2018-04-02T12:50:05.000Z</time>
      </trkpt>
      <trkpt lat="42.96165" lon="0.85673">
        <ele>1403</ele>
        <time>2018-04-02T12:50:07.000Z</time>
      </trkpt>
      <trkpt lat="42.96166" lon="0.85672">
        <ele>1403</ele>
        <time>2018-04-02T12:50:09.000Z</time>
      </trkpt>
      <trkpt lat="42.96166" lon="0.85672">
        <ele>1403</ele>
        <time>2018-04-02T12:50:11.000Z</time>
      </trkpt>
      <trkpt lat="42.96167" lon="0.85672">
        <ele>1403</ele>
        <time>2018-04-02T12:50:13.000Z</time>
      </trkpt>
      <trkpt lat="42.96167" lon="0.85671">
        <ele>1403</ele>
        <time>2018-04-02T12:50:15.000Z</time>
      </trkpt>
      <trkpt lat="42.96167" lon="0.85671">
        <ele>1403</ele>
        <time>2018-04-02T12:50:17.000Z</time>
      </trkpt>
      <trkpt lat="42.96166" lon="0.85671">
        <ele>1403</ele>
        <time>2018-04-02T12:50:19.000Z</time>
      </trkpt>
      <trkpt lat="42.96165" lon="0.85673">
        <ele>1403</ele>
        <time>2018-04-02T12:50:21.000Z</time>
      </trkpt>
      <trkpt lat="42.96165" lon="0.85674">
        <ele>1403</ele>
        <time>2018-04-02T12:50:23.000Z</time>
      </trkpt>
      <trkpt lat="42.96166" lon="0.85675">
        <ele>1403</ele>
        <time>2018-04-02T12:50:25.000Z</time>
      </trkpt>
      <trkpt lat="42.96166" lon="0.85675">
        <ele>1403</ele>
        <time>2018-04-02T12:50:27.000Z</time>
      </trkpt>
      <trkpt lat="42.96166" lon="0.85675">
        <ele>1403</ele>
        <time>2018-04-02T12:50:29.000Z</time>
      </trkpt>
      <trkpt lat="42.96167" lon="0.85675">
        <ele>1403</ele>
        <time>2018-04-02T12:50:31.000Z</time>
      </trkpt>
      <trkpt lat="42.96167" lon="0.85676">
        <ele>1403</ele>
        <time>2018-04-02T12:50:33.000Z</time>
      </trkpt>
      <trkpt lat="42.96168" lon="0.85677">
        <ele>1403</ele>
        <time>2018-04-02T12:50:35.000Z</time>
      </trkpt>
      <trkpt lat="42.96169" lon="0.85677">
        <ele>1403</ele>
        <time>2018-04-02T12:50:37.000Z</time>
      </trkpt>
      <trkpt lat="42.9617" lon="0.85677">
        <ele>1403</ele>
        <time>2018-04-02T12:50:39.000Z</time>
      </trkpt>
      <trkpt lat="42.9617" lon="0.85678">
        <ele>1403</ele>
        <time>2018-04-02T12:50:41.000Z</time>
      </trkpt>
      <trkpt lat="42.96171" lon="0.85678">
        <ele>1403</ele>
        <time>2018-04-02T12:50:43.000Z</time>
      </trkpt>
      <trkpt lat="42.96171" lon="0.85678">
        <ele>1403</ele>
        <time>2018-04-02T12:50:45.000Z</time>
      </trkpt>
      <trkpt lat="42.9617" lon="0.85677">
        <ele>1403</ele>
        <time>2018-04-02T12:50:47.000Z</time>
      </trkpt>
      <trkpt lat="42.96169" lon="0.85677">
        <ele>1403</ele>
        <time>2018-04-02T12:50:49.000Z</time>
      </trkpt>
      <trkpt lat="42.96166" lon="0.85677">
        <ele>1403</ele>
        <time>2018-04-02T12:50:51.000Z</time>
      </trkpt>
      <trkpt lat="42.96166" lon="0.85677">
        <ele>1402</ele>
        <time>2018-04-02T12:50:53.000Z</time>
      </trkpt>
      <trkpt lat="42.96166" lon="0.85677">
        <ele>1403</ele>
        <time>2018-04-02T12:50:55.000Z</time>
      </trkpt>
      <trkpt lat="42.96164" lon="0.85676">
        <ele>1403</ele>
        <time>2018-04-02T12:50:57.000Z</time>
      </trkpt>
      <trkpt lat="42.96163" lon="0.85676">
        <ele>1402</ele>
        <time>2018-04-02T12:50:59.000Z</time>
      </trkpt>
      <trkpt lat="42.96162" lon="0.85676">
        <ele>1402</ele>
        <time>2018-04-02T12:51:01.000Z</time>
      </trkpt>
      <trkpt lat="42.96162" lon="0.85675">
        <ele>1403</ele>
        <time>2018-04-02T12:51:03.000Z</time>
      </trkpt>
      <trkpt lat="42.96161" lon="0.85674">
        <ele>1403</ele>
        <time>2018-04-02T12:51:05.000Z</time>
      </trkpt>
      <trkpt lat="42.9616" lon="0.85674">
        <ele>1403</ele>
        <time>2018-04-02T12:51:07.000Z</time>
      </trkpt>
      <trkpt lat="42.9616" lon="0.85673">
        <ele>1403</ele>
        <time>2018-04-02T12:51:09.000Z</time>
      </trkpt>
      <trkpt lat="42.9616" lon="0.85673">
        <ele>1403</ele>
        <time>2018-04-02T12:51:11.000Z</time>
      </trkpt>
      <trkpt lat="42.9616" lon="0.85673">
        <ele>1403</ele>
        <time>2018-04-02T12:51:13.000Z</time>
      </trkpt>
      <trkpt lat="42.9616" lon="0.85673">
        <ele>1403</ele>
        <time>2018-04-02T12:51:15.000Z</time>
      </trkpt>
      <trkpt lat="42.9616" lon="0.85673">
        <ele>1403</ele>
        <time>2018-04-02T12:51:17.000Z</time>
      </trkpt>
      <trkpt lat="42.9616" lon="0.85673">
        <ele>1403</ele>
        <time>2018-04-02T12:51:19.000Z</time>
      </trkpt>
      <trkpt lat="42.96159" lon="0.85673">
        <ele>1403</ele>
        <time>2018-04-02T12:51:21.000Z</time>
      </trkpt>
      <trkpt lat="42.96159" lon="0.85673">
        <ele>1403</ele>
        <time>2018-04-02T12:51:23.000Z</time>
      </trkpt>
      <trkpt lat="42.9616" lon="0.85674">
        <ele>1403</ele>
        <time>2018-04-02T12:51:25.000Z</time>
      </trkpt>
      <trkpt lat="42.9616" lon="0.85674">
        <ele>1403</ele>
        <time>2018-04-02T12:51:27.000Z</time>
      </trkpt>
      <trkpt lat="42.9616" lon="0.85674">
        <ele>1403</ele>
        <time>2018-04-02T12:51:29.000Z</time>
      </trkpt>
      <trkpt lat="42.9616" lon="0.85674">
        <ele>1403</ele>
        <time>2018-04-02T12:51:31.000Z</time>
      </trkpt>
      <trkpt lat="42.9616" lon="0.85674">
        <ele>1403</ele>
        <time>2018-04-02T12:51:33.000Z</time>
      </trkpt>
      <trkpt lat="42.9616" lon="0.85674">
        <ele>1403</ele>
        <time>2018-04-02T12:51:35.000Z</time>
      </trkpt>
      <trkpt lat="42.9616" lon="0.85674">
        <ele>1403</ele>
        <time>2018-04-02T12:51:37.000Z</time>
      </trkpt>
      <trkpt lat="42.96161" lon="0.85674">
        <ele>1403</ele>
        <time>2018-04-02T12:51:39.000Z</time>
      </trkpt>
      <trkpt lat="42.96161" lon="0.85675">
        <ele>1403</ele>
        <time>2018-04-02T12:51:41.000Z</time>
      </trkpt>
      <trkpt lat="42.96161" lon="0.85675">
        <ele>1403</ele>
        <time>2018-04-02T12:51:43.000Z</time>
      </trkpt>
      <trkpt lat="42.96161" lon="0.85676">
        <ele>1402</ele>
        <time>2018-04-02T12:51:45.000Z</time>
      </trkpt>
      <trkpt lat="42.96161" lon="0.85676">
        <ele>1402</ele>
        <time>2018-04-02T12:51:47.000Z</time>
      </trkpt>
      <trkpt lat="42.96161" lon="0.85676">
        <ele>1402</ele>
        <time>2018-04-02T12:51:49.000Z</time>
      </trkpt>
      <trkpt lat="42.96162" lon="0.85677">
        <ele>1402</ele>
        <time>2018-04-02T12:51:51.000Z</time>
      </trkpt>
      <trkpt lat="42.96161" lon="0.85677">
        <ele>1402</ele>
        <time>2018-04-02T12:51:53.000Z</time>
      </trkpt>
      <trkpt lat="42.96161" lon="0.85678">
        <ele>1402</ele>
        <time>2018-04-02T12:51:55.000Z</time>
      </trkpt>
      <trkpt lat="42.96159" lon="0.85679">
        <ele>1402</ele>
        <time>2018-04-02T12:51:57.000Z</time>
      </trkpt>
      <trkpt lat="42.96158" lon="0.8568">
        <ele>1402</ele>
        <time>2018-04-02T12:51:59.000Z</time>
      </trkpt>
      <trkpt lat="42.96157" lon="0.8568">
        <ele>1402</ele>
        <time>2018-04-02T12:52:01.000Z</time>
      </trkpt>
      <trkpt lat="42.96155" lon="0.85682">
        <ele>1402</ele>
        <time>2018-04-02T12:52:03.000Z</time>
      </trkpt>
      <trkpt lat="42.96153" lon="0.85683">
        <ele>1401</ele>
        <time>2018-04-02T12:52:05.000Z</time>
      </trkpt>
      <trkpt lat="42.96152" lon="0.85685">
        <ele>1401</ele>
        <time>2018-04-02T12:52:07.000Z</time>
      </trkpt>
      <trkpt lat="42.96157" lon="0.8568">
        <ele>1402</ele>
        <time>2018-04-02T12:52:09.000Z</time>
      </trkpt>
      <trkpt lat="42.96158" lon="0.85679">
        <ele>1402</ele>
        <time>2018-04-02T12:52:11.000Z</time>
      </trkpt>
      <trkpt lat="42.9616" lon="0.85676">
        <ele>1402</ele>
        <time>2018-04-02T12:52:13.000Z</time>
      </trkpt>
      <trkpt lat="42.96162" lon="0.85673">
        <ele>1403</ele>
        <time>2018-04-02T12:52:15.000Z</time>
      </trkpt>
      <trkpt lat="42.96164" lon="0.85671">
        <ele>1403</ele>
        <time>2018-04-02T12:52:17.000Z</time>
      </trkpt>
      <trkpt lat="42.96164" lon="0.85671">
        <ele>1403</ele>
        <time>2018-04-02T12:52:19.000Z</time>
      </trkpt>
      <trkpt lat="42.96163" lon="0.85671">
        <ele>1403</ele>
        <time>2018-04-02T12:52:21.000Z</time>
      </trkpt>
      <trkpt lat="42.96163" lon="0.85671">
        <ele>1403</ele>
        <time>2018-04-02T12:52:23.000Z</time>
      </trkpt>
      <trkpt lat="42.96162" lon="0.85671">
        <ele>1403</ele>
        <time>2018-04-02T12:52:25.000Z</time>
      </trkpt>
      <trkpt lat="42.96162" lon="0.85671">
        <ele>1403</ele>
        <time>2018-04-02T12:52:27.000Z</time>
      </trkpt>
      <trkpt lat="42.96162" lon="0.85671">
        <ele>1403</ele>
        <time>2018-04-02T12:52:29.000Z</time>
      </trkpt>
      <trkpt lat="42.96163" lon="0.85671">
        <ele>1403</ele>
        <time>2018-04-02T12:52:31.000Z</time>
      </trkpt>
      <trkpt lat="42.96163" lon="0.8567">
        <ele>1403</ele>
        <time>2018-04-02T12:52:33.000Z</time>
      </trkpt>
      <trkpt lat="42.96164" lon="0.8567">
        <ele>1403</ele>
        <time>2018-04-02T12:52:35.000Z</time>
      </trkpt>
      <trkpt lat="42.96164" lon="0.85669">
        <ele>1403</ele>
        <time>2018-04-02T12:52:37.000Z</time>
      </trkpt>
      <trkpt lat="42.96163" lon="0.85668">
        <ele>1403</ele>
        <time>2018-04-02T12:52:39.000Z</time>
      </trkpt>
      <trkpt lat="42.96161" lon="0.85669">
        <ele>1403</ele>
        <time>2018-04-02T12:52:41.000Z</time>
      </trkpt>
      <trkpt lat="42.96162" lon="0.85669">
        <ele>1403</ele>
        <time>2018-04-02T12:52:43.000Z</time>
      </trkpt>
      <trkpt lat="42.96162" lon="0.85669">
        <ele>1403</ele>
        <time>2018-04-02T12:52:45.000Z</time>
      </trkpt>
      <trkpt lat="42.96162" lon="0.85668">
        <ele>1403</ele>
        <time>2018-04-02T12:52:47.000Z</time>
      </trkpt>
      <trkpt lat="42.96162" lon="0.85669">
        <ele>1403</ele>
        <time>2018-04-02T12:52:49.000Z</time>
      </trkpt>
      <trkpt lat="42.96162" lon="0.85669">
        <ele>1403</ele>
        <time>2018-04-02T12:52:51.000Z</time>
      </trkpt>
      <trkpt lat="42.96161" lon="0.85669">
        <ele>1403</ele>
        <time>2018-04-02T12:52:53.000Z</time>
      </trkpt>
      <trkpt lat="42.9616" lon="0.85669">
        <ele>1403</ele>
        <time>2018-04-02T12:52:55.000Z</time>
      </trkpt>
      <trkpt lat="42.9616" lon="0.85669">
        <ele>1403</ele>
        <time>2018-04-02T12:52:57.000Z</time>
      </trkpt>
      <trkpt lat="42.9616" lon="0.85669">
        <ele>1403</ele>
        <time>2018-04-02T12:52:59.000Z</time>
      </trkpt>
      <trkpt lat="42.96159" lon="0.85668">
        <ele>1403</ele>
        <time>2018-04-02T12:53:01.000Z</time>
      </trkpt>
      <trkpt lat="42.9616" lon="0.85668">
        <ele>1403</ele>
        <time>2018-04-02T12:53:03.000Z</time>
      </trkpt>
      <trkpt lat="42.9616" lon="0.85667">
        <ele>1403</ele>
        <time>2018-04-02T12:53:05.000Z</time>
      </trkpt>
      <trkpt lat="42.9616" lon="0.85666">
        <ele>1403</ele>
        <time>2018-04-02T12:53:07.000Z</time>
      </trkpt>
      <trkpt lat="42.96159" lon="0.85666">
        <ele>1403</ele>
        <time>2018-04-02T12:53:09.000Z</time>
      </trkpt>
      <trkpt lat="42.96158" lon="0.85666">
        <ele>1403</ele>
        <time>2018-04-02T12:53:11.000Z</time>
      </trkpt>
      <trkpt lat="42.96158" lon="0.85665">
        <ele>1403</ele>
        <time>2018-04-02T12:53:13.000Z</time>
      </trkpt>
      <trkpt lat="42.96158" lon="0.85665">
        <ele>1403</ele>
        <time>2018-04-02T12:53:15.000Z</time>
      </trkpt>
      <trkpt lat="42.96157" lon="0.85666">
        <ele>1403</ele>
        <time>2018-04-02T12:53:17.000Z</time>
      </trkpt>
      <trkpt lat="42.96157" lon="0.85666">
        <ele>1403</ele>
        <time>2018-04-02T12:53:19.000Z</time>
      </trkpt>
      <trkpt lat="42.96157" lon="0.85666">
        <ele>1403</ele>
        <time>2018-04-02T12:53:21.000Z</time>
      </trkpt>
      <trkpt lat="42.96157" lon="0.85666">
        <ele>1403</ele>
        <time>2018-04-02T12:53:23.000Z</time>
      </trkpt>
      <trkpt lat="42.96157" lon="0.85666">
        <ele>1403</ele>
        <time>2018-04-02T12:53:25.000Z</time>
      </trkpt>
      <trkpt lat="42.96157" lon="0.85665">
        <ele>1403</ele>
        <time>2018-04-02T12:53:27.000Z</time>
      </trkpt>
      <trkpt lat="42.96157" lon="0.85665">
        <ele>1403</ele>
        <time>2018-04-02T12:53:29.000Z</time>
      </trkpt>
      <trkpt lat="42.96158" lon="0.85665">
        <ele>1403</ele>
        <time>2018-04-02T12:53:31.000Z</time>
      </trkpt>
      <trkpt lat="42.96158" lon="0.85665">
        <ele>1403</ele>
        <time>2018-04-02T12:53:33.000Z</time>
      </trkpt>
      <trkpt lat="42.96159" lon="0.85664">
        <ele>1404</ele>
        <time>2018-04-02T12:53:35.000Z</time>
      </trkpt>
      <trkpt lat="42.96159" lon="0.85664">
        <ele>1404</ele>
        <time>2018-04-02T12:53:37.000Z</time>
      </trkpt>
      <trkpt lat="42.96159" lon="0.85663">
        <ele>1404</ele>
        <time>2018-04-02T12:53:39.000Z</time>
      </trkpt>
      <trkpt lat="42.9616" lon="0.85662">
        <ele>1404</ele>
        <time>2018-04-02T12:53:41.000Z</time>
      </trkpt>
      <trkpt lat="42.96159" lon="0.85662">
        <ele>1404</ele>
        <time>2018-04-02T12:53:43.000Z</time>
      </trkpt>
      <trkpt lat="42.96159" lon="0.85663">
        <ele>1404</ele>
        <time>2018-04-02T12:53:45.000Z</time>
      </trkpt>
      <trkpt lat="42.96159" lon="0.85663">
        <ele>1404</ele>
        <time>2018-04-02T12:53:47.000Z</time>
      </trkpt>
      <trkpt lat="42.96159" lon="0.85664">
        <ele>1404</ele>
        <time>2018-04-02T12:53:49.000Z</time>
      </trkpt>
      <trkpt lat="42.96159" lon="0.85666">
        <ele>1403</ele>
        <time>2018-04-02T12:53:51.000Z</time>
      </trkpt>
      <trkpt lat="42.9616" lon="0.85667">
        <ele>1403</ele>
        <time>2018-04-02T12:53:53.000Z</time>
      </trkpt>
      <trkpt lat="42.9616" lon="0.85668">
        <ele>1403</ele>
        <time>2018-04-02T12:53:55.000Z</time>
      </trkpt>
      <trkpt lat="42.96161" lon="0.85669">
        <ele>1403</ele>
        <time>2018-04-02T12:53:57.000Z</time>
      </trkpt>
      <trkpt lat="42.96161" lon="0.85671">
        <ele>1403</ele>
        <time>2018-04-02T12:53:59.000Z</time>
      </trkpt>
      <trkpt lat="42.96162" lon="0.85672">
        <ele>1403</ele>
        <time>2018-04-02T12:54:01.000Z</time>
      </trkpt>
      <trkpt lat="42.96162" lon="0.85672">
        <ele>1403</ele>
        <time>2018-04-02T12:54:03.000Z</time>
      </trkpt>
      <trkpt lat="42.96162" lon="0.85672">
        <ele>1403</ele>
        <time>2018-04-02T12:54:05.000Z</time>
      </trkpt>
      <trkpt lat="42.96162" lon="0.85672">
        <ele>1403</ele>
        <time>2018-04-02T12:54:07.000Z</time>
      </trkpt>
      <trkpt lat="42.96163" lon="0.85672">
        <ele>1403</ele>
        <time>2018-04-02T12:54:09.000Z</time>
      </trkpt>
      <trkpt lat="42.96163" lon="0.85672">
        <ele>1403</ele>
        <time>2018-04-02T12:54:11.000Z</time>
      </trkpt>
      <trkpt lat="42.96163" lon="0.85672">
        <ele>1403</ele>
        <time>2018-04-02T12:54:13.000Z</time>
      </trkpt>
      <trkpt lat="42.96163" lon="0.85673">
        <ele>1403</ele>
        <time>2018-04-02T12:54:15.000Z</time>
      </trkpt>
      <trkpt lat="42.96163" lon="0.85673">
        <ele>1403</ele>
        <time>2018-04-02T12:54:17.000Z</time>
      </trkpt>
      <trkpt lat="42.96163" lon="0.85673">
        <ele>1403</ele>
        <time>2018-04-02T12:54:19.000Z</time>
      </trkpt>
      <trkpt lat="42.96162" lon="0.85673">
        <ele>1403</ele>
        <time>2018-04-02T12:54:21.000Z</time>
      </trkpt>
      <trkpt lat="42.96162" lon="0.85674">
        <ele>1403</ele>
        <time>2018-04-02T12:54:23.000Z</time>
      </trkpt>
      <trkpt lat="42.96162" lon="0.85674">
        <ele>1403</ele>
        <time>2018-04-02T12:54:25.000Z</time>
      </trkpt>
      <trkpt lat="42.96161" lon="0.85675">
        <ele>1403</ele>
        <time>2018-04-02T12:54:27.000Z</time>
      </trkpt>
      <trkpt lat="42.9616" lon="0.85675">
        <ele>1402</ele>
        <time>2018-04-02T12:54:29.000Z</time>
      </trkpt>
      <trkpt lat="42.9616" lon="0.85676">
        <ele>1402</ele>
        <time>2018-04-02T12:54:31.000Z</time>
      </trkpt>
      <trkpt lat="42.96159" lon="0.85677">
        <ele>1402</ele>
        <time>2018-04-02T12:54:33.000Z</time>
      </trkpt>
      <trkpt lat="42.96159" lon="0.85677">
        <ele>1402</ele>
        <time>2018-04-02T12:54:35.000Z</time>
      </trkpt>
      <trkpt lat="42.96159" lon="0.85677">
        <ele>1402</ele>
        <time>2018-04-02T12:54:37.000Z</time>
      </trkpt>
      <trkpt lat="42.96159" lon="0.85677">
        <ele>1402</ele>
        <time>2018-04-02T12:54:39.000Z</time>
      </trkpt>
      <trkpt lat="42.96159" lon="0.85677">
        <ele>1402</ele>
        <time>2018-04-02T12:54:41.000Z</time>
      </trkpt>
      <trkpt lat="42.96159" lon="0.85677">
        <ele>1402</ele>
        <time>2018-04-02T12:54:43.000Z</time>
      </trkpt>
      <trkpt lat="42.9616" lon="0.85677">
        <ele>1402</ele>
        <time>2018-04-02T12:54:45.000Z</time>
      </trkpt>
      <trkpt lat="42.9616" lon="0.85677">
        <ele>1402</ele>
        <time>2018-04-02T12:54:47.000Z</time>
      </trkpt>
      <trkpt lat="42.9616" lon="0.85677">
        <ele>1402</ele>
        <time>2018-04-02T12:54:49.000Z</time>
      </trkpt>
      <trkpt lat="42.96161" lon="0.85677">
        <ele>1402</ele>
        <time>2018-04-02T12:54:51.000Z</time>
      </trkpt>
      <trkpt lat="42.96162" lon="0.85677">
        <ele>1402</ele>
        <time>2018-04-02T12:54:53.000Z</time>
      </trkpt>
      <trkpt lat="42.96163" lon="0.85677">
        <ele>1402</ele>
        <time>2018-04-02T12:54:55.000Z</time>
      </trkpt>
      <trkpt lat="42.96163" lon="0.85676">
        <ele>1402</ele>
        <time>2018-04-02T12:54:57.000Z</time>
      </trkpt>
      <trkpt lat="42.96163" lon="0.85675">
        <ele>1403</ele>
        <time>2018-04-02T12:54:59.000Z</time>
      </trkpt>
      <trkpt lat="42.96164" lon="0.85674">
        <ele>1403</ele>
        <time>2018-04-02T12:55:01.000Z</time>
      </trkpt>
      <trkpt lat="42.96163" lon="0.85674">
        <ele>1403</ele>
        <time>2018-04-02T12:55:03.000Z</time>
      </trkpt>
      <trkpt lat="42.96163" lon="0.85672">
        <ele>1403</ele>
        <time>2018-04-02T12:55:05.000Z</time>
      </trkpt>
      <trkpt lat="42.96162" lon="0.85672">
        <ele>1403</ele>
        <time>2018-04-02T12:55:07.000Z</time>
      </trkpt>
      <trkpt lat="42.96161" lon="0.85672">
        <ele>1403</ele>
        <time>2018-04-02T12:55:09.000Z</time>
      </trkpt>
      <trkpt lat="42.96161" lon="0.85672">
        <ele>1403</ele>
        <time>2018-04-02T12:55:11.000Z</time>
      </trkpt>
      <trkpt lat="42.9616" lon="0.85673">
        <ele>1403</ele>
        <time>2018-04-02T12:55:13.000Z</time>
      </trkpt>
      <trkpt lat="42.96159" lon="0.85673">
        <ele>1403</ele>
        <time>2018-04-02T12:55:15.000Z</time>
      </trkpt>
      <trkpt lat="42.96159" lon="0.85673">
        <ele>1403</ele>
        <time>2018-04-02T12:55:17.000Z</time>
      </trkpt>
      <trkpt lat="42.96158" lon="0.85673">
        <ele>1403</ele>
        <time>2018-04-02T12:55:19.000Z</time>
      </trkpt>
      <trkpt lat="42.96158" lon="0.85674">
        <ele>1403</ele>
        <time>2018-04-02T12:55:21.000Z</time>
      </trkpt>
      <trkpt lat="42.96158" lon="0.85673">
        <ele>1403</ele>
        <time>2018-04-02T12:55:23.000Z</time>
      </trkpt>
      <trkpt lat="42.96158" lon="0.85673">
        <ele>1403</ele>
        <time>2018-04-02T12:55:25.000Z</time>
      </trkpt>
      <trkpt lat="42.96159" lon="0.85673">
        <ele>1403</ele>
        <time>2018-04-02T12:55:27.000Z</time>
      </trkpt>
      <trkpt lat="42.96159" lon="0.85673">
        <ele>1403</ele>
        <time>2018-04-02T12:55:29.000Z</time>
      </trkpt>
      <trkpt lat="42.96159" lon="0.85673">
        <ele>1403</ele>
        <time>2018-04-02T12:55:31.000Z</time>
      </trkpt>
      <trkpt lat="42.96159" lon="0.85673">
        <ele>1403</ele>
        <time>2018-04-02T12:55:33.000Z</time>
      </trkpt>
      <trkpt lat="42.96159" lon="0.85673">
        <ele>1403</ele>
        <time>2018-04-02T12:55:35.000Z</time>
      </trkpt>
      <trkpt lat="42.96159" lon="0.85673">
        <ele>1403</ele>
        <time>2018-04-02T12:55:37.000Z</time>
      </trkpt>
      <trkpt lat="42.96158" lon="0.85673">
        <ele>1403</ele>
        <time>2018-04-02T12:55:39.000Z</time>
      </trkpt>
      <trkpt lat="42.96158" lon="0.85673">
        <ele>1403</ele>
        <time>2018-04-02T12:55:41.000Z</time>
      </trkpt>
      <trkpt lat="42.96158" lon="0.85673">
        <ele>1403</ele>
        <time>2018-04-02T12:55:43.000Z</time>
      </trkpt>
      <trkpt lat="42.96159" lon="0.85674">
        <ele>1403</ele>
        <time>2018-04-02T12:55:45.000Z</time>
      </trkpt>
      <trkpt lat="42.96159" lon="0.85674">
        <ele>1403</ele>
        <time>2018-04-02T12:55:47.000Z</time>
      </trkpt>
      <trkpt lat="42.9616" lon="0.85675">
        <ele>1402</ele>
        <time>2018-04-02T12:55:49.000Z</time>
      </trkpt>
      <trkpt lat="42.96162" lon="0.85675">
        <ele>1403</ele>
        <time>2018-04-02T12:55:51.000Z</time>
      </trkpt>
      <trkpt lat="42.96163" lon="0.85676">
        <ele>1403</ele>
        <time>2018-04-02T12:55:53.000Z</time>
      </trkpt>
      <trkpt lat="42.96164" lon="0.85676">
        <ele>1403</ele>
        <time>2018-04-02T12:55:55.000Z</time>
      </trkpt>
      <trkpt lat="42.96164" lon="0.85676">
        <ele>1403</ele>
        <time>2018-04-02T12:55:57.000Z</time>
      </trkpt>
      <trkpt lat="42.96164" lon="0.85676">
        <ele>1403</ele>
        <time>2018-04-02T12:55:59.000Z</time>
      </trkpt>
      <trkpt lat="42.96164" lon="0.85676">
        <ele>1402</ele>
        <time>2018-04-02T12:56:01.000Z</time>
      </trkpt>
      <trkpt lat="42.96163" lon="0.85677">
        <ele>1402</ele>
        <time>2018-04-02T12:56:03.000Z</time>
      </trkpt>
      <trkpt lat="42.96163" lon="0.85676">
        <ele>1402</ele>
        <time>2018-04-02T12:56:05.000Z</time>
      </trkpt>
      <trkpt lat="42.96163" lon="0.85677">
        <ele>1402</ele>
        <time>2018-04-02T12:56:07.000Z</time>
      </trkpt>
      <trkpt lat="42.96163" lon="0.85677">
        <ele>1402</ele>
        <time>2018-04-02T12:56:09.000Z</time>
      </trkpt>
      <trkpt lat="42.96163" lon="0.85677">
        <ele>1402</ele>
        <time>2018-04-02T12:56:11.000Z</time>
      </trkpt>
      <trkpt lat="42.96164" lon="0.85676">
        <ele>1402</ele>
        <time>2018-04-02T12:56:13.000Z</time>
      </trkpt>
      <trkpt lat="42.96164" lon="0.85676">
        <ele>1403</ele>
        <time>2018-04-02T12:56:15.000Z</time>
      </trkpt>
      <trkpt lat="42.96166" lon="0.85675">
        <ele>1403</ele>
        <time>2018-04-02T12:56:17.000Z</time>
      </trkpt>
      <trkpt lat="42.96167" lon="0.85674">
        <ele>1403</ele>
        <time>2018-04-02T12:56:19.000Z</time>
      </trkpt>
      <trkpt lat="42.96169" lon="0.85674">
        <ele>1403</ele>
        <time>2018-04-02T12:56:21.000Z</time>
      </trkpt>
      <trkpt lat="42.9617" lon="0.85674">
        <ele>1403</ele>
        <time>2018-04-02T12:56:23.000Z</time>
      </trkpt>
      <trkpt lat="42.9617" lon="0.85674">
        <ele>1403</ele>
        <time>2018-04-02T12:56:25.000Z</time>
      </trkpt>
      <trkpt lat="42.96171" lon="0.85674">
        <ele>1403</ele>
        <time>2018-04-02T12:56:27.000Z</time>
      </trkpt>
      <trkpt lat="42.96171" lon="0.85674">
        <ele>1403</ele>
        <time>2018-04-02T12:56:29.000Z</time>
      </trkpt>
      <trkpt lat="42.9617" lon="0.85674">
        <ele>1403</ele>
        <time>2018-04-02T12:56:31.000Z</time>
      </trkpt>
      <trkpt lat="42.96168" lon="0.85675">
        <ele>1403</ele>
        <time>2018-04-02T12:56:33.000Z</time>
      </trkpt>
      <trkpt lat="42.96167" lon="0.85676">
        <ele>1403</ele>
        <time>2018-04-02T12:56:35.000Z</time>
      </trkpt>
      <trkpt lat="42.96167" lon="0.85676">
        <ele>1403</ele>
        <time>2018-04-02T12:56:37.000Z</time>
      </trkpt>
      <trkpt lat="42.96167" lon="0.85676">
        <ele>1403</ele>
        <time>2018-04-02T12:56:39.000Z</time>
      </trkpt>
      <trkpt lat="42.96165" lon="0.85677">
        <ele>1403</ele>
        <time>2018-04-02T12:56:41.000Z</time>
      </trkpt>
      <trkpt lat="42.96166" lon="0.85677">
        <ele>1403</ele>
        <time>2018-04-02T12:56:43.000Z</time>
      </trkpt>
      <trkpt lat="42.96166" lon="0.85677">
        <ele>1403</ele>
        <time>2018-04-02T12:56:45.000Z</time>
      </trkpt>
      <trkpt lat="42.96165" lon="0.85676">
        <ele>1403</ele>
        <time>2018-04-02T12:56:47.000Z</time>
      </trkpt>
      <trkpt lat="42.96166" lon="0.85676">
        <ele>1403</ele>
        <time>2018-04-02T12:56:49.000Z</time>
      </trkpt>
      <trkpt lat="42.96166" lon="0.85676">
        <ele>1403</ele>
        <time>2018-04-02T12:56:51.000Z</time>
      </trkpt>
      <trkpt lat="42.96167" lon="0.85676">
        <ele>1403</ele>
        <time>2018-04-02T12:56:53.000Z</time>
      </trkpt>
      <trkpt lat="42.96167" lon="0.85675">
        <ele>1403</ele>
        <time>2018-04-02T12:56:55.000Z</time>
      </trkpt>
      <trkpt lat="42.96168" lon="0.85674">
        <ele>1403</ele>
        <time>2018-04-02T12:56:57.000Z</time>
      </trkpt>
      <trkpt lat="42.96169" lon="0.85674">
        <ele>1403</ele>
        <time>2018-04-02T12:56:59.000Z</time>
      </trkpt>
      <trkpt lat="42.96169" lon="0.85674">
        <ele>1403</ele>
        <time>2018-04-02T12:57:01.000Z</time>
      </trkpt>
      <trkpt lat="42.9617" lon="0.85674">
        <ele>1403</ele>
        <time>2018-04-02T12:57:03.000Z</time>
      </trkpt>
      <trkpt lat="42.96169" lon="0.85673">
        <ele>1403</ele>
        <time>2018-04-02T12:57:05.000Z</time>
      </trkpt>
      <trkpt lat="42.96169" lon="0.85673">
        <ele>1403</ele>
        <time>2018-04-02T12:57:07.000Z</time>
      </trkpt>
      <trkpt lat="42.96168" lon="0.85673">
        <ele>1403</ele>
        <time>2018-04-02T12:57:09.000Z</time>
      </trkpt>
      <trkpt lat="42.96165" lon="0.85674">
        <ele>1403</ele>
        <time>2018-04-02T12:57:11.000Z</time>
      </trkpt>
      <trkpt lat="42.96165" lon="0.85674">
        <ele>1403</ele>
        <time>2018-04-02T12:57:13.000Z</time>
      </trkpt>
      <trkpt lat="42.96164" lon="0.85674">
        <ele>1403</ele>
        <time>2018-04-02T12:57:15.000Z</time>
      </trkpt>
      <trkpt lat="42.96163" lon="0.85674">
        <ele>1403</ele>
        <time>2018-04-02T12:57:17.000Z</time>
      </trkpt>
      <trkpt lat="42.96163" lon="0.85674">
        <ele>1403</ele>
        <time>2018-04-02T12:57:19.000Z</time>
      </trkpt>
      <trkpt lat="42.96162" lon="0.85674">
        <ele>1403</ele>
        <time>2018-04-02T12:57:21.000Z</time>
      </trkpt>
      <trkpt lat="42.96162" lon="0.85674">
        <ele>1403</ele>
        <time>2018-04-02T12:57:23.000Z</time>
      </trkpt>
      <trkpt lat="42.96162" lon="0.85674">
        <ele>1403</ele>
        <time>2018-04-02T12:57:25.000Z</time>
      </trkpt>
      <trkpt lat="42.96162" lon="0.85675">
        <ele>1403</ele>
        <time>2018-04-02T12:57:27.000Z</time>
      </trkpt>
      <trkpt lat="42.96163" lon="0.85675">
        <ele>1403</ele>
        <time>2018-04-02T12:57:29.000Z</time>
      </trkpt>
      <trkpt lat="42.96163" lon="0.85675">
        <ele>1403</ele>
        <time>2018-04-02T12:57:31.000Z</time>
      </trkpt>
      <trkpt lat="42.96163" lon="0.85676">
        <ele>1403</ele>
        <time>2018-04-02T12:57:33.000Z</time>
      </trkpt>
      <trkpt lat="42.96165" lon="0.85675">
        <ele>1403</ele>
        <time>2018-04-02T12:57:35.000Z</time>
      </trkpt>
      <trkpt lat="42.96165" lon="0.85676">
        <ele>1403</ele>
        <time>2018-04-02T12:57:37.000Z</time>
      </trkpt>
      <trkpt lat="42.96166" lon="0.85676">
        <ele>1403</ele>
        <time>2018-04-02T12:57:39.000Z</time>
      </trkpt>
      <trkpt lat="42.96166" lon="0.85676">
        <ele>1403</ele>
        <time>2018-04-02T12:57:41.000Z</time>
      </trkpt>
      <trkpt lat="42.96166" lon="0.85677">
        <ele>1403</ele>
        <time>2018-04-02T12:57:43.000Z</time>
      </trkpt>
      <trkpt lat="42.96166" lon="0.85677">
        <ele>1403</ele>
        <time>2018-04-02T12:57:45.000Z</time>
      </trkpt>
      <trkpt lat="42.96166" lon="0.85677">
        <ele>1403</ele>
        <time>2018-04-02T12:57:47.000Z</time>
      </trkpt>
      <trkpt lat="42.96166" lon="0.85677">
        <ele>1403</ele>
        <time>2018-04-02T12:57:49.000Z</time>
      </trkpt>
      <trkpt lat="42.96166" lon="0.85677">
        <ele>1403</ele>
        <time>2018-04-02T12:57:51.000Z</time>
      </trkpt>
      <trkpt lat="42.96166" lon="0.85677">
        <ele>1403</ele>
        <time>2018-04-02T12:57:53.000Z</time>
      </trkpt>
      <trkpt lat="42.96166" lon="0.85677">
        <ele>1403</ele>
        <time>2018-04-02T12:57:55.000Z</time>
      </trkpt>
      <trkpt lat="42.96166" lon="0.85677">
        <ele>1403</ele>
        <time>2018-04-02T12:57:57.000Z</time>
      </trkpt>
      <trkpt lat="42.96167" lon="0.85677">
        <ele>1403</ele>
        <time>2018-04-02T12:57:59.000Z</time>
      </trkpt>
      <trkpt lat="42.96167" lon="0.85677">
        <ele>1403</ele>
        <time>2018-04-02T12:58:01.000Z</time>
      </trkpt>
      <trkpt lat="42.96167" lon="0.85678">
        <ele>1403</ele>
        <time>2018-04-02T12:58:03.000Z</time>
      </trkpt>
      <trkpt lat="42.96168" lon="0.85677">
        <ele>1403</ele>
        <time>2018-04-02T12:58:05.000Z</time>
      </trkpt>
      <trkpt lat="42.96169" lon="0.85677">
        <ele>1403</ele>
        <time>2018-04-02T12:58:07.000Z</time>
      </trkpt>
      <trkpt lat="42.96169" lon="0.85677">
        <ele>1403</ele>
        <time>2018-04-02T12:58:09.000Z</time>
      </trkpt>
      <trkpt lat="42.96169" lon="0.85677">
        <ele>1403</ele>
        <time>2018-04-02T12:58:11.000Z</time>
      </trkpt>
      <trkpt lat="42.96168" lon="0.85677">
        <ele>1403</ele>
        <time>2018-04-02T12:58:13.000Z</time>
      </trkpt>
      <trkpt lat="42.96168" lon="0.85677">
        <ele>1403</ele>
        <time>2018-04-02T12:58:15.000Z</time>
      </trkpt>
      <trkpt lat="42.96168" lon="0.85677">
        <ele>1403</ele>
        <time>2018-04-02T12:58:17.000Z</time>
      </trkpt>
      <trkpt lat="42.96168" lon="0.85677">
        <ele>1403</ele>
        <time>2018-04-02T12:58:19.000Z</time>
      </trkpt>
      <trkpt lat="42.96168" lon="0.85677">
        <ele>1403</ele>
        <time>2018-04-02T12:58:21.000Z</time>
      </trkpt>
      <trkpt lat="42.96168" lon="0.85677">
        <ele>1403</ele>
        <time>2018-04-02T12:58:23.000Z</time>
      </trkpt>
      <trkpt lat="42.96167" lon="0.85677">
        <ele>1403</ele>
        <time>2018-04-02T12:58:25.000Z</time>
      </trkpt>
      <trkpt lat="42.96167" lon="0.85677">
        <ele>1403</ele>
        <time>2018-04-02T12:58:27.000Z</time>
      </trkpt>
      <trkpt lat="42.96168" lon="0.85678">
        <ele>1403</ele>
        <time>2018-04-02T12:58:29.000Z</time>
      </trkpt>
      <trkpt lat="42.96168" lon="0.85679">
        <ele>1402</ele>
        <time>2018-04-02T12:58:31.000Z</time>
      </trkpt>
      <trkpt lat="42.96168" lon="0.85678">
        <ele>1403</ele>
        <time>2018-04-02T12:58:33.000Z</time>
      </trkpt>
      <trkpt lat="42.96168" lon="0.85678">
        <ele>1402</ele>
        <time>2018-04-02T12:58:35.000Z</time>
      </trkpt>
      <trkpt lat="42.96167" lon="0.85678">
        <ele>1403</ele>
        <time>2018-04-02T12:58:37.000Z</time>
      </trkpt>
      <trkpt lat="42.96167" lon="0.85678">
        <ele>1402</ele>
        <time>2018-04-02T12:58:39.000Z</time>
      </trkpt>
      <trkpt lat="42.96167" lon="0.85678">
        <ele>1402</ele>
        <time>2018-04-02T12:58:41.000Z</time>
      </trkpt>
      <trkpt lat="42.96166" lon="0.85678">
        <ele>1402</ele>
        <time>2018-04-02T12:58:43.000Z</time>
      </trkpt>
      <trkpt lat="42.96166" lon="0.85679">
        <ele>1402</ele>
        <time>2018-04-02T12:58:45.000Z</time>
      </trkpt>
      <trkpt lat="42.96165" lon="0.85679">
        <ele>1402</ele>
        <time>2018-04-02T12:58:47.000Z</time>
      </trkpt>
      <trkpt lat="42.96164" lon="0.8568">
        <ele>1402</ele>
        <time>2018-04-02T12:58:49.000Z</time>
      </trkpt>
      <trkpt lat="42.96164" lon="0.85681">
        <ele>1402</ele>
        <time>2018-04-02T12:58:51.000Z</time>
      </trkpt>
      <trkpt lat="42.96164" lon="0.85681">
        <ele>1402</ele>
        <time>2018-04-02T12:58:53.000Z</time>
      </trkpt>
      <trkpt lat="42.96163" lon="0.85681">
        <ele>1402</ele>
        <time>2018-04-02T12:58:55.000Z</time>
      </trkpt>
      <trkpt lat="42.96163" lon="0.85681">
        <ele>1402</ele>
        <time>2018-04-02T12:58:57.000Z</time>
      </trkpt>
      <trkpt lat="42.96162" lon="0.85681">
        <ele>1402</ele>
        <time>2018-04-02T12:58:59.000Z</time>
      </trkpt>
      <trkpt lat="42.96162" lon="0.85679">
        <ele>1402</ele>
        <time>2018-04-02T12:59:01.000Z</time>
      </trkpt>
      <trkpt lat="42.96162" lon="0.85678">
        <ele>1402</ele>
        <time>2018-04-02T12:59:03.000Z</time>
      </trkpt>
      <trkpt lat="42.96163" lon="0.85678">
        <ele>1402</ele>
        <time>2018-04-02T12:59:05.000Z</time>
      </trkpt>
      <trkpt lat="42.96163" lon="0.85677">
        <ele>1402</ele>
        <time>2018-04-02T12:59:07.000Z</time>
      </trkpt>
      <trkpt lat="42.96163" lon="0.85676">
        <ele>1402</ele>
        <time>2018-04-02T12:59:09.000Z</time>
      </trkpt>
      <trkpt lat="42.96163" lon="0.85676">
        <ele>1402</ele>
        <time>2018-04-02T12:59:11.000Z</time>
      </trkpt>
      <trkpt lat="42.96163" lon="0.85677">
        <ele>1402</ele>
        <time>2018-04-02T12:59:13.000Z</time>
      </trkpt>
      <trkpt lat="42.96163" lon="0.85677">
        <ele>1402</ele>
        <time>2018-04-02T12:59:15.000Z</time>
      </trkpt>
      <trkpt lat="42.96162" lon="0.85677">
        <ele>1402</ele>
        <time>2018-04-02T12:59:17.000Z</time>
      </trkpt>
      <trkpt lat="42.96162" lon="0.85677">
        <ele>1402</ele>
        <time>2018-04-02T12:59:19.000Z</time>
      </trkpt>
      <trkpt lat="42.96162" lon="0.85677">
        <ele>1402</ele>
        <time>2018-04-02T12:59:21.000Z</time>
      </trkpt>
      <trkpt lat="42.96162" lon="0.85678">
        <ele>1402</ele>
        <time>2018-04-02T12:59:23.000Z</time>
      </trkpt>
      <trkpt lat="42.96161" lon="0.85678">
        <ele>1402</ele>
        <time>2018-04-02T12:59:25.000Z</time>
      </trkpt>
      <trkpt lat="42.96161" lon="0.85678">
        <ele>1402</ele>
        <time>2018-04-02T12:59:27.000Z</time>
      </trkpt>
      <trkpt lat="42.96161" lon="0.85678">
        <ele>1402</ele>
        <time>2018-04-02T12:59:29.000Z</time>
      </trkpt>
      <trkpt lat="42.96161" lon="0.85677">
        <ele>1402</ele>
        <time>2018-04-02T12:59:31.000Z</time>
      </trkpt>
      <trkpt lat="42.96161" lon="0.85678">
        <ele>1402</ele>
        <time>2018-04-02T12:59:33.000Z</time>
      </trkpt>
      <trkpt lat="42.96161" lon="0.85678">
        <ele>1402</ele>
        <time>2018-04-02T12:59:35.000Z</time>
      </trkpt>
      <trkpt lat="42.96161" lon="0.85678">
        <ele>1402</ele>
        <time>2018-04-02T12:59:37.000Z</time>
      </trkpt>
      <trkpt lat="42.96162" lon="0.85677">
        <ele>1402</ele>
        <time>2018-04-02T12:59:39.000Z</time>
      </trkpt>
      <trkpt lat="42.96162" lon="0.85676">
        <ele>1402</ele>
        <time>2018-04-02T12:59:41.000Z</time>
      </trkpt>
      <trkpt lat="42.96162" lon="0.85676">
        <ele>1402</ele>
        <time>2018-04-02T12:59:43.000Z</time>
      </trkpt>
      <trkpt lat="42.96162" lon="0.85676">
        <ele>1403</ele>
        <time>2018-04-02T12:59:45.000Z</time>
      </trkpt>
      <trkpt lat="42.96162" lon="0.85676">
        <ele>1402</ele>
        <time>2018-04-02T12:59:47.000Z</time>
      </trkpt>
      <trkpt lat="42.96162" lon="0.85676">
        <ele>1402</ele>
        <time>2018-04-02T12:59:49.000Z</time>
      </trkpt>
      <trkpt lat="42.96162" lon="0.85676">
        <ele>1402</ele>
        <time>2018-04-02T12:59:51.000Z</time>
      </trkpt>
      <trkpt lat="42.96162" lon="0.85676">
        <ele>1402</ele>
        <time>2018-04-02T12:59:53.000Z</time>
      </trkpt>
      <trkpt lat="42.96162" lon="0.85676">
        <ele>1402</ele>
        <time>2018-04-02T12:59:55.000Z</time>
      </trkpt>
      <trkpt lat="42.96162" lon="0.85676">
        <ele>1402</ele>
        <time>2018-04-02T12:59:57.000Z</time>
      </trkpt>
      <trkpt lat="42.96161" lon="0.85677">
        <ele>1402</ele>
        <time>2018-04-02T12:59:59.000Z</time>
      </trkpt>
      <trkpt lat="42.96161" lon="0.85678">
        <ele>1402</ele>
        <time>2018-04-02T13:00:01.000Z</time>
      </trkpt>
      <trkpt lat="42.96161" lon="0.85678">
        <ele>1402</ele>
        <time>2018-04-02T13:00:03.000Z</time>
      </trkpt>
      <trkpt lat="42.96162" lon="0.85679">
        <ele>1402</ele>
        <time>2018-04-02T13:00:05.000Z</time>
      </trkpt>
      <trkpt lat="42.96161" lon="0.85679">
        <ele>1402</ele>
        <time>2018-04-02T13:00:07.000Z</time>
      </trkpt>
      <trkpt lat="42.96161" lon="0.85679">
        <ele>1402</ele>
        <time>2018-04-02T13:00:09.000Z</time>
      </trkpt>
      <trkpt lat="42.9616" lon="0.85679">
        <ele>1402</ele>
        <time>2018-04-02T13:00:11.000Z</time>
      </trkpt>
      <trkpt lat="42.9616" lon="0.85679">
        <ele>1402</ele>
        <time>2018-04-02T13:00:13.000Z</time>
      </trkpt>
      <trkpt lat="42.9616" lon="0.85679">
        <ele>1402</ele>
        <time>2018-04-02T13:00:15.000Z</time>
      </trkpt>
      <trkpt lat="42.9616" lon="0.85678">
        <ele>1402</ele>
        <time>2018-04-02T13:00:17.000Z</time>
      </trkpt>
      <trkpt lat="42.9616" lon="0.85678">
        <ele>1402</ele>
        <time>2018-04-02T13:00:19.000Z</time>
      </trkpt>
      <trkpt lat="42.96159" lon="0.85678">
        <ele>1402</ele>
        <time>2018-04-02T13:00:21.000Z</time>
      </trkpt>
      <trkpt lat="42.96159" lon="0.85677">
        <ele>1402</ele>
        <time>2018-04-02T13:00:23.000Z</time>
      </trkpt>
      <trkpt lat="42.96159" lon="0.85677">
        <ele>1402</ele>
        <time>2018-04-02T13:00:25.000Z</time>
      </trkpt>
      <trkpt lat="42.96159" lon="0.85677">
        <ele>1402</ele>
        <time>2018-04-02T13:00:27.000Z</time>
      </trkpt>
      <trkpt lat="42.9616" lon="0.85676">
        <ele>1402</ele>
        <time>2018-04-02T13:00:29.000Z</time>
      </trkpt>
      <trkpt lat="42.9616" lon="0.85675">
        <ele>1402</ele>
        <time>2018-04-02T13:00:31.000Z</time>
      </trkpt>
      <trkpt lat="42.9616" lon="0.85676">
        <ele>1402</ele>
        <time>2018-04-02T13:00:33.000Z</time>
      </trkpt>
      <trkpt lat="42.9616" lon="0.85675">
        <ele>1402</ele>
        <time>2018-04-02T13:00:35.000Z</time>
      </trkpt>
      <trkpt lat="42.9616" lon="0.85675">
        <ele>1402</ele>
        <time>2018-04-02T13:00:37.000Z</time>
      </trkpt>
      <trkpt lat="42.9616" lon="0.85675">
        <ele>1402</ele>
        <time>2018-04-02T13:00:39.000Z</time>
      </trkpt>
      <trkpt lat="42.9616" lon="0.85675">
        <ele>1402</ele>
        <time>2018-04-02T13:00:41.000Z</time>
      </trkpt>
      <trkpt lat="42.9616" lon="0.85675">
        <ele>1402</ele>
        <time>2018-04-02T13:00:43.000Z</time>
      </trkpt>
      <trkpt lat="42.9616" lon="0.85674">
        <ele>1403</ele>
        <time>2018-04-02T13:00:45.000Z</time>
      </trkpt>
      <trkpt lat="42.96161" lon="0.85674">
        <ele>1403</ele>
        <time>2018-04-02T13:00:47.000Z</time>
      </trkpt>
      <trkpt lat="42.96161" lon="0.85674">
        <ele>1403</ele>
        <time>2018-04-02T13:00:49.000Z</time>
      </trkpt>
      <trkpt lat="42.96161" lon="0.85674">
        <ele>1403</ele>
        <time>2018-04-02T13:00:51.000Z</time>
      </trkpt>
      <trkpt lat="42.96161" lon="0.85673">
        <ele>1403</ele>
        <time>2018-04-02T13:00:53.000Z</time>
      </trkpt>
      <trkpt lat="42.96162" lon="0.85673">
        <ele>1403</ele>
        <time>2018-04-02T13:00:55.000Z</time>
      </trkpt>
      <trkpt lat="42.96162" lon="0.85673">
        <ele>1403</ele>
        <time>2018-04-02T13:00:57.000Z</time>
      </trkpt>
      <trkpt lat="42.96163" lon="0.85674">
        <ele>1403</ele>
        <time>2018-04-02T13:00:59.000Z</time>
      </trkpt>
      <trkpt lat="42.96163" lon="0.85673">
        <ele>1403</ele>
        <time>2018-04-02T13:01:01.000Z</time>
      </trkpt>
      <trkpt lat="42.96164" lon="0.85673">
        <ele>1403</ele>
        <time>2018-04-02T13:01:03.000Z</time>
      </trkpt>
      <trkpt lat="42.96163" lon="0.85673">
        <ele>1403</ele>
        <time>2018-04-02T13:01:05.000Z</time>
      </trkpt>
      <trkpt lat="42.96163" lon="0.85673">
        <ele>1403</ele>
        <time>2018-04-02T13:01:07.000Z</time>
      </trkpt>
      <trkpt lat="42.96161" lon="0.85674">
        <ele>1403</ele>
        <time>2018-04-02T13:01:09.000Z</time>
      </trkpt>
      <trkpt lat="42.96161" lon="0.85675">
        <ele>1403</ele>
        <time>2018-04-02T13:01:11.000Z</time>
      </trkpt>
      <trkpt lat="42.96161" lon="0.85675">
        <ele>1403</ele>
        <time>2018-04-02T13:01:13.000Z</time>
      </trkpt>
      <trkpt lat="42.96162" lon="0.85675">
        <ele>1403</ele>
        <time>2018-04-02T13:01:15.000Z</time>
      </trkpt>
      <trkpt lat="42.96162" lon="0.85675">
        <ele>1403</ele>
        <time>2018-04-02T13:01:17.000Z</time>
      </trkpt>
      <trkpt lat="42.96162" lon="0.85675">
        <ele>1403</ele>
        <time>2018-04-02T13:01:19.000Z</time>
      </trkpt>
      <trkpt lat="42.96162" lon="0.85675">
        <ele>1403</ele>
        <time>2018-04-02T13:01:21.000Z</time>
      </trkpt>
      <trkpt lat="42.96162" lon="0.85675">
        <ele>1403</ele>
        <time>2018-04-02T13:01:23.000Z</time>
      </trkpt>
      <trkpt lat="42.96163" lon="0.85675">
        <ele>1403</ele>
        <time>2018-04-02T13:01:25.000Z</time>
      </trkpt>
      <trkpt lat="42.96164" lon="0.85675">
        <ele>1403</ele>
        <time>2018-04-02T13:01:27.000Z</time>
      </trkpt>
      <trkpt lat="42.96165" lon="0.85677">
        <ele>1403</ele>
        <time>2018-04-02T13:01:29.000Z</time>
      </trkpt>
      <trkpt lat="42.96165" lon="0.85677">
        <ele>1402</ele>
        <time>2018-04-02T13:01:31.000Z</time>
      </trkpt>
      <trkpt lat="42.96166" lon="0.85677">
        <ele>1403</ele>
        <time>2018-04-02T13:01:33.000Z</time>
      </trkpt>
      <trkpt lat="42.96166" lon="0.85678">
        <ele>1402</ele>
        <time>2018-04-02T13:01:35.000Z</time>
      </trkpt>
      <trkpt lat="42.96165" lon="0.85678">
        <ele>1402</ele>
        <time>2018-04-02T13:01:37.000Z</time>
      </trkpt>
      <trkpt lat="42.96164" lon="0.85678">
        <ele>1402</ele>
        <time>2018-04-02T13:01:39.000Z</time>
      </trkpt>
      <trkpt lat="42.96163" lon="0.85678">
        <ele>1402</ele>
        <time>2018-04-02T13:01:41.000Z</time>
      </trkpt>
      <trkpt lat="42.96163" lon="0.85678">
        <ele>1402</ele>
        <time>2018-04-02T13:01:43.000Z</time>
      </trkpt>
      <trkpt lat="42.96162" lon="0.85678">
        <ele>1402</ele>
        <time>2018-04-02T13:01:45.000Z</time>
      </trkpt>
      <trkpt lat="42.96162" lon="0.85678">
        <ele>1402</ele>
        <time>2018-04-02T13:01:47.000Z</time>
      </trkpt>
      <trkpt lat="42.96162" lon="0.85678">
        <ele>1402</ele>
        <time>2018-04-02T13:01:49.000Z</time>
      </trkpt>
      <trkpt lat="42.96161" lon="0.85678">
        <ele>1402</ele>
        <time>2018-04-02T13:01:51.000Z</time>
      </trkpt>
      <trkpt lat="42.96161" lon="0.85677">
        <ele>1402</ele>
        <time>2018-04-02T13:01:53.000Z</time>
      </trkpt>
      <trkpt lat="42.96161" lon="0.85677">
        <ele>1402</ele>
        <time>2018-04-02T13:01:55.000Z</time>
      </trkpt>
      <trkpt lat="42.96161" lon="0.85676">
        <ele>1402</ele>
        <time>2018-04-02T13:01:57.000Z</time>
      </trkpt>
      <trkpt lat="42.96161" lon="0.85676">
        <ele>1402</ele>
        <time>2018-04-02T13:01:59.000Z</time>
      </trkpt>
      <trkpt lat="42.96161" lon="0.85676">
        <ele>1402</ele>
        <time>2018-04-02T13:02:01.000Z</time>
      </trkpt>
      <trkpt lat="42.96161" lon="0.85676">
        <ele>1402</ele>
        <time>2018-04-02T13:02:03.000Z</time>
      </trkpt>
      <trkpt lat="42.96161" lon="0.85676">
        <ele>1402</ele>
        <time>2018-04-02T13:02:05.000Z</time>
      </trkpt>
      <trkpt lat="42.96162" lon="0.85676">
        <ele>1402</ele>
        <time>2018-04-02T13:02:07.000Z</time>
      </trkpt>
      <trkpt lat="42.96162" lon="0.85677">
        <ele>1402</ele>
        <time>2018-04-02T13:02:09.000Z</time>
      </trkpt>
      <trkpt lat="42.96161" lon="0.85677">
        <ele>1402</ele>
        <time>2018-04-02T13:02:11.000Z</time>
      </trkpt>
      <trkpt lat="42.96161" lon="0.85677">
        <ele>1402</ele>
        <time>2018-04-02T13:02:13.000Z</time>
      </trkpt>
      <trkpt lat="42.96161" lon="0.85677">
        <ele>1402</ele>
        <time>2018-04-02T13:02:15.000Z</time>
      </trkpt>
      <trkpt lat="42.9616" lon="0.85676">
        <ele>1402</ele>
        <time>2018-04-02T13:02:17.000Z</time>
      </trkpt>
      <trkpt lat="42.9616" lon="0.85676">
        <ele>1402</ele>
        <time>2018-04-02T13:02:19.000Z</time>
      </trkpt>
      <trkpt lat="42.96161" lon="0.85676">
        <ele>1402</ele>
        <time>2018-04-02T13:02:21.000Z</time>
      </trkpt>
      <trkpt lat="42.96161" lon="0.85677">
        <ele>1402</ele>
        <time>2018-04-02T13:02:23.000Z</time>
      </trkpt>
      <trkpt lat="42.96161" lon="0.85676">
        <ele>1402</ele>
        <time>2018-04-02T13:02:25.000Z</time>
      </trkpt>
      <trkpt lat="42.96161" lon="0.85677">
        <ele>1402</ele>
        <time>2018-04-02T13:02:27.000Z</time>
      </trkpt>
      <trkpt lat="42.96161" lon="0.85678">
        <ele>1402</ele>
        <time>2018-04-02T13:02:29.000Z</time>
      </trkpt>
      <trkpt lat="42.96161" lon="0.85678">
        <ele>1402</ele>
        <time>2018-04-02T13:02:31.000Z</time>
      </trkpt>
      <trkpt lat="42.96161" lon="0.85679">
        <ele>1402</ele>
        <time>2018-04-02T13:02:33.000Z</time>
      </trkpt>
      <trkpt lat="42.96161" lon="0.85679">
        <ele>1402</ele>
        <time>2018-04-02T13:02:35.000Z</time>
      </trkpt>
      <trkpt lat="42.9616" lon="0.85679">
        <ele>1402</ele>
        <time>2018-04-02T13:02:37.000Z</time>
      </trkpt>
      <trkpt lat="42.9616" lon="0.85678">
        <ele>1402</ele>
        <time>2018-04-02T13:02:39.000Z</time>
      </trkpt>
      <trkpt lat="42.9616" lon="0.85678">
        <ele>1402</ele>
        <time>2018-04-02T13:02:41.000Z</time>
      </trkpt>
      <trkpt lat="42.9616" lon="0.85677">
        <ele>1402</ele>
        <time>2018-04-02T13:02:43.000Z</time>
      </trkpt>
      <trkpt lat="42.9616" lon="0.85676">
        <ele>1402</ele>
        <time>2018-04-02T13:02:45.000Z</time>
      </trkpt>
      <trkpt lat="42.96161" lon="0.85677">
        <ele>1402</ele>
        <time>2018-04-02T13:02:47.000Z</time>
      </trkpt>
      <trkpt lat="42.96161" lon="0.85677">
        <ele>1402</ele>
        <time>2018-04-02T13:02:49.000Z</time>
      </trkpt>
      <trkpt lat="42.96161" lon="0.85678">
        <ele>1402</ele>
        <time>2018-04-02T13:02:51.000Z</time>
      </trkpt>
      <trkpt lat="42.96161" lon="0.85678">
        <ele>1402</ele>
        <time>2018-04-02T13:02:53.000Z</time>
      </trkpt>
      <trkpt lat="42.96161" lon="0.85679">
        <ele>1402</ele>
        <time>2018-04-02T13:02:55.000Z</time>
      </trkpt>
      <trkpt lat="42.96161" lon="0.85679">
        <ele>1402</ele>
        <time>2018-04-02T13:02:57.000Z</time>
      </trkpt>
      <trkpt lat="42.9616" lon="0.85679">
        <ele>1402</ele>
        <time>2018-04-02T13:02:59.000Z</time>
      </trkpt>
      <trkpt lat="42.9616" lon="0.85679">
        <ele>1402</ele>
        <time>2018-04-02T13:03:01.000Z</time>
      </trkpt>
      <trkpt lat="42.9616" lon="0.85678">
        <ele>1402</ele>
        <time>2018-04-02T13:03:03.000Z</time>
      </trkpt>
      <trkpt lat="42.96159" lon="0.85678">
        <ele>1402</ele>
        <time>2018-04-02T13:03:05.000Z</time>
      </trkpt>
      <trkpt lat="42.96159" lon="0.85678">
        <ele>1402</ele>
        <time>2018-04-02T13:03:07.000Z</time>
      </trkpt>
      <trkpt lat="42.96159" lon="0.85678">
        <ele>1402</ele>
        <time>2018-04-02T13:03:09.000Z</time>
      </trkpt>
      <trkpt lat="42.96159" lon="0.85678">
        <ele>1402</ele>
        <time>2018-04-02T13:03:11.000Z</time>
      </trkpt>
      <trkpt lat="42.9616" lon="0.85677">
        <ele>1402</ele>
        <time>2018-04-02T13:03:13.000Z</time>
      </trkpt>
      <trkpt lat="42.96161" lon="0.85676">
        <ele>1402</ele>
        <time>2018-04-02T13:03:15.000Z</time>
      </trkpt>
      <trkpt lat="42.9616" lon="0.85676">
        <ele>1402</ele>
        <time>2018-04-02T13:03:17.000Z</time>
      </trkpt>
      <trkpt lat="42.96161" lon="0.85677">
        <ele>1402</ele>
        <time>2018-04-02T13:03:19.000Z</time>
      </trkpt>
      <trkpt lat="42.96162" lon="0.85677">
        <ele>1402</ele>
        <time>2018-04-02T13:03:21.000Z</time>
      </trkpt>
      <trkpt lat="42.96163" lon="0.85678">
        <ele>1402</ele>
        <time>2018-04-02T13:03:23.000Z</time>
      </trkpt>
      <trkpt lat="42.96163" lon="0.85678">
        <ele>1402</ele>
        <time>2018-04-02T13:03:25.000Z</time>
      </trkpt>
      <trkpt lat="42.96163" lon="0.85677">
        <ele>1402</ele>
        <time>2018-04-02T13:03:27.000Z</time>
      </trkpt>
      <trkpt lat="42.96164" lon="0.85677">
        <ele>1402</ele>
        <time>2018-04-02T13:03:29.000Z</time>
      </trkpt>
      <trkpt lat="42.96164" lon="0.85677">
        <ele>1402</ele>
        <time>2018-04-02T13:03:31.000Z</time>
      </trkpt>
      <trkpt lat="42.96163" lon="0.85677">
        <ele>1402</ele>
        <time>2018-04-02T13:03:33.000Z</time>
      </trkpt>
      <trkpt lat="42.96163" lon="0.85676">
        <ele>1402</ele>
        <time>2018-04-02T13:03:35.000Z</time>
      </trkpt>
      <trkpt lat="42.96163" lon="0.85676">
        <ele>1402</ele>
        <time>2018-04-02T13:03:37.000Z</time>
      </trkpt>
      <trkpt lat="42.96163" lon="0.85676">
        <ele>1402</ele>
        <time>2018-04-02T13:03:39.000Z</time>
      </trkpt>
      <trkpt lat="42.96163" lon="0.85676">
        <ele>1402</ele>
        <time>2018-04-02T13:03:41.000Z</time>
      </trkpt>
      <trkpt lat="42.96162" lon="0.85676">
        <ele>1402</ele>
        <time>2018-04-02T13:03:43.000Z</time>
      </trkpt>
      <trkpt lat="42.96162" lon="0.85676">
        <ele>1402</ele>
        <time>2018-04-02T13:03:45.000Z</time>
      </trkpt>
      <trkpt lat="42.96162" lon="0.85676">
        <ele>1402</ele>
        <time>2018-04-02T13:03:47.000Z</time>
      </trkpt>
      <trkpt lat="42.96162" lon="0.85677">
        <ele>1402</ele>
        <time>2018-04-02T13:03:49.000Z</time>
      </trkpt>
      <trkpt lat="42.96162" lon="0.85677">
        <ele>1402</ele>
        <time>2018-04-02T13:03:51.000Z</time>
      </trkpt>
      <trkpt lat="42.96162" lon="0.85677">
        <ele>1402</ele>
        <time>2018-04-02T13:03:53.000Z</time>
      </trkpt>
      <trkpt lat="42.96162" lon="0.85677">
        <ele>1402</ele>
        <time>2018-04-02T13:03:55.000Z</time>
      </trkpt>
      <trkpt lat="42.96163" lon="0.85678">
        <ele>1402</ele>
        <time>2018-04-02T13:03:57.000Z</time>
      </trkpt>
      <trkpt lat="42.96163" lon="0.85678">
        <ele>1402</ele>
        <time>2018-04-02T13:03:59.000Z</time>
      </trkpt>
      <trkpt lat="42.96163" lon="0.85678">
        <ele>1402</ele>
        <time>2018-04-02T13:04:01.000Z</time>
      </trkpt>
      <trkpt lat="42.96163" lon="0.85678">
        <ele>1402</ele>
        <time>2018-04-02T13:04:03.000Z</time>
      </trkpt>
      <trkpt lat="42.96163" lon="0.85678">
        <ele>1402</ele>
        <time>2018-04-02T13:04:05.000Z</time>
      </trkpt>
      <trkpt lat="42.9616" lon="0.85678">
        <ele>1402</ele>
        <time>2018-04-02T13:04:07.000Z</time>
      </trkpt>
      <trkpt lat="42.9616" lon="0.85678">
        <ele>1402</ele>
        <time>2018-04-02T13:04:09.000Z</time>
      </trkpt>
      <trkpt lat="42.9616" lon="0.85678">
        <ele>1402</ele>
        <time>2018-04-02T13:04:11.000Z</time>
      </trkpt>
      <trkpt lat="42.9616" lon="0.85678">
        <ele>1402</ele>
        <time>2018-04-02T13:04:13.000Z</time>
      </trkpt>
      <trkpt lat="42.9616" lon="0.85678">
        <ele>1402</ele>
        <time>2018-04-02T13:04:15.000Z</time>
      </trkpt>
      <trkpt lat="42.96159" lon="0.85678">
        <ele>1402</ele>
        <time>2018-04-02T13:04:17.000Z</time>
      </trkpt>
      <trkpt lat="42.96159" lon="0.85677">
        <ele>1402</ele>
        <time>2018-04-02T13:04:19.000Z</time>
      </trkpt>
      <trkpt lat="42.9616" lon="0.85677">
        <ele>1402</ele>
        <time>2018-04-02T13:04:21.000Z</time>
      </trkpt>
      <trkpt lat="42.96159" lon="0.85676">
        <ele>1402</ele>
        <time>2018-04-02T13:04:23.000Z</time>
      </trkpt>
      <trkpt lat="42.96159" lon="0.85676">
        <ele>1402</ele>
        <time>2018-04-02T13:04:25.000Z</time>
      </trkpt>
      <trkpt lat="42.9616" lon="0.85676">
        <ele>1402</ele>
        <time>2018-04-02T13:04:27.000Z</time>
      </trkpt>
      <trkpt lat="42.9616" lon="0.85676">
        <ele>1402</ele>
        <time>2018-04-02T13:04:29.000Z</time>
      </trkpt>
      <trkpt lat="42.9616" lon="0.85676">
        <ele>1402</ele>
        <time>2018-04-02T13:04:31.000Z</time>
      </trkpt>
      <trkpt lat="42.9616" lon="0.85676">
        <ele>1402</ele>
        <time>2018-04-02T13:04:33.000Z</time>
      </trkpt>
      <trkpt lat="42.9616" lon="0.85675">
        <ele>1402</ele>
        <time>2018-04-02T13:04:35.000Z</time>
      </trkpt>
      <trkpt lat="42.96161" lon="0.85675">
        <ele>1403</ele>
        <time>2018-04-02T13:04:37.000Z</time>
      </trkpt>
      <trkpt lat="42.96161" lon="0.85675">
        <ele>1402</ele>
        <time>2018-04-02T13:04:39.000Z</time>
      </trkpt>
      <trkpt lat="42.96161" lon="0.85676">
        <ele>1402</ele>
        <time>2018-04-02T13:04:41.000Z</time>
      </trkpt>
      <trkpt lat="42.96161" lon="0.85676">
        <ele>1402</ele>
        <time>2018-04-02T13:04:43.000Z</time>
      </trkpt>
      <trkpt lat="42.96161" lon="0.85675">
        <ele>1402</ele>
        <time>2018-04-02T13:04:45.000Z</time>
      </trkpt>
      <trkpt lat="42.96162" lon="0.85675">
        <ele>1402</ele>
        <time>2018-04-02T13:04:47.000Z</time>
      </trkpt>
      <trkpt lat="42.96162" lon="0.85676">
        <ele>1402</ele>
        <time>2018-04-02T13:04:49.000Z</time>
      </trkpt>
      <trkpt lat="42.96162" lon="0.85676">
        <ele>1402</ele>
        <time>2018-04-02T13:04:51.000Z</time>
      </trkpt>
      <trkpt lat="42.96161" lon="0.85676">
        <ele>1402</ele>
        <time>2018-04-02T13:04:53.000Z</time>
      </trkpt>
      <trkpt lat="42.9616" lon="0.85676">
        <ele>1402</ele>
        <time>2018-04-02T13:04:55.000Z</time>
      </trkpt>
      <trkpt lat="42.96161" lon="0.85675">
        <ele>1402</ele>
        <time>2018-04-02T13:04:57.000Z</time>
      </trkpt>
      <trkpt lat="42.9616" lon="0.85675">
        <ele>1402</ele>
        <time>2018-04-02T13:04:59.000Z</time>
      </trkpt>
      <trkpt lat="42.9616" lon="0.85674">
        <ele>1403</ele>
        <time>2018-04-02T13:05:01.000Z</time>
      </trkpt>
      <trkpt lat="42.96161" lon="0.85675">
        <ele>1403</ele>
        <time>2018-04-02T13:05:03.000Z</time>
      </trkpt>
      <trkpt lat="42.96161" lon="0.85675">
        <ele>1403</ele>
        <time>2018-04-02T13:05:05.000Z</time>
      </trkpt>
      <trkpt lat="42.96162" lon="0.85675">
        <ele>1403</ele>
        <time>2018-04-02T13:05:07.000Z</time>
      </trkpt>
      <trkpt lat="42.96162" lon="0.85675">
        <ele>1403</ele>
        <time>2018-04-02T13:05:09.000Z</time>
      </trkpt>
      <trkpt lat="42.96162" lon="0.85677">
        <ele>1402</ele>
        <time>2018-04-02T13:05:11.000Z</time>
      </trkpt>
      <trkpt lat="42.96163" lon="0.85677">
        <ele>1402</ele>
        <time>2018-04-02T13:05:13.000Z</time>
      </trkpt>
      <trkpt lat="42.96165" lon="0.85678">
        <ele>1402</ele>
        <time>2018-04-02T13:05:15.000Z</time>
      </trkpt>
      <trkpt lat="42.96165" lon="0.85678">
        <ele>1402</ele>
        <time>2018-04-02T13:05:17.000Z</time>
      </trkpt>
      <trkpt lat="42.96165" lon="0.8568">
        <ele>1402</ele>
        <time>2018-04-02T13:05:19.000Z</time>
      </trkpt>
      <trkpt lat="42.96166" lon="0.8568">
        <ele>1402</ele>
        <time>2018-04-02T13:05:21.000Z</time>
      </trkpt>
      <trkpt lat="42.96166" lon="0.8568">
        <ele>1402</ele>
        <time>2018-04-02T13:05:23.000Z</time>
      </trkpt>
      <trkpt lat="42.96166" lon="0.85679">
        <ele>1402</ele>
        <time>2018-04-02T13:05:25.000Z</time>
      </trkpt>
      <trkpt lat="42.96165" lon="0.85677">
        <ele>1402</ele>
        <time>2018-04-02T13:05:27.000Z</time>
      </trkpt>
      <trkpt lat="42.96163" lon="0.85675">
        <ele>1403</ele>
        <time>2018-04-02T13:05:29.000Z</time>
      </trkpt>
      <trkpt lat="42.96162" lon="0.85673">
        <ele>1403</ele>
        <time>2018-04-02T13:05:31.000Z</time>
      </trkpt>
      <trkpt lat="42.96161" lon="0.85672">
        <ele>1403</ele>
        <time>2018-04-02T13:05:33.000Z</time>
      </trkpt>
      <trkpt lat="42.9616" lon="0.8567">
        <ele>1403</ele>
        <time>2018-04-02T13:05:35.000Z</time>
      </trkpt>
      <trkpt lat="42.96159" lon="0.85669">
        <ele>1403</ele>
        <time>2018-04-02T13:05:37.000Z</time>
      </trkpt>
      <trkpt lat="42.96159" lon="0.85668">
        <ele>1403</ele>
        <time>2018-04-02T13:05:39.000Z</time>
      </trkpt>
      <trkpt lat="42.96159" lon="0.85666">
        <ele>1403</ele>
        <time>2018-04-02T13:05:41.000Z</time>
      </trkpt>
      <trkpt lat="42.96158" lon="0.85665">
        <ele>1403</ele>
        <time>2018-04-02T13:05:43.000Z</time>
      </trkpt>
      <trkpt lat="42.96157" lon="0.85663">
        <ele>1404</ele>
        <time>2018-04-02T13:05:45.000Z</time>
      </trkpt>
      <trkpt lat="42.96157" lon="0.85662">
        <ele>1404</ele>
        <time>2018-04-02T13:05:47.000Z</time>
      </trkpt>
      <trkpt lat="42.96156" lon="0.85661">
        <ele>1404</ele>
        <time>2018-04-02T13:05:49.000Z</time>
      </trkpt>
      <trkpt lat="42.96156" lon="0.8566">
        <ele>1404</ele>
        <time>2018-04-02T13:05:51.000Z</time>
      </trkpt>
      <trkpt lat="42.96156" lon="0.8566">
        <ele>1404</ele>
        <time>2018-04-02T13:05:53.000Z</time>
      </trkpt>
      <trkpt lat="42.96156" lon="0.85661">
        <ele>1404</ele>
        <time>2018-04-02T13:05:55.000Z</time>
      </trkpt>
      <trkpt lat="42.96156" lon="0.85662">
        <ele>1404</ele>
        <time>2018-04-02T13:05:57.000Z</time>
      </trkpt>
      <trkpt lat="42.96156" lon="0.85663">
        <ele>1404</ele>
        <time>2018-04-02T13:05:59.000Z</time>
      </trkpt>
      <trkpt lat="42.96157" lon="0.85663">
        <ele>1404</ele>
        <time>2018-04-02T13:06:01.000Z</time>
      </trkpt>
      <trkpt lat="42.96157" lon="0.85664">
        <ele>1404</ele>
        <time>2018-04-02T13:06:03.000Z</time>
      </trkpt>
      <trkpt lat="42.96156" lon="0.85665">
        <ele>1403</ele>
        <time>2018-04-02T13:06:05.000Z</time>
      </trkpt>
      <trkpt lat="42.96156" lon="0.85667">
        <ele>1403</ele>
        <time>2018-04-02T13:06:07.000Z</time>
      </trkpt>
      <trkpt lat="42.96155" lon="0.85668">
        <ele>1403</ele>
        <time>2018-04-02T13:06:09.000Z</time>
      </trkpt>
      <trkpt lat="42.96155" lon="0.8567">
        <ele>1403</ele>
        <time>2018-04-02T13:06:11.000Z</time>
      </trkpt>
      <trkpt lat="42.96154" lon="0.85671">
        <ele>1403</ele>
        <time>2018-04-02T13:06:13.000Z</time>
      </trkpt>
      <trkpt lat="42.96154" lon="0.85673">
        <ele>1402</ele>
        <time>2018-04-02T13:06:15.000Z</time>
      </trkpt>
      <trkpt lat="42.96154" lon="0.85674">
        <ele>1402</ele>
        <time>2018-04-02T13:06:17.000Z</time>
      </trkpt>
      <trkpt lat="42.96154" lon="0.85675">
        <ele>1402</ele>
        <time>2018-04-02T13:06:19.000Z</time>
      </trkpt>
      <trkpt lat="42.96154" lon="0.85676">
        <ele>1402</ele>
        <time>2018-04-02T13:06:21.000Z</time>
      </trkpt>
      <trkpt lat="42.96154" lon="0.85677">
        <ele>1402</ele>
        <time>2018-04-02T13:06:23.000Z</time>
      </trkpt>
      <trkpt lat="42.96154" lon="0.85679">
        <ele>1402</ele>
        <time>2018-04-02T13:06:25.000Z</time>
      </trkpt>
      <trkpt lat="42.96154" lon="0.8568">
        <ele>1402</ele>
        <time>2018-04-02T13:06:27.000Z</time>
      </trkpt>
      <trkpt lat="42.96154" lon="0.85681">
        <ele>1402</ele>
        <time>2018-04-02T13:06:29.000Z</time>
      </trkpt>
      <trkpt lat="42.96154" lon="0.85683">
        <ele>1401</ele>
        <time>2018-04-02T13:06:31.000Z</time>
      </trkpt>
      <trkpt lat="42.96154" lon="0.85685">
        <ele>1401</ele>
        <time>2018-04-02T13:06:33.000Z</time>
      </trkpt>
      <trkpt lat="42.96154" lon="0.85688">
        <ele>1401</ele>
        <time>2018-04-02T13:06:35.000Z</time>
      </trkpt>
      <trkpt lat="42.96153" lon="0.8569">
        <ele>1400</ele>
        <time>2018-04-02T13:06:37.000Z</time>
      </trkpt>
      <trkpt lat="42.96152" lon="0.85692">
        <ele>1400</ele>
        <time>2018-04-02T13:06:39.000Z</time>
      </trkpt>
      <trkpt lat="42.96151" lon="0.85694">
        <ele>1400</ele>
        <time>2018-04-02T13:06:41.000Z</time>
      </trkpt>
      <trkpt lat="42.9615" lon="0.85697">
        <ele>1400</ele>
        <time>2018-04-02T13:06:43.000Z</time>
      </trkpt>
      <trkpt lat="42.9615" lon="0.85698">
        <ele>1399</ele>
        <time>2018-04-02T13:06:45.000Z</time>
      </trkpt>
      <trkpt lat="42.9615" lon="0.857">
        <ele>1399</ele>
        <time>2018-04-02T13:06:47.000Z</time>
      </trkpt>
      <trkpt lat="42.9615" lon="0.85703">
        <ele>1399</ele>
        <time>2018-04-02T13:06:49.000Z</time>
      </trkpt>
      <trkpt lat="42.9615" lon="0.85706">
        <ele>1399</ele>
        <time>2018-04-02T13:06:51.000Z</time>
      </trkpt>
      <trkpt lat="42.9615" lon="0.85708">
        <ele>1399</ele>
        <time>2018-04-02T13:06:53.000Z</time>
      </trkpt>
      <trkpt lat="42.96149" lon="0.8571">
        <ele>1399</ele>
        <time>2018-04-02T13:06:55.000Z</time>
      </trkpt>
      <trkpt lat="42.9615" lon="0.85713">
        <ele>1399</ele>
        <time>2018-04-02T13:06:57.000Z</time>
      </trkpt>
      <trkpt lat="42.9615" lon="0.85715">
        <ele>1399</ele>
        <time>2018-04-02T13:06:59.000Z</time>
      </trkpt>
      <trkpt lat="42.96151" lon="0.85718">
        <ele>1399</ele>
        <time>2018-04-02T13:07:01.000Z</time>
      </trkpt>
      <trkpt lat="42.96151" lon="0.85718">
        <ele>1399</ele>
        <time>2018-04-02T13:07:03.000Z</time>
      </trkpt>
      <trkpt lat="42.96151" lon="0.8572">
        <ele>1399</ele>
        <time>2018-04-02T13:07:05.000Z</time>
      </trkpt>
      <trkpt lat="42.96152" lon="0.85721">
        <ele>1399</ele>
        <time>2018-04-02T13:07:07.000Z</time>
      </trkpt>
      <trkpt lat="42.96153" lon="0.85723">
        <ele>1399</ele>
        <time>2018-04-02T13:07:09.000Z</time>
      </trkpt>
      <trkpt lat="42.96154" lon="0.85725">
        <ele>1399</ele>
        <time>2018-04-02T13:07:11.000Z</time>
      </trkpt>
      <trkpt lat="42.96155" lon="0.85727">
        <ele>1399</ele>
        <time>2018-04-02T13:07:13.000Z</time>
      </trkpt>
      <trkpt lat="42.96156" lon="0.85728">
        <ele>1399</ele>
        <time>2018-04-02T13:07:15.000Z</time>
      </trkpt>
      <trkpt lat="42.96156" lon="0.8573">
        <ele>1399</ele>
        <time>2018-04-02T13:07:17.000Z</time>
      </trkpt>
      <trkpt lat="42.96156" lon="0.85731">
        <ele>1399</ele>
        <time>2018-04-02T13:07:19.000Z</time>
      </trkpt>
      <trkpt lat="42.96157" lon="0.85733">
        <ele>1399</ele>
        <time>2018-04-02T13:07:21.000Z</time>
      </trkpt>
      <trkpt lat="42.96157" lon="0.85735">
        <ele>1398</ele>
        <time>2018-04-02T13:07:23.000Z</time>
      </trkpt>
      <trkpt lat="42.96158" lon="0.85737">
        <ele>1398</ele>
        <time>2018-04-02T13:07:25.000Z</time>
      </trkpt>
      <trkpt lat="42.96159" lon="0.85739">
        <ele>1398</ele>
        <time>2018-04-02T13:07:27.000Z</time>
      </trkpt>
      <trkpt lat="42.9616" lon="0.85741">
        <ele>1398</ele>
        <time>2018-04-02T13:07:29.000Z</time>
      </trkpt>
      <trkpt lat="42.96161" lon="0.85744">
        <ele>1398</ele>
        <time>2018-04-02T13:07:31.000Z</time>
      </trkpt>
      <trkpt lat="42.96161" lon="0.85746">
        <ele>1398</ele>
        <time>2018-04-02T13:07:33.000Z</time>
      </trkpt>
      <trkpt lat="42.96162" lon="0.85748">
        <ele>1398</ele>
        <time>2018-04-02T13:07:35.000Z</time>
      </trkpt>
      <trkpt lat="42.96163" lon="0.85749">
        <ele>1397</ele>
        <time>2018-04-02T13:07:37.000Z</time>
      </trkpt>
      <trkpt lat="42.96165" lon="0.8575">
        <ele>1397</ele>
        <time>2018-04-02T13:07:39.000Z</time>
      </trkpt>
      <trkpt lat="42.96167" lon="0.8575">
        <ele>1397</ele>
        <time>2018-04-02T13:07:41.000Z</time>
      </trkpt>
      <trkpt lat="42.96169" lon="0.85751">
        <ele>1397</ele>
        <time>2018-04-02T13:07:43.000Z</time>
      </trkpt>
      <trkpt lat="42.96171" lon="0.85752">
        <ele>1397</ele>
        <time>2018-04-02T13:07:45.000Z</time>
      </trkpt>
      <trkpt lat="42.96173" lon="0.85754">
        <ele>1397</ele>
        <time>2018-04-02T13:07:47.000Z</time>
      </trkpt>
      <trkpt lat="42.96174" lon="0.85755">
        <ele>1396</ele>
        <time>2018-04-02T13:07:49.000Z</time>
      </trkpt>
      <trkpt lat="42.96174" lon="0.85757">
        <ele>1396</ele>
        <time>2018-04-02T13:07:51.000Z</time>
      </trkpt>
      <trkpt lat="42.96175" lon="0.85759">
        <ele>1396</ele>
        <time>2018-04-02T13:07:53.000Z</time>
      </trkpt>
      <trkpt lat="42.96175" lon="0.85762">
        <ele>1396</ele>
        <time>2018-04-02T13:07:55.000Z</time>
      </trkpt>
      <trkpt lat="42.96175" lon="0.85765">
        <ele>1396</ele>
        <time>2018-04-02T13:07:57.000Z</time>
      </trkpt>
      <trkpt lat="42.96176" lon="0.85768">
        <ele>1396</ele>
        <time>2018-04-02T13:07:59.000Z</time>
      </trkpt>
      <trkpt lat="42.96175" lon="0.8577">
        <ele>1396</ele>
        <time>2018-04-02T13:08:01.000Z</time>
      </trkpt>
      <trkpt lat="42.96175" lon="0.85772">
        <ele>1396</ele>
        <time>2018-04-02T13:08:03.000Z</time>
      </trkpt>
      <trkpt lat="42.96174" lon="0.85774">
        <ele>1396</ele>
        <time>2018-04-02T13:08:05.000Z</time>
      </trkpt>
      <trkpt lat="42.96174" lon="0.85776">
        <ele>1395</ele>
        <time>2018-04-02T13:08:07.000Z</time>
      </trkpt>
      <trkpt lat="42.96173" lon="0.85777">
        <ele>1395</ele>
        <time>2018-04-02T13:08:09.000Z</time>
      </trkpt>
      <trkpt lat="42.96171" lon="0.8578">
        <ele>1395</ele>
        <time>2018-04-02T13:08:11.000Z</time>
      </trkpt>
      <trkpt lat="42.9617" lon="0.85782">
        <ele>1395</ele>
        <time>2018-04-02T13:08:13.000Z</time>
      </trkpt>
      <trkpt lat="42.96168" lon="0.85783">
        <ele>1396</ele>
        <time>2018-04-02T13:08:15.000Z</time>
      </trkpt>
      <trkpt lat="42.96166" lon="0.85785">
        <ele>1396</ele>
        <time>2018-04-02T13:08:17.000Z</time>
      </trkpt>
      <trkpt lat="42.96165" lon="0.85786">
        <ele>1396</ele>
        <time>2018-04-02T13:08:19.000Z</time>
      </trkpt>
      <trkpt lat="42.96163" lon="0.85788">
        <ele>1396</ele>
        <time>2018-04-02T13:08:21.000Z</time>
      </trkpt>
      <trkpt lat="42.96162" lon="0.8579">
        <ele>1396</ele>
        <time>2018-04-02T13:08:23.000Z</time>
      </trkpt>
      <trkpt lat="42.96161" lon="0.85792">
        <ele>1395</ele>
        <time>2018-04-02T13:08:25.000Z</time>
      </trkpt>
      <trkpt lat="42.96161" lon="0.85794">
        <ele>1395</ele>
        <time>2018-04-02T13:08:27.000Z</time>
      </trkpt>
      <trkpt lat="42.96161" lon="0.85796">
        <ele>1395</ele>
        <time>2018-04-02T13:08:29.000Z</time>
      </trkpt>
      <trkpt lat="42.96161" lon="0.85798">
        <ele>1395</ele>
        <time>2018-04-02T13:08:31.000Z</time>
      </trkpt>
      <trkpt lat="42.96161" lon="0.858">
        <ele>1395</ele>
        <time>2018-04-02T13:08:33.000Z</time>
      </trkpt>
      <trkpt lat="42.96162" lon="0.85802">
        <ele>1395</ele>
        <time>2018-04-02T13:08:35.000Z</time>
      </trkpt>
      <trkpt lat="42.96162" lon="0.85804">
        <ele>1395</ele>
        <time>2018-04-02T13:08:37.000Z</time>
      </trkpt>
      <trkpt lat="42.96162" lon="0.85805">
        <ele>1395</ele>
        <time>2018-04-02T13:08:39.000Z</time>
      </trkpt>
      <trkpt lat="42.96162" lon="0.85807">
        <ele>1395</ele>
        <time>2018-04-02T13:08:41.000Z</time>
      </trkpt>
      <trkpt lat="42.96162" lon="0.85809">
        <ele>1395</ele>
        <time>2018-04-02T13:08:43.000Z</time>
      </trkpt>
      <trkpt lat="42.96163" lon="0.85811">
        <ele>1395</ele>
        <time>2018-04-02T13:08:45.000Z</time>
      </trkpt>
      <trkpt lat="42.96163" lon="0.85814">
        <ele>1394</ele>
        <time>2018-04-02T13:08:47.000Z</time>
      </trkpt>
      <trkpt lat="42.96163" lon="0.85815">
        <ele>1394</ele>
        <time>2018-04-02T13:08:49.000Z</time>
      </trkpt>
      <trkpt lat="42.96163" lon="0.85817">
        <ele>1394</ele>
        <time>2018-04-02T13:08:51.000Z</time>
      </trkpt>
      <trkpt lat="42.96164" lon="0.85819">
        <ele>1394</ele>
        <time>2018-04-02T13:08:53.000Z</time>
      </trkpt>
      <trkpt lat="42.96164" lon="0.8582">
        <ele>1394</ele>
        <time>2018-04-02T13:08:55.000Z</time>
      </trkpt>
      <trkpt lat="42.96165" lon="0.85821">
        <ele>1394</ele>
        <time>2018-04-02T13:08:57.000Z</time>
      </trkpt>
      <trkpt lat="42.96166" lon="0.85823">
        <ele>1393</ele>
        <time>2018-04-02T13:08:59.000Z</time>
      </trkpt>
      <trkpt lat="42.96167" lon="0.85825">
        <ele>1393</ele>
        <time>2018-04-02T13:09:01.000Z</time>
      </trkpt>
      <trkpt lat="42.96168" lon="0.85826">
        <ele>1393</ele>
        <time>2018-04-02T13:09:03.000Z</time>
      </trkpt>
      <trkpt lat="42.96169" lon="0.85827">
        <ele>1393</ele>
        <time>2018-04-02T13:09:05.000Z</time>
      </trkpt>
      <trkpt lat="42.96169" lon="0.85829">
        <ele>1393</ele>
        <time>2018-04-02T13:09:07.000Z</time>
      </trkpt>
      <trkpt lat="42.9617" lon="0.85831">
        <ele>1393</ele>
        <time>2018-04-02T13:09:09.000Z</time>
      </trkpt>
      <trkpt lat="42.9617" lon="0.85833">
        <ele>1392</ele>
        <time>2018-04-02T13:09:11.000Z</time>
      </trkpt>
      <trkpt lat="42.96171" lon="0.85834">
        <ele>1392</ele>
        <time>2018-04-02T13:09:13.000Z</time>
      </trkpt>
      <trkpt lat="42.96172" lon="0.85836">
        <ele>1392</ele>
        <time>2018-04-02T13:09:15.000Z</time>
      </trkpt>
      <trkpt lat="42.96173" lon="0.85837">
        <ele>1392</ele>
        <time>2018-04-02T13:09:17.000Z</time>
      </trkpt>
      <trkpt lat="42.96174" lon="0.85838">
        <ele>1392</ele>
        <time>2018-04-02T13:09:19.000Z</time>
      </trkpt>
      <trkpt lat="42.96176" lon="0.85839">
        <ele>1392</ele>
        <time>2018-04-02T13:09:21.000Z</time>
      </trkpt>
      <trkpt lat="42.96178" lon="0.8584">
        <ele>1392</ele>
        <time>2018-04-02T13:09:23.000Z</time>
      </trkpt>
      <trkpt lat="42.9618" lon="0.85842">
        <ele>1392</ele>
        <time>2018-04-02T13:09:25.000Z</time>
      </trkpt>
      <trkpt lat="42.9618" lon="0.85844">
        <ele>1392</ele>
        <time>2018-04-02T13:09:27.000Z</time>
      </trkpt>
      <trkpt lat="42.96182" lon="0.85846">
        <ele>1392</ele>
        <time>2018-04-02T13:09:29.000Z</time>
      </trkpt>
      <trkpt lat="42.96184" lon="0.85848">
        <ele>1392</ele>
        <time>2018-04-02T13:09:31.000Z</time>
      </trkpt>
      <trkpt lat="42.96185" lon="0.85849">
        <ele>1392</ele>
        <time>2018-04-02T13:09:33.000Z</time>
      </trkpt>
      <trkpt lat="42.96186" lon="0.85852">
        <ele>1392</ele>
        <time>2018-04-02T13:09:35.000Z</time>
      </trkpt>
      <trkpt lat="42.96187" lon="0.85853">
        <ele>1392</ele>
        <time>2018-04-02T13:09:37.000Z</time>
      </trkpt>
      <trkpt lat="42.96187" lon="0.85856">
        <ele>1392</ele>
        <time>2018-04-02T13:09:39.000Z</time>
      </trkpt>
      <trkpt lat="42.96188" lon="0.85858">
        <ele>1392</ele>
        <time>2018-04-02T13:09:41.000Z</time>
      </trkpt>
      <trkpt lat="42.96187" lon="0.85861">
        <ele>1392</ele>
        <time>2018-04-02T13:09:43.000Z</time>
      </trkpt>
      <trkpt lat="42.96188" lon="0.85864">
        <ele>1392</ele>
        <time>2018-04-02T13:09:45.000Z</time>
      </trkpt>
      <trkpt lat="42.96188" lon="0.85866">
        <ele>1392</ele>
        <time>2018-04-02T13:09:47.000Z</time>
      </trkpt>
      <trkpt lat="42.96187" lon="0.85869">
        <ele>1391</ele>
        <time>2018-04-02T13:09:49.000Z</time>
      </trkpt>
      <trkpt lat="42.96186" lon="0.85873">
        <ele>1391</ele>
        <time>2018-04-02T13:09:51.000Z</time>
      </trkpt>
      <trkpt lat="42.96183" lon="0.85876">
        <ele>1390</ele>
        <time>2018-04-02T13:09:53.000Z</time>
      </trkpt>
      <trkpt lat="42.96181" lon="0.85879">
        <ele>1390</ele>
        <time>2018-04-02T13:09:55.000Z</time>
      </trkpt>
      <trkpt lat="42.96181" lon="0.85882">
        <ele>1389</ele>
        <time>2018-04-02T13:09:57.000Z</time>
      </trkpt>
      <trkpt lat="42.9618" lon="0.85885">
        <ele>1389</ele>
        <time>2018-04-02T13:09:59.000Z</time>
      </trkpt>
      <trkpt lat="42.9618" lon="0.85888">
        <ele>1389</ele>
        <time>2018-04-02T13:10:01.000Z</time>
      </trkpt>
      <trkpt lat="42.96179" lon="0.85891">
        <ele>1388</ele>
        <time>2018-04-02T13:10:03.000Z</time>
      </trkpt>
      <trkpt lat="42.96179" lon="0.85894">
        <ele>1388</ele>
        <time>2018-04-02T13:10:05.000Z</time>
      </trkpt>
      <trkpt lat="42.96179" lon="0.85897">
        <ele>1388</ele>
        <time>2018-04-02T13:10:07.000Z</time>
      </trkpt>
      <trkpt lat="42.96178" lon="0.859">
        <ele>1388</ele>
        <time>2018-04-02T13:10:09.000Z</time>
      </trkpt>
      <trkpt lat="42.96179" lon="0.85902">
        <ele>1387</ele>
        <time>2018-04-02T13:10:11.000Z</time>
      </trkpt>
      <trkpt lat="42.9618" lon="0.85905">
        <ele>1387</ele>
        <time>2018-04-02T13:10:13.000Z</time>
      </trkpt>
      <trkpt lat="42.96181" lon="0.85908">
        <ele>1387</ele>
        <time>2018-04-02T13:10:15.000Z</time>
      </trkpt>
      <trkpt lat="42.96181" lon="0.8591">
        <ele>1387</ele>
        <time>2018-04-02T13:10:17.000Z</time>
      </trkpt>
      <trkpt lat="42.96181" lon="0.85913">
        <ele>1387</ele>
        <time>2018-04-02T13:10:19.000Z</time>
      </trkpt>
      <trkpt lat="42.96181" lon="0.85915">
        <ele>1387</ele>
        <time>2018-04-02T13:10:21.000Z</time>
      </trkpt>
      <trkpt lat="42.96181" lon="0.85918">
        <ele>1387</ele>
        <time>2018-04-02T13:10:23.000Z</time>
      </trkpt>
      <trkpt lat="42.96181" lon="0.85921">
        <ele>1386</ele>
        <time>2018-04-02T13:10:25.000Z</time>
      </trkpt>
      <trkpt lat="42.96181" lon="0.85922">
        <ele>1386</ele>
        <time>2018-04-02T13:10:27.000Z</time>
      </trkpt>
      <trkpt lat="42.96182" lon="0.85923">
        <ele>1386</ele>
        <time>2018-04-02T13:10:29.000Z</time>
      </trkpt>
      <trkpt lat="42.96182" lon="0.85925">
        <ele>1386</ele>
        <time>2018-04-02T13:10:31.000Z</time>
      </trkpt>
      <trkpt lat="42.96183" lon="0.85926">
        <ele>1386</ele>
        <time>2018-04-02T13:10:33.000Z</time>
      </trkpt>
      <trkpt lat="42.96184" lon="0.85927">
        <ele>1386</ele>
        <time>2018-04-02T13:10:35.000Z</time>
      </trkpt>
      <trkpt lat="42.96184" lon="0.85928">
        <ele>1386</ele>
        <time>2018-04-02T13:10:37.000Z</time>
      </trkpt>
      <trkpt lat="42.96184" lon="0.85928">
        <ele>1386</ele>
        <time>2018-04-02T13:10:39.000Z</time>
      </trkpt>
      <trkpt lat="42.96184" lon="0.8593">
        <ele>1386</ele>
        <time>2018-04-02T13:10:41.000Z</time>
      </trkpt>
      <trkpt lat="42.96183" lon="0.85932">
        <ele>1386</ele>
        <time>2018-04-02T13:10:43.000Z</time>
      </trkpt>
      <trkpt lat="42.96183" lon="0.85935">
        <ele>1386</ele>
        <time>2018-04-02T13:10:45.000Z</time>
      </trkpt>
      <trkpt lat="42.96182" lon="0.85937">
        <ele>1385</ele>
        <time>2018-04-02T13:10:47.000Z</time>
      </trkpt>
      <trkpt lat="42.96181" lon="0.85938">
        <ele>1385</ele>
        <time>2018-04-02T13:10:49.000Z</time>
      </trkpt>
      <trkpt lat="42.96181" lon="0.85939">
        <ele>1385</ele>
        <time>2018-04-02T13:10:51.000Z</time>
      </trkpt>
      <trkpt lat="42.9618" lon="0.8594">
        <ele>1385</ele>
        <time>2018-04-02T13:10:53.000Z</time>
      </trkpt>
      <trkpt lat="42.9618" lon="0.85942">
        <ele>1385</ele>
        <time>2018-04-02T13:10:55.000Z</time>
      </trkpt>
      <trkpt lat="42.9618" lon="0.85944">
        <ele>1385</ele>
        <time>2018-04-02T13:10:57.000Z</time>
      </trkpt>
      <trkpt lat="42.96181" lon="0.85946">
        <ele>1385</ele>
        <time>2018-04-02T13:10:59.000Z</time>
      </trkpt>
      <trkpt lat="42.96181" lon="0.85948">
        <ele>1385</ele>
        <time>2018-04-02T13:11:01.000Z</time>
      </trkpt>
      <trkpt lat="42.96181" lon="0.85951">
        <ele>1385</ele>
        <time>2018-04-02T13:11:03.000Z</time>
      </trkpt>
      <trkpt lat="42.96181" lon="0.85952">
        <ele>1384</ele>
        <time>2018-04-02T13:11:05.000Z</time>
      </trkpt>
      <trkpt lat="42.96181" lon="0.85954">
        <ele>1384</ele>
        <time>2018-04-02T13:11:07.000Z</time>
      </trkpt>
      <trkpt lat="42.96181" lon="0.85956">
        <ele>1384</ele>
        <time>2018-04-02T13:11:09.000Z</time>
      </trkpt>
      <trkpt lat="42.96181" lon="0.85958">
        <ele>1384</ele>
        <time>2018-04-02T13:11:11.000Z</time>
      </trkpt>
      <trkpt lat="42.96182" lon="0.8596">
        <ele>1384</ele>
        <time>2018-04-02T13:11:13.000Z</time>
      </trkpt>
      <trkpt lat="42.96182" lon="0.85962">
        <ele>1384</ele>
        <time>2018-04-02T13:11:15.000Z</time>
      </trkpt>
      <trkpt lat="42.96182" lon="0.85964">
        <ele>1384</ele>
        <time>2018-04-02T13:11:17.000Z</time>
      </trkpt>
      <trkpt lat="42.96183" lon="0.85965">
        <ele>1384</ele>
        <time>2018-04-02T13:11:19.000Z</time>
      </trkpt>
      <trkpt lat="42.96185" lon="0.85966">
        <ele>1384</ele>
        <time>2018-04-02T13:11:21.000Z</time>
      </trkpt>
      <trkpt lat="42.96186" lon="0.85968">
        <ele>1384</ele>
        <time>2018-04-02T13:11:23.000Z</time>
      </trkpt>
      <trkpt lat="42.96187" lon="0.8597">
        <ele>1384</ele>
        <time>2018-04-02T13:11:25.000Z</time>
      </trkpt>
      <trkpt lat="42.96188" lon="0.85972">
        <ele>1384</ele>
        <time>2018-04-02T13:11:27.000Z</time>
      </trkpt>
      <trkpt lat="42.96189" lon="0.85974">
        <ele>1383</ele>
        <time>2018-04-02T13:11:29.000Z</time>
      </trkpt>
      <trkpt lat="42.9619" lon="0.85976">
        <ele>1383</ele>
        <time>2018-04-02T13:11:31.000Z</time>
      </trkpt>
      <trkpt lat="42.96191" lon="0.85977">
        <ele>1383</ele>
        <time>2018-04-02T13:11:33.000Z</time>
      </trkpt>
      <trkpt lat="42.96192" lon="0.8598">
        <ele>1383</ele>
        <time>2018-04-02T13:11:35.000Z</time>
      </trkpt>
      <trkpt lat="42.96192" lon="0.85982">
        <ele>1383</ele>
        <time>2018-04-02T13:11:37.000Z</time>
      </trkpt>
      <trkpt lat="42.96192" lon="0.85984">
        <ele>1382</ele>
        <time>2018-04-02T13:11:39.000Z</time>
      </trkpt>
      <trkpt lat="42.96192" lon="0.85987">
        <ele>1382</ele>
        <time>2018-04-02T13:11:41.000Z</time>
      </trkpt>
      <trkpt lat="42.96193" lon="0.85989">
        <ele>1382</ele>
        <time>2018-04-02T13:11:43.000Z</time>
      </trkpt>
      <trkpt lat="42.96194" lon="0.85992">
        <ele>1381</ele>
        <time>2018-04-02T13:11:45.000Z</time>
      </trkpt>
      <trkpt lat="42.96194" lon="0.85994">
        <ele>1381</ele>
        <time>2018-04-02T13:11:47.000Z</time>
      </trkpt>
      <trkpt lat="42.96195" lon="0.85996">
        <ele>1381</ele>
        <time>2018-04-02T13:11:49.000Z</time>
      </trkpt>
      <trkpt lat="42.96196" lon="0.85998">
        <ele>1381</ele>
        <time>2018-04-02T13:11:51.000Z</time>
      </trkpt>
      <trkpt lat="42.96197" lon="0.86">
        <ele>1381</ele>
        <time>2018-04-02T13:11:53.000Z</time>
      </trkpt>
      <trkpt lat="42.96198" lon="0.86002">
        <ele>1381</ele>
        <time>2018-04-02T13:11:55.000Z</time>
      </trkpt>
      <trkpt lat="42.96199" lon="0.86004">
        <ele>1381</ele>
        <time>2018-04-02T13:11:57.000Z</time>
      </trkpt>
      <trkpt lat="42.962" lon="0.86006">
        <ele>1381</ele>
        <time>2018-04-02T13:11:59.000Z</time>
      </trkpt>
      <trkpt lat="42.96201" lon="0.86008">
        <ele>1381</ele>
        <time>2018-04-02T13:12:01.000Z</time>
      </trkpt>
      <trkpt lat="42.96202" lon="0.8601">
        <ele>1381</ele>
        <time>2018-04-02T13:12:03.000Z</time>
      </trkpt>
      <trkpt lat="42.96203" lon="0.86013">
        <ele>1381</ele>
        <time>2018-04-02T13:12:05.000Z</time>
      </trkpt>
      <trkpt lat="42.96204" lon="0.86014">
        <ele>1381</ele>
        <time>2018-04-02T13:12:07.000Z</time>
      </trkpt>
      <trkpt lat="42.96205" lon="0.86016">
        <ele>1381</ele>
        <time>2018-04-02T13:12:09.000Z</time>
      </trkpt>
      <trkpt lat="42.96205" lon="0.86019">
        <ele>1381</ele>
        <time>2018-04-02T13:12:11.000Z</time>
      </trkpt>
      <trkpt lat="42.96205" lon="0.86022">
        <ele>1381</ele>
        <time>2018-04-02T13:12:13.000Z</time>
      </trkpt>
      <trkpt lat="42.96205" lon="0.86024">
        <ele>1382</ele>
        <time>2018-04-02T13:12:15.000Z</time>
      </trkpt>
      <trkpt lat="42.96205" lon="0.86027">
        <ele>1382</ele>
        <time>2018-04-02T13:12:17.000Z</time>
      </trkpt>
      <trkpt lat="42.96206" lon="0.8603">
        <ele>1382</ele>
        <time>2018-04-02T13:12:19.000Z</time>
      </trkpt>
      <trkpt lat="42.96206" lon="0.86033">
        <ele>1382</ele>
        <time>2018-04-02T13:12:21.000Z</time>
      </trkpt>
      <trkpt lat="42.96206" lon="0.86036">
        <ele>1382</ele>
        <time>2018-04-02T13:12:23.000Z</time>
      </trkpt>
      <trkpt lat="42.96206" lon="0.86039">
        <ele>1382</ele>
        <time>2018-04-02T13:12:25.000Z</time>
      </trkpt>
      <trkpt lat="42.96206" lon="0.86041">
        <ele>1383</ele>
        <time>2018-04-02T13:12:27.000Z</time>
      </trkpt>
      <trkpt lat="42.96205" lon="0.86043">
        <ele>1383</ele>
        <time>2018-04-02T13:12:29.000Z</time>
      </trkpt>
      <trkpt lat="42.96205" lon="0.86045">
        <ele>1383</ele>
        <time>2018-04-02T13:12:31.000Z</time>
      </trkpt>
      <trkpt lat="42.96205" lon="0.86047">
        <ele>1383</ele>
        <time>2018-04-02T13:12:33.000Z</time>
      </trkpt>
      <trkpt lat="42.96205" lon="0.86048">
        <ele>1383</ele>
        <time>2018-04-02T13:12:35.000Z</time>
      </trkpt>
      <trkpt lat="42.96206" lon="0.8605">
        <ele>1383</ele>
        <time>2018-04-02T13:12:37.000Z</time>
      </trkpt>
      <trkpt lat="42.96207" lon="0.86052">
        <ele>1383</ele>
        <time>2018-04-02T13:12:39.000Z</time>
      </trkpt>
      <trkpt lat="42.96208" lon="0.86054">
        <ele>1383</ele>
        <time>2018-04-02T13:12:41.000Z</time>
      </trkpt>
      <trkpt lat="42.96209" lon="0.86056">
        <ele>1383</ele>
        <time>2018-04-02T13:12:43.000Z</time>
      </trkpt>
      <trkpt lat="42.9621" lon="0.86058">
        <ele>1383</ele>
        <time>2018-04-02T13:12:45.000Z</time>
      </trkpt>
      <trkpt lat="42.96212" lon="0.8606">
        <ele>1382</ele>
        <time>2018-04-02T13:12:47.000Z</time>
      </trkpt>
      <trkpt lat="42.96213" lon="0.86062">
        <ele>1382</ele>
        <time>2018-04-02T13:12:49.000Z</time>
      </trkpt>
      <trkpt lat="42.96214" lon="0.86063">
        <ele>1381</ele>
        <time>2018-04-02T13:12:51.000Z</time>
      </trkpt>
      <trkpt lat="42.96215" lon="0.86065">
        <ele>1381</ele>
        <time>2018-04-02T13:12:53.000Z</time>
      </trkpt>
      <trkpt lat="42.96217" lon="0.86068">
        <ele>1381</ele>
        <time>2018-04-02T13:12:55.000Z</time>
      </trkpt>
      <trkpt lat="42.96218" lon="0.8607">
        <ele>1380</ele>
        <time>2018-04-02T13:12:57.000Z</time>
      </trkpt>
      <trkpt lat="42.96218" lon="0.86073">
        <ele>1380</ele>
        <time>2018-04-02T13:12:59.000Z</time>
      </trkpt>
      <trkpt lat="42.96219" lon="0.86075">
        <ele>1379</ele>
        <time>2018-04-02T13:13:01.000Z</time>
      </trkpt>
      <trkpt lat="42.9622" lon="0.86078">
        <ele>1379</ele>
        <time>2018-04-02T13:13:03.000Z</time>
      </trkpt>
      <trkpt lat="42.96221" lon="0.8608">
        <ele>1379</ele>
        <time>2018-04-02T13:13:05.000Z</time>
      </trkpt>
      <trkpt lat="42.96222" lon="0.86082">
        <ele>1378</ele>
        <time>2018-04-02T13:13:07.000Z</time>
      </trkpt>
      <trkpt lat="42.96223" lon="0.86085">
        <ele>1378</ele>
        <time>2018-04-02T13:13:09.000Z</time>
      </trkpt>
      <trkpt lat="42.96224" lon="0.86087">
        <ele>1377</ele>
        <time>2018-04-02T13:13:11.000Z</time>
      </trkpt>
      <trkpt lat="42.96225" lon="0.8609">
        <ele>1377</ele>
        <time>2018-04-02T13:13:13.000Z</time>
      </trkpt>
      <trkpt lat="42.96226" lon="0.86092">
        <ele>1377</ele>
        <time>2018-04-02T13:13:15.000Z</time>
      </trkpt>
      <trkpt lat="42.96227" lon="0.86095">
        <ele>1376</ele>
        <time>2018-04-02T13:13:17.000Z</time>
      </trkpt>
      <trkpt lat="42.96228" lon="0.86098">
        <ele>1376</ele>
        <time>2018-04-02T13:13:19.000Z</time>
      </trkpt>
      <trkpt lat="42.96228" lon="0.86102">
        <ele>1375</ele>
        <time>2018-04-02T13:13:21.000Z</time>
      </trkpt>
      <trkpt lat="42.96229" lon="0.86105">
        <ele>1375</ele>
        <time>2018-04-02T13:13:23.000Z</time>
      </trkpt>
      <trkpt lat="42.96229" lon="0.86108">
        <ele>1374</ele>
        <time>2018-04-02T13:13:25.000Z</time>
      </trkpt>
      <trkpt lat="42.9623" lon="0.86109">
        <ele>1374</ele>
        <time>2018-04-02T13:13:27.000Z</time>
      </trkpt>
      <trkpt lat="42.96231" lon="0.86111">
        <ele>1374</ele>
        <time>2018-04-02T13:13:29.000Z</time>
      </trkpt>
      <trkpt lat="42.96232" lon="0.86113">
        <ele>1374</ele>
        <time>2018-04-02T13:13:31.000Z</time>
      </trkpt>
      <trkpt lat="42.96233" lon="0.86115">
        <ele>1373</ele>
        <time>2018-04-02T13:13:33.000Z</time>
      </trkpt>
      <trkpt lat="42.96233" lon="0.86117">
        <ele>1373</ele>
        <time>2018-04-02T13:13:35.000Z</time>
      </trkpt>
      <trkpt lat="42.96234" lon="0.86119">
        <ele>1373</ele>
        <time>2018-04-02T13:13:37.000Z</time>
      </trkpt>
      <trkpt lat="42.96235" lon="0.86121">
        <ele>1373</ele>
        <time>2018-04-02T13:13:39.000Z</time>
      </trkpt>
      <trkpt lat="42.96236" lon="0.86122">
        <ele>1372</ele>
        <time>2018-04-02T13:13:41.000Z</time>
      </trkpt>
      <trkpt lat="42.96236" lon="0.86124">
        <ele>1372</ele>
        <time>2018-04-02T13:13:43.000Z</time>
      </trkpt>
      <trkpt lat="42.96238" lon="0.86126">
        <ele>1372</ele>
        <time>2018-04-02T13:13:45.000Z</time>
      </trkpt>
      <trkpt lat="42.96239" lon="0.86128">
        <ele>1372</ele>
        <time>2018-04-02T13:13:47.000Z</time>
      </trkpt>
      <trkpt lat="42.9624" lon="0.86129">
        <ele>1371</ele>
        <time>2018-04-02T13:13:49.000Z</time>
      </trkpt>
      <trkpt lat="42.96241" lon="0.86131">
        <ele>1371</ele>
        <time>2018-04-02T13:13:51.000Z</time>
      </trkpt>
      <trkpt lat="42.96242" lon="0.86132">
        <ele>1371</ele>
        <time>2018-04-02T13:13:53.000Z</time>
      </trkpt>
      <trkpt lat="42.96244" lon="0.86133">
        <ele>1370</ele>
        <time>2018-04-02T13:13:55.000Z</time>
      </trkpt>
      <trkpt lat="42.96246" lon="0.86134">
        <ele>1370</ele>
        <time>2018-04-02T13:13:57.000Z</time>
      </trkpt>
      <trkpt lat="42.96247" lon="0.86135">
        <ele>1370</ele>
        <time>2018-04-02T13:13:59.000Z</time>
      </trkpt>
      <trkpt lat="42.96248" lon="0.86136">
        <ele>1369</ele>
        <time>2018-04-02T13:14:01.000Z</time>
      </trkpt>
      <trkpt lat="42.9625" lon="0.86137">
        <ele>1369</ele>
        <time>2018-04-02T13:14:03.000Z</time>
      </trkpt>
      <trkpt lat="42.96252" lon="0.86138">
        <ele>1368</ele>
        <time>2018-04-02T13:14:05.000Z</time>
      </trkpt>
      <trkpt lat="42.96253" lon="0.8614">
        <ele>1368</ele>
        <time>2018-04-02T13:14:07.000Z</time>
      </trkpt>
      <trkpt lat="42.96255" lon="0.86142">
        <ele>1368</ele>
        <time>2018-04-02T13:14:09.000Z</time>
      </trkpt>
      <trkpt lat="42.96258" lon="0.86143">
        <ele>1367</ele>
        <time>2018-04-02T13:14:11.000Z</time>
      </trkpt>
      <trkpt lat="42.96259" lon="0.86145">
        <ele>1367</ele>
        <time>2018-04-02T13:14:13.000Z</time>
      </trkpt>
      <trkpt lat="42.96262" lon="0.86147">
        <ele>1367</ele>
        <time>2018-04-02T13:14:15.000Z</time>
      </trkpt>
      <trkpt lat="42.96264" lon="0.86148">
        <ele>1366</ele>
        <time>2018-04-02T13:14:17.000Z</time>
      </trkpt>
      <trkpt lat="42.96266" lon="0.8615">
        <ele>1366</ele>
        <time>2018-04-02T13:14:19.000Z</time>
      </trkpt>
      <trkpt lat="42.96268" lon="0.86151">
        <ele>1366</ele>
        <time>2018-04-02T13:14:21.000Z</time>
      </trkpt>
      <trkpt lat="42.9627" lon="0.86153">
        <ele>1366</ele>
        <time>2018-04-02T13:14:23.000Z</time>
      </trkpt>
      <trkpt lat="42.96272" lon="0.86154">
        <ele>1366</ele>
        <time>2018-04-02T13:14:25.000Z</time>
      </trkpt>
      <trkpt lat="42.96273" lon="0.86155">
        <ele>1366</ele>
        <time>2018-04-02T13:14:27.000Z</time>
      </trkpt>
      <trkpt lat="42.96275" lon="0.86157">
        <ele>1365</ele>
        <time>2018-04-02T13:14:29.000Z</time>
      </trkpt>
      <trkpt lat="42.96277" lon="0.86158">
        <ele>1365</ele>
        <time>2018-04-02T13:14:31.000Z</time>
      </trkpt>
      <trkpt lat="42.96278" lon="0.8616">
        <ele>1365</ele>
        <time>2018-04-02T13:14:33.000Z</time>
      </trkpt>
      <trkpt lat="42.9628" lon="0.86162">
        <ele>1365</ele>
        <time>2018-04-02T13:14:35.000Z</time>
      </trkpt>
      <trkpt lat="42.96281" lon="0.86164">
        <ele>1365</ele>
        <time>2018-04-02T13:14:37.000Z</time>
      </trkpt>
      <trkpt lat="42.96283" lon="0.86166">
        <ele>1365</ele>
        <time>2018-04-02T13:14:39.000Z</time>
      </trkpt>
      <trkpt lat="42.96284" lon="0.86168">
        <ele>1364</ele>
        <time>2018-04-02T13:14:41.000Z</time>
      </trkpt>
      <trkpt lat="42.96286" lon="0.86169">
        <ele>1364</ele>
        <time>2018-04-02T13:14:43.000Z</time>
      </trkpt>
      <trkpt lat="42.96287" lon="0.86171">
        <ele>1364</ele>
        <time>2018-04-02T13:14:45.000Z</time>
      </trkpt>
      <trkpt lat="42.96289" lon="0.86172">
        <ele>1364</ele>
        <time>2018-04-02T13:14:47.000Z</time>
      </trkpt>
      <trkpt lat="42.9629" lon="0.86174">
        <ele>1364</ele>
        <time>2018-04-02T13:14:49.000Z</time>
      </trkpt>
      <trkpt lat="42.96292" lon="0.86174">
        <ele>1364</ele>
        <time>2018-04-02T13:14:51.000Z</time>
      </trkpt>
      <trkpt lat="42.96294" lon="0.86176">
        <ele>1364</ele>
        <time>2018-04-02T13:14:53.000Z</time>
      </trkpt>
      <trkpt lat="42.96296" lon="0.86177">
        <ele>1363</ele>
        <time>2018-04-02T13:14:55.000Z</time>
      </trkpt>
      <trkpt lat="42.96297" lon="0.86179">
        <ele>1363</ele>
        <time>2018-04-02T13:14:57.000Z</time>
      </trkpt>
      <trkpt lat="42.96298" lon="0.86181">
        <ele>1363</ele>
        <time>2018-04-02T13:14:59.000Z</time>
      </trkpt>
      <trkpt lat="42.96299" lon="0.86183">
        <ele>1363</ele>
        <time>2018-04-02T13:15:01.000Z</time>
      </trkpt>
      <trkpt lat="42.963" lon="0.86185">
        <ele>1363</ele>
        <time>2018-04-02T13:15:03.000Z</time>
      </trkpt>
      <trkpt lat="42.963" lon="0.86187">
        <ele>1363</ele>
        <time>2018-04-02T13:15:05.000Z</time>
      </trkpt>
      <trkpt lat="42.96301" lon="0.86189">
        <ele>1363</ele>
        <time>2018-04-02T13:15:07.000Z</time>
      </trkpt>
      <trkpt lat="42.96301" lon="0.86189">
        <ele>1363</ele>
        <time>2018-04-02T13:15:09.000Z</time>
      </trkpt>
      <trkpt lat="42.96301" lon="0.8619">
        <ele>1363</ele>
        <time>2018-04-02T13:15:11.000Z</time>
      </trkpt>
      <trkpt lat="42.96301" lon="0.86192">
        <ele>1363</ele>
        <time>2018-04-02T13:15:13.000Z</time>
      </trkpt>
      <trkpt lat="42.96301" lon="0.86194">
        <ele>1363</ele>
        <time>2018-04-02T13:15:15.000Z</time>
      </trkpt>
      <trkpt lat="42.96302" lon="0.86196">
        <ele>1363</ele>
        <time>2018-04-02T13:15:17.000Z</time>
      </trkpt>
      <trkpt lat="42.96303" lon="0.86197">
        <ele>1363</ele>
        <time>2018-04-02T13:15:19.000Z</time>
      </trkpt>
      <trkpt lat="42.96304" lon="0.86199">
        <ele>1363</ele>
        <time>2018-04-02T13:15:21.000Z</time>
      </trkpt>
      <trkpt lat="42.96305" lon="0.86202">
        <ele>1363</ele>
        <time>2018-04-02T13:15:23.000Z</time>
      </trkpt>
      <trkpt lat="42.96306" lon="0.86204">
        <ele>1363</ele>
        <time>2018-04-02T13:15:25.000Z</time>
      </trkpt>
      <trkpt lat="42.96307" lon="0.86207">
        <ele>1362</ele>
        <time>2018-04-02T13:15:27.000Z</time>
      </trkpt>
      <trkpt lat="42.96308" lon="0.86209">
        <ele>1362</ele>
        <time>2018-04-02T13:15:29.000Z</time>
      </trkpt>
      <trkpt lat="42.9631" lon="0.86211">
        <ele>1362</ele>
        <time>2018-04-02T13:15:31.000Z</time>
      </trkpt>
      <trkpt lat="42.96311" lon="0.86214">
        <ele>1362</ele>
        <time>2018-04-02T13:15:33.000Z</time>
      </trkpt>
      <trkpt lat="42.96313" lon="0.86216">
        <ele>1362</ele>
        <time>2018-04-02T13:15:35.000Z</time>
      </trkpt>
      <trkpt lat="42.96314" lon="0.86219">
        <ele>1362</ele>
        <time>2018-04-02T13:15:37.000Z</time>
      </trkpt>
      <trkpt lat="42.96315" lon="0.86222">
        <ele>1362</ele>
        <time>2018-04-02T13:15:39.000Z</time>
      </trkpt>
      <trkpt lat="42.96316" lon="0.86225">
        <ele>1362</ele>
        <time>2018-04-02T13:15:41.000Z</time>
      </trkpt>
      <trkpt lat="42.96316" lon="0.86228">
        <ele>1362</ele>
        <time>2018-04-02T13:15:43.000Z</time>
      </trkpt>
      <trkpt lat="42.96317" lon="0.86231">
        <ele>1362</ele>
        <time>2018-04-02T13:15:45.000Z</time>
      </trkpt>
      <trkpt lat="42.96317" lon="0.86234">
        <ele>1362</ele>
        <time>2018-04-02T13:15:47.000Z</time>
      </trkpt>
      <trkpt lat="42.96318" lon="0.86237">
        <ele>1362</ele>
        <time>2018-04-02T13:15:49.000Z</time>
      </trkpt>
      <trkpt lat="42.96319" lon="0.86239">
        <ele>1362</ele>
        <time>2018-04-02T13:15:51.000Z</time>
      </trkpt>
      <trkpt lat="42.9632" lon="0.86242">
        <ele>1362</ele>
        <time>2018-04-02T13:15:53.000Z</time>
      </trkpt>
      <trkpt lat="42.96321" lon="0.86245">
        <ele>1361</ele>
        <time>2018-04-02T13:15:55.000Z</time>
      </trkpt>
      <trkpt lat="42.96321" lon="0.86247">
        <ele>1361</ele>
        <time>2018-04-02T13:15:57.000Z</time>
      </trkpt>
      <trkpt lat="42.96322" lon="0.8625">
        <ele>1361</ele>
        <time>2018-04-02T13:15:59.000Z</time>
      </trkpt>
      <trkpt lat="42.96323" lon="0.86253">
        <ele>1361</ele>
        <time>2018-04-02T13:16:01.000Z</time>
      </trkpt>
      <trkpt lat="42.96323" lon="0.86256">
        <ele>1361</ele>
        <time>2018-04-02T13:16:03.000Z</time>
      </trkpt>
      <trkpt lat="42.96324" lon="0.86259">
        <ele>1361</ele>
        <time>2018-04-02T13:16:05.000Z</time>
      </trkpt>
      <trkpt lat="42.96325" lon="0.8626">
        <ele>1361</ele>
        <time>2018-04-02T13:16:07.000Z</time>
      </trkpt>
      <trkpt lat="42.96325" lon="0.86263">
        <ele>1361</ele>
        <time>2018-04-02T13:16:09.000Z</time>
      </trkpt>
      <trkpt lat="42.96325" lon="0.86264">
        <ele>1361</ele>
        <time>2018-04-02T13:16:11.000Z</time>
      </trkpt>
      <trkpt lat="42.96325" lon="0.86265">
        <ele>1361</ele>
        <time>2018-04-02T13:16:13.000Z</time>
      </trkpt>
      <trkpt lat="42.96326" lon="0.86267">
        <ele>1361</ele>
        <time>2018-04-02T13:16:15.000Z</time>
      </trkpt>
      <trkpt lat="42.96325" lon="0.86269">
        <ele>1361</ele>
        <time>2018-04-02T13:16:17.000Z</time>
      </trkpt>
      <trkpt lat="42.96324" lon="0.8627">
        <ele>1361</ele>
        <time>2018-04-02T13:16:19.000Z</time>
      </trkpt>
      <trkpt lat="42.96323" lon="0.86272">
        <ele>1362</ele>
        <time>2018-04-02T13:16:21.000Z</time>
      </trkpt>
      <trkpt lat="42.96322" lon="0.86274">
        <ele>1362</ele>
        <time>2018-04-02T13:16:23.000Z</time>
      </trkpt>
      <trkpt lat="42.96322" lon="0.86276">
        <ele>1362</ele>
        <time>2018-04-02T13:16:25.000Z</time>
      </trkpt>
      <trkpt lat="42.96323" lon="0.86277">
        <ele>1362</ele>
        <time>2018-04-02T13:16:27.000Z</time>
      </trkpt>
      <trkpt lat="42.96324" lon="0.86278">
        <ele>1361</ele>
        <time>2018-04-02T13:16:29.000Z</time>
      </trkpt>
      <trkpt lat="42.96326" lon="0.86279">
        <ele>1361</ele>
        <time>2018-04-02T13:16:31.000Z</time>
      </trkpt>
      <trkpt lat="42.96328" lon="0.8628">
        <ele>1361</ele>
        <time>2018-04-02T13:16:33.000Z</time>
      </trkpt>
      <trkpt lat="42.96328" lon="0.86282">
        <ele>1361</ele>
        <time>2018-04-02T13:16:35.000Z</time>
      </trkpt>
      <trkpt lat="42.96329" lon="0.86284">
        <ele>1361</ele>
        <time>2018-04-02T13:16:37.000Z</time>
      </trkpt>
      <trkpt lat="42.9633" lon="0.86286">
        <ele>1361</ele>
        <time>2018-04-02T13:16:39.000Z</time>
      </trkpt>
      <trkpt lat="42.9633" lon="0.86288">
        <ele>1361</ele>
        <time>2018-04-02T13:16:41.000Z</time>
      </trkpt>
      <trkpt lat="42.96331" lon="0.8629">
        <ele>1361</ele>
        <time>2018-04-02T13:16:43.000Z</time>
      </trkpt>
      <trkpt lat="42.96331" lon="0.86292">
        <ele>1361</ele>
        <time>2018-04-02T13:16:45.000Z</time>
      </trkpt>
      <trkpt lat="42.96332" lon="0.86294">
        <ele>1361</ele>
        <time>2018-04-02T13:16:47.000Z</time>
      </trkpt>
      <trkpt lat="42.96333" lon="0.86296">
        <ele>1361</ele>
        <time>2018-04-02T13:16:49.000Z</time>
      </trkpt>
      <trkpt lat="42.96334" lon="0.86298">
        <ele>1361</ele>
        <time>2018-04-02T13:16:51.000Z</time>
      </trkpt>
      <trkpt lat="42.96336" lon="0.86301">
        <ele>1361</ele>
        <time>2018-04-02T13:16:53.000Z</time>
      </trkpt>
      <trkpt lat="42.96337" lon="0.86303">
        <ele>1360</ele>
        <time>2018-04-02T13:16:55.000Z</time>
      </trkpt>
      <trkpt lat="42.96338" lon="0.86306">
        <ele>1360</ele>
        <time>2018-04-02T13:16:57.000Z</time>
      </trkpt>
      <trkpt lat="42.96338" lon="0.86308">
        <ele>1361</ele>
        <time>2018-04-02T13:16:59.000Z</time>
      </trkpt>
      <trkpt lat="42.96339" lon="0.8631">
        <ele>1361</ele>
        <time>2018-04-02T13:17:01.000Z</time>
      </trkpt>
      <trkpt lat="42.9634" lon="0.86312">
        <ele>1361</ele>
        <time>2018-04-02T13:17:03.000Z</time>
      </trkpt>
      <trkpt lat="42.9634" lon="0.86314">
        <ele>1362</ele>
        <time>2018-04-02T13:17:05.000Z</time>
      </trkpt>
      <trkpt lat="42.96341" lon="0.86316">
        <ele>1362</ele>
        <time>2018-04-02T13:17:07.000Z</time>
      </trkpt>
      <trkpt lat="42.96341" lon="0.86318">
        <ele>1362</ele>
        <time>2018-04-02T13:17:09.000Z</time>
      </trkpt>
      <trkpt lat="42.96341" lon="0.8632">
        <ele>1362</ele>
        <time>2018-04-02T13:17:11.000Z</time>
      </trkpt>
      <trkpt lat="42.96341" lon="0.86322">
        <ele>1363</ele>
        <time>2018-04-02T13:17:13.000Z</time>
      </trkpt>
      <trkpt lat="42.9634" lon="0.86324">
        <ele>1363</ele>
        <time>2018-04-02T13:17:15.000Z</time>
      </trkpt>
      <trkpt lat="42.96339" lon="0.86324">
        <ele>1363</ele>
        <time>2018-04-02T13:17:17.000Z</time>
      </trkpt>
      <trkpt lat="42.96338" lon="0.86325">
        <ele>1364</ele>
        <time>2018-04-02T13:17:19.000Z</time>
      </trkpt>
      <trkpt lat="42.96337" lon="0.86325">
        <ele>1364</ele>
        <time>2018-04-02T13:17:21.000Z</time>
      </trkpt>
      <trkpt lat="42.96335" lon="0.86324">
        <ele>1364</ele>
        <time>2018-04-02T13:17:23.000Z</time>
      </trkpt>
      <trkpt lat="42.96334" lon="0.86323">
        <ele>1364</ele>
        <time>2018-04-02T13:17:25.000Z</time>
      </trkpt>
      <trkpt lat="42.96333" lon="0.86323">
        <ele>1364</ele>
        <time>2018-04-02T13:17:27.000Z</time>
      </trkpt>
      <trkpt lat="42.96332" lon="0.86324">
        <ele>1364</ele>
        <time>2018-04-02T13:17:29.000Z</time>
      </trkpt>
      <trkpt lat="42.96332" lon="0.86324">
        <ele>1364</ele>
        <time>2018-04-02T13:17:31.000Z</time>
      </trkpt>
      <trkpt lat="42.96331" lon="0.86324">
        <ele>1364</ele>
        <time>2018-04-02T13:17:33.000Z</time>
      </trkpt>
      <trkpt lat="42.96332" lon="0.86325">
        <ele>1364</ele>
        <time>2018-04-02T13:17:35.000Z</time>
      </trkpt>
      <trkpt lat="42.96332" lon="0.86325">
        <ele>1364</ele>
        <time>2018-04-02T13:17:37.000Z</time>
      </trkpt>
      <trkpt lat="42.96332" lon="0.86325">
        <ele>1364</ele>
        <time>2018-04-02T13:17:39.000Z</time>
      </trkpt>
      <trkpt lat="42.96333" lon="0.86325">
        <ele>1364</ele>
        <time>2018-04-02T13:17:41.000Z</time>
      </trkpt>
      <trkpt lat="42.96335" lon="0.86327">
        <ele>1364</ele>
        <time>2018-04-02T13:17:43.000Z</time>
      </trkpt>
      <trkpt lat="42.96336" lon="0.86327">
        <ele>1364</ele>
        <time>2018-04-02T13:17:45.000Z</time>
      </trkpt>
      <trkpt lat="42.96338" lon="0.86327">
        <ele>1364</ele>
        <time>2018-04-02T13:17:47.000Z</time>
      </trkpt>
      <trkpt lat="42.96339" lon="0.86327">
        <ele>1364</ele>
        <time>2018-04-02T13:17:49.000Z</time>
      </trkpt>
      <trkpt lat="42.9634" lon="0.86329">
        <ele>1364</ele>
        <time>2018-04-02T13:17:51.000Z</time>
      </trkpt>
      <trkpt lat="42.96342" lon="0.8633">
        <ele>1364</ele>
        <time>2018-04-02T13:17:53.000Z</time>
      </trkpt>
      <trkpt lat="42.96343" lon="0.86331">
        <ele>1364</ele>
        <time>2018-04-02T13:17:55.000Z</time>
      </trkpt>
      <trkpt lat="42.96344" lon="0.86332">
        <ele>1364</ele>
        <time>2018-04-02T13:17:57.000Z</time>
      </trkpt>
      <trkpt lat="42.96345" lon="0.86333">
        <ele>1364</ele>
        <time>2018-04-02T13:17:59.000Z</time>
      </trkpt>
      <trkpt lat="42.96346" lon="0.86334">
        <ele>1364</ele>
        <time>2018-04-02T13:18:01.000Z</time>
      </trkpt>
      <trkpt lat="42.96347" lon="0.86335">
        <ele>1363</ele>
        <time>2018-04-02T13:18:03.000Z</time>
      </trkpt>
      <trkpt lat="42.96348" lon="0.86336">
        <ele>1363</ele>
        <time>2018-04-02T13:18:05.000Z</time>
      </trkpt>
      <trkpt lat="42.96349" lon="0.86336">
        <ele>1363</ele>
        <time>2018-04-02T13:18:07.000Z</time>
      </trkpt>
      <trkpt lat="42.9635" lon="0.86337">
        <ele>1363</ele>
        <time>2018-04-02T13:18:09.000Z</time>
      </trkpt>
      <trkpt lat="42.9635" lon="0.86337">
        <ele>1363</ele>
        <time>2018-04-02T13:18:11.000Z</time>
      </trkpt>
      <trkpt lat="42.96351" lon="0.86338">
        <ele>1363</ele>
        <time>2018-04-02T13:18:13.000Z</time>
      </trkpt>
      <trkpt lat="42.96351" lon="0.86338">
        <ele>1363</ele>
        <time>2018-04-02T13:18:15.000Z</time>
      </trkpt>
      <trkpt lat="42.96351" lon="0.86337">
        <ele>1363</ele>
        <time>2018-04-02T13:18:17.000Z</time>
      </trkpt>
      <trkpt lat="42.96351" lon="0.86337">
        <ele>1363</ele>
        <time>2018-04-02T13:18:19.000Z</time>
      </trkpt>
      <trkpt lat="42.96349" lon="0.86336">
        <ele>1363</ele>
        <time>2018-04-02T13:18:21.000Z</time>
      </trkpt>
      <trkpt lat="42.96349" lon="0.86336">
        <ele>1363</ele>
        <time>2018-04-02T13:18:23.000Z</time>
      </trkpt>
      <trkpt lat="42.96348" lon="0.86335">
        <ele>1363</ele>
        <time>2018-04-02T13:18:25.000Z</time>
      </trkpt>
      <trkpt lat="42.96347" lon="0.86335">
        <ele>1364</ele>
        <time>2018-04-02T13:18:27.000Z</time>
      </trkpt>
      <trkpt lat="42.96346" lon="0.86334">
        <ele>1364</ele>
        <time>2018-04-02T13:18:29.000Z</time>
      </trkpt>
      <trkpt lat="42.96345" lon="0.86334">
        <ele>1364</ele>
        <time>2018-04-02T13:18:31.000Z</time>
      </trkpt>
      <trkpt lat="42.96345" lon="0.86333">
        <ele>1364</ele>
        <time>2018-04-02T13:18:33.000Z</time>
      </trkpt>
      <trkpt lat="42.96344" lon="0.86334">
        <ele>1364</ele>
        <time>2018-04-02T13:18:35.000Z</time>
      </trkpt>
      <trkpt lat="42.96345" lon="0.86334">
        <ele>1364</ele>
        <time>2018-04-02T13:18:37.000Z</time>
      </trkpt>
      <trkpt lat="42.96345" lon="0.86335">
        <ele>1364</ele>
        <time>2018-04-02T13:18:39.000Z</time>
      </trkpt>
      <trkpt lat="42.96345" lon="0.86335">
        <ele>1364</ele>
        <time>2018-04-02T13:18:41.000Z</time>
      </trkpt>
      <trkpt lat="42.96346" lon="0.86335">
        <ele>1364</ele>
        <time>2018-04-02T13:18:43.000Z</time>
      </trkpt>
      <trkpt lat="42.96346" lon="0.86335">
        <ele>1364</ele>
        <time>2018-04-02T13:18:45.000Z</time>
      </trkpt>
      <trkpt lat="42.96346" lon="0.86335">
        <ele>1364</ele>
        <time>2018-04-02T13:18:47.000Z</time>
      </trkpt>
      <trkpt lat="42.96347" lon="0.86335">
        <ele>1364</ele>
        <time>2018-04-02T13:18:49.000Z</time>
      </trkpt>
      <trkpt lat="42.96347" lon="0.86335">
        <ele>1364</ele>
        <time>2018-04-02T13:18:51.000Z</time>
      </trkpt>
      <trkpt lat="42.96347" lon="0.86335">
        <ele>1364</ele>
        <time>2018-04-02T13:18:53.000Z</time>
      </trkpt>
      <trkpt lat="42.96347" lon="0.86335">
        <ele>1364</ele>
        <time>2018-04-02T13:18:55.000Z</time>
      </trkpt>
      <trkpt lat="42.96348" lon="0.86335">
        <ele>1363</ele>
        <time>2018-04-02T13:18:57.000Z</time>
      </trkpt>
      <trkpt lat="42.96349" lon="0.86335">
        <ele>1363</ele>
        <time>2018-04-02T13:18:59.000Z</time>
      </trkpt>
      <trkpt lat="42.96349" lon="0.86335">
        <ele>1363</ele>
        <time>2018-04-02T13:19:01.000Z</time>
      </trkpt>
      <trkpt lat="42.9635" lon="0.86335">
        <ele>1363</ele>
        <time>2018-04-02T13:19:03.000Z</time>
      </trkpt>
      <trkpt lat="42.9635" lon="0.86335">
        <ele>1363</ele>
        <time>2018-04-02T13:19:05.000Z</time>
      </trkpt>
      <trkpt lat="42.9635" lon="0.86335">
        <ele>1363</ele>
        <time>2018-04-02T13:19:07.000Z</time>
      </trkpt>
      <trkpt lat="42.9635" lon="0.86335">
        <ele>1363</ele>
        <time>2018-04-02T13:19:09.000Z</time>
      </trkpt>
      <trkpt lat="42.96351" lon="0.86336">
        <ele>1363</ele>
        <time>2018-04-02T13:19:11.000Z</time>
      </trkpt>
      <trkpt lat="42.9635" lon="0.86336">
        <ele>1363</ele>
        <time>2018-04-02T13:19:13.000Z</time>
      </trkpt>
      <trkpt lat="42.96351" lon="0.86337">
        <ele>1363</ele>
        <time>2018-04-02T13:19:15.000Z</time>
      </trkpt>
      <trkpt lat="42.9635" lon="0.86337">
        <ele>1363</ele>
        <time>2018-04-02T13:19:17.000Z</time>
      </trkpt>
      <trkpt lat="42.96349" lon="0.86338">
        <ele>1363</ele>
        <time>2018-04-02T13:19:19.000Z</time>
      </trkpt>
      <trkpt lat="42.96349" lon="0.86338">
        <ele>1364</ele>
        <time>2018-04-02T13:19:21.000Z</time>
      </trkpt>
      <trkpt lat="42.96349" lon="0.86338">
        <ele>1364</ele>
        <time>2018-04-02T13:19:23.000Z</time>
      </trkpt>
      <trkpt lat="42.96348" lon="0.86338">
        <ele>1364</ele>
        <time>2018-04-02T13:19:25.000Z</time>
      </trkpt>
      <trkpt lat="42.96348" lon="0.86338">
        <ele>1364</ele>
        <time>2018-04-02T13:19:27.000Z</time>
      </trkpt>
      <trkpt lat="42.96349" lon="0.86337">
        <ele>1364</ele>
        <time>2018-04-02T13:19:29.000Z</time>
      </trkpt>
      <trkpt lat="42.96349" lon="0.86337">
        <ele>1363</ele>
        <time>2018-04-02T13:19:31.000Z</time>
      </trkpt>
      <trkpt lat="42.96349" lon="0.86336">
        <ele>1363</ele>
        <time>2018-04-02T13:19:33.000Z</time>
      </trkpt>
      <trkpt lat="42.96349" lon="0.86336">
        <ele>1363</ele>
        <time>2018-04-02T13:19:35.000Z</time>
      </trkpt>
      <trkpt lat="42.96348" lon="0.86336">
        <ele>1363</ele>
        <time>2018-04-02T13:19:37.000Z</time>
      </trkpt>
      <trkpt lat="42.96348" lon="0.86336">
        <ele>1363</ele>
        <time>2018-04-02T13:19:39.000Z</time>
      </trkpt>
      <trkpt lat="42.96348" lon="0.86336">
        <ele>1363</ele>
        <time>2018-04-02T13:19:41.000Z</time>
      </trkpt>
      <trkpt lat="42.96348" lon="0.86336">
        <ele>1363</ele>
        <time>2018-04-02T13:19:43.000Z</time>
      </trkpt>
      <trkpt lat="42.96348" lon="0.86336">
        <ele>1363</ele>
        <time>2018-04-02T13:19:45.000Z</time>
      </trkpt>
      <trkpt lat="42.96348" lon="0.86336">
        <ele>1363</ele>
        <time>2018-04-02T13:19:47.000Z</time>
      </trkpt>
      <trkpt lat="42.96348" lon="0.86336">
        <ele>1363</ele>
        <time>2018-04-02T13:19:49.000Z</time>
      </trkpt>
      <trkpt lat="42.96349" lon="0.86336">
        <ele>1363</ele>
        <time>2018-04-02T13:19:51.000Z</time>
      </trkpt>
      <trkpt lat="42.9635" lon="0.86336">
        <ele>1363</ele>
        <time>2018-04-02T13:19:53.000Z</time>
      </trkpt>
      <trkpt lat="42.9635" lon="0.86335">
        <ele>1363</ele>
        <time>2018-04-02T13:19:55.000Z</time>
      </trkpt>
      <trkpt lat="42.9635" lon="0.86335">
        <ele>1363</ele>
        <time>2018-04-02T13:19:57.000Z</time>
      </trkpt>
      <trkpt lat="42.96351" lon="0.86334">
        <ele>1363</ele>
        <time>2018-04-02T13:19:59.000Z</time>
      </trkpt>
      <trkpt lat="42.96351" lon="0.86334">
        <ele>1362</ele>
        <time>2018-04-02T13:20:01.000Z</time>
      </trkpt>
      <trkpt lat="42.96351" lon="0.86333">
        <ele>1362</ele>
        <time>2018-04-02T13:20:03.000Z</time>
      </trkpt>
      <trkpt lat="42.96351" lon="0.86333">
        <ele>1362</ele>
        <time>2018-04-02T13:20:05.000Z</time>
      </trkpt>
      <trkpt lat="42.96351" lon="0.86334">
        <ele>1362</ele>
        <time>2018-04-02T13:20:07.000Z</time>
      </trkpt>
      <trkpt lat="42.9635" lon="0.86335">
        <ele>1363</ele>
        <time>2018-04-02T13:20:09.000Z</time>
      </trkpt>
      <trkpt lat="42.96351" lon="0.86336">
        <ele>1363</ele>
        <time>2018-04-02T13:20:11.000Z</time>
      </trkpt>
      <trkpt lat="42.96351" lon="0.86336">
        <ele>1363</ele>
        <time>2018-04-02T13:20:13.000Z</time>
      </trkpt>
      <trkpt lat="42.96351" lon="0.86336">
        <ele>1363</ele>
        <time>2018-04-02T13:20:15.000Z</time>
      </trkpt>
      <trkpt lat="42.96351" lon="0.86336">
        <ele>1363</ele>
        <time>2018-04-02T13:20:17.000Z</time>
      </trkpt>
      <trkpt lat="42.96352" lon="0.86337">
        <ele>1363</ele>
        <time>2018-04-02T13:20:19.000Z</time>
      </trkpt>
      <trkpt lat="42.96353" lon="0.86337">
        <ele>1363</ele>
        <time>2018-04-02T13:20:21.000Z</time>
      </trkpt>
      <trkpt lat="42.96353" lon="0.86337">
        <ele>1363</ele>
        <time>2018-04-02T13:20:23.000Z</time>
      </trkpt>
      <trkpt lat="42.96353" lon="0.86338">
        <ele>1363</ele>
        <time>2018-04-02T13:20:25.000Z</time>
      </trkpt>
      <trkpt lat="42.96353" lon="0.86338">
        <ele>1363</ele>
        <time>2018-04-02T13:20:27.000Z</time>
      </trkpt>
      <trkpt lat="42.96352" lon="0.86338">
        <ele>1363</ele>
        <time>2018-04-02T13:20:29.000Z</time>
      </trkpt>
      <trkpt lat="42.96352" lon="0.86339">
        <ele>1363</ele>
        <time>2018-04-02T13:20:31.000Z</time>
      </trkpt>
      <trkpt lat="42.96352" lon="0.86338">
        <ele>1363</ele>
        <time>2018-04-02T13:20:33.000Z</time>
      </trkpt>
      <trkpt lat="42.96352" lon="0.86337">
        <ele>1363</ele>
        <time>2018-04-02T13:20:35.000Z</time>
      </trkpt>
      <trkpt lat="42.96352" lon="0.86337">
        <ele>1363</ele>
        <time>2018-04-02T13:20:37.000Z</time>
      </trkpt>
      <trkpt lat="42.96353" lon="0.86337">
        <ele>1362</ele>
        <time>2018-04-02T13:20:39.000Z</time>
      </trkpt>
      <trkpt lat="42.96354" lon="0.86337">
        <ele>1362</ele>
        <time>2018-04-02T13:20:41.000Z</time>
      </trkpt>
      <trkpt lat="42.96355" lon="0.86338">
        <ele>1362</ele>
        <time>2018-04-02T13:20:43.000Z</time>
      </trkpt>
      <trkpt lat="42.96356" lon="0.86339">
        <ele>1362</ele>
        <time>2018-04-02T13:20:45.000Z</time>
      </trkpt>
      <trkpt lat="42.96357" lon="0.86339">
        <ele>1362</ele>
        <time>2018-04-02T13:20:47.000Z</time>
      </trkpt>
      <trkpt lat="42.96358" lon="0.86339">
        <ele>1362</ele>
        <time>2018-04-02T13:20:49.000Z</time>
      </trkpt>
      <trkpt lat="42.96357" lon="0.86339">
        <ele>1362</ele>
        <time>2018-04-02T13:20:51.000Z</time>
      </trkpt>
      <trkpt lat="42.96356" lon="0.86338">
        <ele>1362</ele>
        <time>2018-04-02T13:20:53.000Z</time>
      </trkpt>
      <trkpt lat="42.96356" lon="0.86338">
        <ele>1362</ele>
        <time>2018-04-02T13:20:55.000Z</time>
      </trkpt>
      <trkpt lat="42.96356" lon="0.86337">
        <ele>1362</ele>
        <time>2018-04-02T13:20:57.000Z</time>
      </trkpt>
      <trkpt lat="42.96355" lon="0.86337">
        <ele>1362</ele>
        <time>2018-04-02T13:20:59.000Z</time>
      </trkpt>
      <trkpt lat="42.96355" lon="0.86337">
        <ele>1362</ele>
        <time>2018-04-02T13:21:01.000Z</time>
      </trkpt>
      <trkpt lat="42.96354" lon="0.86336">
        <ele>1362</ele>
        <time>2018-04-02T13:21:03.000Z</time>
      </trkpt>
      <trkpt lat="42.96354" lon="0.86336">
        <ele>1362</ele>
        <time>2018-04-02T13:21:05.000Z</time>
      </trkpt>
      <trkpt lat="42.96354" lon="0.86336">
        <ele>1362</ele>
        <time>2018-04-02T13:21:07.000Z</time>
      </trkpt>
      <trkpt lat="42.96353" lon="0.86337">
        <ele>1362</ele>
        <time>2018-04-02T13:21:09.000Z</time>
      </trkpt>
      <trkpt lat="42.96353" lon="0.86336">
        <ele>1362</ele>
        <time>2018-04-02T13:21:11.000Z</time>
      </trkpt>
      <trkpt lat="42.96353" lon="0.86336">
        <ele>1362</ele>
        <time>2018-04-02T13:21:13.000Z</time>
      </trkpt>
      <trkpt lat="42.96353" lon="0.86337">
        <ele>1362</ele>
        <time>2018-04-02T13:21:15.000Z</time>
      </trkpt>
      <trkpt lat="42.96353" lon="0.86338">
        <ele>1363</ele>
        <time>2018-04-02T13:21:17.000Z</time>
      </trkpt>
      <trkpt lat="42.96353" lon="0.86338">
        <ele>1363</ele>
        <time>2018-04-02T13:21:19.000Z</time>
      </trkpt>
      <trkpt lat="42.96353" lon="0.86338">
        <ele>1363</ele>
        <time>2018-04-02T13:21:21.000Z</time>
      </trkpt>
      <trkpt lat="42.96353" lon="0.86338">
        <ele>1363</ele>
        <time>2018-04-02T13:21:23.000Z</time>
      </trkpt>
      <trkpt lat="42.96355" lon="0.86339">
        <ele>1362</ele>
        <time>2018-04-02T13:21:25.000Z</time>
      </trkpt>
      <trkpt lat="42.96355" lon="0.86339">
        <ele>1362</ele>
        <time>2018-04-02T13:21:27.000Z</time>
      </trkpt>
      <trkpt lat="42.96356" lon="0.86339">
        <ele>1362</ele>
        <time>2018-04-02T13:21:29.000Z</time>
      </trkpt>
      <trkpt lat="42.96356" lon="0.86339">
        <ele>1362</ele>
        <time>2018-04-02T13:21:31.000Z</time>
      </trkpt>
      <trkpt lat="42.96356" lon="0.86339">
        <ele>1362</ele>
        <time>2018-04-02T13:21:33.000Z</time>
      </trkpt>
      <trkpt lat="42.96354" lon="0.8634">
        <ele>1363</ele>
        <time>2018-04-02T13:21:35.000Z</time>
      </trkpt>
      <trkpt lat="42.96354" lon="0.86341">
        <ele>1363</ele>
        <time>2018-04-02T13:21:37.000Z</time>
      </trkpt>
      <trkpt lat="42.96354" lon="0.86341">
        <ele>1363</ele>
        <time>2018-04-02T13:21:39.000Z</time>
      </trkpt>
      <trkpt lat="42.96354" lon="0.86341">
        <ele>1363</ele>
        <time>2018-04-02T13:21:41.000Z</time>
      </trkpt>
      <trkpt lat="42.96353" lon="0.8634">
        <ele>1363</ele>
        <time>2018-04-02T13:21:43.000Z</time>
      </trkpt>
      <trkpt lat="42.96354" lon="0.8634">
        <ele>1363</ele>
        <time>2018-04-02T13:21:45.000Z</time>
      </trkpt>
      <trkpt lat="42.96354" lon="0.86339">
        <ele>1363</ele>
        <time>2018-04-02T13:21:47.000Z</time>
      </trkpt>
      <trkpt lat="42.96353" lon="0.86339">
        <ele>1363</ele>
        <time>2018-04-02T13:21:49.000Z</time>
      </trkpt>
      <trkpt lat="42.96353" lon="0.86339">
        <ele>1363</ele>
        <time>2018-04-02T13:21:51.000Z</time>
      </trkpt>
      <trkpt lat="42.96353" lon="0.86338">
        <ele>1363</ele>
        <time>2018-04-02T13:21:53.000Z</time>
      </trkpt>
      <trkpt lat="42.96353" lon="0.86338">
        <ele>1363</ele>
        <time>2018-04-02T13:21:55.000Z</time>
      </trkpt>
      <trkpt lat="42.96353" lon="0.86338">
        <ele>1363</ele>
        <time>2018-04-02T13:21:57.000Z</time>
      </trkpt>
      <trkpt lat="42.96354" lon="0.86339">
        <ele>1363</ele>
        <time>2018-04-02T13:21:59.000Z</time>
      </trkpt>
      <trkpt lat="42.96353" lon="0.8634">
        <ele>1363</ele>
        <time>2018-04-02T13:22:01.000Z</time>
      </trkpt>
      <trkpt lat="42.96353" lon="0.86342">
        <ele>1363</ele>
        <time>2018-04-02T13:22:03.000Z</time>
      </trkpt>
      <trkpt lat="42.96353" lon="0.86343">
        <ele>1364</ele>
        <time>2018-04-02T13:22:05.000Z</time>
      </trkpt>
      <trkpt lat="42.96353" lon="0.86345">
        <ele>1364</ele>
        <time>2018-04-02T13:22:07.000Z</time>
      </trkpt>
      <trkpt lat="42.96352" lon="0.86347">
        <ele>1364</ele>
        <time>2018-04-02T13:22:09.000Z</time>
      </trkpt>
      <trkpt lat="42.96353" lon="0.86349">
        <ele>1365</ele>
        <time>2018-04-02T13:22:11.000Z</time>
      </trkpt>
      <trkpt lat="42.96353" lon="0.86352">
        <ele>1365</ele>
        <time>2018-04-02T13:22:13.000Z</time>
      </trkpt>
      <trkpt lat="42.96353" lon="0.86354">
        <ele>1365</ele>
        <time>2018-04-02T13:22:15.000Z</time>
      </trkpt>
      <trkpt lat="42.96353" lon="0.86356">
        <ele>1366</ele>
        <time>2018-04-02T13:22:17.000Z</time>
      </trkpt>
      <trkpt lat="42.96354" lon="0.86358">
        <ele>1366</ele>
        <time>2018-04-02T13:22:19.000Z</time>
      </trkpt>
      <trkpt lat="42.96355" lon="0.86361">
        <ele>1366</ele>
        <time>2018-04-02T13:22:21.000Z</time>
      </trkpt>
      <trkpt lat="42.96356" lon="0.86363">
        <ele>1366</ele>
        <time>2018-04-02T13:22:23.000Z</time>
      </trkpt>
      <trkpt lat="42.96356" lon="0.86365">
        <ele>1366</ele>
        <time>2018-04-02T13:22:25.000Z</time>
      </trkpt>
      <trkpt lat="42.96358" lon="0.86367">
        <ele>1366</ele>
        <time>2018-04-02T13:22:27.000Z</time>
      </trkpt>
      <trkpt lat="42.96359" lon="0.86369">
        <ele>1366</ele>
        <time>2018-04-02T13:22:29.000Z</time>
      </trkpt>
      <trkpt lat="42.96361" lon="0.8637">
        <ele>1366</ele>
        <time>2018-04-02T13:22:31.000Z</time>
      </trkpt>
      <trkpt lat="42.96363" lon="0.86372">
        <ele>1366</ele>
        <time>2018-04-02T13:22:33.000Z</time>
      </trkpt>
      <trkpt lat="42.96364" lon="0.86374">
        <ele>1366</ele>
        <time>2018-04-02T13:22:35.000Z</time>
      </trkpt>
      <trkpt lat="42.96365" lon="0.86376">
        <ele>1366</ele>
        <time>2018-04-02T13:22:37.000Z</time>
      </trkpt>
      <trkpt lat="42.96367" lon="0.86377">
        <ele>1366</ele>
        <time>2018-04-02T13:22:39.000Z</time>
      </trkpt>
      <trkpt lat="42.96368" lon="0.86378">
        <ele>1366</ele>
        <time>2018-04-02T13:22:41.000Z</time>
      </trkpt>
      <trkpt lat="42.96369" lon="0.8638">
        <ele>1366</ele>
        <time>2018-04-02T13:22:43.000Z</time>
      </trkpt>
      <trkpt lat="42.96372" lon="0.86382">
        <ele>1366</ele>
        <time>2018-04-02T13:22:45.000Z</time>
      </trkpt>
      <trkpt lat="42.96373" lon="0.86383">
        <ele>1366</ele>
        <time>2018-04-02T13:22:47.000Z</time>
      </trkpt>
      <trkpt lat="42.96374" lon="0.86384">
        <ele>1366</ele>
        <time>2018-04-02T13:22:49.000Z</time>
      </trkpt>
      <trkpt lat="42.96377" lon="0.86385">
        <ele>1365</ele>
        <time>2018-04-02T13:22:51.000Z</time>
      </trkpt>
      <trkpt lat="42.96379" lon="0.86387">
        <ele>1365</ele>
        <time>2018-04-02T13:22:53.000Z</time>
      </trkpt>
      <trkpt lat="42.9638" lon="0.86388">
        <ele>1365</ele>
        <time>2018-04-02T13:22:55.000Z</time>
      </trkpt>
      <trkpt lat="42.96383" lon="0.8639">
        <ele>1365</ele>
        <time>2018-04-02T13:22:57.000Z</time>
      </trkpt>
      <trkpt lat="42.96385" lon="0.86391">
        <ele>1364</ele>
        <time>2018-04-02T13:22:59.000Z</time>
      </trkpt>
      <trkpt lat="42.96387" lon="0.86393">
        <ele>1364</ele>
        <time>2018-04-02T13:23:01.000Z</time>
      </trkpt>
      <trkpt lat="42.96389" lon="0.86394">
        <ele>1363</ele>
        <time>2018-04-02T13:23:03.000Z</time>
      </trkpt>
      <trkpt lat="42.96391" lon="0.86396">
        <ele>1363</ele>
        <time>2018-04-02T13:23:05.000Z</time>
      </trkpt>
      <trkpt lat="42.96392" lon="0.86398">
        <ele>1363</ele>
        <time>2018-04-02T13:23:07.000Z</time>
      </trkpt>
      <trkpt lat="42.96394" lon="0.864">
        <ele>1363</ele>
        <time>2018-04-02T13:23:09.000Z</time>
      </trkpt>
      <trkpt lat="42.96396" lon="0.86402">
        <ele>1362</ele>
        <time>2018-04-02T13:23:11.000Z</time>
      </trkpt>
      <trkpt lat="42.96397" lon="0.86404">
        <ele>1362</ele>
        <time>2018-04-02T13:23:13.000Z</time>
      </trkpt>
      <trkpt lat="42.96398" lon="0.86406">
        <ele>1362</ele>
        <time>2018-04-02T13:23:15.000Z</time>
      </trkpt>
      <trkpt lat="42.96398" lon="0.86408">
        <ele>1362</ele>
        <time>2018-04-02T13:23:17.000Z</time>
      </trkpt>
      <trkpt lat="42.964" lon="0.86409">
        <ele>1362</ele>
        <time>2018-04-02T13:23:19.000Z</time>
      </trkpt>
      <trkpt lat="42.96401" lon="0.86411">
        <ele>1362</ele>
        <time>2018-04-02T13:23:21.000Z</time>
      </trkpt>
      <trkpt lat="42.96401" lon="0.86413">
        <ele>1362</ele>
        <time>2018-04-02T13:23:23.000Z</time>
      </trkpt>
      <trkpt lat="42.96402" lon="0.86414">
        <ele>1362</ele>
        <time>2018-04-02T13:23:25.000Z</time>
      </trkpt>
      <trkpt lat="42.96404" lon="0.86416">
        <ele>1362</ele>
        <time>2018-04-02T13:23:27.000Z</time>
      </trkpt>
      <trkpt lat="42.96406" lon="0.86418">
        <ele>1361</ele>
        <time>2018-04-02T13:23:29.000Z</time>
      </trkpt>
      <trkpt lat="42.96408" lon="0.86419">
        <ele>1361</ele>
        <time>2018-04-02T13:23:31.000Z</time>
      </trkpt>
      <trkpt lat="42.9641" lon="0.86421">
        <ele>1361</ele>
        <time>2018-04-02T13:23:33.000Z</time>
      </trkpt>
      <trkpt lat="42.96411" lon="0.86423">
        <ele>1360</ele>
        <time>2018-04-02T13:23:35.000Z</time>
      </trkpt>
      <trkpt lat="42.96413" lon="0.86425">
        <ele>1360</ele>
        <time>2018-04-02T13:23:37.000Z</time>
      </trkpt>
      <trkpt lat="42.96413" lon="0.86428">
        <ele>1360</ele>
        <time>2018-04-02T13:23:39.000Z</time>
      </trkpt>
      <trkpt lat="42.96414" lon="0.86431">
        <ele>1360</ele>
        <time>2018-04-02T13:23:41.000Z</time>
      </trkpt>
      <trkpt lat="42.96416" lon="0.86434">
        <ele>1360</ele>
        <time>2018-04-02T13:23:43.000Z</time>
      </trkpt>
      <trkpt lat="42.96417" lon="0.86436">
        <ele>1360</ele>
        <time>2018-04-02T13:23:45.000Z</time>
      </trkpt>
      <trkpt lat="42.96418" lon="0.86438">
        <ele>1360</ele>
        <time>2018-04-02T13:23:47.000Z</time>
      </trkpt>
      <trkpt lat="42.96419" lon="0.86441">
        <ele>1360</ele>
        <time>2018-04-02T13:23:49.000Z</time>
      </trkpt>
      <trkpt lat="42.9642" lon="0.86443">
        <ele>1360</ele>
        <time>2018-04-02T13:23:51.000Z</time>
      </trkpt>
      <trkpt lat="42.96421" lon="0.86446">
        <ele>1360</ele>
        <time>2018-04-02T13:23:53.000Z</time>
      </trkpt>
      <trkpt lat="42.96422" lon="0.86448">
        <ele>1360</ele>
        <time>2018-04-02T13:23:55.000Z</time>
      </trkpt>
      <trkpt lat="42.96423" lon="0.86451">
        <ele>1360</ele>
        <time>2018-04-02T13:23:57.000Z</time>
      </trkpt>
      <trkpt lat="42.96424" lon="0.86454">
        <ele>1360</ele>
        <time>2018-04-02T13:23:59.000Z</time>
      </trkpt>
      <trkpt lat="42.96426" lon="0.86457">
        <ele>1360</ele>
        <time>2018-04-02T13:24:01.000Z</time>
      </trkpt>
      <trkpt lat="42.96428" lon="0.8646">
        <ele>1360</ele>
        <time>2018-04-02T13:24:03.000Z</time>
      </trkpt>
      <trkpt lat="42.96429" lon="0.86464">
        <ele>1360</ele>
        <time>2018-04-02T13:24:05.000Z</time>
      </trkpt>
      <trkpt lat="42.96429" lon="0.86466">
        <ele>1360</ele>
        <time>2018-04-02T13:24:07.000Z</time>
      </trkpt>
      <trkpt lat="42.9643" lon="0.86469">
        <ele>1360</ele>
        <time>2018-04-02T13:24:09.000Z</time>
      </trkpt>
      <trkpt lat="42.96431" lon="0.86473">
        <ele>1360</ele>
        <time>2018-04-02T13:24:11.000Z</time>
      </trkpt>
      <trkpt lat="42.96434" lon="0.86476">
        <ele>1359</ele>
        <time>2018-04-02T13:24:13.000Z</time>
      </trkpt>
      <trkpt lat="42.96436" lon="0.86479">
        <ele>1359</ele>
        <time>2018-04-02T13:24:15.000Z</time>
      </trkpt>
      <trkpt lat="42.96437" lon="0.86482">
        <ele>1358</ele>
        <time>2018-04-02T13:24:17.000Z</time>
      </trkpt>
      <trkpt lat="42.9644" lon="0.86485">
        <ele>1357</ele>
        <time>2018-04-02T13:24:19.000Z</time>
      </trkpt>
      <trkpt lat="42.96442" lon="0.86487">
        <ele>1357</ele>
        <time>2018-04-02T13:24:21.000Z</time>
      </trkpt>
      <trkpt lat="42.96443" lon="0.86489">
        <ele>1357</ele>
        <time>2018-04-02T13:24:23.000Z</time>
      </trkpt>
      <trkpt lat="42.96445" lon="0.86492">
        <ele>1356</ele>
        <time>2018-04-02T13:24:25.000Z</time>
      </trkpt>
      <trkpt lat="42.96445" lon="0.86495">
        <ele>1356</ele>
        <time>2018-04-02T13:24:27.000Z</time>
      </trkpt>
      <trkpt lat="42.96445" lon="0.86498">
        <ele>1356</ele>
        <time>2018-04-02T13:24:29.000Z</time>
      </trkpt>
      <trkpt lat="42.96445" lon="0.86501">
        <ele>1356</ele>
        <time>2018-04-02T13:24:31.000Z</time>
      </trkpt>
      <trkpt lat="42.96445" lon="0.86503">
        <ele>1357</ele>
        <time>2018-04-02T13:24:33.000Z</time>
      </trkpt>
      <trkpt lat="42.96444" lon="0.86505">
        <ele>1357</ele>
        <time>2018-04-02T13:24:35.000Z</time>
      </trkpt>
      <trkpt lat="42.96445" lon="0.86508">
        <ele>1357</ele>
        <time>2018-04-02T13:24:37.000Z</time>
      </trkpt>
      <trkpt lat="42.96447" lon="0.86511">
        <ele>1357</ele>
        <time>2018-04-02T13:24:39.000Z</time>
      </trkpt>
      <trkpt lat="42.96449" lon="0.86514">
        <ele>1356</ele>
        <time>2018-04-02T13:24:41.000Z</time>
      </trkpt>
      <trkpt lat="42.9645" lon="0.86517">
        <ele>1356</ele>
        <time>2018-04-02T13:24:43.000Z</time>
      </trkpt>
      <trkpt lat="42.96451" lon="0.86519">
        <ele>1356</ele>
        <time>2018-04-02T13:24:45.000Z</time>
      </trkpt>
      <trkpt lat="42.96452" lon="0.86521">
        <ele>1356</ele>
        <time>2018-04-02T13:24:47.000Z</time>
      </trkpt>
      <trkpt lat="42.96452" lon="0.86524">
        <ele>1356</ele>
        <time>2018-04-02T13:24:49.000Z</time>
      </trkpt>
      <trkpt lat="42.96453" lon="0.86526">
        <ele>1355</ele>
        <time>2018-04-02T13:24:51.000Z</time>
      </trkpt>
      <trkpt lat="42.96455" lon="0.86528">
        <ele>1355</ele>
        <time>2018-04-02T13:24:53.000Z</time>
      </trkpt>
      <trkpt lat="42.96456" lon="0.8653">
        <ele>1355</ele>
        <time>2018-04-02T13:24:55.000Z</time>
      </trkpt>
      <trkpt lat="42.96456" lon="0.86533">
        <ele>1355</ele>
        <time>2018-04-02T13:24:57.000Z</time>
      </trkpt>
      <trkpt lat="42.96457" lon="0.86536">
        <ele>1355</ele>
        <time>2018-04-02T13:24:59.000Z</time>
      </trkpt>
      <trkpt lat="42.96458" lon="0.86539">
        <ele>1355</ele>
        <time>2018-04-02T13:25:01.000Z</time>
      </trkpt>
      <trkpt lat="42.9646" lon="0.86542">
        <ele>1354</ele>
        <time>2018-04-02T13:25:03.000Z</time>
      </trkpt>
      <trkpt lat="42.96462" lon="0.86544">
        <ele>1354</ele>
        <time>2018-04-02T13:25:05.000Z</time>
      </trkpt>
      <trkpt lat="42.96465" lon="0.86547">
        <ele>1353</ele>
        <time>2018-04-02T13:25:07.000Z</time>
      </trkpt>
      <trkpt lat="42.96466" lon="0.86549">
        <ele>1353</ele>
        <time>2018-04-02T13:25:09.000Z</time>
      </trkpt>
      <trkpt lat="42.96467" lon="0.86551">
        <ele>1353</ele>
        <time>2018-04-02T13:25:11.000Z</time>
      </trkpt>
      <trkpt lat="42.96468" lon="0.86554">
        <ele>1353</ele>
        <time>2018-04-02T13:25:13.000Z</time>
      </trkpt>
      <trkpt lat="42.96468" lon="0.86557">
        <ele>1353</ele>
        <time>2018-04-02T13:25:15.000Z</time>
      </trkpt>
      <trkpt lat="42.96469" lon="0.8656">
        <ele>1353</ele>
        <time>2018-04-02T13:25:17.000Z</time>
      </trkpt>
      <trkpt lat="42.9647" lon="0.86563">
        <ele>1353</ele>
        <time>2018-04-02T13:25:19.000Z</time>
      </trkpt>
      <trkpt lat="42.9647" lon="0.86566">
        <ele>1353</ele>
        <time>2018-04-02T13:25:21.000Z</time>
      </trkpt>
      <trkpt lat="42.96471" lon="0.86568">
        <ele>1353</ele>
        <time>2018-04-02T13:25:23.000Z</time>
      </trkpt>
      <trkpt lat="42.96472" lon="0.86571">
        <ele>1352</ele>
        <time>2018-04-02T13:25:25.000Z</time>
      </trkpt>
      <trkpt lat="42.96472" lon="0.86575">
        <ele>1352</ele>
        <time>2018-04-02T13:25:27.000Z</time>
      </trkpt>
      <trkpt lat="42.96473" lon="0.86579">
        <ele>1352</ele>
        <time>2018-04-02T13:25:29.000Z</time>
      </trkpt>
      <trkpt lat="42.96474" lon="0.86582">
        <ele>1352</ele>
        <time>2018-04-02T13:25:31.000Z</time>
      </trkpt>
      <trkpt lat="42.96476" lon="0.86587">
        <ele>1352</ele>
        <time>2018-04-02T13:25:33.000Z</time>
      </trkpt>
      <trkpt lat="42.96478" lon="0.8659">
        <ele>1351</ele>
        <time>2018-04-02T13:25:35.000Z</time>
      </trkpt>
      <trkpt lat="42.9648" lon="0.86592">
        <ele>1351</ele>
        <time>2018-04-02T13:25:37.000Z</time>
      </trkpt>
      <trkpt lat="42.96482" lon="0.86594">
        <ele>1350</ele>
        <time>2018-04-02T13:25:39.000Z</time>
      </trkpt>
      <trkpt lat="42.96483" lon="0.86596">
        <ele>1350</ele>
        <time>2018-04-02T13:25:41.000Z</time>
      </trkpt>
      <trkpt lat="42.96484" lon="0.86598">
        <ele>1350</ele>
        <time>2018-04-02T13:25:43.000Z</time>
      </trkpt>
      <trkpt lat="42.96486" lon="0.866">
        <ele>1349</ele>
        <time>2018-04-02T13:25:45.000Z</time>
      </trkpt>
      <trkpt lat="42.96487" lon="0.86603">
        <ele>1349</ele>
        <time>2018-04-02T13:25:47.000Z</time>
      </trkpt>
      <trkpt lat="42.9649" lon="0.86605">
        <ele>1348</ele>
        <time>2018-04-02T13:25:49.000Z</time>
      </trkpt>
      <trkpt lat="42.96491" lon="0.86608">
        <ele>1348</ele>
        <time>2018-04-02T13:25:51.000Z</time>
      </trkpt>
      <trkpt lat="42.96491" lon="0.86611">
        <ele>1348</ele>
        <time>2018-04-02T13:25:53.000Z</time>
      </trkpt>
      <trkpt lat="42.96492" lon="0.86614">
        <ele>1348</ele>
        <time>2018-04-02T13:25:55.000Z</time>
      </trkpt>
      <trkpt lat="42.96492" lon="0.86618">
        <ele>1348</ele>
        <time>2018-04-02T13:25:57.000Z</time>
      </trkpt>
      <trkpt lat="42.96492" lon="0.86621">
        <ele>1348</ele>
        <time>2018-04-02T13:25:59.000Z</time>
      </trkpt>
      <trkpt lat="42.96492" lon="0.86623">
        <ele>1348</ele>
        <time>2018-04-02T13:26:01.000Z</time>
      </trkpt>
      <trkpt lat="42.96492" lon="0.86625">
        <ele>1348</ele>
        <time>2018-04-02T13:26:03.000Z</time>
      </trkpt>
      <trkpt lat="42.96494" lon="0.86628">
        <ele>1348</ele>
        <time>2018-04-02T13:26:05.000Z</time>
      </trkpt>
      <trkpt lat="42.96494" lon="0.86631">
        <ele>1348</ele>
        <time>2018-04-02T13:26:07.000Z</time>
      </trkpt>
      <trkpt lat="42.96495" lon="0.86634">
        <ele>1348</ele>
        <time>2018-04-02T13:26:09.000Z</time>
      </trkpt>
      <trkpt lat="42.96496" lon="0.86636">
        <ele>1348</ele>
        <time>2018-04-02T13:26:11.000Z</time>
      </trkpt>
      <trkpt lat="42.96496" lon="0.86639">
        <ele>1348</ele>
        <time>2018-04-02T13:26:13.000Z</time>
      </trkpt>
      <trkpt lat="42.96496" lon="0.86642">
        <ele>1349</ele>
        <time>2018-04-02T13:26:15.000Z</time>
      </trkpt>
      <trkpt lat="42.96497" lon="0.86645">
        <ele>1349</ele>
        <time>2018-04-02T13:26:17.000Z</time>
      </trkpt>
      <trkpt lat="42.96497" lon="0.86648">
        <ele>1349</ele>
        <time>2018-04-02T13:26:19.000Z</time>
      </trkpt>
      <trkpt lat="42.96498" lon="0.86651">
        <ele>1349</ele>
        <time>2018-04-02T13:26:21.000Z</time>
      </trkpt>
      <trkpt lat="42.965" lon="0.86654">
        <ele>1348</ele>
        <time>2018-04-02T13:26:23.000Z</time>
      </trkpt>
      <trkpt lat="42.96501" lon="0.86657">
        <ele>1348</ele>
        <time>2018-04-02T13:26:25.000Z</time>
      </trkpt>
      <trkpt lat="42.96503" lon="0.86659">
        <ele>1348</ele>
        <time>2018-04-02T13:26:27.000Z</time>
      </trkpt>
      <trkpt lat="42.96505" lon="0.86662">
        <ele>1347</ele>
        <time>2018-04-02T13:26:29.000Z</time>
      </trkpt>
      <trkpt lat="42.96507" lon="0.86665">
        <ele>1347</ele>
        <time>2018-04-02T13:26:31.000Z</time>
      </trkpt>
      <trkpt lat="42.96509" lon="0.86668">
        <ele>1347</ele>
        <time>2018-04-02T13:26:33.000Z</time>
      </trkpt>
      <trkpt lat="42.96511" lon="0.8667">
        <ele>1346</ele>
        <time>2018-04-02T13:26:35.000Z</time>
      </trkpt>
      <trkpt lat="42.96513" lon="0.86671">
        <ele>1346</ele>
        <time>2018-04-02T13:26:37.000Z</time>
      </trkpt>
      <trkpt lat="42.96514" lon="0.86673">
        <ele>1346</ele>
        <time>2018-04-02T13:26:39.000Z</time>
      </trkpt>
      <trkpt lat="42.96515" lon="0.86676">
        <ele>1346</ele>
        <time>2018-04-02T13:26:41.000Z</time>
      </trkpt>
      <trkpt lat="42.96515" lon="0.86679">
        <ele>1346</ele>
        <time>2018-04-02T13:26:43.000Z</time>
      </trkpt>
      <trkpt lat="42.96517" lon="0.86681">
        <ele>1346</ele>
        <time>2018-04-02T13:26:45.000Z</time>
      </trkpt>
      <trkpt lat="42.96518" lon="0.86684">
        <ele>1346</ele>
        <time>2018-04-02T13:26:47.000Z</time>
      </trkpt>
      <trkpt lat="42.9652" lon="0.86686">
        <ele>1345</ele>
        <time>2018-04-02T13:26:49.000Z</time>
      </trkpt>
      <trkpt lat="42.96522" lon="0.86688">
        <ele>1345</ele>
        <time>2018-04-02T13:26:51.000Z</time>
      </trkpt>
      <trkpt lat="42.96525" lon="0.8669">
        <ele>1344</ele>
        <time>2018-04-02T13:26:53.000Z</time>
      </trkpt>
      <trkpt lat="42.96527" lon="0.86692">
        <ele>1344</ele>
        <time>2018-04-02T13:26:55.000Z</time>
      </trkpt>
      <trkpt lat="42.96528" lon="0.86694">
        <ele>1344</ele>
        <time>2018-04-02T13:26:57.000Z</time>
      </trkpt>
      <trkpt lat="42.9653" lon="0.86697">
        <ele>1343</ele>
        <time>2018-04-02T13:26:59.000Z</time>
      </trkpt>
      <trkpt lat="42.96533" lon="0.867">
        <ele>1343</ele>
        <time>2018-04-02T13:27:01.000Z</time>
      </trkpt>
      <trkpt lat="42.96534" lon="0.86703">
        <ele>1343</ele>
        <time>2018-04-02T13:27:03.000Z</time>
      </trkpt>
      <trkpt lat="42.96536" lon="0.86705">
        <ele>1342</ele>
        <time>2018-04-02T13:27:05.000Z</time>
      </trkpt>
      <trkpt lat="42.96538" lon="0.86708">
        <ele>1342</ele>
        <time>2018-04-02T13:27:07.000Z</time>
      </trkpt>
      <trkpt lat="42.9654" lon="0.8671">
        <ele>1342</ele>
        <time>2018-04-02T13:27:09.000Z</time>
      </trkpt>
      <trkpt lat="42.96541" lon="0.86712">
        <ele>1341</ele>
        <time>2018-04-02T13:27:11.000Z</time>
      </trkpt>
      <trkpt lat="42.96543" lon="0.86714">
        <ele>1341</ele>
        <time>2018-04-02T13:27:13.000Z</time>
      </trkpt>
      <trkpt lat="42.96544" lon="0.86716">
        <ele>1341</ele>
        <time>2018-04-02T13:27:15.000Z</time>
      </trkpt>
      <trkpt lat="42.96546" lon="0.86718">
        <ele>1341</ele>
        <time>2018-04-02T13:27:17.000Z</time>
      </trkpt>
      <trkpt lat="42.96547" lon="0.8672">
        <ele>1340</ele>
        <time>2018-04-02T13:27:19.000Z</time>
      </trkpt>
      <trkpt lat="42.96549" lon="0.86722">
        <ele>1340</ele>
        <time>2018-04-02T13:27:21.000Z</time>
      </trkpt>
      <trkpt lat="42.9655" lon="0.86723">
        <ele>1340</ele>
        <time>2018-04-02T13:27:23.000Z</time>
      </trkpt>
      <trkpt lat="42.9655" lon="0.86725">
        <ele>1340</ele>
        <time>2018-04-02T13:27:25.000Z</time>
      </trkpt>
      <trkpt lat="42.96551" lon="0.86727">
        <ele>1340</ele>
        <time>2018-04-02T13:27:27.000Z</time>
      </trkpt>
      <trkpt lat="42.96552" lon="0.86728">
        <ele>1339</ele>
        <time>2018-04-02T13:27:29.000Z</time>
      </trkpt>
      <trkpt lat="42.96552" lon="0.86729">
        <ele>1339</ele>
        <time>2018-04-02T13:27:31.000Z</time>
      </trkpt>
      <trkpt lat="42.96552" lon="0.8673">
        <ele>1339</ele>
        <time>2018-04-02T13:27:33.000Z</time>
      </trkpt>
      <trkpt lat="42.96554" lon="0.86731">
        <ele>1339</ele>
        <time>2018-04-02T13:27:35.000Z</time>
      </trkpt>
      <trkpt lat="42.96556" lon="0.86733">
        <ele>1338</ele>
        <time>2018-04-02T13:27:37.000Z</time>
      </trkpt>
      <trkpt lat="42.96558" lon="0.86734">
        <ele>1338</ele>
        <time>2018-04-02T13:27:39.000Z</time>
      </trkpt>
      <trkpt lat="42.96559" lon="0.86735">
        <ele>1337</ele>
        <time>2018-04-02T13:27:41.000Z</time>
      </trkpt>
      <trkpt lat="42.96561" lon="0.86736">
        <ele>1337</ele>
        <time>2018-04-02T13:27:43.000Z</time>
      </trkpt>
      <trkpt lat="42.96562" lon="0.86738">
        <ele>1336</ele>
        <time>2018-04-02T13:27:45.000Z</time>
      </trkpt>
      <trkpt lat="42.96563" lon="0.86741">
        <ele>1336</ele>
        <time>2018-04-02T13:27:47.000Z</time>
      </trkpt>
      <trkpt lat="42.96565" lon="0.86744">
        <ele>1335</ele>
        <time>2018-04-02T13:27:49.000Z</time>
      </trkpt>
      <trkpt lat="42.96566" lon="0.86745">
        <ele>1335</ele>
        <time>2018-04-02T13:27:51.000Z</time>
      </trkpt>
      <trkpt lat="42.96568" lon="0.86747">
        <ele>1335</ele>
        <time>2018-04-02T13:27:53.000Z</time>
      </trkpt>
      <trkpt lat="42.96568" lon="0.8675">
        <ele>1334</ele>
        <time>2018-04-02T13:27:55.000Z</time>
      </trkpt>
      <trkpt lat="42.96569" lon="0.86753">
        <ele>1334</ele>
        <time>2018-04-02T13:27:57.000Z</time>
      </trkpt>
      <trkpt lat="42.96569" lon="0.86756">
        <ele>1334</ele>
        <time>2018-04-02T13:27:59.000Z</time>
      </trkpt>
      <trkpt lat="42.9657" lon="0.86759">
        <ele>1334</ele>
        <time>2018-04-02T13:28:01.000Z</time>
      </trkpt>
      <trkpt lat="42.9657" lon="0.86762">
        <ele>1334</ele>
        <time>2018-04-02T13:28:03.000Z</time>
      </trkpt>
      <trkpt lat="42.96571" lon="0.86764">
        <ele>1334</ele>
        <time>2018-04-02T13:28:05.000Z</time>
      </trkpt>
      <trkpt lat="42.96572" lon="0.86767">
        <ele>1334</ele>
        <time>2018-04-02T13:28:07.000Z</time>
      </trkpt>
      <trkpt lat="42.96573" lon="0.86769">
        <ele>1333</ele>
        <time>2018-04-02T13:28:09.000Z</time>
      </trkpt>
      <trkpt lat="42.96574" lon="0.8677">
        <ele>1333</ele>
        <time>2018-04-02T13:28:11.000Z</time>
      </trkpt>
      <trkpt lat="42.96575" lon="0.86773">
        <ele>1333</ele>
        <time>2018-04-02T13:28:13.000Z</time>
      </trkpt>
      <trkpt lat="42.96575" lon="0.86776">
        <ele>1333</ele>
        <time>2018-04-02T13:28:15.000Z</time>
      </trkpt>
      <trkpt lat="42.96577" lon="0.86777">
        <ele>1332</ele>
        <time>2018-04-02T13:28:17.000Z</time>
      </trkpt>
      <trkpt lat="42.96579" lon="0.8678">
        <ele>1332</ele>
        <time>2018-04-02T13:28:19.000Z</time>
      </trkpt>
      <trkpt lat="42.96579" lon="0.86783">
        <ele>1331</ele>
        <time>2018-04-02T13:28:21.000Z</time>
      </trkpt>
      <trkpt lat="42.96581" lon="0.86785">
        <ele>1331</ele>
        <time>2018-04-02T13:28:23.000Z</time>
      </trkpt>
      <trkpt lat="42.96582" lon="0.86787">
        <ele>1331</ele>
        <time>2018-04-02T13:28:25.000Z</time>
      </trkpt>
      <trkpt lat="42.96583" lon="0.86789">
        <ele>1330</ele>
        <time>2018-04-02T13:28:27.000Z</time>
      </trkpt>
      <trkpt lat="42.96584" lon="0.86791">
        <ele>1330</ele>
        <time>2018-04-02T13:28:29.000Z</time>
      </trkpt>
      <trkpt lat="42.96586" lon="0.86793">
        <ele>1329</ele>
        <time>2018-04-02T13:28:31.000Z</time>
      </trkpt>
      <trkpt lat="42.96588" lon="0.86796">
        <ele>1329</ele>
        <time>2018-04-02T13:28:33.000Z</time>
      </trkpt>
      <trkpt lat="42.9659" lon="0.86798">
        <ele>1328</ele>
        <time>2018-04-02T13:28:35.000Z</time>
      </trkpt>
      <trkpt lat="42.96592" lon="0.86801">
        <ele>1328</ele>
        <time>2018-04-02T13:28:37.000Z</time>
      </trkpt>
      <trkpt lat="42.96595" lon="0.86805">
        <ele>1328</ele>
        <time>2018-04-02T13:28:39.000Z</time>
      </trkpt>
      <trkpt lat="42.96596" lon="0.86808">
        <ele>1327</ele>
        <time>2018-04-02T13:28:41.000Z</time>
      </trkpt>
      <trkpt lat="42.96599" lon="0.86812">
        <ele>1327</ele>
        <time>2018-04-02T13:28:43.000Z</time>
      </trkpt>
      <trkpt lat="42.966" lon="0.86814">
        <ele>1326</ele>
        <time>2018-04-02T13:28:45.000Z</time>
      </trkpt>
      <trkpt lat="42.96601" lon="0.86818">
        <ele>1326</ele>
        <time>2018-04-02T13:28:47.000Z</time>
      </trkpt>
      <trkpt lat="42.96602" lon="0.86821">
        <ele>1326</ele>
        <time>2018-04-02T13:28:49.000Z</time>
      </trkpt>
      <trkpt lat="42.96602" lon="0.86823">
        <ele>1325</ele>
        <time>2018-04-02T13:28:51.000Z</time>
      </trkpt>
      <trkpt lat="42.96602" lon="0.86825">
        <ele>1325</ele>
        <time>2018-04-02T13:28:53.000Z</time>
      </trkpt>
      <trkpt lat="42.96602" lon="0.86827">
        <ele>1325</ele>
        <time>2018-04-02T13:28:55.000Z</time>
      </trkpt>
      <trkpt lat="42.96602" lon="0.86829">
        <ele>1325</ele>
        <time>2018-04-02T13:28:57.000Z</time>
      </trkpt>
      <trkpt lat="42.96603" lon="0.8683">
        <ele>1325</ele>
        <time>2018-04-02T13:28:59.000Z</time>
      </trkpt>
      <trkpt lat="42.96606" lon="0.86833">
        <ele>1324</ele>
        <time>2018-04-02T13:29:01.000Z</time>
      </trkpt>
      <trkpt lat="42.96608" lon="0.86836">
        <ele>1324</ele>
        <time>2018-04-02T13:29:03.000Z</time>
      </trkpt>
      <trkpt lat="42.96609" lon="0.86839">
        <ele>1323</ele>
        <time>2018-04-02T13:29:05.000Z</time>
      </trkpt>
      <trkpt lat="42.96609" lon="0.86843">
        <ele>1323</ele>
        <time>2018-04-02T13:29:07.000Z</time>
      </trkpt>
      <trkpt lat="42.9661" lon="0.86846">
        <ele>1323</ele>
        <time>2018-04-02T13:29:09.000Z</time>
      </trkpt>
      <trkpt lat="42.9661" lon="0.86849">
        <ele>1323</ele>
        <time>2018-04-02T13:29:11.000Z</time>
      </trkpt>
      <trkpt lat="42.9661" lon="0.86851">
        <ele>1323</ele>
        <time>2018-04-02T13:29:13.000Z</time>
      </trkpt>
      <trkpt lat="42.9661" lon="0.86854">
        <ele>1323</ele>
        <time>2018-04-02T13:29:15.000Z</time>
      </trkpt>
      <trkpt lat="42.96609" lon="0.86856">
        <ele>1323</ele>
        <time>2018-04-02T13:29:17.000Z</time>
      </trkpt>
      <trkpt lat="42.96608" lon="0.86859">
        <ele>1323</ele>
        <time>2018-04-02T13:29:19.000Z</time>
      </trkpt>
      <trkpt lat="42.96608" lon="0.86862">
        <ele>1323</ele>
        <time>2018-04-02T13:29:21.000Z</time>
      </trkpt>
      <trkpt lat="42.96607" lon="0.86865">
        <ele>1323</ele>
        <time>2018-04-02T13:29:23.000Z</time>
      </trkpt>
      <trkpt lat="42.96606" lon="0.86868">
        <ele>1323</ele>
        <time>2018-04-02T13:29:25.000Z</time>
      </trkpt>
      <trkpt lat="42.96605" lon="0.86872">
        <ele>1323</ele>
        <time>2018-04-02T13:29:27.000Z</time>
      </trkpt>
      <trkpt lat="42.96604" lon="0.86875">
        <ele>1323</ele>
        <time>2018-04-02T13:29:29.000Z</time>
      </trkpt>
      <trkpt lat="42.96603" lon="0.86878">
        <ele>1323</ele>
        <time>2018-04-02T13:29:31.000Z</time>
      </trkpt>
      <trkpt lat="42.96602" lon="0.86881">
        <ele>1323</ele>
        <time>2018-04-02T13:29:33.000Z</time>
      </trkpt>
      <trkpt lat="42.96601" lon="0.86884">
        <ele>1323</ele>
        <time>2018-04-02T13:29:35.000Z</time>
      </trkpt>
      <trkpt lat="42.966" lon="0.86886">
        <ele>1323</ele>
        <time>2018-04-02T13:29:37.000Z</time>
      </trkpt>
      <trkpt lat="42.966" lon="0.8689">
        <ele>1322</ele>
        <time>2018-04-02T13:29:39.000Z</time>
      </trkpt>
      <trkpt lat="42.966" lon="0.86892">
        <ele>1322</ele>
        <time>2018-04-02T13:29:41.000Z</time>
      </trkpt>
      <trkpt lat="42.966" lon="0.86894">
        <ele>1322</ele>
        <time>2018-04-02T13:29:43.000Z</time>
      </trkpt>
      <trkpt lat="42.966" lon="0.86897">
        <ele>1322</ele>
        <time>2018-04-02T13:29:45.000Z</time>
      </trkpt>
      <trkpt lat="42.96601" lon="0.86899">
        <ele>1321</ele>
        <time>2018-04-02T13:29:47.000Z</time>
      </trkpt>
      <trkpt lat="42.96602" lon="0.86902">
        <ele>1321</ele>
        <time>2018-04-02T13:29:49.000Z</time>
      </trkpt>
      <trkpt lat="42.96603" lon="0.86904">
        <ele>1320</ele>
        <time>2018-04-02T13:29:51.000Z</time>
      </trkpt>
      <trkpt lat="42.96605" lon="0.86907">
        <ele>1320</ele>
        <time>2018-04-02T13:29:53.000Z</time>
      </trkpt>
      <trkpt lat="42.96606" lon="0.86909">
        <ele>1319</ele>
        <time>2018-04-02T13:29:55.000Z</time>
      </trkpt>
      <trkpt lat="42.96607" lon="0.86911">
        <ele>1319</ele>
        <time>2018-04-02T13:29:57.000Z</time>
      </trkpt>
      <trkpt lat="42.96608" lon="0.86914">
        <ele>1319</ele>
        <time>2018-04-02T13:29:59.000Z</time>
      </trkpt>
      <trkpt lat="42.96608" lon="0.86916">
        <ele>1318</ele>
        <time>2018-04-02T13:30:01.000Z</time>
      </trkpt>
      <trkpt lat="42.9661" lon="0.86918">
        <ele>1318</ele>
        <time>2018-04-02T13:30:03.000Z</time>
      </trkpt>
      <trkpt lat="42.9661" lon="0.86921">
        <ele>1318</ele>
        <time>2018-04-02T13:30:05.000Z</time>
      </trkpt>
      <trkpt lat="42.96611" lon="0.86923">
        <ele>1317</ele>
        <time>2018-04-02T13:30:07.000Z</time>
      </trkpt>
      <trkpt lat="42.9661" lon="0.86926">
        <ele>1317</ele>
        <time>2018-04-02T13:30:09.000Z</time>
      </trkpt>
      <trkpt lat="42.96611" lon="0.86929">
        <ele>1316</ele>
        <time>2018-04-02T13:30:11.000Z</time>
      </trkpt>
      <trkpt lat="42.96611" lon="0.86931">
        <ele>1316</ele>
        <time>2018-04-02T13:30:13.000Z</time>
      </trkpt>
      <trkpt lat="42.9661" lon="0.86934">
        <ele>1316</ele>
        <time>2018-04-02T13:30:15.000Z</time>
      </trkpt>
      <trkpt lat="42.96611" lon="0.86938">
        <ele>1315</ele>
        <time>2018-04-02T13:30:17.000Z</time>
      </trkpt>
      <trkpt lat="42.96612" lon="0.8694">
        <ele>1315</ele>
        <time>2018-04-02T13:30:19.000Z</time>
      </trkpt>
      <trkpt lat="42.96613" lon="0.86942">
        <ele>1314</ele>
        <time>2018-04-02T13:30:21.000Z</time>
      </trkpt>
      <trkpt lat="42.96614" lon="0.86945">
        <ele>1314</ele>
        <time>2018-04-02T13:30:23.000Z</time>
      </trkpt>
      <trkpt lat="42.96616" lon="0.86947">
        <ele>1314</ele>
        <time>2018-04-02T13:30:25.000Z</time>
      </trkpt>
      <trkpt lat="42.96616" lon="0.8695">
        <ele>1313</ele>
        <time>2018-04-02T13:30:27.000Z</time>
      </trkpt>
      <trkpt lat="42.96615" lon="0.86953">
        <ele>1313</ele>
        <time>2018-04-02T13:30:29.000Z</time>
      </trkpt>
      <trkpt lat="42.96615" lon="0.86956">
        <ele>1313</ele>
        <time>2018-04-02T13:30:31.000Z</time>
      </trkpt>
      <trkpt lat="42.96614" lon="0.8696">
        <ele>1312</ele>
        <time>2018-04-02T13:30:33.000Z</time>
      </trkpt>
      <trkpt lat="42.96613" lon="0.86962">
        <ele>1312</ele>
        <time>2018-04-02T13:30:35.000Z</time>
      </trkpt>
      <trkpt lat="42.96611" lon="0.86966">
        <ele>1312</ele>
        <time>2018-04-02T13:30:37.000Z</time>
      </trkpt>
      <trkpt lat="42.96609" lon="0.86969">
        <ele>1312</ele>
        <time>2018-04-02T13:30:39.000Z</time>
      </trkpt>
      <trkpt lat="42.96607" lon="0.86973">
        <ele>1312</ele>
        <time>2018-04-02T13:30:41.000Z</time>
      </trkpt>
      <trkpt lat="42.96604" lon="0.86978">
        <ele>1312</ele>
        <time>2018-04-02T13:30:43.000Z</time>
      </trkpt>
      <trkpt lat="42.96603" lon="0.86981">
        <ele>1311</ele>
        <time>2018-04-02T13:30:45.000Z</time>
      </trkpt>
      <trkpt lat="42.96601" lon="0.86984">
        <ele>1312</ele>
        <time>2018-04-02T13:30:47.000Z</time>
      </trkpt>
      <trkpt lat="42.96599" lon="0.86985">
        <ele>1312</ele>
        <time>2018-04-02T13:30:49.000Z</time>
      </trkpt>
      <trkpt lat="42.96598" lon="0.86986">
        <ele>1312</ele>
        <time>2018-04-02T13:30:51.000Z</time>
      </trkpt>
      <trkpt lat="42.96596" lon="0.86989">
        <ele>1312</ele>
        <time>2018-04-02T13:30:53.000Z</time>
      </trkpt>
      <trkpt lat="42.96594" lon="0.86991">
        <ele>1312</ele>
        <time>2018-04-02T13:30:55.000Z</time>
      </trkpt>
      <trkpt lat="42.96592" lon="0.86992">
        <ele>1312</ele>
        <time>2018-04-02T13:30:57.000Z</time>
      </trkpt>
      <trkpt lat="42.96592" lon="0.86993">
        <ele>1312</ele>
        <time>2018-04-02T13:30:59.000Z</time>
      </trkpt>
      <trkpt lat="42.96591" lon="0.86995">
        <ele>1312</ele>
        <time>2018-04-02T13:31:01.000Z</time>
      </trkpt>
      <trkpt lat="42.9659" lon="0.86996">
        <ele>1312</ele>
        <time>2018-04-02T13:31:03.000Z</time>
      </trkpt>
      <trkpt lat="42.96588" lon="0.86997">
        <ele>1312</ele>
        <time>2018-04-02T13:31:05.000Z</time>
      </trkpt>
      <trkpt lat="42.96587" lon="0.86997">
        <ele>1312</ele>
        <time>2018-04-02T13:31:07.000Z</time>
      </trkpt>
      <trkpt lat="42.96585" lon="0.86997">
        <ele>1313</ele>
        <time>2018-04-02T13:31:09.000Z</time>
      </trkpt>
      <trkpt lat="42.96583" lon="0.86997">
        <ele>1313</ele>
        <time>2018-04-02T13:31:11.000Z</time>
      </trkpt>
      <trkpt lat="42.96581" lon="0.86999">
        <ele>1314</ele>
        <time>2018-04-02T13:31:13.000Z</time>
      </trkpt>
      <trkpt lat="42.96578" lon="0.87">
        <ele>1314</ele>
        <time>2018-04-02T13:31:15.000Z</time>
      </trkpt>
      <trkpt lat="42.96576" lon="0.87001">
        <ele>1315</ele>
        <time>2018-04-02T13:31:17.000Z</time>
      </trkpt>
      <trkpt lat="42.96575" lon="0.87002">
        <ele>1315</ele>
        <time>2018-04-02T13:31:19.000Z</time>
      </trkpt>
      <trkpt lat="42.96574" lon="0.87005">
        <ele>1315</ele>
        <time>2018-04-02T13:31:21.000Z</time>
      </trkpt>
      <trkpt lat="42.96574" lon="0.87007">
        <ele>1315</ele>
        <time>2018-04-02T13:31:23.000Z</time>
      </trkpt>
      <trkpt lat="42.96573" lon="0.87008">
        <ele>1315</ele>
        <time>2018-04-02T13:31:25.000Z</time>
      </trkpt>
      <trkpt lat="42.96572" lon="0.8701">
        <ele>1315</ele>
        <time>2018-04-02T13:31:27.000Z</time>
      </trkpt>
      <trkpt lat="42.96571" lon="0.87011">
        <ele>1315</ele>
        <time>2018-04-02T13:31:29.000Z</time>
      </trkpt>
      <trkpt lat="42.9657" lon="0.87013">
        <ele>1315</ele>
        <time>2018-04-02T13:31:31.000Z</time>
      </trkpt>
      <trkpt lat="42.9657" lon="0.87015">
        <ele>1315</ele>
        <time>2018-04-02T13:31:33.000Z</time>
      </trkpt>
      <trkpt lat="42.96571" lon="0.87017">
        <ele>1314</ele>
        <time>2018-04-02T13:31:35.000Z</time>
      </trkpt>
      <trkpt lat="42.96572" lon="0.87019">
        <ele>1314</ele>
        <time>2018-04-02T13:31:37.000Z</time>
      </trkpt>
      <trkpt lat="42.96572" lon="0.87021">
        <ele>1313</ele>
        <time>2018-04-02T13:31:39.000Z</time>
      </trkpt>
      <trkpt lat="42.96572" lon="0.87024">
        <ele>1313</ele>
        <time>2018-04-02T13:31:41.000Z</time>
      </trkpt>
      <trkpt lat="42.96572" lon="0.87027">
        <ele>1313</ele>
        <time>2018-04-02T13:31:43.000Z</time>
      </trkpt>
      <trkpt lat="42.96571" lon="0.87029">
        <ele>1313</ele>
        <time>2018-04-02T13:31:45.000Z</time>
      </trkpt>
      <trkpt lat="42.96571" lon="0.87031">
        <ele>1313</ele>
        <time>2018-04-02T13:31:47.000Z</time>
      </trkpt>
      <trkpt lat="42.96571" lon="0.87033">
        <ele>1313</ele>
        <time>2018-04-02T13:31:49.000Z</time>
      </trkpt>
      <trkpt lat="42.96572" lon="0.87035">
        <ele>1312</ele>
        <time>2018-04-02T13:31:51.000Z</time>
      </trkpt>
      <trkpt lat="42.96572" lon="0.87037">
        <ele>1312</ele>
        <time>2018-04-02T13:31:53.000Z</time>
      </trkpt>
      <trkpt lat="42.96571" lon="0.87039">
        <ele>1312</ele>
        <time>2018-04-02T13:31:55.000Z</time>
      </trkpt>
      <trkpt lat="42.96571" lon="0.87042">
        <ele>1311</ele>
        <time>2018-04-02T13:31:57.000Z</time>
      </trkpt>
      <trkpt lat="42.96571" lon="0.87044">
        <ele>1311</ele>
        <time>2018-04-02T13:31:59.000Z</time>
      </trkpt>
      <trkpt lat="42.96572" lon="0.87046">
        <ele>1311</ele>
        <time>2018-04-02T13:32:01.000Z</time>
      </trkpt>
      <trkpt lat="42.96572" lon="0.87048">
        <ele>1310</ele>
        <time>2018-04-02T13:32:03.000Z</time>
      </trkpt>
      <trkpt lat="42.96573" lon="0.87049">
        <ele>1310</ele>
        <time>2018-04-02T13:32:05.000Z</time>
      </trkpt>
      <trkpt lat="42.96573" lon="0.87051">
        <ele>1309</ele>
        <time>2018-04-02T13:32:07.000Z</time>
      </trkpt>
      <trkpt lat="42.96574" lon="0.87054">
        <ele>1309</ele>
        <time>2018-04-02T13:32:09.000Z</time>
      </trkpt>
      <trkpt lat="42.96576" lon="0.87056">
        <ele>1308</ele>
        <time>2018-04-02T13:32:11.000Z</time>
      </trkpt>
      <trkpt lat="42.96577" lon="0.87058">
        <ele>1308</ele>
        <time>2018-04-02T13:32:13.000Z</time>
      </trkpt>
      <trkpt lat="42.96579" lon="0.87059">
        <ele>1307</ele>
        <time>2018-04-02T13:32:15.000Z</time>
      </trkpt>
      <trkpt lat="42.9658" lon="0.87062">
        <ele>1307</ele>
        <time>2018-04-02T13:32:17.000Z</time>
      </trkpt>
      <trkpt lat="42.96579" lon="0.87064">
        <ele>1306</ele>
        <time>2018-04-02T13:32:19.000Z</time>
      </trkpt>
      <trkpt lat="42.96579" lon="0.87067">
        <ele>1306</ele>
        <time>2018-04-02T13:32:21.000Z</time>
      </trkpt>
      <trkpt lat="42.96579" lon="0.87069">
        <ele>1306</ele>
        <time>2018-04-02T13:32:23.000Z</time>
      </trkpt>
      <trkpt lat="42.96579" lon="0.87073">
        <ele>1305</ele>
        <time>2018-04-02T13:32:25.000Z</time>
      </trkpt>
      <trkpt lat="42.96579" lon="0.87076">
        <ele>1305</ele>
        <time>2018-04-02T13:32:27.000Z</time>
      </trkpt>
      <trkpt lat="42.9658" lon="0.87078">
        <ele>1304</ele>
        <time>2018-04-02T13:32:29.000Z</time>
      </trkpt>
      <trkpt lat="42.9658" lon="0.87081">
        <ele>1304</ele>
        <time>2018-04-02T13:32:31.000Z</time>
      </trkpt>
      <trkpt lat="42.96582" lon="0.87084">
        <ele>1303</ele>
        <time>2018-04-02T13:32:33.000Z</time>
      </trkpt>
      <trkpt lat="42.96583" lon="0.87086">
        <ele>1303</ele>
        <time>2018-04-02T13:32:35.000Z</time>
      </trkpt>
      <trkpt lat="42.96585" lon="0.87089">
        <ele>1302</ele>
        <time>2018-04-02T13:32:37.000Z</time>
      </trkpt>
      <trkpt lat="42.96586" lon="0.87091">
        <ele>1302</ele>
        <time>2018-04-02T13:32:39.000Z</time>
      </trkpt>
      <trkpt lat="42.96585" lon="0.87094">
        <ele>1301</ele>
        <time>2018-04-02T13:32:41.000Z</time>
      </trkpt>
      <trkpt lat="42.96586" lon="0.87097">
        <ele>1301</ele>
        <time>2018-04-02T13:32:43.000Z</time>
      </trkpt>
      <trkpt lat="42.96586" lon="0.871">
        <ele>1300</ele>
        <time>2018-04-02T13:32:45.000Z</time>
      </trkpt>
      <trkpt lat="42.96586" lon="0.87104">
        <ele>1300</ele>
        <time>2018-04-02T13:32:47.000Z</time>
      </trkpt>
      <trkpt lat="42.96586" lon="0.87107">
        <ele>1299</ele>
        <time>2018-04-02T13:32:49.000Z</time>
      </trkpt>
      <trkpt lat="42.96588" lon="0.87109">
        <ele>1299</ele>
        <time>2018-04-02T13:32:51.000Z</time>
      </trkpt>
      <trkpt lat="42.96588" lon="0.87113">
        <ele>1298</ele>
        <time>2018-04-02T13:32:53.000Z</time>
      </trkpt>
      <trkpt lat="42.96589" lon="0.87116">
        <ele>1298</ele>
        <time>2018-04-02T13:32:55.000Z</time>
      </trkpt>
      <trkpt lat="42.96588" lon="0.87119">
        <ele>1297</ele>
        <time>2018-04-02T13:32:57.000Z</time>
      </trkpt>
      <trkpt lat="42.96589" lon="0.87122">
        <ele>1297</ele>
        <time>2018-04-02T13:32:59.000Z</time>
      </trkpt>
      <trkpt lat="42.96589" lon="0.87125">
        <ele>1296</ele>
        <time>2018-04-02T13:33:01.000Z</time>
      </trkpt>
      <trkpt lat="42.9659" lon="0.87128">
        <ele>1296</ele>
        <time>2018-04-02T13:33:03.000Z</time>
      </trkpt>
      <trkpt lat="42.96591" lon="0.8713">
        <ele>1295</ele>
        <time>2018-04-02T13:33:05.000Z</time>
      </trkpt>
      <trkpt lat="42.96591" lon="0.87132">
        <ele>1295</ele>
        <time>2018-04-02T13:33:07.000Z</time>
      </trkpt>
      <trkpt lat="42.96591" lon="0.87133">
        <ele>1295</ele>
        <time>2018-04-02T13:33:09.000Z</time>
      </trkpt>
      <trkpt lat="42.9659" lon="0.87135">
        <ele>1295</ele>
        <time>2018-04-02T13:33:11.000Z</time>
      </trkpt>
      <trkpt lat="42.9659" lon="0.87136">
        <ele>1295</ele>
        <time>2018-04-02T13:33:13.000Z</time>
      </trkpt>
      <trkpt lat="42.96589" lon="0.87139">
        <ele>1295</ele>
        <time>2018-04-02T13:33:15.000Z</time>
      </trkpt>
      <trkpt lat="42.96589" lon="0.87141">
        <ele>1294</ele>
        <time>2018-04-02T13:33:17.000Z</time>
      </trkpt>
      <trkpt lat="42.96589" lon="0.87143">
        <ele>1294</ele>
        <time>2018-04-02T13:33:19.000Z</time>
      </trkpt>
      <trkpt lat="42.96589" lon="0.87146">
        <ele>1294</ele>
        <time>2018-04-02T13:33:21.000Z</time>
      </trkpt>
      <trkpt lat="42.96589" lon="0.87149">
        <ele>1294</ele>
        <time>2018-04-02T13:33:23.000Z</time>
      </trkpt>
      <trkpt lat="42.96589" lon="0.87151">
        <ele>1294</ele>
        <time>2018-04-02T13:33:25.000Z</time>
      </trkpt>
      <trkpt lat="42.96589" lon="0.87153">
        <ele>1294</ele>
        <time>2018-04-02T13:33:27.000Z</time>
      </trkpt>
      <trkpt lat="42.9659" lon="0.87156">
        <ele>1293</ele>
        <time>2018-04-02T13:33:29.000Z</time>
      </trkpt>
      <trkpt lat="42.96589" lon="0.87159">
        <ele>1293</ele>
        <time>2018-04-02T13:33:31.000Z</time>
      </trkpt>
      <trkpt lat="42.96589" lon="0.8716">
        <ele>1293</ele>
        <time>2018-04-02T13:33:33.000Z</time>
      </trkpt>
      <trkpt lat="42.9659" lon="0.87162">
        <ele>1293</ele>
        <time>2018-04-02T13:33:35.000Z</time>
      </trkpt>
      <trkpt lat="42.96591" lon="0.87164">
        <ele>1292</ele>
        <time>2018-04-02T13:33:37.000Z</time>
      </trkpt>
      <trkpt lat="42.96591" lon="0.87165">
        <ele>1292</ele>
        <time>2018-04-02T13:33:39.000Z</time>
      </trkpt>
      <trkpt lat="42.96592" lon="0.87167">
        <ele>1292</ele>
        <time>2018-04-02T13:33:41.000Z</time>
      </trkpt>
      <trkpt lat="42.96593" lon="0.87169">
        <ele>1291</ele>
        <time>2018-04-02T13:33:43.000Z</time>
      </trkpt>
      <trkpt lat="42.96593" lon="0.87172">
        <ele>1291</ele>
        <time>2018-04-02T13:33:45.000Z</time>
      </trkpt>
      <trkpt lat="42.96594" lon="0.87173">
        <ele>1291</ele>
        <time>2018-04-02T13:33:47.000Z</time>
      </trkpt>
      <trkpt lat="42.96595" lon="0.87175">
        <ele>1291</ele>
        <time>2018-04-02T13:33:49.000Z</time>
      </trkpt>
      <trkpt lat="42.96596" lon="0.87175">
        <ele>1290</ele>
        <time>2018-04-02T13:33:51.000Z</time>
      </trkpt>
      <trkpt lat="42.96597" lon="0.87178">
        <ele>1290</ele>
        <time>2018-04-02T13:33:53.000Z</time>
      </trkpt>
      <trkpt lat="42.96599" lon="0.8718">
        <ele>1289</ele>
        <time>2018-04-02T13:33:55.000Z</time>
      </trkpt>
      <trkpt lat="42.966" lon="0.87183">
        <ele>1289</ele>
        <time>2018-04-02T13:33:57.000Z</time>
      </trkpt>
      <trkpt lat="42.96601" lon="0.87185">
        <ele>1288</ele>
        <time>2018-04-02T13:33:59.000Z</time>
      </trkpt>
      <trkpt lat="42.96603" lon="0.87187">
        <ele>1287</ele>
        <time>2018-04-02T13:34:01.000Z</time>
      </trkpt>
      <trkpt lat="42.96604" lon="0.87189">
        <ele>1287</ele>
        <time>2018-04-02T13:34:03.000Z</time>
      </trkpt>
      <trkpt lat="42.96605" lon="0.87193">
        <ele>1286</ele>
        <time>2018-04-02T13:34:05.000Z</time>
      </trkpt>
      <trkpt lat="42.96607" lon="0.87195">
        <ele>1286</ele>
        <time>2018-04-02T13:34:07.000Z</time>
      </trkpt>
      <trkpt lat="42.96608" lon="0.87197">
        <ele>1285</ele>
        <time>2018-04-02T13:34:09.000Z</time>
      </trkpt>
      <trkpt lat="42.96608" lon="0.87199">
        <ele>1285</ele>
        <time>2018-04-02T13:34:11.000Z</time>
      </trkpt>
      <trkpt lat="42.96609" lon="0.87201">
        <ele>1285</ele>
        <time>2018-04-02T13:34:13.000Z</time>
      </trkpt>
      <trkpt lat="42.96608" lon="0.87204">
        <ele>1285</ele>
        <time>2018-04-02T13:34:15.000Z</time>
      </trkpt>
      <trkpt lat="42.96606" lon="0.87206">
        <ele>1285</ele>
        <time>2018-04-02T13:34:17.000Z</time>
      </trkpt>
      <trkpt lat="42.96605" lon="0.87208">
        <ele>1285</ele>
        <time>2018-04-02T13:34:19.000Z</time>
      </trkpt>
      <trkpt lat="42.96604" lon="0.87211">
        <ele>1285</ele>
        <time>2018-04-02T13:34:21.000Z</time>
      </trkpt>
      <trkpt lat="42.96604" lon="0.87214">
        <ele>1285</ele>
        <time>2018-04-02T13:34:23.000Z</time>
      </trkpt>
      <trkpt lat="42.96605" lon="0.87217">
        <ele>1285</ele>
        <time>2018-04-02T13:34:25.000Z</time>
      </trkpt>
      <trkpt lat="42.96605" lon="0.87221">
        <ele>1284</ele>
        <time>2018-04-02T13:34:27.000Z</time>
      </trkpt>
      <trkpt lat="42.96606" lon="0.87224">
        <ele>1284</ele>
        <time>2018-04-02T13:34:29.000Z</time>
      </trkpt>
      <trkpt lat="42.96608" lon="0.87228">
        <ele>1283</ele>
        <time>2018-04-02T13:34:31.000Z</time>
      </trkpt>
      <trkpt lat="42.96609" lon="0.87231">
        <ele>1282</ele>
        <time>2018-04-02T13:34:33.000Z</time>
      </trkpt>
      <trkpt lat="42.96609" lon="0.87233">
        <ele>1282</ele>
        <time>2018-04-02T13:34:35.000Z</time>
      </trkpt>
      <trkpt lat="42.9661" lon="0.87236">
        <ele>1281</ele>
        <time>2018-04-02T13:34:37.000Z</time>
      </trkpt>
      <trkpt lat="42.96611" lon="0.87238">
        <ele>1281</ele>
        <time>2018-04-02T13:34:39.000Z</time>
      </trkpt>
      <trkpt lat="42.96612" lon="0.8724">
        <ele>1281</ele>
        <time>2018-04-02T13:34:41.000Z</time>
      </trkpt>
      <trkpt lat="42.96612" lon="0.87241">
        <ele>1280</ele>
        <time>2018-04-02T13:34:43.000Z</time>
      </trkpt>
      <trkpt lat="42.96613" lon="0.87243">
        <ele>1280</ele>
        <time>2018-04-02T13:34:45.000Z</time>
      </trkpt>
      <trkpt lat="42.96613" lon="0.87245">
        <ele>1279</ele>
        <time>2018-04-02T13:34:47.000Z</time>
      </trkpt>
      <trkpt lat="42.96615" lon="0.87247">
        <ele>1279</ele>
        <time>2018-04-02T13:34:49.000Z</time>
      </trkpt>
      <trkpt lat="42.96614" lon="0.87249">
        <ele>1279</ele>
        <time>2018-04-02T13:34:51.000Z</time>
      </trkpt>
      <trkpt lat="42.96612" lon="0.87252">
        <ele>1279</ele>
        <time>2018-04-02T13:34:53.000Z</time>
      </trkpt>
      <trkpt lat="42.96611" lon="0.87254">
        <ele>1280</ele>
        <time>2018-04-02T13:34:55.000Z</time>
      </trkpt>
      <trkpt lat="42.9661" lon="0.87257">
        <ele>1280</ele>
        <time>2018-04-02T13:34:57.000Z</time>
      </trkpt>
      <trkpt lat="42.96611" lon="0.87259">
        <ele>1279</ele>
        <time>2018-04-02T13:34:59.000Z</time>
      </trkpt>
      <trkpt lat="42.96611" lon="0.87261">
        <ele>1279</ele>
        <time>2018-04-02T13:35:01.000Z</time>
      </trkpt>
      <trkpt lat="42.96612" lon="0.87264">
        <ele>1279</ele>
        <time>2018-04-02T13:35:03.000Z</time>
      </trkpt>
      <trkpt lat="42.96612" lon="0.87266">
        <ele>1279</ele>
        <time>2018-04-02T13:35:05.000Z</time>
      </trkpt>
      <trkpt lat="42.96611" lon="0.87268">
        <ele>1279</ele>
        <time>2018-04-02T13:35:07.000Z</time>
      </trkpt>
      <trkpt lat="42.96611" lon="0.8727">
        <ele>1279</ele>
        <time>2018-04-02T13:35:09.000Z</time>
      </trkpt>
      <trkpt lat="42.96611" lon="0.87272">
        <ele>1278</ele>
        <time>2018-04-02T13:35:11.000Z</time>
      </trkpt>
      <trkpt lat="42.96611" lon="0.87275">
        <ele>1278</ele>
        <time>2018-04-02T13:35:13.000Z</time>
      </trkpt>
      <trkpt lat="42.96614" lon="0.87278">
        <ele>1277</ele>
        <time>2018-04-02T13:35:15.000Z</time>
      </trkpt>
      <trkpt lat="42.96614" lon="0.8728">
        <ele>1277</ele>
        <time>2018-04-02T13:35:17.000Z</time>
      </trkpt>
      <trkpt lat="42.96613" lon="0.87283">
        <ele>1277</ele>
        <time>2018-04-02T13:35:19.000Z</time>
      </trkpt>
      <trkpt lat="42.96612" lon="0.87285">
        <ele>1278</ele>
        <time>2018-04-02T13:35:21.000Z</time>
      </trkpt>
      <trkpt lat="42.9661" lon="0.87289">
        <ele>1278</ele>
        <time>2018-04-02T13:35:23.000Z</time>
      </trkpt>
      <trkpt lat="42.9661" lon="0.87291">
        <ele>1278</ele>
        <time>2018-04-02T13:35:25.000Z</time>
      </trkpt>
      <trkpt lat="42.96609" lon="0.87294">
        <ele>1278</ele>
        <time>2018-04-02T13:35:27.000Z</time>
      </trkpt>
      <trkpt lat="42.96609" lon="0.87296">
        <ele>1278</ele>
        <time>2018-04-02T13:35:29.000Z</time>
      </trkpt>
      <trkpt lat="42.96609" lon="0.873">
        <ele>1278</ele>
        <time>2018-04-02T13:35:31.000Z</time>
      </trkpt>
      <trkpt lat="42.96609" lon="0.87302">
        <ele>1278</ele>
        <time>2018-04-02T13:35:33.000Z</time>
      </trkpt>
      <trkpt lat="42.96608" lon="0.87306">
        <ele>1278</ele>
        <time>2018-04-02T13:35:35.000Z</time>
      </trkpt>
      <trkpt lat="42.96609" lon="0.87309">
        <ele>1277</ele>
        <time>2018-04-02T13:35:37.000Z</time>
      </trkpt>
      <trkpt lat="42.96609" lon="0.87311">
        <ele>1277</ele>
        <time>2018-04-02T13:35:39.000Z</time>
      </trkpt>
      <trkpt lat="42.9661" lon="0.87313">
        <ele>1276</ele>
        <time>2018-04-02T13:35:41.000Z</time>
      </trkpt>
      <trkpt lat="42.96609" lon="0.87316">
        <ele>1276</ele>
        <time>2018-04-02T13:35:43.000Z</time>
      </trkpt>
      <trkpt lat="42.9661" lon="0.87319">
        <ele>1276</ele>
        <time>2018-04-02T13:35:45.000Z</time>
      </trkpt>
      <trkpt lat="42.96608" lon="0.87322">
        <ele>1276</ele>
        <time>2018-04-02T13:35:47.000Z</time>
      </trkpt>
      <trkpt lat="42.96608" lon="0.87326">
        <ele>1276</ele>
        <time>2018-04-02T13:35:49.000Z</time>
      </trkpt>
      <trkpt lat="42.96607" lon="0.87328">
        <ele>1276</ele>
        <time>2018-04-02T13:35:51.000Z</time>
      </trkpt>
      <trkpt lat="42.96607" lon="0.8733">
        <ele>1276</ele>
        <time>2018-04-02T13:35:53.000Z</time>
      </trkpt>
      <trkpt lat="42.96608" lon="0.87332">
        <ele>1276</ele>
        <time>2018-04-02T13:35:55.000Z</time>
      </trkpt>
      <trkpt lat="42.96608" lon="0.87335">
        <ele>1275</ele>
        <time>2018-04-02T13:35:57.000Z</time>
      </trkpt>
      <trkpt lat="42.96608" lon="0.87338">
        <ele>1275</ele>
        <time>2018-04-02T13:35:59.000Z</time>
      </trkpt>
      <trkpt lat="42.96607" lon="0.8734">
        <ele>1275</ele>
        <time>2018-04-02T13:36:01.000Z</time>
      </trkpt>
      <trkpt lat="42.96607" lon="0.8734">
        <ele>1275</ele>
        <time>2018-04-02T13:36:03.000Z</time>
      </trkpt>
      <trkpt lat="42.96607" lon="0.8734">
        <ele>1275</ele>
        <time>2018-04-02T13:36:05.000Z</time>
      </trkpt>
      <trkpt lat="42.96607" lon="0.8734">
        <ele>1275</ele>
        <time>2018-04-02T13:36:07.000Z</time>
      </trkpt>
      <trkpt lat="42.96608" lon="0.8734">
        <ele>1275</ele>
        <time>2018-04-02T13:36:09.000Z</time>
      </trkpt>
      <trkpt lat="42.96608" lon="0.87341">
        <ele>1275</ele>
        <time>2018-04-02T13:36:11.000Z</time>
      </trkpt>
      <trkpt lat="42.96606" lon="0.87344">
        <ele>1275</ele>
        <time>2018-04-02T13:36:13.000Z</time>
      </trkpt>
      <trkpt lat="42.96605" lon="0.87347">
        <ele>1275</ele>
        <time>2018-04-02T13:36:15.000Z</time>
      </trkpt>
      <trkpt lat="42.96605" lon="0.8735">
        <ele>1275</ele>
        <time>2018-04-02T13:36:17.000Z</time>
      </trkpt>
      <trkpt lat="42.96606" lon="0.87352">
        <ele>1275</ele>
        <time>2018-04-02T13:36:19.000Z</time>
      </trkpt>
      <trkpt lat="42.96607" lon="0.87353">
        <ele>1274</ele>
        <time>2018-04-02T13:36:21.000Z</time>
      </trkpt>
      <trkpt lat="42.96606" lon="0.87355">
        <ele>1274</ele>
        <time>2018-04-02T13:36:23.000Z</time>
      </trkpt>
      <trkpt lat="42.96605" lon="0.87355">
        <ele>1275</ele>
        <time>2018-04-02T13:36:25.000Z</time>
      </trkpt>
      <trkpt lat="42.96603" lon="0.87356">
        <ele>1275</ele>
        <time>2018-04-02T13:36:27.000Z</time>
      </trkpt>
      <trkpt lat="42.966" lon="0.87358">
        <ele>1276</ele>
        <time>2018-04-02T13:36:29.000Z</time>
      </trkpt>
      <trkpt lat="42.96598" lon="0.87358">
        <ele>1277</ele>
        <time>2018-04-02T13:36:31.000Z</time>
      </trkpt>
      <trkpt lat="42.96598" lon="0.8736">
        <ele>1277</ele>
        <time>2018-04-02T13:36:33.000Z</time>
      </trkpt>
      <trkpt lat="42.96598" lon="0.8736">
        <ele>1276</ele>
        <time>2018-04-02T13:36:35.000Z</time>
      </trkpt>
      <trkpt lat="42.96599" lon="0.87361">
        <ele>1276</ele>
        <time>2018-04-02T13:36:37.000Z</time>
      </trkpt>
      <trkpt lat="42.96599" lon="0.87361">
        <ele>1276</ele>
        <time>2018-04-02T13:36:39.000Z</time>
      </trkpt>
      <trkpt lat="42.96599" lon="0.87361">
        <ele>1276</ele>
        <time>2018-04-02T13:36:41.000Z</time>
      </trkpt>
      <trkpt lat="42.96598" lon="0.8736">
        <ele>1276</ele>
        <time>2018-04-02T13:36:43.000Z</time>
      </trkpt>
      <trkpt lat="42.96598" lon="0.87361">
        <ele>1276</ele>
        <time>2018-04-02T13:36:45.000Z</time>
      </trkpt>
      <trkpt lat="42.96599" lon="0.87362">
        <ele>1276</ele>
        <time>2018-04-02T13:36:47.000Z</time>
      </trkpt>
      <trkpt lat="42.96599" lon="0.87362">
        <ele>1276</ele>
        <time>2018-04-02T13:36:49.000Z</time>
      </trkpt>
      <trkpt lat="42.966" lon="0.87362">
        <ele>1276</ele>
        <time>2018-04-02T13:36:51.000Z</time>
      </trkpt>
      <trkpt lat="42.96601" lon="0.87362">
        <ele>1275</ele>
        <time>2018-04-02T13:36:53.000Z</time>
      </trkpt>
      <trkpt lat="42.96601" lon="0.87362">
        <ele>1275</ele>
        <time>2018-04-02T13:36:55.000Z</time>
      </trkpt>
      <trkpt lat="42.96602" lon="0.87361">
        <ele>1275</ele>
        <time>2018-04-02T13:36:57.000Z</time>
      </trkpt>
      <trkpt lat="42.96602" lon="0.87361">
        <ele>1275</ele>
        <time>2018-04-02T13:36:59.000Z</time>
      </trkpt>
      <trkpt lat="42.96602" lon="0.8736">
        <ele>1275</ele>
        <time>2018-04-02T13:37:01.000Z</time>
      </trkpt>
      <trkpt lat="42.96603" lon="0.8736">
        <ele>1275</ele>
        <time>2018-04-02T13:37:03.000Z</time>
      </trkpt>
      <trkpt lat="42.96601" lon="0.87361">
        <ele>1275</ele>
        <time>2018-04-02T13:37:05.000Z</time>
      </trkpt>
      <trkpt lat="42.966" lon="0.87361">
        <ele>1276</ele>
        <time>2018-04-02T13:37:07.000Z</time>
      </trkpt>
      <trkpt lat="42.96599" lon="0.8736">
        <ele>1276</ele>
        <time>2018-04-02T13:37:09.000Z</time>
      </trkpt>
      <trkpt lat="42.96599" lon="0.87361">
        <ele>1276</ele>
        <time>2018-04-02T13:37:11.000Z</time>
      </trkpt>
      <trkpt lat="42.96599" lon="0.87361">
        <ele>1276</ele>
        <time>2018-04-02T13:37:13.000Z</time>
      </trkpt>
      <trkpt lat="42.966" lon="0.87362">
        <ele>1275</ele>
        <time>2018-04-02T13:37:15.000Z</time>
      </trkpt>
      <trkpt lat="42.96602" lon="0.87362">
        <ele>1275</ele>
        <time>2018-04-02T13:37:17.000Z</time>
      </trkpt>
      <trkpt lat="42.96604" lon="0.87362">
        <ele>1274</ele>
        <time>2018-04-02T13:37:19.000Z</time>
      </trkpt>
      <trkpt lat="42.96604" lon="0.87363">
        <ele>1274</ele>
        <time>2018-04-02T13:37:21.000Z</time>
      </trkpt>
      <trkpt lat="42.96607" lon="0.87364">
        <ele>1273</ele>
        <time>2018-04-02T13:37:23.000Z</time>
      </trkpt>
      <trkpt lat="42.96608" lon="0.87365">
        <ele>1273</ele>
        <time>2018-04-02T13:37:25.000Z</time>
      </trkpt>
      <trkpt lat="42.96608" lon="0.87365">
        <ele>1273</ele>
        <time>2018-04-02T13:37:27.000Z</time>
      </trkpt>
      <trkpt lat="42.96609" lon="0.87365">
        <ele>1273</ele>
        <time>2018-04-02T13:37:29.000Z</time>
      </trkpt>
      <trkpt lat="42.96607" lon="0.87363">
        <ele>1273</ele>
        <time>2018-04-02T13:37:31.000Z</time>
      </trkpt>
      <trkpt lat="42.96607" lon="0.87363">
        <ele>1273</ele>
        <time>2018-04-02T13:37:33.000Z</time>
      </trkpt>
      <trkpt lat="42.96608" lon="0.87364">
        <ele>1273</ele>
        <time>2018-04-02T13:37:35.000Z</time>
      </trkpt>
      <trkpt lat="42.96608" lon="0.87363">
        <ele>1273</ele>
        <time>2018-04-02T13:37:37.000Z</time>
      </trkpt>
      <trkpt lat="42.96607" lon="0.87363">
        <ele>1273</ele>
        <time>2018-04-02T13:37:39.000Z</time>
      </trkpt>
      <trkpt lat="42.96607" lon="0.87362">
        <ele>1273</ele>
        <time>2018-04-02T13:37:41.000Z</time>
      </trkpt>
      <trkpt lat="42.96608" lon="0.87361">
        <ele>1273</ele>
        <time>2018-04-02T13:37:43.000Z</time>
      </trkpt>
      <trkpt lat="42.96608" lon="0.87362">
        <ele>1273</ele>
        <time>2018-04-02T13:37:45.000Z</time>
      </trkpt>
      <trkpt lat="42.96608" lon="0.87362">
        <ele>1273</ele>
        <time>2018-04-02T13:37:47.000Z</time>
      </trkpt>
      <trkpt lat="42.96608" lon="0.87362">
        <ele>1273</ele>
        <time>2018-04-02T13:37:49.000Z</time>
      </trkpt>
      <trkpt lat="42.96608" lon="0.87362">
        <ele>1273</ele>
        <time>2018-04-02T13:37:51.000Z</time>
      </trkpt>
      <trkpt lat="42.96608" lon="0.87361">
        <ele>1273</ele>
        <time>2018-04-02T13:37:53.000Z</time>
      </trkpt>
      <trkpt lat="42.96609" lon="0.87361">
        <ele>1273</ele>
        <time>2018-04-02T13:37:55.000Z</time>
      </trkpt>
      <trkpt lat="42.9661" lon="0.8736">
        <ele>1273</ele>
        <time>2018-04-02T13:37:57.000Z</time>
      </trkpt>
      <trkpt lat="42.9661" lon="0.87358">
        <ele>1273</ele>
        <time>2018-04-02T13:37:59.000Z</time>
      </trkpt>
      <trkpt lat="42.96609" lon="0.87358">
        <ele>1273</ele>
        <time>2018-04-02T13:38:01.000Z</time>
      </trkpt>
      <trkpt lat="42.96609" lon="0.87356">
        <ele>1273</ele>
        <time>2018-04-02T13:38:03.000Z</time>
      </trkpt>
      <trkpt lat="42.96608" lon="0.87356">
        <ele>1273</ele>
        <time>2018-04-02T13:38:05.000Z</time>
      </trkpt>
      <trkpt lat="42.96608" lon="0.87355">
        <ele>1274</ele>
        <time>2018-04-02T13:38:07.000Z</time>
      </trkpt>
      <trkpt lat="42.96608" lon="0.87355">
        <ele>1274</ele>
        <time>2018-04-02T13:38:09.000Z</time>
      </trkpt>
      <trkpt lat="42.96609" lon="0.87355">
        <ele>1273</ele>
        <time>2018-04-02T13:38:11.000Z</time>
      </trkpt>
      <trkpt lat="42.96609" lon="0.87355">
        <ele>1273</ele>
        <time>2018-04-02T13:38:13.000Z</time>
      </trkpt>
      <trkpt lat="42.96608" lon="0.87355">
        <ele>1273</ele>
        <time>2018-04-02T13:38:15.000Z</time>
      </trkpt>
      <trkpt lat="42.96609" lon="0.87356">
        <ele>1273</ele>
        <time>2018-04-02T13:38:17.000Z</time>
      </trkpt>
      <trkpt lat="42.96609" lon="0.87357">
        <ele>1273</ele>
        <time>2018-04-02T13:38:19.000Z</time>
      </trkpt>
      <trkpt lat="42.9661" lon="0.87358">
        <ele>1273</ele>
        <time>2018-04-02T13:38:21.000Z</time>
      </trkpt>
      <trkpt lat="42.9661" lon="0.87359">
        <ele>1273</ele>
        <time>2018-04-02T13:38:23.000Z</time>
      </trkpt>
      <trkpt lat="42.9661" lon="0.87359">
        <ele>1273</ele>
        <time>2018-04-02T13:38:25.000Z</time>
      </trkpt>
      <trkpt lat="42.9661" lon="0.87359">
        <ele>1273</ele>
        <time>2018-04-02T13:38:27.000Z</time>
      </trkpt>
      <trkpt lat="42.96609" lon="0.87359">
        <ele>1273</ele>
        <time>2018-04-02T13:38:29.000Z</time>
      </trkpt>
      <trkpt lat="42.96609" lon="0.87359">
        <ele>1273</ele>
        <time>2018-04-02T13:38:31.000Z</time>
      </trkpt>
      <trkpt lat="42.9661" lon="0.87359">
        <ele>1273</ele>
        <time>2018-04-02T13:38:33.000Z</time>
      </trkpt>
      <trkpt lat="42.96609" lon="0.87359">
        <ele>1273</ele>
        <time>2018-04-02T13:38:35.000Z</time>
      </trkpt>
      <trkpt lat="42.96609" lon="0.87358">
        <ele>1273</ele>
        <time>2018-04-02T13:38:37.000Z</time>
      </trkpt>
      <trkpt lat="42.96609" lon="0.87358">
        <ele>1273</ele>
        <time>2018-04-02T13:38:39.000Z</time>
      </trkpt>
      <trkpt lat="42.96609" lon="0.87358">
        <ele>1273</ele>
        <time>2018-04-02T13:38:41.000Z</time>
      </trkpt>
      <trkpt lat="42.96609" lon="0.87358">
        <ele>1273</ele>
        <time>2018-04-02T13:38:43.000Z</time>
      </trkpt>
      <trkpt lat="42.96609" lon="0.87357">
        <ele>1273</ele>
        <time>2018-04-02T13:38:45.000Z</time>
      </trkpt>
      <trkpt lat="42.9661" lon="0.87357">
        <ele>1273</ele>
        <time>2018-04-02T13:38:47.000Z</time>
      </trkpt>
      <trkpt lat="42.9661" lon="0.87356">
        <ele>1273</ele>
        <time>2018-04-02T13:38:49.000Z</time>
      </trkpt>
      <trkpt lat="42.9661" lon="0.87356">
        <ele>1273</ele>
        <time>2018-04-02T13:38:51.000Z</time>
      </trkpt>
      <trkpt lat="42.96609" lon="0.87355">
        <ele>1273</ele>
        <time>2018-04-02T13:38:53.000Z</time>
      </trkpt>
      <trkpt lat="42.9661" lon="0.87354">
        <ele>1273</ele>
        <time>2018-04-02T13:38:55.000Z</time>
      </trkpt>
      <trkpt lat="42.9661" lon="0.87353">
        <ele>1273</ele>
        <time>2018-04-02T13:38:57.000Z</time>
      </trkpt>
      <trkpt lat="42.96609" lon="0.87351">
        <ele>1274</ele>
        <time>2018-04-02T13:38:59.000Z</time>
      </trkpt>
      <trkpt lat="42.96609" lon="0.87349">
        <ele>1274</ele>
        <time>2018-04-02T13:39:01.000Z</time>
      </trkpt>
      <trkpt lat="42.96609" lon="0.87349">
        <ele>1274</ele>
        <time>2018-04-02T13:39:03.000Z</time>
      </trkpt>
      <trkpt lat="42.96609" lon="0.87349">
        <ele>1274</ele>
        <time>2018-04-02T13:39:05.000Z</time>
      </trkpt>
      <trkpt lat="42.96609" lon="0.87349">
        <ele>1274</ele>
        <time>2018-04-02T13:39:07.000Z</time>
      </trkpt>
      <trkpt lat="42.96609" lon="0.87348">
        <ele>1274</ele>
        <time>2018-04-02T13:39:09.000Z</time>
      </trkpt>
      <trkpt lat="42.96607" lon="0.8735">
        <ele>1274</ele>
        <time>2018-04-02T13:39:11.000Z</time>
      </trkpt>
      <trkpt lat="42.96605" lon="0.87351">
        <ele>1275</ele>
        <time>2018-04-02T13:39:13.000Z</time>
      </trkpt>
      <trkpt lat="42.96604" lon="0.87351">
        <ele>1275</ele>
        <time>2018-04-02T13:39:15.000Z</time>
      </trkpt>
      <trkpt lat="42.96604" lon="0.87352">
        <ele>1275</ele>
        <time>2018-04-02T13:39:17.000Z</time>
      </trkpt>
      <trkpt lat="42.96604" lon="0.87352">
        <ele>1275</ele>
        <time>2018-04-02T13:39:19.000Z</time>
      </trkpt>
      <trkpt lat="42.96605" lon="0.87354">
        <ele>1275</ele>
        <time>2018-04-02T13:39:21.000Z</time>
      </trkpt>
      <trkpt lat="42.96606" lon="0.87356">
        <ele>1274</ele>
        <time>2018-04-02T13:39:23.000Z</time>
      </trkpt>
      <trkpt lat="42.96607" lon="0.87358">
        <ele>1274</ele>
        <time>2018-04-02T13:39:25.000Z</time>
      </trkpt>
      <trkpt lat="42.96608" lon="0.87361">
        <ele>1273</ele>
        <time>2018-04-02T13:39:27.000Z</time>
      </trkpt>
      <trkpt lat="42.96608" lon="0.87362">
        <ele>1273</ele>
        <time>2018-04-02T13:39:29.000Z</time>
      </trkpt>
      <trkpt lat="42.96609" lon="0.87363">
        <ele>1273</ele>
        <time>2018-04-02T13:39:31.000Z</time>
      </trkpt>
      <trkpt lat="42.9661" lon="0.87364">
        <ele>1272</ele>
        <time>2018-04-02T13:39:33.000Z</time>
      </trkpt>
      <trkpt lat="42.96612" lon="0.87364">
        <ele>1272</ele>
        <time>2018-04-02T13:39:35.000Z</time>
      </trkpt>
      <trkpt lat="42.96614" lon="0.87364">
        <ele>1271</ele>
        <time>2018-04-02T13:39:37.000Z</time>
      </trkpt>
      <trkpt lat="42.96617" lon="0.87363">
        <ele>1270</ele>
        <time>2018-04-02T13:39:39.000Z</time>
      </trkpt>
      <trkpt lat="42.96619" lon="0.87363">
        <ele>1270</ele>
        <time>2018-04-02T13:39:41.000Z</time>
      </trkpt>
      <trkpt lat="42.96621" lon="0.87362">
        <ele>1269</ele>
        <time>2018-04-02T13:39:43.000Z</time>
      </trkpt>
      <trkpt lat="42.96623" lon="0.87361">
        <ele>1268</ele>
        <time>2018-04-02T13:39:45.000Z</time>
      </trkpt>
      <trkpt lat="42.96625" lon="0.87361">
        <ele>1268</ele>
        <time>2018-04-02T13:39:47.000Z</time>
      </trkpt>
      <trkpt lat="42.96626" lon="0.87361">
        <ele>1267</ele>
        <time>2018-04-02T13:39:49.000Z</time>
      </trkpt>
      <trkpt lat="42.96628" lon="0.87361">
        <ele>1267</ele>
        <time>2018-04-02T13:39:51.000Z</time>
      </trkpt>
      <trkpt lat="42.96629" lon="0.87362">
        <ele>1267</ele>
        <time>2018-04-02T13:39:53.000Z</time>
      </trkpt>
      <trkpt lat="42.96632" lon="0.87362">
        <ele>1266</ele>
        <time>2018-04-02T13:39:55.000Z</time>
      </trkpt>
      <trkpt lat="42.96634" lon="0.87363">
        <ele>1265</ele>
        <time>2018-04-02T13:39:57.000Z</time>
      </trkpt>
      <trkpt lat="42.96635" lon="0.87364">
        <ele>1264</ele>
        <time>2018-04-02T13:39:59.000Z</time>
      </trkpt>
      <trkpt lat="42.96631" lon="0.87365">
        <ele>1266</ele>
        <time>2018-04-02T13:40:01.000Z</time>
      </trkpt>
      <trkpt lat="42.96629" lon="0.87365">
        <ele>1266</ele>
        <time>2018-04-02T13:40:03.000Z</time>
      </trkpt>
      <trkpt lat="42.96627" lon="0.87365">
        <ele>1267</ele>
        <time>2018-04-02T13:40:05.000Z</time>
      </trkpt>
      <trkpt lat="42.96624" lon="0.87366">
        <ele>1268</ele>
        <time>2018-04-02T13:40:07.000Z</time>
      </trkpt>
      <trkpt lat="42.96623" lon="0.87366">
        <ele>1268</ele>
        <time>2018-04-02T13:40:09.000Z</time>
      </trkpt>
      <trkpt lat="42.96622" lon="0.87367">
        <ele>1268</ele>
        <time>2018-04-02T13:40:11.000Z</time>
      </trkpt>
      <trkpt lat="42.96621" lon="0.87367">
        <ele>1269</ele>
        <time>2018-04-02T13:40:13.000Z</time>
      </trkpt>
      <trkpt lat="42.9662" lon="0.87368">
        <ele>1269</ele>
        <time>2018-04-02T13:40:15.000Z</time>
      </trkpt>
      <trkpt lat="42.96619" lon="0.87368">
        <ele>1269</ele>
        <time>2018-04-02T13:40:17.000Z</time>
      </trkpt>
      <trkpt lat="42.96618" lon="0.87368">
        <ele>1269</ele>
        <time>2018-04-02T13:40:19.000Z</time>
      </trkpt>
      <trkpt lat="42.96617" lon="0.87368">
        <ele>1270</ele>
        <time>2018-04-02T13:40:21.000Z</time>
      </trkpt>
      <trkpt lat="42.96616" lon="0.87368">
        <ele>1270</ele>
        <time>2018-04-02T13:40:23.000Z</time>
      </trkpt>
      <trkpt lat="42.96615" lon="0.87367">
        <ele>1271</ele>
        <time>2018-04-02T13:40:25.000Z</time>
      </trkpt>
      <trkpt lat="42.96613" lon="0.87364">
        <ele>1271</ele>
        <time>2018-04-02T13:40:27.000Z</time>
      </trkpt>
      <trkpt lat="42.96611" lon="0.87362">
        <ele>1272</ele>
        <time>2018-04-02T13:40:29.000Z</time>
      </trkpt>
      <trkpt lat="42.96609" lon="0.8736">
        <ele>1273</ele>
        <time>2018-04-02T13:40:31.000Z</time>
      </trkpt>
      <trkpt lat="42.96608" lon="0.8736">
        <ele>1273</ele>
        <time>2018-04-02T13:40:33.000Z</time>
      </trkpt>
      <trkpt lat="42.96605" lon="0.87361">
        <ele>1274</ele>
        <time>2018-04-02T13:40:35.000Z</time>
      </trkpt>
      <trkpt lat="42.96603" lon="0.87362">
        <ele>1275</ele>
        <time>2018-04-02T13:40:37.000Z</time>
      </trkpt>
      <trkpt lat="42.96601" lon="0.87362">
        <ele>1275</ele>
        <time>2018-04-02T13:40:39.000Z</time>
      </trkpt>
      <trkpt lat="42.96599" lon="0.87362">
        <ele>1276</ele>
        <time>2018-04-02T13:40:41.000Z</time>
      </trkpt>
      <trkpt lat="42.96598" lon="0.87362">
        <ele>1276</ele>
        <time>2018-04-02T13:40:43.000Z</time>
      </trkpt>
      <trkpt lat="42.96598" lon="0.87362">
        <ele>1276</ele>
        <time>2018-04-02T13:40:45.000Z</time>
      </trkpt>
      <trkpt lat="42.96597" lon="0.87362">
        <ele>1276</ele>
        <time>2018-04-02T13:40:47.000Z</time>
      </trkpt>
      <trkpt lat="42.96596" lon="0.87362">
        <ele>1277</ele>
        <time>2018-04-02T13:40:49.000Z</time>
      </trkpt>
      <trkpt lat="42.96595" lon="0.87361">
        <ele>1277</ele>
        <time>2018-04-02T13:40:51.000Z</time>
      </trkpt>
      <trkpt lat="42.96592" lon="0.8736">
        <ele>1278</ele>
        <time>2018-04-02T13:40:53.000Z</time>
      </trkpt>
      <trkpt lat="42.96591" lon="0.87361">
        <ele>1278</ele>
        <time>2018-04-02T13:40:55.000Z</time>
      </trkpt>
      <trkpt lat="42.96591" lon="0.87363">
        <ele>1278</ele>
        <time>2018-04-02T13:40:57.000Z</time>
      </trkpt>
      <trkpt lat="42.96591" lon="0.87366">
        <ele>1278</ele>
        <time>2018-04-02T13:40:59.000Z</time>
      </trkpt>
      <trkpt lat="42.9659" lon="0.87368">
        <ele>1278</ele>
        <time>2018-04-02T13:41:01.000Z</time>
      </trkpt>
      <trkpt lat="42.9659" lon="0.87371">
        <ele>1278</ele>
        <time>2018-04-02T13:41:03.000Z</time>
      </trkpt>
      <trkpt lat="42.96591" lon="0.87375">
        <ele>1277</ele>
        <time>2018-04-02T13:41:05.000Z</time>
      </trkpt>
      <trkpt lat="42.96591" lon="0.87378">
        <ele>1277</ele>
        <time>2018-04-02T13:41:07.000Z</time>
      </trkpt>
      <trkpt lat="42.96592" lon="0.87381">
        <ele>1277</ele>
        <time>2018-04-02T13:41:09.000Z</time>
      </trkpt>
      <trkpt lat="42.96592" lon="0.87384">
        <ele>1276</ele>
        <time>2018-04-02T13:41:11.000Z</time>
      </trkpt>
      <trkpt lat="42.96591" lon="0.87387">
        <ele>1276</ele>
        <time>2018-04-02T13:41:13.000Z</time>
      </trkpt>
      <trkpt lat="42.9659" lon="0.8739">
        <ele>1276</ele>
        <time>2018-04-02T13:41:15.000Z</time>
      </trkpt>
      <trkpt lat="42.96589" lon="0.87393">
        <ele>1276</ele>
        <time>2018-04-02T13:41:17.000Z</time>
      </trkpt>
      <trkpt lat="42.96589" lon="0.87395">
        <ele>1275</ele>
        <time>2018-04-02T13:41:19.000Z</time>
      </trkpt>
      <trkpt lat="42.96588" lon="0.87397">
        <ele>1275</ele>
        <time>2018-04-02T13:41:21.000Z</time>
      </trkpt>
      <trkpt lat="42.96588" lon="0.874">
        <ele>1275</ele>
        <time>2018-04-02T13:41:23.000Z</time>
      </trkpt>
      <trkpt lat="42.96588" lon="0.87402">
        <ele>1274</ele>
        <time>2018-04-02T13:41:25.000Z</time>
      </trkpt>
      <trkpt lat="42.96588" lon="0.87405">
        <ele>1274</ele>
        <time>2018-04-02T13:41:27.000Z</time>
      </trkpt>
      <trkpt lat="42.96588" lon="0.87408">
        <ele>1273</ele>
        <time>2018-04-02T13:41:29.000Z</time>
      </trkpt>
      <trkpt lat="42.96587" lon="0.8741">
        <ele>1273</ele>
        <time>2018-04-02T13:41:31.000Z</time>
      </trkpt>
      <trkpt lat="42.96587" lon="0.87412">
        <ele>1273</ele>
        <time>2018-04-02T13:41:33.000Z</time>
      </trkpt>
      <trkpt lat="42.96586" lon="0.87414">
        <ele>1272</ele>
        <time>2018-04-02T13:41:35.000Z</time>
      </trkpt>
      <trkpt lat="42.96587" lon="0.87417">
        <ele>1272</ele>
        <time>2018-04-02T13:41:37.000Z</time>
      </trkpt>
      <trkpt lat="42.96587" lon="0.8742">
        <ele>1271</ele>
        <time>2018-04-02T13:41:39.000Z</time>
      </trkpt>
      <trkpt lat="42.96587" lon="0.87422">
        <ele>1271</ele>
        <time>2018-04-02T13:41:41.000Z</time>
      </trkpt>
      <trkpt lat="42.96587" lon="0.87424">
        <ele>1271</ele>
        <time>2018-04-02T13:41:43.000Z</time>
      </trkpt>
      <trkpt lat="42.96586" lon="0.87427">
        <ele>1270</ele>
        <time>2018-04-02T13:41:45.000Z</time>
      </trkpt>
      <trkpt lat="42.96586" lon="0.8743">
        <ele>1270</ele>
        <time>2018-04-02T13:41:47.000Z</time>
      </trkpt>
      <trkpt lat="42.96586" lon="0.87433">
        <ele>1269</ele>
        <time>2018-04-02T13:41:49.000Z</time>
      </trkpt>
      <trkpt lat="42.96586" lon="0.87435">
        <ele>1269</ele>
        <time>2018-04-02T13:41:51.000Z</time>
      </trkpt>
      <trkpt lat="42.96586" lon="0.87437">
        <ele>1269</ele>
        <time>2018-04-02T13:41:53.000Z</time>
      </trkpt>
      <trkpt lat="42.96587" lon="0.87438">
        <ele>1268</ele>
        <time>2018-04-02T13:41:55.000Z</time>
      </trkpt>
      <trkpt lat="42.96587" lon="0.8744">
        <ele>1268</ele>
        <time>2018-04-02T13:41:57.000Z</time>
      </trkpt>
      <trkpt lat="42.96586" lon="0.87441">
        <ele>1268</ele>
        <time>2018-04-02T13:41:59.000Z</time>
      </trkpt>
      <trkpt lat="42.96585" lon="0.87444">
        <ele>1267</ele>
        <time>2018-04-02T13:42:01.000Z</time>
      </trkpt>
      <trkpt lat="42.96586" lon="0.87447">
        <ele>1267</ele>
        <time>2018-04-02T13:42:03.000Z</time>
      </trkpt>
      <trkpt lat="42.96587" lon="0.87451">
        <ele>1266</ele>
        <time>2018-04-02T13:42:05.000Z</time>
      </trkpt>
      <trkpt lat="42.96586" lon="0.87453">
        <ele>1266</ele>
        <time>2018-04-02T13:42:07.000Z</time>
      </trkpt>
      <trkpt lat="42.96586" lon="0.87455">
        <ele>1266</ele>
        <time>2018-04-02T13:42:09.000Z</time>
      </trkpt>
      <trkpt lat="42.96585" lon="0.87457">
        <ele>1265</ele>
        <time>2018-04-02T13:42:11.000Z</time>
      </trkpt>
      <trkpt lat="42.96584" lon="0.87459">
        <ele>1265</ele>
        <time>2018-04-02T13:42:13.000Z</time>
      </trkpt>
      <trkpt lat="42.96582" lon="0.87461">
        <ele>1265</ele>
        <time>2018-04-02T13:42:15.000Z</time>
      </trkpt>
      <trkpt lat="42.96581" lon="0.87464">
        <ele>1264</ele>
        <time>2018-04-02T13:42:17.000Z</time>
      </trkpt>
      <trkpt lat="42.96581" lon="0.87467">
        <ele>1264</ele>
        <time>2018-04-02T13:42:19.000Z</time>
      </trkpt>
      <trkpt lat="42.96579" lon="0.87469">
        <ele>1264</ele>
        <time>2018-04-02T13:42:21.000Z</time>
      </trkpt>
      <trkpt lat="42.96578" lon="0.87471">
        <ele>1264</ele>
        <time>2018-04-02T13:42:23.000Z</time>
      </trkpt>
      <trkpt lat="42.96576" lon="0.87472">
        <ele>1264</ele>
        <time>2018-04-02T13:42:25.000Z</time>
      </trkpt>
      <trkpt lat="42.96575" lon="0.87473">
        <ele>1264</ele>
        <time>2018-04-02T13:42:27.000Z</time>
      </trkpt>
      <trkpt lat="42.96574" lon="0.87475">
        <ele>1264</ele>
        <time>2018-04-02T13:42:29.000Z</time>
      </trkpt>
      <trkpt lat="42.96573" lon="0.87476">
        <ele>1263</ele>
        <time>2018-04-02T13:42:31.000Z</time>
      </trkpt>
      <trkpt lat="42.96574" lon="0.87478">
        <ele>1263</ele>
        <time>2018-04-02T13:42:33.000Z</time>
      </trkpt>
      <trkpt lat="42.96575" lon="0.87481">
        <ele>1262</ele>
        <time>2018-04-02T13:42:35.000Z</time>
      </trkpt>
      <trkpt lat="42.96575" lon="0.87482">
        <ele>1262</ele>
        <time>2018-04-02T13:42:37.000Z</time>
      </trkpt>
      <trkpt lat="42.96575" lon="0.87484">
        <ele>1261</ele>
        <time>2018-04-02T13:42:39.000Z</time>
      </trkpt>
      <trkpt lat="42.96576" lon="0.87486">
        <ele>1261</ele>
        <time>2018-04-02T13:42:41.000Z</time>
      </trkpt>
      <trkpt lat="42.96576" lon="0.87489">
        <ele>1260</ele>
        <time>2018-04-02T13:42:43.000Z</time>
      </trkpt>
      <trkpt lat="42.96576" lon="0.87491">
        <ele>1260</ele>
        <time>2018-04-02T13:42:45.000Z</time>
      </trkpt>
      <trkpt lat="42.96577" lon="0.87494">
        <ele>1259</ele>
        <time>2018-04-02T13:42:47.000Z</time>
      </trkpt>
      <trkpt lat="42.96578" lon="0.87498">
        <ele>1258</ele>
        <time>2018-04-02T13:42:49.000Z</time>
      </trkpt>
      <trkpt lat="42.96577" lon="0.875">
        <ele>1258</ele>
        <time>2018-04-02T13:42:51.000Z</time>
      </trkpt>
      <trkpt lat="42.96579" lon="0.87502">
        <ele>1257</ele>
        <time>2018-04-02T13:42:53.000Z</time>
      </trkpt>
      <trkpt lat="42.9658" lon="0.87504">
        <ele>1257</ele>
        <time>2018-04-02T13:42:55.000Z</time>
      </trkpt>
      <trkpt lat="42.96581" lon="0.87507">
        <ele>1256</ele>
        <time>2018-04-02T13:42:57.000Z</time>
      </trkpt>
      <trkpt lat="42.96581" lon="0.87509">
        <ele>1255</ele>
        <time>2018-04-02T13:42:59.000Z</time>
      </trkpt>
      <trkpt lat="42.96582" lon="0.87511">
        <ele>1255</ele>
        <time>2018-04-02T13:43:01.000Z</time>
      </trkpt>
      <trkpt lat="42.96582" lon="0.87513">
        <ele>1255</ele>
        <time>2018-04-02T13:43:03.000Z</time>
      </trkpt>
      <trkpt lat="42.96583" lon="0.87514">
        <ele>1254</ele>
        <time>2018-04-02T13:43:05.000Z</time>
      </trkpt>
      <trkpt lat="42.96584" lon="0.87516">
        <ele>1254</ele>
        <time>2018-04-02T13:43:07.000Z</time>
      </trkpt>
      <trkpt lat="42.96585" lon="0.87518">
        <ele>1253</ele>
        <time>2018-04-02T13:43:09.000Z</time>
      </trkpt>
      <trkpt lat="42.96586" lon="0.87519">
        <ele>1253</ele>
        <time>2018-04-02T13:43:11.000Z</time>
      </trkpt>
      <trkpt lat="42.96587" lon="0.8752">
        <ele>1252</ele>
        <time>2018-04-02T13:43:13.000Z</time>
      </trkpt>
      <trkpt lat="42.96587" lon="0.87521">
        <ele>1252</ele>
        <time>2018-04-02T13:43:15.000Z</time>
      </trkpt>
      <trkpt lat="42.96588" lon="0.87522">
        <ele>1252</ele>
        <time>2018-04-02T13:43:17.000Z</time>
      </trkpt>
      <trkpt lat="42.96589" lon="0.87523">
        <ele>1251</ele>
        <time>2018-04-02T13:43:19.000Z</time>
      </trkpt>
      <trkpt lat="42.96591" lon="0.87526">
        <ele>1251</ele>
        <time>2018-04-02T13:43:21.000Z</time>
      </trkpt>
      <trkpt lat="42.96592" lon="0.87527">
        <ele>1250</ele>
        <time>2018-04-02T13:43:23.000Z</time>
      </trkpt>
      <trkpt lat="42.96593" lon="0.87529">
        <ele>1250</ele>
        <time>2018-04-02T13:43:25.000Z</time>
      </trkpt>
      <trkpt lat="42.96594" lon="0.87532">
        <ele>1249</ele>
        <time>2018-04-02T13:43:27.000Z</time>
      </trkpt>
      <trkpt lat="42.96594" lon="0.87535">
        <ele>1248</ele>
        <time>2018-04-02T13:43:29.000Z</time>
      </trkpt>
      <trkpt lat="42.96594" lon="0.87538">
        <ele>1248</ele>
        <time>2018-04-02T13:43:31.000Z</time>
      </trkpt>
      <trkpt lat="42.96593" lon="0.87542">
        <ele>1247</ele>
        <time>2018-04-02T13:43:33.000Z</time>
      </trkpt>
      <trkpt lat="42.96593" lon="0.87544">
        <ele>1246</ele>
        <time>2018-04-02T13:43:35.000Z</time>
      </trkpt>
      <trkpt lat="42.96592" lon="0.87547">
        <ele>1246</ele>
        <time>2018-04-02T13:43:37.000Z</time>
      </trkpt>
      <trkpt lat="42.9659" lon="0.87549">
        <ele>1246</ele>
        <time>2018-04-02T13:43:39.000Z</time>
      </trkpt>
      <trkpt lat="42.96589" lon="0.87552">
        <ele>1245</ele>
        <time>2018-04-02T13:43:41.000Z</time>
      </trkpt>
      <trkpt lat="42.96589" lon="0.87555">
        <ele>1245</ele>
        <time>2018-04-02T13:43:43.000Z</time>
      </trkpt>
      <trkpt lat="42.96587" lon="0.87558">
        <ele>1244</ele>
        <time>2018-04-02T13:43:45.000Z</time>
      </trkpt>
      <trkpt lat="42.96585" lon="0.87559">
        <ele>1243</ele>
        <time>2018-04-02T13:43:47.000Z</time>
      </trkpt>
      <trkpt lat="42.96583" lon="0.87561">
        <ele>1243</ele>
        <time>2018-04-02T13:43:49.000Z</time>
      </trkpt>
      <trkpt lat="42.96582" lon="0.87562">
        <ele>1243</ele>
        <time>2018-04-02T13:43:51.000Z</time>
      </trkpt>
      <trkpt lat="42.96581" lon="0.87563">
        <ele>1242</ele>
        <time>2018-04-02T13:43:53.000Z</time>
      </trkpt>
      <trkpt lat="42.96578" lon="0.87564">
        <ele>1242</ele>
        <time>2018-04-02T13:43:55.000Z</time>
      </trkpt>
      <trkpt lat="42.96576" lon="0.87565">
        <ele>1242</ele>
        <time>2018-04-02T13:43:57.000Z</time>
      </trkpt>
      <trkpt lat="42.96574" lon="0.87566">
        <ele>1242</ele>
        <time>2018-04-02T13:43:59.000Z</time>
      </trkpt>
      <trkpt lat="42.96572" lon="0.87567">
        <ele>1241</ele>
        <time>2018-04-02T13:44:01.000Z</time>
      </trkpt>
      <trkpt lat="42.96571" lon="0.87568">
        <ele>1241</ele>
        <time>2018-04-02T13:44:03.000Z</time>
      </trkpt>
      <trkpt lat="42.96569" lon="0.87569">
        <ele>1241</ele>
        <time>2018-04-02T13:44:05.000Z</time>
      </trkpt>
      <trkpt lat="42.96567" lon="0.87569">
        <ele>1241</ele>
        <time>2018-04-02T13:44:07.000Z</time>
      </trkpt>
      <trkpt lat="42.96565" lon="0.8757">
        <ele>1241</ele>
        <time>2018-04-02T13:44:09.000Z</time>
      </trkpt>
      <trkpt lat="42.96563" lon="0.8757">
        <ele>1241</ele>
        <time>2018-04-02T13:44:11.000Z</time>
      </trkpt>
      <trkpt lat="42.96559" lon="0.87568">
        <ele>1242</ele>
        <time>2018-04-02T13:44:13.000Z</time>
      </trkpt>
      <trkpt lat="42.96557" lon="0.87567">
        <ele>1242</ele>
        <time>2018-04-02T13:44:15.000Z</time>
      </trkpt>
      <trkpt lat="42.96556" lon="0.87565">
        <ele>1243</ele>
        <time>2018-04-02T13:44:17.000Z</time>
      </trkpt>
      <trkpt lat="42.96555" lon="0.87563">
        <ele>1244</ele>
        <time>2018-04-02T13:44:19.000Z</time>
      </trkpt>
      <trkpt lat="42.96554" lon="0.87559">
        <ele>1245</ele>
        <time>2018-04-02T13:44:21.000Z</time>
      </trkpt>
      <trkpt lat="42.96553" lon="0.87557">
        <ele>1246</ele>
        <time>2018-04-02T13:44:23.000Z</time>
      </trkpt>
      <trkpt lat="42.96553" lon="0.87555">
        <ele>1247</ele>
        <time>2018-04-02T13:44:25.000Z</time>
      </trkpt>
      <trkpt lat="42.96553" lon="0.87552">
        <ele>1247</ele>
        <time>2018-04-02T13:44:27.000Z</time>
      </trkpt>
      <trkpt lat="42.96552" lon="0.87551">
        <ele>1248</ele>
        <time>2018-04-02T13:44:29.000Z</time>
      </trkpt>
      <trkpt lat="42.96552" lon="0.87549">
        <ele>1248</ele>
        <time>2018-04-02T13:44:31.000Z</time>
      </trkpt>
      <trkpt lat="42.96551" lon="0.87547">
        <ele>1249</ele>
        <time>2018-04-02T13:44:33.000Z</time>
      </trkpt>
      <trkpt lat="42.96551" lon="0.87545">
        <ele>1249</ele>
        <time>2018-04-02T13:44:35.000Z</time>
      </trkpt>
      <trkpt lat="42.96553" lon="0.87544">
        <ele>1250</ele>
        <time>2018-04-02T13:44:37.000Z</time>
      </trkpt>
      <trkpt lat="42.96553" lon="0.87543">
        <ele>1250</ele>
        <time>2018-04-02T13:44:39.000Z</time>
      </trkpt>
      <trkpt lat="42.96553" lon="0.8754">
        <ele>1251</ele>
        <time>2018-04-02T13:44:41.000Z</time>
      </trkpt>
      <trkpt lat="42.96552" lon="0.87538">
        <ele>1251</ele>
        <time>2018-04-02T13:44:43.000Z</time>
      </trkpt>
      <trkpt lat="42.96551" lon="0.87536">
        <ele>1252</ele>
        <time>2018-04-02T13:44:45.000Z</time>
      </trkpt>
      <trkpt lat="42.96551" lon="0.87534">
        <ele>1253</ele>
        <time>2018-04-02T13:44:47.000Z</time>
      </trkpt>
      <trkpt lat="42.9655" lon="0.87531">
        <ele>1254</ele>
        <time>2018-04-02T13:44:49.000Z</time>
      </trkpt>
      <trkpt lat="42.9655" lon="0.87528">
        <ele>1254</ele>
        <time>2018-04-02T13:44:51.000Z</time>
      </trkpt>
      <trkpt lat="42.9655" lon="0.87527">
        <ele>1255</ele>
        <time>2018-04-02T13:44:53.000Z</time>
      </trkpt>
      <trkpt lat="42.96549" lon="0.87525">
        <ele>1255</ele>
        <time>2018-04-02T13:44:55.000Z</time>
      </trkpt>
      <trkpt lat="42.96548" lon="0.87525">
        <ele>1255</ele>
        <time>2018-04-02T13:44:57.000Z</time>
      </trkpt>
      <trkpt lat="42.96547" lon="0.87524">
        <ele>1256</ele>
        <time>2018-04-02T13:44:59.000Z</time>
      </trkpt>
      <trkpt lat="42.96545" lon="0.87523">
        <ele>1256</ele>
        <time>2018-04-02T13:45:01.000Z</time>
      </trkpt>
      <trkpt lat="42.96543" lon="0.87523">
        <ele>1256</ele>
        <time>2018-04-02T13:45:03.000Z</time>
      </trkpt>
      <trkpt lat="42.96541" lon="0.87524">
        <ele>1256</ele>
        <time>2018-04-02T13:45:05.000Z</time>
      </trkpt>
      <trkpt lat="42.96539" lon="0.87524">
        <ele>1256</ele>
        <time>2018-04-02T13:45:07.000Z</time>
      </trkpt>
      <trkpt lat="42.96538" lon="0.87525">
        <ele>1256</ele>
        <time>2018-04-02T13:45:09.000Z</time>
      </trkpt>
      <trkpt lat="42.96536" lon="0.87526">
        <ele>1256</ele>
        <time>2018-04-02T13:45:11.000Z</time>
      </trkpt>
      <trkpt lat="42.96534" lon="0.87527">
        <ele>1255</ele>
        <time>2018-04-02T13:45:13.000Z</time>
      </trkpt>
      <trkpt lat="42.96532" lon="0.87528">
        <ele>1255</ele>
        <time>2018-04-02T13:45:15.000Z</time>
      </trkpt>
      <trkpt lat="42.9653" lon="0.8753">
        <ele>1255</ele>
        <time>2018-04-02T13:45:17.000Z</time>
      </trkpt>
      <trkpt lat="42.96528" lon="0.87531">
        <ele>1255</ele>
        <time>2018-04-02T13:45:19.000Z</time>
      </trkpt>
      <trkpt lat="42.96526" lon="0.87531">
        <ele>1255</ele>
        <time>2018-04-02T13:45:21.000Z</time>
      </trkpt>
      <trkpt lat="42.96524" lon="0.87532">
        <ele>1255</ele>
        <time>2018-04-02T13:45:23.000Z</time>
      </trkpt>
      <trkpt lat="42.96522" lon="0.87533">
        <ele>1255</ele>
        <time>2018-04-02T13:45:25.000Z</time>
      </trkpt>
      <trkpt lat="42.96522" lon="0.87535">
        <ele>1254</ele>
        <time>2018-04-02T13:45:27.000Z</time>
      </trkpt>
      <trkpt lat="42.96521" lon="0.87537">
        <ele>1254</ele>
        <time>2018-04-02T13:45:29.000Z</time>
      </trkpt>
      <trkpt lat="42.96519" lon="0.87538">
        <ele>1253</ele>
        <time>2018-04-02T13:45:31.000Z</time>
      </trkpt>
      <trkpt lat="42.96516" lon="0.8754">
        <ele>1253</ele>
        <time>2018-04-02T13:45:33.000Z</time>
      </trkpt>
      <trkpt lat="42.96514" lon="0.87542">
        <ele>1253</ele>
        <time>2018-04-02T13:45:35.000Z</time>
      </trkpt>
      <trkpt lat="42.96513" lon="0.87544">
        <ele>1252</ele>
        <time>2018-04-02T13:45:37.000Z</time>
      </trkpt>
      <trkpt lat="42.96512" lon="0.87546">
        <ele>1252</ele>
        <time>2018-04-02T13:45:39.000Z</time>
      </trkpt>
      <trkpt lat="42.9651" lon="0.87549">
        <ele>1251</ele>
        <time>2018-04-02T13:45:41.000Z</time>
      </trkpt>
      <trkpt lat="42.96509" lon="0.87552">
        <ele>1250</ele>
        <time>2018-04-02T13:45:43.000Z</time>
      </trkpt>
      <trkpt lat="42.96506" lon="0.87554">
        <ele>1250</ele>
        <time>2018-04-02T13:45:45.000Z</time>
      </trkpt>
      <trkpt lat="42.96504" lon="0.87556">
        <ele>1250</ele>
        <time>2018-04-02T13:45:47.000Z</time>
      </trkpt>
      <trkpt lat="42.96503" lon="0.87558">
        <ele>1250</ele>
        <time>2018-04-02T13:45:49.000Z</time>
      </trkpt>
      <trkpt lat="42.96502" lon="0.87561">
        <ele>1249</ele>
        <time>2018-04-02T13:45:51.000Z</time>
      </trkpt>
      <trkpt lat="42.96502" lon="0.87563">
        <ele>1249</ele>
        <time>2018-04-02T13:45:53.000Z</time>
      </trkpt>
      <trkpt lat="42.96501" lon="0.87566">
        <ele>1248</ele>
        <time>2018-04-02T13:45:55.000Z</time>
      </trkpt>
      <trkpt lat="42.96501" lon="0.87568">
        <ele>1247</ele>
        <time>2018-04-02T13:45:57.000Z</time>
      </trkpt>
      <trkpt lat="42.96502" lon="0.8757">
        <ele>1246</ele>
        <time>2018-04-02T13:45:59.000Z</time>
      </trkpt>
      <trkpt lat="42.96503" lon="0.87572">
        <ele>1245</ele>
        <time>2018-04-02T13:46:01.000Z</time>
      </trkpt>
      <trkpt lat="42.96505" lon="0.87575">
        <ele>1244</ele>
        <time>2018-04-02T13:46:03.000Z</time>
      </trkpt>
      <trkpt lat="42.96506" lon="0.87576">
        <ele>1243</ele>
        <time>2018-04-02T13:46:05.000Z</time>
      </trkpt>
      <trkpt lat="42.96507" lon="0.87577">
        <ele>1242</ele>
        <time>2018-04-02T13:46:07.000Z</time>
      </trkpt>
      <trkpt lat="42.96508" lon="0.8758">
        <ele>1241</ele>
        <time>2018-04-02T13:46:09.000Z</time>
      </trkpt>
      <trkpt lat="42.9651" lon="0.87582">
        <ele>1240</ele>
        <time>2018-04-02T13:46:11.000Z</time>
      </trkpt>
      <trkpt lat="42.96512" lon="0.87585">
        <ele>1239</ele>
        <time>2018-04-02T13:46:13.000Z</time>
      </trkpt>
      <trkpt lat="42.96513" lon="0.87588">
        <ele>1238</ele>
        <time>2018-04-02T13:46:15.000Z</time>
      </trkpt>
      <trkpt lat="42.96515" lon="0.8759">
        <ele>1237</ele>
        <time>2018-04-02T13:46:17.000Z</time>
      </trkpt>
      <trkpt lat="42.96515" lon="0.87594">
        <ele>1236</ele>
        <time>2018-04-02T13:46:19.000Z</time>
      </trkpt>
      <trkpt lat="42.96516" lon="0.87597">
        <ele>1235</ele>
        <time>2018-04-02T13:46:21.000Z</time>
      </trkpt>
      <trkpt lat="42.96515" lon="0.87601">
        <ele>1233</ele>
        <time>2018-04-02T13:46:23.000Z</time>
      </trkpt>
      <trkpt lat="42.96513" lon="0.87605">
        <ele>1232</ele>
        <time>2018-04-02T13:46:25.000Z</time>
      </trkpt>
      <trkpt lat="42.96511" lon="0.8761">
        <ele>1231</ele>
        <time>2018-04-02T13:46:27.000Z</time>
      </trkpt>
      <trkpt lat="42.96509" lon="0.87614">
        <ele>1230</ele>
        <time>2018-04-02T13:46:29.000Z</time>
      </trkpt>
      <trkpt lat="42.96507" lon="0.87618">
        <ele>1229</ele>
        <time>2018-04-02T13:46:31.000Z</time>
      </trkpt>
      <trkpt lat="42.96504" lon="0.87622">
        <ele>1228</ele>
        <time>2018-04-02T13:46:33.000Z</time>
      </trkpt>
      <trkpt lat="42.96502" lon="0.87624">
        <ele>1228</ele>
        <time>2018-04-02T13:46:35.000Z</time>
      </trkpt>
      <trkpt lat="42.96499" lon="0.87627">
        <ele>1228</ele>
        <time>2018-04-02T13:46:37.000Z</time>
      </trkpt>
      <trkpt lat="42.96497" lon="0.87629">
        <ele>1228</ele>
        <time>2018-04-02T13:46:39.000Z</time>
      </trkpt>
      <trkpt lat="42.96496" lon="0.87632">
        <ele>1227</ele>
        <time>2018-04-02T13:46:41.000Z</time>
      </trkpt>
      <trkpt lat="42.96494" lon="0.87635">
        <ele>1227</ele>
        <time>2018-04-02T13:46:43.000Z</time>
      </trkpt>
      <trkpt lat="42.96492" lon="0.87638">
        <ele>1226</ele>
        <time>2018-04-02T13:46:45.000Z</time>
      </trkpt>
      <trkpt lat="42.96489" lon="0.8764">
        <ele>1226</ele>
        <time>2018-04-02T13:46:47.000Z</time>
      </trkpt>
      <trkpt lat="42.96485" lon="0.87642">
        <ele>1227</ele>
        <time>2018-04-02T13:46:49.000Z</time>
      </trkpt>
      <trkpt lat="42.96482" lon="0.87646">
        <ele>1227</ele>
        <time>2018-04-02T13:46:51.000Z</time>
      </trkpt>
      <trkpt lat="42.9648" lon="0.87648">
        <ele>1227</ele>
        <time>2018-04-02T13:46:53.000Z</time>
      </trkpt>
      <trkpt lat="42.96477" lon="0.87651">
        <ele>1227</ele>
        <time>2018-04-02T13:46:55.000Z</time>
      </trkpt>
      <trkpt lat="42.96475" lon="0.87653">
        <ele>1227</ele>
        <time>2018-04-02T13:46:57.000Z</time>
      </trkpt>
      <trkpt lat="42.96472" lon="0.87656">
        <ele>1227</ele>
        <time>2018-04-02T13:46:59.000Z</time>
      </trkpt>
      <trkpt lat="42.9647" lon="0.87659">
        <ele>1227</ele>
        <time>2018-04-02T13:47:01.000Z</time>
      </trkpt>
      <trkpt lat="42.96468" lon="0.87661">
        <ele>1227</ele>
        <time>2018-04-02T13:47:03.000Z</time>
      </trkpt>
      <trkpt lat="42.96466" lon="0.87664">
        <ele>1227</ele>
        <time>2018-04-02T13:47:05.000Z</time>
      </trkpt>
      <trkpt lat="42.96464" lon="0.87666">
        <ele>1227</ele>
        <time>2018-04-02T13:47:07.000Z</time>
      </trkpt>
      <trkpt lat="42.96462" lon="0.87667">
        <ele>1227</ele>
        <time>2018-04-02T13:47:09.000Z</time>
      </trkpt>
      <trkpt lat="42.9646" lon="0.87669">
        <ele>1227</ele>
        <time>2018-04-02T13:47:11.000Z</time>
      </trkpt>
      <trkpt lat="42.96458" lon="0.87673">
        <ele>1226</ele>
        <time>2018-04-02T13:47:13.000Z</time>
      </trkpt>
      <trkpt lat="42.96456" lon="0.87674">
        <ele>1226</ele>
        <time>2018-04-02T13:47:15.000Z</time>
      </trkpt>
      <trkpt lat="42.96454" lon="0.87676">
        <ele>1226</ele>
        <time>2018-04-02T13:47:17.000Z</time>
      </trkpt>
      <trkpt lat="42.96453" lon="0.87678">
        <ele>1226</ele>
        <time>2018-04-02T13:47:19.000Z</time>
      </trkpt>
      <trkpt lat="42.96452" lon="0.8768">
        <ele>1225</ele>
        <time>2018-04-02T13:47:21.000Z</time>
      </trkpt>
      <trkpt lat="42.9645" lon="0.87683">
        <ele>1225</ele>
        <time>2018-04-02T13:47:23.000Z</time>
      </trkpt>
      <trkpt lat="42.96448" lon="0.87685">
        <ele>1224</ele>
        <time>2018-04-02T13:47:25.000Z</time>
      </trkpt>
      <trkpt lat="42.96446" lon="0.87688">
        <ele>1224</ele>
        <time>2018-04-02T13:47:27.000Z</time>
      </trkpt>
      <trkpt lat="42.96445" lon="0.8769">
        <ele>1224</ele>
        <time>2018-04-02T13:47:29.000Z</time>
      </trkpt>
      <trkpt lat="42.96444" lon="0.87692">
        <ele>1223</ele>
        <time>2018-04-02T13:47:31.000Z</time>
      </trkpt>
      <trkpt lat="42.96443" lon="0.87693">
        <ele>1223</ele>
        <time>2018-04-02T13:47:33.000Z</time>
      </trkpt>
      <trkpt lat="42.96442" lon="0.87694">
        <ele>1223</ele>
        <time>2018-04-02T13:47:35.000Z</time>
      </trkpt>
      <trkpt lat="42.9644" lon="0.87695">
        <ele>1223</ele>
        <time>2018-04-02T13:47:37.000Z</time>
      </trkpt>
      <trkpt lat="42.96439" lon="0.87697">
        <ele>1222</ele>
        <time>2018-04-02T13:47:39.000Z</time>
      </trkpt>
      <trkpt lat="42.96437" lon="0.87699">
        <ele>1222</ele>
        <time>2018-04-02T13:47:41.000Z</time>
      </trkpt>
      <trkpt lat="42.96436" lon="0.877">
        <ele>1222</ele>
        <time>2018-04-02T13:47:43.000Z</time>
      </trkpt>
      <trkpt lat="42.96434" lon="0.87702">
        <ele>1222</ele>
        <time>2018-04-02T13:47:45.000Z</time>
      </trkpt>
      <trkpt lat="42.96433" lon="0.87704">
        <ele>1222</ele>
        <time>2018-04-02T13:47:47.000Z</time>
      </trkpt>
      <trkpt lat="42.96432" lon="0.87706">
        <ele>1221</ele>
        <time>2018-04-02T13:47:49.000Z</time>
      </trkpt>
      <trkpt lat="42.9643" lon="0.87708">
        <ele>1221</ele>
        <time>2018-04-02T13:47:51.000Z</time>
      </trkpt>
      <trkpt lat="42.96428" lon="0.8771">
        <ele>1221</ele>
        <time>2018-04-02T13:47:53.000Z</time>
      </trkpt>
      <trkpt lat="42.96426" lon="0.87712">
        <ele>1220</ele>
        <time>2018-04-02T13:47:55.000Z</time>
      </trkpt>
      <trkpt lat="42.96424" lon="0.87714">
        <ele>1220</ele>
        <time>2018-04-02T13:47:57.000Z</time>
      </trkpt>
      <trkpt lat="42.96423" lon="0.87716">
        <ele>1219</ele>
        <time>2018-04-02T13:47:59.000Z</time>
      </trkpt>
      <trkpt lat="42.96421" lon="0.87719">
        <ele>1219</ele>
        <time>2018-04-02T13:48:01.000Z</time>
      </trkpt>
      <trkpt lat="42.9642" lon="0.8772">
        <ele>1219</ele>
        <time>2018-04-02T13:48:03.000Z</time>
      </trkpt>
      <trkpt lat="42.96419" lon="0.87722">
        <ele>1219</ele>
        <time>2018-04-02T13:48:05.000Z</time>
      </trkpt>
      <trkpt lat="42.96418" lon="0.87724">
        <ele>1219</ele>
        <time>2018-04-02T13:48:07.000Z</time>
      </trkpt>
      <trkpt lat="42.96418" lon="0.87726">
        <ele>1218</ele>
        <time>2018-04-02T13:48:09.000Z</time>
      </trkpt>
      <trkpt lat="42.9642" lon="0.87729">
        <ele>1218</ele>
        <time>2018-04-02T13:48:11.000Z</time>
      </trkpt>
      <trkpt lat="42.96422" lon="0.8773">
        <ele>1217</ele>
        <time>2018-04-02T13:48:13.000Z</time>
      </trkpt>
      <trkpt lat="42.96425" lon="0.87732">
        <ele>1217</ele>
        <time>2018-04-02T13:48:15.000Z</time>
      </trkpt>
      <trkpt lat="42.96425" lon="0.87734">
        <ele>1216</ele>
        <time>2018-04-02T13:48:17.000Z</time>
      </trkpt>
      <trkpt lat="42.96426" lon="0.87736">
        <ele>1216</ele>
        <time>2018-04-02T13:48:19.000Z</time>
      </trkpt>
      <trkpt lat="42.96427" lon="0.87738">
        <ele>1216</ele>
        <time>2018-04-02T13:48:21.000Z</time>
      </trkpt>
      <trkpt lat="42.96428" lon="0.8774">
        <ele>1216</ele>
        <time>2018-04-02T13:48:23.000Z</time>
      </trkpt>
      <trkpt lat="42.96429" lon="0.87742">
        <ele>1215</ele>
        <time>2018-04-02T13:48:25.000Z</time>
      </trkpt>
      <trkpt lat="42.96427" lon="0.87745">
        <ele>1215</ele>
        <time>2018-04-02T13:48:27.000Z</time>
      </trkpt>
      <trkpt lat="42.96427" lon="0.87748">
        <ele>1215</ele>
        <time>2018-04-02T13:48:29.000Z</time>
      </trkpt>
      <trkpt lat="42.96426" lon="0.8775">
        <ele>1215</ele>
        <time>2018-04-02T13:48:31.000Z</time>
      </trkpt>
      <trkpt lat="42.96426" lon="0.87752">
        <ele>1215</ele>
        <time>2018-04-02T13:48:33.000Z</time>
      </trkpt>
      <trkpt lat="42.96423" lon="0.87756">
        <ele>1216</ele>
        <time>2018-04-02T13:48:35.000Z</time>
      </trkpt>
      <trkpt lat="42.96422" lon="0.87758">
        <ele>1216</ele>
        <time>2018-04-02T13:48:37.000Z</time>
      </trkpt>
      <trkpt lat="42.96421" lon="0.87761">
        <ele>1216</ele>
        <time>2018-04-02T13:48:39.000Z</time>
      </trkpt>
      <trkpt lat="42.96419" lon="0.87763">
        <ele>1216</ele>
        <time>2018-04-02T13:48:41.000Z</time>
      </trkpt>
      <trkpt lat="42.96418" lon="0.87765">
        <ele>1217</ele>
        <time>2018-04-02T13:48:43.000Z</time>
      </trkpt>
      <trkpt lat="42.96417" lon="0.87769">
        <ele>1217</ele>
        <time>2018-04-02T13:48:45.000Z</time>
      </trkpt>
      <trkpt lat="42.96418" lon="0.87771">
        <ele>1216</ele>
        <time>2018-04-02T13:48:47.000Z</time>
      </trkpt>
      <trkpt lat="42.96419" lon="0.87773">
        <ele>1216</ele>
        <time>2018-04-02T13:48:49.000Z</time>
      </trkpt>
      <trkpt lat="42.96419" lon="0.87773">
        <ele>1216</ele>
        <time>2018-04-02T13:48:51.000Z</time>
      </trkpt>
      <trkpt lat="42.96419" lon="0.87775">
        <ele>1216</ele>
        <time>2018-04-02T13:48:53.000Z</time>
      </trkpt>
      <trkpt lat="42.96421" lon="0.87777">
        <ele>1215</ele>
        <time>2018-04-02T13:48:55.000Z</time>
      </trkpt>
      <trkpt lat="42.96421" lon="0.87779">
        <ele>1215</ele>
        <time>2018-04-02T13:48:57.000Z</time>
      </trkpt>
      <trkpt lat="42.96421" lon="0.87782">
        <ele>1215</ele>
        <time>2018-04-02T13:48:59.000Z</time>
      </trkpt>
      <trkpt lat="42.96421" lon="0.87785">
        <ele>1215</ele>
        <time>2018-04-02T13:49:01.000Z</time>
      </trkpt>
      <trkpt lat="42.96422" lon="0.87788">
        <ele>1215</ele>
        <time>2018-04-02T13:49:03.000Z</time>
      </trkpt>
      <trkpt lat="42.96423" lon="0.8779">
        <ele>1214</ele>
        <time>2018-04-02T13:49:05.000Z</time>
      </trkpt>
      <trkpt lat="42.96425" lon="0.87793">
        <ele>1214</ele>
        <time>2018-04-02T13:49:07.000Z</time>
      </trkpt>
      <trkpt lat="42.96427" lon="0.87795">
        <ele>1213</ele>
        <time>2018-04-02T13:49:09.000Z</time>
      </trkpt>
      <trkpt lat="42.96427" lon="0.87797">
        <ele>1213</ele>
        <time>2018-04-02T13:49:11.000Z</time>
      </trkpt>
      <trkpt lat="42.96428" lon="0.878">
        <ele>1213</ele>
        <time>2018-04-02T13:49:13.000Z</time>
      </trkpt>
      <trkpt lat="42.96428" lon="0.87802">
        <ele>1213</ele>
        <time>2018-04-02T13:49:15.000Z</time>
      </trkpt>
      <trkpt lat="42.96429" lon="0.87804">
        <ele>1212</ele>
        <time>2018-04-02T13:49:17.000Z</time>
      </trkpt>
      <trkpt lat="42.96429" lon="0.87806">
        <ele>1212</ele>
        <time>2018-04-02T13:49:19.000Z</time>
      </trkpt>
      <trkpt lat="42.96429" lon="0.87809">
        <ele>1212</ele>
        <time>2018-04-02T13:49:21.000Z</time>
      </trkpt>
      <trkpt lat="42.96429" lon="0.87811">
        <ele>1212</ele>
        <time>2018-04-02T13:49:23.000Z</time>
      </trkpt>
      <trkpt lat="42.96429" lon="0.87814">
        <ele>1213</ele>
        <time>2018-04-02T13:49:25.000Z</time>
      </trkpt>
      <trkpt lat="42.96429" lon="0.87816">
        <ele>1213</ele>
        <time>2018-04-02T13:49:27.000Z</time>
      </trkpt>
      <trkpt lat="42.96431" lon="0.87818">
        <ele>1213</ele>
        <time>2018-04-02T13:49:29.000Z</time>
      </trkpt>
      <trkpt lat="42.96432" lon="0.8782">
        <ele>1213</ele>
        <time>2018-04-02T13:49:31.000Z</time>
      </trkpt>
      <trkpt lat="42.96433" lon="0.87822">
        <ele>1213</ele>
        <time>2018-04-02T13:49:33.000Z</time>
      </trkpt>
      <trkpt lat="42.96436" lon="0.87824">
        <ele>1212</ele>
        <time>2018-04-02T13:49:35.000Z</time>
      </trkpt>
      <trkpt lat="42.96438" lon="0.87827">
        <ele>1212</ele>
        <time>2018-04-02T13:49:37.000Z</time>
      </trkpt>
      <trkpt lat="42.9644" lon="0.87829">
        <ele>1212</ele>
        <time>2018-04-02T13:49:39.000Z</time>
      </trkpt>
      <trkpt lat="42.96443" lon="0.87832">
        <ele>1211</ele>
        <time>2018-04-02T13:49:41.000Z</time>
      </trkpt>
      <trkpt lat="42.96443" lon="0.87833">
        <ele>1211</ele>
        <time>2018-04-02T13:49:43.000Z</time>
      </trkpt>
      <trkpt lat="42.96443" lon="0.87837">
        <ele>1212</ele>
        <time>2018-04-02T13:49:45.000Z</time>
      </trkpt>
      <trkpt lat="42.96445" lon="0.8784">
        <ele>1212</ele>
        <time>2018-04-02T13:49:47.000Z</time>
      </trkpt>
      <trkpt lat="42.96445" lon="0.87843">
        <ele>1212</ele>
        <time>2018-04-02T13:49:49.000Z</time>
      </trkpt>
      <trkpt lat="42.96446" lon="0.87846">
        <ele>1212</ele>
        <time>2018-04-02T13:49:51.000Z</time>
      </trkpt>
      <trkpt lat="42.96448" lon="0.87848">
        <ele>1212</ele>
        <time>2018-04-02T13:49:53.000Z</time>
      </trkpt>
      <trkpt lat="42.96448" lon="0.87851">
        <ele>1212</ele>
        <time>2018-04-02T13:49:55.000Z</time>
      </trkpt>
      <trkpt lat="42.96448" lon="0.87853">
        <ele>1212</ele>
        <time>2018-04-02T13:49:57.000Z</time>
      </trkpt>
      <trkpt lat="42.96449" lon="0.87856">
        <ele>1213</ele>
        <time>2018-04-02T13:49:59.000Z</time>
      </trkpt>
      <trkpt lat="42.96448" lon="0.87858">
        <ele>1213</ele>
        <time>2018-04-02T13:50:01.000Z</time>
      </trkpt>
      <trkpt lat="42.96448" lon="0.87861">
        <ele>1213</ele>
        <time>2018-04-02T13:50:03.000Z</time>
      </trkpt>
      <trkpt lat="42.96451" lon="0.87864">
        <ele>1213</ele>
        <time>2018-04-02T13:50:05.000Z</time>
      </trkpt>
      <trkpt lat="42.96453" lon="0.87867">
        <ele>1213</ele>
        <time>2018-04-02T13:50:07.000Z</time>
      </trkpt>
      <trkpt lat="42.96454" lon="0.87869">
        <ele>1213</ele>
        <time>2018-04-02T13:50:09.000Z</time>
      </trkpt>
      <trkpt lat="42.96455" lon="0.8787">
        <ele>1213</ele>
        <time>2018-04-02T13:50:11.000Z</time>
      </trkpt>
      <trkpt lat="42.96456" lon="0.87871">
        <ele>1212</ele>
        <time>2018-04-02T13:50:13.000Z</time>
      </trkpt>
      <trkpt lat="42.96457" lon="0.87873">
        <ele>1212</ele>
        <time>2018-04-02T13:50:15.000Z</time>
      </trkpt>
      <trkpt lat="42.96459" lon="0.87874">
        <ele>1212</ele>
        <time>2018-04-02T13:50:17.000Z</time>
      </trkpt>
      <trkpt lat="42.96459" lon="0.87875">
        <ele>1212</ele>
        <time>2018-04-02T13:50:19.000Z</time>
      </trkpt>
      <trkpt lat="42.9646" lon="0.87877">
        <ele>1212</ele>
        <time>2018-04-02T13:50:21.000Z</time>
      </trkpt>
      <trkpt lat="42.96459" lon="0.87876">
        <ele>1212</ele>
        <time>2018-04-02T13:50:23.000Z</time>
      </trkpt>
      <trkpt lat="42.96457" lon="0.87876">
        <ele>1213</ele>
        <time>2018-04-02T13:50:25.000Z</time>
      </trkpt>
      <trkpt lat="42.96458" lon="0.87875">
        <ele>1213</ele>
        <time>2018-04-02T13:50:27.000Z</time>
      </trkpt>
      <trkpt lat="42.96459" lon="0.87875">
        <ele>1212</ele>
        <time>2018-04-02T13:50:29.000Z</time>
      </trkpt>
      <trkpt lat="42.96458" lon="0.87876">
        <ele>1212</ele>
        <time>2018-04-02T13:50:31.000Z</time>
      </trkpt>
      <trkpt lat="42.96458" lon="0.87876">
        <ele>1212</ele>
        <time>2018-04-02T13:50:33.000Z</time>
      </trkpt>
      <trkpt lat="42.96459" lon="0.87876">
        <ele>1212</ele>
        <time>2018-04-02T13:50:35.000Z</time>
      </trkpt>
      <trkpt lat="42.9646" lon="0.87877">
        <ele>1212</ele>
        <time>2018-04-02T13:50:37.000Z</time>
      </trkpt>
      <trkpt lat="42.9646" lon="0.87878">
        <ele>1212</ele>
        <time>2018-04-02T13:50:39.000Z</time>
      </trkpt>
      <trkpt lat="42.96459" lon="0.87879">
        <ele>1212</ele>
        <time>2018-04-02T13:50:41.000Z</time>
      </trkpt>
      <trkpt lat="42.9646" lon="0.87879">
        <ele>1212</ele>
        <time>2018-04-02T13:50:43.000Z</time>
      </trkpt>
      <trkpt lat="42.96462" lon="0.8788">
        <ele>1212</ele>
        <time>2018-04-02T13:50:45.000Z</time>
      </trkpt>
      <trkpt lat="42.96463" lon="0.87881">
        <ele>1212</ele>
        <time>2018-04-02T13:50:47.000Z</time>
      </trkpt>
      <trkpt lat="42.96465" lon="0.87882">
        <ele>1212</ele>
        <time>2018-04-02T13:50:49.000Z</time>
      </trkpt>
      <trkpt lat="42.96466" lon="0.87883">
        <ele>1211</ele>
        <time>2018-04-02T13:50:51.000Z</time>
      </trkpt>
      <trkpt lat="42.96467" lon="0.87881">
        <ele>1211</ele>
        <time>2018-04-02T13:50:53.000Z</time>
      </trkpt>
      <trkpt lat="42.96468" lon="0.8788">
        <ele>1211</ele>
        <time>2018-04-02T13:50:55.000Z</time>
      </trkpt>
      <trkpt lat="42.96468" lon="0.8788">
        <ele>1211</ele>
        <time>2018-04-02T13:50:57.000Z</time>
      </trkpt>
      <trkpt lat="42.96468" lon="0.87881">
        <ele>1211</ele>
        <time>2018-04-02T13:50:59.000Z</time>
      </trkpt>
      <trkpt lat="42.96468" lon="0.87882">
        <ele>1211</ele>
        <time>2018-04-02T13:51:01.000Z</time>
      </trkpt>
      <trkpt lat="42.96469" lon="0.87882">
        <ele>1211</ele>
        <time>2018-04-02T13:51:03.000Z</time>
      </trkpt>
      <trkpt lat="42.96469" lon="0.87883">
        <ele>1211</ele>
        <time>2018-04-02T13:51:05.000Z</time>
      </trkpt>
      <trkpt lat="42.9647" lon="0.87884">
        <ele>1211</ele>
        <time>2018-04-02T13:51:07.000Z</time>
      </trkpt>
      <trkpt lat="42.96469" lon="0.87885">
        <ele>1211</ele>
        <time>2018-04-02T13:51:09.000Z</time>
      </trkpt>
      <trkpt lat="42.96469" lon="0.87885">
        <ele>1211</ele>
        <time>2018-04-02T13:51:11.000Z</time>
      </trkpt>
      <trkpt lat="42.9647" lon="0.87886">
        <ele>1211</ele>
        <time>2018-04-02T13:51:13.000Z</time>
      </trkpt>
      <trkpt lat="42.96469" lon="0.87886">
        <ele>1211</ele>
        <time>2018-04-02T13:51:15.000Z</time>
      </trkpt>
      <trkpt lat="42.96468" lon="0.87888">
        <ele>1211</ele>
        <time>2018-04-02T13:51:17.000Z</time>
      </trkpt>
      <trkpt lat="42.96468" lon="0.87888">
        <ele>1211</ele>
        <time>2018-04-02T13:51:19.000Z</time>
      </trkpt>
      <trkpt lat="42.96467" lon="0.87889">
        <ele>1212</ele>
        <time>2018-04-02T13:51:21.000Z</time>
      </trkpt>
      <trkpt lat="42.96467" lon="0.8789">
        <ele>1212</ele>
        <time>2018-04-02T13:51:23.000Z</time>
      </trkpt>
      <trkpt lat="42.96467" lon="0.87889">
        <ele>1212</ele>
        <time>2018-04-02T13:51:25.000Z</time>
      </trkpt>
      <trkpt lat="42.96467" lon="0.87889">
        <ele>1212</ele>
        <time>2018-04-02T13:51:27.000Z</time>
      </trkpt>
      <trkpt lat="42.96467" lon="0.8789">
        <ele>1212</ele>
        <time>2018-04-02T13:51:29.000Z</time>
      </trkpt>
      <trkpt lat="42.96467" lon="0.87891">
        <ele>1212</ele>
        <time>2018-04-02T13:51:31.000Z</time>
      </trkpt>
      <trkpt lat="42.96467" lon="0.87891">
        <ele>1212</ele>
        <time>2018-04-02T13:51:33.000Z</time>
      </trkpt>
      <trkpt lat="42.96468" lon="0.87893">
        <ele>1212</ele>
        <time>2018-04-02T13:51:35.000Z</time>
      </trkpt>
      <trkpt lat="42.96468" lon="0.87894">
        <ele>1212</ele>
        <time>2018-04-02T13:51:37.000Z</time>
      </trkpt>
      <trkpt lat="42.96469" lon="0.87894">
        <ele>1211</ele>
        <time>2018-04-02T13:51:39.000Z</time>
      </trkpt>
      <trkpt lat="42.96469" lon="0.87894">
        <ele>1211</ele>
        <time>2018-04-02T13:51:41.000Z</time>
      </trkpt>
      <trkpt lat="42.9647" lon="0.87895">
        <ele>1211</ele>
        <time>2018-04-02T13:51:43.000Z</time>
      </trkpt>
      <trkpt lat="42.9647" lon="0.87894">
        <ele>1211</ele>
        <time>2018-04-02T13:51:45.000Z</time>
      </trkpt>
      <trkpt lat="42.96469" lon="0.87895">
        <ele>1211</ele>
        <time>2018-04-02T13:51:47.000Z</time>
      </trkpt>
      <trkpt lat="42.96469" lon="0.87895">
        <ele>1211</ele>
        <time>2018-04-02T13:51:49.000Z</time>
      </trkpt>
      <trkpt lat="42.96469" lon="0.87896">
        <ele>1211</ele>
        <time>2018-04-02T13:51:51.000Z</time>
      </trkpt>
      <trkpt lat="42.96469" lon="0.87897">
        <ele>1212</ele>
        <time>2018-04-02T13:51:53.000Z</time>
      </trkpt>
      <trkpt lat="42.96468" lon="0.87897">
        <ele>1212</ele>
        <time>2018-04-02T13:51:55.000Z</time>
      </trkpt>
      <trkpt lat="42.96471" lon="0.87895">
        <ele>1211</ele>
        <time>2018-04-02T13:51:57.000Z</time>
      </trkpt>
      <trkpt lat="42.96471" lon="0.87894">
        <ele>1211</ele>
        <time>2018-04-02T13:51:59.000Z</time>
      </trkpt>
      <trkpt lat="42.96471" lon="0.87892">
        <ele>1211</ele>
        <time>2018-04-02T13:52:01.000Z</time>
      </trkpt>
      <trkpt lat="42.96471" lon="0.87891">
        <ele>1211</ele>
        <time>2018-04-02T13:52:03.000Z</time>
      </trkpt>
      <trkpt lat="42.9647" lon="0.8789">
        <ele>1211</ele>
        <time>2018-04-02T13:52:05.000Z</time>
      </trkpt>
      <trkpt lat="42.9647" lon="0.87888">
        <ele>1211</ele>
        <time>2018-04-02T13:52:07.000Z</time>
      </trkpt>
      <trkpt lat="42.9647" lon="0.87887">
        <ele>1211</ele>
        <time>2018-04-02T13:52:09.000Z</time>
      </trkpt>
      <trkpt lat="42.96471" lon="0.87886">
        <ele>1211</ele>
        <time>2018-04-02T13:52:11.000Z</time>
      </trkpt>
      <trkpt lat="42.96471" lon="0.87885">
        <ele>1210</ele>
        <time>2018-04-02T13:52:13.000Z</time>
      </trkpt>
      <trkpt lat="42.96471" lon="0.87883">
        <ele>1210</ele>
        <time>2018-04-02T13:52:15.000Z</time>
      </trkpt>
      <trkpt lat="42.96471" lon="0.87882">
        <ele>1210</ele>
        <time>2018-04-02T13:52:17.000Z</time>
      </trkpt>
      <trkpt lat="42.96472" lon="0.8788">
        <ele>1210</ele>
        <time>2018-04-02T13:52:19.000Z</time>
      </trkpt>
      <trkpt lat="42.96473" lon="0.87879">
        <ele>1209</ele>
        <time>2018-04-02T13:52:21.000Z</time>
      </trkpt>
      <trkpt lat="42.96472" lon="0.8788">
        <ele>1209</ele>
        <time>2018-04-02T13:52:23.000Z</time>
      </trkpt>
      <trkpt lat="42.96472" lon="0.8788">
        <ele>1210</ele>
        <time>2018-04-02T13:52:25.000Z</time>
      </trkpt>
      <trkpt lat="42.96471" lon="0.87881">
        <ele>1210</ele>
        <time>2018-04-02T13:52:27.000Z</time>
      </trkpt>
      <trkpt lat="42.96471" lon="0.87883">
        <ele>1210</ele>
        <time>2018-04-02T13:52:29.000Z</time>
      </trkpt>
      <trkpt lat="42.96471" lon="0.87883">
        <ele>1210</ele>
        <time>2018-04-02T13:52:31.000Z</time>
      </trkpt>
      <trkpt lat="42.96471" lon="0.87883">
        <ele>1210</ele>
        <time>2018-04-02T13:52:33.000Z</time>
      </trkpt>
    </trkseg>
  </trk>
</gpx>